Files
intotheeast-com-content/pages/01.trips/denmark-2026/spooky-house-shelter-to-stranden.gpx
T

79218 lines
2.5 MiB
Plaintext

<?xml version='1.0' encoding='UTF-8'?>
<gpx version="1.1" creator="https://www.komoot.de" xmlns="http://www.topografix.com/GPX/1/1" xmlns:xsi="http://www.w3.org/2001/XMLSchema-instance" xsi:schemaLocation="http://www.topografix.com/GPX/1/1 http://www.topografix.com/GPX/1/1/gpx.xsd">
<metadata>
<name>Spooky house shelter to Stranden</name>
<author>
<link href="https://www.komoot.de">
<text>komoot</text>
<type>text/html</type>
</link>
</author>
</metadata>
<trk>
<name>Spooky house shelter to Stranden</name>
<type>racebike</type>
<trkseg>
<trkpt lat="57.136528" lon="9.327824">
<ele>51.964745</ele>
<time>2026-07-16T08:45:46.000Z</time>
</trkpt>
<trkpt lat="57.136501" lon="9.327944">
<ele>51.964745</ele>
<time>2026-07-16T08:45:56.000Z</time>
</trkpt>
<trkpt lat="57.136490" lon="9.327969">
<ele>51.964745</ele>
<time>2026-07-16T08:45:57.000Z</time>
</trkpt>
<trkpt lat="57.136478" lon="9.327974">
<ele>51.964745</ele>
<time>2026-07-16T08:45:58.000Z</time>
</trkpt>
<trkpt lat="57.136475" lon="9.327976">
<ele>51.964745</ele>
<time>2026-07-16T08:45:59.000Z</time>
</trkpt>
<trkpt lat="57.136475" lon="9.327978">
<ele>51.964745</ele>
<time>2026-07-16T08:46:00.000Z</time>
</trkpt>
<trkpt lat="57.136475" lon="9.327976">
<ele>51.964745</ele>
<time>2026-07-16T08:46:01.000Z</time>
</trkpt>
<trkpt lat="57.136463" lon="9.327972">
<ele>51.964745</ele>
<time>2026-07-16T08:46:04.000Z</time>
</trkpt>
<trkpt lat="57.136452" lon="9.327966">
<ele>51.964745</ele>
<time>2026-07-16T08:46:05.000Z</time>
</trkpt>
<trkpt lat="57.136440" lon="9.327963">
<ele>51.964745</ele>
<time>2026-07-16T08:46:06.000Z</time>
</trkpt>
<trkpt lat="57.136425" lon="9.327962">
<ele>51.964745</ele>
<time>2026-07-16T08:46:07.000Z</time>
</trkpt>
<trkpt lat="57.136410" lon="9.327952">
<ele>51.964745</ele>
<time>2026-07-16T08:46:08.000Z</time>
</trkpt>
<trkpt lat="57.136394" lon="9.327935">
<ele>51.964745</ele>
<time>2026-07-16T08:46:09.000Z</time>
</trkpt>
<trkpt lat="57.136375" lon="9.327913">
<ele>51.964745</ele>
<time>2026-07-16T08:46:10.000Z</time>
</trkpt>
<trkpt lat="57.136356" lon="9.327887">
<ele>51.964745</ele>
<time>2026-07-16T08:46:11.000Z</time>
</trkpt>
<trkpt lat="57.136333" lon="9.327865">
<ele>51.964745</ele>
<time>2026-07-16T08:46:12.000Z</time>
</trkpt>
<trkpt lat="57.136307" lon="9.327839">
<ele>51.964745</ele>
<time>2026-07-16T08:46:13.000Z</time>
</trkpt>
<trkpt lat="57.136288" lon="9.327807">
<ele>51.964745</ele>
<time>2026-07-16T08:46:14.000Z</time>
</trkpt>
<trkpt lat="57.136269" lon="9.327770">
<ele>51.964745</ele>
<time>2026-07-16T08:46:15.000Z</time>
</trkpt>
<trkpt lat="57.136253" lon="9.327731">
<ele>51.964745</ele>
<time>2026-07-16T08:46:16.000Z</time>
</trkpt>
<trkpt lat="57.136242" lon="9.327683">
<ele>51.964745</ele>
<time>2026-07-16T08:46:17.000Z</time>
</trkpt>
<trkpt lat="57.136234" lon="9.327634">
<ele>51.964745</ele>
<time>2026-07-16T08:46:18.000Z</time>
</trkpt>
<trkpt lat="57.136230" lon="9.327590">
<ele>51.964745</ele>
<time>2026-07-16T08:46:19.000Z</time>
</trkpt>
<trkpt lat="57.136223" lon="9.327538">
<ele>51.964745</ele>
<time>2026-07-16T08:46:20.000Z</time>
</trkpt>
<trkpt lat="57.136219" lon="9.327485">
<ele>51.964745</ele>
<time>2026-07-16T08:46:21.000Z</time>
</trkpt>
<trkpt lat="57.136219" lon="9.327435">
<ele>51.964745</ele>
<time>2026-07-16T08:46:22.000Z</time>
</trkpt>
<trkpt lat="57.136219" lon="9.327380">
<ele>51.964745</ele>
<time>2026-07-16T08:46:23.000Z</time>
</trkpt>
<trkpt lat="57.136219" lon="9.327336">
<ele>51.964745</ele>
<time>2026-07-16T08:46:24.000Z</time>
</trkpt>
<trkpt lat="57.136223" lon="9.327284">
<ele>51.964745</ele>
<time>2026-07-16T08:46:25.000Z</time>
</trkpt>
<trkpt lat="57.136227" lon="9.327240">
<ele>51.964745</ele>
<time>2026-07-16T08:46:26.000Z</time>
</trkpt>
<trkpt lat="57.136234" lon="9.327182">
<ele>51.964745</ele>
<time>2026-07-16T08:46:27.000Z</time>
</trkpt>
<trkpt lat="57.136238" lon="9.327147">
<ele>51.964745</ele>
<time>2026-07-16T08:46:28.000Z</time>
</trkpt>
<trkpt lat="57.136246" lon="9.327098">
<ele>51.964745</ele>
<time>2026-07-16T08:46:29.000Z</time>
</trkpt>
<trkpt lat="57.136253" lon="9.327065">
<ele>51.964745</ele>
<time>2026-07-16T08:46:30.000Z</time>
</trkpt>
<trkpt lat="57.136261" lon="9.327023">
<ele>51.964745</ele>
<time>2026-07-16T08:46:31.000Z</time>
</trkpt>
<trkpt lat="57.136265" lon="9.326990">
<ele>51.964745</ele>
<time>2026-07-16T08:46:32.000Z</time>
</trkpt>
<trkpt lat="57.136265" lon="9.326949">
<ele>51.964745</ele>
<time>2026-07-16T08:46:33.000Z</time>
</trkpt>
<trkpt lat="57.136265" lon="9.326922">
<ele>51.964745</ele>
<time>2026-07-16T08:46:34.000Z</time>
</trkpt>
<trkpt lat="57.136272" lon="9.326891">
<ele>51.964745</ele>
<time>2026-07-16T08:46:35.000Z</time>
</trkpt>
<trkpt lat="57.136276" lon="9.326876">
<ele>51.964745</ele>
<time>2026-07-16T08:46:36.000Z</time>
</trkpt>
<trkpt lat="57.136284" lon="9.326850">
<ele>51.964745</ele>
<time>2026-07-16T08:46:37.000Z</time>
</trkpt>
<trkpt lat="57.136295" lon="9.326823">
<ele>51.964745</ele>
<time>2026-07-16T08:46:38.000Z</time>
</trkpt>
<trkpt lat="57.136299" lon="9.326804">
<ele>51.964745</ele>
<time>2026-07-16T08:46:39.000Z</time>
</trkpt>
<trkpt lat="57.136303" lon="9.326778">
<ele>51.961789</ele>
<time>2026-07-16T08:46:40.000Z</time>
</trkpt>
<trkpt lat="57.136299" lon="9.326756">
<ele>51.958260</ele>
<time>2026-07-16T08:46:41.000Z</time>
</trkpt>
<trkpt lat="57.136295" lon="9.326741">
<ele>51.955718</ele>
<time>2026-07-16T08:46:42.000Z</time>
</trkpt>
<trkpt lat="57.136292" lon="9.326714">
<ele>51.951526</ele>
<time>2026-07-16T08:46:43.000Z</time>
</trkpt>
<trkpt lat="57.136288" lon="9.326689">
<ele>51.947562</ele>
<time>2026-07-16T08:46:44.000Z</time>
</trkpt>
<trkpt lat="57.136292" lon="9.326667">
<ele>51.944033</ele>
<time>2026-07-16T08:46:45.000Z</time>
</trkpt>
<trkpt lat="57.136292" lon="9.326632">
<ele>51.938709</ele>
<time>2026-07-16T08:46:46.000Z</time>
</trkpt>
<trkpt lat="57.136288" lon="9.326609">
<ele>51.935035</ele>
<time>2026-07-16T08:46:47.000Z</time>
</trkpt>
<trkpt lat="57.136288" lon="9.326568">
<ele>51.928799</ele>
<time>2026-07-16T08:46:48.000Z</time>
</trkpt>
<trkpt lat="57.136292" lon="9.326536">
<ele>51.923804</ele>
<time>2026-07-16T08:46:49.000Z</time>
</trkpt>
<trkpt lat="57.136299" lon="9.326496">
<ele>51.917412</ele>
<time>2026-07-16T08:46:50.000Z</time>
</trkpt>
<trkpt lat="57.136311" lon="9.326476">
<ele>51.912876</ele>
<time>2026-07-16T08:46:51.000Z</time>
</trkpt>
<trkpt lat="57.136330" lon="9.326454">
<ele>51.906587</ele>
<time>2026-07-16T08:46:52.000Z</time>
</trkpt>
<trkpt lat="57.136345" lon="9.326448">
<ele>51.902284</ele>
<time>2026-07-16T08:46:53.000Z</time>
</trkpt>
<trkpt lat="57.136368" lon="9.326437">
<ele>51.895624</ele>
<time>2026-07-16T08:46:54.000Z</time>
</trkpt>
<trkpt lat="57.136383" lon="9.326432">
<ele>51.891351</ele>
<time>2026-07-16T08:46:55.000Z</time>
</trkpt>
<trkpt lat="57.136402" lon="9.326431">
<ele>51.886023</ele>
<time>2026-07-16T08:46:56.000Z</time>
</trkpt>
<trkpt lat="57.136417" lon="9.326432">
<ele>51.881816</ele>
<time>2026-07-16T08:46:57.000Z</time>
</trkpt>
<trkpt lat="57.136440" lon="9.326430">
<ele>51.875362</ele>
<time>2026-07-16T08:46:58.000Z</time>
</trkpt>
<trkpt lat="57.136455" lon="9.326431">
<ele>51.871154</ele>
<time>2026-07-16T08:46:59.000Z</time>
</trkpt>
<trkpt lat="57.136482" lon="9.326436">
<ele>51.863548</ele>
<time>2026-07-16T08:47:00.000Z</time>
</trkpt>
<trkpt lat="57.136501" lon="9.326442">
<ele>51.858145</ele>
<time>2026-07-16T08:47:01.000Z</time>
</trkpt>
<trkpt lat="57.136532" lon="9.326449">
<ele>51.849390</ele>
<time>2026-07-16T08:47:02.000Z</time>
</trkpt>
<trkpt lat="57.136559" lon="9.326451">
<ele>51.841816</ele>
<time>2026-07-16T08:47:03.000Z</time>
</trkpt>
<trkpt lat="57.136593" lon="9.326454">
<ele>51.832275</ele>
<time>2026-07-16T08:47:04.000Z</time>
</trkpt>
<trkpt lat="57.136635" lon="9.326461">
<ele>51.820454</ele>
<time>2026-07-16T08:47:05.000Z</time>
</trkpt>
<trkpt lat="57.136673" lon="9.326466">
<ele>51.809776</ele>
<time>2026-07-16T08:47:06.000Z</time>
</trkpt>
<trkpt lat="57.136707" lon="9.326470">
<ele>51.800226</ele>
<time>2026-07-16T08:47:07.000Z</time>
</trkpt>
<trkpt lat="57.136749" lon="9.326481">
<ele>51.788335</ele>
<time>2026-07-16T08:47:08.000Z</time>
</trkpt>
<trkpt lat="57.136780" lon="9.326492">
<ele>51.779486</ele>
<time>2026-07-16T08:47:09.000Z</time>
</trkpt>
<trkpt lat="57.136845" lon="9.326509">
<ele>51.761084</ele>
<time>2026-07-16T08:47:10.000Z</time>
</trkpt>
<trkpt lat="57.136909" lon="9.326529">
<ele>51.742889</ele>
<time>2026-07-16T08:47:11.000Z</time>
</trkpt>
<trkpt lat="57.136978" lon="9.326543">
<ele>51.723431</ele>
<time>2026-07-16T08:47:12.000Z</time>
</trkpt>
<trkpt lat="57.137035" lon="9.326560">
<ele>51.707246</ele>
<time>2026-07-16T08:47:13.000Z</time>
</trkpt>
<trkpt lat="57.137093" lon="9.326573">
<ele>51.690869</ele>
<time>2026-07-16T08:47:14.000Z</time>
</trkpt>
<trkpt lat="57.137157" lon="9.326581">
<ele>51.672888</ele>
<time>2026-07-16T08:47:15.000Z</time>
</trkpt>
<trkpt lat="57.137215" lon="9.326584">
<ele>51.656624</ele>
<time>2026-07-16T08:47:16.000Z</time>
</trkpt>
<trkpt lat="57.137264" lon="9.326587">
<ele>51.642882</ele>
<time>2026-07-16T08:47:17.000Z</time>
</trkpt>
<trkpt lat="57.137322" lon="9.326581">
<ele>51.626599</ele>
<time>2026-07-16T08:47:18.000Z</time>
</trkpt>
<trkpt lat="57.137375" lon="9.326570">
<ele>51.611649</ele>
<time>2026-07-16T08:47:19.000Z</time>
</trkpt>
<trkpt lat="57.137432" lon="9.326551">
<ele>51.595412</ele>
<time>2026-07-16T08:47:20.000Z</time>
</trkpt>
<trkpt lat="57.137485" lon="9.326533">
<ele>51.580306</ele>
<time>2026-07-16T08:47:21.000Z</time>
</trkpt>
<trkpt lat="57.137543" lon="9.326503">
<ele>51.563421</ele>
<time>2026-07-16T08:47:22.000Z</time>
</trkpt>
<trkpt lat="57.137608" lon="9.326463">
<ele>51.544212</ele>
<time>2026-07-16T08:47:23.000Z</time>
</trkpt>
<trkpt lat="57.137665" lon="9.326422">
<ele>51.527061</ele>
<time>2026-07-16T08:47:24.000Z</time>
</trkpt>
<trkpt lat="57.137730" lon="9.326381">
<ele>51.507804</ele>
<time>2026-07-16T08:47:25.000Z</time>
</trkpt>
<trkpt lat="57.137791" lon="9.326338">
<ele>51.489497</ele>
<time>2026-07-16T08:47:26.000Z</time>
</trkpt>
<trkpt lat="57.137859" lon="9.326294">
<ele>51.469296</ele>
<time>2026-07-16T08:47:27.000Z</time>
</trkpt>
<trkpt lat="57.137924" lon="9.326246">
<ele>51.509302</ele>
<time>2026-07-16T08:47:28.000Z</time>
</trkpt>
<trkpt lat="57.137989" lon="9.326199">
<ele>51.596670</ele>
<time>2026-07-16T08:47:29.000Z</time>
</trkpt>
<trkpt lat="57.138046" lon="9.326160">
<ele>51.672748</ele>
<time>2026-07-16T08:47:30.000Z</time>
</trkpt>
<trkpt lat="57.138100" lon="9.326119">
<ele>51.745825</ele>
<time>2026-07-16T08:47:31.000Z</time>
</trkpt>
<trkpt lat="57.138149" lon="9.326081">
<ele>51.812344</ele>
<time>2026-07-16T08:47:32.000Z</time>
</trkpt>
<trkpt lat="57.138195" lon="9.326050">
<ele>51.873629</ele>
<time>2026-07-16T08:47:33.000Z</time>
</trkpt>
<trkpt lat="57.138237" lon="9.326015">
<ele>51.931305</ele>
<time>2026-07-16T08:47:34.000Z</time>
</trkpt>
<trkpt lat="57.138275" lon="9.325975">
<ele>51.986062</ele>
<time>2026-07-16T08:47:35.000Z</time>
</trkpt>
<trkpt lat="57.138321" lon="9.325935">
<ele>52.049705</ele>
<time>2026-07-16T08:47:36.000Z</time>
</trkpt>
<trkpt lat="57.138359" lon="9.325901">
<ele>52.102560</ele>
<time>2026-07-16T08:47:37.000Z</time>
</trkpt>
<trkpt lat="57.138413" lon="9.325864">
<ele>52.174646</ele>
<time>2026-07-16T08:47:38.000Z</time>
</trkpt>
<trkpt lat="57.138454" lon="9.325830">
<ele>52.230902</ele>
<time>2026-07-16T08:47:39.000Z</time>
</trkpt>
<trkpt lat="57.138508" lon="9.325792">
<ele>52.303228</ele>
<time>2026-07-16T08:47:40.000Z</time>
</trkpt>
<trkpt lat="57.138554" lon="9.325756">
<ele>52.365760</ele>
<time>2026-07-16T08:47:41.000Z</time>
</trkpt>
<trkpt lat="57.138596" lon="9.325726">
<ele>52.422122</ele>
<time>2026-07-16T08:47:42.000Z</time>
</trkpt>
<trkpt lat="57.138634" lon="9.325701">
<ele>52.472609</ele>
<time>2026-07-16T08:47:43.000Z</time>
</trkpt>
<trkpt lat="57.138668" lon="9.325675">
<ele>52.518668</ele>
<time>2026-07-16T08:47:44.000Z</time>
</trkpt>
<trkpt lat="57.138714" lon="9.325648">
<ele>52.579075</ele>
<time>2026-07-16T08:47:45.000Z</time>
</trkpt>
<trkpt lat="57.138752" lon="9.325613">
<ele>52.632230</ele>
<time>2026-07-16T08:47:46.000Z</time>
</trkpt>
<trkpt lat="57.138786" lon="9.325570">
<ele>52.683826</ele>
<time>2026-07-16T08:47:47.000Z</time>
</trkpt>
<trkpt lat="57.138821" lon="9.325531">
<ele>52.735002</ele>
<time>2026-07-16T08:47:48.000Z</time>
</trkpt>
<trkpt lat="57.138855" lon="9.325499">
<ele>52.782771</ele>
<time>2026-07-16T08:47:49.000Z</time>
</trkpt>
<trkpt lat="57.138885" lon="9.325472">
<ele>52.824546</ele>
<time>2026-07-16T08:47:50.000Z</time>
</trkpt>
<trkpt lat="57.138916" lon="9.325444">
<ele>52.867743</ele>
<time>2026-07-16T08:47:51.000Z</time>
</trkpt>
<trkpt lat="57.138947" lon="9.325418">
<ele>52.910360</ele>
<time>2026-07-16T08:47:52.000Z</time>
</trkpt>
<trkpt lat="57.138981" lon="9.325391">
<ele>52.956683</ele>
<time>2026-07-16T08:47:53.000Z</time>
</trkpt>
<trkpt lat="57.139019" lon="9.325370">
<ele>53.006323</ele>
<time>2026-07-16T08:47:54.000Z</time>
</trkpt>
<trkpt lat="57.139053" lon="9.325352">
<ele>53.050586</ele>
<time>2026-07-16T08:47:55.000Z</time>
</trkpt>
<trkpt lat="57.139099" lon="9.325330">
<ele>53.110050</ele>
<time>2026-07-16T08:47:56.000Z</time>
</trkpt>
<trkpt lat="57.139145" lon="9.325304">
<ele>53.170254</ele>
<time>2026-07-16T08:47:57.000Z</time>
</trkpt>
<trkpt lat="57.139191" lon="9.325279">
<ele>53.230262</ele>
<time>2026-07-16T08:47:58.000Z</time>
</trkpt>
<trkpt lat="57.139244" lon="9.325254">
<ele>53.298716</ele>
<time>2026-07-16T08:47:59.000Z</time>
</trkpt>
<trkpt lat="57.139313" lon="9.325222">
<ele>53.387744</ele>
<time>2026-07-16T08:48:00.000Z</time>
</trkpt>
<trkpt lat="57.139362" lon="9.325201">
<ele>53.450692</ele>
<time>2026-07-16T08:48:01.000Z</time>
</trkpt>
<trkpt lat="57.139400" lon="9.325185">
<ele>53.499464</ele>
<time>2026-07-16T08:48:02.000Z</time>
</trkpt>
<trkpt lat="57.139442" lon="9.325167">
<ele>53.553419</ele>
<time>2026-07-16T08:48:03.000Z</time>
</trkpt>
<trkpt lat="57.139484" lon="9.325156">
<ele>53.606500</ele>
<time>2026-07-16T08:48:04.000Z</time>
</trkpt>
<trkpt lat="57.139545" lon="9.325144">
<ele>53.683260</ele>
<time>2026-07-16T08:48:05.000Z</time>
</trkpt>
<trkpt lat="57.139599" lon="9.325130">
<ele>53.763887</ele>
<time>2026-07-16T08:48:06.000Z</time>
</trkpt>
<trkpt lat="57.139652" lon="9.325114">
<ele>53.851727</ele>
<time>2026-07-16T08:48:07.000Z</time>
</trkpt>
<trkpt lat="57.139698" lon="9.325097">
<ele>53.928461</ele>
<time>2026-07-16T08:48:08.000Z</time>
</trkpt>
<trkpt lat="57.139736" lon="9.325091">
<ele>53.990840</ele>
<time>2026-07-16T08:48:09.000Z</time>
</trkpt>
<trkpt lat="57.139771" lon="9.325086">
<ele>54.048257</ele>
<time>2026-07-16T08:48:10.000Z</time>
</trkpt>
<trkpt lat="57.139820" lon="9.325084">
<ele>54.128420</ele>
<time>2026-07-16T08:48:11.000Z</time>
</trkpt>
<trkpt lat="57.139858" lon="9.325079">
<ele>54.190730</ele>
<time>2026-07-16T08:48:12.000Z</time>
</trkpt>
<trkpt lat="57.139900" lon="9.325077">
<ele>54.259447</ele>
<time>2026-07-16T08:48:13.000Z</time>
</trkpt>
<trkpt lat="57.139935" lon="9.325066">
<ele>54.317518</ele>
<time>2026-07-16T08:48:14.000Z</time>
</trkpt>
<trkpt lat="57.139973" lon="9.325059">
<ele>54.379979</ele>
<time>2026-07-16T08:48:15.000Z</time>
</trkpt>
<trkpt lat="57.140018" lon="9.325054">
<ele>54.453714</ele>
<time>2026-07-16T08:48:16.000Z</time>
</trkpt>
<trkpt lat="57.140060" lon="9.325044">
<ele>54.522978</ele>
<time>2026-07-16T08:48:17.000Z</time>
</trkpt>
<trkpt lat="57.140114" lon="9.325038">
<ele>54.611460</ele>
<time>2026-07-16T08:48:18.000Z</time>
</trkpt>
<trkpt lat="57.140160" lon="9.325037">
<ele>54.686701</ele>
<time>2026-07-16T08:48:19.000Z</time>
</trkpt>
<trkpt lat="57.140198" lon="9.325034">
<ele>54.748910</ele>
<time>2026-07-16T08:48:20.000Z</time>
</trkpt>
<trkpt lat="57.140240" lon="9.325026">
<ele>54.817970</ele>
<time>2026-07-16T08:48:21.000Z</time>
</trkpt>
<trkpt lat="57.140274" lon="9.325023">
<ele>54.873643</ele>
<time>2026-07-16T08:48:22.000Z</time>
</trkpt>
<trkpt lat="57.140324" lon="9.325024">
<ele>54.955426</ele>
<time>2026-07-16T08:48:23.000Z</time>
</trkpt>
<trkpt lat="57.140369" lon="9.325024">
<ele>55.029027</ele>
<time>2026-07-16T08:48:24.000Z</time>
</trkpt>
<trkpt lat="57.140408" lon="9.325019">
<ele>55.092968</ele>
<time>2026-07-16T08:48:25.000Z</time>
</trkpt>
<trkpt lat="57.140453" lon="9.325012">
<ele>55.166831</ele>
<time>2026-07-16T08:48:26.000Z</time>
</trkpt>
<trkpt lat="57.140491" lon="9.325000">
<ele>55.229888</ele>
<time>2026-07-16T08:48:27.000Z</time>
</trkpt>
<trkpt lat="57.140541" lon="9.324989">
<ele>55.312247</ele>
<time>2026-07-16T08:48:28.000Z</time>
</trkpt>
<trkpt lat="57.140591" lon="9.324979">
<ele>55.394506</ele>
<time>2026-07-16T08:48:29.000Z</time>
</trkpt>
<trkpt lat="57.140636" lon="9.324969">
<ele>55.468640</ele>
<time>2026-07-16T08:48:30.000Z</time>
</trkpt>
<trkpt lat="57.140682" lon="9.324966">
<ele>55.543923</ele>
<time>2026-07-16T08:48:31.000Z</time>
</trkpt>
<trkpt lat="57.140713" lon="9.324960">
<ele>55.594905</ele>
<time>2026-07-16T08:48:32.000Z</time>
</trkpt>
<trkpt lat="57.140743" lon="9.324957">
<ele>55.644044</ele>
<time>2026-07-16T08:48:33.000Z</time>
</trkpt>
<trkpt lat="57.140770" lon="9.324953">
<ele>55.688347</ele>
<time>2026-07-16T08:48:34.000Z</time>
</trkpt>
<trkpt lat="57.140801" lon="9.324943">
<ele>55.739820</ele>
<time>2026-07-16T08:48:35.000Z</time>
</trkpt>
<trkpt lat="57.140835" lon="9.324928">
<ele>55.797001</ele>
<time>2026-07-16T08:48:36.000Z</time>
</trkpt>
<trkpt lat="57.140873" lon="9.324915">
<ele>55.860214</ele>
<time>2026-07-16T08:48:37.000Z</time>
</trkpt>
<trkpt lat="57.140911" lon="9.324904">
<ele>55.923127</ele>
<time>2026-07-16T08:48:38.000Z</time>
</trkpt>
<trkpt lat="57.140972" lon="9.324901">
<ele>56.022933</ele>
<time>2026-07-16T08:48:39.000Z</time>
</trkpt>
<trkpt lat="57.141037" lon="9.324903">
<ele>56.129260</ele>
<time>2026-07-16T08:48:40.000Z</time>
</trkpt>
<trkpt lat="57.141090" lon="9.324901">
<ele>56.215963</ele>
<time>2026-07-16T08:48:41.000Z</time>
</trkpt>
<trkpt lat="57.141136" lon="9.324893">
<ele>56.291534</ele>
<time>2026-07-16T08:48:42.000Z</time>
</trkpt>
<trkpt lat="57.141182" lon="9.324892">
<ele>56.366775</ele>
<time>2026-07-16T08:48:43.000Z</time>
</trkpt>
<trkpt lat="57.141239" lon="9.324895">
<ele>56.460041</ele>
<time>2026-07-16T08:48:44.000Z</time>
</trkpt>
<trkpt lat="57.141285" lon="9.324895">
<ele>56.535277</ele>
<time>2026-07-16T08:48:45.000Z</time>
</trkpt>
<trkpt lat="57.141342" lon="9.324883">
<ele>56.629111</ele>
<time>2026-07-16T08:48:46.000Z</time>
</trkpt>
<trkpt lat="57.141415" lon="9.324879">
<ele>56.618749</ele>
<time>2026-07-16T08:48:47.000Z</time>
</trkpt>
<trkpt lat="57.141460" lon="9.324876">
<ele>56.592403</ele>
<time>2026-07-16T08:48:48.000Z</time>
</trkpt>
<trkpt lat="57.141514" lon="9.324872">
<ele>56.560782</ele>
<time>2026-07-16T08:48:49.000Z</time>
</trkpt>
<trkpt lat="57.141567" lon="9.324872">
<ele>56.529773</ele>
<time>2026-07-16T08:48:50.000Z</time>
</trkpt>
<trkpt lat="57.141628" lon="9.324879">
<ele>56.494013</ele>
<time>2026-07-16T08:48:51.000Z</time>
</trkpt>
<trkpt lat="57.141682" lon="9.324884">
<ele>56.462379</ele>
<time>2026-07-16T08:48:52.000Z</time>
</trkpt>
<trkpt lat="57.141720" lon="9.324892">
<ele>56.440001</ele>
<time>2026-07-16T08:48:53.000Z</time>
</trkpt>
<trkpt lat="57.141773" lon="9.324903">
<ele>56.408795</ele>
<time>2026-07-16T08:48:54.000Z</time>
</trkpt>
<trkpt lat="57.141823" lon="9.324907">
<ele>56.379513</ele>
<time>2026-07-16T08:48:55.000Z</time>
</trkpt>
<trkpt lat="57.141869" lon="9.324916">
<ele>56.352448</ele>
<time>2026-07-16T08:48:56.000Z</time>
</trkpt>
<trkpt lat="57.141918" lon="9.324921">
<ele>56.323735</ele>
<time>2026-07-16T08:48:57.000Z</time>
</trkpt>
<trkpt lat="57.141968" lon="9.324932">
<ele>56.294272</ele>
<time>2026-07-16T08:48:58.000Z</time>
</trkpt>
<trkpt lat="57.142010" lon="9.324938">
<ele>56.269625</ele>
<time>2026-07-16T08:48:59.000Z</time>
</trkpt>
<trkpt lat="57.142067" lon="9.324950">
<ele>56.236058</ele>
<time>2026-07-16T08:49:00.000Z</time>
</trkpt>
<trkpt lat="57.142109" lon="9.324966">
<ele>56.210965</ele>
<time>2026-07-16T08:49:01.000Z</time>
</trkpt>
<trkpt lat="57.142166" lon="9.324990">
<ele>56.176756</ele>
<time>2026-07-16T08:49:02.000Z</time>
</trkpt>
<trkpt lat="57.142227" lon="9.325024">
<ele>56.139469</ele>
<time>2026-07-16T08:49:03.000Z</time>
</trkpt>
<trkpt lat="57.142281" lon="9.325053">
<ele>56.106561</ele>
<time>2026-07-16T08:49:04.000Z</time>
</trkpt>
<trkpt lat="57.142326" lon="9.325087">
<ele>56.078105</ele>
<time>2026-07-16T08:49:05.000Z</time>
</trkpt>
<trkpt lat="57.142387" lon="9.325118">
<ele>56.041083</ele>
<time>2026-07-16T08:49:06.000Z</time>
</trkpt>
<trkpt lat="57.142441" lon="9.325157">
<ele>56.007149</ele>
<time>2026-07-16T08:49:07.000Z</time>
</trkpt>
<trkpt lat="57.142490" lon="9.325185">
<ele>55.977134</ele>
<time>2026-07-16T08:49:08.000Z</time>
</trkpt>
<trkpt lat="57.142540" lon="9.325224">
<ele>55.945368</ele>
<time>2026-07-16T08:49:09.000Z</time>
</trkpt>
<trkpt lat="57.142590" lon="9.325271">
<ele>55.912528</ele>
<time>2026-07-16T08:49:10.000Z</time>
</trkpt>
<trkpt lat="57.142639" lon="9.325313">
<ele>55.880911</ele>
<time>2026-07-16T08:49:11.000Z</time>
</trkpt>
<trkpt lat="57.142693" lon="9.325349">
<ele>55.847313</ele>
<time>2026-07-16T08:49:12.000Z</time>
</trkpt>
<trkpt lat="57.142742" lon="9.325372">
<ele>55.817728</ele>
<time>2026-07-16T08:49:13.000Z</time>
</trkpt>
<trkpt lat="57.142773" lon="9.325384">
<ele>55.799195</ele>
<time>2026-07-16T08:49:14.000Z</time>
</trkpt>
<trkpt lat="57.142826" lon="9.325398">
<ele>55.767868</ele>
<time>2026-07-16T08:49:15.000Z</time>
</trkpt>
<trkpt lat="57.142868" lon="9.325407">
<ele>55.743129</ele>
<time>2026-07-16T08:49:16.000Z</time>
</trkpt>
<trkpt lat="57.142925" lon="9.325416">
<ele>55.709657</ele>
<time>2026-07-16T08:49:17.000Z</time>
</trkpt>
<trkpt lat="57.142963" lon="9.325435">
<ele>55.686620</ele>
<time>2026-07-16T08:49:18.000Z</time>
</trkpt>
<trkpt lat="57.143009" lon="9.325463">
<ele>55.658276</ele>
<time>2026-07-16T08:49:19.000Z</time>
</trkpt>
<trkpt lat="57.143044" lon="9.325498">
<ele>55.634978</ele>
<time>2026-07-16T08:49:20.000Z</time>
</trkpt>
<trkpt lat="57.143074" lon="9.325534">
<ele>55.614033</ele>
<time>2026-07-16T08:49:21.000Z</time>
</trkpt>
<trkpt lat="57.143101" lon="9.325577">
<ele>55.588042</ele>
<time>2026-07-16T08:49:22.000Z</time>
</trkpt>
<trkpt lat="57.143131" lon="9.325622">
<ele>55.549835</ele>
<time>2026-07-16T08:49:23.000Z</time>
</trkpt>
<trkpt lat="57.143173" lon="9.325680">
<ele>55.497994</ele>
<time>2026-07-16T08:49:24.000Z</time>
</trkpt>
<trkpt lat="57.143219" lon="9.325722">
<ele>55.447286</ele>
<time>2026-07-16T08:49:25.000Z</time>
</trkpt>
<trkpt lat="57.143284" lon="9.325776">
<ele>55.376858</ele>
<time>2026-07-16T08:49:26.000Z</time>
</trkpt>
<trkpt lat="57.143341" lon="9.325848">
<ele>55.308600</ele>
<time>2026-07-16T08:49:27.000Z</time>
</trkpt>
<trkpt lat="57.143410" lon="9.325922">
<ele>55.229744</ele>
<time>2026-07-16T08:49:28.000Z</time>
</trkpt>
<trkpt lat="57.143475" lon="9.326000">
<ele>55.153128</ele>
<time>2026-07-16T08:49:29.000Z</time>
</trkpt>
<trkpt lat="57.143524" lon="9.326086">
<ele>55.086293</ele>
<time>2026-07-16T08:49:30.000Z</time>
</trkpt>
<trkpt lat="57.143597" lon="9.326174">
<ele>55.000131</ele>
<time>2026-07-16T08:49:31.000Z</time>
</trkpt>
<trkpt lat="57.143665" lon="9.326263">
<ele>54.917748</ele>
<time>2026-07-16T08:49:32.000Z</time>
</trkpt>
<trkpt lat="57.143726" lon="9.326346">
<ele>54.842853</ele>
<time>2026-07-16T08:49:33.000Z</time>
</trkpt>
<trkpt lat="57.143787" lon="9.326421">
<ele>54.770421</ele>
<time>2026-07-16T08:49:34.000Z</time>
</trkpt>
<trkpt lat="57.143837" lon="9.326490">
<ele>54.708722</ele>
<time>2026-07-16T08:49:35.000Z</time>
</trkpt>
<trkpt lat="57.143894" lon="9.326564">
<ele>54.639853</ele>
<time>2026-07-16T08:49:36.000Z</time>
</trkpt>
<trkpt lat="57.143959" lon="9.326623">
<ele>54.568283</ele>
<time>2026-07-16T08:49:37.000Z</time>
</trkpt>
<trkpt lat="57.144020" lon="9.326679">
<ele>54.500967</ele>
<time>2026-07-16T08:49:38.000Z</time>
</trkpt>
<trkpt lat="57.144077" lon="9.326735">
<ele>54.437163</ele>
<time>2026-07-16T08:49:39.000Z</time>
</trkpt>
<trkpt lat="57.144134" lon="9.326787">
<ele>54.374339</ele>
<time>2026-07-16T08:49:40.000Z</time>
</trkpt>
<trkpt lat="57.144188" lon="9.326833">
<ele>54.315577</ele>
<time>2026-07-16T08:49:41.000Z</time>
</trkpt>
<trkpt lat="57.144241" lon="9.326863">
<ele>54.260811</ele>
<time>2026-07-16T08:49:42.000Z</time>
</trkpt>
<trkpt lat="57.144299" lon="9.326889">
<ele>54.201848</ele>
<time>2026-07-16T08:49:43.000Z</time>
</trkpt>
<trkpt lat="57.144352" lon="9.326909">
<ele>54.148409</ele>
<time>2026-07-16T08:49:44.000Z</time>
</trkpt>
<trkpt lat="57.144402" lon="9.326922">
<ele>54.098530</ele>
<time>2026-07-16T08:49:45.000Z</time>
</trkpt>
<trkpt lat="57.144455" lon="9.326933">
<ele>54.045845</ele>
<time>2026-07-16T08:49:46.000Z</time>
</trkpt>
<trkpt lat="57.144508" lon="9.326939">
<ele>53.993393</ele>
<time>2026-07-16T08:49:47.000Z</time>
</trkpt>
<trkpt lat="57.144562" lon="9.326940">
<ele>53.940049</ele>
<time>2026-07-16T08:49:48.000Z</time>
</trkpt>
<trkpt lat="57.144615" lon="9.326937">
<ele>53.887671</ele>
<time>2026-07-16T08:49:49.000Z</time>
</trkpt>
<trkpt lat="57.144665" lon="9.326935">
<ele>53.838269</ele>
<time>2026-07-16T08:49:50.000Z</time>
</trkpt>
<trkpt lat="57.144711" lon="9.326933">
<ele>53.713532</ele>
<time>2026-07-16T08:49:51.000Z</time>
</trkpt>
<trkpt lat="57.144749" lon="9.326930">
<ele>53.580067</ele>
<time>2026-07-16T08:49:52.000Z</time>
</trkpt>
<trkpt lat="57.144783" lon="9.326928">
<ele>53.460699</ele>
<time>2026-07-16T08:49:53.000Z</time>
</trkpt>
<trkpt lat="57.144829" lon="9.326925">
<ele>53.299183</ele>
<time>2026-07-16T08:49:54.000Z</time>
</trkpt>
<trkpt lat="57.144871" lon="9.326922">
<ele>53.151694</ele>
<time>2026-07-16T08:49:55.000Z</time>
</trkpt>
<trkpt lat="57.144920" lon="9.326913">
<ele>52.978900</ele>
<time>2026-07-16T08:49:56.000Z</time>
</trkpt>
<trkpt lat="57.144970" lon="9.326903">
<ele>52.802420</ele>
<time>2026-07-16T08:49:57.000Z</time>
</trkpt>
<trkpt lat="57.145016" lon="9.326896">
<ele>52.640456</ele>
<time>2026-07-16T08:49:58.000Z</time>
</trkpt>
<trkpt lat="57.145058" lon="9.326897">
<ele>52.493064</ele>
<time>2026-07-16T08:49:59.000Z</time>
</trkpt>
<trkpt lat="57.145096" lon="9.326895">
<ele>52.359667</ele>
<time>2026-07-16T08:50:00.000Z</time>
</trkpt>
<trkpt lat="57.145145" lon="9.326889">
<ele>52.187346</ele>
<time>2026-07-16T08:50:01.000Z</time>
</trkpt>
<trkpt lat="57.145191" lon="9.326880">
<ele>52.025025</ele>
<time>2026-07-16T08:50:02.000Z</time>
</trkpt>
<trkpt lat="57.145241" lon="9.326871">
<ele>51.848739</ele>
<time>2026-07-16T08:50:03.000Z</time>
</trkpt>
<trkpt lat="57.145298" lon="9.326860">
<ele>51.647632</ele>
<time>2026-07-16T08:50:04.000Z</time>
</trkpt>
<trkpt lat="57.145355" lon="9.326844">
<ele>51.445312</ele>
<time>2026-07-16T08:50:05.000Z</time>
</trkpt>
<trkpt lat="57.145416" lon="9.326817">
<ele>51.225177</ele>
<time>2026-07-16T08:50:06.000Z</time>
</trkpt>
<trkpt lat="57.145474" lon="9.326785">
<ele>51.012732</ele>
<time>2026-07-16T08:50:07.000Z</time>
</trkpt>
<trkpt lat="57.145538" lon="9.326740">
<ele>50.772371</ele>
<time>2026-07-16T08:50:08.000Z</time>
</trkpt>
<trkpt lat="57.145596" lon="9.326692">
<ele>50.549276</ele>
<time>2026-07-16T08:50:09.000Z</time>
</trkpt>
<trkpt lat="57.145649" lon="9.326640">
<ele>50.338594</ele>
<time>2026-07-16T08:50:10.000Z</time>
</trkpt>
<trkpt lat="57.145725" lon="9.326567">
<ele>50.037873</ele>
<time>2026-07-16T08:50:11.000Z</time>
</trkpt>
<trkpt lat="57.145798" lon="9.326491">
<ele>49.743681</ele>
<time>2026-07-16T08:50:12.000Z</time>
</trkpt>
<trkpt lat="57.145878" lon="9.326417">
<ele>49.429597</ele>
<time>2026-07-16T08:50:13.000Z</time>
</trkpt>
<trkpt lat="57.145950" lon="9.326343">
<ele>49.140329</ele>
<time>2026-07-16T08:50:14.000Z</time>
</trkpt>
<trkpt lat="57.146011" lon="9.326272">
<ele>48.887178</ele>
<time>2026-07-16T08:50:15.000Z</time>
</trkpt>
<trkpt lat="57.146084" lon="9.326188">
<ele>48.585206</ele>
<time>2026-07-16T08:50:16.000Z</time>
</trkpt>
<trkpt lat="57.146153" lon="9.326107">
<ele>48.298153</ele>
<time>2026-07-16T08:50:17.000Z</time>
</trkpt>
<trkpt lat="57.146225" lon="9.326027">
<ele>48.003154</ele>
<time>2026-07-16T08:50:18.000Z</time>
</trkpt>
<trkpt lat="57.146297" lon="9.325940">
<ele>47.701061</ele>
<time>2026-07-16T08:50:19.000Z</time>
</trkpt>
<trkpt lat="57.146370" lon="9.325849">
<ele>47.433877</ele>
<time>2026-07-16T08:50:20.000Z</time>
</trkpt>
<trkpt lat="57.146442" lon="9.325759">
<ele>47.235073</ele>
<time>2026-07-16T08:50:21.000Z</time>
</trkpt>
<trkpt lat="57.146519" lon="9.325661">
<ele>47.021238</ele>
<time>2026-07-16T08:50:22.000Z</time>
</trkpt>
<trkpt lat="57.146587" lon="9.325567">
<ele>46.826997</ele>
<time>2026-07-16T08:50:23.000Z</time>
</trkpt>
<trkpt lat="57.146660" lon="9.325474">
<ele>46.624206</ele>
<time>2026-07-16T08:50:24.000Z</time>
</trkpt>
<trkpt lat="57.146732" lon="9.325381">
<ele>46.423292</ele>
<time>2026-07-16T08:50:25.000Z</time>
</trkpt>
<trkpt lat="57.146809" lon="9.325281">
<ele>46.208039</ele>
<time>2026-07-16T08:50:26.000Z</time>
</trkpt>
<trkpt lat="57.146877" lon="9.325188">
<ele>46.014539</ele>
<time>2026-07-16T08:50:27.000Z</time>
</trkpt>
<trkpt lat="57.146950" lon="9.325098">
<ele>45.813840</ele>
<time>2026-07-16T08:50:28.000Z</time>
</trkpt>
<trkpt lat="57.147022" lon="9.325008">
<ele>45.615037</ele>
<time>2026-07-16T08:50:29.000Z</time>
</trkpt>
<trkpt lat="57.147095" lon="9.324924">
<ele>45.418377</ele>
<time>2026-07-16T08:50:30.000Z</time>
</trkpt>
<trkpt lat="57.147175" lon="9.324830">
<ele>45.201572</ele>
<time>2026-07-16T08:50:31.000Z</time>
</trkpt>
<trkpt lat="57.147244" lon="9.324741">
<ele>45.009118</ele>
<time>2026-07-16T08:50:32.000Z</time>
</trkpt>
<trkpt lat="57.147308" lon="9.324652">
<ele>44.825910</ele>
<time>2026-07-16T08:50:33.000Z</time>
</trkpt>
<trkpt lat="57.147377" lon="9.324567">
<ele>44.636256</ele>
<time>2026-07-16T08:50:34.000Z</time>
</trkpt>
<trkpt lat="57.147427" lon="9.324499">
<ele>44.494260</ele>
<time>2026-07-16T08:50:35.000Z</time>
</trkpt>
<trkpt lat="57.147503" lon="9.324400">
<ele>44.281590</ele>
<time>2026-07-16T08:50:36.000Z</time>
</trkpt>
<trkpt lat="57.147568" lon="9.324316">
<ele>44.100181</ele>
<time>2026-07-16T08:50:37.000Z</time>
</trkpt>
<trkpt lat="57.147629" lon="9.324245">
<ele>43.935316</ele>
<time>2026-07-16T08:50:38.000Z</time>
</trkpt>
<trkpt lat="57.147694" lon="9.324172">
<ele>43.761376</ele>
<time>2026-07-16T08:50:39.000Z</time>
</trkpt>
<trkpt lat="57.147762" lon="9.324092">
<ele>43.577026</ele>
<time>2026-07-16T08:50:40.000Z</time>
</trkpt>
<trkpt lat="57.147820" lon="9.324018">
<ele>43.415829</ele>
<time>2026-07-16T08:50:41.000Z</time>
</trkpt>
<trkpt lat="57.147881" lon="9.323941">
<ele>43.291525</ele>
<time>2026-07-16T08:50:42.000Z</time>
</trkpt>
<trkpt lat="57.147934" lon="9.323877">
<ele>43.188407</ele>
<time>2026-07-16T08:50:43.000Z</time>
</trkpt>
<trkpt lat="57.147984" lon="9.323812">
<ele>43.088832</ele>
<time>2026-07-16T08:50:44.000Z</time>
</trkpt>
<trkpt lat="57.148041" lon="9.323752">
<ele>42.982005</ele>
<time>2026-07-16T08:50:45.000Z</time>
</trkpt>
<trkpt lat="57.148090" lon="9.323701">
<ele>42.890423</ele>
<time>2026-07-16T08:50:46.000Z</time>
</trkpt>
<trkpt lat="57.148136" lon="9.323663">
<ele>42.808384</ele>
<time>2026-07-16T08:50:47.000Z</time>
</trkpt>
<trkpt lat="57.148193" lon="9.323617">
<ele>42.707116</ele>
<time>2026-07-16T08:50:48.000Z</time>
</trkpt>
<trkpt lat="57.148239" lon="9.323585">
<ele>42.627097</ele>
<time>2026-07-16T08:50:49.000Z</time>
</trkpt>
<trkpt lat="57.148285" lon="9.323565">
<ele>42.550178</ele>
<time>2026-07-16T08:50:50.000Z</time>
</trkpt>
<trkpt lat="57.148334" lon="9.323558">
<ele>42.470191</ele>
<time>2026-07-16T08:50:51.000Z</time>
</trkpt>
<trkpt lat="57.148384" lon="9.323561">
<ele>42.388772</ele>
<time>2026-07-16T08:50:52.000Z</time>
</trkpt>
<trkpt lat="57.148434" lon="9.323569">
<ele>42.307090</ele>
<time>2026-07-16T08:50:53.000Z</time>
</trkpt>
<trkpt lat="57.148480" lon="9.323586">
<ele>42.230735</ele>
<time>2026-07-16T08:50:54.000Z</time>
</trkpt>
<trkpt lat="57.148525" lon="9.323610">
<ele>42.154494</ele>
<time>2026-07-16T08:50:55.000Z</time>
</trkpt>
<trkpt lat="57.148575" lon="9.323645">
<ele>42.067449</ele>
<time>2026-07-16T08:50:56.000Z</time>
</trkpt>
<trkpt lat="57.148621" lon="9.323684">
<ele>41.985045</ele>
<time>2026-07-16T08:50:57.000Z</time>
</trkpt>
<trkpt lat="57.148666" lon="9.323728">
<ele>41.902143</ele>
<time>2026-07-16T08:50:58.000Z</time>
</trkpt>
<trkpt lat="57.148708" lon="9.323782">
<ele>41.818804</ele>
<time>2026-07-16T08:50:59.000Z</time>
</trkpt>
<trkpt lat="57.148746" lon="9.323840">
<ele>41.738512</ele>
<time>2026-07-16T08:51:00.000Z</time>
</trkpt>
<trkpt lat="57.148796" lon="9.323908">
<ele>41.637387</ele>
<time>2026-07-16T08:51:01.000Z</time>
</trkpt>
<trkpt lat="57.148830" lon="9.323975">
<ele>41.556388</ele>
<time>2026-07-16T08:51:02.000Z</time>
</trkpt>
<trkpt lat="57.148865" lon="9.324043">
<ele>41.473630</ele>
<time>2026-07-16T08:51:03.000Z</time>
</trkpt>
<trkpt lat="57.148903" lon="9.324127">
<ele>41.377066</ele>
<time>2026-07-16T08:51:04.000Z</time>
</trkpt>
<trkpt lat="57.148941" lon="9.324206">
<ele>41.283850</ele>
<time>2026-07-16T08:51:05.000Z</time>
</trkpt>
<trkpt lat="57.148975" lon="9.324285">
<ele>41.194819</ele>
<time>2026-07-16T08:51:06.000Z</time>
</trkpt>
<trkpt lat="57.149010" lon="9.324363">
<ele>41.105450</ele>
<time>2026-07-16T08:51:07.000Z</time>
</trkpt>
<trkpt lat="57.149048" lon="9.324443">
<ele>41.011572</ele>
<time>2026-07-16T08:51:08.000Z</time>
</trkpt>
<trkpt lat="57.149082" lon="9.324532">
<ele>40.915468</ele>
<time>2026-07-16T08:51:09.000Z</time>
</trkpt>
<trkpt lat="57.149117" lon="9.324610">
<ele>40.826100</ele>
<time>2026-07-16T08:51:10.000Z</time>
</trkpt>
<trkpt lat="57.149162" lon="9.324691">
<ele>40.723739</ele>
<time>2026-07-16T08:51:11.000Z</time>
</trkpt>
<trkpt lat="57.149216" lon="9.324765">
<ele>40.614231</ele>
<time>2026-07-16T08:51:12.000Z</time>
</trkpt>
<trkpt lat="57.149269" lon="9.324837">
<ele>40.507082</ele>
<time>2026-07-16T08:51:13.000Z</time>
</trkpt>
<trkpt lat="57.149319" lon="9.324905">
<ele>40.209890</ele>
<time>2026-07-16T08:51:14.000Z</time>
</trkpt>
<trkpt lat="57.149364" lon="9.324965">
<ele>39.861649</ele>
<time>2026-07-16T08:51:15.000Z</time>
</trkpt>
<trkpt lat="57.149422" lon="9.325031">
<ele>39.434253</ele>
<time>2026-07-16T08:51:16.000Z</time>
</trkpt>
<trkpt lat="57.149475" lon="9.325102">
<ele>39.023437</ele>
<time>2026-07-16T08:51:17.000Z</time>
</trkpt>
<trkpt lat="57.149532" lon="9.325170">
<ele>38.597708</ele>
<time>2026-07-16T08:51:18.000Z</time>
</trkpt>
<trkpt lat="57.149593" lon="9.325240">
<ele>38.147156</ele>
<time>2026-07-16T08:51:19.000Z</time>
</trkpt>
<trkpt lat="57.149651" lon="9.325307">
<ele>37.717964</ele>
<time>2026-07-16T08:51:20.000Z</time>
</trkpt>
<trkpt lat="57.149715" lon="9.325375">
<ele>37.254771</ele>
<time>2026-07-16T08:51:21.000Z</time>
</trkpt>
<trkpt lat="57.149776" lon="9.325440">
<ele>36.812971</ele>
<time>2026-07-16T08:51:22.000Z</time>
</trkpt>
<trkpt lat="57.149830" lon="9.325494">
<ele>36.427756</ele>
<time>2026-07-16T08:51:23.000Z</time>
</trkpt>
<trkpt lat="57.149887" lon="9.325548">
<ele>36.025905</ele>
<time>2026-07-16T08:51:24.000Z</time>
</trkpt>
<trkpt lat="57.149940" lon="9.325601">
<ele>35.647823</ele>
<time>2026-07-16T08:51:25.000Z</time>
</trkpt>
<trkpt lat="57.149994" lon="9.325649">
<ele>35.271911</ele>
<time>2026-07-16T08:51:26.000Z</time>
</trkpt>
<trkpt lat="57.150059" lon="9.325708">
<ele>34.817603</ele>
<time>2026-07-16T08:51:27.000Z</time>
</trkpt>
<trkpt lat="57.150120" lon="9.325762">
<ele>34.393289</ele>
<time>2026-07-16T08:51:28.000Z</time>
</trkpt>
<trkpt lat="57.150177" lon="9.325813">
<ele>33.996000</ele>
<time>2026-07-16T08:51:29.000Z</time>
</trkpt>
<trkpt lat="57.150230" lon="9.325874">
<ele>33.604214</ele>
<time>2026-07-16T08:51:30.000Z</time>
</trkpt>
<trkpt lat="57.150272" lon="9.325938">
<ele>33.262532</ele>
<time>2026-07-16T08:51:31.000Z</time>
</trkpt>
<trkpt lat="57.150333" lon="9.326024">
<ele>32.781002</ele>
<time>2026-07-16T08:51:32.000Z</time>
</trkpt>
<trkpt lat="57.150391" lon="9.326107">
<ele>32.320601</ele>
<time>2026-07-16T08:51:33.000Z</time>
</trkpt>
<trkpt lat="57.150440" lon="9.326196">
<ele>31.889273</ele>
<time>2026-07-16T08:51:34.000Z</time>
</trkpt>
<trkpt lat="57.150490" lon="9.326281">
<ele>31.462795</ele>
<time>2026-07-16T08:51:35.000Z</time>
</trkpt>
<trkpt lat="57.150543" lon="9.326378">
<ele>30.994500</ele>
<time>2026-07-16T08:51:36.000Z</time>
</trkpt>
<trkpt lat="57.150604" lon="9.326490">
<ele>30.454660</ele>
<time>2026-07-16T08:51:37.000Z</time>
</trkpt>
<trkpt lat="57.150665" lon="9.326590">
<ele>29.942805</ele>
<time>2026-07-16T08:51:38.000Z</time>
</trkpt>
<trkpt lat="57.150726" lon="9.326679">
<ele>29.455010</ele>
<time>2026-07-16T08:51:39.000Z</time>
</trkpt>
<trkpt lat="57.150799" lon="9.326797">
<ele>28.979142</ele>
<time>2026-07-16T08:51:40.000Z</time>
</trkpt>
<trkpt lat="57.150848" lon="9.326898">
<ele>28.693233</ele>
<time>2026-07-16T08:51:41.000Z</time>
</trkpt>
<trkpt lat="57.150925" lon="9.327029">
<ele>28.285667</ele>
<time>2026-07-16T08:51:42.000Z</time>
</trkpt>
<trkpt lat="57.151005" lon="9.327164">
<ele>27.863797</ele>
<time>2026-07-16T08:51:43.000Z</time>
</trkpt>
<trkpt lat="57.151108" lon="9.327298">
<ele>27.373429</ele>
<time>2026-07-16T08:51:44.000Z</time>
</trkpt>
<trkpt lat="57.151207" lon="9.327419">
<ele>26.911392</ele>
<time>2026-07-16T08:51:45.000Z</time>
</trkpt>
<trkpt lat="57.151314" lon="9.327539">
<ele>26.424217</ele>
<time>2026-07-16T08:51:46.000Z</time>
</trkpt>
<trkpt lat="57.151409" lon="9.327637">
<ele>26.000765</ele>
<time>2026-07-16T08:51:47.000Z</time>
</trkpt>
<trkpt lat="57.151505" lon="9.327731">
<ele>25.577939</ele>
<time>2026-07-16T08:51:48.000Z</time>
</trkpt>
<trkpt lat="57.151588" lon="9.327812">
<ele>25.212638</ele>
<time>2026-07-16T08:51:49.000Z</time>
</trkpt>
<trkpt lat="57.151669" lon="9.327886">
<ele>24.860997</ele>
<time>2026-07-16T08:51:50.000Z</time>
</trkpt>
<trkpt lat="57.151749" lon="9.327958">
<ele>24.514709</ele>
<time>2026-07-16T08:51:51.000Z</time>
</trkpt>
<trkpt lat="57.151825" lon="9.328033">
<ele>24.179393</ele>
<time>2026-07-16T08:51:52.000Z</time>
</trkpt>
<trkpt lat="57.151897" lon="9.328108">
<ele>23.857712</ele>
<time>2026-07-16T08:51:53.000Z</time>
</trkpt>
<trkpt lat="57.151958" lon="9.328172">
<ele>23.584699</ele>
<time>2026-07-16T08:51:54.000Z</time>
</trkpt>
<trkpt lat="57.152016" lon="9.328230">
<ele>23.328036</ele>
<time>2026-07-16T08:51:55.000Z</time>
</trkpt>
<trkpt lat="57.152077" lon="9.328287">
<ele>23.062018</ele>
<time>2026-07-16T08:51:56.000Z</time>
</trkpt>
<trkpt lat="57.152123" lon="9.328336">
<ele>22.855366</ele>
<time>2026-07-16T08:51:57.000Z</time>
</trkpt>
<trkpt lat="57.152157" lon="9.328368">
<ele>22.706874</ele>
<time>2026-07-16T08:51:58.000Z</time>
</trkpt>
<trkpt lat="57.152191" lon="9.328392">
<ele>22.565257</ele>
<time>2026-07-16T08:51:59.000Z</time>
</trkpt>
<trkpt lat="57.152222" lon="9.328418">
<ele>22.432781</ele>
<time>2026-07-16T08:52:00.000Z</time>
</trkpt>
<trkpt lat="57.152252" lon="9.328443">
<ele>22.304718</ele>
<time>2026-07-16T08:52:01.000Z</time>
</trkpt>
<trkpt lat="57.152287" lon="9.328469">
<ele>22.190979</ele>
<time>2026-07-16T08:52:02.000Z</time>
</trkpt>
<trkpt lat="57.152321" lon="9.328494">
<ele>22.160767</ele>
<time>2026-07-16T08:52:03.000Z</time>
</trkpt>
<trkpt lat="57.152351" lon="9.328522">
<ele>22.133014</ele>
<time>2026-07-16T08:52:04.000Z</time>
</trkpt>
<trkpt lat="57.152382" lon="9.328548">
<ele>22.104904</ele>
<time>2026-07-16T08:52:05.000Z</time>
</trkpt>
<trkpt lat="57.152416" lon="9.328578">
<ele>22.073793</ele>
<time>2026-07-16T08:52:06.000Z</time>
</trkpt>
<trkpt lat="57.152447" lon="9.328609">
<ele>22.044685</ele>
<time>2026-07-16T08:52:07.000Z</time>
</trkpt>
<trkpt lat="57.152477" lon="9.328641">
<ele>22.016078</ele>
<time>2026-07-16T08:52:08.000Z</time>
</trkpt>
<trkpt lat="57.152496" lon="9.328666">
<ele>21.996812</ele>
<time>2026-07-16T08:52:09.000Z</time>
</trkpt>
<trkpt lat="57.152512" lon="9.328689">
<ele>21.980066</ele>
<time>2026-07-16T08:52:10.000Z</time>
</trkpt>
<trkpt lat="57.152515" lon="9.328705">
<ele>21.972487</ele>
<time>2026-07-16T08:52:11.000Z</time>
</trkpt>
<trkpt lat="57.152519" lon="9.328712">
<ele>21.967936</ele>
<time>2026-07-16T08:52:12.000Z</time>
</trkpt>
<trkpt lat="57.152523" lon="9.328716">
<ele>21.964180</ele>
<time>2026-07-16T08:52:13.000Z</time>
</trkpt>
<trkpt lat="57.152489" lon="9.328769">
<ele>21.927431</ele>
<time>2026-07-16T08:53:56.000Z</time>
</trkpt>
<trkpt lat="57.152500" lon="9.328736">
<ele>21.910090</ele>
<time>2026-07-16T08:53:57.000Z</time>
</trkpt>
<trkpt lat="57.152508" lon="9.328707">
<ele>21.895525</ele>
<time>2026-07-16T08:53:58.000Z</time>
</trkpt>
<trkpt lat="57.152504" lon="9.328674">
<ele>21.880387</ele>
<time>2026-07-16T08:53:59.000Z</time>
</trkpt>
<trkpt lat="57.152496" lon="9.328650">
<ele>21.867776</ele>
<time>2026-07-16T08:54:00.000Z</time>
</trkpt>
<trkpt lat="57.152481" lon="9.328628">
<ele>21.851955</ele>
<time>2026-07-16T08:54:01.000Z</time>
</trkpt>
<trkpt lat="57.152462" lon="9.328603">
<ele>21.832689</ele>
<time>2026-07-16T08:54:02.000Z</time>
</trkpt>
<trkpt lat="57.152435" lon="9.328579">
<ele>21.807949</ele>
<time>2026-07-16T08:54:03.000Z</time>
</trkpt>
<trkpt lat="57.152412" lon="9.328556">
<ele>21.786353</ele>
<time>2026-07-16T08:54:04.000Z</time>
</trkpt>
<trkpt lat="57.152389" lon="9.328534">
<ele>21.764966</ele>
<time>2026-07-16T08:54:05.000Z</time>
</trkpt>
<trkpt lat="57.152363" lon="9.328509">
<ele>21.740764</ele>
<time>2026-07-16T08:54:06.000Z</time>
</trkpt>
<trkpt lat="57.152336" lon="9.328485">
<ele>21.716024</ele>
<time>2026-07-16T08:54:07.000Z</time>
</trkpt>
<trkpt lat="57.152309" lon="9.328462">
<ele>21.691475</ele>
<time>2026-07-16T08:54:08.000Z</time>
</trkpt>
<trkpt lat="57.152287" lon="9.328440">
<ele>21.670818</ele>
<time>2026-07-16T08:54:09.000Z</time>
</trkpt>
<trkpt lat="57.152264" lon="9.328419">
<ele>21.649634</ele>
<time>2026-07-16T08:54:10.000Z</time>
</trkpt>
<trkpt lat="57.152237" lon="9.328400">
<ele>21.625780</ele>
<time>2026-07-16T08:54:11.000Z</time>
</trkpt>
<trkpt lat="57.152210" lon="9.328379">
<ele>21.601593</ele>
<time>2026-07-16T08:54:12.000Z</time>
</trkpt>
<trkpt lat="57.152180" lon="9.328356">
<ele>21.574777</ele>
<time>2026-07-16T08:54:13.000Z</time>
</trkpt>
<trkpt lat="57.152153" lon="9.328333">
<ele>21.550228</ele>
<time>2026-07-16T08:54:14.000Z</time>
</trkpt>
<trkpt lat="57.152119" lon="9.328308">
<ele>21.520016</ele>
<time>2026-07-16T08:54:15.000Z</time>
</trkpt>
<trkpt lat="57.152088" lon="9.328285">
<ele>21.492435</ele>
<time>2026-07-16T08:54:16.000Z</time>
</trkpt>
<trkpt lat="57.152058" lon="9.328263">
<ele>21.465787</ele>
<time>2026-07-16T08:54:17.000Z</time>
</trkpt>
<trkpt lat="57.152027" lon="9.328241">
<ele>21.438370</ele>
<time>2026-07-16T08:54:18.000Z</time>
</trkpt>
<trkpt lat="57.151993" lon="9.328220">
<ele>21.408775</ele>
<time>2026-07-16T08:54:19.000Z</time>
</trkpt>
<trkpt lat="57.151962" lon="9.328205">
<ele>21.382322</ele>
<time>2026-07-16T08:54:20.000Z</time>
</trkpt>
<trkpt lat="57.151928" lon="9.328199">
<ele>21.354131</ele>
<time>2026-07-16T08:54:21.000Z</time>
</trkpt>
<trkpt lat="57.151897" lon="9.328211">
<ele>21.327987</ele>
<time>2026-07-16T08:54:22.000Z</time>
</trkpt>
<trkpt lat="57.151875" lon="9.328243">
<ele>21.304858</ele>
<time>2026-07-16T08:54:23.000Z</time>
</trkpt>
<trkpt lat="57.151859" lon="9.328299">
<ele>21.276521</ele>
<time>2026-07-16T08:54:24.000Z</time>
</trkpt>
<trkpt lat="57.151859" lon="9.328365">
<ele>21.246974</ele>
<time>2026-07-16T08:54:25.000Z</time>
</trkpt>
<trkpt lat="57.151863" lon="9.328443">
<ele>21.211898</ele>
<time>2026-07-16T08:54:26.000Z</time>
</trkpt>
<trkpt lat="57.151875" lon="9.328524">
<ele>21.174307</ele>
<time>2026-07-16T08:54:27.000Z</time>
</trkpt>
<trkpt lat="57.151882" lon="9.328608">
<ele>21.136259</ele>
<time>2026-07-16T08:54:28.000Z</time>
</trkpt>
<trkpt lat="57.151894" lon="9.328694">
<ele>21.096504</ele>
<time>2026-07-16T08:54:29.000Z</time>
</trkpt>
<trkpt lat="57.151905" lon="9.328781">
<ele>21.056511</ele>
<time>2026-07-16T08:54:30.000Z</time>
</trkpt>
<trkpt lat="57.151917" lon="9.328868">
<ele>21.016322</ele>
<time>2026-07-16T08:54:31.000Z</time>
</trkpt>
<trkpt lat="57.151932" lon="9.328960">
<ele>20.973314</ele>
<time>2026-07-16T08:54:32.000Z</time>
</trkpt>
<trkpt lat="57.151943" lon="9.329049">
<ele>20.932448</ele>
<time>2026-07-16T08:54:33.000Z</time>
</trkpt>
<trkpt lat="57.151951" lon="9.329138">
<ele>20.892060</ele>
<time>2026-07-16T08:54:34.000Z</time>
</trkpt>
<trkpt lat="57.151962" lon="9.329233">
<ele>20.848571</ele>
<time>2026-07-16T08:54:35.000Z</time>
</trkpt>
<trkpt lat="57.151970" lon="9.329325">
<ele>20.806858</ele>
<time>2026-07-16T08:54:36.000Z</time>
</trkpt>
<trkpt lat="57.151978" lon="9.329423">
<ele>20.762490</ele>
<time>2026-07-16T08:54:37.000Z</time>
</trkpt>
<trkpt lat="57.151981" lon="9.329521">
<ele>20.718546</ele>
<time>2026-07-16T08:54:38.000Z</time>
</trkpt>
<trkpt lat="57.151985" lon="9.329615">
<ele>20.627940</ele>
<time>2026-07-16T08:54:39.000Z</time>
</trkpt>
<trkpt lat="57.151985" lon="9.329717">
<ele>20.525610</ele>
<time>2026-07-16T08:54:40.000Z</time>
</trkpt>
<trkpt lat="57.151981" lon="9.329820">
<ele>20.422012</ele>
<time>2026-07-16T08:54:41.000Z</time>
</trkpt>
<trkpt lat="57.151970" lon="9.329927">
<ele>20.312754</ele>
<time>2026-07-16T08:54:42.000Z</time>
</trkpt>
<trkpt lat="57.151943" lon="9.330037">
<ele>20.191624</ele>
<time>2026-07-16T08:54:43.000Z</time>
</trkpt>
<trkpt lat="57.151920" lon="9.330139">
<ele>20.080803</ele>
<time>2026-07-16T08:54:44.000Z</time>
</trkpt>
<trkpt lat="57.151890" lon="9.330237">
<ele>19.967908</ele>
<time>2026-07-16T08:54:45.000Z</time>
</trkpt>
<trkpt lat="57.151855" lon="9.330330">
<ele>19.854348</ele>
<time>2026-07-16T08:54:46.000Z</time>
</trkpt>
<trkpt lat="57.151813" lon="9.330422">
<ele>19.733710</ele>
<time>2026-07-16T08:54:47.000Z</time>
</trkpt>
<trkpt lat="57.151760" lon="9.330489">
<ele>19.614850</ele>
<time>2026-07-16T08:54:48.000Z</time>
</trkpt>
<trkpt lat="57.151710" lon="9.330547">
<ele>19.505587</ele>
<time>2026-07-16T08:54:49.000Z</time>
</trkpt>
<trkpt lat="57.151665" lon="9.330604">
<ele>19.404604</ele>
<time>2026-07-16T08:54:50.000Z</time>
</trkpt>
<trkpt lat="57.151627" lon="9.330664">
<ele>19.312066</ele>
<time>2026-07-16T08:54:51.000Z</time>
</trkpt>
<trkpt lat="57.151596" lon="9.330729">
<ele>19.225232</ele>
<time>2026-07-16T08:54:52.000Z</time>
</trkpt>
<trkpt lat="57.151566" lon="9.330812">
<ele>19.125168</ele>
<time>2026-07-16T08:54:53.000Z</time>
</trkpt>
<trkpt lat="57.151535" lon="9.330902">
<ele>19.018209</ele>
<time>2026-07-16T08:54:54.000Z</time>
</trkpt>
<trkpt lat="57.151508" lon="9.330997">
<ele>18.910609</ele>
<time>2026-07-16T08:54:55.000Z</time>
</trkpt>
<trkpt lat="57.151485" lon="9.331099">
<ele>18.799787</ele>
<time>2026-07-16T08:54:56.000Z</time>
</trkpt>
<trkpt lat="57.151470" lon="9.331212">
<ele>18.683074</ele>
<time>2026-07-16T08:54:57.000Z</time>
</trkpt>
<trkpt lat="57.151455" lon="9.331334">
<ele>18.557572</ele>
<time>2026-07-16T08:54:58.000Z</time>
</trkpt>
<trkpt lat="57.151444" lon="9.331455">
<ele>18.434485</ele>
<time>2026-07-16T08:54:59.000Z</time>
</trkpt>
<trkpt lat="57.151428" lon="9.331576">
<ele>18.309536</ele>
<time>2026-07-16T08:55:00.000Z</time>
</trkpt>
<trkpt lat="57.151417" lon="9.331692">
<ele>18.191394</ele>
<time>2026-07-16T08:55:01.000Z</time>
</trkpt>
<trkpt lat="57.151409" lon="9.331808">
<ele>18.074079</ele>
<time>2026-07-16T08:55:02.000Z</time>
</trkpt>
<trkpt lat="57.151402" lon="9.331928">
<ele>17.952994</ele>
<time>2026-07-16T08:55:03.000Z</time>
</trkpt>
<trkpt lat="57.151394" lon="9.332046">
<ele>17.833689</ele>
<time>2026-07-16T08:55:04.000Z</time>
</trkpt>
<trkpt lat="57.151390" lon="9.332162">
<ele>17.717076</ele>
<time>2026-07-16T08:55:05.000Z</time>
</trkpt>
<trkpt lat="57.151382" lon="9.332279">
<ele>17.598766</ele>
<time>2026-07-16T08:55:06.000Z</time>
</trkpt>
<trkpt lat="57.151375" lon="9.332390">
<ele>17.486655</ele>
<time>2026-07-16T08:55:07.000Z</time>
</trkpt>
<trkpt lat="57.151371" lon="9.332501">
<ele>17.388455</ele>
<time>2026-07-16T08:55:08.000Z</time>
</trkpt>
<trkpt lat="57.151363" lon="9.332614">
<ele>17.387380</ele>
<time>2026-07-16T08:55:09.000Z</time>
</trkpt>
<trkpt lat="57.151356" lon="9.332724">
<ele>17.386336</ele>
<time>2026-07-16T08:55:10.000Z</time>
</trkpt>
<trkpt lat="57.151352" lon="9.332838">
<ele>17.385259</ele>
<time>2026-07-16T08:55:11.000Z</time>
</trkpt>
<trkpt lat="57.151348" lon="9.332962">
<ele>17.384087</ele>
<time>2026-07-16T08:55:12.000Z</time>
</trkpt>
<trkpt lat="57.151348" lon="9.333086">
<ele>17.382918</ele>
<time>2026-07-16T08:55:13.000Z</time>
</trkpt>
<trkpt lat="57.151348" lon="9.333216">
<ele>17.381692</ele>
<time>2026-07-16T08:55:14.000Z</time>
</trkpt>
<trkpt lat="57.151356" lon="9.333337">
<ele>17.380542</ele>
<time>2026-07-16T08:55:15.000Z</time>
</trkpt>
<trkpt lat="57.151363" lon="9.333468">
<ele>17.379301</ele>
<time>2026-07-16T08:55:16.000Z</time>
</trkpt>
<trkpt lat="57.151375" lon="9.333590">
<ele>17.378132</ele>
<time>2026-07-16T08:55:17.000Z</time>
</trkpt>
<trkpt lat="57.151386" lon="9.333713">
<ele>17.376956</ele>
<time>2026-07-16T08:55:18.000Z</time>
</trkpt>
<trkpt lat="57.151398" lon="9.333829">
<ele>17.375843</ele>
<time>2026-07-16T08:55:19.000Z</time>
</trkpt>
<trkpt lat="57.151417" lon="9.333919">
<ele>17.374932</ele>
<time>2026-07-16T08:55:20.000Z</time>
</trkpt>
<trkpt lat="57.151440" lon="9.334035">
<ele>17.373767</ele>
<time>2026-07-16T08:55:21.000Z</time>
</trkpt>
<trkpt lat="57.151463" lon="9.334149">
<ele>17.372620</ele>
<time>2026-07-16T08:55:22.000Z</time>
</trkpt>
<trkpt lat="57.151482" lon="9.334253">
<ele>17.371586</ele>
<time>2026-07-16T08:55:23.000Z</time>
</trkpt>
<trkpt lat="57.151497" lon="9.334351">
<ele>17.370625</ele>
<time>2026-07-16T08:55:24.000Z</time>
</trkpt>
<trkpt lat="57.151516" lon="9.334443">
<ele>17.369697</ele>
<time>2026-07-16T08:55:25.000Z</time>
</trkpt>
<trkpt lat="57.151531" lon="9.334538">
<ele>17.368764</ele>
<time>2026-07-16T08:55:26.000Z</time>
</trkpt>
<trkpt lat="57.151543" lon="9.334631">
<ele>17.367863</ele>
<time>2026-07-16T08:55:27.000Z</time>
</trkpt>
<trkpt lat="57.151546" lon="9.334729">
<ele>17.366937</ele>
<time>2026-07-16T08:55:28.000Z</time>
</trkpt>
<trkpt lat="57.151546" lon="9.334826">
<ele>17.366022</ele>
<time>2026-07-16T08:55:29.000Z</time>
</trkpt>
<trkpt lat="57.151535" lon="9.334920">
<ele>17.365115</ele>
<time>2026-07-16T08:55:30.000Z</time>
</trkpt>
<trkpt lat="57.151520" lon="9.335019">
<ele>17.364146</ele>
<time>2026-07-16T08:55:31.000Z</time>
</trkpt>
<trkpt lat="57.151508" lon="9.335119">
<ele>17.363180</ele>
<time>2026-07-16T08:55:32.000Z</time>
</trkpt>
<trkpt lat="57.151493" lon="9.335225">
<ele>17.362147</ele>
<time>2026-07-16T08:55:33.000Z</time>
</trkpt>
<trkpt lat="57.151474" lon="9.335334">
<ele>17.361068</ele>
<time>2026-07-16T08:55:34.000Z</time>
</trkpt>
<trkpt lat="57.151459" lon="9.335439">
<ele>17.360044</ele>
<time>2026-07-16T08:55:35.000Z</time>
</trkpt>
<trkpt lat="57.151440" lon="9.335552">
<ele>17.358928</ele>
<time>2026-07-16T08:55:36.000Z</time>
</trkpt>
<trkpt lat="57.151421" lon="9.335663">
<ele>17.357831</ele>
<time>2026-07-16T08:55:37.000Z</time>
</trkpt>
<trkpt lat="57.151402" lon="9.335780">
<ele>17.350258</ele>
<time>2026-07-16T08:55:38.000Z</time>
</trkpt>
<trkpt lat="57.151382" lon="9.335897">
<ele>17.337383</ele>
<time>2026-07-16T08:55:39.000Z</time>
</trkpt>
<trkpt lat="57.151367" lon="9.336014">
<ele>17.324764</ele>
<time>2026-07-16T08:55:40.000Z</time>
</trkpt>
<trkpt lat="57.151348" lon="9.336129">
<ele>17.312147</ele>
<time>2026-07-16T08:55:41.000Z</time>
</trkpt>
<trkpt lat="57.151329" lon="9.336239">
<ele>17.300030</ele>
<time>2026-07-16T08:55:42.000Z</time>
</trkpt>
<trkpt lat="57.151314" lon="9.336361">
<ele>17.286900</ele>
<time>2026-07-16T08:55:43.000Z</time>
</trkpt>
<trkpt lat="57.151291" lon="9.336470">
<ele>17.274625</ele>
<time>2026-07-16T08:55:44.000Z</time>
</trkpt>
<trkpt lat="57.151272" lon="9.336582">
<ele>17.262308</ele>
<time>2026-07-16T08:55:45.000Z</time>
</trkpt>
<trkpt lat="57.151249" lon="9.336691">
<ele>17.250032</ele>
<time>2026-07-16T08:55:46.000Z</time>
</trkpt>
<trkpt lat="57.151230" lon="9.336795">
<ele>17.238514</ele>
<time>2026-07-16T08:55:47.000Z</time>
</trkpt>
<trkpt lat="57.151207" lon="9.336898">
<ele>17.226823</ele>
<time>2026-07-16T08:55:48.000Z</time>
</trkpt>
<trkpt lat="57.151188" lon="9.336997">
<ele>17.215801</ele>
<time>2026-07-16T08:55:49.000Z</time>
</trkpt>
<trkpt lat="57.151165" lon="9.337100">
<ele>17.204110</ele>
<time>2026-07-16T08:55:50.000Z</time>
</trkpt>
<trkpt lat="57.151142" lon="9.337198">
<ele>17.192903</ele>
<time>2026-07-16T08:55:51.000Z</time>
</trkpt>
<trkpt lat="57.151123" lon="9.337302">
<ele>17.181385</ele>
<time>2026-07-16T08:55:52.000Z</time>
</trkpt>
<trkpt lat="57.151104" lon="9.337402">
<ele>17.170264</ele>
<time>2026-07-16T08:55:53.000Z</time>
</trkpt>
<trkpt lat="57.151081" lon="9.337515">
<ele>17.157596</ele>
<time>2026-07-16T08:55:54.000Z</time>
</trkpt>
<trkpt lat="57.151058" lon="9.337626">
<ele>17.145124</ele>
<time>2026-07-16T08:55:55.000Z</time>
</trkpt>
<trkpt lat="57.151035" lon="9.337732">
<ele>17.133141</ele>
<time>2026-07-16T08:55:56.000Z</time>
</trkpt>
<trkpt lat="57.151016" lon="9.337841">
<ele>17.121125</ele>
<time>2026-07-16T08:55:57.000Z</time>
</trkpt>
<trkpt lat="57.150997" lon="9.337951">
<ele>17.109008</ele>
<time>2026-07-16T08:55:58.000Z</time>
</trkpt>
<trkpt lat="57.150974" lon="9.338060">
<ele>17.096732</ele>
<time>2026-07-16T08:55:59.000Z</time>
</trkpt>
<trkpt lat="57.150955" lon="9.338171">
<ele>17.084516</ele>
<time>2026-07-16T08:56:00.000Z</time>
</trkpt>
<trkpt lat="57.150936" lon="9.338280">
<ele>17.072499</ele>
<time>2026-07-16T08:56:01.000Z</time>
</trkpt>
<trkpt lat="57.150917" lon="9.338387">
<ele>17.060682</ele>
<time>2026-07-16T08:56:02.000Z</time>
</trkpt>
<trkpt lat="57.150906" lon="9.338493">
<ele>17.049354</ele>
<time>2026-07-16T08:56:03.000Z</time>
</trkpt>
<trkpt lat="57.150890" lon="9.338604">
<ele>17.037300</ele>
<time>2026-07-16T08:56:04.000Z</time>
</trkpt>
<trkpt lat="57.150879" lon="9.338708">
<ele>17.026178</ele>
<time>2026-07-16T08:56:05.000Z</time>
</trkpt>
<trkpt lat="57.150864" lon="9.338821">
<ele>17.013968</ele>
<time>2026-07-16T08:56:06.000Z</time>
</trkpt>
<trkpt lat="57.150848" lon="9.338931">
<ele>17.018515</ele>
<time>2026-07-16T08:56:07.000Z</time>
</trkpt>
<trkpt lat="57.150837" lon="9.339042">
<ele>17.033578</ele>
<time>2026-07-16T08:56:08.000Z</time>
</trkpt>
<trkpt lat="57.150822" lon="9.339152">
<ele>17.048719</ele>
<time>2026-07-16T08:56:09.000Z</time>
</trkpt>
<trkpt lat="57.150803" lon="9.339267">
<ele>17.064767</ele>
<time>2026-07-16T08:56:10.000Z</time>
</trkpt>
<trkpt lat="57.150787" lon="9.339377">
<ele>17.079969</ele>
<time>2026-07-16T08:56:11.000Z</time>
</trkpt>
<trkpt lat="57.150776" lon="9.339488">
<ele>17.095032</ele>
<time>2026-07-16T08:56:12.000Z</time>
</trkpt>
<trkpt lat="57.150761" lon="9.339601">
<ele>17.110562</ele>
<time>2026-07-16T08:56:13.000Z</time>
</trkpt>
<trkpt lat="57.150749" lon="9.339704">
<ele>17.124625</ele>
<time>2026-07-16T08:56:14.000Z</time>
</trkpt>
<trkpt lat="57.150738" lon="9.339808">
<ele>17.138769</ele>
<time>2026-07-16T08:56:15.000Z</time>
</trkpt>
<trkpt lat="57.150722" lon="9.339912">
<ele>17.153200</ele>
<time>2026-07-16T08:56:16.000Z</time>
</trkpt>
<trkpt lat="57.150707" lon="9.340010">
<ele>17.166793</ele>
<time>2026-07-16T08:56:17.000Z</time>
</trkpt>
<trkpt lat="57.150696" lon="9.340108">
<ele>17.180152</ele>
<time>2026-07-16T08:56:18.000Z</time>
</trkpt>
<trkpt lat="57.150684" lon="9.340208">
<ele>17.193824</ele>
<time>2026-07-16T08:56:19.000Z</time>
</trkpt>
<trkpt lat="57.150673" lon="9.340312">
<ele>17.207968</ele>
<time>2026-07-16T08:56:20.000Z</time>
</trkpt>
<trkpt lat="57.150661" lon="9.340417">
<ele>17.222293</ele>
<time>2026-07-16T08:56:21.000Z</time>
</trkpt>
<trkpt lat="57.150646" lon="9.340523">
<ele>17.236916</ele>
<time>2026-07-16T08:56:22.000Z</time>
</trkpt>
<trkpt lat="57.150639" lon="9.340635">
<ele>17.251966</ele>
<time>2026-07-16T08:56:23.000Z</time>
</trkpt>
<trkpt lat="57.150635" lon="9.340747">
<ele>17.266950</ele>
<time>2026-07-16T08:56:24.000Z</time>
</trkpt>
<trkpt lat="57.150627" lon="9.340858">
<ele>17.281897</ele>
<time>2026-07-16T08:56:25.000Z</time>
</trkpt>
<trkpt lat="57.150627" lon="9.340967">
<ele>17.296448</ele>
<time>2026-07-16T08:56:26.000Z</time>
</trkpt>
<trkpt lat="57.150623" lon="9.341074">
<ele>17.310765</ele>
<time>2026-07-16T08:56:27.000Z</time>
</trkpt>
<trkpt lat="57.150623" lon="9.341183">
<ele>17.325316</ele>
<time>2026-07-16T08:56:28.000Z</time>
</trkpt>
<trkpt lat="57.150619" lon="9.341289">
<ele>17.339500</ele>
<time>2026-07-16T08:56:29.000Z</time>
</trkpt>
<trkpt lat="57.150616" lon="9.341396">
<ele>17.353803</ele>
<time>2026-07-16T08:56:30.000Z</time>
</trkpt>
<trkpt lat="57.150608" lon="9.341498">
<ele>17.367560</ele>
<time>2026-07-16T08:56:31.000Z</time>
</trkpt>
<trkpt lat="57.150597" lon="9.341598">
<ele>17.381181</ele>
<time>2026-07-16T08:56:32.000Z</time>
</trkpt>
<trkpt lat="57.150578" lon="9.341698">
<ele>17.395326</ele>
<time>2026-07-16T08:56:33.000Z</time>
</trkpt>
<trkpt lat="57.150555" lon="9.341786">
<ele>17.408365</ele>
<time>2026-07-16T08:56:34.000Z</time>
</trkpt>
<trkpt lat="57.150528" lon="9.341872">
<ele>17.421630</ele>
<time>2026-07-16T08:56:35.000Z</time>
</trkpt>
<trkpt lat="57.150497" lon="9.341955">
<ele>17.435082</ele>
<time>2026-07-16T08:56:36.000Z</time>
</trkpt>
<trkpt lat="57.150467" lon="9.342034">
<ele>17.447956</ele>
<time>2026-07-16T08:56:37.000Z</time>
</trkpt>
<trkpt lat="57.150436" lon="9.342117">
<ele>17.460725</ele>
<time>2026-07-16T08:56:38.000Z</time>
</trkpt>
<trkpt lat="57.150406" lon="9.342196">
<ele>17.472671</ele>
<time>2026-07-16T08:56:39.000Z</time>
</trkpt>
<trkpt lat="57.150383" lon="9.342264">
<ele>17.482599</ele>
<time>2026-07-16T08:56:40.000Z</time>
</trkpt>
<trkpt lat="57.150349" lon="9.342352">
<ele>17.495983</ele>
<time>2026-07-16T08:56:41.000Z</time>
</trkpt>
<trkpt lat="57.150314" lon="9.342423">
<ele>17.507868</ele>
<time>2026-07-16T08:56:42.000Z</time>
</trkpt>
<trkpt lat="57.150272" lon="9.342497">
<ele>17.521136</ele>
<time>2026-07-16T08:56:43.000Z</time>
</trkpt>
<trkpt lat="57.150227" lon="9.342553">
<ele>17.533536</ele>
<time>2026-07-16T08:56:44.000Z</time>
</trkpt>
<trkpt lat="57.150181" lon="9.342605">
<ele>17.545859</ele>
<time>2026-07-16T08:56:45.000Z</time>
</trkpt>
<trkpt lat="57.150139" lon="9.342659">
<ele>17.557553</ele>
<time>2026-07-16T08:56:46.000Z</time>
</trkpt>
<trkpt lat="57.150097" lon="9.342709">
<ele>17.568971</ele>
<time>2026-07-16T08:56:47.000Z</time>
</trkpt>
<trkpt lat="57.150047" lon="9.342755">
<ele>17.581733</ele>
<time>2026-07-16T08:56:48.000Z</time>
</trkpt>
<trkpt lat="57.150001" lon="9.342797">
<ele>17.593457</ele>
<time>2026-07-16T08:56:49.000Z</time>
</trkpt>
<trkpt lat="57.149960" lon="9.342839">
<ele>17.604169</ele>
<time>2026-07-16T08:56:50.000Z</time>
</trkpt>
<trkpt lat="57.149914" lon="9.342885">
<ele>17.616120</ele>
<time>2026-07-16T08:56:51.000Z</time>
</trkpt>
<trkpt lat="57.149868" lon="9.342930">
<ele>17.628013</ele>
<time>2026-07-16T08:56:52.000Z</time>
</trkpt>
<trkpt lat="57.149822" lon="9.342976">
<ele>17.639965</ele>
<time>2026-07-16T08:56:53.000Z</time>
</trkpt>
<trkpt lat="57.149773" lon="9.343017">
<ele>17.652254</ele>
<time>2026-07-16T08:56:54.000Z</time>
</trkpt>
<trkpt lat="57.149727" lon="9.343056">
<ele>17.663817</ele>
<time>2026-07-16T08:56:55.000Z</time>
</trkpt>
<trkpt lat="57.149677" lon="9.343094">
<ele>17.676168</ele>
<time>2026-07-16T08:56:56.000Z</time>
</trkpt>
<trkpt lat="57.149628" lon="9.343131">
<ele>17.688261</ele>
<time>2026-07-16T08:56:57.000Z</time>
</trkpt>
<trkpt lat="57.149574" lon="9.343166">
<ele>17.701334</ele>
<time>2026-07-16T08:56:58.000Z</time>
</trkpt>
<trkpt lat="57.149525" lon="9.343200">
<ele>17.713291</ele>
<time>2026-07-16T08:56:59.000Z</time>
</trkpt>
<trkpt lat="57.149475" lon="9.343234">
<ele>17.725462</ele>
<time>2026-07-16T08:57:00.000Z</time>
</trkpt>
<trkpt lat="57.149418" lon="9.343271">
<ele>17.739263</ele>
<time>2026-07-16T08:57:01.000Z</time>
</trkpt>
<trkpt lat="57.149364" lon="9.343307">
<ele>17.752377</ele>
<time>2026-07-16T08:57:02.000Z</time>
</trkpt>
<trkpt lat="57.149311" lon="9.343346">
<ele>17.765410</ele>
<time>2026-07-16T08:57:03.000Z</time>
</trkpt>
<trkpt lat="57.149258" lon="9.343380">
<ele>17.778226</ele>
<time>2026-07-16T08:57:04.000Z</time>
</trkpt>
<trkpt lat="57.149204" lon="9.343419">
<ele>17.791471</ele>
<time>2026-07-16T08:57:05.000Z</time>
</trkpt>
<trkpt lat="57.149155" lon="9.343454">
<ele>17.803473</ele>
<time>2026-07-16T08:57:06.000Z</time>
</trkpt>
<trkpt lat="57.149097" lon="9.343505">
<ele>17.818148</ele>
<time>2026-07-16T08:57:07.000Z</time>
</trkpt>
<trkpt lat="57.149044" lon="9.343559">
<ele>17.831978</ele>
<time>2026-07-16T08:57:08.000Z</time>
</trkpt>
<trkpt lat="57.148994" lon="9.343611">
<ele>17.845089</ele>
<time>2026-07-16T08:57:09.000Z</time>
</trkpt>
<trkpt lat="57.148941" lon="9.343664">
<ele>17.858859</ele>
<time>2026-07-16T08:57:10.000Z</time>
</trkpt>
<trkpt lat="57.148888" lon="9.343720">
<ele>17.879817</ele>
<time>2026-07-16T08:57:11.000Z</time>
</trkpt>
<trkpt lat="57.148834" lon="9.343780">
<ele>17.904188</ele>
<time>2026-07-16T08:57:12.000Z</time>
</trkpt>
<trkpt lat="57.148796" lon="9.343842">
<ele>17.923803</ele>
<time>2026-07-16T08:57:13.000Z</time>
</trkpt>
<trkpt lat="57.148754" lon="9.343911">
<ele>17.945549</ele>
<time>2026-07-16T08:57:14.000Z</time>
</trkpt>
<trkpt lat="57.148712" lon="9.343977">
<ele>17.966881</ele>
<time>2026-07-16T08:57:15.000Z</time>
</trkpt>
<trkpt lat="57.148678" lon="9.344033">
<ele>17.984505</ele>
<time>2026-07-16T08:57:16.000Z</time>
</trkpt>
<trkpt lat="57.148628" lon="9.344104">
<ele>18.008900</ele>
<time>2026-07-16T08:57:17.000Z</time>
</trkpt>
<trkpt lat="57.148590" lon="9.344170">
<ele>18.029081</ele>
<time>2026-07-16T08:57:18.000Z</time>
</trkpt>
<trkpt lat="57.148552" lon="9.344237">
<ele>18.049406</ele>
<time>2026-07-16T08:57:19.000Z</time>
</trkpt>
<trkpt lat="57.148518" lon="9.344307">
<ele>18.069107</ele>
<time>2026-07-16T08:57:20.000Z</time>
</trkpt>
<trkpt lat="57.148480" lon="9.344379">
<ele>18.090170</ele>
<time>2026-07-16T08:57:21.000Z</time>
</trkpt>
<trkpt lat="57.148449" lon="9.344450">
<ele>18.109281</ele>
<time>2026-07-16T08:57:22.000Z</time>
</trkpt>
<trkpt lat="57.148415" lon="9.344525">
<ele>18.129775</ele>
<time>2026-07-16T08:57:23.000Z</time>
</trkpt>
<trkpt lat="57.148380" lon="9.344601">
<ele>18.150679</ele>
<time>2026-07-16T08:57:24.000Z</time>
</trkpt>
<trkpt lat="57.148354" lon="9.344674">
<ele>18.168990</ele>
<time>2026-07-16T08:57:25.000Z</time>
</trkpt>
<trkpt lat="57.148331" lon="9.344734">
<ele>18.184395</ele>
<time>2026-07-16T08:57:26.000Z</time>
</trkpt>
<trkpt lat="57.148300" lon="9.344824">
<ele>18.206749</ele>
<time>2026-07-16T08:57:27.000Z</time>
</trkpt>
<trkpt lat="57.148270" lon="9.344910">
<ele>18.228189</ele>
<time>2026-07-16T08:57:28.000Z</time>
</trkpt>
<trkpt lat="57.148247" lon="9.344988">
<ele>18.246804</ele>
<time>2026-07-16T08:57:29.000Z</time>
</trkpt>
<trkpt lat="57.148216" lon="9.345066">
<ele>18.267079</ele>
<time>2026-07-16T08:57:30.000Z</time>
</trkpt>
<trkpt lat="57.148190" lon="9.345141">
<ele>18.285742</ele>
<time>2026-07-16T08:57:31.000Z</time>
</trkpt>
<trkpt lat="57.148167" lon="9.345219">
<ele>18.304357</ele>
<time>2026-07-16T08:57:32.000Z</time>
</trkpt>
<trkpt lat="57.148140" lon="9.345301">
<ele>18.324470</ele>
<time>2026-07-16T08:57:33.000Z</time>
</trkpt>
<trkpt lat="57.148117" lon="9.345371">
<ele>18.341631</ele>
<time>2026-07-16T08:57:34.000Z</time>
</trkpt>
<trkpt lat="57.148083" lon="9.345465">
<ele>18.365320</ele>
<time>2026-07-16T08:57:35.000Z</time>
</trkpt>
<trkpt lat="57.148056" lon="9.345553">
<ele>18.386519</ele>
<time>2026-07-16T08:57:36.000Z</time>
</trkpt>
<trkpt lat="57.148033" lon="9.345644">
<ele>18.407570</ele>
<time>2026-07-16T08:57:37.000Z</time>
</trkpt>
<trkpt lat="57.148014" lon="9.345737">
<ele>18.428407</ele>
<time>2026-07-16T08:57:38.000Z</time>
</trkpt>
<trkpt lat="57.147995" lon="9.345829">
<ele>18.449049</ele>
<time>2026-07-16T08:57:39.000Z</time>
</trkpt>
<trkpt lat="57.147976" lon="9.345924">
<ele>18.470279</ele>
<time>2026-07-16T08:57:40.000Z</time>
</trkpt>
<trkpt lat="57.147961" lon="9.346020">
<ele>18.491227</ele>
<time>2026-07-16T08:57:41.000Z</time>
</trkpt>
<trkpt lat="57.147949" lon="9.346116">
<ele>18.511884</ele>
<time>2026-07-16T08:57:42.000Z</time>
</trkpt>
<trkpt lat="57.147938" lon="9.346214">
<ele>18.532868</ele>
<time>2026-07-16T08:57:43.000Z</time>
</trkpt>
<trkpt lat="57.147930" lon="9.346313">
<ele>18.553856</ele>
<time>2026-07-16T08:57:44.000Z</time>
</trkpt>
<trkpt lat="57.147923" lon="9.346413">
<ele>18.557089</ele>
<time>2026-07-16T08:57:45.000Z</time>
</trkpt>
<trkpt lat="57.147919" lon="9.346514">
<ele>18.556047</ele>
<time>2026-07-16T08:57:46.000Z</time>
</trkpt>
<trkpt lat="57.147915" lon="9.346615">
<ele>18.555005</ele>
<time>2026-07-16T08:57:47.000Z</time>
</trkpt>
<trkpt lat="57.147919" lon="9.346720">
<ele>18.553921</ele>
<time>2026-07-16T08:57:48.000Z</time>
</trkpt>
<trkpt lat="57.147926" lon="9.346818">
<ele>18.552904</ele>
<time>2026-07-16T08:57:49.000Z</time>
</trkpt>
<trkpt lat="57.147938" lon="9.346924">
<ele>18.551790</ele>
<time>2026-07-16T08:57:50.000Z</time>
</trkpt>
<trkpt lat="57.147949" lon="9.347022">
<ele>18.550760</ele>
<time>2026-07-16T08:57:51.000Z</time>
</trkpt>
<trkpt lat="57.147965" lon="9.347118">
<ele>18.549727</ele>
<time>2026-07-16T08:57:52.000Z</time>
</trkpt>
<trkpt lat="57.147984" lon="9.347209">
<ele>18.548724</ele>
<time>2026-07-16T08:57:53.000Z</time>
</trkpt>
<trkpt lat="57.148003" lon="9.347307">
<ele>18.547653</ele>
<time>2026-07-16T08:57:54.000Z</time>
</trkpt>
<trkpt lat="57.148018" lon="9.347403">
<ele>18.546625</ele>
<time>2026-07-16T08:57:55.000Z</time>
</trkpt>
<trkpt lat="57.148037" lon="9.347495">
<ele>18.545612</ele>
<time>2026-07-16T08:57:56.000Z</time>
</trkpt>
<trkpt lat="57.148056" lon="9.347590">
<ele>18.544570</ele>
<time>2026-07-16T08:57:57.000Z</time>
</trkpt>
<trkpt lat="57.148075" lon="9.347688">
<ele>18.543499</ele>
<time>2026-07-16T08:57:58.000Z</time>
</trkpt>
<trkpt lat="57.148090" lon="9.347786">
<ele>18.542451</ele>
<time>2026-07-16T08:57:59.000Z</time>
</trkpt>
<trkpt lat="57.148102" lon="9.347871">
<ele>18.541547</ele>
<time>2026-07-16T08:58:00.000Z</time>
</trkpt>
<trkpt lat="57.148117" lon="9.347980">
<ele>18.540390</ele>
<time>2026-07-16T08:58:01.000Z</time>
</trkpt>
<trkpt lat="57.148136" lon="9.348082">
<ele>18.539280</ele>
<time>2026-07-16T08:58:02.000Z</time>
</trkpt>
<trkpt lat="57.148151" lon="9.348174">
<ele>18.538292</ele>
<time>2026-07-16T08:58:03.000Z</time>
</trkpt>
<trkpt lat="57.148178" lon="9.348260">
<ele>18.537270</ele>
<time>2026-07-16T08:58:04.000Z</time>
</trkpt>
<trkpt lat="57.148201" lon="9.348344">
<ele>18.536301</ele>
<time>2026-07-16T08:58:05.000Z</time>
</trkpt>
<trkpt lat="57.148235" lon="9.348418">
<ele>18.535303</ele>
<time>2026-07-16T08:58:06.000Z</time>
</trkpt>
<trkpt lat="57.148270" lon="9.348481">
<ele>18.534376</ele>
<time>2026-07-16T08:58:07.000Z</time>
</trkpt>
<trkpt lat="57.148312" lon="9.348529">
<ele>18.533438</ele>
<time>2026-07-16T08:58:08.000Z</time>
</trkpt>
<trkpt lat="57.148354" lon="9.348572">
<ele>18.532527</ele>
<time>2026-07-16T08:58:09.000Z</time>
</trkpt>
<trkpt lat="57.148388" lon="9.348607">
<ele>18.531788</ele>
<time>2026-07-16T08:58:10.000Z</time>
</trkpt>
<trkpt lat="57.148430" lon="9.348653">
<ele>18.530861</ele>
<time>2026-07-16T08:58:11.000Z</time>
</trkpt>
<trkpt lat="57.148468" lon="9.348706">
<ele>18.529958</ele>
<time>2026-07-16T08:58:12.000Z</time>
</trkpt>
<trkpt lat="57.148506" lon="9.348766">
<ele>18.529008</ele>
<time>2026-07-16T08:58:13.000Z</time>
</trkpt>
<trkpt lat="57.148537" lon="9.348826">
<ele>18.528156</ele>
<time>2026-07-16T08:58:14.000Z</time>
</trkpt>
<trkpt lat="57.148571" lon="9.348886">
<ele>18.527263</ele>
<time>2026-07-16T08:58:15.000Z</time>
</trkpt>
<trkpt lat="57.148609" lon="9.348951">
<ele>18.526280</ele>
<time>2026-07-16T08:58:16.000Z</time>
</trkpt>
<trkpt lat="57.148643" lon="9.349027">
<ele>18.525266</ele>
<time>2026-07-16T08:58:17.000Z</time>
</trkpt>
<trkpt lat="57.148678" lon="9.349112">
<ele>18.524168</ele>
<time>2026-07-16T08:58:18.000Z</time>
</trkpt>
<trkpt lat="57.148705" lon="9.349197">
<ele>18.549362</ele>
<time>2026-07-16T08:58:19.000Z</time>
</trkpt>
<trkpt lat="57.148731" lon="9.349284">
<ele>18.589298</ele>
<time>2026-07-16T08:58:20.000Z</time>
</trkpt>
<trkpt lat="57.148758" lon="9.349390">
<ele>18.636382</ele>
<time>2026-07-16T08:58:21.000Z</time>
</trkpt>
<trkpt lat="57.148781" lon="9.349481">
<ele>18.676746</ele>
<time>2026-07-16T08:58:22.000Z</time>
</trkpt>
<trkpt lat="57.148796" lon="9.349585">
<ele>18.720014</ele>
<time>2026-07-16T08:58:23.000Z</time>
</trkpt>
<trkpt lat="57.148811" lon="9.349682">
<ele>18.760568</ele>
<time>2026-07-16T08:58:24.000Z</time>
</trkpt>
<trkpt lat="57.148834" lon="9.349778">
<ele>18.802763</ele>
<time>2026-07-16T08:58:25.000Z</time>
</trkpt>
<trkpt lat="57.148849" lon="9.349848">
<ele>18.833024</ele>
<time>2026-07-16T08:58:26.000Z</time>
</trkpt>
<trkpt lat="57.148876" lon="9.349956">
<ele>18.880836</ele>
<time>2026-07-16T08:58:27.000Z</time>
</trkpt>
<trkpt lat="57.148895" lon="9.350057">
<ele>18.923817</ele>
<time>2026-07-16T08:58:28.000Z</time>
</trkpt>
<trkpt lat="57.148914" lon="9.350154">
<ele>18.965282</ele>
<time>2026-07-16T08:58:29.000Z</time>
</trkpt>
<trkpt lat="57.148933" lon="9.350254">
<ele>19.007883</ele>
<time>2026-07-16T08:58:30.000Z</time>
</trkpt>
<trkpt lat="57.148952" lon="9.350352">
<ele>19.049726</ele>
<time>2026-07-16T08:58:31.000Z</time>
</trkpt>
<trkpt lat="57.148975" lon="9.350447">
<ele>19.091554</ele>
<time>2026-07-16T08:58:32.000Z</time>
</trkpt>
<trkpt lat="57.149002" lon="9.350542">
<ele>19.134675</ele>
<time>2026-07-16T08:58:33.000Z</time>
</trkpt>
<trkpt lat="57.149021" lon="9.350634">
<ele>19.174254</ele>
<time>2026-07-16T08:58:34.000Z</time>
</trkpt>
<trkpt lat="57.149048" lon="9.350724">
<ele>19.215605</ele>
<time>2026-07-16T08:58:35.000Z</time>
</trkpt>
<trkpt lat="57.149071" lon="9.350808">
<ele>19.253437</ele>
<time>2026-07-16T08:58:36.000Z</time>
</trkpt>
<trkpt lat="57.149090" lon="9.350906">
<ele>19.295280</ele>
<time>2026-07-16T08:58:37.000Z</time>
</trkpt>
<trkpt lat="57.149117" lon="9.350995">
<ele>19.336279</ele>
<time>2026-07-16T08:58:38.000Z</time>
</trkpt>
<trkpt lat="57.149136" lon="9.351082">
<ele>19.373987</ele>
<time>2026-07-16T08:58:39.000Z</time>
</trkpt>
<trkpt lat="57.149155" lon="9.351172">
<ele>19.412816</ele>
<time>2026-07-16T08:58:40.000Z</time>
</trkpt>
<trkpt lat="57.149178" lon="9.351256">
<ele>19.450647</ele>
<time>2026-07-16T08:58:41.000Z</time>
</trkpt>
<trkpt lat="57.149197" lon="9.351352">
<ele>19.491734</ele>
<time>2026-07-16T08:58:42.000Z</time>
</trkpt>
<trkpt lat="57.149216" lon="9.351450">
<ele>19.533577</ele>
<time>2026-07-16T08:58:43.000Z</time>
</trkpt>
<trkpt lat="57.149227" lon="9.351554">
<ele>19.576178</ele>
<time>2026-07-16T08:58:44.000Z</time>
</trkpt>
<trkpt lat="57.149235" lon="9.351658">
<ele>19.618411</ele>
<time>2026-07-16T08:58:45.000Z</time>
</trkpt>
<trkpt lat="57.149231" lon="9.351741">
<ele>19.651913</ele>
<time>2026-07-16T08:58:46.000Z</time>
</trkpt>
<trkpt lat="57.149223" lon="9.351865">
<ele>19.702120</ele>
<time>2026-07-16T08:58:47.000Z</time>
</trkpt>
<trkpt lat="57.149204" lon="9.351979">
<ele>19.750070</ele>
<time>2026-07-16T08:58:48.000Z</time>
</trkpt>
<trkpt lat="57.149189" lon="9.352083">
<ele>19.793337</ele>
<time>2026-07-16T08:58:49.000Z</time>
</trkpt>
<trkpt lat="57.149174" lon="9.352185">
<ele>19.835827</ele>
<time>2026-07-16T08:58:50.000Z</time>
</trkpt>
<trkpt lat="57.149166" lon="9.352284">
<ele>19.845708</ele>
<time>2026-07-16T08:58:51.000Z</time>
</trkpt>
<trkpt lat="57.149151" lon="9.352389">
<ele>19.820071</ele>
<time>2026-07-16T08:58:52.000Z</time>
</trkpt>
<trkpt lat="57.149143" lon="9.352487">
<ele>19.796671</ele>
<time>2026-07-16T08:58:53.000Z</time>
</trkpt>
<trkpt lat="57.149139" lon="9.352577">
<ele>19.775350</ele>
<time>2026-07-16T08:58:54.000Z</time>
</trkpt>
<trkpt lat="57.149139" lon="9.352659">
<ele>19.755989</ele>
<time>2026-07-16T08:58:55.000Z</time>
</trkpt>
<trkpt lat="57.149143" lon="9.352734">
<ele>19.738195</ele>
<time>2026-07-16T08:58:56.000Z</time>
</trkpt>
<trkpt lat="57.149147" lon="9.352804">
<ele>19.721575</ele>
<time>2026-07-16T08:58:57.000Z</time>
</trkpt>
<trkpt lat="57.149155" lon="9.352872">
<ele>19.705146</ele>
<time>2026-07-16T08:58:58.000Z</time>
</trkpt>
<trkpt lat="57.149166" lon="9.352930">
<ele>19.690639</ele>
<time>2026-07-16T08:58:59.000Z</time>
</trkpt>
<trkpt lat="57.149178" lon="9.352983">
<ele>19.677079</ele>
<time>2026-07-16T08:59:00.000Z</time>
</trkpt>
<trkpt lat="57.149197" lon="9.353050">
<ele>19.659228</ele>
<time>2026-07-16T08:59:01.000Z</time>
</trkpt>
<trkpt lat="57.149216" lon="9.353116">
<ele>19.641586</ele>
<time>2026-07-16T08:59:02.000Z</time>
</trkpt>
<trkpt lat="57.149227" lon="9.353183">
<ele>19.625058</ele>
<time>2026-07-16T08:59:03.000Z</time>
</trkpt>
<trkpt lat="57.149246" lon="9.353253">
<ele>19.606576</ele>
<time>2026-07-16T08:59:04.000Z</time>
</trkpt>
<trkpt lat="57.149265" lon="9.353324">
<ele>19.587883</ele>
<time>2026-07-16T08:59:05.000Z</time>
</trkpt>
<trkpt lat="57.149284" lon="9.353409">
<ele>19.566176</ele>
<time>2026-07-16T08:59:06.000Z</time>
</trkpt>
<trkpt lat="57.149303" lon="9.353496">
<ele>19.544032</ele>
<time>2026-07-16T08:59:07.000Z</time>
</trkpt>
<trkpt lat="57.149326" lon="9.353595">
<ele>19.518604</ele>
<time>2026-07-16T08:59:08.000Z</time>
</trkpt>
<trkpt lat="57.149349" lon="9.353702">
<ele>19.491429</ele>
<time>2026-07-16T08:59:09.000Z</time>
</trkpt>
<trkpt lat="57.149368" lon="9.353809">
<ele>19.464845</ele>
<time>2026-07-16T08:59:10.000Z</time>
</trkpt>
<trkpt lat="57.149395" lon="9.353921">
<ele>19.435907</ele>
<time>2026-07-16T08:59:11.000Z</time>
</trkpt>
<trkpt lat="57.149414" lon="9.354018">
<ele>19.411557</ele>
<time>2026-07-16T08:59:12.000Z</time>
</trkpt>
<trkpt lat="57.149441" lon="9.354126">
<ele>19.383479</ele>
<time>2026-07-16T08:59:13.000Z</time>
</trkpt>
<trkpt lat="57.149460" lon="9.354265">
<ele>19.349634</ele>
<time>2026-07-16T08:59:14.000Z</time>
</trkpt>
<trkpt lat="57.149479" lon="9.354389">
<ele>19.319210</ele>
<time>2026-07-16T08:59:15.000Z</time>
</trkpt>
<trkpt lat="57.149487" lon="9.354507">
<ele>19.291132</ele>
<time>2026-07-16T08:59:16.000Z</time>
</trkpt>
<trkpt lat="57.149494" lon="9.354627">
<ele>19.262636</ele>
<time>2026-07-16T08:59:17.000Z</time>
</trkpt>
<trkpt lat="57.149502" lon="9.354751">
<ele>19.233152</ele>
<time>2026-07-16T08:59:18.000Z</time>
</trkpt>
<trkpt lat="57.149506" lon="9.354876">
<ele>19.203586</ele>
<time>2026-07-16T08:59:19.000Z</time>
</trkpt>
<trkpt lat="57.149509" lon="9.355001">
<ele>19.174044</ele>
<time>2026-07-16T08:59:20.000Z</time>
</trkpt>
<trkpt lat="57.149513" lon="9.355121">
<ele>19.145657</ele>
<time>2026-07-16T08:59:21.000Z</time>
</trkpt>
<trkpt lat="57.149513" lon="9.355240">
<ele>19.117560</ele>
<time>2026-07-16T08:59:22.000Z</time>
</trkpt>
<trkpt lat="57.149509" lon="9.355355">
<ele>19.090351</ele>
<time>2026-07-16T08:59:23.000Z</time>
</trkpt>
<trkpt lat="57.149509" lon="9.355470">
<ele>19.058400</ele>
<time>2026-07-16T08:59:24.000Z</time>
</trkpt>
<trkpt lat="57.149509" lon="9.355582">
<ele>19.020262</ele>
<time>2026-07-16T08:59:25.000Z</time>
</trkpt>
<trkpt lat="57.149513" lon="9.355695">
<ele>18.981701</ele>
<time>2026-07-16T08:59:26.000Z</time>
</trkpt>
<trkpt lat="57.149521" lon="9.355804">
<ele>18.944246</ele>
<time>2026-07-16T08:59:27.000Z</time>
</trkpt>
<trkpt lat="57.149532" lon="9.355918">
<ele>18.904817</ele>
<time>2026-07-16T08:59:28.000Z</time>
</trkpt>
<trkpt lat="57.149548" lon="9.356025">
<ele>18.867022</ele>
<time>2026-07-16T08:59:29.000Z</time>
</trkpt>
<trkpt lat="57.149563" lon="9.356132">
<ele>18.829389</ele>
<time>2026-07-16T08:59:30.000Z</time>
</trkpt>
<trkpt lat="57.149590" lon="9.356232">
<ele>18.791352</ele>
<time>2026-07-16T08:59:31.000Z</time>
</trkpt>
<trkpt lat="57.149616" lon="9.356330">
<ele>18.754204</ele>
<time>2026-07-16T08:59:32.000Z</time>
</trkpt>
<trkpt lat="57.149654" lon="9.356424">
<ele>18.714284</ele>
<time>2026-07-16T08:59:33.000Z</time>
</trkpt>
<trkpt lat="57.149693" lon="9.356511">
<ele>18.675851</ele>
<time>2026-07-16T08:59:34.000Z</time>
</trkpt>
<trkpt lat="57.149735" lon="9.356601">
<ele>18.635424</ele>
<time>2026-07-16T08:59:35.000Z</time>
</trkpt>
<trkpt lat="57.149780" lon="9.356690">
<ele>18.593994</ele>
<time>2026-07-16T08:59:36.000Z</time>
</trkpt>
<trkpt lat="57.149822" lon="9.356779">
<ele>18.553824</ele>
<time>2026-07-16T08:59:37.000Z</time>
</trkpt>
<trkpt lat="57.149868" lon="9.356861">
<ele>18.513656</ele>
<time>2026-07-16T08:59:38.000Z</time>
</trkpt>
<trkpt lat="57.149906" lon="9.356941">
<ele>18.477446</ele>
<time>2026-07-16T08:59:39.000Z</time>
</trkpt>
<trkpt lat="57.149944" lon="9.357021">
<ele>18.441236</ele>
<time>2026-07-16T08:59:40.000Z</time>
</trkpt>
<trkpt lat="57.149979" lon="9.357099">
<ele>18.406766</ele>
<time>2026-07-16T08:59:41.000Z</time>
</trkpt>
<trkpt lat="57.150009" lon="9.357181">
<ele>18.373087</ele>
<time>2026-07-16T08:59:42.000Z</time>
</trkpt>
<trkpt lat="57.150036" lon="9.357263">
<ele>18.340423</ele>
<time>2026-07-16T08:59:43.000Z</time>
</trkpt>
<trkpt lat="57.150059" lon="9.357351">
<ele>18.307160</ele>
<time>2026-07-16T08:59:44.000Z</time>
</trkpt>
<trkpt lat="57.150082" lon="9.357442">
<ele>18.272974</ele>
<time>2026-07-16T08:59:45.000Z</time>
</trkpt>
<trkpt lat="57.150101" lon="9.357532">
<ele>18.240089</ele>
<time>2026-07-16T08:59:46.000Z</time>
</trkpt>
<trkpt lat="57.150116" lon="9.357634">
<ele>18.204102</ele>
<time>2026-07-16T08:59:47.000Z</time>
</trkpt>
<trkpt lat="57.150127" lon="9.357731">
<ele>18.170358</ele>
<time>2026-07-16T08:59:48.000Z</time>
</trkpt>
<trkpt lat="57.150139" lon="9.357821">
<ele>18.138799</ele>
<time>2026-07-16T08:59:49.000Z</time>
</trkpt>
<trkpt lat="57.150154" lon="9.357921">
<ele>18.103470</ele>
<time>2026-07-16T08:59:50.000Z</time>
</trkpt>
<trkpt lat="57.150166" lon="9.358017">
<ele>18.069924</ele>
<time>2026-07-16T08:59:51.000Z</time>
</trkpt>
<trkpt lat="57.150185" lon="9.358117">
<ele>18.033844</ele>
<time>2026-07-16T08:59:52.000Z</time>
</trkpt>
<trkpt lat="57.150196" lon="9.358207">
<ele>18.002429</ele>
<time>2026-07-16T08:59:53.000Z</time>
</trkpt>
<trkpt lat="57.150219" lon="9.358293">
<ele>17.969779</ele>
<time>2026-07-16T08:59:54.000Z</time>
</trkpt>
<trkpt lat="57.150238" lon="9.358384">
<ele>17.939318</ele>
<time>2026-07-16T08:59:55.000Z</time>
</trkpt>
<trkpt lat="57.150253" lon="9.358477">
<ele>17.917098</ele>
<time>2026-07-16T08:59:56.000Z</time>
</trkpt>
<trkpt lat="57.150269" lon="9.358573">
<ele>17.894097</ele>
<time>2026-07-16T08:59:57.000Z</time>
</trkpt>
<trkpt lat="57.150280" lon="9.358668">
<ele>17.871850</ele>
<time>2026-07-16T08:59:58.000Z</time>
</trkpt>
<trkpt lat="57.150295" lon="9.358770">
<ele>17.847647</ele>
<time>2026-07-16T08:59:59.000Z</time>
</trkpt>
<trkpt lat="57.150299" lon="9.358856">
<ele>17.827879</ele>
<time>2026-07-16T09:00:00.000Z</time>
</trkpt>
<trkpt lat="57.150307" lon="9.358978">
<ele>17.799736</ele>
<time>2026-07-16T09:00:01.000Z</time>
</trkpt>
<trkpt lat="57.150307" lon="9.359074">
<ele>17.777750</ele>
<time>2026-07-16T09:00:02.000Z</time>
</trkpt>
<trkpt lat="57.150307" lon="9.359189">
<ele>17.751413</ele>
<time>2026-07-16T09:00:03.000Z</time>
</trkpt>
<trkpt lat="57.150307" lon="9.359295">
<ele>17.727137</ele>
<time>2026-07-16T09:00:04.000Z</time>
</trkpt>
<trkpt lat="57.150303" lon="9.359402">
<ele>17.702574</ele>
<time>2026-07-16T09:00:05.000Z</time>
</trkpt>
<trkpt lat="57.150303" lon="9.359510">
<ele>17.677840</ele>
<time>2026-07-16T09:00:06.000Z</time>
</trkpt>
<trkpt lat="57.150299" lon="9.359617">
<ele>17.653276</ele>
<time>2026-07-16T09:00:07.000Z</time>
</trkpt>
<trkpt lat="57.150295" lon="9.359727">
<ele>17.628028</ele>
<time>2026-07-16T09:00:08.000Z</time>
</trkpt>
<trkpt lat="57.150291" lon="9.359836">
<ele>17.603008</ele>
<time>2026-07-16T09:00:09.000Z</time>
</trkpt>
<trkpt lat="57.150288" lon="9.359938">
<ele>17.579613</ele>
<time>2026-07-16T09:00:10.000Z</time>
</trkpt>
<trkpt lat="57.150288" lon="9.360051">
<ele>17.553734</ele>
<time>2026-07-16T09:00:11.000Z</time>
</trkpt>
<trkpt lat="57.150291" lon="9.360155">
<ele>17.529883</ele>
<time>2026-07-16T09:00:12.000Z</time>
</trkpt>
<trkpt lat="57.150288" lon="9.360262">
<ele>17.505345</ele>
<time>2026-07-16T09:00:13.000Z</time>
</trkpt>
<trkpt lat="57.150288" lon="9.360362">
<ele>17.482443</ele>
<time>2026-07-16T09:00:14.000Z</time>
</trkpt>
<trkpt lat="57.150284" lon="9.360467">
<ele>17.458337</ele>
<time>2026-07-16T09:00:15.000Z</time>
</trkpt>
<trkpt lat="57.150280" lon="9.360570">
<ele>17.434687</ele>
<time>2026-07-16T09:00:16.000Z</time>
</trkpt>
<trkpt lat="57.150276" lon="9.360669">
<ele>17.411952</ele>
<time>2026-07-16T09:00:17.000Z</time>
</trkpt>
<trkpt lat="57.150276" lon="9.360769">
<ele>17.389050</ele>
<time>2026-07-16T09:00:18.000Z</time>
</trkpt>
<trkpt lat="57.150272" lon="9.360870">
<ele>17.365857</ele>
<time>2026-07-16T09:00:19.000Z</time>
</trkpt>
<trkpt lat="57.150269" lon="9.360969">
<ele>17.343149</ele>
<time>2026-07-16T09:00:20.000Z</time>
</trkpt>
<trkpt lat="57.150269" lon="9.361061">
<ele>17.322079</ele>
<time>2026-07-16T09:00:21.000Z</time>
</trkpt>
<trkpt lat="57.150269" lon="9.361155">
<ele>17.300552</ele>
<time>2026-07-16T09:00:22.000Z</time>
</trkpt>
<trkpt lat="57.150269" lon="9.361240">
<ele>17.281085</ele>
<time>2026-07-16T09:00:23.000Z</time>
</trkpt>
<trkpt lat="57.150269" lon="9.361326">
<ele>17.261389</ele>
<time>2026-07-16T09:00:24.000Z</time>
</trkpt>
<trkpt lat="57.150269" lon="9.361396">
<ele>17.245358</ele>
<time>2026-07-16T09:00:25.000Z</time>
</trkpt>
<trkpt lat="57.150265" lon="9.361459">
<ele>17.230831</ele>
<time>2026-07-16T09:00:26.000Z</time>
</trkpt>
<trkpt lat="57.150261" lon="9.361494">
<ele>17.222640</ele>
<time>2026-07-16T09:00:27.000Z</time>
</trkpt>
<trkpt lat="57.150257" lon="9.361544">
<ele>17.211065</ele>
<time>2026-07-16T09:00:28.000Z</time>
</trkpt>
<trkpt lat="57.150257" lon="9.361582">
<ele>17.202362</ele>
<time>2026-07-16T09:00:29.000Z</time>
</trkpt>
<trkpt lat="57.150257" lon="9.361628">
<ele>17.191827</ele>
<time>2026-07-16T09:00:30.000Z</time>
</trkpt>
<trkpt lat="57.150253" lon="9.361659">
<ele>17.185994</ele>
<time>2026-07-16T09:00:31.000Z</time>
</trkpt>
<trkpt lat="57.150250" lon="9.361690">
<ele>17.189050</ele>
<time>2026-07-16T09:00:32.000Z</time>
</trkpt>
<trkpt lat="57.150253" lon="9.361712">
<ele>17.191252</ele>
<time>2026-07-16T09:00:33.000Z</time>
</trkpt>
<trkpt lat="57.150261" lon="9.361730">
<ele>17.193511</ele>
<time>2026-07-16T09:00:34.000Z</time>
</trkpt>
<trkpt lat="57.150269" lon="9.361750">
<ele>17.195923</ele>
<time>2026-07-16T09:00:35.000Z</time>
</trkpt>
<trkpt lat="57.150280" lon="9.361772">
<ele>17.198827</ele>
<time>2026-07-16T09:00:36.000Z</time>
</trkpt>
<trkpt lat="57.150291" lon="9.361785">
<ele>17.201165</ele>
<time>2026-07-16T09:00:37.000Z</time>
</trkpt>
<trkpt lat="57.150303" lon="9.361798">
<ele>17.203656</ele>
<time>2026-07-16T09:00:38.000Z</time>
</trkpt>
<trkpt lat="57.150314" lon="9.361815">
<ele>17.206224</ele>
<time>2026-07-16T09:00:39.000Z</time>
</trkpt>
<trkpt lat="57.150330" lon="9.361835">
<ele>17.209683</ele>
<time>2026-07-16T09:00:40.000Z</time>
</trkpt>
<trkpt lat="57.150356" lon="9.361879">
<ele>17.215998</ele>
<time>2026-07-16T09:01:46.000Z</time>
</trkpt>
<trkpt lat="57.150372" lon="9.361900">
<ele>17.219513</ele>
<time>2026-07-16T09:01:47.000Z</time>
</trkpt>
<trkpt lat="57.150391" lon="9.361934">
<ele>17.224251</ele>
<time>2026-07-16T09:01:48.000Z</time>
</trkpt>
<trkpt lat="57.150410" lon="9.361966">
<ele>17.228856</ele>
<time>2026-07-16T09:01:49.000Z</time>
</trkpt>
<trkpt lat="57.150436" lon="9.361998">
<ele>17.234450</ele>
<time>2026-07-16T09:01:50.000Z</time>
</trkpt>
<trkpt lat="57.150459" lon="9.362031">
<ele>17.239665</ele>
<time>2026-07-16T09:01:51.000Z</time>
</trkpt>
<trkpt lat="57.150482" lon="9.362064">
<ele>17.244880</ele>
<time>2026-07-16T09:01:52.000Z</time>
</trkpt>
<trkpt lat="57.150501" lon="9.362096">
<ele>17.249485</ele>
<time>2026-07-16T09:01:53.000Z</time>
</trkpt>
<trkpt lat="57.150524" lon="9.362125">
<ele>17.254471</ele>
<time>2026-07-16T09:01:54.000Z</time>
</trkpt>
<trkpt lat="57.150547" lon="9.362152">
<ele>17.259351</ele>
<time>2026-07-16T09:01:55.000Z</time>
</trkpt>
<trkpt lat="57.150570" lon="9.362176">
<ele>17.264080</ele>
<time>2026-07-16T09:01:56.000Z</time>
</trkpt>
<trkpt lat="57.150589" lon="9.362201">
<ele>17.268257</ele>
<time>2026-07-16T09:01:57.000Z</time>
</trkpt>
<trkpt lat="57.150608" lon="9.362226">
<ele>17.272434</ele>
<time>2026-07-16T09:01:58.000Z</time>
</trkpt>
<trkpt lat="57.150631" lon="9.362248">
<ele>17.277070</ele>
<time>2026-07-16T09:01:59.000Z</time>
</trkpt>
<trkpt lat="57.150650" lon="9.362267">
<ele>17.280938</ele>
<time>2026-07-16T09:02:00.000Z</time>
</trkpt>
<trkpt lat="57.150669" lon="9.362292">
<ele>17.285115</ele>
<time>2026-07-16T09:02:01.000Z</time>
</trkpt>
<trkpt lat="57.150688" lon="9.362317">
<ele>17.289292</ele>
<time>2026-07-16T09:02:02.000Z</time>
</trkpt>
<trkpt lat="57.150707" lon="9.362344">
<ele>17.293584</ele>
<time>2026-07-16T09:02:03.000Z</time>
</trkpt>
<trkpt lat="57.150722" lon="9.362367">
<ele>17.297076</ele>
<time>2026-07-16T09:02:04.000Z</time>
</trkpt>
<trkpt lat="57.150738" lon="9.362383">
<ele>17.300333</ele>
<time>2026-07-16T09:02:05.000Z</time>
</trkpt>
<trkpt lat="57.150753" lon="9.362387">
<ele>17.303045</ele>
<time>2026-07-16T09:02:06.000Z</time>
</trkpt>
<trkpt lat="57.150761" lon="9.362381">
<ele>17.304590</ele>
<time>2026-07-16T09:02:07.000Z</time>
</trkpt>
<trkpt lat="57.150764" lon="9.362372">
<ele>17.305615</ele>
<time>2026-07-16T09:02:08.000Z</time>
</trkpt>
<trkpt lat="57.150764" lon="9.362364">
<ele>17.306392</ele>
<time>2026-07-16T09:02:09.000Z</time>
</trkpt>
<trkpt lat="57.150764" lon="9.362360">
<ele>17.306780</ele>
<time>2026-07-16T09:02:10.000Z</time>
</trkpt>
<trkpt lat="57.150764" lon="9.362360">
<ele>17.306780</ele>
<time>2026-07-16T09:02:38.000Z</time>
</trkpt>
<trkpt lat="57.150780" lon="9.362411">
<ele>17.312499</ele>
<time>2026-07-16T09:02:39.000Z</time>
</trkpt>
<trkpt lat="57.150803" lon="9.362463">
<ele>17.319011</ele>
<time>2026-07-16T09:02:40.000Z</time>
</trkpt>
<trkpt lat="57.150826" lon="9.362493">
<ele>17.324053</ele>
<time>2026-07-16T09:02:41.000Z</time>
</trkpt>
<trkpt lat="57.150852" lon="9.362521">
<ele>17.329441</ele>
<time>2026-07-16T09:02:42.000Z</time>
</trkpt>
<trkpt lat="57.150883" lon="9.362553">
<ele>17.335798</ele>
<time>2026-07-16T09:02:43.000Z</time>
</trkpt>
<trkpt lat="57.150913" lon="9.362587">
<ele>17.342099</ele>
<time>2026-07-16T09:02:44.000Z</time>
</trkpt>
<trkpt lat="57.150940" lon="9.362623">
<ele>17.348062</ele>
<time>2026-07-16T09:02:45.000Z</time>
</trkpt>
<trkpt lat="57.150970" lon="9.362658">
<ele>17.354415</ele>
<time>2026-07-16T09:02:46.000Z</time>
</trkpt>
<trkpt lat="57.151001" lon="9.362693">
<ele>17.360919</ele>
<time>2026-07-16T09:02:47.000Z</time>
</trkpt>
<trkpt lat="57.151031" lon="9.362730">
<ele>17.367378</ele>
<time>2026-07-16T09:02:48.000Z</time>
</trkpt>
<trkpt lat="57.151070" lon="9.362765">
<ele>17.375140</ele>
<time>2026-07-16T09:02:49.000Z</time>
</trkpt>
<trkpt lat="57.151104" lon="9.362800">
<ele>17.382108</ele>
<time>2026-07-16T09:02:50.000Z</time>
</trkpt>
<trkpt lat="57.151138" lon="9.362829">
<ele>17.388811</ele>
<time>2026-07-16T09:02:51.000Z</time>
</trkpt>
<trkpt lat="57.151176" lon="9.362863">
<ele>17.396369</ele>
<time>2026-07-16T09:02:52.000Z</time>
</trkpt>
<trkpt lat="57.151215" lon="9.362897">
<ele>17.404089</ele>
<time>2026-07-16T09:02:53.000Z</time>
</trkpt>
<trkpt lat="57.151249" lon="9.362930">
<ele>17.410964</ele>
<time>2026-07-16T09:02:54.000Z</time>
</trkpt>
<trkpt lat="57.151283" lon="9.362961">
<ele>17.417752</ele>
<time>2026-07-16T09:02:55.000Z</time>
</trkpt>
<trkpt lat="57.151321" lon="9.362993">
<ele>17.425227</ele>
<time>2026-07-16T09:02:56.000Z</time>
</trkpt>
<trkpt lat="57.151360" lon="9.363022">
<ele>17.432752</ele>
<time>2026-07-16T09:02:57.000Z</time>
</trkpt>
<trkpt lat="57.151394" lon="9.363051">
<ele>17.439455</ele>
<time>2026-07-16T09:02:58.000Z</time>
</trkpt>
<trkpt lat="57.151432" lon="9.363079">
<ele>17.446778</ele>
<time>2026-07-16T09:02:59.000Z</time>
</trkpt>
<trkpt lat="57.151470" lon="9.363110">
<ele>17.454214</ele>
<time>2026-07-16T09:03:00.000Z</time>
</trkpt>
<trkpt lat="57.151508" lon="9.363139">
<ele>17.461573</ele>
<time>2026-07-16T09:03:01.000Z</time>
</trkpt>
<trkpt lat="57.151546" lon="9.363169">
<ele>17.468970</ele>
<time>2026-07-16T09:03:02.000Z</time>
</trkpt>
<trkpt lat="57.151585" lon="9.363197">
<ele>17.476459</ele>
<time>2026-07-16T09:03:03.000Z</time>
</trkpt>
<trkpt lat="57.151623" lon="9.363226">
<ele>17.483818</ele>
<time>2026-07-16T09:03:04.000Z</time>
</trkpt>
<trkpt lat="57.151661" lon="9.363256">
<ele>17.491215</ele>
<time>2026-07-16T09:03:05.000Z</time>
</trkpt>
<trkpt lat="57.151695" lon="9.363282">
<ele>17.497801</ele>
<time>2026-07-16T09:03:06.000Z</time>
</trkpt>
<trkpt lat="57.151733" lon="9.363307">
<ele>17.505021</ele>
<time>2026-07-16T09:03:07.000Z</time>
</trkpt>
<trkpt lat="57.151772" lon="9.363331">
<ele>17.510405</ele>
<time>2026-07-16T09:03:08.000Z</time>
</trkpt>
<trkpt lat="57.151810" lon="9.363354">
<ele>17.514722</ele>
<time>2026-07-16T09:03:09.000Z</time>
</trkpt>
<trkpt lat="57.151844" lon="9.363376">
<ele>17.518611</ele>
<time>2026-07-16T09:03:10.000Z</time>
</trkpt>
<trkpt lat="57.151882" lon="9.363395">
<ele>17.522861</ele>
<time>2026-07-16T09:03:11.000Z</time>
</trkpt>
<trkpt lat="57.151920" lon="9.363415">
<ele>17.527127</ele>
<time>2026-07-16T09:03:12.000Z</time>
</trkpt>
<trkpt lat="57.151955" lon="9.363430">
<ele>17.531006</ele>
<time>2026-07-16T09:03:13.000Z</time>
</trkpt>
<trkpt lat="57.151993" lon="9.363448">
<ele>17.535241</ele>
<time>2026-07-16T09:03:14.000Z</time>
</trkpt>
<trkpt lat="57.152027" lon="9.363470">
<ele>17.539131</ele>
<time>2026-07-16T09:03:15.000Z</time>
</trkpt>
<trkpt lat="57.152065" lon="9.363500">
<ele>17.543593</ele>
<time>2026-07-16T09:03:16.000Z</time>
</trkpt>
<trkpt lat="57.152100" lon="9.363529">
<ele>17.547735</ele>
<time>2026-07-16T09:03:17.000Z</time>
</trkpt>
<trkpt lat="57.152138" lon="9.363560">
<ele>17.552220</ele>
<time>2026-07-16T09:03:18.000Z</time>
</trkpt>
<trkpt lat="57.152176" lon="9.363583">
<ele>17.556537</ele>
<time>2026-07-16T09:03:19.000Z</time>
</trkpt>
<trkpt lat="57.152210" lon="9.363600">
<ele>17.560340</ele>
<time>2026-07-16T09:03:20.000Z</time>
</trkpt>
<trkpt lat="57.152248" lon="9.363613">
<ele>17.564512</ele>
<time>2026-07-16T09:03:21.000Z</time>
</trkpt>
<trkpt lat="57.152287" lon="9.363624">
<ele>17.568771</ele>
<time>2026-07-16T09:03:22.000Z</time>
</trkpt>
<trkpt lat="57.152328" lon="9.363632">
<ele>17.573221</ele>
<time>2026-07-16T09:03:23.000Z</time>
</trkpt>
<trkpt lat="57.152367" lon="9.363637">
<ele>17.577441</ele>
<time>2026-07-16T09:03:24.000Z</time>
</trkpt>
<trkpt lat="57.152409" lon="9.363643">
<ele>17.581988</ele>
<time>2026-07-16T09:03:25.000Z</time>
</trkpt>
<trkpt lat="57.152451" lon="9.363652">
<ele>17.586552</ele>
<time>2026-07-16T09:03:26.000Z</time>
</trkpt>
<trkpt lat="57.152493" lon="9.363670">
<ele>17.591207</ele>
<time>2026-07-16T09:03:27.000Z</time>
</trkpt>
<trkpt lat="57.152534" lon="9.363687">
<ele>17.595743</ele>
<time>2026-07-16T09:03:28.000Z</time>
</trkpt>
<trkpt lat="57.152576" lon="9.363702">
<ele>17.600361</ele>
<time>2026-07-16T09:03:29.000Z</time>
</trkpt>
<trkpt lat="57.152626" lon="9.363715">
<ele>17.605811</ele>
<time>2026-07-16T09:03:30.000Z</time>
</trkpt>
<trkpt lat="57.152672" lon="9.363726">
<ele>17.610818</ele>
<time>2026-07-16T09:03:31.000Z</time>
</trkpt>
<trkpt lat="57.152714" lon="9.363738">
<ele>17.615406</ele>
<time>2026-07-16T09:03:32.000Z</time>
</trkpt>
<trkpt lat="57.152756" lon="9.363753">
<ele>17.620024</ele>
<time>2026-07-16T09:03:33.000Z</time>
</trkpt>
<trkpt lat="57.152794" lon="9.363768">
<ele>17.624219</ele>
<time>2026-07-16T09:03:34.000Z</time>
</trkpt>
<trkpt lat="57.152836" lon="9.363780">
<ele>17.628806</ele>
<time>2026-07-16T09:03:35.000Z</time>
</trkpt>
<trkpt lat="57.152866" lon="9.363790">
<ele>17.632097</ele>
<time>2026-07-16T09:03:36.000Z</time>
</trkpt>
<trkpt lat="57.152901" lon="9.363801">
<ele>17.635930</ele>
<time>2026-07-16T09:03:37.000Z</time>
</trkpt>
<trkpt lat="57.152931" lon="9.363811">
<ele>17.639220</ele>
<time>2026-07-16T09:03:38.000Z</time>
</trkpt>
<trkpt lat="57.152966" lon="9.363817">
<ele>17.643015</ele>
<time>2026-07-16T09:03:39.000Z</time>
</trkpt>
<trkpt lat="57.152996" lon="9.363828">
<ele>17.646316</ele>
<time>2026-07-16T09:03:40.000Z</time>
</trkpt>
<trkpt lat="57.153030" lon="9.363841">
<ele>17.650064</ele>
<time>2026-07-16T09:03:41.000Z</time>
</trkpt>
<trkpt lat="57.153065" lon="9.363860">
<ele>17.654003</ele>
<time>2026-07-16T09:03:42.000Z</time>
</trkpt>
<trkpt lat="57.153091" lon="9.363876">
<ele>17.656962</ele>
<time>2026-07-16T09:03:43.000Z</time>
</trkpt>
<trkpt lat="57.153122" lon="9.363888">
<ele>17.660381</ele>
<time>2026-07-16T09:03:44.000Z</time>
</trkpt>
<trkpt lat="57.153149" lon="9.363897">
<ele>17.663342</ele>
<time>2026-07-16T09:03:45.000Z</time>
</trkpt>
<trkpt lat="57.153172" lon="9.363908">
<ele>17.665907</ele>
<time>2026-07-16T09:03:46.000Z</time>
</trkpt>
<trkpt lat="57.153191" lon="9.363915">
<ele>17.667999</ele>
<time>2026-07-16T09:03:47.000Z</time>
</trkpt>
<trkpt lat="57.153168" lon="9.363911">
<ele>17.670492</ele>
<time>2026-07-16T09:04:07.000Z</time>
</trkpt>
<trkpt lat="57.153149" lon="9.363908">
<ele>17.672551</ele>
<time>2026-07-16T09:04:08.000Z</time>
</trkpt>
<trkpt lat="57.153126" lon="9.363899">
<ele>17.675089</ele>
<time>2026-07-16T09:04:09.000Z</time>
</trkpt>
<trkpt lat="57.153095" lon="9.363890">
<ele>17.678476</ele>
<time>2026-07-16T09:04:10.000Z</time>
</trkpt>
<trkpt lat="57.153069" lon="9.363877">
<ele>17.681384</ele>
<time>2026-07-16T09:04:11.000Z</time>
</trkpt>
<trkpt lat="57.153034" lon="9.363866">
<ele>17.685217</ele>
<time>2026-07-16T09:04:12.000Z</time>
</trkpt>
<trkpt lat="57.153000" lon="9.363853">
<ele>17.688965</ele>
<time>2026-07-16T09:04:13.000Z</time>
</trkpt>
<trkpt lat="57.152966" lon="9.363840">
<ele>17.692713</ele>
<time>2026-07-16T09:04:14.000Z</time>
</trkpt>
<trkpt lat="57.152931" lon="9.363825">
<ele>17.696592</ele>
<time>2026-07-16T09:04:15.000Z</time>
</trkpt>
<trkpt lat="57.152889" lon="9.363807">
<ele>17.701246</ele>
<time>2026-07-16T09:04:16.000Z</time>
</trkpt>
<trkpt lat="57.152847" lon="9.363789">
<ele>17.701934</ele>
<time>2026-07-16T09:04:17.000Z</time>
</trkpt>
<trkpt lat="57.152809" lon="9.363772">
<ele>17.702302</ele>
<time>2026-07-16T09:04:18.000Z</time>
</trkpt>
<trkpt lat="57.152760" lon="9.363758">
<ele>17.702768</ele>
<time>2026-07-16T09:04:19.000Z</time>
</trkpt>
<trkpt lat="57.152714" lon="9.363744">
<ele>17.703207</ele>
<time>2026-07-16T09:04:20.000Z</time>
</trkpt>
<trkpt lat="57.152672" lon="9.363727">
<ele>17.703611</ele>
<time>2026-07-16T09:04:21.000Z</time>
</trkpt>
<trkpt lat="57.152622" lon="9.363709">
<ele>17.704091</ele>
<time>2026-07-16T09:04:22.000Z</time>
</trkpt>
<trkpt lat="57.152576" lon="9.363692">
<ele>17.704532</ele>
<time>2026-07-16T09:04:23.000Z</time>
</trkpt>
<trkpt lat="57.152534" lon="9.363678">
<ele>17.704934</ele>
<time>2026-07-16T09:04:24.000Z</time>
</trkpt>
<trkpt lat="57.152489" lon="9.363665">
<ele>17.705362</ele>
<time>2026-07-16T09:04:25.000Z</time>
</trkpt>
<trkpt lat="57.152443" lon="9.363658">
<ele>17.705797</ele>
<time>2026-07-16T09:04:26.000Z</time>
</trkpt>
<trkpt lat="57.152397" lon="9.363655">
<ele>17.706230</ele>
<time>2026-07-16T09:04:27.000Z</time>
</trkpt>
<trkpt lat="57.152351" lon="9.363652">
<ele>17.706663</ele>
<time>2026-07-16T09:04:28.000Z</time>
</trkpt>
<trkpt lat="57.152306" lon="9.363641">
<ele>17.707090</ele>
<time>2026-07-16T09:04:29.000Z</time>
</trkpt>
<trkpt lat="57.152256" lon="9.363621">
<ele>17.707572</ele>
<time>2026-07-16T09:04:30.000Z</time>
</trkpt>
<trkpt lat="57.152210" lon="9.363594">
<ele>17.708026</ele>
<time>2026-07-16T09:04:31.000Z</time>
</trkpt>
<trkpt lat="57.152172" lon="9.363565">
<ele>17.708413</ele>
<time>2026-07-16T09:04:32.000Z</time>
</trkpt>
<trkpt lat="57.152130" lon="9.363536">
<ele>17.708835</ele>
<time>2026-07-16T09:04:33.000Z</time>
</trkpt>
<trkpt lat="57.152092" lon="9.363506">
<ele>17.709224</ele>
<time>2026-07-16T09:04:34.000Z</time>
</trkpt>
<trkpt lat="57.152058" lon="9.363482">
<ele>17.709566</ele>
<time>2026-07-16T09:04:35.000Z</time>
</trkpt>
<trkpt lat="57.152020" lon="9.363455">
<ele>17.709950</ele>
<time>2026-07-16T09:04:36.000Z</time>
</trkpt>
<trkpt lat="57.151985" lon="9.363435">
<ele>17.710294</ele>
<time>2026-07-16T09:04:37.000Z</time>
</trkpt>
<trkpt lat="57.151951" lon="9.363418">
<ele>17.710626</ele>
<time>2026-07-16T09:04:38.000Z</time>
</trkpt>
<trkpt lat="57.151917" lon="9.363403">
<ele>17.710955</ele>
<time>2026-07-16T09:04:39.000Z</time>
</trkpt>
<trkpt lat="57.151886" lon="9.363383">
<ele>17.711264</ele>
<time>2026-07-16T09:04:40.000Z</time>
</trkpt>
<trkpt lat="57.151859" lon="9.363366">
<ele>17.711532</ele>
<time>2026-07-16T09:04:41.000Z</time>
</trkpt>
<trkpt lat="57.151836" lon="9.363349">
<ele>17.711765</ele>
<time>2026-07-16T09:04:42.000Z</time>
</trkpt>
<trkpt lat="57.151817" lon="9.363336">
<ele>17.711956</ele>
<time>2026-07-16T09:04:43.000Z</time>
</trkpt>
<trkpt lat="57.151859" lon="9.363370">
<ele>17.712388</ele>
<time>2026-07-16T09:05:24.000Z</time>
</trkpt>
<trkpt lat="57.151890" lon="9.363389">
<ele>17.712695</ele>
<time>2026-07-16T09:05:25.000Z</time>
</trkpt>
<trkpt lat="57.151920" lon="9.363406">
<ele>17.712991</ele>
<time>2026-07-16T09:05:26.000Z</time>
</trkpt>
<trkpt lat="57.151955" lon="9.363423">
<ele>17.713331</ele>
<time>2026-07-16T09:05:27.000Z</time>
</trkpt>
<trkpt lat="57.151981" lon="9.363441">
<ele>17.713592</ele>
<time>2026-07-16T09:05:28.000Z</time>
</trkpt>
<trkpt lat="57.152020" lon="9.363465">
<ele>17.713979</ele>
<time>2026-07-16T09:05:29.000Z</time>
</trkpt>
<trkpt lat="57.152058" lon="9.363490">
<ele>17.714359</ele>
<time>2026-07-16T09:05:30.000Z</time>
</trkpt>
<trkpt lat="57.152092" lon="9.363517">
<ele>17.714707</ele>
<time>2026-07-16T09:05:31.000Z</time>
</trkpt>
<trkpt lat="57.152134" lon="9.363545">
<ele>17.715128</ele>
<time>2026-07-16T09:05:32.000Z</time>
</trkpt>
<trkpt lat="57.152172" lon="9.363567">
<ele>17.715502</ele>
<time>2026-07-16T09:05:33.000Z</time>
</trkpt>
<trkpt lat="57.152210" lon="9.363585">
<ele>17.715871</ele>
<time>2026-07-16T09:05:34.000Z</time>
</trkpt>
<trkpt lat="57.152252" lon="9.363603">
<ele>17.716277</ele>
<time>2026-07-16T09:05:35.000Z</time>
</trkpt>
<trkpt lat="57.152290" lon="9.363619">
<ele>17.716644</ele>
<time>2026-07-16T09:05:36.000Z</time>
</trkpt>
<trkpt lat="57.152336" lon="9.363629">
<ele>17.717080</ele>
<time>2026-07-16T09:05:37.000Z</time>
</trkpt>
<trkpt lat="57.152382" lon="9.363634">
<ele>17.717513</ele>
<time>2026-07-16T09:05:38.000Z</time>
</trkpt>
<trkpt lat="57.152428" lon="9.363639">
<ele>17.717947</ele>
<time>2026-07-16T09:05:39.000Z</time>
</trkpt>
<trkpt lat="57.152466" lon="9.363645">
<ele>17.718306</ele>
<time>2026-07-16T09:05:40.000Z</time>
</trkpt>
<trkpt lat="57.152512" lon="9.363658">
<ele>17.691519</ele>
<time>2026-07-16T09:05:41.000Z</time>
</trkpt>
<trkpt lat="57.152557" lon="9.363675">
<ele>17.647466</ele>
<time>2026-07-16T09:05:42.000Z</time>
</trkpt>
<trkpt lat="57.152599" lon="9.363693">
<ele>17.606113</ele>
<time>2026-07-16T09:05:43.000Z</time>
</trkpt>
<trkpt lat="57.152649" lon="9.363709">
<ele>17.557445</ele>
<time>2026-07-16T09:05:44.000Z</time>
</trkpt>
<trkpt lat="57.152687" lon="9.363723">
<ele>17.520282</ele>
<time>2026-07-16T09:05:45.000Z</time>
</trkpt>
<trkpt lat="57.152729" lon="9.363736">
<ele>17.479439</ele>
<time>2026-07-16T09:05:46.000Z</time>
</trkpt>
<trkpt lat="57.152775" lon="9.363750">
<ele>17.434727</ele>
<time>2026-07-16T09:05:47.000Z</time>
</trkpt>
<trkpt lat="57.152813" lon="9.363763">
<ele>17.397662</ele>
<time>2026-07-16T09:05:48.000Z</time>
</trkpt>
<trkpt lat="57.152847" lon="9.363774">
<ele>17.364557</ele>
<time>2026-07-16T09:05:49.000Z</time>
</trkpt>
<trkpt lat="57.152893" lon="9.363786">
<ele>17.320002</ele>
<time>2026-07-16T09:05:50.000Z</time>
</trkpt>
<trkpt lat="57.152931" lon="9.363795">
<ele>17.283260</ele>
<time>2026-07-16T09:05:51.000Z</time>
</trkpt>
<trkpt lat="57.152966" lon="9.363808">
<ele>17.249019</ele>
<time>2026-07-16T09:05:52.000Z</time>
</trkpt>
<trkpt lat="57.152996" lon="9.363821">
<ele>17.219465</ele>
<time>2026-07-16T09:05:53.000Z</time>
</trkpt>
<trkpt lat="57.153030" lon="9.363836">
<ele>17.185937</ele>
<time>2026-07-16T09:05:54.000Z</time>
</trkpt>
<trkpt lat="57.153061" lon="9.363851">
<ele>17.155201</ele>
<time>2026-07-16T09:05:55.000Z</time>
</trkpt>
<trkpt lat="57.153088" lon="9.363867">
<ele>17.128002</ele>
<time>2026-07-16T09:05:56.000Z</time>
</trkpt>
<trkpt lat="57.153118" lon="9.363881">
<ele>17.098324</ele>
<time>2026-07-16T09:05:57.000Z</time>
</trkpt>
<trkpt lat="57.153145" lon="9.363888">
<ele>17.072176</ele>
<time>2026-07-16T09:05:58.000Z</time>
</trkpt>
<trkpt lat="57.153172" lon="9.363892">
<ele>17.046199</ele>
<time>2026-07-16T09:05:59.000Z</time>
</trkpt>
<trkpt lat="57.153187" lon="9.363902">
<ele>17.030902</ele>
<time>2026-07-16T09:06:00.000Z</time>
</trkpt>
<trkpt lat="57.153202" lon="9.363926">
<ele>17.011855</ele>
<time>2026-07-16T09:06:01.000Z</time>
</trkpt>
<trkpt lat="57.153172" lon="9.364050">
<ele>16.941228</ele>
<time>2026-07-16T09:06:15.000Z</time>
</trkpt>
<trkpt lat="57.153164" lon="9.364069">
<ele>16.928716</ele>
<time>2026-07-16T09:06:16.000Z</time>
</trkpt>
<trkpt lat="57.153156" lon="9.364094">
<ele>16.913618</ele>
<time>2026-07-16T09:06:17.000Z</time>
</trkpt>
<trkpt lat="57.153137" lon="9.364144">
<ele>16.881861</ele>
<time>2026-07-16T09:06:18.000Z</time>
</trkpt>
<trkpt lat="57.153130" lon="9.364189">
<ele>16.857510</ele>
<time>2026-07-16T09:06:19.000Z</time>
</trkpt>
<trkpt lat="57.153126" lon="9.364243">
<ele>16.829160</ele>
<time>2026-07-16T09:06:20.000Z</time>
</trkpt>
<trkpt lat="57.153126" lon="9.364296">
<ele>16.801591</ele>
<time>2026-07-16T09:06:21.000Z</time>
</trkpt>
<trkpt lat="57.153122" lon="9.364350">
<ele>16.773241</ele>
<time>2026-07-16T09:06:22.000Z</time>
</trkpt>
<trkpt lat="57.153118" lon="9.364411">
<ele>16.741280</ele>
<time>2026-07-16T09:06:23.000Z</time>
</trkpt>
<trkpt lat="57.153118" lon="9.364470">
<ele>16.710590</ele>
<time>2026-07-16T09:06:24.000Z</time>
</trkpt>
<trkpt lat="57.153118" lon="9.364529">
<ele>16.679899</ele>
<time>2026-07-16T09:06:25.000Z</time>
</trkpt>
<trkpt lat="57.153118" lon="9.364582">
<ele>16.652330</ele>
<time>2026-07-16T09:06:26.000Z</time>
</trkpt>
<trkpt lat="57.153126" lon="9.364636">
<ele>16.623212</ele>
<time>2026-07-16T09:06:27.000Z</time>
</trkpt>
<trkpt lat="57.153137" lon="9.364692">
<ele>16.592231</ele>
<time>2026-07-16T09:06:28.000Z</time>
</trkpt>
<trkpt lat="57.153152" lon="9.364742">
<ele>16.562510</ele>
<time>2026-07-16T09:06:29.000Z</time>
</trkpt>
<trkpt lat="57.153172" lon="9.364788">
<ele>16.531843</ele>
<time>2026-07-16T09:06:30.000Z</time>
</trkpt>
<trkpt lat="57.153198" lon="9.364832">
<ele>16.497997</ele>
<time>2026-07-16T09:06:31.000Z</time>
</trkpt>
<trkpt lat="57.153229" lon="9.364867">
<ele>16.463135</ele>
<time>2026-07-16T09:06:32.000Z</time>
</trkpt>
<trkpt lat="57.153259" lon="9.364903">
<ele>16.428807</ele>
<time>2026-07-16T09:06:33.000Z</time>
</trkpt>
<trkpt lat="57.153286" lon="9.364944">
<ele>16.395262</ele>
<time>2026-07-16T09:06:34.000Z</time>
</trkpt>
<trkpt lat="57.153309" lon="9.364986">
<ele>16.364216</ele>
<time>2026-07-16T09:06:35.000Z</time>
</trkpt>
<trkpt lat="57.153328" lon="9.365035">
<ele>16.332884</ele>
<time>2026-07-16T09:06:36.000Z</time>
</trkpt>
<trkpt lat="57.153347" lon="9.365091">
<ele>16.298525</ele>
<time>2026-07-16T09:06:37.000Z</time>
</trkpt>
<trkpt lat="57.153358" lon="9.365154">
<ele>16.264099</ele>
<time>2026-07-16T09:06:38.000Z</time>
</trkpt>
<trkpt lat="57.153366" lon="9.365224">
<ele>16.226887</ele>
<time>2026-07-16T09:06:39.000Z</time>
</trkpt>
<trkpt lat="57.153370" lon="9.365293">
<ele>16.190791</ele>
<time>2026-07-16T09:06:40.000Z</time>
</trkpt>
<trkpt lat="57.153378" lon="9.365369">
<ele>16.150521</ele>
<time>2026-07-16T09:06:41.000Z</time>
</trkpt>
<trkpt lat="57.153378" lon="9.365447">
<ele>16.109948</ele>
<time>2026-07-16T09:06:42.000Z</time>
</trkpt>
<trkpt lat="57.153378" lon="9.365523">
<ele>16.070415</ele>
<time>2026-07-16T09:06:43.000Z</time>
</trkpt>
<trkpt lat="57.153381" lon="9.365607">
<ele>16.026627</ele>
<time>2026-07-16T09:06:44.000Z</time>
</trkpt>
<trkpt lat="57.153389" lon="9.365688">
<ele>15.991002</ele>
<time>2026-07-16T09:06:45.000Z</time>
</trkpt>
<trkpt lat="57.153400" lon="9.365778">
<ele>15.978510</ele>
<time>2026-07-16T09:06:46.000Z</time>
</trkpt>
<trkpt lat="57.153412" lon="9.365861">
<ele>15.966879</ele>
<time>2026-07-16T09:06:47.000Z</time>
</trkpt>
<trkpt lat="57.153431" lon="9.365942">
<ele>15.954929</ele>
<time>2026-07-16T09:06:48.000Z</time>
</trkpt>
<trkpt lat="57.153450" lon="9.366022">
<ele>15.943103</ele>
<time>2026-07-16T09:06:49.000Z</time>
</trkpt>
<trkpt lat="57.153461" lon="9.366101">
<ele>15.932059</ele>
<time>2026-07-16T09:06:50.000Z</time>
</trkpt>
<trkpt lat="57.153481" lon="9.366183">
<ele>15.919884</ele>
<time>2026-07-16T09:06:51.000Z</time>
</trkpt>
<trkpt lat="57.153496" lon="9.366263">
<ele>15.908422</ele>
<time>2026-07-16T09:06:52.000Z</time>
</trkpt>
<trkpt lat="57.153515" lon="9.366342">
<ele>15.896721</ele>
<time>2026-07-16T09:06:53.000Z</time>
</trkpt>
<trkpt lat="57.153534" lon="9.366421">
<ele>15.885019</ele>
<time>2026-07-16T09:06:54.000Z</time>
</trkpt>
<trkpt lat="57.153553" lon="9.366500">
<ele>15.873317</ele>
<time>2026-07-16T09:06:55.000Z</time>
</trkpt>
<trkpt lat="57.153568" lon="9.366575">
<ele>15.862493</ele>
<time>2026-07-16T09:06:56.000Z</time>
</trkpt>
<trkpt lat="57.153591" lon="9.366654">
<ele>15.850352</ele>
<time>2026-07-16T09:06:57.000Z</time>
</trkpt>
<trkpt lat="57.153610" lon="9.366734">
<ele>15.838526</ele>
<time>2026-07-16T09:06:58.000Z</time>
</trkpt>
<trkpt lat="57.153625" lon="9.366814">
<ele>15.827065</ele>
<time>2026-07-16T09:06:59.000Z</time>
</trkpt>
<trkpt lat="57.153645" lon="9.366894">
<ele>15.815137</ele>
<time>2026-07-16T09:07:00.000Z</time>
</trkpt>
<trkpt lat="57.153664" lon="9.366974">
<ele>15.803311</ele>
<time>2026-07-16T09:07:01.000Z</time>
</trkpt>
<trkpt lat="57.153683" lon="9.367054">
<ele>15.791485</ele>
<time>2026-07-16T09:07:02.000Z</time>
</trkpt>
<trkpt lat="57.153702" lon="9.367134">
<ele>15.779660</ele>
<time>2026-07-16T09:07:03.000Z</time>
</trkpt>
<trkpt lat="57.153721" lon="9.367217">
<ele>15.767461</ele>
<time>2026-07-16T09:07:04.000Z</time>
</trkpt>
<trkpt lat="57.153736" lon="9.367301">
<ele>15.755486</ele>
<time>2026-07-16T09:07:05.000Z</time>
</trkpt>
<trkpt lat="57.153755" lon="9.367386">
<ele>15.743037</ele>
<time>2026-07-16T09:07:06.000Z</time>
</trkpt>
<trkpt lat="57.153767" lon="9.367470">
<ele>15.731275</ele>
<time>2026-07-16T09:07:07.000Z</time>
</trkpt>
<trkpt lat="57.153770" lon="9.367557">
<ele>15.719471</ele>
<time>2026-07-16T09:07:08.000Z</time>
</trkpt>
<trkpt lat="57.153774" lon="9.367644">
<ele>15.707648</ele>
<time>2026-07-16T09:07:09.000Z</time>
</trkpt>
<trkpt lat="57.153778" lon="9.367728">
<ele>15.696230</ele>
<time>2026-07-16T09:07:10.000Z</time>
</trkpt>
<trkpt lat="57.153782" lon="9.367804">
<ele>15.685891</ele>
<time>2026-07-16T09:07:11.000Z</time>
</trkpt>
<trkpt lat="57.153786" lon="9.367890">
<ele>15.674203</ele>
<time>2026-07-16T09:07:12.000Z</time>
</trkpt>
<trkpt lat="57.153793" lon="9.367975">
<ele>15.662561</ele>
<time>2026-07-16T09:07:13.000Z</time>
</trkpt>
<trkpt lat="57.153805" lon="9.368055">
<ele>15.651322</ele>
<time>2026-07-16T09:07:14.000Z</time>
</trkpt>
<trkpt lat="57.153820" lon="9.368134">
<ele>15.639988</ele>
<time>2026-07-16T09:07:15.000Z</time>
</trkpt>
<trkpt lat="57.153839" lon="9.368205">
<ele>15.629268</ele>
<time>2026-07-16T09:07:16.000Z</time>
</trkpt>
<trkpt lat="57.153854" lon="9.368289">
<ele>15.617293</ele>
<time>2026-07-16T09:07:17.000Z</time>
</trkpt>
<trkpt lat="57.153873" lon="9.368377">
<ele>15.604468</ele>
<time>2026-07-16T09:07:18.000Z</time>
</trkpt>
<trkpt lat="57.153885" lon="9.368463">
<ele>15.592443</ele>
<time>2026-07-16T09:07:19.000Z</time>
</trkpt>
<trkpt lat="57.153896" lon="9.368547">
<ele>15.580742</ele>
<time>2026-07-16T09:07:20.000Z</time>
</trkpt>
<trkpt lat="57.153912" lon="9.368632">
<ele>15.568559</ele>
<time>2026-07-16T09:07:21.000Z</time>
</trkpt>
<trkpt lat="57.153927" lon="9.368717">
<ele>15.556456</ele>
<time>2026-07-16T09:07:22.000Z</time>
</trkpt>
<trkpt lat="57.153942" lon="9.368796">
<ele>15.545122</ele>
<time>2026-07-16T09:07:23.000Z</time>
</trkpt>
<trkpt lat="57.153961" lon="9.368872">
<ele>15.553556</ele>
<time>2026-07-16T09:07:24.000Z</time>
</trkpt>
<trkpt lat="57.153980" lon="9.368948">
<ele>15.563135</ele>
<time>2026-07-16T09:07:25.000Z</time>
</trkpt>
<trkpt lat="57.153996" lon="9.369024">
<ele>15.572467</ele>
<time>2026-07-16T09:07:26.000Z</time>
</trkpt>
<trkpt lat="57.154018" lon="9.369099">
<ele>15.582227</ele>
<time>2026-07-16T09:07:27.000Z</time>
</trkpt>
<trkpt lat="57.154037" lon="9.369173">
<ele>15.591598</ele>
<time>2026-07-16T09:07:28.000Z</time>
</trkpt>
<trkpt lat="57.154064" lon="9.369239">
<ele>15.601061</ele>
<time>2026-07-16T09:07:29.000Z</time>
</trkpt>
<trkpt lat="57.154091" lon="9.369305">
<ele>15.610523</ele>
<time>2026-07-16T09:07:30.000Z</time>
</trkpt>
<trkpt lat="57.154125" lon="9.369362">
<ele>15.620222</ele>
<time>2026-07-16T09:07:31.000Z</time>
</trkpt>
<trkpt lat="57.154156" lon="9.369418">
<ele>15.629381</ele>
<time>2026-07-16T09:07:32.000Z</time>
</trkpt>
<trkpt lat="57.154190" lon="9.369471">
<ele>15.638777</ele>
<time>2026-07-16T09:07:33.000Z</time>
</trkpt>
<trkpt lat="57.154224" lon="9.369517">
<ele>15.647677</ele>
<time>2026-07-16T09:07:34.000Z</time>
</trkpt>
<trkpt lat="57.154266" lon="9.369555">
<ele>15.657550</ele>
<time>2026-07-16T09:07:35.000Z</time>
</trkpt>
<trkpt lat="57.154305" lon="9.369592">
<ele>15.666807</ele>
<time>2026-07-16T09:07:36.000Z</time>
</trkpt>
<trkpt lat="57.154343" lon="9.369632">
<ele>15.676041</ele>
<time>2026-07-16T09:07:37.000Z</time>
</trkpt>
<trkpt lat="57.154381" lon="9.369674">
<ele>15.685391</ele>
<time>2026-07-16T09:07:38.000Z</time>
</trkpt>
<trkpt lat="57.154423" lon="9.369717">
<ele>15.695530</ele>
<time>2026-07-16T09:07:39.000Z</time>
</trkpt>
<trkpt lat="57.154461" lon="9.369758">
<ele>15.704822</ele>
<time>2026-07-16T09:07:40.000Z</time>
</trkpt>
<trkpt lat="57.154495" lon="9.369811">
<ele>15.714218</ele>
<time>2026-07-16T09:07:41.000Z</time>
</trkpt>
<trkpt lat="57.154533" lon="9.369873">
<ele>15.724926</ele>
<time>2026-07-16T09:07:42.000Z</time>
</trkpt>
<trkpt lat="57.154560" lon="9.369944">
<ele>15.734852</ele>
<time>2026-07-16T09:07:43.000Z</time>
</trkpt>
<trkpt lat="57.154583" lon="9.370023">
<ele>15.745115</ele>
<time>2026-07-16T09:07:44.000Z</time>
</trkpt>
<trkpt lat="57.154598" lon="9.370100">
<ele>15.754480</ele>
<time>2026-07-16T09:07:45.000Z</time>
</trkpt>
<trkpt lat="57.154602" lon="9.370189">
<ele>15.764702</ele>
<time>2026-07-16T09:07:46.000Z</time>
</trkpt>
<trkpt lat="57.154606" lon="9.370274">
<ele>15.774468</ele>
<time>2026-07-16T09:07:47.000Z</time>
</trkpt>
<trkpt lat="57.154602" lon="9.370357">
<ele>15.784005</ele>
<time>2026-07-16T09:07:48.000Z</time>
</trkpt>
<trkpt lat="57.154598" lon="9.370437">
<ele>15.793201</ele>
<time>2026-07-16T09:07:49.000Z</time>
</trkpt>
<trkpt lat="57.154598" lon="9.370512">
<ele>15.801786</ele>
<time>2026-07-16T09:07:50.000Z</time>
</trkpt>
<trkpt lat="57.154598" lon="9.370593">
<ele>15.811058</ele>
<time>2026-07-16T09:07:51.000Z</time>
</trkpt>
<trkpt lat="57.154598" lon="9.370669">
<ele>15.819757</ele>
<time>2026-07-16T09:07:52.000Z</time>
</trkpt>
<trkpt lat="57.154598" lon="9.370747">
<ele>15.828685</ele>
<time>2026-07-16T09:07:53.000Z</time>
</trkpt>
<trkpt lat="57.154591" lon="9.370825">
<ele>15.837734</ele>
<time>2026-07-16T09:07:54.000Z</time>
</trkpt>
<trkpt lat="57.154587" lon="9.370907">
<ele>15.847158</ele>
<time>2026-07-16T09:07:55.000Z</time>
</trkpt>
<trkpt lat="57.154579" lon="9.370983">
<ele>15.856020</ele>
<time>2026-07-16T09:07:56.000Z</time>
</trkpt>
<trkpt lat="57.154568" lon="9.371059">
<ele>15.865023</ele>
<time>2026-07-16T09:07:57.000Z</time>
</trkpt>
<trkpt lat="57.154552" lon="9.371133">
<ele>15.874142</ele>
<time>2026-07-16T09:07:58.000Z</time>
</trkpt>
<trkpt lat="57.154537" lon="9.371204">
<ele>15.882863</ele>
<time>2026-07-16T09:07:59.000Z</time>
</trkpt>
<trkpt lat="57.154518" lon="9.371264">
<ele>15.890816</ele>
<time>2026-07-16T09:08:00.000Z</time>
</trkpt>
<trkpt lat="57.154495" lon="9.371340">
<ele>15.900778</ele>
<time>2026-07-16T09:08:01.000Z</time>
</trkpt>
<trkpt lat="57.154472" lon="9.371405">
<ele>15.909661</ele>
<time>2026-07-16T09:08:02.000Z</time>
</trkpt>
<trkpt lat="57.154446" lon="9.371472">
<ele>15.919091</ele>
<time>2026-07-16T09:08:03.000Z</time>
</trkpt>
<trkpt lat="57.154423" lon="9.371537">
<ele>15.927492</ele>
<time>2026-07-16T09:08:04.000Z</time>
</trkpt>
<trkpt lat="57.154404" lon="9.371610">
<ele>15.935610</ele>
<time>2026-07-16T09:08:05.000Z</time>
</trkpt>
<trkpt lat="57.154381" lon="9.371683">
<ele>15.944075</ele>
<time>2026-07-16T09:08:06.000Z</time>
</trkpt>
<trkpt lat="57.154362" lon="9.371760">
<ele>15.952556</ele>
<time>2026-07-16T09:08:07.000Z</time>
</trkpt>
<trkpt lat="57.154343" lon="9.371841">
<ele>15.961405</ele>
<time>2026-07-16T09:08:08.000Z</time>
</trkpt>
<trkpt lat="57.154324" lon="9.371923">
<ele>15.970345</ele>
<time>2026-07-16T09:08:09.000Z</time>
</trkpt>
<trkpt lat="57.154308" lon="9.372005">
<ele>15.979082</ele>
<time>2026-07-16T09:08:10.000Z</time>
</trkpt>
<trkpt lat="57.154297" lon="9.372070">
<ele>15.985909</ele>
<time>2026-07-16T09:08:11.000Z</time>
</trkpt>
<trkpt lat="57.154282" lon="9.372169">
<ele>15.996215</ele>
<time>2026-07-16T09:08:12.000Z</time>
</trkpt>
<trkpt lat="57.154270" lon="9.372258">
<ele>16.005410</ele>
<time>2026-07-16T09:08:13.000Z</time>
</trkpt>
<trkpt lat="57.154266" lon="9.372344">
<ele>16.014064</ele>
<time>2026-07-16T09:08:14.000Z</time>
</trkpt>
<trkpt lat="57.154259" lon="9.372432">
<ele>16.022982</ele>
<time>2026-07-16T09:08:15.000Z</time>
</trkpt>
<trkpt lat="57.154251" lon="9.372517">
<ele>16.031632</ele>
<time>2026-07-16T09:08:16.000Z</time>
</trkpt>
<trkpt lat="57.154240" lon="9.372601">
<ele>16.040296</ele>
<time>2026-07-16T09:08:17.000Z</time>
</trkpt>
<trkpt lat="57.154232" lon="9.372687">
<ele>16.049044</ele>
<time>2026-07-16T09:08:18.000Z</time>
</trkpt>
<trkpt lat="57.154221" lon="9.372772">
<ele>16.057806</ele>
<time>2026-07-16T09:08:19.000Z</time>
</trkpt>
<trkpt lat="57.154209" lon="9.372858">
<ele>16.066709</ele>
<time>2026-07-16T09:08:20.000Z</time>
</trkpt>
<trkpt lat="57.154201" lon="9.372941">
<ele>16.075161</ele>
<time>2026-07-16T09:08:21.000Z</time>
</trkpt>
<trkpt lat="57.154194" lon="9.373027">
<ele>16.083880</ele>
<time>2026-07-16T09:08:22.000Z</time>
</trkpt>
<trkpt lat="57.154190" lon="9.373112">
<ele>16.092435</ele>
<time>2026-07-16T09:08:23.000Z</time>
</trkpt>
<trkpt lat="57.154190" lon="9.373197">
<ele>16.100957</ele>
<time>2026-07-16T09:08:24.000Z</time>
</trkpt>
<trkpt lat="57.154190" lon="9.373277">
<ele>16.108978</ele>
<time>2026-07-16T09:08:25.000Z</time>
</trkpt>
<trkpt lat="57.154198" lon="9.373358">
<ele>16.117233</ele>
<time>2026-07-16T09:08:26.000Z</time>
</trkpt>
<trkpt lat="57.154201" lon="9.373434">
<ele>16.124873</ele>
<time>2026-07-16T09:08:27.000Z</time>
</trkpt>
<trkpt lat="57.154213" lon="9.373518">
<ele>16.133582</ele>
<time>2026-07-16T09:08:28.000Z</time>
</trkpt>
<trkpt lat="57.154221" lon="9.373600">
<ele>16.141936</ele>
<time>2026-07-16T09:08:29.000Z</time>
</trkpt>
<trkpt lat="57.154228" lon="9.373681">
<ele>16.150159</ele>
<time>2026-07-16T09:08:30.000Z</time>
</trkpt>
<trkpt lat="57.154236" lon="9.373765">
<ele>16.158710</ele>
<time>2026-07-16T09:08:31.000Z</time>
</trkpt>
<trkpt lat="57.154243" lon="9.373846">
<ele>16.166934</ele>
<time>2026-07-16T09:08:32.000Z</time>
</trkpt>
<trkpt lat="57.154255" lon="9.373928">
<ele>16.175450</ele>
<time>2026-07-16T09:08:33.000Z</time>
</trkpt>
<trkpt lat="57.154263" lon="9.374007">
<ele>16.183507</ele>
<time>2026-07-16T09:08:34.000Z</time>
</trkpt>
<trkpt lat="57.154270" lon="9.374086">
<ele>16.191533</ele>
<time>2026-07-16T09:08:35.000Z</time>
</trkpt>
<trkpt lat="57.154282" lon="9.374166">
<ele>16.199855</ele>
<time>2026-07-16T09:08:36.000Z</time>
</trkpt>
<trkpt lat="57.154289" lon="9.374248">
<ele>16.208178</ele>
<time>2026-07-16T09:08:37.000Z</time>
</trkpt>
<trkpt lat="57.154297" lon="9.374330">
<ele>16.216531</ele>
<time>2026-07-16T09:08:38.000Z</time>
</trkpt>
<trkpt lat="57.154308" lon="9.374412">
<ele>16.225000</ele>
<time>2026-07-16T09:08:39.000Z</time>
</trkpt>
<trkpt lat="57.154320" lon="9.374493">
<ele>16.233419</ele>
<time>2026-07-16T09:08:40.000Z</time>
</trkpt>
<trkpt lat="57.154335" lon="9.374576">
<ele>16.242191</ele>
<time>2026-07-16T09:08:41.000Z</time>
</trkpt>
<trkpt lat="57.154346" lon="9.374657">
<ele>16.250563</ele>
<time>2026-07-16T09:08:42.000Z</time>
</trkpt>
<trkpt lat="57.154362" lon="9.374740">
<ele>16.251563</ele>
<time>2026-07-16T09:08:43.000Z</time>
</trkpt>
<trkpt lat="57.154377" lon="9.374822">
<ele>16.236103</ele>
<time>2026-07-16T09:08:44.000Z</time>
</trkpt>
<trkpt lat="57.154392" lon="9.374902">
<ele>16.220982</ele>
<time>2026-07-16T09:08:45.000Z</time>
</trkpt>
<trkpt lat="57.154411" lon="9.374980">
<ele>16.205706</ele>
<time>2026-07-16T09:08:46.000Z</time>
</trkpt>
<trkpt lat="57.154430" lon="9.375057">
<ele>16.190594</ele>
<time>2026-07-16T09:08:47.000Z</time>
</trkpt>
<trkpt lat="57.154449" lon="9.375136">
<ele>16.175156</ele>
<time>2026-07-16T09:08:48.000Z</time>
</trkpt>
<trkpt lat="57.154472" lon="9.375211">
<ele>16.159764</ele>
<time>2026-07-16T09:08:49.000Z</time>
</trkpt>
<trkpt lat="57.154491" lon="9.375288">
<ele>16.144652</ele>
<time>2026-07-16T09:08:50.000Z</time>
</trkpt>
<trkpt lat="57.154514" lon="9.375361">
<ele>16.129570</ele>
<time>2026-07-16T09:08:51.000Z</time>
</trkpt>
<trkpt lat="57.154541" lon="9.375437">
<ele>16.113340</ele>
<time>2026-07-16T09:08:52.000Z</time>
</trkpt>
<trkpt lat="57.154560" lon="9.375511">
<ele>16.098714</ele>
<time>2026-07-16T09:08:53.000Z</time>
</trkpt>
<trkpt lat="57.154583" lon="9.375589">
<ele>16.082853</ele>
<time>2026-07-16T09:08:54.000Z</time>
</trkpt>
<trkpt lat="57.154606" lon="9.375668">
<ele>16.066836</ele>
<time>2026-07-16T09:08:55.000Z</time>
</trkpt>
<trkpt lat="57.154625" lon="9.375746">
<ele>16.051560</ele>
<time>2026-07-16T09:08:56.000Z</time>
</trkpt>
<trkpt lat="57.154648" lon="9.375825">
<ele>16.035543</ele>
<time>2026-07-16T09:08:57.000Z</time>
</trkpt>
<trkpt lat="57.154667" lon="9.375905">
<ele>16.019941</ele>
<time>2026-07-16T09:08:58.000Z</time>
</trkpt>
<trkpt lat="57.154682" lon="9.375985">
<ele>16.004820</ele>
<time>2026-07-16T09:08:59.000Z</time>
</trkpt>
<trkpt lat="57.154697" lon="9.376068">
<ele>15.989191</ele>
<time>2026-07-16T09:09:00.000Z</time>
</trkpt>
<trkpt lat="57.154713" lon="9.376149">
<ele>15.973791</ele>
<time>2026-07-16T09:09:01.000Z</time>
</trkpt>
<trkpt lat="57.154724" lon="9.376230">
<ele>15.958874</ele>
<time>2026-07-16T09:09:02.000Z</time>
</trkpt>
<trkpt lat="57.154736" lon="9.376312">
<ele>15.943702</ele>
<time>2026-07-16T09:09:03.000Z</time>
</trkpt>
<trkpt lat="57.154747" lon="9.376395">
<ele>15.928438</ele>
<time>2026-07-16T09:09:04.000Z</time>
</trkpt>
<trkpt lat="57.154762" lon="9.376478">
<ele>15.912809</ele>
<time>2026-07-16T09:09:05.000Z</time>
</trkpt>
<trkpt lat="57.154777" lon="9.376563">
<ele>15.896841</ele>
<time>2026-07-16T09:09:06.000Z</time>
</trkpt>
<trkpt lat="57.154789" lon="9.376641">
<ele>15.882357</ele>
<time>2026-07-16T09:09:07.000Z</time>
</trkpt>
<trkpt lat="57.154808" lon="9.376724">
<ele>15.866263</ele>
<time>2026-07-16T09:09:08.000Z</time>
</trkpt>
<trkpt lat="57.154823" lon="9.376804">
<ele>15.851142</ele>
<time>2026-07-16T09:09:09.000Z</time>
</trkpt>
<trkpt lat="57.154835" lon="9.376883">
<ele>15.836486</ele>
<time>2026-07-16T09:09:10.000Z</time>
</trkpt>
<trkpt lat="57.154854" lon="9.376965">
<ele>15.820556</ele>
<time>2026-07-16T09:09:11.000Z</time>
</trkpt>
<trkpt lat="57.154869" lon="9.377041">
<ele>15.806108</ele>
<time>2026-07-16T09:09:12.000Z</time>
</trkpt>
<trkpt lat="57.154884" lon="9.377115">
<ele>15.791996</ele>
<time>2026-07-16T09:09:13.000Z</time>
</trkpt>
<trkpt lat="57.154900" lon="9.377184">
<ele>15.778590</ele>
<time>2026-07-16T09:09:14.000Z</time>
</trkpt>
<trkpt lat="57.154911" lon="9.377252">
<ele>15.765914</ele>
<time>2026-07-16T09:09:15.000Z</time>
</trkpt>
<trkpt lat="57.154923" lon="9.377312">
<ele>15.754489</ele>
<time>2026-07-16T09:09:16.000Z</time>
</trkpt>
<trkpt lat="57.154930" lon="9.377377">
<ele>15.742651</ele>
<time>2026-07-16T09:09:17.000Z</time>
</trkpt>
<trkpt lat="57.154942" lon="9.377440">
<ele>15.730723</ele>
<time>2026-07-16T09:09:18.000Z</time>
</trkpt>
<trkpt lat="57.154953" lon="9.377499">
<ele>15.719577</ele>
<time>2026-07-16T09:09:19.000Z</time>
</trkpt>
<trkpt lat="57.154968" lon="9.377551">
<ele>15.709056</ele>
<time>2026-07-16T09:09:20.000Z</time>
</trkpt>
<trkpt lat="57.154987" lon="9.377595">
<ele>15.699009</ele>
<time>2026-07-16T09:09:21.000Z</time>
</trkpt>
<trkpt lat="57.155014" lon="9.377634">
<ele>15.687711</ele>
<time>2026-07-16T09:09:22.000Z</time>
</trkpt>
<trkpt lat="57.155045" lon="9.377675">
<ele>15.675145</ele>
<time>2026-07-16T09:09:23.000Z</time>
</trkpt>
<trkpt lat="57.155075" lon="9.377715">
<ele>15.663519</ele>
<time>2026-07-16T09:09:24.000Z</time>
</trkpt>
<trkpt lat="57.155109" lon="9.377754">
<ele>15.656570</ele>
<time>2026-07-16T09:09:25.000Z</time>
</trkpt>
<trkpt lat="57.155136" lon="9.377784">
<ele>15.651100</ele>
<time>2026-07-16T09:09:26.000Z</time>
</trkpt>
<trkpt lat="57.155178" lon="9.377831">
<ele>15.642574</ele>
<time>2026-07-16T09:09:27.000Z</time>
</trkpt>
<trkpt lat="57.155212" lon="9.377883">
<ele>15.634908</ele>
<time>2026-07-16T09:09:28.000Z</time>
</trkpt>
<trkpt lat="57.155239" lon="9.377937">
<ele>15.627995</ele>
<time>2026-07-16T09:09:29.000Z</time>
</trkpt>
<trkpt lat="57.155254" lon="9.377988">
<ele>15.622534</ele>
<time>2026-07-16T09:09:30.000Z</time>
</trkpt>
<trkpt lat="57.155273" lon="9.378030">
<ele>15.617387</ele>
<time>2026-07-16T09:09:31.000Z</time>
</trkpt>
<trkpt lat="57.155273" lon="9.378052">
<ele>15.615316</ele>
<time>2026-07-16T09:09:43.000Z</time>
</trkpt>
<trkpt lat="57.155296" lon="9.378087">
<ele>15.610141</ele>
<time>2026-07-16T09:09:44.000Z</time>
</trkpt>
<trkpt lat="57.155315" lon="9.378130">
<ele>15.604921</ele>
<time>2026-07-16T09:09:45.000Z</time>
</trkpt>
<trkpt lat="57.155327" lon="9.378181">
<ele>15.599688</ele>
<time>2026-07-16T09:09:46.000Z</time>
</trkpt>
<trkpt lat="57.155338" lon="9.378245">
<ele>15.593369</ele>
<time>2026-07-16T09:09:47.000Z</time>
</trkpt>
<trkpt lat="57.155354" lon="9.378314">
<ele>15.586306</ele>
<time>2026-07-16T09:09:48.000Z</time>
</trkpt>
<trkpt lat="57.155373" lon="9.378383">
<ele>15.579023</ele>
<time>2026-07-16T09:09:49.000Z</time>
</trkpt>
<trkpt lat="57.155392" lon="9.378450">
<ele>15.571907</ele>
<time>2026-07-16T09:09:50.000Z</time>
</trkpt>
<trkpt lat="57.155415" lon="9.378503">
<ele>15.565518</ele>
<time>2026-07-16T09:09:51.000Z</time>
</trkpt>
<trkpt lat="57.155441" lon="9.378583">
<ele>15.556740</ele>
<time>2026-07-16T09:09:52.000Z</time>
</trkpt>
<trkpt lat="57.155464" lon="9.378646">
<ele>15.549592</ele>
<time>2026-07-16T09:09:53.000Z</time>
</trkpt>
<trkpt lat="57.155487" lon="9.378718">
<ele>15.541727</ele>
<time>2026-07-16T09:09:54.000Z</time>
</trkpt>
<trkpt lat="57.155514" lon="9.378798">
<ele>15.532859</ele>
<time>2026-07-16T09:09:55.000Z</time>
</trkpt>
<trkpt lat="57.155533" lon="9.378872">
<ele>15.525153</ele>
<time>2026-07-16T09:09:56.000Z</time>
</trkpt>
<trkpt lat="57.155556" lon="9.378945">
<ele>15.517207</ele>
<time>2026-07-16T09:09:57.000Z</time>
</trkpt>
<trkpt lat="57.155575" lon="9.379022">
<ele>15.509245</ele>
<time>2026-07-16T09:09:58.000Z</time>
</trkpt>
<trkpt lat="57.155598" lon="9.379097">
<ele>15.501136</ele>
<time>2026-07-16T09:09:59.000Z</time>
</trkpt>
<trkpt lat="57.155621" lon="9.379169">
<ele>15.493271</ele>
<time>2026-07-16T09:10:00.000Z</time>
</trkpt>
<trkpt lat="57.155640" lon="9.379244">
<ele>15.485480</ele>
<time>2026-07-16T09:10:01.000Z</time>
</trkpt>
<trkpt lat="57.155659" lon="9.379324">
<ele>15.477260</ele>
<time>2026-07-16T09:10:02.000Z</time>
</trkpt>
<trkpt lat="57.155678" lon="9.379403">
<ele>15.469126</ele>
<time>2026-07-16T09:10:03.000Z</time>
</trkpt>
<trkpt lat="57.155701" lon="9.379477">
<ele>15.461099</ele>
<time>2026-07-16T09:10:04.000Z</time>
</trkpt>
<trkpt lat="57.155720" lon="9.379551">
<ele>15.453393</ele>
<time>2026-07-16T09:10:05.000Z</time>
</trkpt>
<trkpt lat="57.155750" lon="9.379622">
<ele>15.444922</ele>
<time>2026-07-16T09:10:06.000Z</time>
</trkpt>
<trkpt lat="57.155781" lon="9.379684">
<ele>15.436985</ele>
<time>2026-07-16T09:10:07.000Z</time>
</trkpt>
<trkpt lat="57.155811" lon="9.379752">
<ele>15.428735</ele>
<time>2026-07-16T09:10:08.000Z</time>
</trkpt>
<trkpt lat="57.155842" lon="9.379811">
<ele>15.421003</ele>
<time>2026-07-16T09:10:09.000Z</time>
</trkpt>
<trkpt lat="57.155876" lon="9.379887">
<ele>15.411731</ele>
<time>2026-07-16T09:10:10.000Z</time>
</trkpt>
<trkpt lat="57.155907" lon="9.379962">
<ele>15.402855</ele>
<time>2026-07-16T09:10:11.000Z</time>
</trkpt>
<trkpt lat="57.155933" lon="9.380036">
<ele>15.394557</ele>
<time>2026-07-16T09:10:12.000Z</time>
</trkpt>
<trkpt lat="57.155964" lon="9.380112">
<ele>15.385607</ele>
<time>2026-07-16T09:10:13.000Z</time>
</trkpt>
<trkpt lat="57.155991" lon="9.380185">
<ele>15.377290</ele>
<time>2026-07-16T09:10:14.000Z</time>
</trkpt>
<trkpt lat="57.156013" lon="9.380268">
<ele>15.368595</ele>
<time>2026-07-16T09:10:15.000Z</time>
</trkpt>
<trkpt lat="57.156040" lon="9.380347">
<ele>15.359807</ele>
<time>2026-07-16T09:10:16.000Z</time>
</trkpt>
<trkpt lat="57.156063" lon="9.380428">
<ele>15.352170</ele>
<time>2026-07-16T09:10:17.000Z</time>
</trkpt>
<trkpt lat="57.156078" lon="9.380513">
<ele>15.353726</ele>
<time>2026-07-16T09:10:18.000Z</time>
</trkpt>
<trkpt lat="57.156094" lon="9.380601">
<ele>15.355341</ele>
<time>2026-07-16T09:10:19.000Z</time>
</trkpt>
<trkpt lat="57.156109" lon="9.380690">
<ele>15.356963</ele>
<time>2026-07-16T09:10:20.000Z</time>
</trkpt>
<trkpt lat="57.156117" lon="9.380778">
<ele>15.358516</ele>
<time>2026-07-16T09:10:21.000Z</time>
</trkpt>
<trkpt lat="57.156128" lon="9.380870">
<ele>15.360156</ele>
<time>2026-07-16T09:10:22.000Z</time>
</trkpt>
<trkpt lat="57.156136" lon="9.380955">
<ele>15.361657</ele>
<time>2026-07-16T09:10:23.000Z</time>
</trkpt>
<trkpt lat="57.156136" lon="9.381044">
<ele>15.363207</ele>
<time>2026-07-16T09:10:24.000Z</time>
</trkpt>
<trkpt lat="57.156139" lon="9.381133">
<ele>15.364759</ele>
<time>2026-07-16T09:10:25.000Z</time>
</trkpt>
<trkpt lat="57.156143" lon="9.381219">
<ele>15.366261</ele>
<time>2026-07-16T09:10:26.000Z</time>
</trkpt>
<trkpt lat="57.156155" lon="9.381310">
<ele>15.367891</ele>
<time>2026-07-16T09:10:27.000Z</time>
</trkpt>
<trkpt lat="57.156166" lon="9.381396">
<ele>15.369429</ele>
<time>2026-07-16T09:10:28.000Z</time>
</trkpt>
<trkpt lat="57.156181" lon="9.381483">
<ele>15.371018</ele>
<time>2026-07-16T09:10:29.000Z</time>
</trkpt>
<trkpt lat="57.156200" lon="9.381567">
<ele>15.372602</ele>
<time>2026-07-16T09:10:30.000Z</time>
</trkpt>
<trkpt lat="57.156220" lon="9.381650">
<ele>15.374183</ele>
<time>2026-07-16T09:10:31.000Z</time>
</trkpt>
<trkpt lat="57.156235" lon="9.381734">
<ele>15.375722</ele>
<time>2026-07-16T09:10:32.000Z</time>
</trkpt>
<trkpt lat="57.156254" lon="9.381824">
<ele>15.377403</ele>
<time>2026-07-16T09:10:33.000Z</time>
</trkpt>
<trkpt lat="57.156269" lon="9.381908">
<ele>15.378942</ele>
<time>2026-07-16T09:10:34.000Z</time>
</trkpt>
<trkpt lat="57.156288" lon="9.381994">
<ele>15.380558</ele>
<time>2026-07-16T09:10:35.000Z</time>
</trkpt>
<trkpt lat="57.156303" lon="9.382078">
<ele>15.382098</ele>
<time>2026-07-16T09:10:36.000Z</time>
</trkpt>
<trkpt lat="57.156322" lon="9.382165">
<ele>15.383730</ele>
<time>2026-07-16T09:10:37.000Z</time>
</trkpt>
<trkpt lat="57.156338" lon="9.382246">
<ele>15.385231</ele>
<time>2026-07-16T09:10:38.000Z</time>
</trkpt>
<trkpt lat="57.156357" lon="9.382331">
<ele>15.386831</ele>
<time>2026-07-16T09:10:39.000Z</time>
</trkpt>
<trkpt lat="57.156372" lon="9.382412">
<ele>15.388320</ele>
<time>2026-07-16T09:10:40.000Z</time>
</trkpt>
<trkpt lat="57.156391" lon="9.382500">
<ele>15.389969</ele>
<time>2026-07-16T09:10:41.000Z</time>
</trkpt>
<trkpt lat="57.156406" lon="9.382586">
<ele>15.391541</ele>
<time>2026-07-16T09:10:42.000Z</time>
</trkpt>
<trkpt lat="57.156425" lon="9.382668">
<ele>15.393093</ele>
<time>2026-07-16T09:10:43.000Z</time>
</trkpt>
<trkpt lat="57.156441" lon="9.382749">
<ele>15.394594</ele>
<time>2026-07-16T09:10:44.000Z</time>
</trkpt>
<trkpt lat="57.156456" lon="9.382809">
<ele>15.395744</ele>
<time>2026-07-16T09:10:45.000Z</time>
</trkpt>
<trkpt lat="57.156479" lon="9.382904">
<ele>15.397555</ele>
<time>2026-07-16T09:10:46.000Z</time>
</trkpt>
<trkpt lat="57.156498" lon="9.382987">
<ele>15.399123</ele>
<time>2026-07-16T09:10:47.000Z</time>
</trkpt>
<trkpt lat="57.156517" lon="9.383059">
<ele>15.400516</ele>
<time>2026-07-16T09:10:48.000Z</time>
</trkpt>
<trkpt lat="57.156532" lon="9.383120">
<ele>15.401682</ele>
<time>2026-07-16T09:10:49.000Z</time>
</trkpt>
<trkpt lat="57.156544" lon="9.383178">
<ele>15.402762</ele>
<time>2026-07-16T09:10:50.000Z</time>
</trkpt>
<trkpt lat="57.156551" lon="9.383242">
<ele>15.403899</ele>
<time>2026-07-16T09:10:51.000Z</time>
</trkpt>
<trkpt lat="57.156559" lon="9.383298">
<ele>15.404907</ele>
<time>2026-07-16T09:10:52.000Z</time>
</trkpt>
<trkpt lat="57.156567" lon="9.383359">
<ele>15.405999</ele>
<time>2026-07-16T09:10:53.000Z</time>
</trkpt>
<trkpt lat="57.156574" lon="9.383420">
<ele>15.407084</ele>
<time>2026-07-16T09:10:54.000Z</time>
</trkpt>
<trkpt lat="57.156582" lon="9.383484">
<ele>15.408227</ele>
<time>2026-07-16T09:10:55.000Z</time>
</trkpt>
<trkpt lat="57.156593" lon="9.383550">
<ele>15.409429</ele>
<time>2026-07-16T09:10:56.000Z</time>
</trkpt>
<trkpt lat="57.156605" lon="9.383617">
<ele>15.410142</ele>
<time>2026-07-16T09:10:57.000Z</time>
</trkpt>
<trkpt lat="57.156616" lon="9.383685">
<ele>15.410683</ele>
<time>2026-07-16T09:10:58.000Z</time>
</trkpt>
<trkpt lat="57.156628" lon="9.383755">
<ele>15.411242</ele>
<time>2026-07-16T09:10:59.000Z</time>
</trkpt>
<trkpt lat="57.156639" lon="9.383824">
<ele>15.411790</ele>
<time>2026-07-16T09:11:00.000Z</time>
</trkpt>
<trkpt lat="57.156654" lon="9.383901">
<ele>15.412413</ele>
<time>2026-07-16T09:11:01.000Z</time>
</trkpt>
<trkpt lat="57.156666" lon="9.383974">
<ele>15.412994</ele>
<time>2026-07-16T09:11:02.000Z</time>
</trkpt>
<trkpt lat="57.156677" lon="9.384055">
<ele>15.413630</ele>
<time>2026-07-16T09:11:03.000Z</time>
</trkpt>
<trkpt lat="57.156689" lon="9.384132">
<ele>15.414241</ele>
<time>2026-07-16T09:11:04.000Z</time>
</trkpt>
<trkpt lat="57.156704" lon="9.384212">
<ele>15.414885</ele>
<time>2026-07-16T09:11:05.000Z</time>
</trkpt>
<trkpt lat="57.156719" lon="9.384288">
<ele>15.415501</ele>
<time>2026-07-16T09:11:06.000Z</time>
</trkpt>
<trkpt lat="57.156735" lon="9.384370">
<ele>15.416165</ele>
<time>2026-07-16T09:11:07.000Z</time>
</trkpt>
<trkpt lat="57.156754" lon="9.384453">
<ele>15.416852</ele>
<time>2026-07-16T09:11:08.000Z</time>
</trkpt>
<trkpt lat="57.156776" lon="9.384532">
<ele>15.417528</ele>
<time>2026-07-16T09:11:09.000Z</time>
</trkpt>
<trkpt lat="57.156796" lon="9.384596">
<ele>15.418091</ele>
<time>2026-07-16T09:11:10.000Z</time>
</trkpt>
<trkpt lat="57.156818" lon="9.384689">
<ele>15.418864</ele>
<time>2026-07-16T09:11:11.000Z</time>
</trkpt>
<trkpt lat="57.156837" lon="9.384781">
<ele>15.419614</ele>
<time>2026-07-16T09:11:12.000Z</time>
</trkpt>
<trkpt lat="57.156857" lon="9.384862">
<ele>15.420292</ele>
<time>2026-07-16T09:11:13.000Z</time>
</trkpt>
<trkpt lat="57.156872" lon="9.384942">
<ele>15.420936</ele>
<time>2026-07-16T09:11:14.000Z</time>
</trkpt>
<trkpt lat="57.156887" lon="9.385025">
<ele>15.421603</ele>
<time>2026-07-16T09:11:15.000Z</time>
</trkpt>
<trkpt lat="57.156906" lon="9.385111">
<ele>15.422310</ele>
<time>2026-07-16T09:11:16.000Z</time>
</trkpt>
<trkpt lat="57.156918" lon="9.385195">
<ele>15.422972</ele>
<time>2026-07-16T09:11:17.000Z</time>
</trkpt>
<trkpt lat="57.156929" lon="9.385279">
<ele>15.423630</ele>
<time>2026-07-16T09:11:18.000Z</time>
</trkpt>
<trkpt lat="57.156944" lon="9.385360">
<ele>15.424282</ele>
<time>2026-07-16T09:11:19.000Z</time>
</trkpt>
<trkpt lat="57.156963" lon="9.385443">
<ele>15.424969</ele>
<time>2026-07-16T09:11:20.000Z</time>
</trkpt>
<trkpt lat="57.156986" lon="9.385518">
<ele>15.425625</ele>
<time>2026-07-16T09:11:21.000Z</time>
</trkpt>
<trkpt lat="57.157013" lon="9.385588">
<ele>15.426279</ele>
<time>2026-07-16T09:11:22.000Z</time>
</trkpt>
<trkpt lat="57.157043" lon="9.385654">
<ele>15.426935</ele>
<time>2026-07-16T09:11:23.000Z</time>
</trkpt>
<trkpt lat="57.157078" lon="9.385710">
<ele>15.427586</ele>
<time>2026-07-16T09:11:24.000Z</time>
</trkpt>
<trkpt lat="57.157108" lon="9.385762">
<ele>15.428165</ele>
<time>2026-07-16T09:11:25.000Z</time>
</trkpt>
<trkpt lat="57.157143" lon="9.385817">
<ele>15.428811</ele>
<time>2026-07-16T09:11:26.000Z</time>
</trkpt>
<trkpt lat="57.157169" lon="9.385865">
<ele>15.429327</ele>
<time>2026-07-16T09:11:27.000Z</time>
</trkpt>
<trkpt lat="57.157204" lon="9.385939">
<ele>15.430075</ele>
<time>2026-07-16T09:11:28.000Z</time>
</trkpt>
<trkpt lat="57.157230" lon="9.386007">
<ele>15.430709</ele>
<time>2026-07-16T09:11:29.000Z</time>
</trkpt>
<trkpt lat="57.157261" lon="9.386073">
<ele>15.431374</ele>
<time>2026-07-16T09:11:30.000Z</time>
</trkpt>
<trkpt lat="57.157288" lon="9.386127">
<ele>15.431934</ele>
<time>2026-07-16T09:11:31.000Z</time>
</trkpt>
<trkpt lat="57.157322" lon="9.386190">
<ele>15.432611</ele>
<time>2026-07-16T09:11:32.000Z</time>
</trkpt>
<trkpt lat="57.157356" lon="9.386245">
<ele>15.433246</ele>
<time>2026-07-16T09:11:33.000Z</time>
</trkpt>
<trkpt lat="57.157383" lon="9.386309">
<ele>15.433864</ele>
<time>2026-07-16T09:11:34.000Z</time>
</trkpt>
<trkpt lat="57.157406" lon="9.386365">
<ele>15.434399</ele>
<time>2026-07-16T09:11:35.000Z</time>
</trkpt>
<trkpt lat="57.157433" lon="9.386440">
<ele>15.435489</ele>
<time>2026-07-16T09:11:36.000Z</time>
</trkpt>
<trkpt lat="57.157459" lon="9.386511">
<ele>15.439472</ele>
<time>2026-07-16T09:11:37.000Z</time>
</trkpt>
<trkpt lat="57.157486" lon="9.386580">
<ele>15.443427</ele>
<time>2026-07-16T09:11:38.000Z</time>
</trkpt>
<trkpt lat="57.157513" lon="9.386648">
<ele>15.447344</ele>
<time>2026-07-16T09:11:39.000Z</time>
</trkpt>
<trkpt lat="57.157536" lon="9.386720">
<ele>15.451229</ele>
<time>2026-07-16T09:11:40.000Z</time>
</trkpt>
<trkpt lat="57.157562" lon="9.386788">
<ele>15.455096</ele>
<time>2026-07-16T09:11:41.000Z</time>
</trkpt>
<trkpt lat="57.157593" lon="9.386860">
<ele>15.459369</ele>
<time>2026-07-16T09:11:42.000Z</time>
</trkpt>
<trkpt lat="57.157619" lon="9.386932">
<ele>15.463390</ele>
<time>2026-07-16T09:11:43.000Z</time>
</trkpt>
<trkpt lat="57.157646" lon="9.387001">
<ele>15.467345</ele>
<time>2026-07-16T09:11:44.000Z</time>
</trkpt>
<trkpt lat="57.157669" lon="9.387068">
<ele>15.471031</ele>
<time>2026-07-16T09:11:45.000Z</time>
</trkpt>
<trkpt lat="57.157692" lon="9.387135">
<ele>15.474717</ele>
<time>2026-07-16T09:11:46.000Z</time>
</trkpt>
<trkpt lat="57.157711" lon="9.387198">
<ele>15.478068</ele>
<time>2026-07-16T09:11:47.000Z</time>
</trkpt>
<trkpt lat="57.157734" lon="9.387266">
<ele>15.481793</ele>
<time>2026-07-16T09:11:48.000Z</time>
</trkpt>
<trkpt lat="57.157757" lon="9.387326">
<ele>15.485208</ele>
<time>2026-07-16T09:11:49.000Z</time>
</trkpt>
<trkpt lat="57.157780" lon="9.387396">
<ele>15.489013</ele>
<time>2026-07-16T09:11:50.000Z</time>
</trkpt>
<trkpt lat="57.157799" lon="9.387462">
<ele>15.492486</ele>
<time>2026-07-16T09:11:51.000Z</time>
</trkpt>
<trkpt lat="57.157818" lon="9.387530">
<ele>15.496042</ele>
<time>2026-07-16T09:11:52.000Z</time>
</trkpt>
<trkpt lat="57.157833" lon="9.387598">
<ele>15.499454</ele>
<time>2026-07-16T09:11:53.000Z</time>
</trkpt>
<trkpt lat="57.157852" lon="9.387671">
<ele>15.503218</ele>
<time>2026-07-16T09:11:54.000Z</time>
</trkpt>
<trkpt lat="57.157871" lon="9.387739">
<ele>15.506774</ele>
<time>2026-07-16T09:11:55.000Z</time>
</trkpt>
<trkpt lat="57.157890" lon="9.387809">
<ele>15.510412</ele>
<time>2026-07-16T09:11:56.000Z</time>
</trkpt>
<trkpt lat="57.157909" lon="9.387869">
<ele>15.513642</ele>
<time>2026-07-16T09:11:57.000Z</time>
</trkpt>
<trkpt lat="57.157929" lon="9.387951">
<ele>15.517821</ele>
<time>2026-07-16T09:11:58.000Z</time>
</trkpt>
<trkpt lat="57.157948" lon="9.388020">
<ele>15.521418</ele>
<time>2026-07-16T09:11:59.000Z</time>
</trkpt>
<trkpt lat="57.157967" lon="9.388101">
<ele>15.525521</ele>
<time>2026-07-16T09:12:00.000Z</time>
</trkpt>
<trkpt lat="57.157986" lon="9.388172">
<ele>15.529201</ele>
<time>2026-07-16T09:12:01.000Z</time>
</trkpt>
<trkpt lat="57.158005" lon="9.388245">
<ele>15.532965</ele>
<time>2026-07-16T09:12:02.000Z</time>
</trkpt>
<trkpt lat="57.158028" lon="9.388321">
<ele>15.537010</ele>
<time>2026-07-16T09:12:03.000Z</time>
</trkpt>
<trkpt lat="57.158054" lon="9.388390">
<ele>15.540916</ele>
<time>2026-07-16T09:12:04.000Z</time>
</trkpt>
<trkpt lat="57.158081" lon="9.388459">
<ele>15.544871</ele>
<time>2026-07-16T09:12:05.000Z</time>
</trkpt>
<trkpt lat="57.158108" lon="9.388525">
<ele>15.548714</ele>
<time>2026-07-16T09:12:06.000Z</time>
</trkpt>
<trkpt lat="57.158134" lon="9.388591">
<ele>15.552505</ele>
<time>2026-07-16T09:12:07.000Z</time>
</trkpt>
<trkpt lat="57.158161" lon="9.388654">
<ele>15.556238</ele>
<time>2026-07-16T09:12:08.000Z</time>
</trkpt>
<trkpt lat="57.158188" lon="9.388724">
<ele>15.560231</ele>
<time>2026-07-16T09:12:09.000Z</time>
</trkpt>
<trkpt lat="57.158215" lon="9.388791">
<ele>15.564111</ele>
<time>2026-07-16T09:12:10.000Z</time>
</trkpt>
<trkpt lat="57.158237" lon="9.388865">
<ele>15.568033</ele>
<time>2026-07-16T09:12:11.000Z</time>
</trkpt>
<trkpt lat="57.158256" lon="9.388934">
<ele>15.571631</ele>
<time>2026-07-16T09:12:12.000Z</time>
</trkpt>
<trkpt lat="57.158276" lon="9.389013">
<ele>15.575683</ele>
<time>2026-07-16T09:12:13.000Z</time>
</trkpt>
<trkpt lat="57.158295" lon="9.389087">
<ele>15.579489</ele>
<time>2026-07-16T09:12:14.000Z</time>
</trkpt>
<trkpt lat="57.158318" lon="9.389161">
<ele>15.583453</ele>
<time>2026-07-16T09:12:15.000Z</time>
</trkpt>
<trkpt lat="57.158337" lon="9.389236">
<ele>15.587301</ele>
<time>2026-07-16T09:12:16.000Z</time>
</trkpt>
<trkpt lat="57.158356" lon="9.389309">
<ele>15.586090</ele>
<time>2026-07-16T09:12:17.000Z</time>
</trkpt>
<trkpt lat="57.158375" lon="9.389381">
<ele>15.580047</ele>
<time>2026-07-16T09:12:18.000Z</time>
</trkpt>
<trkpt lat="57.158398" lon="9.389453">
<ele>15.573741</ele>
<time>2026-07-16T09:12:19.000Z</time>
</trkpt>
<trkpt lat="57.158417" lon="9.389524">
<ele>15.567766</ele>
<time>2026-07-16T09:12:20.000Z</time>
</trkpt>
<trkpt lat="57.158436" lon="9.389596">
<ele>15.561723</ele>
<time>2026-07-16T09:12:21.000Z</time>
</trkpt>
<trkpt lat="57.158451" lon="9.389658">
<ele>15.556600</ele>
<time>2026-07-16T09:12:22.000Z</time>
</trkpt>
<trkpt lat="57.158470" lon="9.389741">
<ele>15.549801</ele>
<time>2026-07-16T09:12:23.000Z</time>
</trkpt>
<trkpt lat="57.158485" lon="9.389815">
<ele>15.543839</ele>
<time>2026-07-16T09:12:24.000Z</time>
</trkpt>
<trkpt lat="57.158505" lon="9.389895">
<ele>15.537191</ele>
<time>2026-07-16T09:12:25.000Z</time>
</trkpt>
<trkpt lat="57.158520" lon="9.389963">
<ele>15.531651</ele>
<time>2026-07-16T09:12:26.000Z</time>
</trkpt>
<trkpt lat="57.158535" lon="9.390041">
<ele>15.525406</ele>
<time>2026-07-16T09:12:27.000Z</time>
</trkpt>
<trkpt lat="57.158554" lon="9.390114">
<ele>15.519295</ele>
<time>2026-07-16T09:12:28.000Z</time>
</trkpt>
<trkpt lat="57.158573" lon="9.390190">
<ele>15.512979</ele>
<time>2026-07-16T09:12:29.000Z</time>
</trkpt>
<trkpt lat="57.158596" lon="9.390263">
<ele>15.506608</ele>
<time>2026-07-16T09:12:30.000Z</time>
</trkpt>
<trkpt lat="57.158619" lon="9.390333">
<ele>15.500432</ele>
<time>2026-07-16T09:12:31.000Z</time>
</trkpt>
<trkpt lat="57.158646" lon="9.390402">
<ele>15.494010</ele>
<time>2026-07-16T09:12:32.000Z</time>
</trkpt>
<trkpt lat="57.158672" lon="9.390470">
<ele>15.487732</ele>
<time>2026-07-16T09:12:33.000Z</time>
</trkpt>
<trkpt lat="57.158699" lon="9.390539">
<ele>15.481310</ele>
<time>2026-07-16T09:12:34.000Z</time>
</trkpt>
<trkpt lat="57.158726" lon="9.390607">
<ele>15.474950</ele>
<time>2026-07-16T09:12:35.000Z</time>
</trkpt>
<trkpt lat="57.158752" lon="9.390674">
<ele>15.468733</ele>
<time>2026-07-16T09:12:36.000Z</time>
</trkpt>
<trkpt lat="57.158779" lon="9.390738">
<ele>15.462614</ele>
<time>2026-07-16T09:12:37.000Z</time>
</trkpt>
<trkpt lat="57.158810" lon="9.390810">
<ele>15.455676</ele>
<time>2026-07-16T09:12:38.000Z</time>
</trkpt>
<trkpt lat="57.158836" lon="9.390877">
<ele>15.449459</ele>
<time>2026-07-16T09:12:39.000Z</time>
</trkpt>
<trkpt lat="57.158863" lon="9.390945">
<ele>15.443099</ele>
<time>2026-07-16T09:12:40.000Z</time>
</trkpt>
<trkpt lat="57.158886" lon="9.391010">
<ele>15.437242</ele>
<time>2026-07-16T09:12:41.000Z</time>
</trkpt>
<trkpt lat="57.158909" lon="9.391083">
<ele>15.430870</ele>
<time>2026-07-16T09:12:42.000Z</time>
</trkpt>
<trkpt lat="57.158924" lon="9.391153">
<ele>15.425190</ele>
<time>2026-07-16T09:12:43.000Z</time>
</trkpt>
<trkpt lat="57.158939" lon="9.391235">
<ele>15.418660</ele>
<time>2026-07-16T09:12:44.000Z</time>
</trkpt>
<trkpt lat="57.158951" lon="9.391314">
<ele>15.412468</ele>
<time>2026-07-16T09:12:45.000Z</time>
</trkpt>
<trkpt lat="57.158962" lon="9.391397">
<ele>15.406021</ele>
<time>2026-07-16T09:12:46.000Z</time>
</trkpt>
<trkpt lat="57.158974" lon="9.391477">
<ele>15.399757</ele>
<time>2026-07-16T09:12:47.000Z</time>
</trkpt>
<trkpt lat="57.158974" lon="9.391561">
<ele>15.393418</ele>
<time>2026-07-16T09:12:48.000Z</time>
</trkpt>
<trkpt lat="57.158974" lon="9.391642">
<ele>15.387305</ele>
<time>2026-07-16T09:12:49.000Z</time>
</trkpt>
<trkpt lat="57.158966" lon="9.391724">
<ele>15.381017</ele>
<time>2026-07-16T09:12:50.000Z</time>
</trkpt>
<trkpt lat="57.158962" lon="9.391799">
<ele>15.375330</ele>
<time>2026-07-16T09:12:51.000Z</time>
</trkpt>
<trkpt lat="57.158962" lon="9.391880">
<ele>15.369217</ele>
<time>2026-07-16T09:12:52.000Z</time>
</trkpt>
<trkpt lat="57.158966" lon="9.391949">
<ele>15.363981</ele>
<time>2026-07-16T09:12:53.000Z</time>
</trkpt>
<trkpt lat="57.158974" lon="9.392034">
<ele>15.357470</ele>
<time>2026-07-16T09:12:54.000Z</time>
</trkpt>
<trkpt lat="57.158985" lon="9.392117">
<ele>15.351022</ele>
<time>2026-07-16T09:12:55.000Z</time>
</trkpt>
<trkpt lat="57.159000" lon="9.392197">
<ele>15.344634</ele>
<time>2026-07-16T09:12:56.000Z</time>
</trkpt>
<trkpt lat="57.159016" lon="9.392271">
<ele>15.338964</ele>
<time>2026-07-16T09:12:57.000Z</time>
</trkpt>
<trkpt lat="57.159027" lon="9.392347">
<ele>15.340969</ele>
<time>2026-07-16T09:12:58.000Z</time>
</trkpt>
<trkpt lat="57.159039" lon="9.392418">
<ele>15.342865</ele>
<time>2026-07-16T09:12:59.000Z</time>
</trkpt>
<trkpt lat="57.159050" lon="9.392479">
<ele>15.344504</ele>
<time>2026-07-16T09:13:00.000Z</time>
</trkpt>
<trkpt lat="57.159073" lon="9.392554">
<ele>15.346700</ele>
<time>2026-07-16T09:13:01.000Z</time>
</trkpt>
<trkpt lat="57.159096" lon="9.392629">
<ele>15.348896</ele>
<time>2026-07-16T09:13:02.000Z</time>
</trkpt>
<trkpt lat="57.159123" lon="9.392689">
<ele>15.350884</ele>
<time>2026-07-16T09:13:03.000Z</time>
</trkpt>
<trkpt lat="57.159157" lon="9.392739">
<ele>15.352928</ele>
<time>2026-07-16T09:13:04.000Z</time>
</trkpt>
<trkpt lat="57.159191" lon="9.392776">
<ele>15.354784</ele>
<time>2026-07-16T09:13:05.000Z</time>
</trkpt>
<trkpt lat="57.159229" lon="9.392810">
<ele>15.356769</ele>
<time>2026-07-16T09:13:06.000Z</time>
</trkpt>
<trkpt lat="57.159267" lon="9.392839">
<ele>15.358702</ele>
<time>2026-07-16T09:13:07.000Z</time>
</trkpt>
<trkpt lat="57.159306" lon="9.392873">
<ele>15.360730</ele>
<time>2026-07-16T09:13:08.000Z</time>
</trkpt>
<trkpt lat="57.159340" lon="9.392908">
<ele>15.362560</ele>
<time>2026-07-16T09:13:09.000Z</time>
</trkpt>
<trkpt lat="57.159374" lon="9.392954">
<ele>15.364543</ele>
<time>2026-07-16T09:13:10.000Z</time>
</trkpt>
<trkpt lat="57.159405" lon="9.393004">
<ele>15.366478</ele>
<time>2026-07-16T09:13:11.000Z</time>
</trkpt>
<trkpt lat="57.159431" lon="9.393064">
<ele>15.368436</ele>
<time>2026-07-16T09:13:12.000Z</time>
</trkpt>
<trkpt lat="57.159458" lon="9.393121">
<ele>15.370365</ele>
<time>2026-07-16T09:13:13.000Z</time>
</trkpt>
<trkpt lat="57.159485" lon="9.393188">
<ele>15.372493</ele>
<time>2026-07-16T09:13:14.000Z</time>
</trkpt>
<trkpt lat="57.159508" lon="9.393249">
<ele>15.374387</ele>
<time>2026-07-16T09:13:15.000Z</time>
</trkpt>
<trkpt lat="57.159534" lon="9.393319">
<ele>15.376550</ele>
<time>2026-07-16T09:13:16.000Z</time>
</trkpt>
<trkpt lat="57.159557" lon="9.393384">
<ele>15.378528</ele>
<time>2026-07-16T09:13:17.000Z</time>
</trkpt>
<trkpt lat="57.159584" lon="9.393451">
<ele>15.380656</ele>
<time>2026-07-16T09:13:18.000Z</time>
</trkpt>
<trkpt lat="57.159607" lon="9.393506">
<ele>15.382427</ele>
<time>2026-07-16T09:13:19.000Z</time>
</trkpt>
<trkpt lat="57.159634" lon="9.393580">
<ele>15.384700</ele>
<time>2026-07-16T09:13:20.000Z</time>
</trkpt>
<trkpt lat="57.159653" lon="9.393651">
<ele>15.386718</ele>
<time>2026-07-16T09:13:21.000Z</time>
</trkpt>
<trkpt lat="57.159679" lon="9.393721">
<ele>15.388881</ele>
<time>2026-07-16T09:13:22.000Z</time>
</trkpt>
<trkpt lat="57.159706" lon="9.393785">
<ele>15.390948</ele>
<time>2026-07-16T09:13:23.000Z</time>
</trkpt>
<trkpt lat="57.159729" lon="9.393852">
<ele>15.392970</ele>
<time>2026-07-16T09:13:24.000Z</time>
</trkpt>
<trkpt lat="57.159748" lon="9.393917">
<ele>15.394852</ele>
<time>2026-07-16T09:13:25.000Z</time>
</trkpt>
<trkpt lat="57.159771" lon="9.393987">
<ele>15.396938</ele>
<time>2026-07-16T09:13:26.000Z</time>
</trkpt>
<trkpt lat="57.159794" lon="9.394054">
<ele>15.398959</ele>
<time>2026-07-16T09:13:27.000Z</time>
</trkpt>
<trkpt lat="57.159813" lon="9.394127">
<ele>15.401024</ele>
<time>2026-07-16T09:13:28.000Z</time>
</trkpt>
<trkpt lat="57.159836" lon="9.394194">
<ele>15.403045</ele>
<time>2026-07-16T09:13:29.000Z</time>
</trkpt>
<trkpt lat="57.159859" lon="9.394264">
<ele>15.405131</ele>
<time>2026-07-16T09:13:30.000Z</time>
</trkpt>
<trkpt lat="57.159882" lon="9.394331">
<ele>15.407153</ele>
<time>2026-07-16T09:13:31.000Z</time>
</trkpt>
<trkpt lat="57.159901" lon="9.394404">
<ele>15.409217</ele>
<time>2026-07-16T09:13:32.000Z</time>
</trkpt>
<trkpt lat="57.159920" lon="9.394479">
<ele>15.411327</ele>
<time>2026-07-16T09:13:33.000Z</time>
</trkpt>
<trkpt lat="57.159935" lon="9.394558">
<ele>15.413460</ele>
<time>2026-07-16T09:13:34.000Z</time>
</trkpt>
<trkpt lat="57.159946" lon="9.394631">
<ele>15.415392</ele>
<time>2026-07-16T09:13:35.000Z</time>
</trkpt>
<trkpt lat="57.159962" lon="9.394712">
<ele>15.417589</ele>
<time>2026-07-16T09:13:36.000Z</time>
</trkpt>
<trkpt lat="57.159973" lon="9.394787">
<ele>15.419570</ele>
<time>2026-07-16T09:13:37.000Z</time>
</trkpt>
<trkpt lat="57.159992" lon="9.394862">
<ele>15.421680</ele>
<time>2026-07-16T09:13:38.000Z</time>
</trkpt>
<trkpt lat="57.160011" lon="9.394933">
<ele>15.423333</ele>
<time>2026-07-16T09:13:39.000Z</time>
</trkpt>
<trkpt lat="57.160038" lon="9.395007">
<ele>15.422577</ele>
<time>2026-07-16T09:13:40.000Z</time>
</trkpt>
<trkpt lat="57.160061" lon="9.395075">
<ele>15.421898</ele>
<time>2026-07-16T09:13:41.000Z</time>
</trkpt>
<trkpt lat="57.160084" lon="9.395148">
<ele>15.421183</ele>
<time>2026-07-16T09:13:42.000Z</time>
</trkpt>
<trkpt lat="57.160107" lon="9.395223">
<ele>15.420453</ele>
<time>2026-07-16T09:13:43.000Z</time>
</trkpt>
<trkpt lat="57.160126" lon="9.395298">
<ele>15.419751</ele>
<time>2026-07-16T09:13:44.000Z</time>
</trkpt>
<trkpt lat="57.160149" lon="9.395370">
<ele>15.419043</ele>
<time>2026-07-16T09:13:45.000Z</time>
</trkpt>
<trkpt lat="57.160172" lon="9.395440">
<ele>15.418350</ele>
<time>2026-07-16T09:13:46.000Z</time>
</trkpt>
<trkpt lat="57.160194" lon="9.395513">
<ele>15.417642</ele>
<time>2026-07-16T09:13:47.000Z</time>
</trkpt>
<trkpt lat="57.160221" lon="9.395582">
<ele>15.416921</ele>
<time>2026-07-16T09:13:48.000Z</time>
</trkpt>
<trkpt lat="57.160248" lon="9.395651">
<ele>15.416201</ele>
<time>2026-07-16T09:13:49.000Z</time>
</trkpt>
<trkpt lat="57.160275" lon="9.395711">
<ele>15.415540</ele>
<time>2026-07-16T09:13:50.000Z</time>
</trkpt>
<trkpt lat="57.160301" lon="9.395780">
<ele>15.414828</ele>
<time>2026-07-16T09:13:51.000Z</time>
</trkpt>
<trkpt lat="57.160328" lon="9.395847">
<ele>15.414121</ele>
<time>2026-07-16T09:13:52.000Z</time>
</trkpt>
<trkpt lat="57.160355" lon="9.395918">
<ele>15.413386</ele>
<time>2026-07-16T09:13:53.000Z</time>
</trkpt>
<trkpt lat="57.160381" lon="9.395990">
<ele>15.412653</ele>
<time>2026-07-16T09:13:54.000Z</time>
</trkpt>
<trkpt lat="57.160404" lon="9.396065">
<ele>15.411923</ele>
<time>2026-07-16T09:13:55.000Z</time>
</trkpt>
<trkpt lat="57.160423" lon="9.396141">
<ele>15.411214</ele>
<time>2026-07-16T09:13:56.000Z</time>
</trkpt>
<trkpt lat="57.160446" lon="9.396215">
<ele>15.410492</ele>
<time>2026-07-16T09:13:57.000Z</time>
</trkpt>
<trkpt lat="57.160465" lon="9.396287">
<ele>15.409813</ele>
<time>2026-07-16T09:13:58.000Z</time>
</trkpt>
<trkpt lat="57.160484" lon="9.396361">
<ele>15.409120</ele>
<time>2026-07-16T09:13:59.000Z</time>
</trkpt>
<trkpt lat="57.160500" lon="9.396434">
<ele>15.408453</ele>
<time>2026-07-16T09:14:00.000Z</time>
</trkpt>
<trkpt lat="57.160519" lon="9.396510">
<ele>15.407744</ele>
<time>2026-07-16T09:14:01.000Z</time>
</trkpt>
<trkpt lat="57.160538" lon="9.396582">
<ele>15.407065</ele>
<time>2026-07-16T09:14:02.000Z</time>
</trkpt>
<trkpt lat="57.160561" lon="9.396655">
<ele>15.406350</ele>
<time>2026-07-16T09:14:03.000Z</time>
</trkpt>
<trkpt lat="57.160587" lon="9.396723">
<ele>15.405645</ele>
<time>2026-07-16T09:14:04.000Z</time>
</trkpt>
<trkpt lat="57.160610" lon="9.396789">
<ele>15.404980</ele>
<time>2026-07-16T09:14:05.000Z</time>
</trkpt>
<trkpt lat="57.160633" lon="9.396844">
<ele>15.404392</ele>
<time>2026-07-16T09:14:06.000Z</time>
</trkpt>
<trkpt lat="57.160664" lon="9.396909">
<ele>15.403658</ele>
<time>2026-07-16T09:14:07.000Z</time>
</trkpt>
<trkpt lat="57.160683" lon="9.396963">
<ele>15.403113</ele>
<time>2026-07-16T09:14:08.000Z</time>
</trkpt>
<trkpt lat="57.160709" lon="9.397036">
<ele>15.402373</ele>
<time>2026-07-16T09:14:09.000Z</time>
</trkpt>
<trkpt lat="57.160732" lon="9.397104">
<ele>15.401694</ele>
<time>2026-07-16T09:14:10.000Z</time>
</trkpt>
<trkpt lat="57.160751" lon="9.397175">
<ele>15.401023</ele>
<time>2026-07-16T09:14:11.000Z</time>
</trkpt>
<trkpt lat="57.160770" lon="9.397247">
<ele>15.400345</ele>
<time>2026-07-16T09:14:12.000Z</time>
</trkpt>
<trkpt lat="57.160790" lon="9.397325">
<ele>15.399614</ele>
<time>2026-07-16T09:14:13.000Z</time>
</trkpt>
<trkpt lat="57.160805" lon="9.397400">
<ele>15.398937</ele>
<time>2026-07-16T09:14:14.000Z</time>
</trkpt>
<trkpt lat="57.160816" lon="9.397478">
<ele>15.398254</ele>
<time>2026-07-16T09:14:15.000Z</time>
</trkpt>
<trkpt lat="57.160828" lon="9.397551">
<ele>15.397608</ele>
<time>2026-07-16T09:14:16.000Z</time>
</trkpt>
<trkpt lat="57.160839" lon="9.397626">
<ele>15.396949</ele>
<time>2026-07-16T09:14:17.000Z</time>
</trkpt>
<trkpt lat="57.160854" lon="9.397695">
<ele>15.396320</ele>
<time>2026-07-16T09:14:18.000Z</time>
</trkpt>
<trkpt lat="57.160873" lon="9.397764">
<ele>15.395664</ele>
<time>2026-07-16T09:14:19.000Z</time>
</trkpt>
<trkpt lat="57.160896" lon="9.397828">
<ele>15.394390</ele>
<time>2026-07-16T09:14:20.000Z</time>
</trkpt>
<trkpt lat="57.160915" lon="9.397896">
<ele>15.392438</ele>
<time>2026-07-16T09:14:21.000Z</time>
</trkpt>
<trkpt lat="57.160938" lon="9.397962">
<ele>15.390436</ele>
<time>2026-07-16T09:14:22.000Z</time>
</trkpt>
<trkpt lat="57.160961" lon="9.398035">
<ele>15.388281</ele>
<time>2026-07-16T09:14:23.000Z</time>
</trkpt>
<trkpt lat="57.160976" lon="9.398109">
<ele>15.386264</ele>
<time>2026-07-16T09:14:24.000Z</time>
</trkpt>
<trkpt lat="57.160992" lon="9.398180">
<ele>15.384302</ele>
<time>2026-07-16T09:14:25.000Z</time>
</trkpt>
<trkpt lat="57.161011" lon="9.398242">
<ele>15.382484</ele>
<time>2026-07-16T09:14:26.000Z</time>
</trkpt>
<trkpt lat="57.161018" lon="9.398289">
<ele>15.381240</ele>
<time>2026-07-16T09:14:27.000Z</time>
</trkpt>
<trkpt lat="57.161030" lon="9.398336">
<ele>15.379914</ele>
<time>2026-07-16T09:14:28.000Z</time>
</trkpt>
<trkpt lat="57.161037" lon="9.398375">
<ele>15.378866</ele>
<time>2026-07-16T09:14:29.000Z</time>
</trkpt>
<trkpt lat="57.161045" lon="9.398414">
<ele>15.377802</ele>
<time>2026-07-16T09:14:30.000Z</time>
</trkpt>
<trkpt lat="57.161053" lon="9.398443">
<ele>15.376971</ele>
<time>2026-07-16T09:14:31.000Z</time>
</trkpt>
<trkpt lat="57.161057" lon="9.398468">
<ele>15.376306</ele>
<time>2026-07-16T09:14:32.000Z</time>
</trkpt>
<trkpt lat="57.161072" lon="9.398497">
<ele>15.375283</ele>
<time>2026-07-16T09:14:33.000Z</time>
</trkpt>
<trkpt lat="57.161083" lon="9.398526">
<ele>15.374380</ele>
<time>2026-07-16T09:14:34.000Z</time>
</trkpt>
<trkpt lat="57.161098" lon="9.398560">
<ele>15.373261</ele>
<time>2026-07-16T09:14:35.000Z</time>
</trkpt>
<trkpt lat="57.161114" lon="9.398607">
<ele>15.371845</ele>
<time>2026-07-16T09:14:36.000Z</time>
</trkpt>
<trkpt lat="57.161133" lon="9.398652">
<ele>15.370389</ele>
<time>2026-07-16T09:14:37.000Z</time>
</trkpt>
<trkpt lat="57.161152" lon="9.398703">
<ele>15.368810</ele>
<time>2026-07-16T09:14:38.000Z</time>
</trkpt>
<trkpt lat="57.161167" lon="9.398749">
<ele>15.367440</ele>
<time>2026-07-16T09:14:39.000Z</time>
</trkpt>
<trkpt lat="57.161186" lon="9.398801">
<ele>15.365840</ele>
<time>2026-07-16T09:14:40.000Z</time>
</trkpt>
<trkpt lat="57.161205" lon="9.398854">
<ele>15.364218</ele>
<time>2026-07-16T09:14:41.000Z</time>
</trkpt>
<trkpt lat="57.161224" lon="9.398912">
<ele>15.362489</ele>
<time>2026-07-16T09:14:42.000Z</time>
</trkpt>
<trkpt lat="57.161247" lon="9.398973">
<ele>15.360592</ele>
<time>2026-07-16T09:14:43.000Z</time>
</trkpt>
<trkpt lat="57.161270" lon="9.399034">
<ele>15.358696</ele>
<time>2026-07-16T09:14:44.000Z</time>
</trkpt>
<trkpt lat="57.161293" lon="9.399093">
<ele>15.356841</ele>
<time>2026-07-16T09:14:45.000Z</time>
</trkpt>
<trkpt lat="57.161320" lon="9.399155">
<ele>15.354812</ele>
<time>2026-07-16T09:14:46.000Z</time>
</trkpt>
<trkpt lat="57.161343" lon="9.399216">
<ele>15.352916</ele>
<time>2026-07-16T09:14:47.000Z</time>
</trkpt>
<trkpt lat="57.161366" lon="9.399280">
<ele>15.350956</ele>
<time>2026-07-16T09:14:48.000Z</time>
</trkpt>
<trkpt lat="57.161392" lon="9.399337">
<ele>15.349055</ele>
<time>2026-07-16T09:14:49.000Z</time>
</trkpt>
<trkpt lat="57.161423" lon="9.399398">
<ele>15.346921</ele>
<time>2026-07-16T09:14:50.000Z</time>
</trkpt>
<trkpt lat="57.161449" lon="9.399455">
<ele>15.345020</ele>
<time>2026-07-16T09:14:51.000Z</time>
</trkpt>
<trkpt lat="57.161476" lon="9.399517">
<ele>15.342991</ele>
<time>2026-07-16T09:14:52.000Z</time>
</trkpt>
<trkpt lat="57.161503" lon="9.399574">
<ele>15.341059</ele>
<time>2026-07-16T09:14:53.000Z</time>
</trkpt>
<trkpt lat="57.161533" lon="9.399635">
<ele>15.338957</ele>
<time>2026-07-16T09:14:54.000Z</time>
</trkpt>
<trkpt lat="57.161560" lon="9.399693">
<ele>15.337006</ele>
<time>2026-07-16T09:14:55.000Z</time>
</trkpt>
<trkpt lat="57.161591" lon="9.399752">
<ele>15.334910</ele>
<time>2026-07-16T09:14:56.000Z</time>
</trkpt>
<trkpt lat="57.161617" lon="9.399811">
<ele>15.332969</ele>
<time>2026-07-16T09:14:57.000Z</time>
</trkpt>
<trkpt lat="57.161644" lon="9.399879">
<ele>15.330818</ele>
<time>2026-07-16T09:14:58.000Z</time>
</trkpt>
<trkpt lat="57.161663" lon="9.399936">
<ele>15.329111</ele>
<time>2026-07-16T09:14:59.000Z</time>
</trkpt>
<trkpt lat="57.161686" lon="9.400007">
<ele>15.327000</ele>
<time>2026-07-16T09:15:00.000Z</time>
</trkpt>
<trkpt lat="57.161705" lon="9.400091">
<ele>15.324677</ele>
<time>2026-07-16T09:15:01.000Z</time>
</trkpt>
<trkpt lat="57.161724" lon="9.400169">
<ele>15.322494</ele>
<time>2026-07-16T09:15:02.000Z</time>
</trkpt>
<trkpt lat="57.161743" lon="9.400245">
<ele>15.320358</ele>
<time>2026-07-16T09:15:03.000Z</time>
</trkpt>
<trkpt lat="57.161766" lon="9.400320">
<ele>15.318159</ele>
<time>2026-07-16T09:15:04.000Z</time>
</trkpt>
<trkpt lat="57.161785" lon="9.400394">
<ele>15.316070</ele>
<time>2026-07-16T09:15:05.000Z</time>
</trkpt>
<trkpt lat="57.161808" lon="9.400465">
<ele>15.313959</ele>
<time>2026-07-16T09:15:06.000Z</time>
</trkpt>
<trkpt lat="57.161831" lon="9.400538">
<ele>15.311804</ele>
<time>2026-07-16T09:15:07.000Z</time>
</trkpt>
<trkpt lat="57.161858" lon="9.400613">
<ele>15.312089</ele>
<time>2026-07-16T09:15:08.000Z</time>
</trkpt>
<trkpt lat="57.161880" lon="9.400684">
<ele>15.314642</ele>
<time>2026-07-16T09:15:09.000Z</time>
</trkpt>
<trkpt lat="57.161903" lon="9.400763">
<ele>15.317442</ele>
<time>2026-07-16T09:15:10.000Z</time>
</trkpt>
<trkpt lat="57.161926" lon="9.400839">
<ele>15.320159</ele>
<time>2026-07-16T09:15:11.000Z</time>
</trkpt>
<trkpt lat="57.161949" lon="9.400914">
<ele>15.322849</ele>
<time>2026-07-16T09:15:12.000Z</time>
</trkpt>
<trkpt lat="57.161972" lon="9.400990">
<ele>15.325567</ele>
<time>2026-07-16T09:15:13.000Z</time>
</trkpt>
<trkpt lat="57.161999" lon="9.401066">
<ele>15.328404</ele>
<time>2026-07-16T09:15:14.000Z</time>
</trkpt>
<trkpt lat="57.162025" lon="9.401138">
<ele>15.331105</ele>
<time>2026-07-16T09:15:15.000Z</time>
</trkpt>
<trkpt lat="57.162052" lon="9.401214">
<ele>15.333942</ele>
<time>2026-07-16T09:15:16.000Z</time>
</trkpt>
<trkpt lat="57.162075" lon="9.401288">
<ele>15.336605</ele>
<time>2026-07-16T09:15:17.000Z</time>
</trkpt>
<trkpt lat="57.162102" lon="9.401364">
<ele>15.339442</ele>
<time>2026-07-16T09:15:18.000Z</time>
</trkpt>
<trkpt lat="57.162125" lon="9.401429">
<ele>15.341865</ele>
<time>2026-07-16T09:15:19.000Z</time>
</trkpt>
<trkpt lat="57.162151" lon="9.401510">
<ele>15.344804</ele>
<time>2026-07-16T09:15:20.000Z</time>
</trkpt>
<trkpt lat="57.162178" lon="9.401587">
<ele>15.347667</ele>
<time>2026-07-16T09:15:21.000Z</time>
</trkpt>
<trkpt lat="57.162201" lon="9.401658">
<ele>15.350250</ele>
<time>2026-07-16T09:15:22.000Z</time>
</trkpt>
<trkpt lat="57.162224" lon="9.401721">
<ele>15.352621</ele>
<time>2026-07-16T09:15:23.000Z</time>
</trkpt>
<trkpt lat="57.162254" lon="9.401808">
<ele>15.355840</ele>
<time>2026-07-16T09:15:24.000Z</time>
</trkpt>
<trkpt lat="57.162281" lon="9.401886">
<ele>15.358729</ele>
<time>2026-07-16T09:15:25.000Z</time>
</trkpt>
<trkpt lat="57.162304" lon="9.401962">
<ele>15.361447</ele>
<time>2026-07-16T09:15:26.000Z</time>
</trkpt>
<trkpt lat="57.162331" lon="9.402035">
<ele>15.364206</ele>
<time>2026-07-16T09:15:27.000Z</time>
</trkpt>
<trkpt lat="57.162357" lon="9.402106">
<ele>15.366881</ele>
<time>2026-07-16T09:15:28.000Z</time>
</trkpt>
<trkpt lat="57.162380" lon="9.402184">
<ele>15.369653</ele>
<time>2026-07-16T09:15:29.000Z</time>
</trkpt>
<trkpt lat="57.162403" lon="9.402260">
<ele>15.372371</ele>
<time>2026-07-16T09:15:30.000Z</time>
</trkpt>
<trkpt lat="57.162426" lon="9.402339">
<ele>15.375170</ele>
<time>2026-07-16T09:15:31.000Z</time>
</trkpt>
<trkpt lat="57.162445" lon="9.402420">
<ele>15.377926</ele>
<time>2026-07-16T09:15:32.000Z</time>
</trkpt>
<trkpt lat="57.162464" lon="9.402500">
<ele>15.380653</ele>
<time>2026-07-16T09:15:33.000Z</time>
</trkpt>
<trkpt lat="57.162476" lon="9.402581">
<ele>15.383275</ele>
<time>2026-07-16T09:15:34.000Z</time>
</trkpt>
<trkpt lat="57.162483" lon="9.402667">
<ele>15.385990</ele>
<time>2026-07-16T09:15:35.000Z</time>
</trkpt>
<trkpt lat="57.162491" lon="9.402752">
<ele>15.388683</ele>
<time>2026-07-16T09:15:36.000Z</time>
</trkpt>
<trkpt lat="57.162495" lon="9.402839">
<ele>15.391410</ele>
<time>2026-07-16T09:15:37.000Z</time>
</trkpt>
<trkpt lat="57.162495" lon="9.402926">
<ele>15.394126</ele>
<time>2026-07-16T09:15:38.000Z</time>
</trkpt>
<trkpt lat="57.162487" lon="9.403016">
<ele>15.396974</ele>
<time>2026-07-16T09:15:39.000Z</time>
</trkpt>
<trkpt lat="57.162476" lon="9.403104">
<ele>15.399793</ele>
<time>2026-07-16T09:15:40.000Z</time>
</trkpt>
<trkpt lat="57.162460" lon="9.403187">
<ele>15.402544</ele>
<time>2026-07-16T09:15:41.000Z</time>
</trkpt>
<trkpt lat="57.162437" lon="9.403267">
<ele>15.405371</ele>
<time>2026-07-16T09:15:42.000Z</time>
</trkpt>
<trkpt lat="57.162418" lon="9.403349">
<ele>15.408155</ele>
<time>2026-07-16T09:15:43.000Z</time>
</trkpt>
<trkpt lat="57.162399" lon="9.403432">
<ele>15.410968</ele>
<time>2026-07-16T09:15:44.000Z</time>
</trkpt>
<trkpt lat="57.162384" lon="9.403516">
<ele>15.413729</ele>
<time>2026-07-16T09:15:45.000Z</time>
</trkpt>
<trkpt lat="57.162376" lon="9.403604">
<ele>15.428868</ele>
<time>2026-07-16T09:15:46.000Z</time>
</trkpt>
<trkpt lat="57.162365" lon="9.403693">
<ele>15.447146</ele>
<time>2026-07-16T09:15:47.000Z</time>
</trkpt>
<trkpt lat="57.162357" lon="9.403783">
<ele>15.465408</ele>
<time>2026-07-16T09:15:48.000Z</time>
</trkpt>
<trkpt lat="57.162346" lon="9.403871">
<ele>15.483491</ele>
<time>2026-07-16T09:15:49.000Z</time>
</trkpt>
<trkpt lat="57.162331" lon="9.403953">
<ele>15.500819</ele>
<time>2026-07-16T09:15:50.000Z</time>
</trkpt>
<trkpt lat="57.162315" lon="9.404025">
<ele>15.516400</ele>
<time>2026-07-16T09:15:51.000Z</time>
</trkpt>
<trkpt lat="57.162292" lon="9.404105">
<ele>15.534531</ele>
<time>2026-07-16T09:15:52.000Z</time>
</trkpt>
<trkpt lat="57.162273" lon="9.404174">
<ele>15.550027</ele>
<time>2026-07-16T09:15:53.000Z</time>
</trkpt>
<trkpt lat="57.162254" lon="9.404242">
<ele>15.565344</ele>
<time>2026-07-16T09:15:54.000Z</time>
</trkpt>
<trkpt lat="57.162239" lon="9.404313">
<ele>15.580602</ele>
<time>2026-07-16T09:15:55.000Z</time>
</trkpt>
<trkpt lat="57.162231" lon="9.404385">
<ele>15.595318</ele>
<time>2026-07-16T09:15:56.000Z</time>
</trkpt>
<trkpt lat="57.162231" lon="9.404468">
<ele>15.611938</ele>
<time>2026-07-16T09:15:57.000Z</time>
</trkpt>
<trkpt lat="57.162231" lon="9.404546">
<ele>15.627556</ele>
<time>2026-07-16T09:15:58.000Z</time>
</trkpt>
<trkpt lat="57.162239" lon="9.404627">
<ele>15.644042</ele>
<time>2026-07-16T09:15:59.000Z</time>
</trkpt>
<trkpt lat="57.162251" lon="9.404703">
<ele>15.659892</ele>
<time>2026-07-16T09:16:00.000Z</time>
</trkpt>
<trkpt lat="57.162270" lon="9.404777">
<ele>15.676287</ele>
<time>2026-07-16T09:16:01.000Z</time>
</trkpt>
<trkpt lat="57.162289" lon="9.404849">
<ele>15.692320</ele>
<time>2026-07-16T09:16:02.000Z</time>
</trkpt>
<trkpt lat="57.162308" lon="9.404921">
<ele>15.708354</ele>
<time>2026-07-16T09:16:03.000Z</time>
</trkpt>
<trkpt lat="57.162327" lon="9.404991">
<ele>15.724028</ele>
<time>2026-07-16T09:16:04.000Z</time>
</trkpt>
<trkpt lat="57.162346" lon="9.405067">
<ele>15.740786</ele>
<time>2026-07-16T09:16:05.000Z</time>
</trkpt>
<trkpt lat="57.162357" lon="9.405142">
<ele>15.756343</ele>
<time>2026-07-16T09:16:06.000Z</time>
</trkpt>
<trkpt lat="57.162369" lon="9.405226">
<ele>15.773737</ele>
<time>2026-07-16T09:16:07.000Z</time>
</trkpt>
<trkpt lat="57.162376" lon="9.405306">
<ele>15.789963</ele>
<time>2026-07-16T09:16:08.000Z</time>
</trkpt>
<trkpt lat="57.162384" lon="9.405391">
<ele>15.807237</ele>
<time>2026-07-16T09:16:09.000Z</time>
</trkpt>
<trkpt lat="57.162388" lon="9.405476">
<ele>15.824321</ele>
<time>2026-07-16T09:16:10.000Z</time>
</trkpt>
<trkpt lat="57.162392" lon="9.405558">
<ele>15.840807</ele>
<time>2026-07-16T09:16:11.000Z</time>
</trkpt>
<trkpt lat="57.162399" lon="9.405643">
<ele>15.858022</ele>
<time>2026-07-16T09:16:12.000Z</time>
</trkpt>
<trkpt lat="57.162403" lon="9.405729">
<ele>15.875306</ele>
<time>2026-07-16T09:16:13.000Z</time>
</trkpt>
<trkpt lat="57.162411" lon="9.405817">
<ele>15.893172</ele>
<time>2026-07-16T09:16:14.000Z</time>
</trkpt>
<trkpt lat="57.162415" lon="9.405885">
<ele>15.906868</ele>
<time>2026-07-16T09:16:15.000Z</time>
</trkpt>
<trkpt lat="57.162426" lon="9.405977">
<ele>15.925732</ele>
<time>2026-07-16T09:16:16.000Z</time>
</trkpt>
<trkpt lat="57.162437" lon="9.406069">
<ele>15.944597</ele>
<time>2026-07-16T09:16:17.000Z</time>
</trkpt>
<trkpt lat="57.162453" lon="9.406153">
<ele>15.962424</ele>
<time>2026-07-16T09:16:18.000Z</time>
</trkpt>
<trkpt lat="57.162464" lon="9.406233">
<ele>15.978950</ele>
<time>2026-07-16T09:16:19.000Z</time>
</trkpt>
<trkpt lat="57.162476" lon="9.406313">
<ele>15.995570</ele>
<time>2026-07-16T09:16:20.000Z</time>
</trkpt>
<trkpt lat="57.162487" lon="9.406388">
<ele>16.011127</ele>
<time>2026-07-16T09:16:21.000Z</time>
</trkpt>
<trkpt lat="57.162506" lon="9.406469">
<ele>16.028799</ele>
<time>2026-07-16T09:16:22.000Z</time>
</trkpt>
<trkpt lat="57.162518" lon="9.406548">
<ele>16.045226</ele>
<time>2026-07-16T09:16:23.000Z</time>
</trkpt>
<trkpt lat="57.162529" lon="9.406629">
<ele>16.061946</ele>
<time>2026-07-16T09:16:24.000Z</time>
</trkpt>
<trkpt lat="57.162544" lon="9.406713">
<ele>16.078085</ele>
<time>2026-07-16T09:16:25.000Z</time>
</trkpt>
<trkpt lat="57.162563" lon="9.406800">
<ele>16.073307</ele>
<time>2026-07-16T09:16:26.000Z</time>
</trkpt>
<trkpt lat="57.162575" lon="9.406888">
<ele>16.068685</ele>
<time>2026-07-16T09:16:27.000Z</time>
</trkpt>
<trkpt lat="57.162586" lon="9.406982">
<ele>16.063787</ele>
<time>2026-07-16T09:16:28.000Z</time>
</trkpt>
<trkpt lat="57.162594" lon="9.407075">
<ele>16.058990</ele>
<time>2026-07-16T09:16:29.000Z</time>
</trkpt>
<trkpt lat="57.162594" lon="9.407168">
<ele>16.054253</ele>
<time>2026-07-16T09:16:30.000Z</time>
</trkpt>
<trkpt lat="57.162598" lon="9.407261">
<ele>16.049501</ele>
<time>2026-07-16T09:16:31.000Z</time>
</trkpt>
<trkpt lat="57.162602" lon="9.407354">
<ele>16.044749</ele>
<time>2026-07-16T09:16:32.000Z</time>
</trkpt>
<trkpt lat="57.162613" lon="9.407444">
<ele>16.040049</ele>
<time>2026-07-16T09:16:33.000Z</time>
</trkpt>
<trkpt lat="57.162624" lon="9.407532">
<ele>16.035449</ele>
<time>2026-07-16T09:16:34.000Z</time>
</trkpt>
<trkpt lat="57.162632" lon="9.407618">
<ele>16.031005</ele>
<time>2026-07-16T09:16:35.000Z</time>
</trkpt>
<trkpt lat="57.162643" lon="9.407702">
<ele>16.026603</ele>
<time>2026-07-16T09:16:36.000Z</time>
</trkpt>
<trkpt lat="57.162655" lon="9.407782">
<ele>16.022375</ele>
<time>2026-07-16T09:16:37.000Z</time>
</trkpt>
<trkpt lat="57.162674" lon="9.407865">
<ele>16.017786</ele>
<time>2026-07-16T09:16:38.000Z</time>
</trkpt>
<trkpt lat="57.162689" lon="9.407946">
<ele>16.013426</ele>
<time>2026-07-16T09:16:39.000Z</time>
</trkpt>
<trkpt lat="57.162708" lon="9.408025">
<ele>16.009024</ele>
<time>2026-07-16T09:16:40.000Z</time>
</trkpt>
<trkpt lat="57.162727" lon="9.408097">
<ele>16.004945</ele>
<time>2026-07-16T09:16:41.000Z</time>
</trkpt>
<trkpt lat="57.162746" lon="9.408173">
<ele>16.000682</ele>
<time>2026-07-16T09:16:42.000Z</time>
</trkpt>
<trkpt lat="57.162769" lon="9.408251">
<ele>15.996159</ele>
<time>2026-07-16T09:16:43.000Z</time>
</trkpt>
<trkpt lat="57.162792" lon="9.408322">
<ele>15.991947</ele>
<time>2026-07-16T09:16:44.000Z</time>
</trkpt>
<trkpt lat="57.162819" lon="9.408396">
<ele>15.987403</ele>
<time>2026-07-16T09:16:45.000Z</time>
</trkpt>
<trkpt lat="57.162842" lon="9.408464">
<ele>15.983321</ele>
<time>2026-07-16T09:16:46.000Z</time>
</trkpt>
<trkpt lat="57.162865" lon="9.408536">
<ele>15.979065</ele>
<time>2026-07-16T09:16:47.000Z</time>
</trkpt>
<trkpt lat="57.162891" lon="9.408605">
<ele>15.974785</ele>
<time>2026-07-16T09:16:48.000Z</time>
</trkpt>
<trkpt lat="57.162918" lon="9.408674">
<ele>15.970450</ele>
<time>2026-07-16T09:16:49.000Z</time>
</trkpt>
<trkpt lat="57.162941" lon="9.408741">
<ele>15.966411</ele>
<time>2026-07-16T09:16:50.000Z</time>
</trkpt>
<trkpt lat="57.162968" lon="9.408813">
<ele>15.961952</ele>
<time>2026-07-16T09:16:51.000Z</time>
</trkpt>
<trkpt lat="57.162994" lon="9.408884">
<ele>15.957588</ele>
<time>2026-07-16T09:16:52.000Z</time>
</trkpt>
<trkpt lat="57.163021" lon="9.408954">
<ele>15.953212</ele>
<time>2026-07-16T09:16:53.000Z</time>
</trkpt>
<trkpt lat="57.163048" lon="9.409030">
<ele>15.948584</ele>
<time>2026-07-16T09:16:54.000Z</time>
</trkpt>
<trkpt lat="57.163074" lon="9.409101">
<ele>15.944220</ele>
<time>2026-07-16T09:16:55.000Z</time>
</trkpt>
<trkpt lat="57.163105" lon="9.409167">
<ele>15.939773</ele>
<time>2026-07-16T09:16:56.000Z</time>
</trkpt>
<trkpt lat="57.163132" lon="9.409232">
<ele>15.935602</ele>
<time>2026-07-16T09:16:57.000Z</time>
</trkpt>
<trkpt lat="57.163158" lon="9.409297">
<ele>15.931488</ele>
<time>2026-07-16T09:16:58.000Z</time>
</trkpt>
<trkpt lat="57.163189" lon="9.409364">
<ele>15.927001</ele>
<time>2026-07-16T09:16:59.000Z</time>
</trkpt>
<trkpt lat="57.163216" lon="9.409420">
<ele>15.923184</ele>
<time>2026-07-16T09:17:00.000Z</time>
</trkpt>
<trkpt lat="57.163246" lon="9.409496">
<ele>15.918396</ele>
<time>2026-07-16T09:17:01.000Z</time>
</trkpt>
<trkpt lat="57.163273" lon="9.409569">
<ele>15.913895</ele>
<time>2026-07-16T09:17:02.000Z</time>
</trkpt>
<trkpt lat="57.163300" lon="9.409649">
<ele>15.909428</ele>
<time>2026-07-16T09:17:03.000Z</time>
</trkpt>
<trkpt lat="57.163322" lon="9.409730">
<ele>15.909210</ele>
<time>2026-07-16T09:17:04.000Z</time>
</trkpt>
<trkpt lat="57.163353" lon="9.409806">
<ele>15.908980</ele>
<time>2026-07-16T09:17:05.000Z</time>
</trkpt>
<trkpt lat="57.163380" lon="9.409875">
<ele>15.908775</ele>
<time>2026-07-16T09:17:06.000Z</time>
</trkpt>
<trkpt lat="57.163414" lon="9.409946">
<ele>15.908547</ele>
<time>2026-07-16T09:17:07.000Z</time>
</trkpt>
<trkpt lat="57.163448" lon="9.410013">
<ele>15.908326</ele>
<time>2026-07-16T09:17:08.000Z</time>
</trkpt>
<trkpt lat="57.163483" lon="9.410076">
<ele>15.908109</ele>
<time>2026-07-16T09:17:09.000Z</time>
</trkpt>
<trkpt lat="57.163513" lon="9.410135">
<ele>15.907914</ele>
<time>2026-07-16T09:17:10.000Z</time>
</trkpt>
<trkpt lat="57.163544" lon="9.410199">
<ele>15.907707</ele>
<time>2026-07-16T09:17:11.000Z</time>
</trkpt>
<trkpt lat="57.163578" lon="9.410265">
<ele>15.907488</ele>
<time>2026-07-16T09:17:12.000Z</time>
</trkpt>
<trkpt lat="57.163609" lon="9.410327">
<ele>15.907285</ele>
<time>2026-07-16T09:17:13.000Z</time>
</trkpt>
<trkpt lat="57.163643" lon="9.410388">
<ele>15.907074</ele>
<time>2026-07-16T09:17:14.000Z</time>
</trkpt>
<trkpt lat="57.163673" lon="9.410450">
<ele>15.906874</ele>
<time>2026-07-16T09:17:15.000Z</time>
</trkpt>
<trkpt lat="57.163704" lon="9.410513">
<ele>15.906669</ele>
<time>2026-07-16T09:17:16.000Z</time>
</trkpt>
<trkpt lat="57.163734" lon="9.410574">
<ele>15.906471</ele>
<time>2026-07-16T09:17:17.000Z</time>
</trkpt>
<trkpt lat="57.163769" lon="9.410639">
<ele>15.906250</ele>
<time>2026-07-16T09:17:18.000Z</time>
</trkpt>
<trkpt lat="57.163799" lon="9.410703">
<ele>15.906046</ele>
<time>2026-07-16T09:17:19.000Z</time>
</trkpt>
<trkpt lat="57.163826" lon="9.410770">
<ele>15.905845</ele>
<time>2026-07-16T09:17:20.000Z</time>
</trkpt>
<trkpt lat="57.163853" lon="9.410839">
<ele>15.905640</ele>
<time>2026-07-16T09:17:21.000Z</time>
</trkpt>
<trkpt lat="57.163879" lon="9.410908">
<ele>15.905438</ele>
<time>2026-07-16T09:17:22.000Z</time>
</trkpt>
<trkpt lat="57.163898" lon="9.410975">
<ele>15.905256</ele>
<time>2026-07-16T09:17:23.000Z</time>
</trkpt>
<trkpt lat="57.163918" lon="9.411048">
<ele>15.905058</ele>
<time>2026-07-16T09:17:24.000Z</time>
</trkpt>
<trkpt lat="57.163933" lon="9.411129">
<ele>15.904852</ele>
<time>2026-07-16T09:17:25.000Z</time>
</trkpt>
<trkpt lat="57.163944" lon="9.411208">
<ele>15.904656</ele>
<time>2026-07-16T09:17:26.000Z</time>
</trkpt>
<trkpt lat="57.163948" lon="9.411293">
<ele>15.904450</ele>
<time>2026-07-16T09:17:27.000Z</time>
</trkpt>
<trkpt lat="57.163944" lon="9.411377">
<ele>15.904247</ele>
<time>2026-07-16T09:17:28.000Z</time>
</trkpt>
<trkpt lat="57.163937" lon="9.411464">
<ele>15.904035</ele>
<time>2026-07-16T09:17:29.000Z</time>
</trkpt>
<trkpt lat="57.163929" lon="9.411537">
<ele>15.903856</ele>
<time>2026-07-16T09:17:30.000Z</time>
</trkpt>
<trkpt lat="57.163914" lon="9.411624">
<ele>15.903636</ele>
<time>2026-07-16T09:17:31.000Z</time>
</trkpt>
<trkpt lat="57.163902" lon="9.411701">
<ele>15.903443</ele>
<time>2026-07-16T09:17:32.000Z</time>
</trkpt>
<trkpt lat="57.163895" lon="9.411761">
<ele>15.903295</ele>
<time>2026-07-16T09:17:33.000Z</time>
</trkpt>
<trkpt lat="57.163883" lon="9.411843">
<ele>15.903090</ele>
<time>2026-07-16T09:17:34.000Z</time>
</trkpt>
<trkpt lat="57.163879" lon="9.411900">
<ele>15.902952</ele>
<time>2026-07-16T09:17:35.000Z</time>
</trkpt>
<trkpt lat="57.163887" lon="9.411976">
<ele>15.902766</ele>
<time>2026-07-16T09:17:36.000Z</time>
</trkpt>
<trkpt lat="57.163902" lon="9.412029">
<ele>15.902621</ele>
<time>2026-07-16T09:17:37.000Z</time>
</trkpt>
<trkpt lat="57.163929" lon="9.412065">
<ele>15.902473</ele>
<time>2026-07-16T09:17:38.000Z</time>
</trkpt>
<trkpt lat="57.163956" lon="9.412087">
<ele>15.902342</ele>
<time>2026-07-16T09:17:39.000Z</time>
</trkpt>
<trkpt lat="57.163982" lon="9.412110">
<ele>15.902214</ele>
<time>2026-07-16T09:17:40.000Z</time>
</trkpt>
<trkpt lat="57.164001" lon="9.412130">
<ele>15.902117</ele>
<time>2026-07-16T09:17:41.000Z</time>
</trkpt>
<trkpt lat="57.164017" lon="9.412155">
<ele>15.902024</ele>
<time>2026-07-16T09:17:42.000Z</time>
</trkpt>
<trkpt lat="57.164028" lon="9.412190">
<ele>15.901926</ele>
<time>2026-07-16T09:17:43.000Z</time>
</trkpt>
<trkpt lat="57.164040" lon="9.412233">
<ele>15.901810</ele>
<time>2026-07-16T09:17:44.000Z</time>
</trkpt>
<trkpt lat="57.164051" lon="9.412286">
<ele>15.901673</ele>
<time>2026-07-16T09:17:45.000Z</time>
</trkpt>
<trkpt lat="57.164062" lon="9.412341">
<ele>15.901532</ele>
<time>2026-07-16T09:17:46.000Z</time>
</trkpt>
<trkpt lat="57.164078" lon="9.412403">
<ele>15.900306</ele>
<time>2026-07-16T09:17:47.000Z</time>
</trkpt>
<trkpt lat="57.164089" lon="9.412464">
<ele>15.898260</ele>
<time>2026-07-16T09:17:48.000Z</time>
</trkpt>
<trkpt lat="57.164104" lon="9.412526">
<ele>15.896100</ele>
<time>2026-07-16T09:17:49.000Z</time>
</trkpt>
<trkpt lat="57.164127" lon="9.412588">
<ele>15.893710</ele>
<time>2026-07-16T09:17:50.000Z</time>
</trkpt>
<trkpt lat="57.164154" lon="9.412652">
<ele>15.891131</ele>
<time>2026-07-16T09:17:51.000Z</time>
</trkpt>
<trkpt lat="57.164177" lon="9.412715">
<ele>15.888714</ele>
<time>2026-07-16T09:17:52.000Z</time>
</trkpt>
<trkpt lat="57.164204" lon="9.412775">
<ele>15.886234</ele>
<time>2026-07-16T09:17:53.000Z</time>
</trkpt>
<trkpt lat="57.164234" lon="9.412827">
<ele>15.883818</ele>
<time>2026-07-16T09:17:54.000Z</time>
</trkpt>
<trkpt lat="57.164265" lon="9.412884">
<ele>15.881250</ele>
<time>2026-07-16T09:17:55.000Z</time>
</trkpt>
<trkpt lat="57.164299" lon="9.412929">
<ele>15.878794</ele>
<time>2026-07-16T09:17:56.000Z</time>
</trkpt>
<trkpt lat="57.164330" lon="9.412971">
<ele>15.876537</ele>
<time>2026-07-16T09:17:57.000Z</time>
</trkpt>
<trkpt lat="57.164360" lon="9.413009">
<ele>15.874402</ele>
<time>2026-07-16T09:17:58.000Z</time>
</trkpt>
<trkpt lat="57.164391" lon="9.413044">
<ele>15.872269</ele>
<time>2026-07-16T09:17:59.000Z</time>
</trkpt>
<trkpt lat="57.164413" lon="9.413075">
<ele>15.870645</ele>
<time>2026-07-16T09:18:00.000Z</time>
</trkpt>
<trkpt lat="57.164452" lon="9.413119">
<ele>15.867962</ele>
<time>2026-07-16T09:18:01.000Z</time>
</trkpt>
<trkpt lat="57.164486" lon="9.413161">
<ele>15.865561</ele>
<time>2026-07-16T09:18:02.000Z</time>
</trkpt>
<trkpt lat="57.164520" lon="9.413197">
<ele>15.863261</ele>
<time>2026-07-16T09:18:03.000Z</time>
</trkpt>
<trkpt lat="57.164555" lon="9.413236">
<ele>15.860862</ele>
<time>2026-07-16T09:18:04.000Z</time>
</trkpt>
<trkpt lat="57.164589" lon="9.413276">
<ele>15.858495</ele>
<time>2026-07-16T09:18:05.000Z</time>
</trkpt>
<trkpt lat="57.164619" lon="9.413321">
<ele>15.856227</ele>
<time>2026-07-16T09:18:06.000Z</time>
</trkpt>
<trkpt lat="57.164654" lon="9.413362">
<ele>15.853794</ele>
<time>2026-07-16T09:18:07.000Z</time>
</trkpt>
<trkpt lat="57.164688" lon="9.413409">
<ele>15.851301</ele>
<time>2026-07-16T09:18:08.000Z</time>
</trkpt>
<trkpt lat="57.164722" lon="9.413450">
<ele>15.848917</ele>
<time>2026-07-16T09:18:09.000Z</time>
</trkpt>
<trkpt lat="57.164761" lon="9.413497">
<ele>15.846184</ele>
<time>2026-07-16T09:18:10.000Z</time>
</trkpt>
<trkpt lat="57.164795" lon="9.413540">
<ele>15.843765</ele>
<time>2026-07-16T09:18:11.000Z</time>
</trkpt>
<trkpt lat="57.164833" lon="9.413582">
<ele>15.841165</ele>
<time>2026-07-16T09:18:12.000Z</time>
</trkpt>
<trkpt lat="57.164864" lon="9.413622">
<ele>15.838946</ele>
<time>2026-07-16T09:18:13.000Z</time>
</trkpt>
<trkpt lat="57.164902" lon="9.413670">
<ele>15.836243</ele>
<time>2026-07-16T09:18:14.000Z</time>
</trkpt>
<trkpt lat="57.164936" lon="9.413714">
<ele>15.833806</ele>
<time>2026-07-16T09:18:15.000Z</time>
</trkpt>
<trkpt lat="57.164978" lon="9.413763">
<ele>15.830890</ele>
<time>2026-07-16T09:18:16.000Z</time>
</trkpt>
<trkpt lat="57.165009" lon="9.413806">
<ele>15.828614</ele>
<time>2026-07-16T09:18:17.000Z</time>
</trkpt>
<trkpt lat="57.165051" lon="9.413857">
<ele>15.825664</ele>
<time>2026-07-16T09:18:18.000Z</time>
</trkpt>
<trkpt lat="57.165081" lon="9.413903">
<ele>15.823375</ele>
<time>2026-07-16T09:18:19.000Z</time>
</trkpt>
<trkpt lat="57.165123" lon="9.413955">
<ele>15.820407</ele>
<time>2026-07-16T09:18:20.000Z</time>
</trkpt>
<trkpt lat="57.165157" lon="9.414010">
<ele>15.817753</ele>
<time>2026-07-16T09:18:21.000Z</time>
</trkpt>
<trkpt lat="57.165195" lon="9.414066">
<ele>15.814899</ele>
<time>2026-07-16T09:18:22.000Z</time>
</trkpt>
<trkpt lat="57.165234" lon="9.414124">
<ele>15.811960</ele>
<time>2026-07-16T09:18:23.000Z</time>
</trkpt>
<trkpt lat="57.165268" lon="9.414181">
<ele>15.809264</ele>
<time>2026-07-16T09:18:24.000Z</time>
</trkpt>
<trkpt lat="57.165306" lon="9.414239">
<ele>15.806370</ele>
<time>2026-07-16T09:18:25.000Z</time>
</trkpt>
<trkpt lat="57.165337" lon="9.414293">
<ele>15.803868</ele>
<time>2026-07-16T09:18:26.000Z</time>
</trkpt>
<trkpt lat="57.165371" lon="9.414356">
<ele>15.801040</ele>
<time>2026-07-16T09:18:27.000Z</time>
</trkpt>
<trkpt lat="57.165413" lon="9.414419">
<ele>15.797863</ele>
<time>2026-07-16T09:18:28.000Z</time>
</trkpt>
<trkpt lat="57.165447" lon="9.414484">
<ele>15.796419</ele>
<time>2026-07-16T09:18:29.000Z</time>
</trkpt>
<trkpt lat="57.165482" lon="9.414547">
<ele>15.797954</ele>
<time>2026-07-16T09:18:30.000Z</time>
</trkpt>
<trkpt lat="57.165516" lon="9.414610">
<ele>15.799466</ele>
<time>2026-07-16T09:18:31.000Z</time>
</trkpt>
<trkpt lat="57.165550" lon="9.414677">
<ele>15.801028</ele>
<time>2026-07-16T09:18:32.000Z</time>
</trkpt>
<trkpt lat="57.165585" lon="9.414740">
<ele>15.802563</ele>
<time>2026-07-16T09:18:33.000Z</time>
</trkpt>
<trkpt lat="57.165615" lon="9.414807">
<ele>15.804041</ele>
<time>2026-07-16T09:18:34.000Z</time>
</trkpt>
<trkpt lat="57.165649" lon="9.414871">
<ele>15.805566</ele>
<time>2026-07-16T09:18:35.000Z</time>
</trkpt>
<trkpt lat="57.165684" lon="9.414935">
<ele>15.807113</ele>
<time>2026-07-16T09:18:36.000Z</time>
</trkpt>
<trkpt lat="57.165718" lon="9.414995">
<ele>15.808590</ele>
<time>2026-07-16T09:18:37.000Z</time>
</trkpt>
<trkpt lat="57.165752" lon="9.415050">
<ele>15.810009</ele>
<time>2026-07-16T09:18:38.000Z</time>
</trkpt>
<trkpt lat="57.165791" lon="9.415099">
<ele>15.811490</ele>
<time>2026-07-16T09:18:39.000Z</time>
</trkpt>
<trkpt lat="57.165829" lon="9.415149">
<ele>15.812955</ele>
<time>2026-07-16T09:18:40.000Z</time>
</trkpt>
<trkpt lat="57.165867" lon="9.415201">
<ele>15.814440</ele>
<time>2026-07-16T09:18:41.000Z</time>
</trkpt>
<trkpt lat="57.165901" lon="9.415253">
<ele>15.815826</ele>
<time>2026-07-16T09:18:42.000Z</time>
</trkpt>
<trkpt lat="57.165943" lon="9.415302">
<ele>15.817386</ele>
<time>2026-07-16T09:18:43.000Z</time>
</trkpt>
<trkpt lat="57.165981" lon="9.415351">
<ele>15.818841</ele>
<time>2026-07-16T09:18:44.000Z</time>
</trkpt>
<trkpt lat="57.166019" lon="9.415404">
<ele>15.820336</ele>
<time>2026-07-16T09:18:45.000Z</time>
</trkpt>
<trkpt lat="57.166058" lon="9.415458">
<ele>15.821867</ele>
<time>2026-07-16T09:18:46.000Z</time>
</trkpt>
<trkpt lat="57.166096" lon="9.415513">
<ele>15.823383</ele>
<time>2026-07-16T09:18:47.000Z</time>
</trkpt>
<trkpt lat="57.166130" lon="9.415572">
<ele>15.824848</ele>
<time>2026-07-16T09:18:48.000Z</time>
</trkpt>
<trkpt lat="57.166164" lon="9.415633">
<ele>15.826337</ele>
<time>2026-07-16T09:18:49.000Z</time>
</trkpt>
<trkpt lat="57.166195" lon="9.415703">
<ele>15.827875</ele>
<time>2026-07-16T09:18:50.000Z</time>
</trkpt>
<trkpt lat="57.166225" lon="9.415770">
<ele>15.829353</ele>
<time>2026-07-16T09:18:51.000Z</time>
</trkpt>
<trkpt lat="57.166256" lon="9.415836">
<ele>15.830839</ele>
<time>2026-07-16T09:18:52.000Z</time>
</trkpt>
<trkpt lat="57.166283" lon="9.415905">
<ele>15.832287</ele>
<time>2026-07-16T09:18:53.000Z</time>
</trkpt>
<trkpt lat="57.166309" lon="9.415977">
<ele>15.833759</ele>
<time>2026-07-16T09:18:54.000Z</time>
</trkpt>
<trkpt lat="57.166336" lon="9.416055">
<ele>15.835334</ele>
<time>2026-07-16T09:18:55.000Z</time>
</trkpt>
<trkpt lat="57.166359" lon="9.416129">
<ele>15.836785</ele>
<time>2026-07-16T09:18:56.000Z</time>
</trkpt>
<trkpt lat="57.166386" lon="9.416203">
<ele>15.838303</ele>
<time>2026-07-16T09:18:57.000Z</time>
</trkpt>
<trkpt lat="57.166412" lon="9.416278">
<ele>15.839818</ele>
<time>2026-07-16T09:18:58.000Z</time>
</trkpt>
<trkpt lat="57.166435" lon="9.416351">
<ele>15.841254</ele>
<time>2026-07-16T09:18:59.000Z</time>
</trkpt>
<trkpt lat="57.166462" lon="9.416426">
<ele>15.842786</ele>
<time>2026-07-16T09:19:00.000Z</time>
</trkpt>
<trkpt lat="57.166489" lon="9.416499">
<ele>15.844290</ele>
<time>2026-07-16T09:19:01.000Z</time>
</trkpt>
<trkpt lat="57.166512" lon="9.416575">
<ele>15.845771</ele>
<time>2026-07-16T09:19:02.000Z</time>
</trkpt>
<trkpt lat="57.166534" lon="9.416651">
<ele>15.847237</ele>
<time>2026-07-16T09:19:03.000Z</time>
</trkpt>
<trkpt lat="57.166561" lon="9.416726">
<ele>15.848769</ele>
<time>2026-07-16T09:19:04.000Z</time>
</trkpt>
<trkpt lat="57.166584" lon="9.416800">
<ele>15.850220</ele>
<time>2026-07-16T09:19:05.000Z</time>
</trkpt>
<trkpt lat="57.166611" lon="9.416869">
<ele>15.851668</ele>
<time>2026-07-16T09:19:06.000Z</time>
</trkpt>
<trkpt lat="57.166634" lon="9.416946">
<ele>15.849377</ele>
<time>2026-07-16T09:19:07.000Z</time>
</trkpt>
<trkpt lat="57.166656" lon="9.417025">
<ele>15.843688</ele>
<time>2026-07-16T09:19:08.000Z</time>
</trkpt>
<trkpt lat="57.166679" lon="9.417102">
<ele>15.838057</ele>
<time>2026-07-16T09:19:09.000Z</time>
</trkpt>
<trkpt lat="57.166706" lon="9.417174">
<ele>15.832450</ele>
<time>2026-07-16T09:19:10.000Z</time>
</trkpt>
<trkpt lat="57.166733" lon="9.417244">
<ele>15.826947</ele>
<time>2026-07-16T09:19:11.000Z</time>
</trkpt>
<trkpt lat="57.166756" lon="9.417322">
<ele>15.821260</ele>
<time>2026-07-16T09:19:12.000Z</time>
</trkpt>
<trkpt lat="57.166782" lon="9.417394">
<ele>15.815719</ele>
<time>2026-07-16T09:19:13.000Z</time>
</trkpt>
<trkpt lat="57.166809" lon="9.417467">
<ele>15.810059</ele>
<time>2026-07-16T09:19:14.000Z</time>
</trkpt>
<trkpt lat="57.166836" lon="9.417534">
<ele>15.804712</ele>
<time>2026-07-16T09:19:15.000Z</time>
</trkpt>
<trkpt lat="57.166859" lon="9.417613">
<ele>15.798968</ele>
<time>2026-07-16T09:19:16.000Z</time>
</trkpt>
<trkpt lat="57.166882" lon="9.417682">
<ele>15.793780</ele>
<time>2026-07-16T09:19:17.000Z</time>
</trkpt>
<trkpt lat="57.166904" lon="9.417756">
<ele>15.788375</ele>
<time>2026-07-16T09:19:18.000Z</time>
</trkpt>
<trkpt lat="57.166927" lon="9.417831">
<ele>15.782856</ele>
<time>2026-07-16T09:19:19.000Z</time>
</trkpt>
<trkpt lat="57.166946" lon="9.417908">
<ele>15.777437</ele>
<time>2026-07-16T09:19:20.000Z</time>
</trkpt>
<trkpt lat="57.166965" lon="9.417988">
<ele>15.771843</ele>
<time>2026-07-16T09:19:21.000Z</time>
</trkpt>
<trkpt lat="57.166985" lon="9.418066">
<ele>15.766316</ele>
<time>2026-07-16T09:19:22.000Z</time>
</trkpt>
<trkpt lat="57.167007" lon="9.418144">
<ele>15.760684</ele>
<time>2026-07-16T09:19:23.000Z</time>
</trkpt>
<trkpt lat="57.167027" lon="9.418224">
<ele>15.755042</ele>
<time>2026-07-16T09:19:24.000Z</time>
</trkpt>
<trkpt lat="57.167049" lon="9.418304">
<ele>15.749296</ele>
<time>2026-07-16T09:19:25.000Z</time>
</trkpt>
<trkpt lat="57.167076" lon="9.418376">
<ele>15.743689</ele>
<time>2026-07-16T09:19:26.000Z</time>
</trkpt>
<trkpt lat="57.167103" lon="9.418451">
<ele>15.737923</ele>
<time>2026-07-16T09:19:27.000Z</time>
</trkpt>
<trkpt lat="57.167126" lon="9.418522">
<ele>15.732625</ele>
<time>2026-07-16T09:19:28.000Z</time>
</trkpt>
<trkpt lat="57.167156" lon="9.418585">
<ele>15.727254</ele>
<time>2026-07-16T09:19:29.000Z</time>
</trkpt>
<trkpt lat="57.167191" lon="9.418634">
<ele>15.722063</ele>
<time>2026-07-16T09:19:30.000Z</time>
</trkpt>
<trkpt lat="57.167236" lon="9.418680">
<ele>15.715985</ele>
<time>2026-07-16T09:19:31.000Z</time>
</trkpt>
<trkpt lat="57.167278" lon="9.418706">
<ele>15.710752</ele>
<time>2026-07-16T09:19:32.000Z</time>
</trkpt>
<trkpt lat="57.167316" lon="9.418725">
<ele>15.706101</ele>
<time>2026-07-16T09:19:33.000Z</time>
</trkpt>
<trkpt lat="57.167362" lon="9.418752">
<ele>15.700398</ele>
<time>2026-07-16T09:19:34.000Z</time>
</trkpt>
<trkpt lat="57.167404" lon="9.418781">
<ele>15.695100</ele>
<time>2026-07-16T09:19:35.000Z</time>
</trkpt>
<trkpt lat="57.167446" lon="9.418821">
<ele>15.689516</ele>
<time>2026-07-16T09:19:36.000Z</time>
</trkpt>
<trkpt lat="57.167480" lon="9.418873">
<ele>15.684298</ele>
<time>2026-07-16T09:19:37.000Z</time>
</trkpt>
<trkpt lat="57.167526" lon="9.418932">
<ele>15.677679</ele>
<time>2026-07-16T09:19:38.000Z</time>
</trkpt>
<trkpt lat="57.167564" lon="9.418990">
<ele>15.671852</ele>
<time>2026-07-16T09:19:39.000Z</time>
</trkpt>
<trkpt lat="57.167603" lon="9.419052">
<ele>15.665769</ele>
<time>2026-07-16T09:19:40.000Z</time>
</trkpt>
<trkpt lat="57.167637" lon="9.419113">
<ele>15.660166</ele>
<time>2026-07-16T09:19:41.000Z</time>
</trkpt>
<trkpt lat="57.167667" lon="9.419170">
<ele>15.655078</ele>
<time>2026-07-16T09:19:42.000Z</time>
</trkpt>
<trkpt lat="57.167706" lon="9.419240">
<ele>15.648649</ele>
<time>2026-07-16T09:19:43.000Z</time>
</trkpt>
<trkpt lat="57.167732" lon="9.419303">
<ele>15.643578</ele>
<time>2026-07-16T09:19:44.000Z</time>
</trkpt>
<trkpt lat="57.167763" lon="9.419373">
<ele>15.643503</ele>
<time>2026-07-16T09:19:45.000Z</time>
</trkpt>
<trkpt lat="57.167793" lon="9.419437">
<ele>15.652846</ele>
<time>2026-07-16T09:19:46.000Z</time>
</trkpt>
<trkpt lat="57.167820" lon="9.419500">
<ele>15.661715</ele>
<time>2026-07-16T09:19:47.000Z</time>
</trkpt>
<trkpt lat="57.167843" lon="9.419558">
<ele>15.669651</ele>
<time>2026-07-16T09:19:48.000Z</time>
</trkpt>
<trkpt lat="57.167858" lon="9.419610">
<ele>15.676155</ele>
<time>2026-07-16T09:19:49.000Z</time>
</trkpt>
<trkpt lat="57.167873" lon="9.419655">
<ele>15.681989</ele>
<time>2026-07-16T09:19:50.000Z</time>
</trkpt>
<trkpt lat="57.167877" lon="9.419750">
<ele>15.692512</ele>
<time>2026-07-16T09:20:00.000Z</time>
</trkpt>
<trkpt lat="57.167873" lon="9.419782">
<ele>15.696139</ele>
<time>2026-07-16T09:20:01.000Z</time>
</trkpt>
<trkpt lat="57.167862" lon="9.419819">
<ele>15.700799</ele>
<time>2026-07-16T09:20:02.000Z</time>
</trkpt>
<trkpt lat="57.167843" lon="9.419845">
<ele>15.705618</ele>
<time>2026-07-16T09:20:03.000Z</time>
</trkpt>
<trkpt lat="57.167824" lon="9.419870">
<ele>15.710372</ele>
<time>2026-07-16T09:20:04.000Z</time>
</trkpt>
<trkpt lat="57.167809" lon="9.419897">
<ele>15.714641</ele>
<time>2026-07-16T09:20:05.000Z</time>
</trkpt>
<trkpt lat="57.167809" lon="9.419926">
<ele>15.717844</ele>
<time>2026-07-16T09:20:06.000Z</time>
</trkpt>
<trkpt lat="57.167805" lon="9.419960">
<ele>15.721686</ele>
<time>2026-07-16T09:20:07.000Z</time>
</trkpt>
<trkpt lat="57.167805" lon="9.420002">
<ele>15.726324</ele>
<time>2026-07-16T09:20:08.000Z</time>
</trkpt>
<trkpt lat="57.167809" lon="9.420040">
<ele>15.730599</ele>
<time>2026-07-16T09:20:09.000Z</time>
</trkpt>
<trkpt lat="57.167816" lon="9.420092">
<ele>15.736516</ele>
<time>2026-07-16T09:20:10.000Z</time>
</trkpt>
<trkpt lat="57.167828" lon="9.420128">
<ele>15.741183</ele>
<time>2026-07-16T09:20:11.000Z</time>
</trkpt>
<trkpt lat="57.167847" lon="9.420180">
<ele>15.748109</ele>
<time>2026-07-16T09:20:12.000Z</time>
</trkpt>
<trkpt lat="57.167870" lon="9.420233">
<ele>15.755606</ele>
<time>2026-07-16T09:20:13.000Z</time>
</trkpt>
<trkpt lat="57.167889" lon="9.420282">
<ele>15.762259</ele>
<time>2026-07-16T09:20:14.000Z</time>
</trkpt>
<trkpt lat="57.167912" lon="9.420331">
<ele>15.769416</ele>
<time>2026-07-16T09:20:15.000Z</time>
</trkpt>
<trkpt lat="57.167934" lon="9.420375">
<ele>15.776026</ele>
<time>2026-07-16T09:20:16.000Z</time>
</trkpt>
<trkpt lat="57.167961" lon="9.420409">
<ele>15.782685</ele>
<time>2026-07-16T09:20:17.000Z</time>
</trkpt>
<trkpt lat="57.167984" lon="9.420450">
<ele>15.789201</ele>
<time>2026-07-16T09:20:18.000Z</time>
</trkpt>
<trkpt lat="57.168007" lon="9.420488">
<ele>15.795490</ele>
<time>2026-07-16T09:20:19.000Z</time>
</trkpt>
<trkpt lat="57.168030" lon="9.420530">
<ele>15.802083</ele>
<time>2026-07-16T09:20:20.000Z</time>
</trkpt>
<trkpt lat="57.168053" lon="9.420571">
<ele>15.808598</ele>
<time>2026-07-16T09:20:21.000Z</time>
</trkpt>
<trkpt lat="57.168076" lon="9.420613">
<ele>15.815191</ele>
<time>2026-07-16T09:20:22.000Z</time>
</trkpt>
<trkpt lat="57.168095" lon="9.420653">
<ele>15.821064</ele>
<time>2026-07-16T09:20:23.000Z</time>
</trkpt>
<trkpt lat="57.168121" lon="9.420693">
<ele>15.827960</ele>
<time>2026-07-16T09:20:24.000Z</time>
</trkpt>
<trkpt lat="57.168148" lon="9.420734">
<ele>15.835084</ele>
<time>2026-07-16T09:20:25.000Z</time>
</trkpt>
<trkpt lat="57.168175" lon="9.420780">
<ele>15.842571</ele>
<time>2026-07-16T09:20:26.000Z</time>
</trkpt>
<trkpt lat="57.168201" lon="9.420823">
<ele>15.849684</ele>
<time>2026-07-16T09:20:27.000Z</time>
</trkpt>
<trkpt lat="57.168228" lon="9.420870">
<ele>15.857246</ele>
<time>2026-07-16T09:20:28.000Z</time>
</trkpt>
<trkpt lat="57.168259" lon="9.420915">
<ele>15.865282</ele>
<time>2026-07-16T09:20:29.000Z</time>
</trkpt>
<trkpt lat="57.168289" lon="9.420963">
<ele>15.873371</ele>
<time>2026-07-16T09:20:30.000Z</time>
</trkpt>
<trkpt lat="57.168320" lon="9.421012">
<ele>15.881687</ele>
<time>2026-07-16T09:20:31.000Z</time>
</trkpt>
<trkpt lat="57.168350" lon="9.421064">
<ele>15.890073</ele>
<time>2026-07-16T09:20:32.000Z</time>
</trkpt>
<trkpt lat="57.168377" lon="9.421116">
<ele>15.898024</ele>
<time>2026-07-16T09:20:33.000Z</time>
</trkpt>
<trkpt lat="57.168407" lon="9.421175">
<ele>15.906957</ele>
<time>2026-07-16T09:20:34.000Z</time>
</trkpt>
<trkpt lat="57.168430" lon="9.421226">
<ele>15.914283</ele>
<time>2026-07-16T09:20:35.000Z</time>
</trkpt>
<trkpt lat="57.168461" lon="9.421292">
<ele>15.923926</ele>
<time>2026-07-16T09:20:36.000Z</time>
</trkpt>
<trkpt lat="57.168480" lon="9.421346">
<ele>15.931035</ele>
<time>2026-07-16T09:20:37.000Z</time>
</trkpt>
<trkpt lat="57.168507" lon="9.421421">
<ele>15.940978</ele>
<time>2026-07-16T09:20:38.000Z</time>
</trkpt>
<trkpt lat="57.168530" lon="9.421489">
<ele>15.949829</ele>
<time>2026-07-16T09:20:39.000Z</time>
</trkpt>
<trkpt lat="57.168556" lon="9.421556">
<ele>15.958928</ele>
<time>2026-07-16T09:20:40.000Z</time>
</trkpt>
<trkpt lat="57.168583" lon="9.421621">
<ele>15.967971</ele>
<time>2026-07-16T09:20:41.000Z</time>
</trkpt>
<trkpt lat="57.168606" lon="9.421691">
<ele>15.977010</ele>
<time>2026-07-16T09:20:42.000Z</time>
</trkpt>
<trkpt lat="57.168633" lon="9.421752">
<ele>15.985706</ele>
<time>2026-07-16T09:20:43.000Z</time>
</trkpt>
<trkpt lat="57.168655" lon="9.421824">
<ele>15.994833</ele>
<time>2026-07-16T09:20:44.000Z</time>
</trkpt>
<trkpt lat="57.168678" lon="9.421888">
<ele>16.003313</ele>
<time>2026-07-16T09:20:45.000Z</time>
</trkpt>
<trkpt lat="57.168705" lon="9.421953">
<ele>16.005586</ele>
<time>2026-07-16T09:20:46.000Z</time>
</trkpt>
<trkpt lat="57.168732" lon="9.422011">
<ele>16.004664</ele>
<time>2026-07-16T09:20:47.000Z</time>
</trkpt>
<trkpt lat="57.168755" lon="9.422079">
<ele>16.003698</ele>
<time>2026-07-16T09:20:48.000Z</time>
</trkpt>
<trkpt lat="57.168781" lon="9.422141">
<ele>16.002753</ele>
<time>2026-07-16T09:20:49.000Z</time>
</trkpt>
<trkpt lat="57.168808" lon="9.422207">
<ele>16.001756</ele>
<time>2026-07-16T09:20:50.000Z</time>
</trkpt>
<trkpt lat="57.168835" lon="9.422265">
<ele>16.000835</ele>
<time>2026-07-16T09:20:51.000Z</time>
</trkpt>
<trkpt lat="57.168861" lon="9.422332">
<ele>15.999842</ele>
<time>2026-07-16T09:20:52.000Z</time>
</trkpt>
<trkpt lat="57.168884" lon="9.422392">
<ele>15.998956</ele>
<time>2026-07-16T09:20:53.000Z</time>
</trkpt>
<trkpt lat="57.168911" lon="9.422461">
<ele>15.997930</ele>
<time>2026-07-16T09:20:54.000Z</time>
</trkpt>
<trkpt lat="57.168934" lon="9.422524">
<ele>15.997014</ele>
<time>2026-07-16T09:20:55.000Z</time>
</trkpt>
<trkpt lat="57.168961" lon="9.422591">
<ele>15.996008</ele>
<time>2026-07-16T09:20:56.000Z</time>
</trkpt>
<trkpt lat="57.168983" lon="9.422647">
<ele>15.995174</ele>
<time>2026-07-16T09:20:57.000Z</time>
</trkpt>
<trkpt lat="57.169014" lon="9.422716">
<ele>15.994094</ele>
<time>2026-07-16T09:20:58.000Z</time>
</trkpt>
<trkpt lat="57.169041" lon="9.422777">
<ele>15.993145</ele>
<time>2026-07-16T09:20:59.000Z</time>
</trkpt>
<trkpt lat="57.169064" lon="9.422843">
<ele>15.992199</ele>
<time>2026-07-16T09:21:00.000Z</time>
</trkpt>
<trkpt lat="57.169090" lon="9.422901">
<ele>15.991292</ele>
<time>2026-07-16T09:21:01.000Z</time>
</trkpt>
<trkpt lat="57.169117" lon="9.422973">
<ele>15.990237</ele>
<time>2026-07-16T09:21:02.000Z</time>
</trkpt>
<trkpt lat="57.169136" lon="9.423023">
<ele>15.989501</ele>
<time>2026-07-16T09:21:03.000Z</time>
</trkpt>
<trkpt lat="57.169167" lon="9.423098">
<ele>15.988364</ele>
<time>2026-07-16T09:21:04.000Z</time>
</trkpt>
<trkpt lat="57.169189" lon="9.423162">
<ele>15.987450</ele>
<time>2026-07-16T09:21:05.000Z</time>
</trkpt>
<trkpt lat="57.169216" lon="9.423229">
<ele>15.986444</ele>
<time>2026-07-16T09:21:06.000Z</time>
</trkpt>
<trkpt lat="57.169239" lon="9.423289">
<ele>15.985558</ele>
<time>2026-07-16T09:21:07.000Z</time>
</trkpt>
<trkpt lat="57.169258" lon="9.423358">
<ele>15.984625</ele>
<time>2026-07-16T09:21:08.000Z</time>
</trkpt>
<trkpt lat="57.169281" lon="9.423421">
<ele>15.983710</ele>
<time>2026-07-16T09:21:09.000Z</time>
</trkpt>
<trkpt lat="57.169308" lon="9.423489">
<ele>15.982693</ele>
<time>2026-07-16T09:21:10.000Z</time>
</trkpt>
<trkpt lat="57.169331" lon="9.423549">
<ele>15.981808</ele>
<time>2026-07-16T09:21:11.000Z</time>
</trkpt>
<trkpt lat="57.169353" lon="9.423616">
<ele>15.980863</ele>
<time>2026-07-16T09:21:12.000Z</time>
</trkpt>
<trkpt lat="57.169376" lon="9.423677">
<ele>15.979968</ele>
<time>2026-07-16T09:21:13.000Z</time>
</trkpt>
<trkpt lat="57.169403" lon="9.423743">
<ele>15.978971</ele>
<time>2026-07-16T09:21:14.000Z</time>
</trkpt>
<trkpt lat="57.169426" lon="9.423803">
<ele>15.978085</ele>
<time>2026-07-16T09:21:15.000Z</time>
</trkpt>
<trkpt lat="57.169449" lon="9.423871">
<ele>15.977119</ele>
<time>2026-07-16T09:21:16.000Z</time>
</trkpt>
<trkpt lat="57.169472" lon="9.423931">
<ele>15.976233</ele>
<time>2026-07-16T09:21:17.000Z</time>
</trkpt>
<trkpt lat="57.169495" lon="9.423998">
<ele>15.975277</ele>
<time>2026-07-16T09:21:18.000Z</time>
</trkpt>
<trkpt lat="57.169517" lon="9.424061">
<ele>15.974374</ele>
<time>2026-07-16T09:21:19.000Z</time>
</trkpt>
<trkpt lat="57.169540" lon="9.424129">
<ele>15.973408</ele>
<time>2026-07-16T09:21:20.000Z</time>
</trkpt>
<trkpt lat="57.169567" lon="9.424189">
<ele>15.972468</ele>
<time>2026-07-16T09:21:21.000Z</time>
</trkpt>
<trkpt lat="57.169590" lon="9.424259">
<ele>15.971481</ele>
<time>2026-07-16T09:21:22.000Z</time>
</trkpt>
<trkpt lat="57.169613" lon="9.424318">
<ele>15.970605</ele>
<time>2026-07-16T09:21:23.000Z</time>
</trkpt>
<trkpt lat="57.169640" lon="9.424384">
<ele>15.969609</ele>
<time>2026-07-16T09:21:24.000Z</time>
</trkpt>
<trkpt lat="57.169666" lon="9.424444">
<ele>15.968683</ele>
<time>2026-07-16T09:21:25.000Z</time>
</trkpt>
<trkpt lat="57.169689" lon="9.424510">
<ele>15.967737</ele>
<time>2026-07-16T09:21:26.000Z</time>
</trkpt>
<trkpt lat="57.169712" lon="9.424576">
<ele>15.966791</ele>
<time>2026-07-16T09:21:27.000Z</time>
</trkpt>
<trkpt lat="57.169739" lon="9.424644">
<ele>15.962725</ele>
<time>2026-07-16T09:21:28.000Z</time>
</trkpt>
<trkpt lat="57.169762" lon="9.424699">
<ele>15.956620</ele>
<time>2026-07-16T09:21:29.000Z</time>
</trkpt>
<trkpt lat="57.169785" lon="9.424770">
<ele>15.949352</ele>
<time>2026-07-16T09:21:30.000Z</time>
</trkpt>
<trkpt lat="57.169811" lon="9.424831">
<ele>15.942533</ele>
<time>2026-07-16T09:21:31.000Z</time>
</trkpt>
<trkpt lat="57.169838" lon="9.424901">
<ele>15.934983</ele>
<time>2026-07-16T09:21:32.000Z</time>
</trkpt>
<trkpt lat="57.169865" lon="9.424964">
<ele>15.927925</ele>
<time>2026-07-16T09:21:33.000Z</time>
</trkpt>
<trkpt lat="57.169891" lon="9.425037">
<ele>15.920249</ele>
<time>2026-07-16T09:21:34.000Z</time>
</trkpt>
<trkpt lat="57.169918" lon="9.425110">
<ele>15.912483</ele>
<time>2026-07-16T09:21:35.000Z</time>
</trkpt>
<trkpt lat="57.169945" lon="9.425185">
<ele>15.904572</ele>
<time>2026-07-16T09:21:36.000Z</time>
</trkpt>
<trkpt lat="57.169975" lon="9.425253">
<ele>15.896867</ele>
<time>2026-07-16T09:21:37.000Z</time>
</trkpt>
<trkpt lat="57.170002" lon="9.425328">
<ele>15.888955</ele>
<time>2026-07-16T09:21:38.000Z</time>
</trkpt>
<trkpt lat="57.170029" lon="9.425401">
<ele>15.881189</ele>
<time>2026-07-16T09:21:39.000Z</time>
</trkpt>
<trkpt lat="57.170059" lon="9.425468">
<ele>15.873553</ele>
<time>2026-07-16T09:21:40.000Z</time>
</trkpt>
<trkpt lat="57.170086" lon="9.425541">
<ele>15.865786</ele>
<time>2026-07-16T09:21:41.000Z</time>
</trkpt>
<trkpt lat="57.170113" lon="9.425614">
<ele>15.858020</ele>
<time>2026-07-16T09:21:42.000Z</time>
</trkpt>
<trkpt lat="57.170139" lon="9.425684">
<ele>15.850564</ele>
<time>2026-07-16T09:21:43.000Z</time>
</trkpt>
<trkpt lat="57.170166" lon="9.425753">
<ele>15.843085</ele>
<time>2026-07-16T09:21:44.000Z</time>
</trkpt>
<trkpt lat="57.170193" lon="9.425820">
<ele>15.835749</ele>
<time>2026-07-16T09:21:45.000Z</time>
</trkpt>
<trkpt lat="57.170219" lon="9.425897">
<ele>15.827777</ele>
<time>2026-07-16T09:21:46.000Z</time>
</trkpt>
<trkpt lat="57.170246" lon="9.425962">
<ele>15.820581</ele>
<time>2026-07-16T09:21:47.000Z</time>
</trkpt>
<trkpt lat="57.170273" lon="9.426041">
<ele>15.812374</ele>
<time>2026-07-16T09:21:48.000Z</time>
</trkpt>
<trkpt lat="57.170300" lon="9.426112">
<ele>15.804752</ele>
<time>2026-07-16T09:21:49.000Z</time>
</trkpt>
<trkpt lat="57.170326" lon="9.426184">
<ele>15.797150</ele>
<time>2026-07-16T09:21:50.000Z</time>
</trkpt>
<trkpt lat="57.170353" lon="9.426247">
<ele>15.790092</ele>
<time>2026-07-16T09:21:51.000Z</time>
</trkpt>
<trkpt lat="57.170380" lon="9.426318">
<ele>15.782471</ele>
<time>2026-07-16T09:21:52.000Z</time>
</trkpt>
<trkpt lat="57.170406" lon="9.426379">
<ele>15.775652</ele>
<time>2026-07-16T09:21:53.000Z</time>
</trkpt>
<trkpt lat="57.170437" lon="9.426453">
<ele>15.767433</ele>
<time>2026-07-16T09:21:54.000Z</time>
</trkpt>
<trkpt lat="57.170464" lon="9.426520">
<ele>15.760097</ele>
<time>2026-07-16T09:21:55.000Z</time>
</trkpt>
<trkpt lat="57.170494" lon="9.426593">
<ele>15.752047</ele>
<time>2026-07-16T09:21:56.000Z</time>
</trkpt>
<trkpt lat="57.170525" lon="9.426658">
<ele>15.744439</ele>
<time>2026-07-16T09:21:57.000Z</time>
</trkpt>
<trkpt lat="57.170551" lon="9.426724">
<ele>15.737269</ele>
<time>2026-07-16T09:21:58.000Z</time>
</trkpt>
<trkpt lat="57.170582" lon="9.426788">
<ele>15.729727</ele>
<time>2026-07-16T09:21:59.000Z</time>
</trkpt>
<trkpt lat="57.170601" lon="9.426836">
<ele>15.724504</ele>
<time>2026-07-16T09:22:00.000Z</time>
</trkpt>
<trkpt lat="57.170635" lon="9.426917">
<ele>15.715502</ele>
<time>2026-07-16T09:22:01.000Z</time>
</trkpt>
<trkpt lat="57.170662" lon="9.426991">
<ele>15.707663</ele>
<time>2026-07-16T09:22:02.000Z</time>
</trkpt>
<trkpt lat="57.170692" lon="9.427060">
<ele>15.699890</ele>
<time>2026-07-16T09:22:03.000Z</time>
</trkpt>
<trkpt lat="57.170719" lon="9.427129">
<ele>15.692412</ele>
<time>2026-07-16T09:22:04.000Z</time>
</trkpt>
<trkpt lat="57.170750" lon="9.427196">
<ele>15.684671</ele>
<time>2026-07-16T09:22:05.000Z</time>
</trkpt>
<trkpt lat="57.170776" lon="9.427262">
<ele>15.677502</ele>
<time>2026-07-16T09:22:06.000Z</time>
</trkpt>
<trkpt lat="57.170803" lon="9.427328">
<ele>15.671301</ele>
<time>2026-07-16T09:22:07.000Z</time>
</trkpt>
<trkpt lat="57.170830" lon="9.427403">
<ele>15.665274</ele>
<time>2026-07-16T09:22:08.000Z</time>
</trkpt>
<trkpt lat="57.170857" lon="9.427473">
<ele>15.659524</ele>
<time>2026-07-16T09:22:09.000Z</time>
</trkpt>
<trkpt lat="57.170887" lon="9.427543">
<ele>15.653551</ele>
<time>2026-07-16T09:22:10.000Z</time>
</trkpt>
<trkpt lat="57.170918" lon="9.427611">
<ele>15.647604</ele>
<time>2026-07-16T09:22:11.000Z</time>
</trkpt>
<trkpt lat="57.170948" lon="9.427677">
<ele>15.641839</ele>
<time>2026-07-16T09:22:12.000Z</time>
</trkpt>
<trkpt lat="57.170982" lon="9.427746">
<ele>15.635598</ele>
<time>2026-07-16T09:22:13.000Z</time>
</trkpt>
<trkpt lat="57.171013" lon="9.427818">
<ele>15.629444</ele>
<time>2026-07-16T09:22:14.000Z</time>
</trkpt>
<trkpt lat="57.171040" lon="9.427891">
<ele>15.623529</ele>
<time>2026-07-16T09:22:15.000Z</time>
</trkpt>
<trkpt lat="57.171066" lon="9.427959">
<ele>15.617959</ele>
<time>2026-07-16T09:22:16.000Z</time>
</trkpt>
<trkpt lat="57.171097" lon="9.428034">
<ele>15.611646</ele>
<time>2026-07-16T09:22:17.000Z</time>
</trkpt>
<trkpt lat="57.171123" lon="9.428105">
<ele>15.605911</ele>
<time>2026-07-16T09:22:18.000Z</time>
</trkpt>
<trkpt lat="57.171154" lon="9.428176">
<ele>15.599809</ele>
<time>2026-07-16T09:22:19.000Z</time>
</trkpt>
<trkpt lat="57.171185" lon="9.428243">
<ele>15.593913</ele>
<time>2026-07-16T09:22:20.000Z</time>
</trkpt>
<trkpt lat="57.171211" lon="9.428304">
<ele>15.588720</ele>
<time>2026-07-16T09:22:21.000Z</time>
</trkpt>
<trkpt lat="57.171249" lon="9.428374">
<ele>15.582089</ele>
<time>2026-07-16T09:22:22.000Z</time>
</trkpt>
<trkpt lat="57.171280" lon="9.428444">
<ele>15.576039</ele>
<time>2026-07-16T09:22:23.000Z</time>
</trkpt>
<trkpt lat="57.171314" lon="9.428518">
<ele>15.569546</ele>
<time>2026-07-16T09:22:24.000Z</time>
</trkpt>
<trkpt lat="57.171345" lon="9.428591">
<ele>15.563339</ele>
<time>2026-07-16T09:22:25.000Z</time>
</trkpt>
<trkpt lat="57.171375" lon="9.428661">
<ele>15.557367</ele>
<time>2026-07-16T09:22:26.000Z</time>
</trkpt>
<trkpt lat="57.171406" lon="9.428737">
<ele>15.551001</ele>
<time>2026-07-16T09:22:27.000Z</time>
</trkpt>
<trkpt lat="57.171436" lon="9.428812">
<ele>15.544762</ele>
<time>2026-07-16T09:22:28.000Z</time>
</trkpt>
<trkpt lat="57.171471" lon="9.428887">
<ele>15.538138</ele>
<time>2026-07-16T09:22:29.000Z</time>
</trkpt>
<trkpt lat="57.171501" lon="9.428962">
<ele>15.531899</ele>
<time>2026-07-16T09:22:30.000Z</time>
</trkpt>
<trkpt lat="57.171528" lon="9.429032">
<ele>15.526149</ele>
<time>2026-07-16T09:22:31.000Z</time>
</trkpt>
<trkpt lat="57.171566" lon="9.429110">
<ele>15.519130</ele>
<time>2026-07-16T09:22:32.000Z</time>
</trkpt>
<trkpt lat="57.171597" lon="9.429186">
<ele>15.512764</ele>
<time>2026-07-16T09:22:33.000Z</time>
</trkpt>
<trkpt lat="57.171631" lon="9.429261">
<ele>15.506220</ele>
<time>2026-07-16T09:22:34.000Z</time>
</trkpt>
<trkpt lat="57.171661" lon="9.429337">
<ele>15.499927</ele>
<time>2026-07-16T09:22:35.000Z</time>
</trkpt>
<trkpt lat="57.171696" lon="9.429410">
<ele>15.493404</ele>
<time>2026-07-16T09:22:36.000Z</time>
</trkpt>
<trkpt lat="57.171730" lon="9.429484">
<ele>15.486912</ele>
<time>2026-07-16T09:22:37.000Z</time>
</trkpt>
<trkpt lat="57.171764" lon="9.429557">
<ele>15.480470</ele>
<time>2026-07-16T09:22:38.000Z</time>
</trkpt>
<trkpt lat="57.171799" lon="9.429632">
<ele>15.473846</ele>
<time>2026-07-16T09:22:39.000Z</time>
</trkpt>
<trkpt lat="57.171829" lon="9.429706">
<ele>15.467661</ele>
<time>2026-07-16T09:22:40.000Z</time>
</trkpt>
<trkpt lat="57.171864" lon="9.429780">
<ele>15.461088</ele>
<time>2026-07-16T09:22:41.000Z</time>
</trkpt>
<trkpt lat="57.171898" lon="9.429852">
<ele>15.454697</ele>
<time>2026-07-16T09:22:42.000Z</time>
</trkpt>
<trkpt lat="57.171932" lon="9.429924">
<ele>15.449716</ele>
<time>2026-07-16T09:22:43.000Z</time>
</trkpt>
<trkpt lat="57.171963" lon="9.429998">
<ele>15.445498</ele>
<time>2026-07-16T09:22:44.000Z</time>
</trkpt>
<trkpt lat="57.171997" lon="9.430073">
<ele>15.441088</ele>
<time>2026-07-16T09:22:45.000Z</time>
</trkpt>
<trkpt lat="57.172031" lon="9.430145">
<ele>15.436780</ele>
<time>2026-07-16T09:22:46.000Z</time>
</trkpt>
<trkpt lat="57.172062" lon="9.430216">
<ele>15.432668</ele>
<time>2026-07-16T09:22:47.000Z</time>
</trkpt>
<trkpt lat="57.172092" lon="9.430289">
<ele>15.428536</ele>
<time>2026-07-16T09:22:48.000Z</time>
</trkpt>
<trkpt lat="57.172123" lon="9.430365">
<ele>15.424245</ele>
<time>2026-07-16T09:22:49.000Z</time>
</trkpt>
<trkpt lat="57.172153" lon="9.430441">
<ele>15.420004</ele>
<time>2026-07-16T09:22:50.000Z</time>
</trkpt>
<trkpt lat="57.172188" lon="9.430514">
<ele>15.415608</ele>
<time>2026-07-16T09:22:51.000Z</time>
</trkpt>
<trkpt lat="57.172218" lon="9.430590">
<ele>15.411368</ele>
<time>2026-07-16T09:22:52.000Z</time>
</trkpt>
<trkpt lat="57.172253" lon="9.430664">
<ele>15.406938</ele>
<time>2026-07-16T09:22:53.000Z</time>
</trkpt>
<trkpt lat="57.172287" lon="9.430740">
<ele>15.402493</ele>
<time>2026-07-16T09:22:54.000Z</time>
</trkpt>
<trkpt lat="57.172317" lon="9.430817">
<ele>15.398215</ele>
<time>2026-07-16T09:22:55.000Z</time>
</trkpt>
<trkpt lat="57.172348" lon="9.430897">
<ele>15.393779</ele>
<time>2026-07-16T09:22:56.000Z</time>
</trkpt>
<trkpt lat="57.172375" lon="9.430967">
<ele>15.389904</ele>
<time>2026-07-16T09:22:57.000Z</time>
</trkpt>
<trkpt lat="57.172413" lon="9.431051">
<ele>15.384969</ele>
<time>2026-07-16T09:22:58.000Z</time>
</trkpt>
<trkpt lat="57.172440" lon="9.431123">
<ele>15.381020</ele>
<time>2026-07-16T09:22:59.000Z</time>
</trkpt>
<trkpt lat="57.172474" lon="9.431203">
<ele>15.376434</ele>
<time>2026-07-16T09:23:00.000Z</time>
</trkpt>
<trkpt lat="57.172504" lon="9.431277">
<ele>15.372266</ele>
<time>2026-07-16T09:23:01.000Z</time>
</trkpt>
<trkpt lat="57.172535" lon="9.431358">
<ele>15.367794</ele>
<time>2026-07-16T09:23:02.000Z</time>
</trkpt>
<trkpt lat="57.172569" lon="9.431429">
<ele>15.363520</ele>
<time>2026-07-16T09:23:03.000Z</time>
</trkpt>
<trkpt lat="57.172596" lon="9.431497">
<ele>15.359718</ele>
<time>2026-07-16T09:23:04.000Z</time>
</trkpt>
<trkpt lat="57.172630" lon="9.431568">
<ele>15.355445</ele>
<time>2026-07-16T09:23:05.000Z</time>
</trkpt>
<trkpt lat="57.172668" lon="9.431656">
<ele>15.350370</ele>
<time>2026-07-16T09:23:06.000Z</time>
</trkpt>
<trkpt lat="57.172703" lon="9.431735">
<ele>15.345767</ele>
<time>2026-07-16T09:23:07.000Z</time>
</trkpt>
<trkpt lat="57.172737" lon="9.431808">
<ele>15.341426</ele>
<time>2026-07-16T09:23:08.000Z</time>
</trkpt>
<trkpt lat="57.172771" lon="9.431887">
<ele>15.336876</ele>
<time>2026-07-16T09:23:09.000Z</time>
</trkpt>
<trkpt lat="57.172806" lon="9.431962">
<ele>15.332412</ele>
<time>2026-07-16T09:23:10.000Z</time>
</trkpt>
<trkpt lat="57.172836" lon="9.432038">
<ele>15.328171</ele>
<time>2026-07-16T09:23:11.000Z</time>
</trkpt>
<trkpt lat="57.172871" lon="9.432115">
<ele>15.323639</ele>
<time>2026-07-16T09:23:12.000Z</time>
</trkpt>
<trkpt lat="57.172901" lon="9.432189">
<ele>15.319470</ele>
<time>2026-07-16T09:23:13.000Z</time>
</trkpt>
<trkpt lat="57.172935" lon="9.432266">
<ele>15.314991</ele>
<time>2026-07-16T09:23:14.000Z</time>
</trkpt>
<trkpt lat="57.172970" lon="9.432343">
<ele>15.310458</ele>
<time>2026-07-16T09:23:15.000Z</time>
</trkpt>
<trkpt lat="57.173004" lon="9.432419">
<ele>15.306013</ele>
<time>2026-07-16T09:23:16.000Z</time>
</trkpt>
<trkpt lat="57.173038" lon="9.432494">
<ele>15.301358</ele>
<time>2026-07-16T09:23:17.000Z</time>
</trkpt>
<trkpt lat="57.173073" lon="9.432569">
<ele>15.296095</ele>
<time>2026-07-16T09:23:18.000Z</time>
</trkpt>
<trkpt lat="57.173103" lon="9.432641">
<ele>15.291265</ele>
<time>2026-07-16T09:23:19.000Z</time>
</trkpt>
<trkpt lat="57.173134" lon="9.432709">
<ele>15.286540</ele>
<time>2026-07-16T09:23:20.000Z</time>
</trkpt>
<trkpt lat="57.173168" lon="9.432784">
<ele>15.281340</ele>
<time>2026-07-16T09:23:21.000Z</time>
</trkpt>
<trkpt lat="57.173203" lon="9.432856">
<ele>15.276197</ele>
<time>2026-07-16T09:23:22.000Z</time>
</trkpt>
<trkpt lat="57.173233" lon="9.432928">
<ele>15.271367</ele>
<time>2026-07-16T09:23:23.000Z</time>
</trkpt>
<trkpt lat="57.173267" lon="9.432998">
<ele>15.266368</ele>
<time>2026-07-16T09:23:24.000Z</time>
</trkpt>
<trkpt lat="57.173298" lon="9.433068">
<ele>15.261561</ele>
<time>2026-07-16T09:23:25.000Z</time>
</trkpt>
<trkpt lat="57.173328" lon="9.433140">
<ele>15.256731</ele>
<time>2026-07-16T09:23:26.000Z</time>
</trkpt>
<trkpt lat="57.173359" lon="9.433206">
<ele>15.252087</ele>
<time>2026-07-16T09:23:27.000Z</time>
</trkpt>
<trkpt lat="57.173389" lon="9.433281">
<ele>15.247130</ele>
<time>2026-07-16T09:23:28.000Z</time>
</trkpt>
<trkpt lat="57.173420" lon="9.433355">
<ele>15.242156</ele>
<time>2026-07-16T09:23:29.000Z</time>
</trkpt>
<trkpt lat="57.173450" lon="9.433420">
<ele>15.237616</ele>
<time>2026-07-16T09:23:30.000Z</time>
</trkpt>
<trkpt lat="57.173481" lon="9.433502">
<ele>15.232299</ele>
<time>2026-07-16T09:23:31.000Z</time>
</trkpt>
<trkpt lat="57.173511" lon="9.433566">
<ele>15.227799</ele>
<time>2026-07-16T09:23:32.000Z</time>
</trkpt>
<trkpt lat="57.173550" lon="9.433645">
<ele>15.222116</ele>
<time>2026-07-16T09:23:33.000Z</time>
</trkpt>
<trkpt lat="57.173580" lon="9.433721">
<ele>15.217116</ele>
<time>2026-07-16T09:23:34.000Z</time>
</trkpt>
<trkpt lat="57.173611" lon="9.433796">
<ele>15.212100</ele>
<time>2026-07-16T09:23:35.000Z</time>
</trkpt>
<trkpt lat="57.173641" lon="9.433869">
<ele>15.207228</ele>
<time>2026-07-16T09:23:36.000Z</time>
</trkpt>
<trkpt lat="57.173672" lon="9.433942">
<ele>15.202297</ele>
<time>2026-07-16T09:23:37.000Z</time>
</trkpt>
<trkpt lat="57.173702" lon="9.434020">
<ele>15.197210</ele>
<time>2026-07-16T09:23:38.000Z</time>
</trkpt>
<trkpt lat="57.173733" lon="9.434095">
<ele>15.192194</ele>
<time>2026-07-16T09:23:39.000Z</time>
</trkpt>
<trkpt lat="57.173759" lon="9.434169">
<ele>15.187504</ele>
<time>2026-07-16T09:23:40.000Z</time>
</trkpt>
<trkpt lat="57.173786" lon="9.434242">
<ele>15.182804</ele>
<time>2026-07-16T09:23:41.000Z</time>
</trkpt>
<trkpt lat="57.173813" lon="9.434315">
<ele>15.178104</ele>
<time>2026-07-16T09:23:42.000Z</time>
</trkpt>
<trkpt lat="57.173843" lon="9.434383">
<ele>15.173441</ele>
<time>2026-07-16T09:23:43.000Z</time>
</trkpt>
<trkpt lat="57.173874" lon="9.434457">
<ele>15.168468</ele>
<time>2026-07-16T09:23:44.000Z</time>
</trkpt>
<trkpt lat="57.173901" lon="9.434525">
<ele>15.163985</ele>
<time>2026-07-16T09:23:45.000Z</time>
</trkpt>
<trkpt lat="57.173927" lon="9.434602">
<ele>15.159160</ele>
<time>2026-07-16T09:23:46.000Z</time>
</trkpt>
<trkpt lat="57.173958" lon="9.434679">
<ele>15.154059</ele>
<time>2026-07-16T09:23:47.000Z</time>
</trkpt>
<trkpt lat="57.173988" lon="9.434759">
<ele>15.148886</ele>
<time>2026-07-16T09:23:48.000Z</time>
</trkpt>
<trkpt lat="57.174019" lon="9.434837">
<ele>15.143742</ele>
<time>2026-07-16T09:23:49.000Z</time>
</trkpt>
<trkpt lat="57.174049" lon="9.434916">
<ele>15.138612</ele>
<time>2026-07-16T09:23:50.000Z</time>
</trkpt>
<trkpt lat="57.174084" lon="9.434988">
<ele>15.133469</ele>
<time>2026-07-16T09:23:51.000Z</time>
</trkpt>
<trkpt lat="57.174114" lon="9.435056">
<ele>15.128806</ele>
<time>2026-07-16T09:23:52.000Z</time>
</trkpt>
<trkpt lat="57.174149" lon="9.435130">
<ele>15.122277</ele>
<time>2026-07-16T09:23:53.000Z</time>
</trkpt>
<trkpt lat="57.174179" lon="9.435200">
<ele>15.115410</ele>
<time>2026-07-16T09:23:54.000Z</time>
</trkpt>
<trkpt lat="57.174210" lon="9.435264">
<ele>15.108806</ele>
<time>2026-07-16T09:23:55.000Z</time>
</trkpt>
<trkpt lat="57.174240" lon="9.435330">
<ele>15.102178</ele>
<time>2026-07-16T09:23:56.000Z</time>
</trkpt>
<trkpt lat="57.174274" lon="9.435401">
<ele>15.094888</ele>
<time>2026-07-16T09:23:57.000Z</time>
</trkpt>
<trkpt lat="57.174305" lon="9.435467">
<ele>15.088169</ele>
<time>2026-07-16T09:23:58.000Z</time>
</trkpt>
<trkpt lat="57.174339" lon="9.435533">
<ele>15.081162</ele>
<time>2026-07-16T09:23:59.000Z</time>
</trkpt>
<trkpt lat="57.174362" lon="9.435588">
<ele>15.075817</ele>
<time>2026-07-16T09:24:00.000Z</time>
</trkpt>
<trkpt lat="57.174400" lon="9.435666">
<ele>15.067748</ele>
<time>2026-07-16T09:24:01.000Z</time>
</trkpt>
<trkpt lat="57.174439" lon="9.435739">
<ele>15.059861</ele>
<time>2026-07-16T09:24:02.000Z</time>
</trkpt>
<trkpt lat="57.174473" lon="9.435806">
<ele>15.052799</ele>
<time>2026-07-16T09:24:03.000Z</time>
</trkpt>
<trkpt lat="57.174507" lon="9.435872">
<ele>15.045793</ele>
<time>2026-07-16T09:24:04.000Z</time>
</trkpt>
<trkpt lat="57.174541" lon="9.435937">
<ele>15.038842</ele>
<time>2026-07-16T09:24:05.000Z</time>
</trkpt>
<trkpt lat="57.174580" lon="9.436002">
<ele>15.031381</ele>
<time>2026-07-16T09:24:06.000Z</time>
</trkpt>
<trkpt lat="57.174614" lon="9.436065">
<ele>15.024541</ele>
<time>2026-07-16T09:24:07.000Z</time>
</trkpt>
<trkpt lat="57.174648" lon="9.436132">
<ele>15.017479</ele>
<time>2026-07-16T09:24:08.000Z</time>
</trkpt>
<trkpt lat="57.174683" lon="9.436194">
<ele>15.010591</ele>
<time>2026-07-16T09:24:09.000Z</time>
</trkpt>
<trkpt lat="57.174717" lon="9.436259">
<ele>15.003640</ele>
<time>2026-07-16T09:24:10.000Z</time>
</trkpt>
<trkpt lat="57.174755" lon="9.436321">
<ele>14.996439</ele>
<time>2026-07-16T09:24:11.000Z</time>
</trkpt>
<trkpt lat="57.174786" lon="9.436382">
<ele>14.990005</ele>
<time>2026-07-16T09:24:12.000Z</time>
</trkpt>
<trkpt lat="57.174824" lon="9.436452">
<ele>14.982382</ele>
<time>2026-07-16T09:24:13.000Z</time>
</trkpt>
<trkpt lat="57.174858" lon="9.436513">
<ele>14.975650</ele>
<time>2026-07-16T09:24:14.000Z</time>
</trkpt>
<trkpt lat="57.174896" lon="9.436576">
<ele>14.968398</ele>
<time>2026-07-16T09:24:15.000Z</time>
</trkpt>
<trkpt lat="57.174927" lon="9.436641">
<ele>14.961736</ele>
<time>2026-07-16T09:24:16.000Z</time>
</trkpt>
<trkpt lat="57.174957" lon="9.436708">
<ele>14.955049</ele>
<time>2026-07-16T09:24:17.000Z</time>
</trkpt>
<trkpt lat="57.174988" lon="9.436775">
<ele>14.948271</ele>
<time>2026-07-16T09:24:18.000Z</time>
</trkpt>
<trkpt lat="57.175018" lon="9.436841">
<ele>14.941643</ele>
<time>2026-07-16T09:24:19.000Z</time>
</trkpt>
<trkpt lat="57.175049" lon="9.436907">
<ele>14.934923</ele>
<time>2026-07-16T09:24:20.000Z</time>
</trkpt>
<trkpt lat="57.175079" lon="9.436977">
<ele>14.928057</ele>
<time>2026-07-16T09:24:21.000Z</time>
</trkpt>
<trkpt lat="57.175102" lon="9.437031">
<ele>14.922773</ele>
<time>2026-07-16T09:24:22.000Z</time>
</trkpt>
<trkpt lat="57.175129" lon="9.437092">
<ele>14.916713</ele>
<time>2026-07-16T09:24:23.000Z</time>
</trkpt>
<trkpt lat="57.175167" lon="9.437174">
<ele>14.908412</ele>
<time>2026-07-16T09:24:24.000Z</time>
</trkpt>
<trkpt lat="57.175201" lon="9.437243">
<ele>14.901237</ele>
<time>2026-07-16T09:24:25.000Z</time>
</trkpt>
<trkpt lat="57.175236" lon="9.437306">
<ele>14.894295</ele>
<time>2026-07-16T09:24:26.000Z</time>
</trkpt>
<trkpt lat="57.175266" lon="9.437367">
<ele>14.887958</ele>
<time>2026-07-16T09:24:27.000Z</time>
</trkpt>
<trkpt lat="57.175301" lon="9.437431">
<ele>14.880962</ele>
<time>2026-07-16T09:24:28.000Z</time>
</trkpt>
<trkpt lat="57.175331" lon="9.437493">
<ele>14.874567</ele>
<time>2026-07-16T09:24:29.000Z</time>
</trkpt>
<trkpt lat="57.175365" lon="9.437551">
<ele>14.869400</ele>
<time>2026-07-16T09:24:30.000Z</time>
</trkpt>
<trkpt lat="57.175396" lon="9.437606">
<ele>14.865981</ele>
<time>2026-07-16T09:24:31.000Z</time>
</trkpt>
<trkpt lat="57.175430" lon="9.437663">
<ele>14.862329</ele>
<time>2026-07-16T09:24:32.000Z</time>
</trkpt>
<trkpt lat="57.175465" lon="9.437718">
<ele>14.858674</ele>
<time>2026-07-16T09:24:33.000Z</time>
</trkpt>
<trkpt lat="57.175495" lon="9.437778">
<ele>14.855157</ele>
<time>2026-07-16T09:24:34.000Z</time>
</trkpt>
<trkpt lat="57.175529" lon="9.437834">
<ele>14.851533</ele>
<time>2026-07-16T09:24:35.000Z</time>
</trkpt>
<trkpt lat="57.175560" lon="9.437891">
<ele>14.848054</ele>
<time>2026-07-16T09:24:36.000Z</time>
</trkpt>
<trkpt lat="57.175594" lon="9.437953">
<ele>14.844254</ele>
<time>2026-07-16T09:24:37.000Z</time>
</trkpt>
<trkpt lat="57.175629" lon="9.438015">
<ele>14.840397</ele>
<time>2026-07-16T09:24:38.000Z</time>
</trkpt>
<trkpt lat="57.175659" lon="9.438080">
<ele>14.836718</ele>
<time>2026-07-16T09:24:39.000Z</time>
</trkpt>
<trkpt lat="57.175690" lon="9.438144">
<ele>14.833020</ele>
<time>2026-07-16T09:24:40.000Z</time>
</trkpt>
<trkpt lat="57.175720" lon="9.438209">
<ele>14.829341</ele>
<time>2026-07-16T09:24:41.000Z</time>
</trkpt>
<trkpt lat="57.175751" lon="9.438276">
<ele>14.825545</ele>
<time>2026-07-16T09:24:42.000Z</time>
</trkpt>
<trkpt lat="57.175781" lon="9.438347">
<ele>14.821666</ele>
<time>2026-07-16T09:24:43.000Z</time>
</trkpt>
<trkpt lat="57.175812" lon="9.438414">
<ele>14.817870</ele>
<time>2026-07-16T09:24:44.000Z</time>
</trkpt>
<trkpt lat="57.175842" lon="9.438484">
<ele>14.814025</ele>
<time>2026-07-16T09:24:45.000Z</time>
</trkpt>
<trkpt lat="57.175873" lon="9.438552">
<ele>14.810197</ele>
<time>2026-07-16T09:24:46.000Z</time>
</trkpt>
<trkpt lat="57.175899" lon="9.438620">
<ele>14.806611</ele>
<time>2026-07-16T09:24:47.000Z</time>
</trkpt>
<trkpt lat="57.175930" lon="9.438691">
<ele>14.802683</ele>
<time>2026-07-16T09:24:48.000Z</time>
</trkpt>
<trkpt lat="57.175961" lon="9.438745">
<ele>14.799293</ele>
<time>2026-07-16T09:24:49.000Z</time>
</trkpt>
<trkpt lat="57.175991" lon="9.438817">
<ele>14.795380</ele>
<time>2026-07-16T09:24:50.000Z</time>
</trkpt>
<trkpt lat="57.176025" lon="9.438883">
<ele>14.791457</ele>
<time>2026-07-16T09:24:51.000Z</time>
</trkpt>
<trkpt lat="57.176056" lon="9.438948">
<ele>14.787726</ele>
<time>2026-07-16T09:24:52.000Z</time>
</trkpt>
<trkpt lat="57.176086" lon="9.439011">
<ele>14.784113</ele>
<time>2026-07-16T09:24:53.000Z</time>
</trkpt>
<trkpt lat="57.176117" lon="9.439076">
<ele>14.780382</ele>
<time>2026-07-16T09:24:54.000Z</time>
</trkpt>
<trkpt lat="57.176147" lon="9.439145">
<ele>14.776571</ele>
<time>2026-07-16T09:24:55.000Z</time>
</trkpt>
<trkpt lat="57.176178" lon="9.439214">
<ele>14.772709</ele>
<time>2026-07-16T09:24:56.000Z</time>
</trkpt>
<trkpt lat="57.176209" lon="9.439281">
<ele>14.768914</ele>
<time>2026-07-16T09:24:57.000Z</time>
</trkpt>
<trkpt lat="57.176239" lon="9.439351">
<ele>14.765068</ele>
<time>2026-07-16T09:24:58.000Z</time>
</trkpt>
<trkpt lat="57.176266" lon="9.439417">
<ele>14.761506</ele>
<time>2026-07-16T09:24:59.000Z</time>
</trkpt>
<trkpt lat="57.176296" lon="9.439490">
<ele>14.757558</ele>
<time>2026-07-16T09:25:00.000Z</time>
</trkpt>
<trkpt lat="57.176327" lon="9.439557">
<ele>14.753763</ele>
<time>2026-07-16T09:25:01.000Z</time>
</trkpt>
<trkpt lat="57.176357" lon="9.439627">
<ele>14.749917</ele>
<time>2026-07-16T09:25:02.000Z</time>
</trkpt>
<trkpt lat="57.176388" lon="9.439692">
<ele>14.746187</ele>
<time>2026-07-16T09:25:03.000Z</time>
</trkpt>
<trkpt lat="57.176414" lon="9.439749">
<ele>14.742977</ele>
<time>2026-07-16T09:25:04.000Z</time>
</trkpt>
<trkpt lat="57.176449" lon="9.439802">
<ele>14.739377</ele>
<time>2026-07-16T09:25:05.000Z</time>
</trkpt>
<trkpt lat="57.176476" lon="9.439845">
<ele>14.736542</ele>
<time>2026-07-16T09:25:06.000Z</time>
</trkpt>
<trkpt lat="57.176502" lon="9.439878">
<ele>14.734033</ele>
<time>2026-07-16T09:25:07.000Z</time>
</trkpt>
<trkpt lat="57.176525" lon="9.439902">
<ele>14.731933</ele>
<time>2026-07-16T09:25:08.000Z</time>
</trkpt>
<trkpt lat="57.176544" lon="9.439933">
<ele>14.729916</ele>
<time>2026-07-16T09:25:09.000Z</time>
</trkpt>
<trkpt lat="57.176556" lon="9.439976">
<ele>14.728734</ele>
<time>2026-07-16T09:25:10.000Z</time>
</trkpt>
<trkpt lat="57.176556" lon="9.440030">
<ele>14.731959</ele>
<time>2026-07-16T09:25:11.000Z</time>
</trkpt>
<trkpt lat="57.176552" lon="9.440082">
<ele>14.735096</ele>
<time>2026-07-16T09:25:12.000Z</time>
</trkpt>
<trkpt lat="57.176537" lon="9.440149">
<ele>14.739425</ele>
<time>2026-07-16T09:25:13.000Z</time>
</trkpt>
<trkpt lat="57.176525" lon="9.440215">
<ele>14.743583</ele>
<time>2026-07-16T09:25:14.000Z</time>
</trkpt>
<trkpt lat="57.176510" lon="9.440286">
<ele>14.748134</ele>
<time>2026-07-16T09:25:15.000Z</time>
</trkpt>
<trkpt lat="57.176498" lon="9.440358">
<ele>14.752633</ele>
<time>2026-07-16T09:25:16.000Z</time>
</trkpt>
<trkpt lat="57.176487" lon="9.440436">
<ele>14.757446</ele>
<time>2026-07-16T09:25:17.000Z</time>
</trkpt>
<trkpt lat="57.176472" lon="9.440523">
<ele>14.762899</ele>
<time>2026-07-16T09:25:18.000Z</time>
</trkpt>
<trkpt lat="57.176460" lon="9.440606">
<ele>14.768029</ele>
<time>2026-07-16T09:25:19.000Z</time>
</trkpt>
<trkpt lat="57.176445" lon="9.440694">
<ele>14.773539</ele>
<time>2026-07-16T09:25:20.000Z</time>
</trkpt>
<trkpt lat="57.176434" lon="9.440783">
<ele>14.778991</ele>
<time>2026-07-16T09:25:21.000Z</time>
</trkpt>
<trkpt lat="57.176418" lon="9.440872">
<ele>14.784591</ele>
<time>2026-07-16T09:25:22.000Z</time>
</trkpt>
<trkpt lat="57.176407" lon="9.440959">
<ele>14.789926</ele>
<time>2026-07-16T09:25:23.000Z</time>
</trkpt>
<trkpt lat="57.176392" lon="9.441048">
<ele>14.795493</ele>
<time>2026-07-16T09:25:24.000Z</time>
</trkpt>
<trkpt lat="57.176384" lon="9.441139">
<ele>14.800999</ele>
<time>2026-07-16T09:25:25.000Z</time>
</trkpt>
<trkpt lat="57.176369" lon="9.441237">
<ele>14.807080</ele>
<time>2026-07-16T09:25:26.000Z</time>
</trkpt>
<trkpt lat="57.176357" lon="9.441329">
<ele>14.812732</ele>
<time>2026-07-16T09:25:27.000Z</time>
</trkpt>
<trkpt lat="57.176346" lon="9.441428">
<ele>14.818768</ele>
<time>2026-07-16T09:25:28.000Z</time>
</trkpt>
<trkpt lat="57.176338" lon="9.441523">
<ele>14.824510</ele>
<time>2026-07-16T09:25:29.000Z</time>
</trkpt>
<trkpt lat="57.176327" lon="9.441617">
<ele>14.830253</ele>
<time>2026-07-16T09:25:30.000Z</time>
</trkpt>
<trkpt lat="57.176315" lon="9.441711">
<ele>14.836021</ele>
<time>2026-07-16T09:25:31.000Z</time>
</trkpt>
<trkpt lat="57.176304" lon="9.441809">
<ele>14.841998</ele>
<time>2026-07-16T09:25:32.000Z</time>
</trkpt>
<trkpt lat="57.176296" lon="9.441909">
<ele>14.848035</ele>
<time>2026-07-16T09:25:33.000Z</time>
</trkpt>
<trkpt lat="57.176289" lon="9.442011">
<ele>14.854175</ele>
<time>2026-07-16T09:25:34.000Z</time>
</trkpt>
<trkpt lat="57.176277" lon="9.442109">
<ele>14.860176</ele>
<time>2026-07-16T09:25:35.000Z</time>
</trkpt>
<trkpt lat="57.176266" lon="9.442209">
<ele>14.866270</ele>
<time>2026-07-16T09:25:36.000Z</time>
</trkpt>
<trkpt lat="57.176258" lon="9.442308">
<ele>14.872248</ele>
<time>2026-07-16T09:25:37.000Z</time>
</trkpt>
<trkpt lat="57.176247" lon="9.442412">
<ele>14.878577</ele>
<time>2026-07-16T09:25:38.000Z</time>
</trkpt>
<trkpt lat="57.176239" lon="9.442516">
<ele>14.884850</ele>
<time>2026-07-16T09:25:39.000Z</time>
</trkpt>
<trkpt lat="57.176231" lon="9.442599">
<ele>14.889885</ele>
<time>2026-07-16T09:25:40.000Z</time>
</trkpt>
<trkpt lat="57.176220" lon="9.442716">
<ele>14.896977</ele>
<time>2026-07-16T09:25:41.000Z</time>
</trkpt>
<trkpt lat="57.176209" lon="9.442830">
<ele>14.903893</ele>
<time>2026-07-16T09:25:42.000Z</time>
</trkpt>
<trkpt lat="57.176201" lon="9.442927">
<ele>14.909753</ele>
<time>2026-07-16T09:25:43.000Z</time>
</trkpt>
<trkpt lat="57.176186" lon="9.443032">
<ele>14.916238</ele>
<time>2026-07-16T09:25:44.000Z</time>
</trkpt>
<trkpt lat="57.176178" lon="9.443136">
<ele>14.922512</ele>
<time>2026-07-16T09:25:45.000Z</time>
</trkpt>
<trkpt lat="57.176167" lon="9.443242">
<ele>14.932122</ele>
<time>2026-07-16T09:25:46.000Z</time>
</trkpt>
<trkpt lat="57.176155" lon="9.443340">
<ele>14.945511</ele>
<time>2026-07-16T09:25:47.000Z</time>
</trkpt>
<trkpt lat="57.176147" lon="9.443445">
<ele>14.959640</ele>
<time>2026-07-16T09:25:48.000Z</time>
</trkpt>
<trkpt lat="57.176136" lon="9.443547">
<ele>14.973499</ele>
<time>2026-07-16T09:25:49.000Z</time>
</trkpt>
<trkpt lat="57.176125" lon="9.443650">
<ele>14.987489</ele>
<time>2026-07-16T09:25:50.000Z</time>
</trkpt>
<trkpt lat="57.176117" lon="9.443752">
<ele>15.001223</ele>
<time>2026-07-16T09:25:51.000Z</time>
</trkpt>
<trkpt lat="57.176106" lon="9.443858">
<ele>15.015605</ele>
<time>2026-07-16T09:25:52.000Z</time>
</trkpt>
<trkpt lat="57.176098" lon="9.443962">
<ele>15.029603</ele>
<time>2026-07-16T09:25:53.000Z</time>
</trkpt>
<trkpt lat="57.176086" lon="9.444058">
<ele>15.042731</ele>
<time>2026-07-16T09:25:54.000Z</time>
</trkpt>
<trkpt lat="57.176075" lon="9.444157">
<ele>15.056198</ele>
<time>2026-07-16T09:25:55.000Z</time>
</trkpt>
<trkpt lat="57.176067" lon="9.444262">
<ele>15.070328</ele>
<time>2026-07-16T09:25:56.000Z</time>
</trkpt>
<trkpt lat="57.176056" lon="9.444362">
<ele>15.083926</ele>
<time>2026-07-16T09:25:57.000Z</time>
</trkpt>
<trkpt lat="57.176048" lon="9.444465">
<ele>15.097792</ele>
<time>2026-07-16T09:25:58.000Z</time>
</trkpt>
<trkpt lat="57.176037" lon="9.444568">
<ele>15.111782</ele>
<time>2026-07-16T09:25:59.000Z</time>
</trkpt>
<trkpt lat="57.176029" lon="9.444665">
<ele>15.124856</ele>
<time>2026-07-16T09:26:00.000Z</time>
</trkpt>
<trkpt lat="57.176014" lon="9.444772">
<ele>15.139584</ele>
<time>2026-07-16T09:26:01.000Z</time>
</trkpt>
<trkpt lat="57.176002" lon="9.444878">
<ele>15.154015</ele>
<time>2026-07-16T09:26:02.000Z</time>
</trkpt>
<trkpt lat="57.175995" lon="9.444984">
<ele>15.168245</ele>
<time>2026-07-16T09:26:03.000Z</time>
</trkpt>
<trkpt lat="57.175987" lon="9.445089">
<ele>15.182375</ele>
<time>2026-07-16T09:26:04.000Z</time>
</trkpt>
<trkpt lat="57.175980" lon="9.445190">
<ele>15.195944</ele>
<time>2026-07-16T09:26:05.000Z</time>
</trkpt>
<trkpt lat="57.175968" lon="9.445294">
<ele>15.210113</ele>
<time>2026-07-16T09:26:06.000Z</time>
</trkpt>
<trkpt lat="57.175957" lon="9.445395">
<ele>15.223841</ele>
<time>2026-07-16T09:26:07.000Z</time>
</trkpt>
<trkpt lat="57.175945" lon="9.445498">
<ele>15.237881</ele>
<time>2026-07-16T09:26:08.000Z</time>
</trkpt>
<trkpt lat="57.175938" lon="9.445601">
<ele>15.251714</ele>
<time>2026-07-16T09:26:09.000Z</time>
</trkpt>
<trkpt lat="57.175926" lon="9.445703">
<ele>15.265623</ele>
<time>2026-07-16T09:26:10.000Z</time>
</trkpt>
<trkpt lat="57.175919" lon="9.445804">
<ele>15.279192</ele>
<time>2026-07-16T09:26:11.000Z</time>
</trkpt>
<trkpt lat="57.175907" lon="9.445912">
<ele>15.293883</ele>
<time>2026-07-16T09:26:12.000Z</time>
</trkpt>
<trkpt lat="57.175899" lon="9.446015">
<ele>15.307749</ele>
<time>2026-07-16T09:26:13.000Z</time>
</trkpt>
<trkpt lat="57.175888" lon="9.446123">
<ele>15.322393</ele>
<time>2026-07-16T09:26:14.000Z</time>
</trkpt>
<trkpt lat="57.175877" lon="9.446228">
<ele>15.336644</ele>
<time>2026-07-16T09:26:15.000Z</time>
</trkpt>
<trkpt lat="57.175869" lon="9.446333">
<ele>15.350774</ele>
<time>2026-07-16T09:26:16.000Z</time>
</trkpt>
<trkpt lat="57.175861" lon="9.446433">
<ele>15.364245</ele>
<time>2026-07-16T09:26:17.000Z</time>
</trkpt>
<trkpt lat="57.175850" lon="9.446539">
<ele>15.377786</ele>
<time>2026-07-16T09:26:18.000Z</time>
</trkpt>
<trkpt lat="57.175838" lon="9.446641">
<ele>15.390532</ele>
<time>2026-07-16T09:26:19.000Z</time>
</trkpt>
<trkpt lat="57.175827" lon="9.446743">
<ele>15.403232</ele>
<time>2026-07-16T09:26:20.000Z</time>
</trkpt>
<trkpt lat="57.175819" lon="9.446848">
<ele>15.416180</ele>
<time>2026-07-16T09:26:21.000Z</time>
</trkpt>
<trkpt lat="57.175808" lon="9.446953">
<ele>15.429240</ele>
<time>2026-07-16T09:26:22.000Z</time>
</trkpt>
<trkpt lat="57.175797" lon="9.447053">
<ele>15.441701</ele>
<time>2026-07-16T09:26:23.000Z</time>
</trkpt>
<trkpt lat="57.175789" lon="9.447155">
<ele>15.454287</ele>
<time>2026-07-16T09:26:24.000Z</time>
</trkpt>
<trkpt lat="57.175777" lon="9.447258">
<ele>15.467152</ele>
<time>2026-07-16T09:26:25.000Z</time>
</trkpt>
<trkpt lat="57.175766" lon="9.447357">
<ele>15.479493</ele>
<time>2026-07-16T09:26:26.000Z</time>
</trkpt>
<trkpt lat="57.175758" lon="9.447450">
<ele>15.490992</ele>
<time>2026-07-16T09:26:27.000Z</time>
</trkpt>
<trkpt lat="57.175747" lon="9.447556">
<ele>15.504172</ele>
<time>2026-07-16T09:26:28.000Z</time>
</trkpt>
<trkpt lat="57.175735" lon="9.447660">
<ele>15.517157</ele>
<time>2026-07-16T09:26:29.000Z</time>
</trkpt>
<trkpt lat="57.175724" lon="9.447761">
<ele>15.529737</ele>
<time>2026-07-16T09:26:30.000Z</time>
</trkpt>
<trkpt lat="57.175713" lon="9.447854">
<ele>15.541362</ele>
<time>2026-07-16T09:26:31.000Z</time>
</trkpt>
<trkpt lat="57.175697" lon="9.447963">
<ele>15.555152</ele>
<time>2026-07-16T09:26:32.000Z</time>
</trkpt>
<trkpt lat="57.175682" lon="9.448068">
<ele>15.568412</ele>
<time>2026-07-16T09:26:33.000Z</time>
</trkpt>
<trkpt lat="57.175671" lon="9.448171">
<ele>15.581232</ele>
<time>2026-07-16T09:26:34.000Z</time>
</trkpt>
<trkpt lat="57.175655" lon="9.448272">
<ele>15.594082</ele>
<time>2026-07-16T09:26:35.000Z</time>
</trkpt>
<trkpt lat="57.175640" lon="9.448372">
<ele>15.606753</ele>
<time>2026-07-16T09:26:36.000Z</time>
</trkpt>
<trkpt lat="57.175621" lon="9.448475">
<ele>15.620040</ele>
<time>2026-07-16T09:26:37.000Z</time>
</trkpt>
<trkpt lat="57.175602" lon="9.448577">
<ele>15.633211</ele>
<time>2026-07-16T09:26:38.000Z</time>
</trkpt>
<trkpt lat="57.175583" lon="9.448676">
<ele>15.646036</ele>
<time>2026-07-16T09:26:39.000Z</time>
</trkpt>
<trkpt lat="57.175564" lon="9.448775">
<ele>15.658861</ele>
<time>2026-07-16T09:26:40.000Z</time>
</trkpt>
<trkpt lat="57.175545" lon="9.448879">
<ele>15.672263</ele>
<time>2026-07-16T09:26:41.000Z</time>
</trkpt>
<trkpt lat="57.175526" lon="9.448976">
<ele>15.684859</ele>
<time>2026-07-16T09:26:42.000Z</time>
</trkpt>
<trkpt lat="57.175503" lon="9.449072">
<ele>15.697676</ele>
<time>2026-07-16T09:26:43.000Z</time>
</trkpt>
<trkpt lat="57.175480" lon="9.449171">
<ele>15.710829</ele>
<time>2026-07-16T09:26:44.000Z</time>
</trkpt>
<trkpt lat="57.175457" lon="9.449267">
<ele>15.723647</ele>
<time>2026-07-16T09:26:45.000Z</time>
</trkpt>
<trkpt lat="57.175434" lon="9.449366">
<ele>15.736800</ele>
<time>2026-07-16T09:26:46.000Z</time>
</trkpt>
<trkpt lat="57.175411" lon="9.449460">
<ele>15.749395</ele>
<time>2026-07-16T09:26:47.000Z</time>
</trkpt>
<trkpt lat="57.175384" lon="9.449556">
<ele>15.762602</ele>
<time>2026-07-16T09:26:48.000Z</time>
</trkpt>
<trkpt lat="57.175362" lon="9.449645">
<ele>15.774800</ele>
<time>2026-07-16T09:26:49.000Z</time>
</trkpt>
<trkpt lat="57.175339" lon="9.449737">
<ele>15.791191</ele>
<time>2026-07-16T09:26:50.000Z</time>
</trkpt>
<trkpt lat="57.175312" lon="9.449828">
<ele>15.807975</ele>
<time>2026-07-16T09:26:51.000Z</time>
</trkpt>
<trkpt lat="57.175289" lon="9.449913">
<ele>15.823345</ele>
<time>2026-07-16T09:26:52.000Z</time>
</trkpt>
<trkpt lat="57.175266" lon="9.449998">
<ele>15.838716</ele>
<time>2026-07-16T09:26:53.000Z</time>
</trkpt>
<trkpt lat="57.175240" lon="9.450081">
<ele>15.854225</ele>
<time>2026-07-16T09:26:54.000Z</time>
</trkpt>
<trkpt lat="57.175213" lon="9.450162">
<ele>15.869610</ele>
<time>2026-07-16T09:26:55.000Z</time>
</trkpt>
<trkpt lat="57.175182" lon="9.450243">
<ele>15.885652</ele>
<time>2026-07-16T09:26:56.000Z</time>
</trkpt>
<trkpt lat="57.175156" lon="9.450321">
<ele>15.900466</ele>
<time>2026-07-16T09:26:57.000Z</time>
</trkpt>
<trkpt lat="57.175129" lon="9.450412">
<ele>15.917251</ele>
<time>2026-07-16T09:26:58.000Z</time>
</trkpt>
<trkpt lat="57.175102" lon="9.450501">
<ele>15.933752</ele>
<time>2026-07-16T09:26:59.000Z</time>
</trkpt>
<trkpt lat="57.175072" lon="9.450587">
<ele>15.950298</ele>
<time>2026-07-16T09:27:00.000Z</time>
</trkpt>
<trkpt lat="57.175041" lon="9.450676">
<ele>15.967413</ele>
<time>2026-07-16T09:27:01.000Z</time>
</trkpt>
<trkpt lat="57.175011" lon="9.450765">
<ele>15.984370</ele>
<time>2026-07-16T09:27:02.000Z</time>
</trkpt>
<trkpt lat="57.174984" lon="9.450854">
<ele>16.000871</ele>
<time>2026-07-16T09:27:03.000Z</time>
</trkpt>
<trkpt lat="57.174953" lon="9.450946">
<ele>16.018397</ele>
<time>2026-07-16T09:27:04.000Z</time>
</trkpt>
<trkpt lat="57.174927" lon="9.451036">
<ele>16.034897</ele>
<time>2026-07-16T09:27:05.000Z</time>
</trkpt>
<trkpt lat="57.174900" lon="9.451129">
<ele>16.051965</ele>
<time>2026-07-16T09:27:06.000Z</time>
</trkpt>
<trkpt lat="57.174870" lon="9.451224">
<ele>16.069754</ele>
<time>2026-07-16T09:27:07.000Z</time>
</trkpt>
<trkpt lat="57.174839" lon="9.451318">
<ele>16.087555</ele>
<time>2026-07-16T09:27:08.000Z</time>
</trkpt>
<trkpt lat="57.174808" lon="9.451408">
<ele>16.104808</ele>
<time>2026-07-16T09:27:09.000Z</time>
</trkpt>
<trkpt lat="57.174774" lon="9.451500">
<ele>16.122823</ele>
<time>2026-07-16T09:27:10.000Z</time>
</trkpt>
<trkpt lat="57.174744" lon="9.451594">
<ele>16.140471</ele>
<time>2026-07-16T09:27:11.000Z</time>
</trkpt>
<trkpt lat="57.174717" lon="9.451685">
<ele>16.157255</ele>
<time>2026-07-16T09:27:12.000Z</time>
</trkpt>
<trkpt lat="57.174686" lon="9.451774">
<ele>16.174371</ele>
<time>2026-07-16T09:27:13.000Z</time>
</trkpt>
<trkpt lat="57.174652" lon="9.451867">
<ele>16.192520</ele>
<time>2026-07-16T09:27:14.000Z</time>
</trkpt>
<trkpt lat="57.174622" lon="9.451956">
<ele>16.209477</ele>
<time>2026-07-16T09:27:15.000Z</time>
</trkpt>
<trkpt lat="57.174591" lon="9.452045">
<ele>16.226592</ele>
<time>2026-07-16T09:27:16.000Z</time>
</trkpt>
<trkpt lat="57.174561" lon="9.452139">
<ele>16.244241</ele>
<time>2026-07-16T09:27:17.000Z</time>
</trkpt>
<trkpt lat="57.174534" lon="9.452230">
<ele>16.261025</ele>
<time>2026-07-16T09:27:18.000Z</time>
</trkpt>
<trkpt lat="57.174503" lon="9.452320">
<ele>16.278278</ele>
<time>2026-07-16T09:27:19.000Z</time>
</trkpt>
<trkpt lat="57.174469" lon="9.452409">
<ele>16.295894</ele>
<time>2026-07-16T09:27:20.000Z</time>
</trkpt>
<trkpt lat="57.174442" lon="9.452500">
<ele>16.311674</ele>
<time>2026-07-16T09:27:21.000Z</time>
</trkpt>
<trkpt lat="57.174412" lon="9.452594">
<ele>16.320772</ele>
<time>2026-07-16T09:27:22.000Z</time>
</trkpt>
<trkpt lat="57.174381" lon="9.452686">
<ele>16.329807</ele>
<time>2026-07-16T09:27:23.000Z</time>
</trkpt>
<trkpt lat="57.174355" lon="9.452778">
<ele>16.338461</ele>
<time>2026-07-16T09:27:24.000Z</time>
</trkpt>
<trkpt lat="57.174328" lon="9.452861">
<ele>16.346534</ele>
<time>2026-07-16T09:27:25.000Z</time>
</trkpt>
<trkpt lat="57.174294" lon="9.452956">
<ele>16.356029</ele>
<time>2026-07-16T09:27:26.000Z</time>
</trkpt>
<trkpt lat="57.174267" lon="9.453048">
<ele>16.364754</ele>
<time>2026-07-16T09:27:27.000Z</time>
</trkpt>
<trkpt lat="57.174236" lon="9.453136">
<ele>16.373508</ele>
<time>2026-07-16T09:27:28.000Z</time>
</trkpt>
<trkpt lat="57.174206" lon="9.453221">
<ele>16.381967</ele>
<time>2026-07-16T09:27:29.000Z</time>
</trkpt>
<trkpt lat="57.174179" lon="9.453308">
<ele>16.390329</ele>
<time>2026-07-16T09:27:30.000Z</time>
</trkpt>
<trkpt lat="57.174152" lon="9.453395">
<ele>16.398690</ele>
<time>2026-07-16T09:27:31.000Z</time>
</trkpt>
<trkpt lat="57.174122" lon="9.453483">
<ele>16.407360</ele>
<time>2026-07-16T09:27:32.000Z</time>
</trkpt>
<trkpt lat="57.174091" lon="9.453574">
<ele>16.416324</ele>
<time>2026-07-16T09:27:33.000Z</time>
</trkpt>
<trkpt lat="57.174061" lon="9.453661">
<ele>16.424924</ele>
<time>2026-07-16T09:27:34.000Z</time>
</trkpt>
<trkpt lat="57.174030" lon="9.453749">
<ele>16.433678</ele>
<time>2026-07-16T09:27:35.000Z</time>
</trkpt>
<trkpt lat="57.174004" lon="9.453841">
<ele>16.442331</ele>
<time>2026-07-16T09:27:36.000Z</time>
</trkpt>
<trkpt lat="57.173973" lon="9.453930">
<ele>16.451155</ele>
<time>2026-07-16T09:27:37.000Z</time>
</trkpt>
<trkpt lat="57.173946" lon="9.454020">
<ele>16.459734</ele>
<time>2026-07-16T09:27:38.000Z</time>
</trkpt>
<trkpt lat="57.173916" lon="9.454113">
<ele>16.468760</ele>
<time>2026-07-16T09:27:39.000Z</time>
</trkpt>
<trkpt lat="57.173889" lon="9.454197">
<ele>16.476905</ele>
<time>2026-07-16T09:27:40.000Z</time>
</trkpt>
<trkpt lat="57.173859" lon="9.454291">
<ele>16.486003</ele>
<time>2026-07-16T09:27:41.000Z</time>
</trkpt>
<trkpt lat="57.173828" lon="9.454388">
<ele>16.495395</ele>
<time>2026-07-16T09:27:42.000Z</time>
</trkpt>
<trkpt lat="57.173798" lon="9.454477">
<ele>16.504136</ele>
<time>2026-07-16T09:27:43.000Z</time>
</trkpt>
<trkpt lat="57.173767" lon="9.454566">
<ele>16.512960</ele>
<time>2026-07-16T09:27:44.000Z</time>
</trkpt>
<trkpt lat="57.173737" lon="9.454656">
<ele>16.521772</ele>
<time>2026-07-16T09:27:45.000Z</time>
</trkpt>
<trkpt lat="57.173706" lon="9.454743">
<ele>16.530456</ele>
<time>2026-07-16T09:27:46.000Z</time>
</trkpt>
<trkpt lat="57.173676" lon="9.454829">
<ele>16.538985</ele>
<time>2026-07-16T09:27:47.000Z</time>
</trkpt>
<trkpt lat="57.173649" lon="9.454918">
<ele>16.547492</ele>
<time>2026-07-16T09:27:48.000Z</time>
</trkpt>
<trkpt lat="57.173622" lon="9.455006">
<ele>16.555926</ele>
<time>2026-07-16T09:27:49.000Z</time>
</trkpt>
<trkpt lat="57.173592" lon="9.455093">
<ele>16.564526</ele>
<time>2026-07-16T09:27:50.000Z</time>
</trkpt>
<trkpt lat="57.173561" lon="9.455186">
<ele>16.573632</ele>
<time>2026-07-16T09:27:51.000Z</time>
</trkpt>
<trkpt lat="57.173531" lon="9.455275">
<ele>16.582373</ele>
<time>2026-07-16T09:27:52.000Z</time>
</trkpt>
<trkpt lat="57.173504" lon="9.455366">
<ele>16.587552</ele>
<time>2026-07-16T09:27:53.000Z</time>
</trkpt>
<trkpt lat="57.173477" lon="9.455460">
<ele>16.588050</ele>
<time>2026-07-16T09:27:54.000Z</time>
</trkpt>
<trkpt lat="57.173447" lon="9.455549">
<ele>16.588540</ele>
<time>2026-07-16T09:27:55.000Z</time>
</trkpt>
<trkpt lat="57.173416" lon="9.455636">
<ele>16.589027</ele>
<time>2026-07-16T09:27:56.000Z</time>
</trkpt>
<trkpt lat="57.173389" lon="9.455726">
<ele>16.589509</ele>
<time>2026-07-16T09:27:57.000Z</time>
</trkpt>
<trkpt lat="57.173363" lon="9.455812">
<ele>16.589969</ele>
<time>2026-07-16T09:27:58.000Z</time>
</trkpt>
<trkpt lat="57.173332" lon="9.455901">
<ele>16.590464</ele>
<time>2026-07-16T09:27:59.000Z</time>
</trkpt>
<trkpt lat="57.173302" lon="9.455985">
<ele>16.590935</ele>
<time>2026-07-16T09:28:00.000Z</time>
</trkpt>
<trkpt lat="57.173271" lon="9.456080">
<ele>16.591454</ele>
<time>2026-07-16T09:28:01.000Z</time>
</trkpt>
<trkpt lat="57.173245" lon="9.456170">
<ele>16.591931</ele>
<time>2026-07-16T09:28:02.000Z</time>
</trkpt>
<trkpt lat="57.173214" lon="9.456258">
<ele>16.592422</ele>
<time>2026-07-16T09:28:03.000Z</time>
</trkpt>
<trkpt lat="57.173187" lon="9.456348">
<ele>16.592903</ele>
<time>2026-07-16T09:28:04.000Z</time>
</trkpt>
<trkpt lat="57.173161" lon="9.456434">
<ele>16.593364</ele>
<time>2026-07-16T09:28:05.000Z</time>
</trkpt>
<trkpt lat="57.173130" lon="9.456525">
<ele>16.593867</ele>
<time>2026-07-16T09:28:06.000Z</time>
</trkpt>
<trkpt lat="57.173096" lon="9.456616">
<ele>16.594384</ele>
<time>2026-07-16T09:28:07.000Z</time>
</trkpt>
<trkpt lat="57.173069" lon="9.456713">
<ele>16.594894</ele>
<time>2026-07-16T09:28:08.000Z</time>
</trkpt>
<trkpt lat="57.173042" lon="9.456803">
<ele>16.595375</ele>
<time>2026-07-16T09:28:09.000Z</time>
</trkpt>
<trkpt lat="57.173012" lon="9.456892">
<ele>16.595866</ele>
<time>2026-07-16T09:28:10.000Z</time>
</trkpt>
<trkpt lat="57.172985" lon="9.456979">
<ele>16.596335</ele>
<time>2026-07-16T09:28:11.000Z</time>
</trkpt>
<trkpt lat="57.172955" lon="9.457079">
<ele>16.596870</ele>
<time>2026-07-16T09:28:12.000Z</time>
</trkpt>
<trkpt lat="57.172924" lon="9.457171">
<ele>16.597376</ele>
<time>2026-07-16T09:28:13.000Z</time>
</trkpt>
<trkpt lat="57.172897" lon="9.457252">
<ele>16.597821</ele>
<time>2026-07-16T09:28:14.000Z</time>
</trkpt>
<trkpt lat="57.172863" lon="9.457347">
<ele>16.598354</ele>
<time>2026-07-16T09:28:15.000Z</time>
</trkpt>
<trkpt lat="57.172832" lon="9.457442">
<ele>16.598873</ele>
<time>2026-07-16T09:28:16.000Z</time>
</trkpt>
<trkpt lat="57.172802" lon="9.457530">
<ele>16.599359</ele>
<time>2026-07-16T09:28:17.000Z</time>
</trkpt>
<trkpt lat="57.172775" lon="9.457619">
<ele>16.599836</ele>
<time>2026-07-16T09:28:18.000Z</time>
</trkpt>
<trkpt lat="57.172745" lon="9.457707">
<ele>16.600323</ele>
<time>2026-07-16T09:28:19.000Z</time>
</trkpt>
<trkpt lat="57.172714" lon="9.457799">
<ele>16.600830</ele>
<time>2026-07-16T09:28:20.000Z</time>
</trkpt>
<trkpt lat="57.172688" lon="9.457892">
<ele>16.601319</ele>
<time>2026-07-16T09:28:21.000Z</time>
</trkpt>
<trkpt lat="57.172657" lon="9.457981">
<ele>16.601814</ele>
<time>2026-07-16T09:28:22.000Z</time>
</trkpt>
<trkpt lat="57.172627" lon="9.458073">
<ele>16.602317</ele>
<time>2026-07-16T09:28:23.000Z</time>
</trkpt>
<trkpt lat="57.172596" lon="9.458163">
<ele>16.602815</ele>
<time>2026-07-16T09:28:24.000Z</time>
</trkpt>
<trkpt lat="57.172565" lon="9.458250">
<ele>16.622716</ele>
<time>2026-07-16T09:28:25.000Z</time>
</trkpt>
<trkpt lat="57.172539" lon="9.458340">
<ele>16.644599</ele>
<time>2026-07-16T09:28:26.000Z</time>
</trkpt>
<trkpt lat="57.172512" lon="9.458424">
<ele>16.665554</ele>
<time>2026-07-16T09:28:27.000Z</time>
</trkpt>
<trkpt lat="57.172478" lon="9.458519">
<ele>16.689980</ele>
<time>2026-07-16T09:28:28.000Z</time>
</trkpt>
<trkpt lat="57.172451" lon="9.458610">
<ele>16.712240</ele>
<time>2026-07-16T09:28:29.000Z</time>
</trkpt>
<trkpt lat="57.172420" lon="9.458701">
<ele>16.735302</ele>
<time>2026-07-16T09:28:30.000Z</time>
</trkpt>
<trkpt lat="57.172390" lon="9.458789">
<ele>16.757608</ele>
<time>2026-07-16T09:28:31.000Z</time>
</trkpt>
<trkpt lat="57.172363" lon="9.458878">
<ele>16.779492</ele>
<time>2026-07-16T09:28:32.000Z</time>
</trkpt>
<trkpt lat="57.172333" lon="9.458969">
<ele>16.802346</ele>
<time>2026-07-16T09:28:33.000Z</time>
</trkpt>
<trkpt lat="57.172302" lon="9.459059">
<ele>16.825227</ele>
<time>2026-07-16T09:28:34.000Z</time>
</trkpt>
<trkpt lat="57.172276" lon="9.459145">
<ele>16.846356</ele>
<time>2026-07-16T09:28:35.000Z</time>
</trkpt>
<trkpt lat="57.172245" lon="9.459238">
<ele>16.869782</ele>
<time>2026-07-16T09:28:36.000Z</time>
</trkpt>
<trkpt lat="57.172218" lon="9.459321">
<ele>16.890553</ele>
<time>2026-07-16T09:28:37.000Z</time>
</trkpt>
<trkpt lat="57.172188" lon="9.459415">
<ele>16.913959</ele>
<time>2026-07-16T09:28:38.000Z</time>
</trkpt>
<trkpt lat="57.172161" lon="9.459506">
<ele>16.936219</ele>
<time>2026-07-16T09:28:39.000Z</time>
</trkpt>
<trkpt lat="57.172131" lon="9.459596">
<ele>16.958890</ele>
<time>2026-07-16T09:28:40.000Z</time>
</trkpt>
<trkpt lat="57.172104" lon="9.459681">
<ele>16.980029</ele>
<time>2026-07-16T09:28:41.000Z</time>
</trkpt>
<trkpt lat="57.172073" lon="9.459773">
<ele>17.003273</ele>
<time>2026-07-16T09:28:42.000Z</time>
</trkpt>
<trkpt lat="57.172043" lon="9.459863">
<ele>17.025944</ele>
<time>2026-07-16T09:28:43.000Z</time>
</trkpt>
<trkpt lat="57.172012" lon="9.459951">
<ele>17.048464</ele>
<time>2026-07-16T09:28:44.000Z</time>
</trkpt>
<trkpt lat="57.171982" lon="9.460036">
<ele>17.070228</ele>
<time>2026-07-16T09:28:45.000Z</time>
</trkpt>
<trkpt lat="57.171951" lon="9.460126">
<ele>17.093108</ele>
<time>2026-07-16T09:28:46.000Z</time>
</trkpt>
<trkpt lat="57.171921" lon="9.460210">
<ele>17.114693</ele>
<time>2026-07-16T09:28:47.000Z</time>
</trkpt>
<trkpt lat="57.171890" lon="9.460303">
<ele>17.138120</ele>
<time>2026-07-16T09:28:48.000Z</time>
</trkpt>
<trkpt lat="57.171860" lon="9.460396">
<ele>17.161341</ele>
<time>2026-07-16T09:28:49.000Z</time>
</trkpt>
<trkpt lat="57.171829" lon="9.460488">
<ele>17.184585</ele>
<time>2026-07-16T09:28:50.000Z</time>
</trkpt>
<trkpt lat="57.171799" lon="9.460581">
<ele>17.207807</ele>
<time>2026-07-16T09:28:51.000Z</time>
</trkpt>
<trkpt lat="57.171772" lon="9.460669">
<ele>17.229505</ele>
<time>2026-07-16T09:28:52.000Z</time>
</trkpt>
<trkpt lat="57.171745" lon="9.460759">
<ele>17.251577</ele>
<time>2026-07-16T09:28:53.000Z</time>
</trkpt>
<trkpt lat="57.171715" lon="9.460845">
<ele>17.273521</ele>
<time>2026-07-16T09:28:54.000Z</time>
</trkpt>
<trkpt lat="57.171688" lon="9.460922">
<ele>17.293199</ele>
<time>2026-07-16T09:28:55.000Z</time>
</trkpt>
<trkpt lat="57.171665" lon="9.461006">
<ele>17.313393</ele>
<time>2026-07-16T09:28:56.000Z</time>
</trkpt>
<trkpt lat="57.171638" lon="9.461088">
<ele>17.324920</ele>
<time>2026-07-16T09:28:57.000Z</time>
</trkpt>
<trkpt lat="57.171608" lon="9.461168">
<ele>17.335932</ele>
<time>2026-07-16T09:28:58.000Z</time>
</trkpt>
<trkpt lat="57.171577" lon="9.461251">
<ele>17.347342</ele>
<time>2026-07-16T09:28:59.000Z</time>
</trkpt>
<trkpt lat="57.171551" lon="9.461336">
<ele>17.358391</ele>
<time>2026-07-16T09:29:00.000Z</time>
</trkpt>
<trkpt lat="57.171524" lon="9.461425">
<ele>17.369936</ele>
<time>2026-07-16T09:29:01.000Z</time>
</trkpt>
<trkpt lat="57.171494" lon="9.461515">
<ele>17.381897</ele>
<time>2026-07-16T09:29:02.000Z</time>
</trkpt>
<trkpt lat="57.171463" lon="9.461606">
<ele>17.394063</ele>
<time>2026-07-16T09:29:03.000Z</time>
</trkpt>
<trkpt lat="57.171433" lon="9.461698">
<ele>17.406217</ele>
<time>2026-07-16T09:29:04.000Z</time>
</trkpt>
<trkpt lat="57.171402" lon="9.461783">
<ele>17.417814</ele>
<time>2026-07-16T09:29:05.000Z</time>
</trkpt>
<trkpt lat="57.171371" lon="9.461872">
<ele>17.429790</ele>
<time>2026-07-16T09:29:06.000Z</time>
</trkpt>
<trkpt lat="57.171337" lon="9.461959">
<ele>17.441931</ele>
<time>2026-07-16T09:29:07.000Z</time>
</trkpt>
<trkpt lat="57.171310" lon="9.462056">
<ele>17.454275</ele>
<time>2026-07-16T09:29:08.000Z</time>
</trkpt>
<trkpt lat="57.171284" lon="9.462151">
<ele>17.466322</ele>
<time>2026-07-16T09:29:09.000Z</time>
</trkpt>
<trkpt lat="57.171257" lon="9.462243">
<ele>17.478165</ele>
<time>2026-07-16T09:29:10.000Z</time>
</trkpt>
<trkpt lat="57.171230" lon="9.462338">
<ele>17.490308</ele>
<time>2026-07-16T09:29:11.000Z</time>
</trkpt>
<trkpt lat="57.171200" lon="9.462428">
<ele>17.502268</ele>
<time>2026-07-16T09:29:12.000Z</time>
</trkpt>
<trkpt lat="57.171173" lon="9.462523">
<ele>17.514411</ele>
<time>2026-07-16T09:29:13.000Z</time>
</trkpt>
<trkpt lat="57.171143" lon="9.462622">
<ele>17.527250</ele>
<time>2026-07-16T09:29:14.000Z</time>
</trkpt>
<trkpt lat="57.171112" lon="9.462710">
<ele>17.539131</ele>
<time>2026-07-16T09:29:15.000Z</time>
</trkpt>
<trkpt lat="57.171082" lon="9.462810">
<ele>17.552069</ele>
<time>2026-07-16T09:29:16.000Z</time>
</trkpt>
<trkpt lat="57.171051" lon="9.462902">
<ele>17.564332</ele>
<time>2026-07-16T09:29:17.000Z</time>
</trkpt>
<trkpt lat="57.171024" lon="9.462993">
<ele>17.576076</ele>
<time>2026-07-16T09:29:18.000Z</time>
</trkpt>
<trkpt lat="57.170994" lon="9.463084">
<ele>17.588133</ele>
<time>2026-07-16T09:29:19.000Z</time>
</trkpt>
<trkpt lat="57.170967" lon="9.463172">
<ele>17.599580</ele>
<time>2026-07-16T09:29:20.000Z</time>
</trkpt>
<trkpt lat="57.170933" lon="9.463270">
<ele>17.612751</ele>
<time>2026-07-16T09:29:21.000Z</time>
</trkpt>
<trkpt lat="57.170902" lon="9.463365">
<ele>17.625304</ele>
<time>2026-07-16T09:29:22.000Z</time>
</trkpt>
<trkpt lat="57.170868" lon="9.463461">
<ele>17.638285</ele>
<time>2026-07-16T09:29:23.000Z</time>
</trkpt>
<trkpt lat="57.170837" lon="9.463557">
<ele>17.650935</ele>
<time>2026-07-16T09:29:24.000Z</time>
</trkpt>
<trkpt lat="57.170807" lon="9.463651">
<ele>17.663283</ele>
<time>2026-07-16T09:29:25.000Z</time>
</trkpt>
<trkpt lat="57.170776" lon="9.463747">
<ele>17.675933</ele>
<time>2026-07-16T09:29:26.000Z</time>
</trkpt>
<trkpt lat="57.170746" lon="9.463840">
<ele>17.688184</ele>
<time>2026-07-16T09:29:27.000Z</time>
</trkpt>
<trkpt lat="57.170715" lon="9.463933">
<ele>17.702062</ele>
<time>2026-07-16T09:29:28.000Z</time>
</trkpt>
<trkpt lat="57.170689" lon="9.464029">
<ele>17.716029</ele>
<time>2026-07-16T09:29:29.000Z</time>
</trkpt>
<trkpt lat="57.170654" lon="9.464122">
<ele>17.730763</ele>
<time>2026-07-16T09:29:30.000Z</time>
</trkpt>
<trkpt lat="57.170624" lon="9.464212">
<ele>17.744513</ele>
<time>2026-07-16T09:29:31.000Z</time>
</trkpt>
<trkpt lat="57.170597" lon="9.464300">
<ele>17.757673</ele>
<time>2026-07-16T09:29:32.000Z</time>
</trkpt>
<trkpt lat="57.170563" lon="9.464401">
<ele>17.773146</ele>
<time>2026-07-16T09:29:33.000Z</time>
</trkpt>
<trkpt lat="57.170532" lon="9.464499">
<ele>17.787912</ele>
<time>2026-07-16T09:29:34.000Z</time>
</trkpt>
<trkpt lat="57.170502" lon="9.464592">
<ele>17.801997</ele>
<time>2026-07-16T09:29:35.000Z</time>
</trkpt>
<trkpt lat="57.170475" lon="9.464679">
<ele>17.815043</ele>
<time>2026-07-16T09:29:36.000Z</time>
</trkpt>
<trkpt lat="57.170441" lon="9.464778">
<ele>17.830296</ele>
<time>2026-07-16T09:29:37.000Z</time>
</trkpt>
<trkpt lat="57.170406" lon="9.464873">
<ele>17.845244</ele>
<time>2026-07-16T09:29:38.000Z</time>
</trkpt>
<trkpt lat="57.170376" lon="9.464962">
<ele>17.858884</ele>
<time>2026-07-16T09:29:39.000Z</time>
</trkpt>
<trkpt lat="57.170345" lon="9.465058">
<ele>17.873426</ele>
<time>2026-07-16T09:29:40.000Z</time>
</trkpt>
<trkpt lat="57.170315" lon="9.465150">
<ele>17.887399</ele>
<time>2026-07-16T09:29:41.000Z</time>
</trkpt>
<trkpt lat="57.170284" lon="9.465247">
<ele>17.902054</ele>
<time>2026-07-16T09:29:42.000Z</time>
</trkpt>
<trkpt lat="57.170254" lon="9.465338">
<ele>17.915915</ele>
<time>2026-07-16T09:29:43.000Z</time>
</trkpt>
<trkpt lat="57.170223" lon="9.465440">
<ele>17.931134</ele>
<time>2026-07-16T09:29:44.000Z</time>
</trkpt>
<trkpt lat="57.170189" lon="9.465537">
<ele>17.946167</ele>
<time>2026-07-16T09:29:45.000Z</time>
</trkpt>
<trkpt lat="57.170162" lon="9.465634">
<ele>17.960358</ele>
<time>2026-07-16T09:29:46.000Z</time>
</trkpt>
<trkpt lat="57.170132" lon="9.465721">
<ele>17.973777</ele>
<time>2026-07-16T09:29:47.000Z</time>
</trkpt>
<trkpt lat="57.170101" lon="9.465816">
<ele>17.988208</ele>
<time>2026-07-16T09:29:48.000Z</time>
</trkpt>
<trkpt lat="57.170074" lon="9.465904">
<ele>18.001368</ele>
<time>2026-07-16T09:29:49.000Z</time>
</trkpt>
<trkpt lat="57.170036" lon="9.466007">
<ele>18.017583</ele>
<time>2026-07-16T09:29:50.000Z</time>
</trkpt>
<trkpt lat="57.170002" lon="9.466111">
<ele>18.033389</ele>
<time>2026-07-16T09:29:51.000Z</time>
</trkpt>
<trkpt lat="57.169971" lon="9.466211">
<ele>18.048381</ele>
<time>2026-07-16T09:29:52.000Z</time>
</trkpt>
<trkpt lat="57.169941" lon="9.466309">
<ele>18.063029</ele>
<time>2026-07-16T09:29:53.000Z</time>
</trkpt>
<trkpt lat="57.169910" lon="9.466398">
<ele>18.076797</ele>
<time>2026-07-16T09:29:54.000Z</time>
</trkpt>
<trkpt lat="57.169884" lon="9.466493">
<ele>18.090647</ele>
<time>2026-07-16T09:29:55.000Z</time>
</trkpt>
<trkpt lat="57.169853" lon="9.466582">
<ele>18.104415</ele>
<time>2026-07-16T09:29:56.000Z</time>
</trkpt>
<trkpt lat="57.169823" lon="9.466675">
<ele>18.118499</ele>
<time>2026-07-16T09:29:57.000Z</time>
</trkpt>
<trkpt lat="57.169785" lon="9.466775">
<ele>18.122082</ele>
<time>2026-07-16T09:29:58.000Z</time>
</trkpt>
<trkpt lat="57.169754" lon="9.466867">
<ele>18.121974</ele>
<time>2026-07-16T09:29:59.000Z</time>
</trkpt>
<trkpt lat="57.169727" lon="9.466949">
<ele>18.121877</ele>
<time>2026-07-16T09:30:00.000Z</time>
</trkpt>
<trkpt lat="57.169689" lon="9.467062">
<ele>18.121744</ele>
<time>2026-07-16T09:30:01.000Z</time>
</trkpt>
<trkpt lat="57.169659" lon="9.467165">
<ele>18.121627</ele>
<time>2026-07-16T09:30:02.000Z</time>
</trkpt>
<trkpt lat="57.169624" lon="9.467261">
<ele>18.121511</ele>
<time>2026-07-16T09:30:03.000Z</time>
</trkpt>
<trkpt lat="57.169594" lon="9.467357">
<ele>18.121399</ele>
<time>2026-07-16T09:30:04.000Z</time>
</trkpt>
<trkpt lat="57.169559" lon="9.467459">
<ele>18.121278</ele>
<time>2026-07-16T09:30:05.000Z</time>
</trkpt>
<trkpt lat="57.169529" lon="9.467553">
<ele>18.121169</ele>
<time>2026-07-16T09:30:06.000Z</time>
</trkpt>
<trkpt lat="57.169498" lon="9.467652">
<ele>18.121054</ele>
<time>2026-07-16T09:30:07.000Z</time>
</trkpt>
<trkpt lat="57.169464" lon="9.467752">
<ele>18.120936</ele>
<time>2026-07-16T09:30:08.000Z</time>
</trkpt>
<trkpt lat="57.169434" lon="9.467850">
<ele>18.120823</ele>
<time>2026-07-16T09:30:09.000Z</time>
</trkpt>
<trkpt lat="57.169403" lon="9.467944">
<ele>18.120712</ele>
<time>2026-07-16T09:30:10.000Z</time>
</trkpt>
<trkpt lat="57.169369" lon="9.468041">
<ele>18.120596</ele>
<time>2026-07-16T09:30:11.000Z</time>
</trkpt>
<trkpt lat="57.169338" lon="9.468144">
<ele>18.120478</ele>
<time>2026-07-16T09:30:12.000Z</time>
</trkpt>
<trkpt lat="57.169304" lon="9.468243">
<ele>18.120360</ele>
<time>2026-07-16T09:30:13.000Z</time>
</trkpt>
<trkpt lat="57.169273" lon="9.468339">
<ele>18.120248</ele>
<time>2026-07-16T09:30:14.000Z</time>
</trkpt>
<trkpt lat="57.169239" lon="9.468434">
<ele>18.120134</ele>
<time>2026-07-16T09:30:15.000Z</time>
</trkpt>
<trkpt lat="57.169209" lon="9.468532">
<ele>18.120021</ele>
<time>2026-07-16T09:30:16.000Z</time>
</trkpt>
<trkpt lat="57.169182" lon="9.468626">
<ele>18.119914</ele>
<time>2026-07-16T09:30:17.000Z</time>
</trkpt>
<trkpt lat="57.169144" lon="9.468727">
<ele>18.119791</ele>
<time>2026-07-16T09:30:18.000Z</time>
</trkpt>
<trkpt lat="57.169117" lon="9.468827">
<ele>18.119679</ele>
<time>2026-07-16T09:30:19.000Z</time>
</trkpt>
<trkpt lat="57.169086" lon="9.468926">
<ele>18.119564</ele>
<time>2026-07-16T09:30:20.000Z</time>
</trkpt>
<trkpt lat="57.169056" lon="9.469021">
<ele>18.119454</ele>
<time>2026-07-16T09:30:21.000Z</time>
</trkpt>
<trkpt lat="57.169025" lon="9.469113">
<ele>18.119345</ele>
<time>2026-07-16T09:30:22.000Z</time>
</trkpt>
<trkpt lat="57.168995" lon="9.469208">
<ele>18.119235</ele>
<time>2026-07-16T09:30:23.000Z</time>
</trkpt>
<trkpt lat="57.168964" lon="9.469299">
<ele>18.119127</ele>
<time>2026-07-16T09:30:24.000Z</time>
</trkpt>
<trkpt lat="57.168930" lon="9.469400">
<ele>18.119007</ele>
<time>2026-07-16T09:30:25.000Z</time>
</trkpt>
<trkpt lat="57.168899" lon="9.469495">
<ele>18.118896</ele>
<time>2026-07-16T09:30:26.000Z</time>
</trkpt>
<trkpt lat="57.168869" lon="9.469596">
<ele>18.117594</ele>
<time>2026-07-16T09:30:27.000Z</time>
</trkpt>
<trkpt lat="57.168835" lon="9.469696">
<ele>18.115361</ele>
<time>2026-07-16T09:30:28.000Z</time>
</trkpt>
<trkpt lat="57.168804" lon="9.469790">
<ele>18.113280</ele>
<time>2026-07-16T09:30:29.000Z</time>
</trkpt>
<trkpt lat="57.168770" lon="9.469890">
<ele>18.111048</ele>
<time>2026-07-16T09:30:30.000Z</time>
</trkpt>
<trkpt lat="57.168739" lon="9.469984">
<ele>18.108967</ele>
<time>2026-07-16T09:30:31.000Z</time>
</trkpt>
<trkpt lat="57.168709" lon="9.470093">
<ele>18.106654</ele>
<time>2026-07-16T09:30:32.000Z</time>
</trkpt>
<trkpt lat="57.168674" lon="9.470195">
<ele>18.104371</ele>
<time>2026-07-16T09:30:33.000Z</time>
</trkpt>
<trkpt lat="57.168640" lon="9.470297">
<ele>18.102106</ele>
<time>2026-07-16T09:30:34.000Z</time>
</trkpt>
<trkpt lat="57.168610" lon="9.470400">
<ele>18.099895</ele>
<time>2026-07-16T09:30:35.000Z</time>
</trkpt>
<trkpt lat="57.168575" lon="9.470502">
<ele>18.097611</ele>
<time>2026-07-16T09:30:36.000Z</time>
</trkpt>
<trkpt lat="57.168541" lon="9.470604">
<ele>18.095347</ele>
<time>2026-07-16T09:30:37.000Z</time>
</trkpt>
<trkpt lat="57.168510" lon="9.470707">
<ele>18.093118</ele>
<time>2026-07-16T09:30:38.000Z</time>
</trkpt>
<trkpt lat="57.168476" lon="9.470810">
<ele>18.090837</ele>
<time>2026-07-16T09:30:39.000Z</time>
</trkpt>
<trkpt lat="57.168442" lon="9.470910">
<ele>18.088605</ele>
<time>2026-07-16T09:30:40.000Z</time>
</trkpt>
<trkpt lat="57.168407" lon="9.471010">
<ele>18.086353</ele>
<time>2026-07-16T09:30:41.000Z</time>
</trkpt>
<trkpt lat="57.168365" lon="9.471104">
<ele>18.084049</ele>
<time>2026-07-16T09:30:42.000Z</time>
</trkpt>
<trkpt lat="57.168327" lon="9.471199">
<ele>18.081816</ele>
<time>2026-07-16T09:30:43.000Z</time>
</trkpt>
<trkpt lat="57.168289" lon="9.471297">
<ele>18.079537</ele>
<time>2026-07-16T09:30:44.000Z</time>
</trkpt>
<trkpt lat="57.168255" lon="9.471396">
<ele>18.077321</ele>
<time>2026-07-16T09:30:45.000Z</time>
</trkpt>
<trkpt lat="57.168232" lon="9.471502">
<ele>18.075161</ele>
<time>2026-07-16T09:30:46.000Z</time>
</trkpt>
<trkpt lat="57.168194" lon="9.471596">
<ele>18.072943</ele>
<time>2026-07-16T09:30:47.000Z</time>
</trkpt>
<trkpt lat="57.168163" lon="9.471697">
<ele>18.070748</ele>
<time>2026-07-16T09:30:48.000Z</time>
</trkpt>
<trkpt lat="57.168129" lon="9.471797">
<ele>18.068515</ele>
<time>2026-07-16T09:30:49.000Z</time>
</trkpt>
<trkpt lat="57.168095" lon="9.471902">
<ele>18.066202</ele>
<time>2026-07-16T09:30:50.000Z</time>
</trkpt>
<trkpt lat="57.168072" lon="9.472004">
<ele>18.064112</ele>
<time>2026-07-16T09:30:51.000Z</time>
</trkpt>
<trkpt lat="57.168049" lon="9.472099">
<ele>18.062144</ele>
<time>2026-07-16T09:30:52.000Z</time>
</trkpt>
<trkpt lat="57.168022" lon="9.472197">
<ele>18.060065</ele>
<time>2026-07-16T09:30:53.000Z</time>
</trkpt>
<trkpt lat="57.167999" lon="9.472297">
<ele>18.058010</ele>
<time>2026-07-16T09:30:54.000Z</time>
</trkpt>
<trkpt lat="57.167969" lon="9.472396">
<ele>18.056252</ele>
<time>2026-07-16T09:30:55.000Z</time>
</trkpt>
<trkpt lat="57.167938" lon="9.472499">
<ele>18.057749</ele>
<time>2026-07-16T09:30:56.000Z</time>
</trkpt>
<trkpt lat="57.167908" lon="9.472602">
<ele>18.059235</ele>
<time>2026-07-16T09:30:57.000Z</time>
</trkpt>
<trkpt lat="57.167877" lon="9.472702">
<ele>18.060699</ele>
<time>2026-07-16T09:30:58.000Z</time>
</trkpt>
<trkpt lat="57.167847" lon="9.472807">
<ele>18.062207</ele>
<time>2026-07-16T09:30:59.000Z</time>
</trkpt>
<trkpt lat="57.167809" lon="9.472907">
<ele>18.063759</ele>
<time>2026-07-16T09:31:00.000Z</time>
</trkpt>
<trkpt lat="57.167778" lon="9.473007">
<ele>18.065223</ele>
<time>2026-07-16T09:31:01.000Z</time>
</trkpt>
<trkpt lat="57.167744" lon="9.473109">
<ele>18.066744</ele>
<time>2026-07-16T09:31:02.000Z</time>
</trkpt>
<trkpt lat="57.167713" lon="9.473212">
<ele>18.068241</ele>
<time>2026-07-16T09:31:03.000Z</time>
</trkpt>
<trkpt lat="57.167679" lon="9.473315">
<ele>18.069774</ele>
<time>2026-07-16T09:31:04.000Z</time>
</trkpt>
<trkpt lat="57.167648" lon="9.473415">
<ele>18.071237</ele>
<time>2026-07-16T09:31:05.000Z</time>
</trkpt>
<trkpt lat="57.167614" lon="9.473519">
<ele>18.072781</ele>
<time>2026-07-16T09:31:06.000Z</time>
</trkpt>
<trkpt lat="57.167576" lon="9.473623">
<ele>18.074374</ele>
<time>2026-07-16T09:31:07.000Z</time>
</trkpt>
<trkpt lat="57.167545" lon="9.473726">
<ele>18.075871</ele>
<time>2026-07-16T09:31:08.000Z</time>
</trkpt>
<trkpt lat="57.167511" lon="9.473830">
<ele>18.077415</ele>
<time>2026-07-16T09:31:09.000Z</time>
</trkpt>
<trkpt lat="57.167477" lon="9.473930">
<ele>18.078915</ele>
<time>2026-07-16T09:31:10.000Z</time>
</trkpt>
<trkpt lat="57.167442" lon="9.474031">
<ele>18.080438</ele>
<time>2026-07-16T09:31:11.000Z</time>
</trkpt>
<trkpt lat="57.167404" lon="9.474132">
<ele>18.082000</ele>
<time>2026-07-16T09:31:12.000Z</time>
</trkpt>
<trkpt lat="57.167374" lon="9.474232">
<ele>18.083452</ele>
<time>2026-07-16T09:31:13.000Z</time>
</trkpt>
<trkpt lat="57.167339" lon="9.474333">
<ele>18.084976</ele>
<time>2026-07-16T09:31:14.000Z</time>
</trkpt>
<trkpt lat="57.167305" lon="9.474434">
<ele>18.086486</ele>
<time>2026-07-16T09:31:15.000Z</time>
</trkpt>
<trkpt lat="57.167271" lon="9.474534">
<ele>18.087986</ele>
<time>2026-07-16T09:31:16.000Z</time>
</trkpt>
<trkpt lat="57.167240" lon="9.474633">
<ele>18.089439</ele>
<time>2026-07-16T09:31:17.000Z</time>
</trkpt>
<trkpt lat="57.167210" lon="9.474735">
<ele>18.090914</ele>
<time>2026-07-16T09:31:18.000Z</time>
</trkpt>
<trkpt lat="57.167175" lon="9.474835">
<ele>18.092426</ele>
<time>2026-07-16T09:31:19.000Z</time>
</trkpt>
<trkpt lat="57.167141" lon="9.474934">
<ele>18.093916</ele>
<time>2026-07-16T09:31:20.000Z</time>
</trkpt>
<trkpt lat="57.167110" lon="9.475033">
<ele>18.095368</ele>
<time>2026-07-16T09:31:21.000Z</time>
</trkpt>
<trkpt lat="57.167076" lon="9.475134">
<ele>18.096879</ele>
<time>2026-07-16T09:31:22.000Z</time>
</trkpt>
<trkpt lat="57.167042" lon="9.475234">
<ele>18.098613</ele>
<time>2026-07-16T09:31:23.000Z</time>
</trkpt>
<trkpt lat="57.167007" lon="9.475333">
<ele>18.102903</ele>
<time>2026-07-16T09:31:24.000Z</time>
</trkpt>
<trkpt lat="57.166977" lon="9.475429">
<ele>18.106925</ele>
<time>2026-07-16T09:31:25.000Z</time>
</trkpt>
<trkpt lat="57.166946" lon="9.475523">
<ele>18.110918</ele>
<time>2026-07-16T09:31:26.000Z</time>
</trkpt>
<trkpt lat="57.166924" lon="9.475610">
<ele>18.114403</ele>
<time>2026-07-16T09:31:27.000Z</time>
</trkpt>
<trkpt lat="57.166901" lon="9.475692">
<ele>18.117754</ele>
<time>2026-07-16T09:31:28.000Z</time>
</trkpt>
<trkpt lat="57.166882" lon="9.475771">
<ele>18.120891</ele>
<time>2026-07-16T09:31:29.000Z</time>
</trkpt>
<trkpt lat="57.166882" lon="9.475842">
<ele>18.123468</ele>
<time>2026-07-16T09:31:30.000Z</time>
</trkpt>
<trkpt lat="57.166897" lon="9.475911">
<ele>18.126166</ele>
<time>2026-07-16T09:31:31.000Z</time>
</trkpt>
<trkpt lat="57.166916" lon="9.475976">
<ele>18.128847</ele>
<time>2026-07-16T09:31:32.000Z</time>
</trkpt>
<trkpt lat="57.166943" lon="9.476040">
<ele>18.131790</ele>
<time>2026-07-16T09:31:33.000Z</time>
</trkpt>
<trkpt lat="57.166969" lon="9.476110">
<ele>18.134870</ele>
<time>2026-07-16T09:31:34.000Z</time>
</trkpt>
<trkpt lat="57.167004" lon="9.476181">
<ele>18.138353</ele>
<time>2026-07-16T09:31:35.000Z</time>
</trkpt>
<trkpt lat="57.167038" lon="9.476252">
<ele>18.141791</ele>
<time>2026-07-16T09:31:36.000Z</time>
</trkpt>
<trkpt lat="57.167068" lon="9.476325">
<ele>18.145116</ele>
<time>2026-07-16T09:31:37.000Z</time>
</trkpt>
<trkpt lat="57.167103" lon="9.476399">
<ele>18.148681</ele>
<time>2026-07-16T09:31:38.000Z</time>
</trkpt>
<trkpt lat="57.167133" lon="9.476473">
<ele>18.152034</ele>
<time>2026-07-16T09:31:39.000Z</time>
</trkpt>
<trkpt lat="57.167168" lon="9.476546">
<ele>18.155572</ele>
<time>2026-07-16T09:31:40.000Z</time>
</trkpt>
<trkpt lat="57.167206" lon="9.476618">
<ele>18.159219</ele>
<time>2026-07-16T09:31:41.000Z</time>
</trkpt>
<trkpt lat="57.167244" lon="9.476687">
<ele>18.162789</ele>
<time>2026-07-16T09:31:42.000Z</time>
</trkpt>
<trkpt lat="57.167274" lon="9.476754">
<ele>18.165943</ele>
<time>2026-07-16T09:31:43.000Z</time>
</trkpt>
<trkpt lat="57.167301" lon="9.476824">
<ele>18.169061</ele>
<time>2026-07-16T09:31:44.000Z</time>
</trkpt>
<trkpt lat="57.167328" lon="9.476892">
<ele>18.172120</ele>
<time>2026-07-16T09:31:45.000Z</time>
</trkpt>
<trkpt lat="57.167355" lon="9.476959">
<ele>18.175150</ele>
<time>2026-07-16T09:31:46.000Z</time>
</trkpt>
<trkpt lat="57.167381" lon="9.477030">
<ele>18.178260</ele>
<time>2026-07-16T09:31:47.000Z</time>
</trkpt>
<trkpt lat="57.167408" lon="9.477097">
<ele>18.181290</ele>
<time>2026-07-16T09:31:48.000Z</time>
</trkpt>
<trkpt lat="57.167435" lon="9.477162">
<ele>18.184262</ele>
<time>2026-07-16T09:31:49.000Z</time>
</trkpt>
<trkpt lat="57.167461" lon="9.477228">
<ele>18.187223</ele>
<time>2026-07-16T09:31:50.000Z</time>
</trkpt>
<trkpt lat="57.167484" lon="9.477290">
<ele>18.189950</ele>
<time>2026-07-16T09:31:51.000Z</time>
</trkpt>
<trkpt lat="57.167511" lon="9.477348">
<ele>18.192725</ele>
<time>2026-07-16T09:31:52.000Z</time>
</trkpt>
<trkpt lat="57.167534" lon="9.477405">
<ele>18.195304</ele>
<time>2026-07-16T09:31:53.000Z</time>
</trkpt>
<trkpt lat="57.167564" lon="9.477464">
<ele>18.198240</ele>
<time>2026-07-16T09:31:54.000Z</time>
</trkpt>
<trkpt lat="57.167591" lon="9.477519">
<ele>18.200933</ele>
<time>2026-07-16T09:31:55.000Z</time>
</trkpt>
<trkpt lat="57.167618" lon="9.477574">
<ele>18.203626</ele>
<time>2026-07-16T09:31:56.000Z</time>
</trkpt>
<trkpt lat="57.167637" lon="9.477629">
<ele>18.205993</ele>
<time>2026-07-16T09:31:57.000Z</time>
</trkpt>
<trkpt lat="57.167652" lon="9.477679">
<ele>18.208067</ele>
<time>2026-07-16T09:31:58.000Z</time>
</trkpt>
<trkpt lat="57.167667" lon="9.477717">
<ele>18.209773</ele>
<time>2026-07-16T09:31:59.000Z</time>
</trkpt>
<trkpt lat="57.167679" lon="9.477748">
<ele>18.211156</ele>
<time>2026-07-16T09:32:00.000Z</time>
</trkpt>
<trkpt lat="57.167694" lon="9.477772">
<ele>18.212485</ele>
<time>2026-07-16T09:32:01.000Z</time>
</trkpt>
<trkpt lat="57.167713" lon="9.477804">
<ele>18.214208</ele>
<time>2026-07-16T09:32:02.000Z</time>
</trkpt>
<trkpt lat="57.167740" lon="9.477849">
<ele>18.216644</ele>
<time>2026-07-16T09:32:03.000Z</time>
</trkpt>
<trkpt lat="57.167763" lon="9.477899">
<ele>18.216901</ele>
<time>2026-07-16T09:32:04.000Z</time>
</trkpt>
<trkpt lat="57.167782" lon="9.477945">
<ele>18.206607</ele>
<time>2026-07-16T09:32:05.000Z</time>
</trkpt>
<trkpt lat="57.167801" lon="9.477986">
<ele>18.197005</ele>
<time>2026-07-16T09:32:06.000Z</time>
</trkpt>
<trkpt lat="57.167824" lon="9.478019">
<ele>18.187438</ele>
<time>2026-07-16T09:32:07.000Z</time>
</trkpt>
<trkpt lat="57.167847" lon="9.478059">
<ele>18.177058</ele>
<time>2026-07-16T09:32:08.000Z</time>
</trkpt>
<trkpt lat="57.167870" lon="9.478102">
<ele>18.166305</ele>
<time>2026-07-16T09:32:09.000Z</time>
</trkpt>
<trkpt lat="57.167892" lon="9.478142">
<ele>18.156162</ele>
<time>2026-07-16T09:32:10.000Z</time>
</trkpt>
<trkpt lat="57.167919" lon="9.478182">
<ele>18.144792</ele>
<time>2026-07-16T09:32:11.000Z</time>
</trkpt>
<trkpt lat="57.167946" lon="9.478224">
<ele>18.133195</ele>
<time>2026-07-16T09:32:12.000Z</time>
</trkpt>
<trkpt lat="57.167969" lon="9.478265">
<ele>18.122692</ele>
<time>2026-07-16T09:32:13.000Z</time>
</trkpt>
<trkpt lat="57.167988" lon="9.478305">
<ele>18.113225</ele>
<time>2026-07-16T09:32:14.000Z</time>
</trkpt>
<trkpt lat="57.168003" lon="9.478349">
<ele>18.103973</ele>
<time>2026-07-16T09:32:15.000Z</time>
</trkpt>
<trkpt lat="57.168018" lon="9.478397">
<ele>18.094110</ele>
<time>2026-07-16T09:32:16.000Z</time>
</trkpt>
<trkpt lat="57.168037" lon="9.478443">
<ele>18.083816</ele>
<time>2026-07-16T09:32:17.000Z</time>
</trkpt>
<trkpt lat="57.168053" lon="9.478486">
<ele>18.074532</ele>
<time>2026-07-16T09:32:18.000Z</time>
</trkpt>
<trkpt lat="57.168072" lon="9.478532">
<ele>18.064238</ele>
<time>2026-07-16T09:32:19.000Z</time>
</trkpt>
<trkpt lat="57.168095" lon="9.478575">
<ele>18.053485</ele>
<time>2026-07-16T09:32:20.000Z</time>
</trkpt>
<trkpt lat="57.168110" lon="9.478611">
<ele>18.045402</ele>
<time>2026-07-16T09:32:21.000Z</time>
</trkpt>
<trkpt lat="57.168133" lon="9.478648">
<ele>18.035382</ele>
<time>2026-07-16T09:32:22.000Z</time>
</trkpt>
<trkpt lat="57.168156" lon="9.478692">
<ele>18.024501</ele>
<time>2026-07-16T09:32:23.000Z</time>
</trkpt>
<trkpt lat="57.168175" lon="9.478735">
<ele>18.014627</ele>
<time>2026-07-16T09:32:24.000Z</time>
</trkpt>
<trkpt lat="57.168194" lon="9.478773">
<ele>18.005425</ele>
<time>2026-07-16T09:32:25.000Z</time>
</trkpt>
<trkpt lat="57.168221" lon="9.478823">
<ele>17.992862</ele>
<time>2026-07-16T09:32:26.000Z</time>
</trkpt>
<trkpt lat="57.168243" lon="9.478872">
<ele>17.981537</ele>
<time>2026-07-16T09:32:27.000Z</time>
</trkpt>
<trkpt lat="57.168266" lon="9.478928">
<ele>17.969031</ele>
<time>2026-07-16T09:32:28.000Z</time>
</trkpt>
<trkpt lat="57.168293" lon="9.478973">
<ele>17.957082</ele>
<time>2026-07-16T09:32:29.000Z</time>
</trkpt>
<trkpt lat="57.168312" lon="9.479019">
<ele>17.946788</ele>
<time>2026-07-16T09:32:30.000Z</time>
</trkpt>
<trkpt lat="57.168335" lon="9.479066">
<ele>17.935517</ele>
<time>2026-07-16T09:32:31.000Z</time>
</trkpt>
<trkpt lat="57.168358" lon="9.479106">
<ele>17.925138</ele>
<time>2026-07-16T09:32:32.000Z</time>
</trkpt>
<trkpt lat="57.168377" lon="9.479155">
<ele>17.914414</ele>
<time>2026-07-16T09:32:33.000Z</time>
</trkpt>
<trkpt lat="57.168396" lon="9.479202">
<ele>17.903977</ele>
<time>2026-07-16T09:32:34.000Z</time>
</trkpt>
<trkpt lat="57.168415" lon="9.479251">
<ele>17.893253</ele>
<time>2026-07-16T09:32:35.000Z</time>
</trkpt>
<trkpt lat="57.168438" lon="9.479308">
<ele>17.880605</ele>
<time>2026-07-16T09:32:36.000Z</time>
</trkpt>
<trkpt lat="57.168457" lon="9.479365">
<ele>17.868694</ele>
<time>2026-07-16T09:32:37.000Z</time>
</trkpt>
<trkpt lat="57.168488" lon="9.479428">
<ele>17.853548</ele>
<time>2026-07-16T09:32:38.000Z</time>
</trkpt>
<trkpt lat="57.168514" lon="9.479496">
<ele>17.838736</ele>
<time>2026-07-16T09:32:39.000Z</time>
</trkpt>
<trkpt lat="57.168537" lon="9.479566">
<ele>17.824165</ele>
<time>2026-07-16T09:32:40.000Z</time>
</trkpt>
<trkpt lat="57.168564" lon="9.479637">
<ele>17.808727</ele>
<time>2026-07-16T09:32:41.000Z</time>
</trkpt>
<trkpt lat="57.168602" lon="9.479734">
<ele>17.787424</ele>
<time>2026-07-16T09:32:42.000Z</time>
</trkpt>
<trkpt lat="57.168640" lon="9.479824">
<ele>17.767117</ele>
<time>2026-07-16T09:32:43.000Z</time>
</trkpt>
<trkpt lat="57.168674" lon="9.479898">
<ele>17.749850</ele>
<time>2026-07-16T09:32:44.000Z</time>
</trkpt>
<trkpt lat="57.168713" lon="9.479977">
<ele>17.730831</ele>
<time>2026-07-16T09:32:45.000Z</time>
</trkpt>
<trkpt lat="57.168755" lon="9.480052">
<ele>17.711637</ele>
<time>2026-07-16T09:32:46.000Z</time>
</trkpt>
<trkpt lat="57.168785" lon="9.480115">
<ele>17.696710</ele>
<time>2026-07-16T09:32:47.000Z</time>
</trkpt>
<trkpt lat="57.168819" lon="9.480184">
<ele>17.680112</ele>
<time>2026-07-16T09:32:48.000Z</time>
</trkpt>
<trkpt lat="57.168846" lon="9.480256">
<ele>17.664528</ele>
<time>2026-07-16T09:32:49.000Z</time>
</trkpt>
<trkpt lat="57.168873" lon="9.480328">
<ele>17.648944</ele>
<time>2026-07-16T09:32:50.000Z</time>
</trkpt>
<trkpt lat="57.168907" lon="9.480392">
<ele>17.632994</ele>
<time>2026-07-16T09:32:51.000Z</time>
</trkpt>
<trkpt lat="57.168938" lon="9.480461">
<ele>17.631948</ele>
<time>2026-07-16T09:32:52.000Z</time>
</trkpt>
<trkpt lat="57.168972" lon="9.480538">
<ele>17.638092</ele>
<time>2026-07-16T09:32:53.000Z</time>
</trkpt>
<trkpt lat="57.169006" lon="9.480606">
<ele>17.643816</ele>
<time>2026-07-16T09:32:54.000Z</time>
</trkpt>
<trkpt lat="57.169037" lon="9.480672">
<ele>17.649219</ele>
<time>2026-07-16T09:32:55.000Z</time>
</trkpt>
<trkpt lat="57.169067" lon="9.480742">
<ele>17.654739</ele>
<time>2026-07-16T09:32:56.000Z</time>
</trkpt>
<trkpt lat="57.169098" lon="9.480813">
<ele>17.660380</ele>
<time>2026-07-16T09:32:57.000Z</time>
</trkpt>
<trkpt lat="57.169125" lon="9.480882">
<ele>17.665644</ele>
<time>2026-07-16T09:32:58.000Z</time>
</trkpt>
<trkpt lat="57.169159" lon="9.480945">
<ele>17.671144</ele>
<time>2026-07-16T09:32:59.000Z</time>
</trkpt>
<trkpt lat="57.169193" lon="9.481010">
<ele>17.676733</ele>
<time>2026-07-16T09:33:00.000Z</time>
</trkpt>
<trkpt lat="57.169228" lon="9.481077">
<ele>17.682489</ele>
<time>2026-07-16T09:33:01.000Z</time>
</trkpt>
<trkpt lat="57.169262" lon="9.481156">
<ele>17.688730</ele>
<time>2026-07-16T09:33:02.000Z</time>
</trkpt>
<trkpt lat="57.169296" lon="9.481227">
<ele>17.694591</ele>
<time>2026-07-16T09:33:03.000Z</time>
</trkpt>
<trkpt lat="57.169323" lon="9.481299">
<ele>17.700007</ele>
<time>2026-07-16T09:33:04.000Z</time>
</trkpt>
<trkpt lat="57.169353" lon="9.481373">
<ele>17.705724</ele>
<time>2026-07-16T09:33:05.000Z</time>
</trkpt>
<trkpt lat="57.169384" lon="9.481442">
<ele>17.711269</ele>
<time>2026-07-16T09:33:06.000Z</time>
</trkpt>
<trkpt lat="57.169411" lon="9.481505">
<ele>17.716237</ele>
<time>2026-07-16T09:33:07.000Z</time>
</trkpt>
<trkpt lat="57.169434" lon="9.481567">
<ele>17.720886</ele>
<time>2026-07-16T09:33:08.000Z</time>
</trkpt>
<trkpt lat="57.169460" lon="9.481636">
<ele>17.726084</ele>
<time>2026-07-16T09:33:09.000Z</time>
</trkpt>
<trkpt lat="57.169491" lon="9.481708">
<ele>17.731773</ele>
<time>2026-07-16T09:33:10.000Z</time>
</trkpt>
<trkpt lat="57.169525" lon="9.481787">
<ele>17.738014</ele>
<time>2026-07-16T09:33:11.000Z</time>
</trkpt>
<trkpt lat="57.169556" lon="9.481855">
<ele>17.743511</ele>
<time>2026-07-16T09:33:12.000Z</time>
</trkpt>
<trkpt lat="57.169586" lon="9.481926">
<ele>17.749080</ele>
<time>2026-07-16T09:33:13.000Z</time>
</trkpt>
<trkpt lat="57.169613" lon="9.481994">
<ele>17.754295</ele>
<time>2026-07-16T09:33:14.000Z</time>
</trkpt>
<trkpt lat="57.169647" lon="9.482063">
<ele>17.760064</ele>
<time>2026-07-16T09:33:15.000Z</time>
</trkpt>
<trkpt lat="57.169682" lon="9.482137">
<ele>17.766140</ele>
<time>2026-07-16T09:33:16.000Z</time>
</trkpt>
<trkpt lat="57.169724" lon="9.482215">
<ele>17.772941</ele>
<time>2026-07-16T09:33:17.000Z</time>
</trkpt>
<trkpt lat="57.169762" lon="9.482287">
<ele>17.779158</ele>
<time>2026-07-16T09:33:18.000Z</time>
</trkpt>
<trkpt lat="57.169804" lon="9.482362">
<ele>17.785829</ele>
<time>2026-07-16T09:33:19.000Z</time>
</trkpt>
<trkpt lat="57.169846" lon="9.482432">
<ele>17.792289</ele>
<time>2026-07-16T09:33:20.000Z</time>
</trkpt>
<trkpt lat="57.169884" lon="9.482504">
<ele>17.798506</ele>
<time>2026-07-16T09:33:21.000Z</time>
</trkpt>
<trkpt lat="57.169918" lon="9.482573">
<ele>17.804275</ele>
<time>2026-07-16T09:33:22.000Z</time>
</trkpt>
<trkpt lat="57.169949" lon="9.482643">
<ele>17.809867</ele>
<time>2026-07-16T09:33:23.000Z</time>
</trkpt>
<trkpt lat="57.169983" lon="9.482719">
<ele>17.815963</ele>
<time>2026-07-16T09:33:24.000Z</time>
</trkpt>
<trkpt lat="57.170006" lon="9.482786">
<ele>17.820870</ele>
<time>2026-07-16T09:33:25.000Z</time>
</trkpt>
<trkpt lat="57.170032" lon="9.482857">
<ele>17.826171</ele>
<time>2026-07-16T09:33:26.000Z</time>
</trkpt>
<trkpt lat="57.170074" lon="9.482943">
<ele>17.833332</ele>
<time>2026-07-16T09:33:27.000Z</time>
</trkpt>
<trkpt lat="57.170116" lon="9.483021">
<ele>17.802962</ele>
<time>2026-07-16T09:33:28.000Z</time>
</trkpt>
<trkpt lat="57.170158" lon="9.483112">
<ele>17.769752</ele>
<time>2026-07-16T09:33:29.000Z</time>
</trkpt>
<trkpt lat="57.170204" lon="9.483202">
<ele>17.735381</ele>
<time>2026-07-16T09:33:30.000Z</time>
</trkpt>
<trkpt lat="57.170246" lon="9.483287">
<ele>17.703422</ele>
<time>2026-07-16T09:33:31.000Z</time>
</trkpt>
<trkpt lat="57.170296" lon="9.483366">
<ele>17.669677</ele>
<time>2026-07-16T09:33:32.000Z</time>
</trkpt>
<trkpt lat="57.170338" lon="9.483446">
<ele>17.638732</ele>
<time>2026-07-16T09:33:33.000Z</time>
</trkpt>
<trkpt lat="57.170383" lon="9.483524">
<ele>17.607080</ele>
<time>2026-07-16T09:33:34.000Z</time>
</trkpt>
<trkpt lat="57.170425" lon="9.483595">
<ele>17.577879</ele>
<time>2026-07-16T09:33:35.000Z</time>
</trkpt>
<trkpt lat="57.170475" lon="9.483669">
<ele>17.545021</ele>
<time>2026-07-16T09:33:36.000Z</time>
</trkpt>
<trkpt lat="57.170525" lon="9.483739">
<ele>17.512847</ele>
<time>2026-07-16T09:33:37.000Z</time>
</trkpt>
<trkpt lat="57.170567" lon="9.483804">
<ele>17.484746</ele>
<time>2026-07-16T09:33:38.000Z</time>
</trkpt>
<trkpt lat="57.170608" lon="9.483863">
<ele>17.458092</ele>
<time>2026-07-16T09:33:39.000Z</time>
</trkpt>
<trkpt lat="57.170650" lon="9.483923">
<ele>17.430863</ele>
<time>2026-07-16T09:33:40.000Z</time>
</trkpt>
<trkpt lat="57.170692" lon="9.483990">
<ele>17.402401</ele>
<time>2026-07-16T09:33:41.000Z</time>
</trkpt>
<trkpt lat="57.170734" lon="9.484054">
<ele>17.374478</ele>
<time>2026-07-16T09:33:42.000Z</time>
</trkpt>
<trkpt lat="57.170780" lon="9.484115">
<ele>17.345439</ele>
<time>2026-07-16T09:33:43.000Z</time>
</trkpt>
<trkpt lat="57.170818" lon="9.484168">
<ele>17.321021</ele>
<time>2026-07-16T09:33:44.000Z</time>
</trkpt>
<trkpt lat="57.170853" lon="9.484225">
<ele>17.297089</ele>
<time>2026-07-16T09:33:45.000Z</time>
</trkpt>
<trkpt lat="57.170895" lon="9.484287">
<ele>17.269517</ele>
<time>2026-07-16T09:33:46.000Z</time>
</trkpt>
<trkpt lat="57.170937" lon="9.484356">
<ele>17.240688</ele>
<time>2026-07-16T09:33:47.000Z</time>
</trkpt>
<trkpt lat="57.170971" lon="9.484420">
<ele>17.215789</ele>
<time>2026-07-16T09:33:48.000Z</time>
</trkpt>
<trkpt lat="57.171005" lon="9.484489">
<ele>17.189879</ele>
<time>2026-07-16T09:33:49.000Z</time>
</trkpt>
<trkpt lat="57.171032" lon="9.484557">
<ele>17.166457</ele>
<time>2026-07-16T09:33:50.000Z</time>
</trkpt>
<trkpt lat="57.171070" lon="9.484630">
<ele>17.138335</ele>
<time>2026-07-16T09:33:51.000Z</time>
</trkpt>
<trkpt lat="57.171108" lon="9.484695">
<ele>17.111772</ele>
<time>2026-07-16T09:33:52.000Z</time>
</trkpt>
<trkpt lat="57.171146" lon="9.484756">
<ele>17.085952</ele>
<time>2026-07-16T09:33:53.000Z</time>
</trkpt>
<trkpt lat="57.171185" lon="9.484830">
<ele>17.057274</ele>
<time>2026-07-16T09:33:54.000Z</time>
</trkpt>
<trkpt lat="57.171215" lon="9.484902">
<ele>17.032040</ele>
<time>2026-07-16T09:33:55.000Z</time>
</trkpt>
<trkpt lat="57.171234" lon="9.485002">
<ele>17.002596</ele>
<time>2026-07-16T09:33:56.000Z</time>
</trkpt>
<trkpt lat="57.171257" lon="9.485088">
<ele>16.975949</ele>
<time>2026-07-16T09:33:57.000Z</time>
</trkpt>
<trkpt lat="57.171287" lon="9.485177">
<ele>16.946827</ele>
<time>2026-07-16T09:33:58.000Z</time>
</trkpt>
<trkpt lat="57.171314" lon="9.485259">
<ele>16.920168</ele>
<time>2026-07-16T09:33:59.000Z</time>
</trkpt>
<trkpt lat="57.171356" lon="9.485343">
<ele>16.926389</ele>
<time>2026-07-16T09:34:00.000Z</time>
</trkpt>
<trkpt lat="57.171394" lon="9.485423">
<ele>16.945562</ele>
<time>2026-07-16T09:34:01.000Z</time>
</trkpt>
<trkpt lat="57.171429" lon="9.485499">
<ele>16.963537</ele>
<time>2026-07-16T09:34:02.000Z</time>
</trkpt>
<trkpt lat="57.171463" lon="9.485575">
<ele>16.981299</ele>
<time>2026-07-16T09:34:03.000Z</time>
</trkpt>
<trkpt lat="57.171501" lon="9.485652">
<ele>17.000068</ele>
<time>2026-07-16T09:34:04.000Z</time>
</trkpt>
<trkpt lat="57.171543" lon="9.485728">
<ele>17.019631</ele>
<time>2026-07-16T09:34:05.000Z</time>
</trkpt>
<trkpt lat="57.171585" lon="9.485797">
<ele>17.038332</ele>
<time>2026-07-16T09:34:06.000Z</time>
</trkpt>
<trkpt lat="57.171631" lon="9.485863">
<ele>17.057709</ele>
<time>2026-07-16T09:34:07.000Z</time>
</trkpt>
<trkpt lat="57.171680" lon="9.485927">
<ele>17.077673</ele>
<time>2026-07-16T09:34:08.000Z</time>
</trkpt>
<trkpt lat="57.171726" lon="9.485983">
<ele>17.095998</ele>
<time>2026-07-16T09:34:09.000Z</time>
</trkpt>
<trkpt lat="57.171768" lon="9.486039">
<ele>17.113230</ele>
<time>2026-07-16T09:34:10.000Z</time>
</trkpt>
<trkpt lat="57.171818" lon="9.486096">
<ele>17.132774</ele>
<time>2026-07-16T09:34:11.000Z</time>
</trkpt>
<trkpt lat="57.171867" lon="9.486154">
<ele>17.152132</ele>
<time>2026-07-16T09:34:12.000Z</time>
</trkpt>
<trkpt lat="57.171917" lon="9.486212">
<ele>17.171771</ele>
<time>2026-07-16T09:34:13.000Z</time>
</trkpt>
<trkpt lat="57.171970" lon="9.486264">
<ele>17.191731</ele>
<time>2026-07-16T09:34:14.000Z</time>
</trkpt>
<trkpt lat="57.172024" lon="9.486319">
<ele>17.212242</ele>
<time>2026-07-16T09:34:15.000Z</time>
</trkpt>
<trkpt lat="57.172081" lon="9.486376">
<ele>17.233800</ele>
<time>2026-07-16T09:34:16.000Z</time>
</trkpt>
<trkpt lat="57.172131" lon="9.486432">
<ele>17.253250</ele>
<time>2026-07-16T09:34:17.000Z</time>
</trkpt>
<trkpt lat="57.172188" lon="9.486486">
<ele>17.274556</ele>
<time>2026-07-16T09:34:18.000Z</time>
</trkpt>
<trkpt lat="57.172241" lon="9.486544">
<ele>17.295046</ele>
<time>2026-07-16T09:34:19.000Z</time>
</trkpt>
<trkpt lat="57.172295" lon="9.486600">
<ele>17.315644</ele>
<time>2026-07-16T09:34:20.000Z</time>
</trkpt>
<trkpt lat="57.172348" lon="9.486658">
<ele>17.336135</ele>
<time>2026-07-16T09:34:21.000Z</time>
</trkpt>
<trkpt lat="57.172401" lon="9.486714">
<ele>17.356443</ele>
<time>2026-07-16T09:34:22.000Z</time>
</trkpt>
<trkpt lat="57.172455" lon="9.486769">
<ele>17.376954</ele>
<time>2026-07-16T09:34:23.000Z</time>
</trkpt>
<trkpt lat="57.172508" lon="9.486823">
<ele>17.397086</ele>
<time>2026-07-16T09:34:24.000Z</time>
</trkpt>
<trkpt lat="57.172558" lon="9.486878">
<ele>17.416442</ele>
<time>2026-07-16T09:34:25.000Z</time>
</trkpt>
<trkpt lat="57.172611" lon="9.486933">
<ele>17.436662</ele>
<time>2026-07-16T09:34:26.000Z</time>
</trkpt>
<trkpt lat="57.172665" lon="9.486985">
<ele>17.456916</ele>
<time>2026-07-16T09:34:27.000Z</time>
</trkpt>
<trkpt lat="57.172718" lon="9.487034">
<ele>17.476628</ele>
<time>2026-07-16T09:34:28.000Z</time>
</trkpt>
<trkpt lat="57.172764" lon="9.487080">
<ele>17.494026</ele>
<time>2026-07-16T09:34:29.000Z</time>
</trkpt>
<trkpt lat="57.172806" lon="9.487109">
<ele>17.508938</ele>
<time>2026-07-16T09:34:30.000Z</time>
</trkpt>
<trkpt lat="57.172844" lon="9.487130">
<ele>17.498964</ele>
<time>2026-07-16T09:34:31.000Z</time>
</trkpt>
<trkpt lat="57.172882" lon="9.487151">
<ele>17.487962</ele>
<time>2026-07-16T09:34:32.000Z</time>
</trkpt>
<trkpt lat="57.172924" lon="9.487170">
<ele>17.475967</ele>
<time>2026-07-16T09:34:33.000Z</time>
</trkpt>
<trkpt lat="57.172966" lon="9.487194">
<ele>17.463772</ele>
<time>2026-07-16T09:34:34.000Z</time>
</trkpt>
<trkpt lat="57.173016" lon="9.487225">
<ele>17.449142</ele>
<time>2026-07-16T09:34:35.000Z</time>
</trkpt>
<trkpt lat="57.173061" lon="9.487252">
<ele>17.436018</ele>
<time>2026-07-16T09:34:36.000Z</time>
</trkpt>
<trkpt lat="57.173103" lon="9.487277">
<ele>17.423777</ele>
<time>2026-07-16T09:34:37.000Z</time>
</trkpt>
<trkpt lat="57.173145" lon="9.487304">
<ele>17.411441</ele>
<time>2026-07-16T09:34:38.000Z</time>
</trkpt>
<trkpt lat="57.173180" lon="9.487323">
<ele>17.401322</ele>
<time>2026-07-16T09:34:39.000Z</time>
</trkpt>
<trkpt lat="57.173206" lon="9.487337">
<ele>17.393810</ele>
<time>2026-07-16T09:34:40.000Z</time>
</trkpt>
<trkpt lat="57.173233" lon="9.487346">
<ele>17.386200</ele>
<time>2026-07-16T09:34:41.000Z</time>
</trkpt>
<trkpt lat="57.173264" lon="9.487354">
<ele>17.377518</ele>
<time>2026-07-16T09:34:42.000Z</time>
</trkpt>
<trkpt lat="57.173298" lon="9.487366">
<ele>17.367917</ele>
<time>2026-07-16T09:34:43.000Z</time>
</trkpt>
<trkpt lat="57.173340" lon="9.487383">
<ele>17.355991</ele>
<time>2026-07-16T09:34:44.000Z</time>
</trkpt>
<trkpt lat="57.173382" lon="9.487406">
<ele>17.343840</ele>
<time>2026-07-16T09:34:45.000Z</time>
</trkpt>
<trkpt lat="57.173424" lon="9.487429">
<ele>17.331688</ele>
<time>2026-07-16T09:34:46.000Z</time>
</trkpt>
<trkpt lat="57.173470" lon="9.487458">
<ele>17.318206</ele>
<time>2026-07-16T09:34:47.000Z</time>
</trkpt>
<trkpt lat="57.173508" lon="9.487489">
<ele>17.306681</ele>
<time>2026-07-16T09:34:48.000Z</time>
</trkpt>
<trkpt lat="57.173550" lon="9.487517">
<ele>17.294295</ele>
<time>2026-07-16T09:34:49.000Z</time>
</trkpt>
<trkpt lat="57.173584" lon="9.487544">
<ele>17.284028</ele>
<time>2026-07-16T09:34:50.000Z</time>
</trkpt>
<trkpt lat="57.173614" lon="9.487567">
<ele>17.275018</ele>
<time>2026-07-16T09:34:51.000Z</time>
</trkpt>
<trkpt lat="57.173656" lon="9.487596">
<ele>17.262580</ele>
<time>2026-07-16T09:34:52.000Z</time>
</trkpt>
<trkpt lat="57.173698" lon="9.487624">
<ele>17.250193</ele>
<time>2026-07-16T09:34:53.000Z</time>
</trkpt>
<trkpt lat="57.173748" lon="9.487665">
<ele>17.235017</ele>
<time>2026-07-16T09:34:54.000Z</time>
</trkpt>
<trkpt lat="57.173801" lon="9.487710">
<ele>17.218835</ele>
<time>2026-07-16T09:34:55.000Z</time>
</trkpt>
<trkpt lat="57.173847" lon="9.487754">
<ele>17.204463</ele>
<time>2026-07-16T09:34:56.000Z</time>
</trkpt>
<trkpt lat="57.173893" lon="9.487792">
<ele>17.190484</ele>
<time>2026-07-16T09:34:57.000Z</time>
</trkpt>
<trkpt lat="57.173939" lon="9.487829">
<ele>17.176566</ele>
<time>2026-07-16T09:34:58.000Z</time>
</trkpt>
<trkpt lat="57.173988" lon="9.487876">
<ele>17.161248</ele>
<time>2026-07-16T09:34:59.000Z</time>
</trkpt>
<trkpt lat="57.174046" lon="9.487926">
<ele>17.143492</ele>
<time>2026-07-16T09:35:00.000Z</time>
</trkpt>
<trkpt lat="57.174107" lon="9.487983">
<ele>17.124526</ele>
<time>2026-07-16T09:35:01.000Z</time>
</trkpt>
<trkpt lat="57.174160" lon="9.488038">
<ele>17.107660</ele>
<time>2026-07-16T09:35:02.000Z</time>
</trkpt>
<trkpt lat="57.174210" lon="9.488096">
<ele>17.091278</ele>
<time>2026-07-16T09:35:03.000Z</time>
</trkpt>
<trkpt lat="57.174263" lon="9.488156">
<ele>17.074031</ele>
<time>2026-07-16T09:35:04.000Z</time>
</trkpt>
<trkpt lat="57.174320" lon="9.488221">
<ele>17.055445</ele>
<time>2026-07-16T09:35:05.000Z</time>
</trkpt>
<trkpt lat="57.174374" lon="9.488280">
<ele>17.038038</ele>
<time>2026-07-16T09:35:06.000Z</time>
</trkpt>
<trkpt lat="57.174423" lon="9.488341">
<ele>17.021643</ele>
<time>2026-07-16T09:35:07.000Z</time>
</trkpt>
<trkpt lat="57.174477" lon="9.488407">
<ele>17.008400</ele>
<time>2026-07-16T09:35:08.000Z</time>
</trkpt>
<trkpt lat="57.174526" lon="9.488469">
<ele>17.003108</ele>
<time>2026-07-16T09:35:09.000Z</time>
</trkpt>
<trkpt lat="57.174576" lon="9.488531">
<ele>16.997742</ele>
<time>2026-07-16T09:35:10.000Z</time>
</trkpt>
<trkpt lat="57.174629" lon="9.488595">
<ele>16.992100</ele>
<time>2026-07-16T09:35:11.000Z</time>
</trkpt>
<trkpt lat="57.174679" lon="9.488663">
<ele>16.986567</ele>
<time>2026-07-16T09:35:12.000Z</time>
</trkpt>
<trkpt lat="57.174732" lon="9.488729">
<ele>16.980871</ele>
<time>2026-07-16T09:35:13.000Z</time>
</trkpt>
<trkpt lat="57.174786" lon="9.488793">
<ele>16.975154</ele>
<time>2026-07-16T09:35:14.000Z</time>
</trkpt>
<trkpt lat="57.174835" lon="9.488855">
<ele>16.969861</ele>
<time>2026-07-16T09:35:15.000Z</time>
</trkpt>
<trkpt lat="57.174881" lon="9.488915">
<ele>16.964843</ele>
<time>2026-07-16T09:35:16.000Z</time>
</trkpt>
<trkpt lat="57.174931" lon="9.488980">
<ele>16.959395</ele>
<time>2026-07-16T09:35:17.000Z</time>
</trkpt>
<trkpt lat="57.174980" lon="9.489047">
<ele>16.953963</ele>
<time>2026-07-16T09:35:18.000Z</time>
</trkpt>
<trkpt lat="57.175026" lon="9.489111">
<ele>16.948831</ele>
<time>2026-07-16T09:35:19.000Z</time>
</trkpt>
<trkpt lat="57.175072" lon="9.489177">
<ele>16.943640</ele>
<time>2026-07-16T09:35:20.000Z</time>
</trkpt>
<trkpt lat="57.175118" lon="9.489233">
<ele>16.938731</ele>
<time>2026-07-16T09:35:21.000Z</time>
</trkpt>
<trkpt lat="57.175163" lon="9.489290">
<ele>16.933869</ele>
<time>2026-07-16T09:35:22.000Z</time>
</trkpt>
<trkpt lat="57.175213" lon="9.489352">
<ele>16.928503</ele>
<time>2026-07-16T09:35:23.000Z</time>
</trkpt>
<trkpt lat="57.175262" lon="9.489415">
<ele>16.923183</ele>
<time>2026-07-16T09:35:24.000Z</time>
</trkpt>
<trkpt lat="57.175312" lon="9.489476">
<ele>16.917844</ele>
<time>2026-07-16T09:35:25.000Z</time>
</trkpt>
<trkpt lat="57.175369" lon="9.489536">
<ele>16.911998</ele>
<time>2026-07-16T09:35:26.000Z</time>
</trkpt>
<trkpt lat="57.175419" lon="9.489599">
<ele>16.906605</ele>
<time>2026-07-16T09:35:27.000Z</time>
</trkpt>
<trkpt lat="57.175465" lon="9.489658">
<ele>16.901615</ele>
<time>2026-07-16T09:35:28.000Z</time>
</trkpt>
<trkpt lat="57.175510" lon="9.489716">
<ele>16.896725</ele>
<time>2026-07-16T09:35:29.000Z</time>
</trkpt>
<trkpt lat="57.175556" lon="9.489771">
<ele>16.891843</ele>
<time>2026-07-16T09:35:30.000Z</time>
</trkpt>
<trkpt lat="57.175610" lon="9.489827">
<ele>16.886325</ele>
<time>2026-07-16T09:35:31.000Z</time>
</trkpt>
<trkpt lat="57.175655" lon="9.489889">
<ele>16.881322</ele>
<time>2026-07-16T09:35:32.000Z</time>
</trkpt>
<trkpt lat="57.175701" lon="9.489946">
<ele>16.876387</ele>
<time>2026-07-16T09:35:33.000Z</time>
</trkpt>
<trkpt lat="57.175743" lon="9.490005">
<ele>16.871684</ele>
<time>2026-07-16T09:35:34.000Z</time>
</trkpt>
<trkpt lat="57.175789" lon="9.490061">
<ele>16.866775</ele>
<time>2026-07-16T09:35:35.000Z</time>
</trkpt>
<trkpt lat="57.175831" lon="9.490118">
<ele>16.862131</ele>
<time>2026-07-16T09:35:36.000Z</time>
</trkpt>
<trkpt lat="57.175873" lon="9.490176">
<ele>16.857458</ele>
<time>2026-07-16T09:35:37.000Z</time>
</trkpt>
<trkpt lat="57.175915" lon="9.490238">
<ele>16.852667</ele>
<time>2026-07-16T09:35:38.000Z</time>
</trkpt>
<trkpt lat="57.175961" lon="9.490293">
<ele>16.844998</ele>
<time>2026-07-16T09:35:39.000Z</time>
</trkpt>
<trkpt lat="57.176014" lon="9.490359">
<ele>16.833298</ele>
<time>2026-07-16T09:35:40.000Z</time>
</trkpt>
<trkpt lat="57.176064" lon="9.490416">
<ele>16.822544</ele>
<time>2026-07-16T09:35:41.000Z</time>
</trkpt>
<trkpt lat="57.176109" lon="9.490471">
<ele>16.812668</ele>
<time>2026-07-16T09:35:42.000Z</time>
</trkpt>
<trkpt lat="57.176155" lon="9.490528">
<ele>16.802530</ele>
<time>2026-07-16T09:35:43.000Z</time>
</trkpt>
<trkpt lat="57.176197" lon="9.490585">
<ele>16.792990</ele>
<time>2026-07-16T09:35:44.000Z</time>
</trkpt>
<trkpt lat="57.176243" lon="9.490652">
<ele>16.782267</ele>
<time>2026-07-16T09:35:45.000Z</time>
</trkpt>
<trkpt lat="57.176300" lon="9.490723">
<ele>16.769683</ele>
<time>2026-07-16T09:35:46.000Z</time>
</trkpt>
<trkpt lat="57.176346" lon="9.490787">
<ele>16.759142</ele>
<time>2026-07-16T09:35:47.000Z</time>
</trkpt>
<trkpt lat="57.176384" lon="9.490847">
<ele>16.749991</ele>
<time>2026-07-16T09:35:48.000Z</time>
</trkpt>
<trkpt lat="57.176422" lon="9.490907">
<ele>16.740839</ele>
<time>2026-07-16T09:35:49.000Z</time>
</trkpt>
<trkpt lat="57.176456" lon="9.490965">
<ele>16.732367</ele>
<time>2026-07-16T09:35:50.000Z</time>
</trkpt>
<trkpt lat="57.176498" lon="9.491027">
<ele>16.722525</ele>
<time>2026-07-16T09:35:51.000Z</time>
</trkpt>
<trkpt lat="57.176537" lon="9.491090">
<ele>16.713041</ele>
<time>2026-07-16T09:35:52.000Z</time>
</trkpt>
<trkpt lat="57.176575" lon="9.491154">
<ele>16.703627</ele>
<time>2026-07-16T09:35:53.000Z</time>
</trkpt>
<trkpt lat="57.176617" lon="9.491216">
<ele>16.693785</ele>
<time>2026-07-16T09:35:54.000Z</time>
</trkpt>
<trkpt lat="57.176659" lon="9.491281">
<ele>16.683755</ele>
<time>2026-07-16T09:35:55.000Z</time>
</trkpt>
<trkpt lat="57.176701" lon="9.491345">
<ele>16.673788</ele>
<time>2026-07-16T09:35:56.000Z</time>
</trkpt>
<trkpt lat="57.176735" lon="9.491408">
<ele>16.664971</ele>
<time>2026-07-16T09:35:57.000Z</time>
</trkpt>
<trkpt lat="57.176773" lon="9.491474">
<ele>16.655422</ele>
<time>2026-07-16T09:35:58.000Z</time>
</trkpt>
<trkpt lat="57.176807" lon="9.491532">
<ele>16.646950</ele>
<time>2026-07-16T09:35:59.000Z</time>
</trkpt>
<trkpt lat="57.176842" lon="9.491586">
<ele>16.638602</ele>
<time>2026-07-16T09:36:00.000Z</time>
</trkpt>
<trkpt lat="57.176876" lon="9.491643">
<ele>16.630197</ele>
<time>2026-07-16T09:36:01.000Z</time>
</trkpt>
<trkpt lat="57.176914" lon="9.491705">
<ele>16.620915</ele>
<time>2026-07-16T09:36:02.000Z</time>
</trkpt>
<trkpt lat="57.176952" lon="9.491763">
<ele>16.611892</ele>
<time>2026-07-16T09:36:03.000Z</time>
</trkpt>
<trkpt lat="57.176983" lon="9.491816">
<ele>16.604159</ele>
<time>2026-07-16T09:36:04.000Z</time>
</trkpt>
<trkpt lat="57.177017" lon="9.491864">
<ele>16.596326</ele>
<time>2026-07-16T09:36:05.000Z</time>
</trkpt>
<trkpt lat="57.177052" lon="9.491916">
<ele>16.588104</ele>
<time>2026-07-16T09:36:06.000Z</time>
</trkpt>
<trkpt lat="57.177090" lon="9.491970">
<ele>16.579328</ele>
<time>2026-07-16T09:36:07.000Z</time>
</trkpt>
<trkpt lat="57.177124" lon="9.492026">
<ele>16.570988</ele>
<time>2026-07-16T09:36:08.000Z</time>
</trkpt>
<trkpt lat="57.177166" lon="9.492090">
<ele>16.561022</ele>
<time>2026-07-16T09:36:09.000Z</time>
</trkpt>
<trkpt lat="57.177204" lon="9.492157">
<ele>16.551405</ele>
<time>2026-07-16T09:36:10.000Z</time>
</trkpt>
<trkpt lat="57.177238" lon="9.492226">
<ele>16.542157</ele>
<time>2026-07-16T09:36:11.000Z</time>
</trkpt>
<trkpt lat="57.177277" lon="9.492294">
<ele>16.532339</ele>
<time>2026-07-16T09:36:12.000Z</time>
</trkpt>
<trkpt lat="57.177315" lon="9.492362">
<ele>16.522653</ele>
<time>2026-07-16T09:36:13.000Z</time>
</trkpt>
<trkpt lat="57.177353" lon="9.492422">
<ele>16.520006</ele>
<time>2026-07-16T09:36:14.000Z</time>
</trkpt>
<trkpt lat="57.177387" lon="9.492477">
<ele>16.518593</ele>
<time>2026-07-16T09:36:15.000Z</time>
</trkpt>
<trkpt lat="57.177418" lon="9.492531">
<ele>16.517260</ele>
<time>2026-07-16T09:36:16.000Z</time>
</trkpt>
<trkpt lat="57.177452" lon="9.492588">
<ele>16.515825</ele>
<time>2026-07-16T09:36:17.000Z</time>
</trkpt>
<trkpt lat="57.177486" lon="9.492648">
<ele>16.514354</ele>
<time>2026-07-16T09:36:18.000Z</time>
</trkpt>
<trkpt lat="57.177532" lon="9.492718">
<ele>16.512491</ele>
<time>2026-07-16T09:36:19.000Z</time>
</trkpt>
<trkpt lat="57.177570" lon="9.492784">
<ele>16.510860</ele>
<time>2026-07-16T09:36:20.000Z</time>
</trkpt>
<trkpt lat="57.177612" lon="9.492844">
<ele>16.509200</ele>
<time>2026-07-16T09:36:21.000Z</time>
</trkpt>
<trkpt lat="57.177650" lon="9.492902">
<ele>16.507659</ele>
<time>2026-07-16T09:36:22.000Z</time>
</trkpt>
<trkpt lat="57.177692" lon="9.492966">
<ele>16.505956</ele>
<time>2026-07-16T09:36:23.000Z</time>
</trkpt>
<trkpt lat="57.177734" lon="9.493031">
<ele>16.504243</ele>
<time>2026-07-16T09:36:24.000Z</time>
</trkpt>
<trkpt lat="57.177772" lon="9.493095">
<ele>16.502635</ele>
<time>2026-07-16T09:36:25.000Z</time>
</trkpt>
<trkpt lat="57.177807" lon="9.493151">
<ele>16.501188</ele>
<time>2026-07-16T09:36:26.000Z</time>
</trkpt>
<trkpt lat="57.177841" lon="9.493214">
<ele>16.499682</ele>
<time>2026-07-16T09:36:27.000Z</time>
</trkpt>
<trkpt lat="57.177883" lon="9.493277">
<ele>16.497990</ele>
<time>2026-07-16T09:36:28.000Z</time>
</trkpt>
<trkpt lat="57.177925" lon="9.493341">
<ele>16.496288</ele>
<time>2026-07-16T09:36:29.000Z</time>
</trkpt>
<trkpt lat="57.177971" lon="9.493407">
<ele>16.494467</ele>
<time>2026-07-16T09:36:30.000Z</time>
</trkpt>
<trkpt lat="57.178009" lon="9.493473">
<ele>16.492836</ele>
<time>2026-07-16T09:36:31.000Z</time>
</trkpt>
<trkpt lat="57.178051" lon="9.493537">
<ele>16.491133</ele>
<time>2026-07-16T09:36:32.000Z</time>
</trkpt>
<trkpt lat="57.178089" lon="9.493599">
<ele>16.489548</ele>
<time>2026-07-16T09:36:33.000Z</time>
</trkpt>
<trkpt lat="57.178139" lon="9.493667">
<ele>16.487607</ele>
<time>2026-07-16T09:36:34.000Z</time>
</trkpt>
<trkpt lat="57.178185" lon="9.493735">
<ele>16.485765</ele>
<time>2026-07-16T09:36:35.000Z</time>
</trkpt>
<trkpt lat="57.178226" lon="9.493800">
<ele>16.484075</ele>
<time>2026-07-16T09:36:36.000Z</time>
</trkpt>
<trkpt lat="57.178268" lon="9.493864">
<ele>16.482373</ele>
<time>2026-07-16T09:36:37.000Z</time>
</trkpt>
<trkpt lat="57.178310" lon="9.493929">
<ele>16.480660</ele>
<time>2026-07-16T09:36:38.000Z</time>
</trkpt>
<trkpt lat="57.178349" lon="9.493990">
<ele>16.479062</ele>
<time>2026-07-16T09:36:39.000Z</time>
</trkpt>
<trkpt lat="57.178394" lon="9.494054">
<ele>16.477287</ele>
<time>2026-07-16T09:36:40.000Z</time>
</trkpt>
<trkpt lat="57.178432" lon="9.494119">
<ele>16.475667</ele>
<time>2026-07-16T09:36:41.000Z</time>
</trkpt>
<trkpt lat="57.178474" lon="9.494180">
<ele>16.473997</ele>
<time>2026-07-16T09:36:42.000Z</time>
</trkpt>
<trkpt lat="57.178516" lon="9.494242">
<ele>16.472316</ele>
<time>2026-07-16T09:36:43.000Z</time>
</trkpt>
<trkpt lat="57.178555" lon="9.494304">
<ele>16.470707</ele>
<time>2026-07-16T09:36:44.000Z</time>
</trkpt>
<trkpt lat="57.178593" lon="9.494366">
<ele>16.469122</ele>
<time>2026-07-16T09:36:45.000Z</time>
</trkpt>
<trkpt lat="57.178635" lon="9.494429">
<ele>16.467430</ele>
<time>2026-07-16T09:36:46.000Z</time>
</trkpt>
<trkpt lat="57.178673" lon="9.494490">
<ele>16.465856</ele>
<time>2026-07-16T09:36:47.000Z</time>
</trkpt>
<trkpt lat="57.178715" lon="9.494554">
<ele>16.469264</ele>
<time>2026-07-16T09:36:48.000Z</time>
</trkpt>
<trkpt lat="57.178753" lon="9.494615">
<ele>16.475868</ele>
<time>2026-07-16T09:36:49.000Z</time>
</trkpt>
<trkpt lat="57.178791" lon="9.494679">
<ele>16.482615</ele>
<time>2026-07-16T09:36:50.000Z</time>
</trkpt>
<trkpt lat="57.178829" lon="9.494740">
<ele>16.489219</ele>
<time>2026-07-16T09:36:51.000Z</time>
</trkpt>
<trkpt lat="57.178867" lon="9.494801">
<ele>16.495824</ele>
<time>2026-07-16T09:36:52.000Z</time>
</trkpt>
<trkpt lat="57.178902" lon="9.494863">
<ele>16.502186</ele>
<time>2026-07-16T09:36:53.000Z</time>
</trkpt>
<trkpt lat="57.178940" lon="9.494924">
<ele>16.508790</ele>
<time>2026-07-16T09:36:54.000Z</time>
</trkpt>
<trkpt lat="57.178978" lon="9.494985">
<ele>16.515395</ele>
<time>2026-07-16T09:36:55.000Z</time>
</trkpt>
<trkpt lat="57.179016" lon="9.495047">
<ele>16.522046</ele>
<time>2026-07-16T09:36:56.000Z</time>
</trkpt>
<trkpt lat="57.179054" lon="9.495109">
<ele>16.528697</ele>
<time>2026-07-16T09:36:57.000Z</time>
</trkpt>
<trkpt lat="57.179096" lon="9.495170">
<ele>16.535706</ele>
<time>2026-07-16T09:36:58.000Z</time>
</trkpt>
<trkpt lat="57.179134" lon="9.495232">
<ele>16.542357</ele>
<time>2026-07-16T09:36:59.000Z</time>
</trkpt>
<trkpt lat="57.179173" lon="9.495295">
<ele>16.549154</ele>
<time>2026-07-16T09:37:00.000Z</time>
</trkpt>
<trkpt lat="57.179211" lon="9.495358">
<ele>16.555852</ele>
<time>2026-07-16T09:37:01.000Z</time>
</trkpt>
<trkpt lat="57.179249" lon="9.495420">
<ele>16.562504</ele>
<time>2026-07-16T09:37:02.000Z</time>
</trkpt>
<trkpt lat="57.179287" lon="9.495483">
<ele>16.569202</ele>
<time>2026-07-16T09:37:03.000Z</time>
</trkpt>
<trkpt lat="57.179329" lon="9.495545">
<ele>16.576255</ele>
<time>2026-07-16T09:37:04.000Z</time>
</trkpt>
<trkpt lat="57.179367" lon="9.495606">
<ele>16.582859</ele>
<time>2026-07-16T09:37:05.000Z</time>
</trkpt>
<trkpt lat="57.179405" lon="9.495670">
<ele>16.589606</ele>
<time>2026-07-16T09:37:06.000Z</time>
</trkpt>
<trkpt lat="57.179447" lon="9.495732">
<ele>16.596658</ele>
<time>2026-07-16T09:37:07.000Z</time>
</trkpt>
<trkpt lat="57.179489" lon="9.495796">
<ele>16.603801</ele>
<time>2026-07-16T09:37:08.000Z</time>
</trkpt>
<trkpt lat="57.179527" lon="9.495861">
<ele>16.610595</ele>
<time>2026-07-16T09:37:09.000Z</time>
</trkpt>
<trkpt lat="57.179569" lon="9.495925">
<ele>16.617737</ele>
<time>2026-07-16T09:37:10.000Z</time>
</trkpt>
<trkpt lat="57.179607" lon="9.495987">
<ele>16.624389</ele>
<time>2026-07-16T09:37:11.000Z</time>
</trkpt>
<trkpt lat="57.179646" lon="9.496048">
<ele>16.631093</ele>
<time>2026-07-16T09:37:12.000Z</time>
</trkpt>
<trkpt lat="57.179684" lon="9.496108">
<ele>16.637650</ele>
<time>2026-07-16T09:37:13.000Z</time>
</trkpt>
<trkpt lat="57.179718" lon="9.496165">
<ele>16.643674</ele>
<time>2026-07-16T09:37:14.000Z</time>
</trkpt>
<trkpt lat="57.179752" lon="9.496222">
<ele>16.649698</ele>
<time>2026-07-16T09:37:15.000Z</time>
</trkpt>
<trkpt lat="57.179791" lon="9.496280">
<ele>16.656266</ele>
<time>2026-07-16T09:37:16.000Z</time>
</trkpt>
<trkpt lat="57.179829" lon="9.496338">
<ele>16.662732</ele>
<time>2026-07-16T09:37:17.000Z</time>
</trkpt>
<trkpt lat="57.179863" lon="9.496398">
<ele>16.668901</ele>
<time>2026-07-16T09:37:18.000Z</time>
</trkpt>
<trkpt lat="57.179901" lon="9.496460">
<ele>16.675552</ele>
<time>2026-07-16T09:37:19.000Z</time>
</trkpt>
<trkpt lat="57.179943" lon="9.496520">
<ele>16.682517</ele>
<time>2026-07-16T09:37:20.000Z</time>
</trkpt>
<trkpt lat="57.179981" lon="9.496580">
<ele>16.689075</ele>
<time>2026-07-16T09:37:21.000Z</time>
</trkpt>
<trkpt lat="57.180012" lon="9.496633">
<ele>16.694616</ele>
<time>2026-07-16T09:37:22.000Z</time>
</trkpt>
<trkpt lat="57.180054" lon="9.496690">
<ele>16.701978</ele>
<time>2026-07-16T09:37:23.000Z</time>
</trkpt>
<trkpt lat="57.180092" lon="9.496750">
<ele>16.715698</ele>
<time>2026-07-16T09:37:24.000Z</time>
</trkpt>
<trkpt lat="57.180130" lon="9.496810">
<ele>16.729418</ele>
<time>2026-07-16T09:37:25.000Z</time>
</trkpt>
<trkpt lat="57.180168" lon="9.496867">
<ele>16.742852</ele>
<time>2026-07-16T09:37:26.000Z</time>
</trkpt>
<trkpt lat="57.180202" lon="9.496923">
<ele>16.755355</ele>
<time>2026-07-16T09:37:27.000Z</time>
</trkpt>
<trkpt lat="57.180241" lon="9.496984">
<ele>16.769380</ele>
<time>2026-07-16T09:37:28.000Z</time>
</trkpt>
<trkpt lat="57.180279" lon="9.497043">
<ele>16.783004</ele>
<time>2026-07-16T09:37:29.000Z</time>
</trkpt>
<trkpt lat="57.180321" lon="9.497107">
<ele>16.797947</ele>
<time>2026-07-16T09:37:30.000Z</time>
</trkpt>
<trkpt lat="57.180363" lon="9.497172">
<ele>16.812985</ele>
<time>2026-07-16T09:37:31.000Z</time>
</trkpt>
<trkpt lat="57.180401" lon="9.497241">
<ele>16.827610</ele>
<time>2026-07-16T09:37:32.000Z</time>
</trkpt>
<trkpt lat="57.180439" lon="9.497311">
<ele>16.842340</ele>
<time>2026-07-16T09:37:33.000Z</time>
</trkpt>
<trkpt lat="57.180470" lon="9.497378">
<ele>16.855438</ele>
<time>2026-07-16T09:37:34.000Z</time>
</trkpt>
<trkpt lat="57.180500" lon="9.497451">
<ele>16.869059</ele>
<time>2026-07-16T09:37:35.000Z</time>
</trkpt>
<trkpt lat="57.180523" lon="9.497529">
<ele>16.882261</ele>
<time>2026-07-16T09:37:36.000Z</time>
</trkpt>
<trkpt lat="57.180538" lon="9.497609">
<ele>16.894847</ele>
<time>2026-07-16T09:37:37.000Z</time>
</trkpt>
<trkpt lat="57.180553" lon="9.497700">
<ele>16.908988</ele>
<time>2026-07-16T09:37:38.000Z</time>
</trkpt>
<trkpt lat="57.180557" lon="9.497788">
<ele>16.922118</ele>
<time>2026-07-16T09:37:39.000Z</time>
</trkpt>
<trkpt lat="57.180553" lon="9.497877">
<ele>16.935396</ele>
<time>2026-07-16T09:37:40.000Z</time>
</trkpt>
<trkpt lat="57.180550" lon="9.497970">
<ele>16.949247</ele>
<time>2026-07-16T09:37:41.000Z</time>
</trkpt>
<trkpt lat="57.180542" lon="9.498063">
<ele>16.963247</ele>
<time>2026-07-16T09:37:42.000Z</time>
</trkpt>
<trkpt lat="57.180534" lon="9.498154">
<ele>16.976954</ele>
<time>2026-07-16T09:37:43.000Z</time>
</trkpt>
<trkpt lat="57.180523" lon="9.498242">
<ele>16.990381</ele>
<time>2026-07-16T09:37:44.000Z</time>
</trkpt>
<trkpt lat="57.180511" lon="9.498331">
<ele>17.004017</ele>
<time>2026-07-16T09:37:45.000Z</time>
</trkpt>
<trkpt lat="57.180500" lon="9.498419">
<ele>17.017444</ele>
<time>2026-07-16T09:37:46.000Z</time>
</trkpt>
<trkpt lat="57.180485" lon="9.498504">
<ele>17.030734</ele>
<time>2026-07-16T09:37:47.000Z</time>
</trkpt>
<trkpt lat="57.180473" lon="9.498588">
<ele>17.043650</ele>
<time>2026-07-16T09:37:48.000Z</time>
</trkpt>
<trkpt lat="57.180462" lon="9.498673">
<ele>17.056643</ele>
<time>2026-07-16T09:37:49.000Z</time>
</trkpt>
<trkpt lat="57.180450" lon="9.498760">
<ele>17.069990</ele>
<time>2026-07-16T09:37:50.000Z</time>
</trkpt>
<trkpt lat="57.180435" lon="9.498850">
<ele>17.083990</ele>
<time>2026-07-16T09:37:51.000Z</time>
</trkpt>
<trkpt lat="57.180424" lon="9.498942">
<ele>17.097997</ele>
<time>2026-07-16T09:37:52.000Z</time>
</trkpt>
<trkpt lat="57.180412" lon="9.499030">
<ele>17.111489</ele>
<time>2026-07-16T09:37:53.000Z</time>
</trkpt>
<trkpt lat="57.180401" lon="9.499122">
<ele>17.125496</ele>
<time>2026-07-16T09:37:54.000Z</time>
</trkpt>
<trkpt lat="57.180389" lon="9.499212">
<ele>17.139276</ele>
<time>2026-07-16T09:37:55.000Z</time>
</trkpt>
<trkpt lat="57.180378" lon="9.499300">
<ele>17.152703</ele>
<time>2026-07-16T09:37:56.000Z</time>
</trkpt>
<trkpt lat="57.180367" lon="9.499391">
<ele>17.166565</ele>
<time>2026-07-16T09:37:57.000Z</time>
</trkpt>
<trkpt lat="57.180355" lon="9.499479">
<ele>17.180057</ele>
<time>2026-07-16T09:37:58.000Z</time>
</trkpt>
<trkpt lat="57.180344" lon="9.499570">
<ele>17.193919</ele>
<time>2026-07-16T09:37:59.000Z</time>
</trkpt>
<trkpt lat="57.180332" lon="9.499659">
<ele>17.211773</ele>
<time>2026-07-16T09:38:00.000Z</time>
</trkpt>
<trkpt lat="57.180325" lon="9.499750">
<ele>17.229810</ele>
<time>2026-07-16T09:38:01.000Z</time>
</trkpt>
<trkpt lat="57.180313" lon="9.499839">
<ele>17.247808</ele>
<time>2026-07-16T09:38:02.000Z</time>
</trkpt>
<trkpt lat="57.180302" lon="9.499925">
<ele>17.265148</ele>
<time>2026-07-16T09:38:03.000Z</time>
</trkpt>
<trkpt lat="57.180290" lon="9.500009">
<ele>17.282196</ele>
<time>2026-07-16T09:38:04.000Z</time>
</trkpt>
<trkpt lat="57.180279" lon="9.500093">
<ele>17.299155</ele>
<time>2026-07-16T09:38:05.000Z</time>
</trkpt>
<trkpt lat="57.180271" lon="9.500180">
<ele>17.316472</ele>
<time>2026-07-16T09:38:06.000Z</time>
</trkpt>
<trkpt lat="57.180264" lon="9.500266">
<ele>17.333538</ele>
<time>2026-07-16T09:38:07.000Z</time>
</trkpt>
<trkpt lat="57.180248" lon="9.500352">
<ele>17.351382</ele>
<time>2026-07-16T09:38:08.000Z</time>
</trkpt>
<trkpt lat="57.180241" lon="9.500436">
<ele>17.368060</ele>
<time>2026-07-16T09:38:09.000Z</time>
</trkpt>
<trkpt lat="57.180233" lon="9.500521">
<ele>17.384991</ele>
<time>2026-07-16T09:38:10.000Z</time>
</trkpt>
<trkpt lat="57.180225" lon="9.500601">
<ele>17.400955</ele>
<time>2026-07-16T09:38:11.000Z</time>
</trkpt>
<trkpt lat="57.180214" lon="9.500682">
<ele>17.417342</ele>
<time>2026-07-16T09:38:12.000Z</time>
</trkpt>
<trkpt lat="57.180206" lon="9.500762">
<ele>17.433307</ele>
<time>2026-07-16T09:38:13.000Z</time>
</trkpt>
<trkpt lat="57.180195" lon="9.500840">
<ele>17.449124</ele>
<time>2026-07-16T09:38:14.000Z</time>
</trkpt>
<trkpt lat="57.180187" lon="9.500922">
<ele>17.465474</ele>
<time>2026-07-16T09:38:15.000Z</time>
</trkpt>
<trkpt lat="57.180183" lon="9.501003">
<ele>17.481436</ele>
<time>2026-07-16T09:38:16.000Z</time>
</trkpt>
<trkpt lat="57.180172" lon="9.501082">
<ele>17.497443</ele>
<time>2026-07-16T09:38:17.000Z</time>
</trkpt>
<trkpt lat="57.180157" lon="9.501165">
<ele>17.514613</ele>
<time>2026-07-16T09:38:18.000Z</time>
</trkpt>
<trkpt lat="57.180149" lon="9.501251">
<ele>17.531737</ele>
<time>2026-07-16T09:38:19.000Z</time>
</trkpt>
<trkpt lat="57.180141" lon="9.501336">
<ele>17.548667</ele>
<time>2026-07-16T09:38:20.000Z</time>
</trkpt>
<trkpt lat="57.180130" lon="9.501419">
<ele>17.565435</ele>
<time>2026-07-16T09:38:21.000Z</time>
</trkpt>
<trkpt lat="57.180119" lon="9.501507">
<ele>17.583158</ele>
<time>2026-07-16T09:38:22.000Z</time>
</trkpt>
<trkpt lat="57.180107" lon="9.501597">
<ele>17.601347</ele>
<time>2026-07-16T09:38:23.000Z</time>
</trkpt>
<trkpt lat="57.180096" lon="9.501691">
<ele>17.620219</ele>
<time>2026-07-16T09:38:24.000Z</time>
</trkpt>
<trkpt lat="57.180080" lon="9.501782">
<ele>17.638994</ele>
<time>2026-07-16T09:38:25.000Z</time>
</trkpt>
<trkpt lat="57.180069" lon="9.501875">
<ele>17.657674</ele>
<time>2026-07-16T09:38:26.000Z</time>
</trkpt>
<trkpt lat="57.180061" lon="9.501966">
<ele>17.675766</ele>
<time>2026-07-16T09:38:27.000Z</time>
</trkpt>
<trkpt lat="57.180050" lon="9.502056">
<ele>17.693871</ele>
<time>2026-07-16T09:38:28.000Z</time>
</trkpt>
<trkpt lat="57.180035" lon="9.502147">
<ele>17.712537</ele>
<time>2026-07-16T09:38:29.000Z</time>
</trkpt>
<trkpt lat="57.180023" lon="9.502235">
<ele>17.730345</ele>
<time>2026-07-16T09:38:30.000Z</time>
</trkpt>
<trkpt lat="57.180012" lon="9.502324">
<ele>17.748259</ele>
<time>2026-07-16T09:38:31.000Z</time>
</trkpt>
<trkpt lat="57.180000" lon="9.502416">
<ele>17.766830</ele>
<time>2026-07-16T09:38:32.000Z</time>
</trkpt>
<trkpt lat="57.179993" lon="9.502507">
<ele>17.784867</ele>
<time>2026-07-16T09:38:33.000Z</time>
</trkpt>
<trkpt lat="57.179981" lon="9.502597">
<ele>17.803056</ele>
<time>2026-07-16T09:38:34.000Z</time>
</trkpt>
<trkpt lat="57.179970" lon="9.502684">
<ele>17.820587</ele>
<time>2026-07-16T09:38:35.000Z</time>
</trkpt>
<trkpt lat="57.179958" lon="9.502771">
<ele>17.838205</ele>
<time>2026-07-16T09:38:36.000Z</time>
</trkpt>
<trkpt lat="57.179947" lon="9.502857">
<ele>17.854886</ele>
<time>2026-07-16T09:38:37.000Z</time>
</trkpt>
<trkpt lat="57.179935" lon="9.502944">
<ele>17.871332</ele>
<time>2026-07-16T09:38:38.000Z</time>
</trkpt>
<trkpt lat="57.179928" lon="9.503031">
<ele>17.887445</ele>
<time>2026-07-16T09:38:39.000Z</time>
</trkpt>
<trkpt lat="57.179920" lon="9.503119">
<ele>17.903791</ele>
<time>2026-07-16T09:38:40.000Z</time>
</trkpt>
<trkpt lat="57.179905" lon="9.503210">
<ele>17.921216</ele>
<time>2026-07-16T09:38:41.000Z</time>
</trkpt>
<trkpt lat="57.179897" lon="9.503303">
<ele>17.938467</ele>
<time>2026-07-16T09:38:42.000Z</time>
</trkpt>
<trkpt lat="57.179886" lon="9.503394">
<ele>17.955548</ele>
<time>2026-07-16T09:38:43.000Z</time>
</trkpt>
<trkpt lat="57.179874" lon="9.503488">
<ele>17.973239</ele>
<time>2026-07-16T09:38:44.000Z</time>
</trkpt>
<trkpt lat="57.179863" lon="9.503581">
<ele>17.990678</ele>
<time>2026-07-16T09:38:45.000Z</time>
</trkpt>
<trkpt lat="57.179848" lon="9.503677">
<ele>18.008981</ele>
<time>2026-07-16T09:38:46.000Z</time>
</trkpt>
<trkpt lat="57.179836" lon="9.503774">
<ele>18.027208</ele>
<time>2026-07-16T09:38:47.000Z</time>
</trkpt>
<trkpt lat="57.179825" lon="9.503869">
<ele>18.045005</ele>
<time>2026-07-16T09:38:48.000Z</time>
</trkpt>
<trkpt lat="57.179813" lon="9.503962">
<ele>18.062518</ele>
<time>2026-07-16T09:38:49.000Z</time>
</trkpt>
<trkpt lat="57.179806" lon="9.504053">
<ele>18.079357</ele>
<time>2026-07-16T09:38:50.000Z</time>
</trkpt>
<trkpt lat="57.179798" lon="9.504147">
<ele>18.096788</ele>
<time>2026-07-16T09:38:51.000Z</time>
</trkpt>
<trkpt lat="57.179787" lon="9.504235">
<ele>18.113333</ele>
<time>2026-07-16T09:38:52.000Z</time>
</trkpt>
<trkpt lat="57.179779" lon="9.504322">
<ele>18.129499</ele>
<time>2026-07-16T09:38:53.000Z</time>
</trkpt>
<trkpt lat="57.179768" lon="9.504407">
<ele>18.145509</ele>
<time>2026-07-16T09:38:54.000Z</time>
</trkpt>
<trkpt lat="57.179756" lon="9.504486">
<ele>18.160539</ele>
<time>2026-07-16T09:38:55.000Z</time>
</trkpt>
<trkpt lat="57.179745" lon="9.504567">
<ele>18.175837</ele>
<time>2026-07-16T09:38:56.000Z</time>
</trkpt>
<trkpt lat="57.179733" lon="9.504650">
<ele>18.191574</ele>
<time>2026-07-16T09:38:57.000Z</time>
</trkpt>
<trkpt lat="57.179726" lon="9.504734">
<ele>18.207143</ele>
<time>2026-07-16T09:38:58.000Z</time>
</trkpt>
<trkpt lat="57.179714" lon="9.504817">
<ele>18.222881</ele>
<time>2026-07-16T09:38:59.000Z</time>
</trkpt>
<trkpt lat="57.179703" lon="9.504896">
<ele>18.237823</ele>
<time>2026-07-16T09:39:00.000Z</time>
</trkpt>
<trkpt lat="57.179691" lon="9.504983">
<ele>18.254270</ele>
<time>2026-07-16T09:39:01.000Z</time>
</trkpt>
<trkpt lat="57.179684" lon="9.505074">
<ele>18.271108</ele>
<time>2026-07-16T09:39:02.000Z</time>
</trkpt>
<trkpt lat="57.179672" lon="9.505165">
<ele>18.288265</ele>
<time>2026-07-16T09:39:03.000Z</time>
</trkpt>
<trkpt lat="57.179661" lon="9.505255">
<ele>18.305167</ele>
<time>2026-07-16T09:39:04.000Z</time>
</trkpt>
<trkpt lat="57.179646" lon="9.505346">
<ele>18.322592</ele>
<time>2026-07-16T09:39:05.000Z</time>
</trkpt>
<trkpt lat="57.179638" lon="9.505439">
<ele>18.339843</ele>
<time>2026-07-16T09:39:06.000Z</time>
</trkpt>
<trkpt lat="57.179626" lon="9.505532">
<ele>18.357357</ele>
<time>2026-07-16T09:39:07.000Z</time>
</trkpt>
<trkpt lat="57.179615" lon="9.505626">
<ele>18.374974</ele>
<time>2026-07-16T09:39:08.000Z</time>
</trkpt>
<trkpt lat="57.179604" lon="9.505718">
<ele>18.392234</ele>
<time>2026-07-16T09:39:09.000Z</time>
</trkpt>
<trkpt lat="57.179592" lon="9.505811">
<ele>18.409747</ele>
<time>2026-07-16T09:39:10.000Z</time>
</trkpt>
<trkpt lat="57.179581" lon="9.505903">
<ele>18.427007</ele>
<time>2026-07-16T09:39:11.000Z</time>
</trkpt>
<trkpt lat="57.179569" lon="9.505997">
<ele>18.444699</ele>
<time>2026-07-16T09:39:12.000Z</time>
</trkpt>
<trkpt lat="57.179558" lon="9.506089">
<ele>18.457874</ele>
<time>2026-07-16T09:39:13.000Z</time>
</trkpt>
<trkpt lat="57.179550" lon="9.506181">
<ele>18.466641</ele>
<time>2026-07-16T09:39:14.000Z</time>
</trkpt>
<trkpt lat="57.179535" lon="9.506269">
<ele>18.475320</ele>
<time>2026-07-16T09:39:15.000Z</time>
</trkpt>
<trkpt lat="57.179523" lon="9.506358">
<ele>18.483949</ele>
<time>2026-07-16T09:39:16.000Z</time>
</trkpt>
<trkpt lat="57.179512" lon="9.506445">
<ele>18.492354</ele>
<time>2026-07-16T09:39:17.000Z</time>
</trkpt>
<trkpt lat="57.179504" lon="9.506537">
<ele>18.501121</ele>
<time>2026-07-16T09:39:18.000Z</time>
</trkpt>
<trkpt lat="57.179493" lon="9.506629">
<ele>18.509985</ele>
<time>2026-07-16T09:39:19.000Z</time>
</trkpt>
<trkpt lat="57.179481" lon="9.506720">
<ele>18.518796</ele>
<time>2026-07-16T09:39:20.000Z</time>
</trkpt>
<trkpt lat="57.179470" lon="9.506812">
<ele>18.527660</ele>
<time>2026-07-16T09:39:21.000Z</time>
</trkpt>
<trkpt lat="57.179462" lon="9.506903">
<ele>18.536334</ele>
<time>2026-07-16T09:39:22.000Z</time>
</trkpt>
<trkpt lat="57.179451" lon="9.506994">
<ele>18.545106</ele>
<time>2026-07-16T09:39:23.000Z</time>
</trkpt>
<trkpt lat="57.179440" lon="9.507086">
<ele>18.553970</ele>
<time>2026-07-16T09:39:24.000Z</time>
</trkpt>
<trkpt lat="57.179428" lon="9.507175">
<ele>18.562599</ele>
<time>2026-07-16T09:39:25.000Z</time>
</trkpt>
<trkpt lat="57.179413" lon="9.507265">
<ele>18.571458</ele>
<time>2026-07-16T09:39:26.000Z</time>
</trkpt>
<trkpt lat="57.179401" lon="9.507353">
<ele>18.579996</ele>
<time>2026-07-16T09:39:27.000Z</time>
</trkpt>
<trkpt lat="57.179394" lon="9.507442">
<ele>18.588457</ele>
<time>2026-07-16T09:39:28.000Z</time>
</trkpt>
<trkpt lat="57.179382" lon="9.507533">
<ele>18.597269</ele>
<time>2026-07-16T09:39:29.000Z</time>
</trkpt>
<trkpt lat="57.179375" lon="9.507625">
<ele>18.606010</ele>
<time>2026-07-16T09:39:30.000Z</time>
</trkpt>
<trkpt lat="57.179363" lon="9.507715">
<ele>18.614730</ele>
<time>2026-07-16T09:39:31.000Z</time>
</trkpt>
<trkpt lat="57.179352" lon="9.507806">
<ele>18.623502</ele>
<time>2026-07-16T09:39:32.000Z</time>
</trkpt>
<trkpt lat="57.179344" lon="9.507897">
<ele>18.632176</ele>
<time>2026-07-16T09:39:33.000Z</time>
</trkpt>
<trkpt lat="57.179333" lon="9.507988">
<ele>18.640948</ele>
<time>2026-07-16T09:39:34.000Z</time>
</trkpt>
<trkpt lat="57.179321" lon="9.508077">
<ele>18.649577</ele>
<time>2026-07-16T09:39:35.000Z</time>
</trkpt>
<trkpt lat="57.179310" lon="9.508173">
<ele>18.658809</ele>
<time>2026-07-16T09:39:36.000Z</time>
</trkpt>
<trkpt lat="57.179298" lon="9.508265">
<ele>18.667712</ele>
<time>2026-07-16T09:39:37.000Z</time>
</trkpt>
<trkpt lat="57.179283" lon="9.508361">
<ele>18.677112</ele>
<time>2026-07-16T09:39:38.000Z</time>
</trkpt>
<trkpt lat="57.179276" lon="9.508454">
<ele>18.685946</ele>
<time>2026-07-16T09:39:39.000Z</time>
</trkpt>
<trkpt lat="57.179264" lon="9.508546">
<ele>18.694849</ele>
<time>2026-07-16T09:39:40.000Z</time>
</trkpt>
<trkpt lat="57.179253" lon="9.508642">
<ele>18.704081</ele>
<time>2026-07-16T09:39:41.000Z</time>
</trkpt>
<trkpt lat="57.179241" lon="9.508735">
<ele>18.713076</ele>
<time>2026-07-16T09:39:42.000Z</time>
</trkpt>
<trkpt lat="57.179234" lon="9.508828">
<ele>18.721910</ele>
<time>2026-07-16T09:39:43.000Z</time>
</trkpt>
<trkpt lat="57.179222" lon="9.508918">
<ele>18.730630</ele>
<time>2026-07-16T09:39:44.000Z</time>
</trkpt>
<trkpt lat="57.179215" lon="9.509007">
<ele>18.739091</ele>
<time>2026-07-16T09:39:45.000Z</time>
</trkpt>
<trkpt lat="57.179207" lon="9.509095">
<ele>18.747487</ele>
<time>2026-07-16T09:39:46.000Z</time>
</trkpt>
<trkpt lat="57.179192" lon="9.509183">
<ele>18.756166</ele>
<time>2026-07-16T09:39:47.000Z</time>
</trkpt>
<trkpt lat="57.179184" lon="9.509273">
<ele>18.764747</ele>
<time>2026-07-16T09:39:48.000Z</time>
</trkpt>
<trkpt lat="57.179184" lon="9.509358">
<ele>18.763754</ele>
<time>2026-07-16T09:39:49.000Z</time>
</trkpt>
<trkpt lat="57.179180" lon="9.509445">
<ele>18.761358</ele>
<time>2026-07-16T09:39:50.000Z</time>
</trkpt>
<trkpt lat="57.179176" lon="9.509533">
<ele>18.758935</ele>
<time>2026-07-16T09:39:51.000Z</time>
</trkpt>
<trkpt lat="57.179169" lon="9.509624">
<ele>18.756413</ele>
<time>2026-07-16T09:39:52.000Z</time>
</trkpt>
<trkpt lat="57.179161" lon="9.509713">
<ele>18.753938</ele>
<time>2026-07-16T09:39:53.000Z</time>
</trkpt>
<trkpt lat="57.179153" lon="9.509805">
<ele>18.751381</ele>
<time>2026-07-16T09:39:54.000Z</time>
</trkpt>
<trkpt lat="57.179142" lon="9.509893">
<ele>18.748903</ele>
<time>2026-07-16T09:39:55.000Z</time>
</trkpt>
<trkpt lat="57.179131" lon="9.509980">
<ele>18.746452</ele>
<time>2026-07-16T09:39:56.000Z</time>
</trkpt>
<trkpt lat="57.179123" lon="9.510066">
<ele>18.744058</ele>
<time>2026-07-16T09:39:57.000Z</time>
</trkpt>
<trkpt lat="57.179119" lon="9.510151">
<ele>18.741717</ele>
<time>2026-07-16T09:39:58.000Z</time>
</trkpt>
<trkpt lat="57.179115" lon="9.510240">
<ele>18.739267</ele>
<time>2026-07-16T09:39:59.000Z</time>
</trkpt>
<trkpt lat="57.179112" lon="9.510333">
<ele>18.736710</ele>
<time>2026-07-16T09:40:00.000Z</time>
</trkpt>
<trkpt lat="57.179108" lon="9.510437">
<ele>18.733850</ele>
<time>2026-07-16T09:40:01.000Z</time>
</trkpt>
<trkpt lat="57.179092" lon="9.510544">
<ele>18.730804</ele>
<time>2026-07-16T09:40:02.000Z</time>
</trkpt>
<trkpt lat="57.179077" lon="9.510649">
<ele>18.727825</ele>
<time>2026-07-16T09:40:03.000Z</time>
</trkpt>
<trkpt lat="57.179062" lon="9.510749">
<ele>18.724978</ele>
<time>2026-07-16T09:40:04.000Z</time>
</trkpt>
<trkpt lat="57.179047" lon="9.510842">
<ele>18.722315</ele>
<time>2026-07-16T09:40:05.000Z</time>
</trkpt>
<trkpt lat="57.179028" lon="9.510936">
<ele>18.719563</ele>
<time>2026-07-16T09:40:06.000Z</time>
</trkpt>
<trkpt lat="57.179012" lon="9.511031">
<ele>18.716833</ele>
<time>2026-07-16T09:40:07.000Z</time>
</trkpt>
<trkpt lat="57.179001" lon="9.511127">
<ele>18.714141</ele>
<time>2026-07-16T09:40:08.000Z</time>
</trkpt>
<trkpt lat="57.178989" lon="9.511223">
<ele>18.711438</ele>
<time>2026-07-16T09:40:09.000Z</time>
</trkpt>
<trkpt lat="57.178978" lon="9.511320">
<ele>18.708719</ele>
<time>2026-07-16T09:40:10.000Z</time>
</trkpt>
<trkpt lat="57.178966" lon="9.511420">
<ele>18.705908</ele>
<time>2026-07-16T09:40:11.000Z</time>
</trkpt>
<trkpt lat="57.178955" lon="9.511519">
<ele>18.703135</ele>
<time>2026-07-16T09:40:12.000Z</time>
</trkpt>
<trkpt lat="57.178947" lon="9.511619">
<ele>18.700362</ele>
<time>2026-07-16T09:40:13.000Z</time>
</trkpt>
<trkpt lat="57.178932" lon="9.511722">
<ele>18.697435</ele>
<time>2026-07-16T09:40:14.000Z</time>
</trkpt>
<trkpt lat="57.178921" lon="9.511822">
<ele>18.694636</ele>
<time>2026-07-16T09:40:15.000Z</time>
</trkpt>
<trkpt lat="57.178909" lon="9.511919">
<ele>18.691906</ele>
<time>2026-07-16T09:40:16.000Z</time>
</trkpt>
<trkpt lat="57.178898" lon="9.512015">
<ele>18.689213</ele>
<time>2026-07-16T09:40:17.000Z</time>
</trkpt>
<trkpt lat="57.178890" lon="9.512111">
<ele>18.686548</ele>
<time>2026-07-16T09:40:18.000Z</time>
</trkpt>
<trkpt lat="57.178879" lon="9.512209">
<ele>18.683802</ele>
<time>2026-07-16T09:40:19.000Z</time>
</trkpt>
<trkpt lat="57.178871" lon="9.512304">
<ele>18.681165</ele>
<time>2026-07-16T09:40:20.000Z</time>
</trkpt>
<trkpt lat="57.178867" lon="9.512400">
<ele>18.678523</ele>
<time>2026-07-16T09:40:21.000Z</time>
</trkpt>
<trkpt lat="57.178860" lon="9.512503">
<ele>18.675674</ele>
<time>2026-07-16T09:40:22.000Z</time>
</trkpt>
<trkpt lat="57.178848" lon="9.512602">
<ele>18.699601</ele>
<time>2026-07-16T09:40:23.000Z</time>
</trkpt>
<trkpt lat="57.178837" lon="9.512700">
<ele>18.736695</ele>
<time>2026-07-16T09:40:24.000Z</time>
</trkpt>
<trkpt lat="57.178822" lon="9.512803">
<ele>18.776225</ele>
<time>2026-07-16T09:40:25.000Z</time>
</trkpt>
<trkpt lat="57.178810" lon="9.512911">
<ele>18.817086</ele>
<time>2026-07-16T09:40:26.000Z</time>
</trkpt>
<trkpt lat="57.178795" lon="9.513010">
<ele>18.855186</ele>
<time>2026-07-16T09:40:27.000Z</time>
</trkpt>
<trkpt lat="57.178783" lon="9.513121">
<ele>18.897138</ele>
<time>2026-07-16T09:40:28.000Z</time>
</trkpt>
<trkpt lat="57.178772" lon="9.513226">
<ele>18.936775</ele>
<time>2026-07-16T09:40:29.000Z</time>
</trkpt>
<trkpt lat="57.178764" lon="9.513326">
<ele>18.974241</ele>
<time>2026-07-16T09:40:30.000Z</time>
</trkpt>
<trkpt lat="57.178757" lon="9.513429">
<ele>19.012716</ele>
<time>2026-07-16T09:40:31.000Z</time>
</trkpt>
<trkpt lat="57.178761" lon="9.513532">
<ele>19.050990</ele>
<time>2026-07-16T09:40:32.000Z</time>
</trkpt>
<trkpt lat="57.178761" lon="9.513633">
<ele>19.088424</ele>
<time>2026-07-16T09:40:33.000Z</time>
</trkpt>
<trkpt lat="57.178761" lon="9.513729">
<ele>19.124006</ele>
<time>2026-07-16T09:40:34.000Z</time>
</trkpt>
<trkpt lat="57.178761" lon="9.513824">
<ele>19.159217</ele>
<time>2026-07-16T09:40:35.000Z</time>
</trkpt>
<trkpt lat="57.178757" lon="9.513929">
<ele>19.198230</ele>
<time>2026-07-16T09:40:36.000Z</time>
</trkpt>
<trkpt lat="57.178753" lon="9.514029">
<ele>19.235395</ele>
<time>2026-07-16T09:40:37.000Z</time>
</trkpt>
<trkpt lat="57.178741" lon="9.514126">
<ele>19.272272</ele>
<time>2026-07-16T09:40:38.000Z</time>
</trkpt>
<trkpt lat="57.178741" lon="9.514223">
<ele>19.308224</ele>
<time>2026-07-16T09:40:39.000Z</time>
</trkpt>
<trkpt lat="57.178730" lon="9.514319">
<ele>19.344592</ele>
<time>2026-07-16T09:40:40.000Z</time>
</trkpt>
<trkpt lat="57.178719" lon="9.514412">
<ele>19.379873</ele>
<time>2026-07-16T09:40:41.000Z</time>
</trkpt>
<trkpt lat="57.178707" lon="9.514506">
<ele>19.415666</ele>
<time>2026-07-16T09:40:42.000Z</time>
</trkpt>
<trkpt lat="57.178696" lon="9.514605">
<ele>19.453123</ele>
<time>2026-07-16T09:40:43.000Z</time>
</trkpt>
<trkpt lat="57.178669" lon="9.514711">
<ele>19.496533</ele>
<time>2026-07-16T09:40:44.000Z</time>
</trkpt>
<trkpt lat="57.178642" lon="9.514824">
<ele>19.542304</ele>
<time>2026-07-16T09:40:45.000Z</time>
</trkpt>
<trkpt lat="57.178623" lon="9.514921">
<ele>19.580532</ele>
<time>2026-07-16T09:40:46.000Z</time>
</trkpt>
<trkpt lat="57.178600" lon="9.515008">
<ele>19.616409</ele>
<time>2026-07-16T09:40:47.000Z</time>
</trkpt>
<trkpt lat="57.178581" lon="9.515091">
<ele>19.649804</ele>
<time>2026-07-16T09:40:48.000Z</time>
</trkpt>
<trkpt lat="57.178566" lon="9.515170">
<ele>19.680829</ele>
<time>2026-07-16T09:40:49.000Z</time>
</trkpt>
<trkpt lat="57.178555" lon="9.515245">
<ele>19.709627</ele>
<time>2026-07-16T09:40:50.000Z</time>
</trkpt>
<trkpt lat="57.178543" lon="9.515325">
<ele>19.740393</ele>
<time>2026-07-16T09:40:51.000Z</time>
</trkpt>
<trkpt lat="57.178532" lon="9.515402">
<ele>19.769907</ele>
<time>2026-07-16T09:40:52.000Z</time>
</trkpt>
<trkpt lat="57.178520" lon="9.515475">
<ele>19.798181</ele>
<time>2026-07-16T09:40:53.000Z</time>
</trkpt>
<trkpt lat="57.178505" lon="9.515552">
<ele>19.828508</ele>
<time>2026-07-16T09:40:54.000Z</time>
</trkpt>
<trkpt lat="57.178501" lon="9.515626">
<ele>19.856072</ele>
<time>2026-07-16T09:40:55.000Z</time>
</trkpt>
<trkpt lat="57.178494" lon="9.515699">
<ele>19.883549</ele>
<time>2026-07-16T09:40:56.000Z</time>
</trkpt>
<trkpt lat="57.178490" lon="9.515769">
<ele>19.902895</ele>
<time>2026-07-16T09:40:57.000Z</time>
</trkpt>
<trkpt lat="57.178482" lon="9.515837">
<ele>19.893679</ele>
<time>2026-07-16T09:40:58.000Z</time>
</trkpt>
<trkpt lat="57.178482" lon="9.515908">
<ele>19.884276</ele>
<time>2026-07-16T09:40:59.000Z</time>
</trkpt>
<trkpt lat="57.178486" lon="9.515976">
<ele>19.875217</ele>
<time>2026-07-16T09:41:00.000Z</time>
</trkpt>
<trkpt lat="57.178482" lon="9.516044">
<ele>19.866158</ele>
<time>2026-07-16T09:41:01.000Z</time>
</trkpt>
<trkpt lat="57.178478" lon="9.516105">
<ele>19.858019</ele>
<time>2026-07-16T09:41:02.000Z</time>
</trkpt>
<trkpt lat="57.178478" lon="9.516153">
<ele>19.851662</ele>
<time>2026-07-16T09:41:03.000Z</time>
</trkpt>
<trkpt lat="57.178432" lon="9.516624">
<ele>19.788276</ele>
<time>2026-07-16T09:46:32.000Z</time>
</trkpt>
<trkpt lat="57.178436" lon="9.516693">
<ele>19.779085</ele>
<time>2026-07-16T09:46:33.000Z</time>
</trkpt>
<trkpt lat="57.178440" lon="9.516771">
<ele>19.768709</ele>
<time>2026-07-16T09:46:34.000Z</time>
</trkpt>
<trkpt lat="57.178440" lon="9.516851">
<ele>19.758113</ele>
<time>2026-07-16T09:46:35.000Z</time>
</trkpt>
<trkpt lat="57.178436" lon="9.516931">
<ele>19.747473</ele>
<time>2026-07-16T09:46:36.000Z</time>
</trkpt>
<trkpt lat="57.178440" lon="9.517009">
<ele>19.737096</ele>
<time>2026-07-16T09:46:37.000Z</time>
</trkpt>
<trkpt lat="57.178440" lon="9.517089">
<ele>19.726500</ele>
<time>2026-07-16T09:46:38.000Z</time>
</trkpt>
<trkpt lat="57.178440" lon="9.517173">
<ele>19.715375</ele>
<time>2026-07-16T09:46:39.000Z</time>
</trkpt>
<trkpt lat="57.178436" lon="9.517259">
<ele>19.703943</ele>
<time>2026-07-16T09:46:40.000Z</time>
</trkpt>
<trkpt lat="57.178432" lon="9.517343">
<ele>19.692774</ele>
<time>2026-07-16T09:46:41.000Z</time>
</trkpt>
<trkpt lat="57.178440" lon="9.517428">
<ele>19.681348</ele>
<time>2026-07-16T09:46:42.000Z</time>
</trkpt>
<trkpt lat="57.178440" lon="9.517515">
<ele>19.669826</ele>
<time>2026-07-16T09:46:43.000Z</time>
</trkpt>
<trkpt lat="57.178440" lon="9.517605">
<ele>19.657906</ele>
<time>2026-07-16T09:46:44.000Z</time>
</trkpt>
<trkpt lat="57.178440" lon="9.517694">
<ele>19.646118</ele>
<time>2026-07-16T09:46:45.000Z</time>
</trkpt>
<trkpt lat="57.178440" lon="9.517784">
<ele>19.634198</ele>
<time>2026-07-16T09:46:46.000Z</time>
</trkpt>
<trkpt lat="57.178444" lon="9.517875">
<ele>19.622106</ele>
<time>2026-07-16T09:46:47.000Z</time>
</trkpt>
<trkpt lat="57.178440" lon="9.517967">
<ele>19.609882</ele>
<time>2026-07-16T09:46:48.000Z</time>
</trkpt>
<trkpt lat="57.178444" lon="9.518062">
<ele>19.597262</ele>
<time>2026-07-16T09:46:49.000Z</time>
</trkpt>
<trkpt lat="57.178440" lon="9.518152">
<ele>19.585302</ele>
<time>2026-07-16T09:46:50.000Z</time>
</trkpt>
<trkpt lat="57.178440" lon="9.518246">
<ele>19.572852</ele>
<time>2026-07-16T09:46:51.000Z</time>
</trkpt>
<trkpt lat="57.178440" lon="9.518345">
<ele>19.559740</ele>
<time>2026-07-16T09:46:52.000Z</time>
</trkpt>
<trkpt lat="57.178432" lon="9.518444">
<ele>19.546483</ele>
<time>2026-07-16T09:46:53.000Z</time>
</trkpt>
<trkpt lat="57.178429" lon="9.518540">
<ele>19.533747</ele>
<time>2026-07-16T09:46:54.000Z</time>
</trkpt>
<trkpt lat="57.178432" lon="9.518641">
<ele>19.520350</ele>
<time>2026-07-16T09:46:55.000Z</time>
</trkpt>
<trkpt lat="57.178432" lon="9.518742">
<ele>19.506973</ele>
<time>2026-07-16T09:46:56.000Z</time>
</trkpt>
<trkpt lat="57.178436" lon="9.518844">
<ele>19.493429</ele>
<time>2026-07-16T09:46:57.000Z</time>
</trkpt>
<trkpt lat="57.178436" lon="9.518943">
<ele>19.480317</ele>
<time>2026-07-16T09:46:58.000Z</time>
</trkpt>
<trkpt lat="57.178436" lon="9.519039">
<ele>19.467602</ele>
<time>2026-07-16T09:46:59.000Z</time>
</trkpt>
<trkpt lat="57.178436" lon="9.519135">
<ele>19.461050</ele>
<time>2026-07-16T09:47:00.000Z</time>
</trkpt>
<trkpt lat="57.178436" lon="9.519237">
<ele>19.455639</ele>
<time>2026-07-16T09:47:01.000Z</time>
</trkpt>
<trkpt lat="57.178436" lon="9.519332">
<ele>19.450599</ele>
<time>2026-07-16T09:47:02.000Z</time>
</trkpt>
<trkpt lat="57.178440" lon="9.519433">
<ele>19.445226</ele>
<time>2026-07-16T09:47:03.000Z</time>
</trkpt>
<trkpt lat="57.178444" lon="9.519535">
<ele>19.439800</ele>
<time>2026-07-16T09:47:04.000Z</time>
</trkpt>
<trkpt lat="57.178444" lon="9.519639">
<ele>19.434282</ele>
<time>2026-07-16T09:47:05.000Z</time>
</trkpt>
<trkpt lat="57.178444" lon="9.519738">
<ele>19.429030</ele>
<time>2026-07-16T09:47:06.000Z</time>
</trkpt>
<trkpt lat="57.178444" lon="9.519842">
<ele>19.423512</ele>
<time>2026-07-16T09:47:07.000Z</time>
</trkpt>
<trkpt lat="57.178440" lon="9.519946">
<ele>19.417981</ele>
<time>2026-07-16T09:47:08.000Z</time>
</trkpt>
<trkpt lat="57.178440" lon="9.520046">
<ele>19.412675</ele>
<time>2026-07-16T09:47:09.000Z</time>
</trkpt>
<trkpt lat="57.178444" lon="9.520149">
<ele>19.407197</ele>
<time>2026-07-16T09:47:10.000Z</time>
</trkpt>
<trkpt lat="57.178448" lon="9.520253">
<ele>19.401665</ele>
<time>2026-07-16T09:47:11.000Z</time>
</trkpt>
<trkpt lat="57.178452" lon="9.520354">
<ele>19.396293</ele>
<time>2026-07-16T09:47:12.000Z</time>
</trkpt>
<trkpt lat="57.178448" lon="9.520449">
<ele>19.391237</ele>
<time>2026-07-16T09:47:13.000Z</time>
</trkpt>
<trkpt lat="57.178452" lon="9.520555">
<ele>19.385600</ele>
<time>2026-07-16T09:47:14.000Z</time>
</trkpt>
<trkpt lat="57.178452" lon="9.520660">
<ele>19.380029</ele>
<time>2026-07-16T09:47:15.000Z</time>
</trkpt>
<trkpt lat="57.178452" lon="9.520755">
<ele>19.374989</ele>
<time>2026-07-16T09:47:16.000Z</time>
</trkpt>
<trkpt lat="57.178463" lon="9.520849">
<ele>19.369887</ele>
<time>2026-07-16T09:47:17.000Z</time>
</trkpt>
<trkpt lat="57.178467" lon="9.520944">
<ele>19.364832</ele>
<time>2026-07-16T09:47:18.000Z</time>
</trkpt>
<trkpt lat="57.178474" lon="9.521040">
<ele>19.359693</ele>
<time>2026-07-16T09:47:19.000Z</time>
</trkpt>
<trkpt lat="57.178478" lon="9.521139">
<ele>19.354426</ele>
<time>2026-07-16T09:47:20.000Z</time>
</trkpt>
<trkpt lat="57.178486" lon="9.521238">
<ele>19.349115</ele>
<time>2026-07-16T09:47:21.000Z</time>
</trkpt>
<trkpt lat="57.178490" lon="9.521337">
<ele>19.343848</ele>
<time>2026-07-16T09:47:22.000Z</time>
</trkpt>
<trkpt lat="57.178494" lon="9.521427">
<ele>19.339057</ele>
<time>2026-07-16T09:47:23.000Z</time>
</trkpt>
<trkpt lat="57.178494" lon="9.521521">
<ele>19.334070</ele>
<time>2026-07-16T09:47:24.000Z</time>
</trkpt>
<trkpt lat="57.178494" lon="9.521619">
<ele>19.328871</ele>
<time>2026-07-16T09:47:25.000Z</time>
</trkpt>
<trkpt lat="57.178501" lon="9.521718">
<ele>19.323574</ele>
<time>2026-07-16T09:47:26.000Z</time>
</trkpt>
<trkpt lat="57.178497" lon="9.521814">
<ele>19.318466</ele>
<time>2026-07-16T09:47:27.000Z</time>
</trkpt>
<trkpt lat="57.178486" lon="9.521912">
<ele>19.313156</ele>
<time>2026-07-16T09:47:28.000Z</time>
</trkpt>
<trkpt lat="57.178490" lon="9.522010">
<ele>19.307942</ele>
<time>2026-07-16T09:47:29.000Z</time>
</trkpt>
<trkpt lat="57.178494" lon="9.522103">
<ele>19.302993</ele>
<time>2026-07-16T09:47:30.000Z</time>
</trkpt>
<trkpt lat="57.178509" lon="9.522198">
<ele>19.297743</ele>
<time>2026-07-16T09:47:31.000Z</time>
</trkpt>
<trkpt lat="57.178513" lon="9.522283">
<ele>19.293216</ele>
<time>2026-07-16T09:47:32.000Z</time>
</trkpt>
<trkpt lat="57.178516" lon="9.522366">
<ele>19.288587</ele>
<time>2026-07-16T09:47:33.000Z</time>
</trkpt>
<trkpt lat="57.178513" lon="9.522449">
<ele>19.281108</ele>
<time>2026-07-16T09:47:34.000Z</time>
</trkpt>
<trkpt lat="57.178501" lon="9.522529">
<ele>19.273644</ele>
<time>2026-07-16T09:47:35.000Z</time>
</trkpt>
<trkpt lat="57.178490" lon="9.522613">
<ele>19.265874</ele>
<time>2026-07-16T09:47:36.000Z</time>
</trkpt>
<trkpt lat="57.178494" lon="9.522692">
<ele>19.258740</ele>
<time>2026-07-16T09:47:37.000Z</time>
</trkpt>
<trkpt lat="57.178494" lon="9.522763">
<ele>19.252356</ele>
<time>2026-07-16T09:47:38.000Z</time>
</trkpt>
<trkpt lat="57.178497" lon="9.522828">
<ele>19.246491</ele>
<time>2026-07-16T09:47:39.000Z</time>
</trkpt>
<trkpt lat="57.178513" lon="9.522882">
<ele>19.240957</ele>
<time>2026-07-16T09:47:40.000Z</time>
</trkpt>
<trkpt lat="57.178532" lon="9.522931">
<ele>19.235540</ele>
<time>2026-07-16T09:47:41.000Z</time>
</trkpt>
<trkpt lat="57.178562" lon="9.522965">
<ele>19.229700</ele>
<time>2026-07-16T09:47:42.000Z</time>
</trkpt>
<trkpt lat="57.178593" lon="9.522995">
<ele>19.223893</ele>
<time>2026-07-16T09:47:43.000Z</time>
</trkpt>
<trkpt lat="57.178623" lon="9.523019">
<ele>19.218469</ele>
<time>2026-07-16T09:47:44.000Z</time>
</trkpt>
<trkpt lat="57.178658" lon="9.523038">
<ele>19.212417</ele>
<time>2026-07-16T09:47:45.000Z</time>
</trkpt>
<trkpt lat="57.178692" lon="9.523053">
<ele>19.206618</ele>
<time>2026-07-16T09:47:46.000Z</time>
</trkpt>
<trkpt lat="57.178726" lon="9.523067">
<ele>19.200839</ele>
<time>2026-07-16T09:47:47.000Z</time>
</trkpt>
<trkpt lat="57.178764" lon="9.523083">
<ele>19.194373</ele>
<time>2026-07-16T09:47:48.000Z</time>
</trkpt>
<trkpt lat="57.178795" lon="9.523096">
<ele>19.189100</ele>
<time>2026-07-16T09:47:49.000Z</time>
</trkpt>
<trkpt lat="57.178833" lon="9.523111">
<ele>19.182653</ele>
<time>2026-07-16T09:47:50.000Z</time>
</trkpt>
<trkpt lat="57.178860" lon="9.523124">
<ele>19.178025</ele>
<time>2026-07-16T09:47:51.000Z</time>
</trkpt>
<trkpt lat="57.178894" lon="9.523133">
<ele>19.172327</ele>
<time>2026-07-16T09:47:52.000Z</time>
</trkpt>
<trkpt lat="57.178932" lon="9.523147">
<ele>19.165899</ele>
<time>2026-07-16T09:47:53.000Z</time>
</trkpt>
<trkpt lat="57.178970" lon="9.523160">
<ele>19.159488</ele>
<time>2026-07-16T09:47:54.000Z</time>
</trkpt>
<trkpt lat="57.179008" lon="9.523173">
<ele>19.153077</ele>
<time>2026-07-16T09:47:55.000Z</time>
</trkpt>
<trkpt lat="57.179047" lon="9.523188">
<ele>19.146468</ele>
<time>2026-07-16T09:47:56.000Z</time>
</trkpt>
<trkpt lat="57.179085" lon="9.523207">
<ele>19.139937</ele>
<time>2026-07-16T09:47:57.000Z</time>
</trkpt>
<trkpt lat="57.179131" lon="9.523225">
<ele>19.132137</ele>
<time>2026-07-16T09:47:58.000Z</time>
</trkpt>
<trkpt lat="57.179176" lon="9.523245">
<ele>19.124459</ele>
<time>2026-07-16T09:47:59.000Z</time>
</trkpt>
<trkpt lat="57.179218" lon="9.523261">
<ele>19.117344</ele>
<time>2026-07-16T09:48:00.000Z</time>
</trkpt>
<trkpt lat="57.179268" lon="9.523273">
<ele>19.108980</ele>
<time>2026-07-16T09:48:01.000Z</time>
</trkpt>
<trkpt lat="57.179317" lon="9.523287">
<ele>19.100755</ele>
<time>2026-07-16T09:48:02.000Z</time>
</trkpt>
<trkpt lat="57.179371" lon="9.523308">
<ele>19.091601</ele>
<time>2026-07-16T09:48:03.000Z</time>
</trkpt>
<trkpt lat="57.179413" lon="9.523328">
<ele>19.084405</ele>
<time>2026-07-16T09:48:04.000Z</time>
</trkpt>
<trkpt lat="57.179455" lon="9.523341">
<ele>19.077341</ele>
<time>2026-07-16T09:48:05.000Z</time>
</trkpt>
<trkpt lat="57.179497" lon="9.523353">
<ele>19.070291</ele>
<time>2026-07-16T09:48:06.000Z</time>
</trkpt>
<trkpt lat="57.179554" lon="9.523366">
<ele>19.060763</ele>
<time>2026-07-16T09:48:07.000Z</time>
</trkpt>
<trkpt lat="57.179607" lon="9.523386">
<ele>19.051789</ele>
<time>2026-07-16T09:48:08.000Z</time>
</trkpt>
<trkpt lat="57.179665" lon="9.523407">
<ele>19.041985</ele>
<time>2026-07-16T09:48:09.000Z</time>
</trkpt>
<trkpt lat="57.179718" lon="9.523426">
<ele>19.033028</ele>
<time>2026-07-16T09:48:10.000Z</time>
</trkpt>
<trkpt lat="57.179771" lon="9.523449">
<ele>19.023997</ele>
<time>2026-07-16T09:48:11.000Z</time>
</trkpt>
<trkpt lat="57.179821" lon="9.523469">
<ele>19.015510</ele>
<time>2026-07-16T09:48:12.000Z</time>
</trkpt>
<trkpt lat="57.179867" lon="9.523483">
<ele>19.007776</ele>
<time>2026-07-16T09:48:13.000Z</time>
</trkpt>
<trkpt lat="57.179909" lon="9.523497">
<ele>19.000696</ele>
<time>2026-07-16T09:48:14.000Z</time>
</trkpt>
<trkpt lat="57.179947" lon="9.523509">
<ele>18.994301</ele>
<time>2026-07-16T09:48:15.000Z</time>
</trkpt>
<trkpt lat="57.179981" lon="9.523526">
<ele>18.997889</ele>
<time>2026-07-16T09:48:16.000Z</time>
</trkpt>
<trkpt lat="57.180019" lon="9.523546">
<ele>19.018313</ele>
<time>2026-07-16T09:48:17.000Z</time>
</trkpt>
<trkpt lat="57.180054" lon="9.523566">
<ele>19.037251</ele>
<time>2026-07-16T09:48:18.000Z</time>
</trkpt>
<trkpt lat="57.180096" lon="9.523587">
<ele>19.059742</ele>
<time>2026-07-16T09:48:19.000Z</time>
</trkpt>
<trkpt lat="57.180134" lon="9.523608">
<ele>19.080245</ele>
<time>2026-07-16T09:48:20.000Z</time>
</trkpt>
<trkpt lat="57.180172" lon="9.523628">
<ele>19.100669</ele>
<time>2026-07-16T09:48:21.000Z</time>
</trkpt>
<trkpt lat="57.180214" lon="9.523650">
<ele>19.123234</ele>
<time>2026-07-16T09:48:22.000Z</time>
</trkpt>
<trkpt lat="57.180256" lon="9.523668">
<ele>19.145520</ele>
<time>2026-07-16T09:48:23.000Z</time>
</trkpt>
<trkpt lat="57.180294" lon="9.523684">
<ele>19.165666</ele>
<time>2026-07-16T09:48:24.000Z</time>
</trkpt>
<trkpt lat="57.180332" lon="9.523698">
<ele>19.185694</ele>
<time>2026-07-16T09:48:25.000Z</time>
</trkpt>
<trkpt lat="57.180374" lon="9.523715">
<ele>19.207918</ele>
<time>2026-07-16T09:48:26.000Z</time>
</trkpt>
<trkpt lat="57.180409" lon="9.523731">
<ele>19.226555</ele>
<time>2026-07-16T09:48:27.000Z</time>
</trkpt>
<trkpt lat="57.180450" lon="9.523748">
<ele>19.248275</ele>
<time>2026-07-16T09:48:28.000Z</time>
</trkpt>
<trkpt lat="57.180496" lon="9.523762">
<ele>19.272372</ele>
<time>2026-07-16T09:48:29.000Z</time>
</trkpt>
<trkpt lat="57.180534" lon="9.523772">
<ele>19.292211</ele>
<time>2026-07-16T09:48:30.000Z</time>
</trkpt>
<trkpt lat="57.180561" lon="9.523784">
<ele>19.306565</ele>
<time>2026-07-16T09:48:31.000Z</time>
</trkpt>
<trkpt lat="57.180603" lon="9.523796">
<ele>19.328532</ele>
<time>2026-07-16T09:48:32.000Z</time>
</trkpt>
<trkpt lat="57.180641" lon="9.523809">
<ele>19.348508</ele>
<time>2026-07-16T09:48:33.000Z</time>
</trkpt>
<trkpt lat="57.180687" lon="9.523827">
<ele>19.372812</ele>
<time>2026-07-16T09:48:34.000Z</time>
</trkpt>
<trkpt lat="57.180740" lon="9.523854">
<ele>19.401230</ele>
<time>2026-07-16T09:48:35.000Z</time>
</trkpt>
<trkpt lat="57.180790" lon="9.523880">
<ele>19.428080</ele>
<time>2026-07-16T09:48:36.000Z</time>
</trkpt>
<trkpt lat="57.180840" lon="9.523911">
<ele>19.455343</ele>
<time>2026-07-16T09:48:37.000Z</time>
</trkpt>
<trkpt lat="57.180893" lon="9.523953">
<ele>19.485156</ele>
<time>2026-07-16T09:48:38.000Z</time>
</trkpt>
<trkpt lat="57.180946" lon="9.523993">
<ele>19.514752</ele>
<time>2026-07-16T09:48:39.000Z</time>
</trkpt>
<trkpt lat="57.180996" lon="9.524030">
<ele>19.542596</ele>
<time>2026-07-16T09:48:40.000Z</time>
</trkpt>
<trkpt lat="57.181046" lon="9.524077">
<ele>19.571600</ele>
<time>2026-07-16T09:48:41.000Z</time>
</trkpt>
<trkpt lat="57.181091" lon="9.524122">
<ele>19.598055</ele>
<time>2026-07-16T09:48:42.000Z</time>
</trkpt>
<trkpt lat="57.181137" lon="9.524169">
<ele>19.625232</ele>
<time>2026-07-16T09:48:43.000Z</time>
</trkpt>
<trkpt lat="57.181175" lon="9.524212">
<ele>19.648272</ele>
<time>2026-07-16T09:48:44.000Z</time>
</trkpt>
<trkpt lat="57.181217" lon="9.524252">
<ele>19.672702</ele>
<time>2026-07-16T09:48:45.000Z</time>
</trkpt>
<trkpt lat="57.181259" lon="9.524295">
<ele>19.697528</ele>
<time>2026-07-16T09:48:46.000Z</time>
</trkpt>
<trkpt lat="57.181301" lon="9.524334">
<ele>19.721830</ele>
<time>2026-07-16T09:48:47.000Z</time>
</trkpt>
<trkpt lat="57.181332" lon="9.524364">
<ele>19.739923</ele>
<time>2026-07-16T09:48:48.000Z</time>
</trkpt>
<trkpt lat="57.181366" lon="9.524390">
<ele>19.758945</ele>
<time>2026-07-16T09:48:49.000Z</time>
</trkpt>
<trkpt lat="57.181416" lon="9.524437">
<ele>19.787949</ele>
<time>2026-07-16T09:48:50.000Z</time>
</trkpt>
<trkpt lat="57.181461" lon="9.524482">
<ele>19.814404</ele>
<time>2026-07-16T09:48:51.000Z</time>
</trkpt>
<trkpt lat="57.181500" lon="9.524522">
<ele>19.837466</ele>
<time>2026-07-16T09:48:52.000Z</time>
</trkpt>
<trkpt lat="57.181549" lon="9.524572">
<ele>19.866407</ele>
<time>2026-07-16T09:48:53.000Z</time>
</trkpt>
<trkpt lat="57.181602" lon="9.524620">
<ele>19.896922</ele>
<time>2026-07-16T09:48:54.000Z</time>
</trkpt>
<trkpt lat="57.181644" lon="9.524657">
<ele>19.920631</ele>
<time>2026-07-16T09:48:55.000Z</time>
</trkpt>
<trkpt lat="57.181690" lon="9.524700">
<ele>19.931544</ele>
<time>2026-07-16T09:48:56.000Z</time>
</trkpt>
<trkpt lat="57.181732" lon="9.524730">
<ele>19.941076</ele>
<time>2026-07-16T09:48:57.000Z</time>
</trkpt>
<trkpt lat="57.181766" lon="9.524754">
<ele>19.948780</ele>
<time>2026-07-16T09:48:58.000Z</time>
</trkpt>
<trkpt lat="57.181805" lon="9.524794">
<ele>19.958224</ele>
<time>2026-07-16T09:48:59.000Z</time>
</trkpt>
<trkpt lat="57.181839" lon="9.524823">
<ele>19.966151</ele>
<time>2026-07-16T09:49:00.000Z</time>
</trkpt>
<trkpt lat="57.181881" lon="9.524864">
<ele>19.976207</ele>
<time>2026-07-16T09:49:01.000Z</time>
</trkpt>
<trkpt lat="57.181934" lon="9.524918">
<ele>19.989020</ele>
<time>2026-07-16T09:49:02.000Z</time>
</trkpt>
<trkpt lat="57.181988" lon="9.524965">
<ele>20.001656</ele>
<time>2026-07-16T09:49:03.000Z</time>
</trkpt>
<trkpt lat="57.182030" lon="9.525004">
<ele>20.011607</ele>
<time>2026-07-16T09:49:04.000Z</time>
</trkpt>
<trkpt lat="57.182079" lon="9.525043">
<ele>20.022901</ele>
<time>2026-07-16T09:49:05.000Z</time>
</trkpt>
<trkpt lat="57.182121" lon="9.525082">
<ele>20.032852</ele>
<time>2026-07-16T09:49:06.000Z</time>
</trkpt>
<trkpt lat="57.182171" lon="9.525135">
<ele>20.045056</ele>
<time>2026-07-16T09:49:07.000Z</time>
</trkpt>
<trkpt lat="57.182232" lon="9.525189">
<ele>20.059375</ele>
<time>2026-07-16T09:49:08.000Z</time>
</trkpt>
<trkpt lat="57.182289" lon="9.525246">
<ele>20.073096</ele>
<time>2026-07-16T09:49:09.000Z</time>
</trkpt>
<trkpt lat="57.182354" lon="9.525313">
<ele>20.088853</ele>
<time>2026-07-16T09:49:10.000Z</time>
</trkpt>
<trkpt lat="57.182411" lon="9.525370">
<ele>20.102575</ele>
<time>2026-07-16T09:49:11.000Z</time>
</trkpt>
<trkpt lat="57.182468" lon="9.525423">
<ele>20.116083</ele>
<time>2026-07-16T09:49:12.000Z</time>
</trkpt>
<trkpt lat="57.182522" lon="9.525477">
<ele>20.129082</ele>
<time>2026-07-16T09:49:13.000Z</time>
</trkpt>
<trkpt lat="57.182571" lon="9.525531">
<ele>20.141161</ele>
<time>2026-07-16T09:49:14.000Z</time>
</trkpt>
<trkpt lat="57.182625" lon="9.525585">
<ele>20.154160</ele>
<time>2026-07-16T09:49:15.000Z</time>
</trkpt>
<trkpt lat="57.182678" lon="9.525641">
<ele>20.167086</ele>
<time>2026-07-16T09:49:16.000Z</time>
</trkpt>
<trkpt lat="57.182732" lon="9.525691">
<ele>20.179872</ele>
<time>2026-07-16T09:49:17.000Z</time>
</trkpt>
<trkpt lat="57.182785" lon="9.525743">
<ele>20.192576</ele>
<time>2026-07-16T09:49:18.000Z</time>
</trkpt>
<trkpt lat="57.182835" lon="9.525797">
<ele>20.204838</ele>
<time>2026-07-16T09:49:19.000Z</time>
</trkpt>
<trkpt lat="57.182884" lon="9.525847">
<ele>20.216688</ele>
<time>2026-07-16T09:49:20.000Z</time>
</trkpt>
<trkpt lat="57.182934" lon="9.525898">
<ele>20.228779</ele>
<time>2026-07-16T09:49:21.000Z</time>
</trkpt>
<trkpt lat="57.182987" lon="9.525949">
<ele>20.241429</ele>
<time>2026-07-16T09:49:22.000Z</time>
</trkpt>
<trkpt lat="57.183033" lon="9.526003">
<ele>20.252968</ele>
<time>2026-07-16T09:49:23.000Z</time>
</trkpt>
<trkpt lat="57.183079" lon="9.526052">
<ele>20.264209</ele>
<time>2026-07-16T09:49:24.000Z</time>
</trkpt>
<trkpt lat="57.183125" lon="9.526103">
<ele>20.275567</ele>
<time>2026-07-16T09:49:25.000Z</time>
</trkpt>
<trkpt lat="57.183178" lon="9.526159">
<ele>20.288492</ele>
<time>2026-07-16T09:49:26.000Z</time>
</trkpt>
<trkpt lat="57.183224" lon="9.526209">
<ele>20.299791</ele>
<time>2026-07-16T09:49:27.000Z</time>
</trkpt>
<trkpt lat="57.183270" lon="9.526256">
<ele>20.315240</ele>
<time>2026-07-16T09:49:28.000Z</time>
</trkpt>
<trkpt lat="57.183315" lon="9.526302">
<ele>20.330894</ele>
<time>2026-07-16T09:49:29.000Z</time>
</trkpt>
<trkpt lat="57.183361" lon="9.526351">
<ele>20.347057</ele>
<time>2026-07-16T09:49:30.000Z</time>
</trkpt>
<trkpt lat="57.183407" lon="9.526398">
<ele>20.363057</ele>
<time>2026-07-16T09:49:31.000Z</time>
</trkpt>
<trkpt lat="57.183453" lon="9.526444">
<ele>20.378978</ele>
<time>2026-07-16T09:49:32.000Z</time>
</trkpt>
<trkpt lat="57.183498" lon="9.526490">
<ele>20.394632</ele>
<time>2026-07-16T09:49:33.000Z</time>
</trkpt>
<trkpt lat="57.183548" lon="9.526538">
<ele>20.411783</ele>
<time>2026-07-16T09:49:34.000Z</time>
</trkpt>
<trkpt lat="57.183594" lon="9.526586">
<ele>20.427864</ele>
<time>2026-07-16T09:49:35.000Z</time>
</trkpt>
<trkpt lat="57.183636" lon="9.526632">
<ele>20.442726</ele>
<time>2026-07-16T09:49:36.000Z</time>
</trkpt>
<trkpt lat="57.183678" lon="9.526678">
<ele>20.457588</ele>
<time>2026-07-16T09:49:37.000Z</time>
</trkpt>
<trkpt lat="57.183723" lon="9.526724">
<ele>20.473242</ele>
<time>2026-07-16T09:49:38.000Z</time>
</trkpt>
<trkpt lat="57.183769" lon="9.526771">
<ele>20.489243</ele>
<time>2026-07-16T09:49:39.000Z</time>
</trkpt>
<trkpt lat="57.183811" lon="9.526816">
<ele>20.504021</ele>
<time>2026-07-16T09:49:40.000Z</time>
</trkpt>
<trkpt lat="57.183857" lon="9.526862">
<ele>20.519942</ele>
<time>2026-07-16T09:49:41.000Z</time>
</trkpt>
<trkpt lat="57.183903" lon="9.526910">
<ele>20.536023</ele>
<time>2026-07-16T09:49:42.000Z</time>
</trkpt>
<trkpt lat="57.183945" lon="9.526959">
<ele>20.551144</ele>
<time>2026-07-16T09:49:43.000Z</time>
</trkpt>
<trkpt lat="57.183987" lon="9.527008">
<ele>20.566264</ele>
<time>2026-07-16T09:49:44.000Z</time>
</trkpt>
<trkpt lat="57.184032" lon="9.527058">
<ele>20.582248</ele>
<time>2026-07-16T09:49:45.000Z</time>
</trkpt>
<trkpt lat="57.184074" lon="9.527107">
<ele>20.597369</ele>
<time>2026-07-16T09:49:46.000Z</time>
</trkpt>
<trkpt lat="57.184116" lon="9.527155">
<ele>20.612402</ele>
<time>2026-07-16T09:49:47.000Z</time>
</trkpt>
<trkpt lat="57.184162" lon="9.527202">
<ele>20.628402</ele>
<time>2026-07-16T09:49:48.000Z</time>
</trkpt>
<trkpt lat="57.184204" lon="9.527248">
<ele>20.643264</ele>
<time>2026-07-16T09:49:49.000Z</time>
</trkpt>
<trkpt lat="57.184246" lon="9.527295">
<ele>20.658211</ele>
<time>2026-07-16T09:49:50.000Z</time>
</trkpt>
<trkpt lat="57.184292" lon="9.527342">
<ele>20.674211</ele>
<time>2026-07-16T09:49:51.000Z</time>
</trkpt>
<trkpt lat="57.184330" lon="9.527385">
<ele>20.687776</ele>
<time>2026-07-16T09:49:52.000Z</time>
</trkpt>
<trkpt lat="57.184372" lon="9.527425">
<ele>20.702158</ele>
<time>2026-07-16T09:49:53.000Z</time>
</trkpt>
<trkpt lat="57.184414" lon="9.527469">
<ele>20.716854</ele>
<time>2026-07-16T09:49:54.000Z</time>
</trkpt>
<trkpt lat="57.184456" lon="9.527511">
<ele>20.731391</ele>
<time>2026-07-16T09:49:55.000Z</time>
</trkpt>
<trkpt lat="57.184498" lon="9.527555">
<ele>20.746087</ele>
<time>2026-07-16T09:49:56.000Z</time>
</trkpt>
<trkpt lat="57.184540" lon="9.527597">
<ele>20.760624</ele>
<time>2026-07-16T09:49:57.000Z</time>
</trkpt>
<trkpt lat="57.184578" lon="9.527640">
<ele>20.774188</ele>
<time>2026-07-16T09:49:58.000Z</time>
</trkpt>
<trkpt lat="57.184620" lon="9.527682">
<ele>20.788725</ele>
<time>2026-07-16T09:49:59.000Z</time>
</trkpt>
<trkpt lat="57.184658" lon="9.527727">
<ele>20.802464</ele>
<time>2026-07-16T09:50:00.000Z</time>
</trkpt>
<trkpt lat="57.184700" lon="9.527770">
<ele>20.817080</ele>
<time>2026-07-16T09:50:01.000Z</time>
</trkpt>
<trkpt lat="57.184738" lon="9.527814">
<ele>20.830731</ele>
<time>2026-07-16T09:50:02.000Z</time>
</trkpt>
<trkpt lat="57.184776" lon="9.527853">
<ele>20.843963</ele>
<time>2026-07-16T09:50:03.000Z</time>
</trkpt>
<trkpt lat="57.184811" lon="9.527886">
<ele>20.864828</ele>
<time>2026-07-16T09:50:04.000Z</time>
</trkpt>
<trkpt lat="57.184853" lon="9.527928">
<ele>20.896498</ele>
<time>2026-07-16T09:50:05.000Z</time>
</trkpt>
<trkpt lat="57.184891" lon="9.527970">
<ele>20.925865</ele>
<time>2026-07-16T09:50:06.000Z</time>
</trkpt>
<trkpt lat="57.184929" lon="9.528011">
<ele>20.955048</ele>
<time>2026-07-16T09:50:07.000Z</time>
</trkpt>
<trkpt lat="57.184967" lon="9.528052">
<ele>20.984231</ele>
<time>2026-07-16T09:50:08.000Z</time>
</trkpt>
<trkpt lat="57.185005" lon="9.528090">
<ele>21.012885</ele>
<time>2026-07-16T09:50:09.000Z</time>
</trkpt>
<trkpt lat="57.185047" lon="9.528131">
<ele>21.044386</ele>
<time>2026-07-16T09:50:10.000Z</time>
</trkpt>
<trkpt lat="57.185085" lon="9.528173">
<ele>21.073752</ele>
<time>2026-07-16T09:50:11.000Z</time>
</trkpt>
<trkpt lat="57.185123" lon="9.528215">
<ele>21.103118</ele>
<time>2026-07-16T09:50:12.000Z</time>
</trkpt>
<trkpt lat="57.185158" lon="9.528256">
<ele>21.130603</ele>
<time>2026-07-16T09:50:13.000Z</time>
</trkpt>
<trkpt lat="57.185200" lon="9.528296">
<ele>21.161937</ele>
<time>2026-07-16T09:50:14.000Z</time>
</trkpt>
<trkpt lat="57.185234" lon="9.528337">
<ele>21.188864</ele>
<time>2026-07-16T09:50:15.000Z</time>
</trkpt>
<trkpt lat="57.185268" lon="9.528376">
<ele>21.215405</ele>
<time>2026-07-16T09:50:16.000Z</time>
</trkpt>
<trkpt lat="57.185299" lon="9.528408">
<ele>21.238954</ele>
<time>2026-07-16T09:50:17.000Z</time>
</trkpt>
<trkpt lat="57.185337" lon="9.528451">
<ele>21.268506</ele>
<time>2026-07-16T09:50:18.000Z</time>
</trkpt>
<trkpt lat="57.185371" lon="9.528490">
<ele>21.295047</ele>
<time>2026-07-16T09:50:19.000Z</time>
</trkpt>
<trkpt lat="57.185402" lon="9.528528">
<ele>21.319720</ele>
<time>2026-07-16T09:50:20.000Z</time>
</trkpt>
<trkpt lat="57.185436" lon="9.528565">
<ele>21.345889</ele>
<time>2026-07-16T09:50:21.000Z</time>
</trkpt>
<trkpt lat="57.185474" lon="9.528603">
<ele>21.374543</ele>
<time>2026-07-16T09:50:22.000Z</time>
</trkpt>
<trkpt lat="57.185509" lon="9.528640">
<ele>21.401285</ele>
<time>2026-07-16T09:50:23.000Z</time>
</trkpt>
<trkpt lat="57.185543" lon="9.528677">
<ele>21.427453</ele>
<time>2026-07-16T09:50:24.000Z</time>
</trkpt>
<trkpt lat="57.185581" lon="9.528711">
<ele>21.455451</ele>
<time>2026-07-16T09:50:25.000Z</time>
</trkpt>
<trkpt lat="57.185616" lon="9.528747">
<ele>21.482016</ele>
<time>2026-07-16T09:50:26.000Z</time>
</trkpt>
<trkpt lat="57.185650" lon="9.528783">
<ele>21.508004</ele>
<time>2026-07-16T09:50:27.000Z</time>
</trkpt>
<trkpt lat="57.185688" lon="9.528819">
<ele>21.536323</ele>
<time>2026-07-16T09:50:28.000Z</time>
</trkpt>
<trkpt lat="57.185722" lon="9.528857">
<ele>21.562676</ele>
<time>2026-07-16T09:50:29.000Z</time>
</trkpt>
<trkpt lat="57.185761" lon="9.528894">
<ele>21.591748</ele>
<time>2026-07-16T09:50:30.000Z</time>
</trkpt>
<trkpt lat="57.185795" lon="9.528930">
<ele>21.617736</ele>
<time>2026-07-16T09:50:31.000Z</time>
</trkpt>
<trkpt lat="57.185833" lon="9.528963">
<ele>21.645579</ele>
<time>2026-07-16T09:50:32.000Z</time>
</trkpt>
<trkpt lat="57.185871" lon="9.529002">
<ele>21.674406</ele>
<time>2026-07-16T09:50:33.000Z</time>
</trkpt>
<trkpt lat="57.185909" lon="9.529045">
<ele>21.703958</ele>
<time>2026-07-16T09:50:34.000Z</time>
</trkpt>
<trkpt lat="57.185944" lon="9.529082">
<ele>21.730700</ele>
<time>2026-07-16T09:50:35.000Z</time>
</trkpt>
<trkpt lat="57.185989" lon="9.529120">
<ele>21.763509</ele>
<time>2026-07-16T09:50:36.000Z</time>
</trkpt>
<trkpt lat="57.186027" lon="9.529150">
<ele>21.790910</ele>
<time>2026-07-16T09:50:37.000Z</time>
</trkpt>
<trkpt lat="57.186066" lon="9.529181">
<ele>21.819063</ele>
<time>2026-07-16T09:50:38.000Z</time>
</trkpt>
<trkpt lat="57.186104" lon="9.529218">
<ele>21.847547</ele>
<time>2026-07-16T09:50:39.000Z</time>
</trkpt>
<trkpt lat="57.186146" lon="9.529262">
<ele>21.879566</ele>
<time>2026-07-16T09:50:40.000Z</time>
</trkpt>
<trkpt lat="57.186180" lon="9.529298">
<ele>21.905554</ele>
<time>2026-07-16T09:50:41.000Z</time>
</trkpt>
<trkpt lat="57.186230" lon="9.529345">
<ele>21.942755</ele>
<time>2026-07-16T09:50:42.000Z</time>
</trkpt>
<trkpt lat="57.186272" lon="9.529390">
<ele>21.974953</ele>
<time>2026-07-16T09:50:43.000Z</time>
</trkpt>
<trkpt lat="57.186317" lon="9.529432">
<ele>22.008385</ele>
<time>2026-07-16T09:50:44.000Z</time>
</trkpt>
<trkpt lat="57.186359" lon="9.529473">
<ele>22.039885</ele>
<time>2026-07-16T09:50:45.000Z</time>
</trkpt>
<trkpt lat="57.186401" lon="9.529515">
<ele>22.060791</ele>
<time>2026-07-16T09:50:46.000Z</time>
</trkpt>
<trkpt lat="57.186443" lon="9.529554">
<ele>22.081051</ele>
<time>2026-07-16T09:50:47.000Z</time>
</trkpt>
<trkpt lat="57.186485" lon="9.529592">
<ele>22.101208</ele>
<time>2026-07-16T09:50:48.000Z</time>
</trkpt>
<trkpt lat="57.186531" lon="9.529635">
<ele>22.123427</ele>
<time>2026-07-16T09:50:49.000Z</time>
</trkpt>
<trkpt lat="57.186573" lon="9.529673">
<ele>22.143583</ele>
<time>2026-07-16T09:50:50.000Z</time>
</trkpt>
<trkpt lat="57.186611" lon="9.529702">
<ele>22.161303</ele>
<time>2026-07-16T09:50:51.000Z</time>
</trkpt>
<trkpt lat="57.186645" lon="9.529733">
<ele>22.177644</ele>
<time>2026-07-16T09:50:52.000Z</time>
</trkpt>
<trkpt lat="57.186680" lon="9.529762">
<ele>22.194176</ele>
<time>2026-07-16T09:50:53.000Z</time>
</trkpt>
<trkpt lat="57.186710" lon="9.529790">
<ele>22.208663</ele>
<time>2026-07-16T09:50:54.000Z</time>
</trkpt>
<trkpt lat="57.186745" lon="9.529820">
<ele>22.225292</ele>
<time>2026-07-16T09:50:55.000Z</time>
</trkpt>
<trkpt lat="57.186771" lon="9.529845">
<ele>22.237925</ele>
<time>2026-07-16T09:50:56.000Z</time>
</trkpt>
<trkpt lat="57.186806" lon="9.529870">
<ele>22.254097</ele>
<time>2026-07-16T09:50:57.000Z</time>
</trkpt>
<trkpt lat="57.186840" lon="9.529894">
<ele>22.269783</ele>
<time>2026-07-16T09:50:58.000Z</time>
</trkpt>
<trkpt lat="57.186874" lon="9.529919">
<ele>22.285554</ele>
<time>2026-07-16T09:50:59.000Z</time>
</trkpt>
<trkpt lat="57.186909" lon="9.529938">
<ele>22.301275</ele>
<time>2026-07-16T09:51:00.000Z</time>
</trkpt>
<trkpt lat="57.186935" lon="9.529957">
<ele>22.313325</ele>
<time>2026-07-16T09:51:01.000Z</time>
</trkpt>
<trkpt lat="57.186970" lon="9.529979">
<ele>22.329257</ele>
<time>2026-07-16T09:51:02.000Z</time>
</trkpt>
<trkpt lat="57.187012" lon="9.530011">
<ele>22.348837</ele>
<time>2026-07-16T09:51:03.000Z</time>
</trkpt>
<trkpt lat="57.187046" lon="9.530037">
<ele>22.364696</ele>
<time>2026-07-16T09:51:04.000Z</time>
</trkpt>
<trkpt lat="57.187084" lon="9.530066">
<ele>22.382415</ele>
<time>2026-07-16T09:51:05.000Z</time>
</trkpt>
<trkpt lat="57.187122" lon="9.530098">
<ele>22.400414</ele>
<time>2026-07-16T09:51:06.000Z</time>
</trkpt>
<trkpt lat="57.187164" lon="9.530134">
<ele>22.420369</ele>
<time>2026-07-16T09:51:07.000Z</time>
</trkpt>
<trkpt lat="57.187214" lon="9.530172">
<ele>22.443670</ele>
<time>2026-07-16T09:51:08.000Z</time>
</trkpt>
<trkpt lat="57.187260" lon="9.530210">
<ele>22.465387</ele>
<time>2026-07-16T09:51:09.000Z</time>
</trkpt>
<trkpt lat="57.187302" lon="9.530246">
<ele>22.485341</ele>
<time>2026-07-16T09:51:10.000Z</time>
</trkpt>
<trkpt lat="57.187336" lon="9.530278">
<ele>22.501788</ele>
<time>2026-07-16T09:51:11.000Z</time>
</trkpt>
<trkpt lat="57.187370" lon="9.530304">
<ele>22.517646</ele>
<time>2026-07-16T09:51:12.000Z</time>
</trkpt>
<trkpt lat="57.187405" lon="9.530331">
<ele>22.533993</ele>
<time>2026-07-16T09:51:13.000Z</time>
</trkpt>
<trkpt lat="57.187447" lon="9.530359">
<ele>22.553236</ele>
<time>2026-07-16T09:51:14.000Z</time>
</trkpt>
<trkpt lat="57.187485" lon="9.530390">
<ele>22.571138</ele>
<time>2026-07-16T09:51:15.000Z</time>
</trkpt>
<trkpt lat="57.187523" lon="9.530419">
<ele>22.588858</ele>
<time>2026-07-16T09:51:16.000Z</time>
</trkpt>
<trkpt lat="57.187557" lon="9.530446">
<ele>22.604807</ele>
<time>2026-07-16T09:51:17.000Z</time>
</trkpt>
<trkpt lat="57.187603" lon="9.530469">
<ele>22.625344</ele>
<time>2026-07-16T09:51:18.000Z</time>
</trkpt>
<trkpt lat="57.187641" lon="9.530491">
<ele>22.642505</ele>
<time>2026-07-16T09:51:19.000Z</time>
</trkpt>
<trkpt lat="57.187679" lon="9.530519">
<ele>22.660136</ele>
<time>2026-07-16T09:51:20.000Z</time>
</trkpt>
<trkpt lat="57.187721" lon="9.530553">
<ele>22.679899</ele>
<time>2026-07-16T09:51:21.000Z</time>
</trkpt>
<trkpt lat="57.187759" lon="9.530579">
<ele>22.697363</ele>
<time>2026-07-16T09:51:22.000Z</time>
</trkpt>
<trkpt lat="57.187801" lon="9.530615">
<ele>22.717317</ele>
<time>2026-07-16T09:51:23.000Z</time>
</trkpt>
<trkpt lat="57.187839" lon="9.530646">
<ele>22.735220</ele>
<time>2026-07-16T09:51:24.000Z</time>
</trkpt>
<trkpt lat="57.187874" lon="9.530674">
<ele>22.751658</ele>
<time>2026-07-16T09:51:25.000Z</time>
</trkpt>
<trkpt lat="57.187912" lon="9.530701">
<ele>22.769204</ele>
<time>2026-07-16T09:51:26.000Z</time>
</trkpt>
<trkpt lat="57.187954" lon="9.530735">
<ele>22.788967</ele>
<time>2026-07-16T09:51:27.000Z</time>
</trkpt>
<trkpt lat="57.187996" lon="9.530769">
<ele>22.808730</ele>
<time>2026-07-16T09:51:28.000Z</time>
</trkpt>
<trkpt lat="57.188038" lon="9.530805">
<ele>22.835110</ele>
<time>2026-07-16T09:51:29.000Z</time>
</trkpt>
<trkpt lat="57.188076" lon="9.530828">
<ele>22.860967</ele>
<time>2026-07-16T09:51:30.000Z</time>
</trkpt>
<trkpt lat="57.188122" lon="9.530866">
<ele>22.893552</ele>
<time>2026-07-16T09:51:31.000Z</time>
</trkpt>
<trkpt lat="57.188171" lon="9.530909">
<ele>22.928633</ele>
<time>2026-07-16T09:51:32.000Z</time>
</trkpt>
<trkpt lat="57.188225" lon="9.530952">
<ele>22.966658</ele>
<time>2026-07-16T09:51:33.000Z</time>
</trkpt>
<trkpt lat="57.188278" lon="9.530992">
<ele>23.003681</ele>
<time>2026-07-16T09:51:34.000Z</time>
</trkpt>
<trkpt lat="57.188320" lon="9.531021">
<ele>23.032674</ele>
<time>2026-07-16T09:51:35.000Z</time>
</trkpt>
<trkpt lat="57.188362" lon="9.531058">
<ele>23.062765</ele>
<time>2026-07-16T09:51:36.000Z</time>
</trkpt>
<trkpt lat="57.188408" lon="9.531096">
<ele>23.095350</ele>
<time>2026-07-16T09:51:37.000Z</time>
</trkpt>
<trkpt lat="57.188454" lon="9.531128">
<ele>23.127135</ele>
<time>2026-07-16T09:51:38.000Z</time>
</trkpt>
<trkpt lat="57.188499" lon="9.531159">
<ele>23.158191</ele>
<time>2026-07-16T09:51:39.000Z</time>
</trkpt>
<trkpt lat="57.188541" lon="9.531191">
<ele>23.187569</ele>
<time>2026-07-16T09:51:40.000Z</time>
</trkpt>
<trkpt lat="57.188583" lon="9.531228">
<ele>23.217660</ele>
<time>2026-07-16T09:51:41.000Z</time>
</trkpt>
<trkpt lat="57.188633" lon="9.531264">
<ele>23.252361</ele>
<time>2026-07-16T09:51:42.000Z</time>
</trkpt>
<trkpt lat="57.188679" lon="9.531300">
<ele>23.284666</ele>
<time>2026-07-16T09:51:43.000Z</time>
</trkpt>
<trkpt lat="57.188732" lon="9.531341">
<ele>23.321822</ele>
<time>2026-07-16T09:51:44.000Z</time>
</trkpt>
<trkpt lat="57.188789" lon="9.531385">
<ele>23.361770</ele>
<time>2026-07-16T09:51:45.000Z</time>
</trkpt>
<trkpt lat="57.188854" lon="9.531445">
<ele>23.408760</ele>
<time>2026-07-16T09:51:46.000Z</time>
</trkpt>
<trkpt lat="57.188911" lon="9.531499">
<ele>23.450186</ele>
<time>2026-07-16T09:51:47.000Z</time>
</trkpt>
<trkpt lat="57.188965" lon="9.531564">
<ele>23.491870</ele>
<time>2026-07-16T09:51:48.000Z</time>
</trkpt>
<trkpt lat="57.189014" lon="9.531628">
<ele>23.530683</ele>
<time>2026-07-16T09:51:49.000Z</time>
</trkpt>
<trkpt lat="57.189064" lon="9.531703">
<ele>23.572342</ele>
<time>2026-07-16T09:51:50.000Z</time>
</trkpt>
<trkpt lat="57.189114" lon="9.531781">
<ele>23.614673</ele>
<time>2026-07-16T09:51:51.000Z</time>
</trkpt>
<trkpt lat="57.189159" lon="9.531857">
<ele>23.654112</ele>
<time>2026-07-16T09:51:52.000Z</time>
</trkpt>
<trkpt lat="57.189194" lon="9.531929">
<ele>23.688000</ele>
<time>2026-07-16T09:51:53.000Z</time>
</trkpt>
<trkpt lat="57.189236" lon="9.532006">
<ele>23.726277</ele>
<time>2026-07-16T09:51:54.000Z</time>
</trkpt>
<trkpt lat="57.189274" lon="9.532084">
<ele>23.763025</ele>
<time>2026-07-16T09:51:55.000Z</time>
</trkpt>
<trkpt lat="57.189312" lon="9.532156">
<ele>23.798237</ele>
<time>2026-07-16T09:51:56.000Z</time>
</trkpt>
<trkpt lat="57.189343" lon="9.532227">
<ele>23.830182</ele>
<time>2026-07-16T09:51:57.000Z</time>
</trkpt>
<trkpt lat="57.189381" lon="9.532298">
<ele>23.865145</ele>
<time>2026-07-16T09:51:58.000Z</time>
</trkpt>
<trkpt lat="57.189415" lon="9.532372">
<ele>23.899135</ele>
<time>2026-07-16T09:51:59.000Z</time>
</trkpt>
<trkpt lat="57.189449" lon="9.532441">
<ele>23.931810</ele>
<time>2026-07-16T09:52:00.000Z</time>
</trkpt>
<trkpt lat="57.189487" lon="9.532510">
<ele>23.966277</ele>
<time>2026-07-16T09:52:01.000Z</time>
</trkpt>
<trkpt lat="57.189522" lon="9.532578">
<ele>23.985344</ele>
<time>2026-07-16T09:52:02.000Z</time>
</trkpt>
<trkpt lat="57.189556" lon="9.532644">
<ele>23.995651</ele>
<time>2026-07-16T09:52:03.000Z</time>
</trkpt>
<trkpt lat="57.189590" lon="9.532712">
<ele>24.006123</ele>
<time>2026-07-16T09:52:04.000Z</time>
</trkpt>
<trkpt lat="57.189625" lon="9.532779">
<ele>24.016656</ele>
<time>2026-07-16T09:52:05.000Z</time>
</trkpt>
<trkpt lat="57.189655" lon="9.532849">
<ele>24.026757</ele>
<time>2026-07-16T09:52:06.000Z</time>
</trkpt>
<trkpt lat="57.189690" lon="9.532924">
<ele>24.037959</ele>
<time>2026-07-16T09:52:07.000Z</time>
</trkpt>
<trkpt lat="57.189716" lon="9.533000">
<ele>24.048131</ele>
<time>2026-07-16T09:52:08.000Z</time>
</trkpt>
<trkpt lat="57.189751" lon="9.533069">
<ele>24.058828</ele>
<time>2026-07-16T09:52:09.000Z</time>
</trkpt>
<trkpt lat="57.189781" lon="9.533134">
<ele>24.068492</ele>
<time>2026-07-16T09:52:10.000Z</time>
</trkpt>
<trkpt lat="57.189812" lon="9.533202">
<ele>24.078549</ele>
<time>2026-07-16T09:52:11.000Z</time>
</trkpt>
<trkpt lat="57.189846" lon="9.533273">
<ele>24.089273</ele>
<time>2026-07-16T09:52:12.000Z</time>
</trkpt>
<trkpt lat="57.189877" lon="9.533346">
<ele>24.099770</ele>
<time>2026-07-16T09:52:13.000Z</time>
</trkpt>
<trkpt lat="57.189907" lon="9.533419">
<ele>24.110139</ele>
<time>2026-07-16T09:52:14.000Z</time>
</trkpt>
<trkpt lat="57.189938" lon="9.533484">
<ele>24.119939</ele>
<time>2026-07-16T09:52:15.000Z</time>
</trkpt>
<trkpt lat="57.189968" lon="9.533549">
<ele>24.129603</ele>
<time>2026-07-16T09:52:16.000Z</time>
</trkpt>
<trkpt lat="57.189999" lon="9.533613">
<ele>24.139318</ele>
<time>2026-07-16T09:52:17.000Z</time>
</trkpt>
<trkpt lat="57.190033" lon="9.533683">
<ele>24.149957</ele>
<time>2026-07-16T09:52:18.000Z</time>
</trkpt>
<trkpt lat="57.190063" lon="9.533758">
<ele>24.160508</ele>
<time>2026-07-16T09:52:19.000Z</time>
</trkpt>
<trkpt lat="57.190094" lon="9.533833">
<ele>24.171183</ele>
<time>2026-07-16T09:52:20.000Z</time>
</trkpt>
<trkpt lat="57.190128" lon="9.533902">
<ele>24.181739</ele>
<time>2026-07-16T09:52:21.000Z</time>
</trkpt>
<trkpt lat="57.190159" lon="9.533973">
<ele>24.192058</ele>
<time>2026-07-16T09:52:22.000Z</time>
</trkpt>
<trkpt lat="57.190189" lon="9.534050">
<ele>24.202792</ele>
<time>2026-07-16T09:52:23.000Z</time>
</trkpt>
<trkpt lat="57.190220" lon="9.534122">
<ele>24.213200</ele>
<time>2026-07-16T09:52:24.000Z</time>
</trkpt>
<trkpt lat="57.190250" lon="9.534191">
<ele>24.223212</ele>
<time>2026-07-16T09:52:25.000Z</time>
</trkpt>
<trkpt lat="57.190281" lon="9.534259">
<ele>24.233269</ele>
<time>2026-07-16T09:52:26.000Z</time>
</trkpt>
<trkpt lat="57.190308" lon="9.534327">
<ele>24.242810</ele>
<time>2026-07-16T09:52:27.000Z</time>
</trkpt>
<trkpt lat="57.190338" lon="9.534394">
<ele>24.252647</ele>
<time>2026-07-16T09:52:28.000Z</time>
</trkpt>
<trkpt lat="57.190365" lon="9.534452">
<ele>24.261301</ele>
<time>2026-07-16T09:52:29.000Z</time>
</trkpt>
<trkpt lat="57.190380" lon="9.534500">
<ele>24.267572</ele>
<time>2026-07-16T09:52:30.000Z</time>
</trkpt>
<trkpt lat="57.190395" lon="9.534551">
<ele>24.274139</ele>
<time>2026-07-16T09:52:31.000Z</time>
</trkpt>
<trkpt lat="57.190414" lon="9.534601">
<ele>24.281051</ele>
<time>2026-07-16T09:52:32.000Z</time>
</trkpt>
<trkpt lat="57.190441" lon="9.534656">
<ele>24.289450</ele>
<time>2026-07-16T09:52:33.000Z</time>
</trkpt>
<trkpt lat="57.190468" lon="9.534711">
<ele>24.297850</ele>
<time>2026-07-16T09:52:34.000Z</time>
</trkpt>
<trkpt lat="57.190495" lon="9.534772">
<ele>24.306764</ele>
<time>2026-07-16T09:52:35.000Z</time>
</trkpt>
<trkpt lat="57.190529" lon="9.534828">
<ele>24.316282</ele>
<time>2026-07-16T09:52:36.000Z</time>
</trkpt>
<trkpt lat="57.190559" lon="9.534882">
<ele>24.325035</ele>
<time>2026-07-16T09:52:37.000Z</time>
</trkpt>
<trkpt lat="57.190586" lon="9.534946">
<ele>24.334215</ele>
<time>2026-07-16T09:52:38.000Z</time>
</trkpt>
<trkpt lat="57.190609" lon="9.535005">
<ele>24.342440</ele>
<time>2026-07-16T09:52:39.000Z</time>
</trkpt>
<trkpt lat="57.190632" lon="9.535064">
<ele>24.350666</ele>
<time>2026-07-16T09:52:40.000Z</time>
</trkpt>
<trkpt lat="57.190647" lon="9.535121">
<ele>24.348312</ele>
<time>2026-07-16T09:52:41.000Z</time>
</trkpt>
<trkpt lat="57.190666" lon="9.535176">
<ele>24.334989</ele>
<time>2026-07-16T09:52:42.000Z</time>
</trkpt>
<trkpt lat="57.190678" lon="9.535218">
<ele>24.325291</ele>
<time>2026-07-16T09:52:43.000Z</time>
</trkpt>
<trkpt lat="57.190693" lon="9.535254">
<ele>24.316015</ele>
<time>2026-07-16T09:52:44.000Z</time>
</trkpt>
<trkpt lat="57.190712" lon="9.535295">
<ele>24.304996</ele>
<time>2026-07-16T09:52:45.000Z</time>
</trkpt>
<trkpt lat="57.190731" lon="9.535337">
<ele>24.293820</ele>
<time>2026-07-16T09:52:46.000Z</time>
</trkpt>
<trkpt lat="57.190754" lon="9.535379">
<ele>24.281623</ele>
<time>2026-07-16T09:52:47.000Z</time>
</trkpt>
<trkpt lat="57.190781" lon="9.535421">
<ele>24.268312</ele>
<time>2026-07-16T09:52:48.000Z</time>
</trkpt>
<trkpt lat="57.190811" lon="9.535467">
<ele>24.253610</ele>
<time>2026-07-16T09:52:49.000Z</time>
</trkpt>
<trkpt lat="57.190845" lon="9.535512">
<ele>24.237838</ele>
<time>2026-07-16T09:52:50.000Z</time>
</trkpt>
<trkpt lat="57.190876" lon="9.535546">
<ele>24.224244</ele>
<time>2026-07-16T09:52:51.000Z</time>
</trkpt>
<trkpt lat="57.190910" lon="9.535578">
<ele>24.209857</ele>
<time>2026-07-16T09:52:52.000Z</time>
</trkpt>
<trkpt lat="57.190945" lon="9.535608">
<ele>24.195310</ele>
<time>2026-07-16T09:52:53.000Z</time>
</trkpt>
<trkpt lat="57.190979" lon="9.535640">
<ele>24.180923</ele>
<time>2026-07-16T09:52:54.000Z</time>
</trkpt>
<trkpt lat="57.191017" lon="9.535673">
<ele>24.165092</ele>
<time>2026-07-16T09:52:55.000Z</time>
</trkpt>
<trkpt lat="57.191055" lon="9.535708">
<ele>24.149082</ele>
<time>2026-07-16T09:52:56.000Z</time>
</trkpt>
<trkpt lat="57.191097" lon="9.535743">
<ele>24.131711</ele>
<time>2026-07-16T09:52:57.000Z</time>
</trkpt>
<trkpt lat="57.191139" lon="9.535778">
<ele>24.114339</ele>
<time>2026-07-16T09:52:58.000Z</time>
</trkpt>
<trkpt lat="57.191181" lon="9.535816">
<ele>24.096707</ele>
<time>2026-07-16T09:52:59.000Z</time>
</trkpt>
<trkpt lat="57.191223" lon="9.535853">
<ele>24.079163</ele>
<time>2026-07-16T09:53:00.000Z</time>
</trkpt>
<trkpt lat="57.191261" lon="9.535891">
<ele>24.062871</ele>
<time>2026-07-16T09:53:01.000Z</time>
</trkpt>
<trkpt lat="57.191299" lon="9.535932">
<ele>24.046278</ele>
<time>2026-07-16T09:53:02.000Z</time>
</trkpt>
<trkpt lat="57.191341" lon="9.535970">
<ele>24.028646</ele>
<time>2026-07-16T09:53:03.000Z</time>
</trkpt>
<trkpt lat="57.191387" lon="9.536010">
<ele>24.009477</ele>
<time>2026-07-16T09:53:04.000Z</time>
</trkpt>
<trkpt lat="57.191429" lon="9.536056">
<ele>23.991067</ele>
<time>2026-07-16T09:53:05.000Z</time>
</trkpt>
<trkpt lat="57.191475" lon="9.536097">
<ele>23.971810</ele>
<time>2026-07-16T09:53:06.000Z</time>
</trkpt>
<trkpt lat="57.191517" lon="9.536137">
<ele>23.953994</ele>
<time>2026-07-16T09:53:07.000Z</time>
</trkpt>
<trkpt lat="57.191567" lon="9.536182">
<ele>23.933025</ele>
<time>2026-07-16T09:53:08.000Z</time>
</trkpt>
<trkpt lat="57.191612" lon="9.536221">
<ele>23.914284</ele>
<time>2026-07-16T09:53:09.000Z</time>
</trkpt>
<trkpt lat="57.191662" lon="9.536263">
<ele>23.893576</ele>
<time>2026-07-16T09:53:10.000Z</time>
</trkpt>
<trkpt lat="57.191711" lon="9.536305">
<ele>23.873210</ele>
<time>2026-07-16T09:53:11.000Z</time>
</trkpt>
<trkpt lat="57.191753" lon="9.536341">
<ele>23.855753</ele>
<time>2026-07-16T09:53:12.000Z</time>
</trkpt>
<trkpt lat="57.191803" lon="9.536377">
<ele>23.835522</ele>
<time>2026-07-16T09:53:13.000Z</time>
</trkpt>
<trkpt lat="57.191837" lon="9.536407">
<ele>23.821316</ele>
<time>2026-07-16T09:53:14.000Z</time>
</trkpt>
<trkpt lat="57.191879" lon="9.536444">
<ele>23.803772</ele>
<time>2026-07-16T09:53:15.000Z</time>
</trkpt>
<trkpt lat="57.191925" lon="9.536483">
<ele>23.784690</ele>
<time>2026-07-16T09:53:16.000Z</time>
</trkpt>
<trkpt lat="57.191967" lon="9.536517">
<ele>23.767401</ele>
<time>2026-07-16T09:53:17.000Z</time>
</trkpt>
<trkpt lat="57.192013" lon="9.536551">
<ele>23.748722</ele>
<time>2026-07-16T09:53:18.000Z</time>
</trkpt>
<trkpt lat="57.192059" lon="9.536589">
<ele>23.729724</ele>
<time>2026-07-16T09:53:19.000Z</time>
</trkpt>
<trkpt lat="57.192104" lon="9.536627">
<ele>23.711070</ele>
<time>2026-07-16T09:53:20.000Z</time>
</trkpt>
<trkpt lat="57.192146" lon="9.536663">
<ele>23.693613</ele>
<time>2026-07-16T09:53:21.000Z</time>
</trkpt>
<trkpt lat="57.192192" lon="9.536700">
<ele>23.674867</ele>
<time>2026-07-16T09:53:22.000Z</time>
</trkpt>
<trkpt lat="57.192234" lon="9.536740">
<ele>23.658802</ele>
<time>2026-07-16T09:53:23.000Z</time>
</trkpt>
<trkpt lat="57.192287" lon="9.536786">
<ele>23.638895</ele>
<time>2026-07-16T09:53:24.000Z</time>
</trkpt>
<trkpt lat="57.192337" lon="9.536836">
<ele>23.619565</ele>
<time>2026-07-16T09:53:25.000Z</time>
</trkpt>
<trkpt lat="57.192387" lon="9.536882">
<ele>23.600575</ele>
<time>2026-07-16T09:53:26.000Z</time>
</trkpt>
<trkpt lat="57.192432" lon="9.536923">
<ele>23.583517</ele>
<time>2026-07-16T09:53:27.000Z</time>
</trkpt>
<trkpt lat="57.192474" lon="9.536963">
<ele>23.567452</ele>
<time>2026-07-16T09:53:28.000Z</time>
</trkpt>
<trkpt lat="57.192520" lon="9.537007">
<ele>23.549841</ele>
<time>2026-07-16T09:53:29.000Z</time>
</trkpt>
<trkpt lat="57.192566" lon="9.537046">
<ele>23.532634</ele>
<time>2026-07-16T09:53:30.000Z</time>
</trkpt>
<trkpt lat="57.192608" lon="9.537087">
<ele>23.516484</ele>
<time>2026-07-16T09:53:31.000Z</time>
</trkpt>
<trkpt lat="57.192650" lon="9.537128">
<ele>23.500334</ele>
<time>2026-07-16T09:53:32.000Z</time>
</trkpt>
<trkpt lat="57.192696" lon="9.537167">
<ele>23.483127</ele>
<time>2026-07-16T09:53:33.000Z</time>
</trkpt>
<trkpt lat="57.192734" lon="9.537207">
<ele>23.468258</ele>
<time>2026-07-16T09:53:34.000Z</time>
</trkpt>
<trkpt lat="57.192776" lon="9.537251">
<ele>23.451842</ele>
<time>2026-07-16T09:53:35.000Z</time>
</trkpt>
<trkpt lat="57.192818" lon="9.537295">
<ele>23.435426</ele>
<time>2026-07-16T09:53:36.000Z</time>
</trkpt>
<trkpt lat="57.192863" lon="9.537335">
<ele>23.418449</ele>
<time>2026-07-16T09:53:37.000Z</time>
</trkpt>
<trkpt lat="57.192905" lon="9.537375">
<ele>23.402384</ele>
<time>2026-07-16T09:53:38.000Z</time>
</trkpt>
<trkpt lat="57.192951" lon="9.537414">
<ele>23.385178</ele>
<time>2026-07-16T09:53:39.000Z</time>
</trkpt>
<trkpt lat="57.192997" lon="9.537456">
<ele>23.367733</ele>
<time>2026-07-16T09:53:40.000Z</time>
</trkpt>
<trkpt lat="57.193043" lon="9.537496">
<ele>23.350449</ele>
<time>2026-07-16T09:53:41.000Z</time>
</trkpt>
<trkpt lat="57.193088" lon="9.537525">
<ele>23.334247</ele>
<time>2026-07-16T09:53:42.000Z</time>
</trkpt>
<trkpt lat="57.193134" lon="9.537552">
<ele>23.317840</ele>
<time>2026-07-16T09:53:43.000Z</time>
</trkpt>
<trkpt lat="57.193184" lon="9.537581">
<ele>23.300025</ele>
<time>2026-07-16T09:53:44.000Z</time>
</trkpt>
<trkpt lat="57.193234" lon="9.537603">
<ele>23.282553</ele>
<time>2026-07-16T09:53:45.000Z</time>
</trkpt>
<trkpt lat="57.193283" lon="9.537620">
<ele>23.265606</ele>
<time>2026-07-16T09:53:46.000Z</time>
</trkpt>
<trkpt lat="57.193325" lon="9.537633">
<ele>23.251131</ele>
<time>2026-07-16T09:53:47.000Z</time>
</trkpt>
<trkpt lat="57.193371" lon="9.537650">
<ele>23.235184</ele>
<time>2026-07-16T09:53:48.000Z</time>
</trkpt>
<trkpt lat="57.193409" lon="9.537667">
<ele>23.221894</ele>
<time>2026-07-16T09:53:49.000Z</time>
</trkpt>
<trkpt lat="57.193451" lon="9.537686">
<ele>23.207195</ele>
<time>2026-07-16T09:53:50.000Z</time>
</trkpt>
<trkpt lat="57.193493" lon="9.537703">
<ele>23.192580</ele>
<time>2026-07-16T09:53:51.000Z</time>
</trkpt>
<trkpt lat="57.193531" lon="9.537720">
<ele>23.179289</ele>
<time>2026-07-16T09:53:52.000Z</time>
</trkpt>
<trkpt lat="57.193573" lon="9.537737">
<ele>23.164674</ele>
<time>2026-07-16T09:53:53.000Z</time>
</trkpt>
<trkpt lat="57.193615" lon="9.537751">
<ele>23.150166</ele>
<time>2026-07-16T09:53:54.000Z</time>
</trkpt>
<trkpt lat="57.193657" lon="9.537769">
<ele>23.135510</ele>
<time>2026-07-16T09:53:55.000Z</time>
</trkpt>
<trkpt lat="57.193706" lon="9.537794">
<ele>23.118230</ele>
<time>2026-07-16T09:53:56.000Z</time>
</trkpt>
<trkpt lat="57.193760" lon="9.537820">
<ele>23.099261</ele>
<time>2026-07-16T09:53:57.000Z</time>
</trkpt>
<trkpt lat="57.193813" lon="9.537842">
<ele>23.080796</ele>
<time>2026-07-16T09:53:58.000Z</time>
</trkpt>
<trkpt lat="57.193863" lon="9.537863">
<ele>23.062998</ele>
<time>2026-07-16T09:53:59.000Z</time>
</trkpt>
<trkpt lat="57.193913" lon="9.537888">
<ele>23.041540</ele>
<time>2026-07-16T09:54:00.000Z</time>
</trkpt>
<trkpt lat="57.193966" lon="9.537910">
<ele>23.019037</ele>
<time>2026-07-16T09:54:01.000Z</time>
</trkpt>
<trkpt lat="57.194016" lon="9.537930">
<ele>22.997844</ele>
<time>2026-07-16T09:54:02.000Z</time>
</trkpt>
<trkpt lat="57.194065" lon="9.537950">
<ele>22.977056</ele>
<time>2026-07-16T09:54:03.000Z</time>
</trkpt>
<trkpt lat="57.194115" lon="9.537967">
<ele>22.955996</ele>
<time>2026-07-16T09:54:04.000Z</time>
</trkpt>
<trkpt lat="57.194153" lon="9.537985">
<ele>22.939745</ele>
<time>2026-07-16T09:54:05.000Z</time>
</trkpt>
<trkpt lat="57.194202" lon="9.538013">
<ele>22.918496</ele>
<time>2026-07-16T09:54:06.000Z</time>
</trkpt>
<trkpt lat="57.194252" lon="9.538045">
<ele>22.896575</ele>
<time>2026-07-16T09:54:07.000Z</time>
</trkpt>
<trkpt lat="57.194305" lon="9.538069">
<ele>22.873969</ele>
<time>2026-07-16T09:54:08.000Z</time>
</trkpt>
<trkpt lat="57.194355" lon="9.538088">
<ele>22.852823</ele>
<time>2026-07-16T09:54:09.000Z</time>
</trkpt>
<trkpt lat="57.194401" lon="9.538106">
<ele>22.833344</ele>
<time>2026-07-16T09:54:10.000Z</time>
</trkpt>
<trkpt lat="57.194443" lon="9.538125">
<ele>22.815431</ele>
<time>2026-07-16T09:54:11.000Z</time>
</trkpt>
<trkpt lat="57.194496" lon="9.538145">
<ele>22.793023</ele>
<time>2026-07-16T09:54:12.000Z</time>
</trkpt>
<trkpt lat="57.194538" lon="9.538159">
<ele>22.775343</ele>
<time>2026-07-16T09:54:13.000Z</time>
</trkpt>
<trkpt lat="57.194584" lon="9.538182">
<ele>22.755602</ele>
<time>2026-07-16T09:54:14.000Z</time>
</trkpt>
<trkpt lat="57.194633" lon="9.538205">
<ele>22.734658</ele>
<time>2026-07-16T09:54:15.000Z</time>
</trkpt>
<trkpt lat="57.194683" lon="9.538223">
<ele>22.713556</ele>
<time>2026-07-16T09:54:16.000Z</time>
</trkpt>
<trkpt lat="57.194729" lon="9.538244">
<ele>22.693927</ele>
<time>2026-07-16T09:54:17.000Z</time>
</trkpt>
<trkpt lat="57.194790" lon="9.538273">
<ele>22.667833</ele>
<time>2026-07-16T09:54:18.000Z</time>
</trkpt>
<trkpt lat="57.194847" lon="9.538300">
<ele>22.643457</ele>
<time>2026-07-16T09:54:19.000Z</time>
</trkpt>
<trkpt lat="57.194900" lon="9.538322">
<ele>22.620954</ele>
<time>2026-07-16T09:54:20.000Z</time>
</trkpt>
<trkpt lat="57.194950" lon="9.538340">
<ele>22.599852</ele>
<time>2026-07-16T09:54:21.000Z</time>
</trkpt>
<trkpt lat="57.195004" lon="9.538362">
<ele>22.576944</ele>
<time>2026-07-16T09:54:22.000Z</time>
</trkpt>
<trkpt lat="57.195053" lon="9.538387">
<ele>22.555885</ele>
<time>2026-07-16T09:54:23.000Z</time>
</trkpt>
<trkpt lat="57.195103" lon="9.538405">
<ele>22.534783</ele>
<time>2026-07-16T09:54:24.000Z</time>
</trkpt>
<trkpt lat="57.195148" lon="9.538425">
<ele>22.515610</ele>
<time>2026-07-16T09:54:25.000Z</time>
</trkpt>
<trkpt lat="57.195194" lon="9.538447">
<ele>22.495926</ele>
<time>2026-07-16T09:54:26.000Z</time>
</trkpt>
<trkpt lat="57.195251" lon="9.538470">
<ele>22.471756</ele>
<time>2026-07-16T09:54:27.000Z</time>
</trkpt>
<trkpt lat="57.195309" lon="9.538492">
<ele>22.447229</ele>
<time>2026-07-16T09:54:28.000Z</time>
</trkpt>
<trkpt lat="57.195362" lon="9.538515">
<ele>22.424675</ele>
<time>2026-07-16T09:54:29.000Z</time>
</trkpt>
<trkpt lat="57.195415" lon="9.538536">
<ele>22.402221</ele>
<time>2026-07-16T09:54:30.000Z</time>
</trkpt>
<trkpt lat="57.195469" lon="9.538555">
<ele>22.379449</ele>
<time>2026-07-16T09:54:31.000Z</time>
</trkpt>
<trkpt lat="57.195522" lon="9.538571">
<ele>22.357203</ele>
<time>2026-07-16T09:54:32.000Z</time>
</trkpt>
<trkpt lat="57.195572" lon="9.538594">
<ele>22.335857</ele>
<time>2026-07-16T09:54:33.000Z</time>
</trkpt>
<trkpt lat="57.195622" lon="9.538612">
<ele>22.323734</ele>
<time>2026-07-16T09:54:34.000Z</time>
</trkpt>
<trkpt lat="57.195679" lon="9.538638">
<ele>22.341202</ele>
<time>2026-07-16T09:54:35.000Z</time>
</trkpt>
<trkpt lat="57.195736" lon="9.538656">
<ele>22.358405</ele>
<time>2026-07-16T09:54:36.000Z</time>
</trkpt>
<trkpt lat="57.195786" lon="9.538670">
<ele>22.373450</ele>
<time>2026-07-16T09:54:37.000Z</time>
</trkpt>
<trkpt lat="57.195839" lon="9.538685">
<ele>22.389402</ele>
<time>2026-07-16T09:54:38.000Z</time>
</trkpt>
<trkpt lat="57.195900" lon="9.538703">
<ele>22.407779</ele>
<time>2026-07-16T09:54:39.000Z</time>
</trkpt>
<trkpt lat="57.195950" lon="9.538721">
<ele>22.422934</ele>
<time>2026-07-16T09:54:40.000Z</time>
</trkpt>
<trkpt lat="57.196007" lon="9.538740">
<ele>22.440166</ele>
<time>2026-07-16T09:54:41.000Z</time>
</trkpt>
<trkpt lat="57.196060" lon="9.538756">
<ele>22.456142</ele>
<time>2026-07-16T09:54:42.000Z</time>
</trkpt>
<trkpt lat="57.196110" lon="9.538770">
<ele>22.471187</ele>
<time>2026-07-16T09:54:43.000Z</time>
</trkpt>
<trkpt lat="57.196156" lon="9.538785">
<ele>22.485084</ele>
<time>2026-07-16T09:54:44.000Z</time>
</trkpt>
<trkpt lat="57.196205" lon="9.538795">
<ele>22.499750</ele>
<time>2026-07-16T09:54:45.000Z</time>
</trkpt>
<trkpt lat="57.196259" lon="9.538807">
<ele>22.515931</ele>
<time>2026-07-16T09:54:46.000Z</time>
</trkpt>
<trkpt lat="57.196316" lon="9.538825">
<ele>22.533134</ele>
<time>2026-07-16T09:54:47.000Z</time>
</trkpt>
<trkpt lat="57.196365" lon="9.538841">
<ele>22.547938</ele>
<time>2026-07-16T09:54:48.000Z</time>
</trkpt>
<trkpt lat="57.196419" lon="9.538854">
<ele>22.564139</ele>
<time>2026-07-16T09:54:49.000Z</time>
</trkpt>
<trkpt lat="57.196472" lon="9.538880">
<ele>22.580453</ele>
<time>2026-07-16T09:54:50.000Z</time>
</trkpt>
<trkpt lat="57.196526" lon="9.538907">
<ele>22.597097</ele>
<time>2026-07-16T09:54:51.000Z</time>
</trkpt>
<trkpt lat="57.196587" lon="9.538932">
<ele>22.615686</ele>
<time>2026-07-16T09:54:52.000Z</time>
</trkpt>
<trkpt lat="57.196644" lon="9.538958">
<ele>22.633153</ele>
<time>2026-07-16T09:54:53.000Z</time>
</trkpt>
<trkpt lat="57.196697" lon="9.538978">
<ele>22.649246</ele>
<time>2026-07-16T09:54:54.000Z</time>
</trkpt>
<trkpt lat="57.196747" lon="9.538989">
<ele>22.664226</ele>
<time>2026-07-16T09:54:55.000Z</time>
</trkpt>
<trkpt lat="57.196796" lon="9.539006">
<ele>22.679059</ele>
<time>2026-07-16T09:54:56.000Z</time>
</trkpt>
<trkpt lat="57.196850" lon="9.539030">
<ele>22.695583</ele>
<time>2026-07-16T09:54:57.000Z</time>
</trkpt>
<trkpt lat="57.196903" lon="9.539046">
<ele>22.711559</ele>
<time>2026-07-16T09:54:58.000Z</time>
</trkpt>
<trkpt lat="57.196953" lon="9.539062">
<ele>22.726656</ele>
<time>2026-07-16T09:54:59.000Z</time>
</trkpt>
<trkpt lat="57.197006" lon="9.539087">
<ele>22.742930</ele>
<time>2026-07-16T09:55:00.000Z</time>
</trkpt>
<trkpt lat="57.197063" lon="9.539104">
<ele>22.760107</ele>
<time>2026-07-16T09:55:01.000Z</time>
</trkpt>
<trkpt lat="57.197117" lon="9.539125">
<ele>22.776524</ele>
<time>2026-07-16T09:55:02.000Z</time>
</trkpt>
<trkpt lat="57.197182" lon="9.539156">
<ele>22.796496</ele>
<time>2026-07-16T09:55:03.000Z</time>
</trkpt>
<trkpt lat="57.197247" lon="9.539182">
<ele>22.816282</ele>
<time>2026-07-16T09:55:04.000Z</time>
</trkpt>
<trkpt lat="57.197311" lon="9.539214">
<ele>22.836008</ele>
<time>2026-07-16T09:55:05.000Z</time>
</trkpt>
<trkpt lat="57.197372" lon="9.539243">
<ele>22.854748</ele>
<time>2026-07-16T09:55:06.000Z</time>
</trkpt>
<trkpt lat="57.197426" lon="9.539271">
<ele>22.862008</ele>
<time>2026-07-16T09:55:07.000Z</time>
</trkpt>
<trkpt lat="57.197483" lon="9.539303">
<ele>22.869525</ele>
<time>2026-07-16T09:55:08.000Z</time>
</trkpt>
<trkpt lat="57.197544" lon="9.539332">
<ele>22.877472</ele>
<time>2026-07-16T09:55:09.000Z</time>
</trkpt>
<trkpt lat="57.197598" lon="9.539353">
<ele>22.884435</ele>
<time>2026-07-16T09:55:10.000Z</time>
</trkpt>
<trkpt lat="57.197666" lon="9.539384">
<ele>22.893272</ele>
<time>2026-07-16T09:55:11.000Z</time>
</trkpt>
<trkpt lat="57.197723" lon="9.539412">
<ele>22.900713</ele>
<time>2026-07-16T09:55:12.000Z</time>
</trkpt>
<trkpt lat="57.197777" lon="9.539430">
<ele>22.907636</ele>
<time>2026-07-16T09:55:13.000Z</time>
</trkpt>
<trkpt lat="57.197830" lon="9.539432">
<ele>22.914324</ele>
<time>2026-07-16T09:55:14.000Z</time>
</trkpt>
<trkpt lat="57.197880" lon="9.539424">
<ele>22.920656</ele>
<time>2026-07-16T09:55:15.000Z</time>
</trkpt>
<trkpt lat="57.197937" lon="9.539412">
<ele>22.927894</ele>
<time>2026-07-16T09:55:16.000Z</time>
</trkpt>
<trkpt lat="57.197994" lon="9.539397">
<ele>22.935158</ele>
<time>2026-07-16T09:55:17.000Z</time>
</trkpt>
<trkpt lat="57.198051" lon="9.539378">
<ele>22.942466</ele>
<time>2026-07-16T09:55:18.000Z</time>
</trkpt>
<trkpt lat="57.198113" lon="9.539360">
<ele>22.950384</ele>
<time>2026-07-16T09:55:19.000Z</time>
</trkpt>
<trkpt lat="57.198170" lon="9.539340">
<ele>22.957705</ele>
<time>2026-07-16T09:55:20.000Z</time>
</trkpt>
<trkpt lat="57.198231" lon="9.539327">
<ele>22.965452</ele>
<time>2026-07-16T09:55:21.000Z</time>
</trkpt>
<trkpt lat="57.198288" lon="9.539309">
<ele>22.972748</ele>
<time>2026-07-16T09:55:22.000Z</time>
</trkpt>
<trkpt lat="57.198345" lon="9.539290">
<ele>22.980055</ele>
<time>2026-07-16T09:55:23.000Z</time>
</trkpt>
<trkpt lat="57.198406" lon="9.539271">
<ele>22.987860</ele>
<time>2026-07-16T09:55:24.000Z</time>
</trkpt>
<trkpt lat="57.198471" lon="9.539261">
<ele>22.996089</ele>
<time>2026-07-16T09:55:25.000Z</time>
</trkpt>
<trkpt lat="57.198536" lon="9.539247">
<ele>23.004346</ele>
<time>2026-07-16T09:55:26.000Z</time>
</trkpt>
<trkpt lat="57.198593" lon="9.539227">
<ele>23.011666</ele>
<time>2026-07-16T09:55:27.000Z</time>
</trkpt>
<trkpt lat="57.198654" lon="9.539205">
<ele>23.019507</ele>
<time>2026-07-16T09:55:28.000Z</time>
</trkpt>
<trkpt lat="57.198708" lon="9.539186">
<ele>23.026443</ele>
<time>2026-07-16T09:55:29.000Z</time>
</trkpt>
<trkpt lat="57.198761" lon="9.539165">
<ele>23.033282</ele>
<time>2026-07-16T09:55:30.000Z</time>
</trkpt>
<trkpt lat="57.198814" lon="9.539143">
<ele>23.040135</ele>
<time>2026-07-16T09:55:31.000Z</time>
</trkpt>
<trkpt lat="57.198868" lon="9.539124">
<ele>23.047071</ele>
<time>2026-07-16T09:55:32.000Z</time>
</trkpt>
<trkpt lat="57.198917" lon="9.539104">
<ele>23.053402</ele>
<time>2026-07-16T09:55:33.000Z</time>
</trkpt>
<trkpt lat="57.198963" lon="9.539083">
<ele>23.059381</ele>
<time>2026-07-16T09:55:34.000Z</time>
</trkpt>
<trkpt lat="57.199009" lon="9.539068">
<ele>23.065274</ele>
<time>2026-07-16T09:55:35.000Z</time>
</trkpt>
<trkpt lat="57.199043" lon="9.539058">
<ele>23.069618</ele>
<time>2026-07-16T09:55:36.000Z</time>
</trkpt>
<trkpt lat="57.199081" lon="9.539051">
<ele>23.074436</ele>
<time>2026-07-16T09:55:37.000Z</time>
</trkpt>
<trkpt lat="57.199127" lon="9.539044">
<ele>23.080259</ele>
<time>2026-07-16T09:55:38.000Z</time>
</trkpt>
<trkpt lat="57.199177" lon="9.539040">
<ele>23.085399</ele>
<time>2026-07-16T09:55:39.000Z</time>
</trkpt>
<trkpt lat="57.199223" lon="9.539045">
<ele>23.089723</ele>
<time>2026-07-16T09:55:40.000Z</time>
</trkpt>
<trkpt lat="57.199268" lon="9.539060">
<ele>23.094014</ele>
<time>2026-07-16T09:55:41.000Z</time>
</trkpt>
<trkpt lat="57.199318" lon="9.539081">
<ele>23.098826</ele>
<time>2026-07-16T09:55:42.000Z</time>
</trkpt>
<trkpt lat="57.199368" lon="9.539108">
<ele>23.103714</ele>
<time>2026-07-16T09:55:43.000Z</time>
</trkpt>
<trkpt lat="57.199417" lon="9.539136">
<ele>23.108527</ele>
<time>2026-07-16T09:55:44.000Z</time>
</trkpt>
<trkpt lat="57.199463" lon="9.539164">
<ele>23.113072</ele>
<time>2026-07-16T09:55:45.000Z</time>
</trkpt>
<trkpt lat="57.199512" lon="9.539196">
<ele>23.117949</ele>
<time>2026-07-16T09:55:46.000Z</time>
</trkpt>
<trkpt lat="57.199562" lon="9.539230">
<ele>23.122949</ele>
<time>2026-07-16T09:55:47.000Z</time>
</trkpt>
<trkpt lat="57.199615" lon="9.539268">
<ele>23.128284</ele>
<time>2026-07-16T09:55:48.000Z</time>
</trkpt>
<trkpt lat="57.199665" lon="9.539301">
<ele>23.133267</ele>
<time>2026-07-16T09:55:49.000Z</time>
</trkpt>
<trkpt lat="57.199707" lon="9.539327">
<ele>23.137424</ele>
<time>2026-07-16T09:55:50.000Z</time>
</trkpt>
<trkpt lat="57.199753" lon="9.539356">
<ele>23.141985</ele>
<time>2026-07-16T09:55:51.000Z</time>
</trkpt>
<trkpt lat="57.199795" lon="9.539386">
<ele>23.146211</ele>
<time>2026-07-16T09:55:52.000Z</time>
</trkpt>
<trkpt lat="57.199841" lon="9.539417">
<ele>23.150806</ele>
<time>2026-07-16T09:55:53.000Z</time>
</trkpt>
<trkpt lat="57.199886" lon="9.539450">
<ele>23.155349</ele>
<time>2026-07-16T09:55:54.000Z</time>
</trkpt>
<trkpt lat="57.199944" lon="9.539491">
<ele>23.161177</ele>
<time>2026-07-16T09:55:55.000Z</time>
</trkpt>
<trkpt lat="57.199997" lon="9.539528">
<ele>23.166494</ele>
<time>2026-07-16T09:55:56.000Z</time>
</trkpt>
<trkpt lat="57.200043" lon="9.539560">
<ele>23.171106</ele>
<time>2026-07-16T09:55:57.000Z</time>
</trkpt>
<trkpt lat="57.200092" lon="9.539601">
<ele>23.176155</ele>
<time>2026-07-16T09:55:58.000Z</time>
</trkpt>
<trkpt lat="57.200142" lon="9.539637">
<ele>23.181191</ele>
<time>2026-07-16T09:55:59.000Z</time>
</trkpt>
<trkpt lat="57.200188" lon="9.539670">
<ele>23.185821</ele>
<time>2026-07-16T09:56:00.000Z</time>
</trkpt>
<trkpt lat="57.200237" lon="9.539702">
<ele>23.190699</ele>
<time>2026-07-16T09:56:01.000Z</time>
</trkpt>
<trkpt lat="57.200283" lon="9.539733">
<ele>23.195294</ele>
<time>2026-07-16T09:56:02.000Z</time>
</trkpt>
<trkpt lat="57.200325" lon="9.539759">
<ele>23.199450</ele>
<time>2026-07-16T09:56:03.000Z</time>
</trkpt>
<trkpt lat="57.200359" lon="9.539779">
<ele>23.202799</ele>
<time>2026-07-16T09:56:04.000Z</time>
</trkpt>
<trkpt lat="57.200401" lon="9.539801">
<ele>23.206895</ele>
<time>2026-07-16T09:56:05.000Z</time>
</trkpt>
<trkpt lat="57.200443" lon="9.539827">
<ele>23.211052</ele>
<time>2026-07-16T09:56:06.000Z</time>
</trkpt>
<trkpt lat="57.200489" lon="9.539860">
<ele>23.215683</ele>
<time>2026-07-16T09:56:07.000Z</time>
</trkpt>
<trkpt lat="57.200535" lon="9.539892">
<ele>23.220296</ele>
<time>2026-07-16T09:56:08.000Z</time>
</trkpt>
<trkpt lat="57.200584" lon="9.539928">
<ele>23.225244</ele>
<time>2026-07-16T09:56:09.000Z</time>
</trkpt>
<trkpt lat="57.200626" lon="9.539959">
<ele>23.229489</ele>
<time>2026-07-16T09:56:10.000Z</time>
</trkpt>
<trkpt lat="57.200672" lon="9.539992">
<ele>23.234119</ele>
<time>2026-07-16T09:56:11.000Z</time>
</trkpt>
<trkpt lat="57.200714" lon="9.540022">
<ele>23.238345</ele>
<time>2026-07-16T09:56:12.000Z</time>
</trkpt>
<trkpt lat="57.200760" lon="9.540053">
<ele>23.242940</ele>
<time>2026-07-16T09:56:13.000Z</time>
</trkpt>
<trkpt lat="57.200809" lon="9.540089">
<ele>23.247889</ele>
<time>2026-07-16T09:56:14.000Z</time>
</trkpt>
<trkpt lat="57.200851" lon="9.540125">
<ele>23.245419</ele>
<time>2026-07-16T09:56:15.000Z</time>
</trkpt>
<trkpt lat="57.200901" lon="9.540160">
<ele>23.227133</ele>
<time>2026-07-16T09:56:16.000Z</time>
</trkpt>
<trkpt lat="57.200951" lon="9.540191">
<ele>23.209096</ele>
<time>2026-07-16T09:56:17.000Z</time>
</trkpt>
<trkpt lat="57.200996" lon="9.540222">
<ele>23.192671</ele>
<time>2026-07-16T09:56:18.000Z</time>
</trkpt>
<trkpt lat="57.201042" lon="9.540254">
<ele>23.175861</ele>
<time>2026-07-16T09:56:19.000Z</time>
</trkpt>
<trkpt lat="57.201084" lon="9.540290">
<ele>23.160025</ele>
<time>2026-07-16T09:56:20.000Z</time>
</trkpt>
<trkpt lat="57.201138" lon="9.540332">
<ele>23.139987</ele>
<time>2026-07-16T09:56:21.000Z</time>
</trkpt>
<trkpt lat="57.201183" lon="9.540367">
<ele>23.123289</ele>
<time>2026-07-16T09:56:22.000Z</time>
</trkpt>
<trkpt lat="57.201229" lon="9.540401">
<ele>23.106344</ele>
<time>2026-07-16T09:56:23.000Z</time>
</trkpt>
<trkpt lat="57.201282" lon="9.540434">
<ele>23.087217</ele>
<time>2026-07-16T09:56:24.000Z</time>
</trkpt>
<trkpt lat="57.201336" lon="9.540473">
<ele>23.067388</ele>
<time>2026-07-16T09:56:25.000Z</time>
</trkpt>
<trkpt lat="57.201393" lon="9.540516">
<ele>23.046331</ele>
<time>2026-07-16T09:56:26.000Z</time>
</trkpt>
<trkpt lat="57.201443" lon="9.540557">
<ele>23.027622</ele>
<time>2026-07-16T09:56:27.000Z</time>
</trkpt>
<trkpt lat="57.201500" lon="9.540602">
<ele>23.006422</ele>
<time>2026-07-16T09:56:28.000Z</time>
</trkpt>
<trkpt lat="57.201553" lon="9.540647">
<ele>22.986473</ele>
<time>2026-07-16T09:56:29.000Z</time>
</trkpt>
<trkpt lat="57.201607" lon="9.540692">
<ele>22.966212</ele>
<time>2026-07-16T09:56:30.000Z</time>
</trkpt>
<trkpt lat="57.201656" lon="9.540730">
<ele>22.948037</ele>
<time>2026-07-16T09:56:31.000Z</time>
</trkpt>
<trkpt lat="57.201695" lon="9.540761">
<ele>22.933517</ele>
<time>2026-07-16T09:56:32.000Z</time>
</trkpt>
<trkpt lat="57.201748" lon="9.540802">
<ele>22.913866</ele>
<time>2026-07-16T09:56:33.000Z</time>
</trkpt>
<trkpt lat="57.201809" lon="9.540850">
<ele>22.891190</ele>
<time>2026-07-16T09:56:34.000Z</time>
</trkpt>
<trkpt lat="57.201862" lon="9.540892">
<ele>22.871467</ele>
<time>2026-07-16T09:56:35.000Z</time>
</trkpt>
<trkpt lat="57.201908" lon="9.540925">
<ele>22.854590</ele>
<time>2026-07-16T09:56:36.000Z</time>
</trkpt>
<trkpt lat="57.201942" lon="9.540960">
<ele>22.841278</ele>
<time>2026-07-16T09:56:37.000Z</time>
</trkpt>
<trkpt lat="57.201969" lon="9.540984">
<ele>22.831030</ele>
<time>2026-07-16T09:56:38.000Z</time>
</trkpt>
<trkpt lat="57.201992" lon="9.540993">
<ele>22.822990</ele>
<time>2026-07-16T09:56:39.000Z</time>
</trkpt>
<trkpt lat="57.202023" lon="9.540998">
<ele>22.812349</ele>
<time>2026-07-16T09:56:40.000Z</time>
</trkpt>
<trkpt lat="57.202053" lon="9.540992">
<ele>22.802030</ele>
<time>2026-07-16T09:56:41.000Z</time>
</trkpt>
<trkpt lat="57.202076" lon="9.540956">
<ele>22.791718</ele>
<time>2026-07-16T09:56:42.000Z</time>
</trkpt>
<trkpt lat="57.202091" lon="9.540907">
<ele>22.781292</ele>
<time>2026-07-16T09:56:43.000Z</time>
</trkpt>
<trkpt lat="57.202107" lon="9.540846">
<ele>22.768738</ele>
<time>2026-07-16T09:56:44.000Z</time>
</trkpt>
<trkpt lat="57.202118" lon="9.540778">
<ele>22.755592</ele>
<time>2026-07-16T09:56:45.000Z</time>
</trkpt>
<trkpt lat="57.202133" lon="9.540701">
<ele>22.740435</ele>
<time>2026-07-16T09:56:46.000Z</time>
</trkpt>
<trkpt lat="57.202145" lon="9.540620">
<ele>22.724880</ele>
<time>2026-07-16T09:56:47.000Z</time>
</trkpt>
<trkpt lat="57.202156" lon="9.540532">
<ele>22.708151</ele>
<time>2026-07-16T09:56:48.000Z</time>
</trkpt>
<trkpt lat="57.202164" lon="9.540439">
<ele>22.690708</ele>
<time>2026-07-16T09:56:49.000Z</time>
</trkpt>
<trkpt lat="57.202175" lon="9.540344">
<ele>22.672713</ele>
<time>2026-07-16T09:56:50.000Z</time>
</trkpt>
<trkpt lat="57.202187" lon="9.540246">
<ele>22.654102</ele>
<time>2026-07-16T09:56:51.000Z</time>
</trkpt>
<trkpt lat="57.202202" lon="9.540144">
<ele>22.634148</ele>
<time>2026-07-16T09:56:52.000Z</time>
</trkpt>
<trkpt lat="57.202210" lon="9.540038">
<ele>22.607937</ele>
<time>2026-07-16T09:56:53.000Z</time>
</trkpt>
<trkpt lat="57.202217" lon="9.539933">
<ele>22.582027</ele>
<time>2026-07-16T09:56:54.000Z</time>
</trkpt>
<trkpt lat="57.202229" lon="9.539826">
<ele>22.555266</ele>
<time>2026-07-16T09:56:55.000Z</time>
</trkpt>
<trkpt lat="57.202232" lon="9.539715">
<ele>22.528047</ele>
<time>2026-07-16T09:56:56.000Z</time>
</trkpt>
<trkpt lat="57.202240" lon="9.539609">
<ele>22.501835</ele>
<time>2026-07-16T09:56:57.000Z</time>
</trkpt>
<trkpt lat="57.202248" lon="9.539499">
<ele>22.474653</ele>
<time>2026-07-16T09:56:58.000Z</time>
</trkpt>
<trkpt lat="57.202255" lon="9.539386">
<ele>22.446798</ele>
<time>2026-07-16T09:56:59.000Z</time>
</trkpt>
<trkpt lat="57.202263" lon="9.539276">
<ele>22.419616</ele>
<time>2026-07-16T09:57:00.000Z</time>
</trkpt>
<trkpt lat="57.202271" lon="9.539165">
<ele>22.392191</ele>
<time>2026-07-16T09:57:01.000Z</time>
</trkpt>
<trkpt lat="57.202278" lon="9.539055">
<ele>22.365065</ele>
<time>2026-07-16T09:57:02.000Z</time>
</trkpt>
<trkpt lat="57.202286" lon="9.538944">
<ele>22.337641</ele>
<time>2026-07-16T09:57:03.000Z</time>
</trkpt>
<trkpt lat="57.202293" lon="9.538833">
<ele>22.310272</ele>
<time>2026-07-16T09:57:04.000Z</time>
</trkpt>
<trkpt lat="57.202297" lon="9.538722">
<ele>22.283027</ele>
<time>2026-07-16T09:57:05.000Z</time>
</trkpt>
<trkpt lat="57.202305" lon="9.538610">
<ele>22.255359</ele>
<time>2026-07-16T09:57:06.000Z</time>
</trkpt>
<trkpt lat="57.202312" lon="9.538503">
<ele>22.228963</ele>
<time>2026-07-16T09:57:07.000Z</time>
</trkpt>
<trkpt lat="57.202320" lon="9.538391">
<ele>22.201296</ele>
<time>2026-07-16T09:57:08.000Z</time>
</trkpt>
<trkpt lat="57.202324" lon="9.538281">
<ele>22.174295</ele>
<time>2026-07-16T09:57:09.000Z</time>
</trkpt>
<trkpt lat="57.202332" lon="9.538175">
<ele>22.148083</ele>
<time>2026-07-16T09:57:10.000Z</time>
</trkpt>
<trkpt lat="57.202335" lon="9.538071">
<ele>22.122577</ele>
<time>2026-07-16T09:57:11.000Z</time>
</trkpt>
<trkpt lat="57.202343" lon="9.537966">
<ele>22.096608</ele>
<time>2026-07-16T09:57:12.000Z</time>
</trkpt>
<trkpt lat="57.202347" lon="9.537862">
<ele>22.071073</ele>
<time>2026-07-16T09:57:13.000Z</time>
</trkpt>
<trkpt lat="57.202354" lon="9.537759">
<ele>22.045649</ele>
<time>2026-07-16T09:57:14.000Z</time>
</trkpt>
<trkpt lat="57.202362" lon="9.537657">
<ele>22.020408</ele>
<time>2026-07-16T09:57:15.000Z</time>
</trkpt>
<trkpt lat="57.202373" lon="9.537546">
<ele>21.992771</ele>
<time>2026-07-16T09:57:16.000Z</time>
</trkpt>
<trkpt lat="57.202381" lon="9.537447">
<ele>21.968257</ele>
<time>2026-07-16T09:57:17.000Z</time>
</trkpt>
<trkpt lat="57.202393" lon="9.537338">
<ele>21.941016</ele>
<time>2026-07-16T09:57:18.000Z</time>
</trkpt>
<trkpt lat="57.202408" lon="9.537234">
<ele>21.914658</ele>
<time>2026-07-16T09:57:19.000Z</time>
</trkpt>
<trkpt lat="57.202431" lon="9.537134">
<ele>21.888050</ele>
<time>2026-07-16T09:57:20.000Z</time>
</trkpt>
<trkpt lat="57.202454" lon="9.537046">
<ele>21.864121</ele>
<time>2026-07-16T09:57:21.000Z</time>
</trkpt>
<trkpt lat="57.202480" lon="9.536956">
<ele>21.839140</ele>
<time>2026-07-16T09:57:22.000Z</time>
</trkpt>
<trkpt lat="57.202507" lon="9.536878">
<ele>21.820127</ele>
<time>2026-07-16T09:57:23.000Z</time>
</trkpt>
<trkpt lat="57.202537" lon="9.536810">
<ele>21.811772</ele>
<time>2026-07-16T09:57:24.000Z</time>
</trkpt>
<trkpt lat="57.202568" lon="9.536756">
<ele>21.804276</ele>
<time>2026-07-16T09:57:25.000Z</time>
</trkpt>
<trkpt lat="57.202595" lon="9.536710">
<ele>21.797814</ele>
<time>2026-07-16T09:57:26.000Z</time>
</trkpt>
<trkpt lat="57.202621" lon="9.536675">
<ele>21.792154</ele>
<time>2026-07-16T09:57:27.000Z</time>
</trkpt>
<trkpt lat="57.202656" lon="9.536657">
<ele>21.785764</ele>
<time>2026-07-16T09:57:28.000Z</time>
</trkpt>
<trkpt lat="57.202694" lon="9.536661">
<ele>21.779070</ele>
<time>2026-07-16T09:57:29.000Z</time>
</trkpt>
<trkpt lat="57.202728" lon="9.536686">
<ele>21.772633</ele>
<time>2026-07-16T09:57:30.000Z</time>
</trkpt>
<trkpt lat="57.202763" lon="9.536731">
<ele>21.765132</ele>
<time>2026-07-16T09:57:31.000Z</time>
</trkpt>
<trkpt lat="57.202793" lon="9.536788">
<ele>21.757560</ele>
<time>2026-07-16T09:57:32.000Z</time>
</trkpt>
<trkpt lat="57.202827" lon="9.536855">
<ele>21.748813</ele>
<time>2026-07-16T09:57:33.000Z</time>
</trkpt>
<trkpt lat="57.202862" lon="9.536922">
<ele>21.739946</ele>
<time>2026-07-16T09:57:34.000Z</time>
</trkpt>
<trkpt lat="57.202896" lon="9.536988">
<ele>21.731268</ele>
<time>2026-07-16T09:57:35.000Z</time>
</trkpt>
<trkpt lat="57.202938" lon="9.537059">
<ele>21.721252</ele>
<time>2026-07-16T09:57:36.000Z</time>
</trkpt>
<trkpt lat="57.202980" lon="9.537131">
<ele>21.711172</ele>
<time>2026-07-16T09:57:37.000Z</time>
</trkpt>
<trkpt lat="57.203022" lon="9.537204">
<ele>21.701026</ele>
<time>2026-07-16T09:57:38.000Z</time>
</trkpt>
<trkpt lat="57.203064" lon="9.537275">
<ele>21.691010</ele>
<time>2026-07-16T09:57:39.000Z</time>
</trkpt>
<trkpt lat="57.203106" lon="9.537348">
<ele>21.680864</ele>
<time>2026-07-16T09:57:40.000Z</time>
</trkpt>
<trkpt lat="57.203144" lon="9.537420">
<ele>21.671287</ele>
<time>2026-07-16T09:57:41.000Z</time>
</trkpt>
<trkpt lat="57.203186" lon="9.537493">
<ele>21.661142</ele>
<time>2026-07-16T09:57:42.000Z</time>
</trkpt>
<trkpt lat="57.203228" lon="9.537564">
<ele>21.651126</ele>
<time>2026-07-16T09:57:43.000Z</time>
</trkpt>
<trkpt lat="57.203270" lon="9.537638">
<ele>21.640915</ele>
<time>2026-07-16T09:57:44.000Z</time>
</trkpt>
<trkpt lat="57.203312" lon="9.537708">
<ele>21.630963</ele>
<time>2026-07-16T09:57:45.000Z</time>
</trkpt>
<trkpt lat="57.203354" lon="9.537783">
<ele>21.620686</ele>
<time>2026-07-16T09:57:46.000Z</time>
</trkpt>
<trkpt lat="57.203396" lon="9.537858">
<ele>21.610409</ele>
<time>2026-07-16T09:57:47.000Z</time>
</trkpt>
<trkpt lat="57.203438" lon="9.537933">
<ele>21.600132</ele>
<time>2026-07-16T09:57:48.000Z</time>
</trkpt>
<trkpt lat="57.203480" lon="9.538007">
<ele>21.589920</ele>
<time>2026-07-16T09:57:49.000Z</time>
</trkpt>
<trkpt lat="57.203522" lon="9.538079">
<ele>21.579840</ele>
<time>2026-07-16T09:57:50.000Z</time>
</trkpt>
<trkpt lat="57.203567" lon="9.538155">
<ele>21.569113</ele>
<time>2026-07-16T09:57:51.000Z</time>
</trkpt>
<trkpt lat="57.203609" lon="9.538230">
<ele>21.558836</ele>
<time>2026-07-16T09:57:52.000Z</time>
</trkpt>
<trkpt lat="57.203655" lon="9.538305">
<ele>21.548042</ele>
<time>2026-07-16T09:57:53.000Z</time>
</trkpt>
<trkpt lat="57.203697" lon="9.538380">
<ele>21.537765</ele>
<time>2026-07-16T09:57:54.000Z</time>
</trkpt>
<trkpt lat="57.203743" lon="9.538455">
<ele>21.526971</ele>
<time>2026-07-16T09:57:55.000Z</time>
</trkpt>
<trkpt lat="57.203789" lon="9.538528">
<ele>21.516303</ele>
<time>2026-07-16T09:57:56.000Z</time>
</trkpt>
<trkpt lat="57.203831" lon="9.538605">
<ele>21.505589</ele>
<time>2026-07-16T09:57:57.000Z</time>
</trkpt>
<trkpt lat="57.203873" lon="9.538679">
<ele>21.481114</ele>
<time>2026-07-16T09:57:58.000Z</time>
</trkpt>
<trkpt lat="57.203918" lon="9.538753">
<ele>21.455710</ele>
<time>2026-07-16T09:57:59.000Z</time>
</trkpt>
<trkpt lat="57.203960" lon="9.538830">
<ele>21.430758</ele>
<time>2026-07-16T09:58:00.000Z</time>
</trkpt>
<trkpt lat="57.204006" lon="9.538904">
<ele>21.405038</ele>
<time>2026-07-16T09:58:01.000Z</time>
</trkpt>
<trkpt lat="57.204048" lon="9.538980">
<ele>21.380247</ele>
<time>2026-07-16T09:58:02.000Z</time>
</trkpt>
<trkpt lat="57.204094" lon="9.539054">
<ele>21.354526</ele>
<time>2026-07-16T09:58:03.000Z</time>
</trkpt>
<trkpt lat="57.204136" lon="9.539130">
<ele>21.329735</ele>
<time>2026-07-16T09:58:04.000Z</time>
</trkpt>
<trkpt lat="57.204178" lon="9.539205">
<ele>21.305102</ele>
<time>2026-07-16T09:58:05.000Z</time>
</trkpt>
<trkpt lat="57.204224" lon="9.539280">
<ele>21.279232</ele>
<time>2026-07-16T09:58:06.000Z</time>
</trkpt>
<trkpt lat="57.204269" lon="9.539358">
<ele>21.253211</ele>
<time>2026-07-16T09:58:07.000Z</time>
</trkpt>
<trkpt lat="57.204311" lon="9.539432">
<ele>21.228737</ele>
<time>2026-07-16T09:58:08.000Z</time>
</trkpt>
<trkpt lat="57.204357" lon="9.539506">
<ele>21.203017</ele>
<time>2026-07-16T09:58:09.000Z</time>
</trkpt>
<trkpt lat="57.204399" lon="9.539579">
<ele>21.178700</ele>
<time>2026-07-16T09:58:10.000Z</time>
</trkpt>
<trkpt lat="57.204441" lon="9.539652">
<ele>21.154383</ele>
<time>2026-07-16T09:58:11.000Z</time>
</trkpt>
<trkpt lat="57.204483" lon="9.539724">
<ele>21.130222</ele>
<time>2026-07-16T09:58:12.000Z</time>
</trkpt>
<trkpt lat="57.204521" lon="9.539800">
<ele>21.106606</ele>
<time>2026-07-16T09:58:13.000Z</time>
</trkpt>
<trkpt lat="57.204563" lon="9.539876">
<ele>21.081814</ele>
<time>2026-07-16T09:58:14.000Z</time>
</trkpt>
<trkpt lat="57.204609" lon="9.539951">
<ele>21.055944</ele>
<time>2026-07-16T09:58:15.000Z</time>
</trkpt>
<trkpt lat="57.204651" lon="9.540025">
<ele>21.031470</ele>
<time>2026-07-16T09:58:16.000Z</time>
</trkpt>
<trkpt lat="57.204693" lon="9.540098">
<ele>21.007153</ele>
<time>2026-07-16T09:58:17.000Z</time>
</trkpt>
<trkpt lat="57.204731" lon="9.540173">
<ele>20.983704</ele>
<time>2026-07-16T09:58:18.000Z</time>
</trkpt>
<trkpt lat="57.204777" lon="9.540246">
<ele>20.958133</ele>
<time>2026-07-16T09:58:19.000Z</time>
</trkpt>
<trkpt lat="57.204819" lon="9.540319">
<ele>20.933816</ele>
<time>2026-07-16T09:58:20.000Z</time>
</trkpt>
<trkpt lat="57.204861" lon="9.540393">
<ele>20.909342</ele>
<time>2026-07-16T09:58:21.000Z</time>
</trkpt>
<trkpt lat="57.204903" lon="9.540468">
<ele>20.884710</ele>
<time>2026-07-16T09:58:22.000Z</time>
</trkpt>
<trkpt lat="57.204945" lon="9.540544">
<ele>20.859919</ele>
<time>2026-07-16T09:58:23.000Z</time>
</trkpt>
<trkpt lat="57.204990" lon="9.540622">
<ele>20.833899</ele>
<time>2026-07-16T09:58:24.000Z</time>
</trkpt>
<trkpt lat="57.205032" lon="9.540698">
<ele>20.809108</ele>
<time>2026-07-16T09:58:25.000Z</time>
</trkpt>
<trkpt lat="57.205074" lon="9.540771">
<ele>20.784791</ele>
<time>2026-07-16T09:58:26.000Z</time>
</trkpt>
<trkpt lat="57.205120" lon="9.540847">
<ele>20.758769</ele>
<time>2026-07-16T09:58:27.000Z</time>
</trkpt>
<trkpt lat="57.205158" lon="9.540919">
<ele>20.756634</ele>
<time>2026-07-16T09:58:28.000Z</time>
</trkpt>
<trkpt lat="57.205208" lon="9.540997">
<ele>20.776648</ele>
<time>2026-07-16T09:58:29.000Z</time>
</trkpt>
<trkpt lat="57.205254" lon="9.541072">
<ele>20.795413</ele>
<time>2026-07-16T09:58:30.000Z</time>
</trkpt>
<trkpt lat="57.205299" lon="9.541146">
<ele>20.813839</ele>
<time>2026-07-16T09:58:31.000Z</time>
</trkpt>
<trkpt lat="57.205341" lon="9.541221">
<ele>20.831704</ele>
<time>2026-07-16T09:58:32.000Z</time>
</trkpt>
<trkpt lat="57.205383" lon="9.541294">
<ele>20.849342</ele>
<time>2026-07-16T09:58:33.000Z</time>
</trkpt>
<trkpt lat="57.205429" lon="9.541368">
<ele>20.867997</ele>
<time>2026-07-16T09:58:34.000Z</time>
</trkpt>
<trkpt lat="57.205471" lon="9.541443">
<ele>20.885863</ele>
<time>2026-07-16T09:58:35.000Z</time>
</trkpt>
<trkpt lat="57.205517" lon="9.541518">
<ele>20.904627</ele>
<time>2026-07-16T09:58:36.000Z</time>
</trkpt>
<trkpt lat="57.205559" lon="9.541593">
<ele>20.922493</ele>
<time>2026-07-16T09:58:37.000Z</time>
</trkpt>
<trkpt lat="57.205605" lon="9.541670">
<ele>20.941478</ele>
<time>2026-07-16T09:58:38.000Z</time>
</trkpt>
<trkpt lat="57.205650" lon="9.541743">
<ele>20.959794</ele>
<time>2026-07-16T09:58:39.000Z</time>
</trkpt>
<trkpt lat="57.205696" lon="9.541821">
<ele>20.978891</ele>
<time>2026-07-16T09:58:40.000Z</time>
</trkpt>
<trkpt lat="57.205742" lon="9.541897">
<ele>20.997765</ele>
<time>2026-07-16T09:58:41.000Z</time>
</trkpt>
<trkpt lat="57.205788" lon="9.541972">
<ele>21.016529</ele>
<time>2026-07-16T09:58:42.000Z</time>
</trkpt>
<trkpt lat="57.205830" lon="9.542048">
<ele>21.034510</ele>
<time>2026-07-16T09:58:43.000Z</time>
</trkpt>
<trkpt lat="57.205875" lon="9.542128">
<ele>21.053611</ele>
<time>2026-07-16T09:58:44.000Z</time>
</trkpt>
<trkpt lat="57.205921" lon="9.542204">
<ele>21.072486</ele>
<time>2026-07-16T09:58:45.000Z</time>
</trkpt>
<trkpt lat="57.205963" lon="9.542281">
<ele>21.090583</ele>
<time>2026-07-16T09:58:46.000Z</time>
</trkpt>
<trkpt lat="57.206005" lon="9.542356">
<ele>21.108449</ele>
<time>2026-07-16T09:58:47.000Z</time>
</trkpt>
<trkpt lat="57.206055" lon="9.542435">
<ele>21.128571</ele>
<time>2026-07-16T09:58:48.000Z</time>
</trkpt>
<trkpt lat="57.206100" lon="9.542511">
<ele>21.147218</ele>
<time>2026-07-16T09:58:49.000Z</time>
</trkpt>
<trkpt lat="57.206142" lon="9.542588">
<ele>21.165316</ele>
<time>2026-07-16T09:58:50.000Z</time>
</trkpt>
<trkpt lat="57.206188" lon="9.542664">
<ele>21.184190</ele>
<time>2026-07-16T09:58:51.000Z</time>
</trkpt>
<trkpt lat="57.206230" lon="9.542740">
<ele>21.202171</ele>
<time>2026-07-16T09:58:52.000Z</time>
</trkpt>
<trkpt lat="57.206272" lon="9.542812">
<ele>21.219695</ele>
<time>2026-07-16T09:58:53.000Z</time>
</trkpt>
<trkpt lat="57.206314" lon="9.542883">
<ele>21.237107</ele>
<time>2026-07-16T09:58:54.000Z</time>
</trkpt>
<trkpt lat="57.206356" lon="9.542952">
<ele>21.254297</ele>
<time>2026-07-16T09:58:55.000Z</time>
</trkpt>
<trkpt lat="57.206398" lon="9.543019">
<ele>21.271268</ele>
<time>2026-07-16T09:58:56.000Z</time>
</trkpt>
<trkpt lat="57.206436" lon="9.543089">
<ele>21.287681</ele>
<time>2026-07-16T09:58:57.000Z</time>
</trkpt>
<trkpt lat="57.206482" lon="9.543158">
<ele>21.310929</ele>
<time>2026-07-16T09:58:58.000Z</time>
</trkpt>
<trkpt lat="57.206528" lon="9.543227">
<ele>21.340713</ele>
<time>2026-07-16T09:58:59.000Z</time>
</trkpt>
<trkpt lat="57.206573" lon="9.543297">
<ele>21.370284</ele>
<time>2026-07-16T09:59:00.000Z</time>
</trkpt>
<trkpt lat="57.206623" lon="9.543365">
<ele>21.401493</ele>
<time>2026-07-16T09:59:01.000Z</time>
</trkpt>
<trkpt lat="57.206665" lon="9.543437">
<ele>21.430295</ele>
<time>2026-07-16T09:59:02.000Z</time>
</trkpt>
<trkpt lat="57.206707" lon="9.543507">
<ele>21.458730</ele>
<time>2026-07-16T09:59:03.000Z</time>
</trkpt>
<trkpt lat="57.206749" lon="9.543576">
<ele>21.486983</ele>
<time>2026-07-16T09:59:04.000Z</time>
</trkpt>
<trkpt lat="57.206791" lon="9.543648">
<ele>21.515785</ele>
<time>2026-07-16T09:59:05.000Z</time>
</trkpt>
<trkpt lat="57.206833" lon="9.543722">
<ele>21.544960</ele>
<time>2026-07-16T09:59:06.000Z</time>
</trkpt>
<trkpt lat="57.206879" lon="9.543799">
<ele>21.576164</ele>
<time>2026-07-16T09:59:07.000Z</time>
</trkpt>
<trkpt lat="57.206921" lon="9.543877">
<ele>21.606101</ele>
<time>2026-07-16T09:59:08.000Z</time>
</trkpt>
<trkpt lat="57.206963" lon="9.543953">
<ele>21.635655</ele>
<time>2026-07-16T09:59:09.000Z</time>
</trkpt>
<trkpt lat="57.207005" lon="9.544030">
<ele>21.665400</ele>
<time>2026-07-16T09:59:10.000Z</time>
</trkpt>
<trkpt lat="57.207047" lon="9.544104">
<ele>21.694575</ele>
<time>2026-07-16T09:59:11.000Z</time>
</trkpt>
<trkpt lat="57.207096" lon="9.544178">
<ele>21.726388</ele>
<time>2026-07-16T09:59:12.000Z</time>
</trkpt>
<trkpt lat="57.207138" lon="9.544250">
<ele>21.755190</ele>
<time>2026-07-16T09:59:13.000Z</time>
</trkpt>
<trkpt lat="57.207176" lon="9.544327">
<ele>21.783544</ele>
<time>2026-07-16T09:59:14.000Z</time>
</trkpt>
<trkpt lat="57.207218" lon="9.544403">
<ele>21.813098</ele>
<time>2026-07-16T09:59:15.000Z</time>
</trkpt>
<trkpt lat="57.207256" lon="9.544478">
<ele>21.841051</ele>
<time>2026-07-16T09:59:16.000Z</time>
</trkpt>
<trkpt lat="57.207298" lon="9.544552">
<ele>21.870226</ele>
<time>2026-07-16T09:59:17.000Z</time>
</trkpt>
<trkpt lat="57.207336" lon="9.544620">
<ele>21.896821</ele>
<time>2026-07-16T09:59:18.000Z</time>
</trkpt>
<trkpt lat="57.207378" lon="9.544689">
<ele>21.925073</ele>
<time>2026-07-16T09:59:19.000Z</time>
</trkpt>
<trkpt lat="57.207417" lon="9.544758">
<ele>21.952218</ele>
<time>2026-07-16T09:59:20.000Z</time>
</trkpt>
<trkpt lat="57.207459" lon="9.544824">
<ele>21.979935</ele>
<time>2026-07-16T09:59:21.000Z</time>
</trkpt>
<trkpt lat="57.207497" lon="9.544890">
<ele>22.006153</ele>
<time>2026-07-16T09:59:22.000Z</time>
</trkpt>
<trkpt lat="57.207535" lon="9.544958">
<ele>22.032747</ele>
<time>2026-07-16T09:59:23.000Z</time>
</trkpt>
<trkpt lat="57.207577" lon="9.545032">
<ele>22.061922</ele>
<time>2026-07-16T09:59:24.000Z</time>
</trkpt>
<trkpt lat="57.207619" lon="9.545101">
<ele>22.090175</ele>
<time>2026-07-16T09:59:25.000Z</time>
</trkpt>
<trkpt lat="57.207661" lon="9.545169">
<ele>22.118248</ele>
<time>2026-07-16T09:59:26.000Z</time>
</trkpt>
<trkpt lat="57.207699" lon="9.545240">
<ele>22.145416</ele>
<time>2026-07-16T09:59:27.000Z</time>
</trkpt>
<trkpt lat="57.207741" lon="9.545311">
<ele>22.174034</ele>
<time>2026-07-16T09:59:28.000Z</time>
</trkpt>
<trkpt lat="57.207783" lon="9.545383">
<ele>22.202272</ele>
<time>2026-07-16T09:59:29.000Z</time>
</trkpt>
<trkpt lat="57.207825" lon="9.545453">
<ele>22.215973</ele>
<time>2026-07-16T09:59:30.000Z</time>
</trkpt>
<trkpt lat="57.207867" lon="9.545524">
<ele>22.229763</ele>
<time>2026-07-16T09:59:31.000Z</time>
</trkpt>
<trkpt lat="57.207916" lon="9.545598">
<ele>22.245092</ele>
<time>2026-07-16T09:59:32.000Z</time>
</trkpt>
<trkpt lat="57.207958" lon="9.545672">
<ele>22.259151</ele>
<time>2026-07-16T09:59:33.000Z</time>
</trkpt>
<trkpt lat="57.208000" lon="9.545744">
<ele>22.273029</ele>
<time>2026-07-16T09:59:34.000Z</time>
</trkpt>
<trkpt lat="57.208046" lon="9.545817">
<ele>22.287717</ele>
<time>2026-07-16T09:59:35.000Z</time>
</trkpt>
<trkpt lat="57.208096" lon="9.545889">
<ele>22.303072</ele>
<time>2026-07-16T09:59:36.000Z</time>
</trkpt>
<trkpt lat="57.208141" lon="9.545960">
<ele>22.317406</ele>
<time>2026-07-16T09:59:37.000Z</time>
</trkpt>
<trkpt lat="57.208183" lon="9.546031">
<ele>22.331196</ele>
<time>2026-07-16T09:59:38.000Z</time>
</trkpt>
<trkpt lat="57.208229" lon="9.546101">
<ele>22.345631</ele>
<time>2026-07-16T09:59:39.000Z</time>
</trkpt>
<trkpt lat="57.208271" lon="9.546167">
<ele>22.358986</ele>
<time>2026-07-16T09:59:40.000Z</time>
</trkpt>
<trkpt lat="57.208321" lon="9.546234">
<ele>22.373947</ele>
<time>2026-07-16T09:59:41.000Z</time>
</trkpt>
<trkpt lat="57.208363" lon="9.546300">
<ele>22.387303</ele>
<time>2026-07-16T09:59:42.000Z</time>
</trkpt>
<trkpt lat="57.208412" lon="9.546371">
<ele>22.402386</ele>
<time>2026-07-16T09:59:43.000Z</time>
</trkpt>
<trkpt lat="57.208458" lon="9.546444">
<ele>22.417074</ele>
<time>2026-07-16T09:59:44.000Z</time>
</trkpt>
<trkpt lat="57.208504" lon="9.546513">
<ele>22.431426</ele>
<time>2026-07-16T09:59:45.000Z</time>
</trkpt>
<trkpt lat="57.208550" lon="9.546582">
<ele>22.445778</ele>
<time>2026-07-16T09:59:46.000Z</time>
</trkpt>
<trkpt lat="57.208595" lon="9.546653">
<ele>22.460112</ele>
<time>2026-07-16T09:59:47.000Z</time>
</trkpt>
<trkpt lat="57.208641" lon="9.546722">
<ele>22.474464</ele>
<time>2026-07-16T09:59:48.000Z</time>
</trkpt>
<trkpt lat="57.208691" lon="9.546789">
<ele>22.489424</ele>
<time>2026-07-16T09:59:49.000Z</time>
</trkpt>
<trkpt lat="57.208736" lon="9.546854">
<ele>22.503260</ele>
<time>2026-07-16T09:59:50.000Z</time>
</trkpt>
<trkpt lat="57.208782" lon="9.546920">
<ele>22.517367</ele>
<time>2026-07-16T09:59:51.000Z</time>
</trkpt>
<trkpt lat="57.208828" lon="9.546986">
<ele>22.531474</ele>
<time>2026-07-16T09:59:52.000Z</time>
</trkpt>
<trkpt lat="57.208878" lon="9.547055">
<ele>22.546590</ele>
<time>2026-07-16T09:59:53.000Z</time>
</trkpt>
<trkpt lat="57.208923" lon="9.547121">
<ele>22.560507</ele>
<time>2026-07-16T09:59:54.000Z</time>
</trkpt>
<trkpt lat="57.208973" lon="9.547188">
<ele>22.575467</ele>
<time>2026-07-16T09:59:55.000Z</time>
</trkpt>
<trkpt lat="57.209019" lon="9.547254">
<ele>22.589574</ele>
<time>2026-07-16T09:59:56.000Z</time>
</trkpt>
<trkpt lat="57.209064" lon="9.547319">
<ele>22.603410</ele>
<time>2026-07-16T09:59:57.000Z</time>
</trkpt>
<trkpt lat="57.209110" lon="9.547387">
<ele>22.617679</ele>
<time>2026-07-16T09:59:58.000Z</time>
</trkpt>
<trkpt lat="57.209164" lon="9.547453">
<ele>22.633361</ele>
<time>2026-07-16T09:59:59.000Z</time>
</trkpt>
<trkpt lat="57.209209" lon="9.547521">
<ele>22.634333</ele>
<time>2026-07-16T10:00:00.000Z</time>
</trkpt>
<trkpt lat="57.209259" lon="9.547589">
<ele>22.629917</ele>
<time>2026-07-16T10:00:01.000Z</time>
</trkpt>
<trkpt lat="57.209309" lon="9.547659">
<ele>22.625454</ele>
<time>2026-07-16T10:00:02.000Z</time>
</trkpt>
<trkpt lat="57.209354" lon="9.547727">
<ele>22.621319</ele>
<time>2026-07-16T10:00:03.000Z</time>
</trkpt>
<trkpt lat="57.209408" lon="9.547795">
<ele>22.616671</ele>
<time>2026-07-16T10:00:04.000Z</time>
</trkpt>
<trkpt lat="57.209461" lon="9.547862">
<ele>22.612104</ele>
<time>2026-07-16T10:00:05.000Z</time>
</trkpt>
<trkpt lat="57.209515" lon="9.547936">
<ele>22.607321</ele>
<time>2026-07-16T10:00:06.000Z</time>
</trkpt>
<trkpt lat="57.209568" lon="9.548009">
<ele>22.602619</ele>
<time>2026-07-16T10:00:07.000Z</time>
</trkpt>
<trkpt lat="57.209618" lon="9.548080">
<ele>22.598134</ele>
<time>2026-07-16T10:00:08.000Z</time>
</trkpt>
<trkpt lat="57.209671" lon="9.548152">
<ele>22.593455</ele>
<time>2026-07-16T10:00:09.000Z</time>
</trkpt>
<trkpt lat="57.209713" lon="9.548217">
<ele>22.589558</ele>
<time>2026-07-16T10:00:10.000Z</time>
</trkpt>
<trkpt lat="57.209766" lon="9.548284">
<ele>22.584990</ele>
<time>2026-07-16T10:00:11.000Z</time>
</trkpt>
<trkpt lat="57.209812" lon="9.548352">
<ele>22.580799</ele>
<time>2026-07-16T10:00:12.000Z</time>
</trkpt>
<trkpt lat="57.209862" lon="9.548419">
<ele>22.576406</ele>
<time>2026-07-16T10:00:13.000Z</time>
</trkpt>
<trkpt lat="57.209911" lon="9.548489">
<ele>22.572001</ele>
<time>2026-07-16T10:00:14.000Z</time>
</trkpt>
<trkpt lat="57.209961" lon="9.548560">
<ele>22.567515</ele>
<time>2026-07-16T10:00:15.000Z</time>
</trkpt>
<trkpt lat="57.210014" lon="9.548636">
<ele>22.562743</ele>
<time>2026-07-16T10:00:16.000Z</time>
</trkpt>
<trkpt lat="57.210068" lon="9.548710">
<ele>22.557961</ele>
<time>2026-07-16T10:00:17.000Z</time>
</trkpt>
<trkpt lat="57.210117" lon="9.548781">
<ele>22.553532</ele>
<time>2026-07-16T10:00:18.000Z</time>
</trkpt>
<trkpt lat="57.210171" lon="9.548855">
<ele>22.548749</ele>
<time>2026-07-16T10:00:19.000Z</time>
</trkpt>
<trkpt lat="57.210228" lon="9.548932">
<ele>22.543727</ele>
<time>2026-07-16T10:00:20.000Z</time>
</trkpt>
<trkpt lat="57.210281" lon="9.549006">
<ele>22.539002</ele>
<time>2026-07-16T10:00:21.000Z</time>
</trkpt>
<trkpt lat="57.210335" lon="9.549078">
<ele>22.534265</ele>
<time>2026-07-16T10:00:22.000Z</time>
</trkpt>
<trkpt lat="57.210388" lon="9.549151">
<ele>22.529563</ele>
<time>2026-07-16T10:00:23.000Z</time>
</trkpt>
<trkpt lat="57.210442" lon="9.549225">
<ele>22.524781</ele>
<time>2026-07-16T10:00:24.000Z</time>
</trkpt>
<trkpt lat="57.210495" lon="9.549296">
<ele>22.520125</ele>
<time>2026-07-16T10:00:25.000Z</time>
</trkpt>
<trkpt lat="57.210548" lon="9.549368">
<ele>22.515446</ele>
<time>2026-07-16T10:00:26.000Z</time>
</trkpt>
<trkpt lat="57.210602" lon="9.549443">
<ele>22.510641</ele>
<time>2026-07-16T10:00:27.000Z</time>
</trkpt>
<trkpt lat="57.210659" lon="9.549515">
<ele>22.508139</ele>
<time>2026-07-16T10:00:28.000Z</time>
</trkpt>
<trkpt lat="57.210712" lon="9.549590">
<ele>22.506506</ele>
<time>2026-07-16T10:00:29.000Z</time>
</trkpt>
<trkpt lat="57.210766" lon="9.549664">
<ele>22.504862</ele>
<time>2026-07-16T10:00:30.000Z</time>
</trkpt>
<trkpt lat="57.210815" lon="9.549738">
<ele>22.503314</ele>
<time>2026-07-16T10:00:31.000Z</time>
</trkpt>
<trkpt lat="57.210869" lon="9.549813">
<ele>22.501662</ele>
<time>2026-07-16T10:00:32.000Z</time>
</trkpt>
<trkpt lat="57.210922" lon="9.549884">
<ele>22.500061</ele>
<time>2026-07-16T10:00:33.000Z</time>
</trkpt>
<trkpt lat="57.210972" lon="9.549955">
<ele>22.498518</ele>
<time>2026-07-16T10:00:34.000Z</time>
</trkpt>
<trkpt lat="57.211025" lon="9.550022">
<ele>22.496948</ele>
<time>2026-07-16T10:00:35.000Z</time>
</trkpt>
<trkpt lat="57.211075" lon="9.550093">
<ele>22.495405</ele>
<time>2026-07-16T10:00:36.000Z</time>
</trkpt>
<trkpt lat="57.211124" lon="9.550160">
<ele>22.493915</ele>
<time>2026-07-16T10:00:37.000Z</time>
</trkpt>
<trkpt lat="57.211174" lon="9.550229">
<ele>22.492388</ele>
<time>2026-07-16T10:00:38.000Z</time>
</trkpt>
<trkpt lat="57.211227" lon="9.550302">
<ele>22.490772</ele>
<time>2026-07-16T10:00:39.000Z</time>
</trkpt>
<trkpt lat="57.211281" lon="9.550373">
<ele>22.489151</ele>
<time>2026-07-16T10:00:40.000Z</time>
</trkpt>
<trkpt lat="57.211327" lon="9.550443">
<ele>22.487693</ele>
<time>2026-07-16T10:00:41.000Z</time>
</trkpt>
<trkpt lat="57.211376" lon="9.550511">
<ele>22.486194</ele>
<time>2026-07-16T10:00:42.000Z</time>
</trkpt>
<trkpt lat="57.211426" lon="9.550579">
<ele>22.484676</ele>
<time>2026-07-16T10:00:43.000Z</time>
</trkpt>
<trkpt lat="57.211479" lon="9.550652">
<ele>22.483059</ele>
<time>2026-07-16T10:00:44.000Z</time>
</trkpt>
<trkpt lat="57.211529" lon="9.550719">
<ele>22.481549</ele>
<time>2026-07-16T10:00:45.000Z</time>
</trkpt>
<trkpt lat="57.211578" lon="9.550785">
<ele>22.480066</ele>
<time>2026-07-16T10:00:46.000Z</time>
</trkpt>
<trkpt lat="57.211628" lon="9.550853">
<ele>22.478547</ele>
<time>2026-07-16T10:00:47.000Z</time>
</trkpt>
<trkpt lat="57.211678" lon="9.550921">
<ele>22.477029</ele>
<time>2026-07-16T10:00:48.000Z</time>
</trkpt>
<trkpt lat="57.211727" lon="9.550987">
<ele>22.475546</ele>
<time>2026-07-16T10:00:49.000Z</time>
</trkpt>
<trkpt lat="57.211781" lon="9.551052">
<ele>22.473970</ele>
<time>2026-07-16T10:00:50.000Z</time>
</trkpt>
<trkpt lat="57.211830" lon="9.551119">
<ele>22.472479</ele>
<time>2026-07-16T10:00:51.000Z</time>
</trkpt>
<trkpt lat="57.211876" lon="9.551186">
<ele>22.471047</ele>
<time>2026-07-16T10:00:52.000Z</time>
</trkpt>
<trkpt lat="57.211925" lon="9.551249">
<ele>22.469587</ele>
<time>2026-07-16T10:00:53.000Z</time>
</trkpt>
<trkpt lat="57.211971" lon="9.551312">
<ele>22.468186</ele>
<time>2026-07-16T10:00:54.000Z</time>
</trkpt>
<trkpt lat="57.212017" lon="9.551374">
<ele>22.466794</ele>
<time>2026-07-16T10:00:55.000Z</time>
</trkpt>
<trkpt lat="57.212063" lon="9.551434">
<ele>22.465422</ele>
<time>2026-07-16T10:00:56.000Z</time>
</trkpt>
<trkpt lat="57.212109" lon="9.551496">
<ele>22.465506</ele>
<time>2026-07-16T10:00:57.000Z</time>
</trkpt>
<trkpt lat="57.212154" lon="9.551560">
<ele>22.465591</ele>
<time>2026-07-16T10:00:58.000Z</time>
</trkpt>
<trkpt lat="57.212196" lon="9.551621">
<ele>22.465671</ele>
<time>2026-07-16T10:00:59.000Z</time>
</trkpt>
<trkpt lat="57.212242" lon="9.551684">
<ele>22.465756</ele>
<time>2026-07-16T10:01:00.000Z</time>
</trkpt>
<trkpt lat="57.212288" lon="9.551745">
<ele>22.465841</ele>
<time>2026-07-16T10:01:01.000Z</time>
</trkpt>
<trkpt lat="57.212330" lon="9.551806">
<ele>22.465920</ele>
<time>2026-07-16T10:01:02.000Z</time>
</trkpt>
<trkpt lat="57.212376" lon="9.551867">
<ele>22.466005</ele>
<time>2026-07-16T10:01:03.000Z</time>
</trkpt>
<trkpt lat="57.212421" lon="9.551930">
<ele>22.466089</ele>
<time>2026-07-16T10:01:04.000Z</time>
</trkpt>
<trkpt lat="57.212463" lon="9.551989">
<ele>22.466167</ele>
<time>2026-07-16T10:01:05.000Z</time>
</trkpt>
<trkpt lat="57.212509" lon="9.552051">
<ele>22.466252</ele>
<time>2026-07-16T10:01:06.000Z</time>
</trkpt>
<trkpt lat="57.212551" lon="9.552112">
<ele>22.466332</ele>
<time>2026-07-16T10:01:07.000Z</time>
</trkpt>
<trkpt lat="57.212597" lon="9.552174">
<ele>22.466417</ele>
<time>2026-07-16T10:01:08.000Z</time>
</trkpt>
<trkpt lat="57.212639" lon="9.552236">
<ele>22.466497</ele>
<time>2026-07-16T10:01:09.000Z</time>
</trkpt>
<trkpt lat="57.212681" lon="9.552298">
<ele>22.466577</ele>
<time>2026-07-16T10:01:10.000Z</time>
</trkpt>
<trkpt lat="57.212730" lon="9.552361">
<ele>22.466666</ele>
<time>2026-07-16T10:01:11.000Z</time>
</trkpt>
<trkpt lat="57.212772" lon="9.552424">
<ele>22.466747</ele>
<time>2026-07-16T10:01:12.000Z</time>
</trkpt>
<trkpt lat="57.212814" lon="9.552486">
<ele>22.466827</ele>
<time>2026-07-16T10:01:13.000Z</time>
</trkpt>
<trkpt lat="57.212856" lon="9.552547">
<ele>22.466906</ele>
<time>2026-07-16T10:01:14.000Z</time>
</trkpt>
<trkpt lat="57.212898" lon="9.552612">
<ele>22.466988</ele>
<time>2026-07-16T10:01:15.000Z</time>
</trkpt>
<trkpt lat="57.212940" lon="9.552675">
<ele>22.467069</ele>
<time>2026-07-16T10:01:16.000Z</time>
</trkpt>
<trkpt lat="57.212978" lon="9.552739">
<ele>22.467145</ele>
<time>2026-07-16T10:01:17.000Z</time>
</trkpt>
<trkpt lat="57.213020" lon="9.552806">
<ele>22.467228</ele>
<time>2026-07-16T10:01:18.000Z</time>
</trkpt>
<trkpt lat="57.213062" lon="9.552869">
<ele>22.467309</ele>
<time>2026-07-16T10:01:19.000Z</time>
</trkpt>
<trkpt lat="57.213104" lon="9.552935">
<ele>22.467391</ele>
<time>2026-07-16T10:01:20.000Z</time>
</trkpt>
<trkpt lat="57.213146" lon="9.552999">
<ele>22.467472</ele>
<time>2026-07-16T10:01:21.000Z</time>
</trkpt>
<trkpt lat="57.213184" lon="9.553067">
<ele>22.467551</ele>
<time>2026-07-16T10:01:22.000Z</time>
</trkpt>
<trkpt lat="57.213226" lon="9.553136">
<ele>22.467635</ele>
<time>2026-07-16T10:01:23.000Z</time>
</trkpt>
<trkpt lat="57.213264" lon="9.553202">
<ele>22.467713</ele>
<time>2026-07-16T10:01:24.000Z</time>
</trkpt>
<trkpt lat="57.213303" lon="9.553269">
<ele>22.467792</ele>
<time>2026-07-16T10:01:25.000Z</time>
</trkpt>
<trkpt lat="57.213345" lon="9.553337">
<ele>22.467875</ele>
<time>2026-07-16T10:01:26.000Z</time>
</trkpt>
<trkpt lat="57.213383" lon="9.553408">
<ele>22.467956</ele>
<time>2026-07-16T10:01:27.000Z</time>
</trkpt>
<trkpt lat="57.213421" lon="9.553480">
<ele>22.468037</ele>
<time>2026-07-16T10:01:28.000Z</time>
</trkpt>
<trkpt lat="57.213459" lon="9.553551">
<ele>22.468923</ele>
<time>2026-07-16T10:01:29.000Z</time>
</trkpt>
<trkpt lat="57.213497" lon="9.553619">
<ele>22.473113</ele>
<time>2026-07-16T10:01:30.000Z</time>
</trkpt>
<trkpt lat="57.213535" lon="9.553690">
<ele>22.477394</ele>
<time>2026-07-16T10:01:31.000Z</time>
</trkpt>
<trkpt lat="57.213570" lon="9.553760">
<ele>22.481480</ele>
<time>2026-07-16T10:01:32.000Z</time>
</trkpt>
<trkpt lat="57.213608" lon="9.553831">
<ele>22.485761</ele>
<time>2026-07-16T10:01:33.000Z</time>
</trkpt>
<trkpt lat="57.213646" lon="9.553905">
<ele>22.490134</ele>
<time>2026-07-16T10:01:34.000Z</time>
</trkpt>
<trkpt lat="57.213684" lon="9.553976">
<ele>22.494415</ele>
<time>2026-07-16T10:01:35.000Z</time>
</trkpt>
<trkpt lat="57.213718" lon="9.554049">
<ele>22.498544</ele>
<time>2026-07-16T10:01:36.000Z</time>
</trkpt>
<trkpt lat="57.213757" lon="9.554122">
<ele>22.502942</ele>
<time>2026-07-16T10:01:37.000Z</time>
</trkpt>
<trkpt lat="57.213795" lon="9.554194">
<ele>22.507253</ele>
<time>2026-07-16T10:01:38.000Z</time>
</trkpt>
<trkpt lat="57.213829" lon="9.554272">
<ele>22.511547</ele>
<time>2026-07-16T10:01:39.000Z</time>
</trkpt>
<trkpt lat="57.213863" lon="9.554348">
<ele>22.515775</ele>
<time>2026-07-16T10:01:40.000Z</time>
</trkpt>
<trkpt lat="57.213898" lon="9.554420">
<ele>22.519924</ele>
<time>2026-07-16T10:01:41.000Z</time>
</trkpt>
<trkpt lat="57.213932" lon="9.554490">
<ele>22.523957</ele>
<time>2026-07-16T10:01:42.000Z</time>
</trkpt>
<trkpt lat="57.213966" lon="9.554564">
<ele>22.528118</ele>
<time>2026-07-16T10:01:43.000Z</time>
</trkpt>
<trkpt lat="57.214005" lon="9.554636">
<ele>22.532485</ele>
<time>2026-07-16T10:01:44.000Z</time>
</trkpt>
<trkpt lat="57.214039" lon="9.554709">
<ele>22.536615</ele>
<time>2026-07-16T10:01:45.000Z</time>
</trkpt>
<trkpt lat="57.214073" lon="9.554789">
<ele>22.540976</ele>
<time>2026-07-16T10:01:46.000Z</time>
</trkpt>
<trkpt lat="57.214111" lon="9.554869">
<ele>22.545539</ele>
<time>2026-07-16T10:01:47.000Z</time>
</trkpt>
<trkpt lat="57.214146" lon="9.554952">
<ele>22.550050</ele>
<time>2026-07-16T10:01:48.000Z</time>
</trkpt>
<trkpt lat="57.214180" lon="9.555030">
<ele>22.554344</ele>
<time>2026-07-16T10:01:49.000Z</time>
</trkpt>
<trkpt lat="57.214214" lon="9.555110">
<ele>22.558705</ele>
<time>2026-07-16T10:01:50.000Z</time>
</trkpt>
<trkpt lat="57.214245" lon="9.555188">
<ele>22.562855</ele>
<time>2026-07-16T10:01:51.000Z</time>
</trkpt>
<trkpt lat="57.214275" lon="9.555268">
<ele>22.567028</ele>
<time>2026-07-16T10:01:52.000Z</time>
</trkpt>
<trkpt lat="57.214310" lon="9.555346">
<ele>22.571372</ele>
<time>2026-07-16T10:01:53.000Z</time>
</trkpt>
<trkpt lat="57.214340" lon="9.555426">
<ele>22.575545</ele>
<time>2026-07-16T10:01:54.000Z</time>
</trkpt>
<trkpt lat="57.214375" lon="9.555505">
<ele>22.579922</ele>
<time>2026-07-16T10:01:55.000Z</time>
</trkpt>
<trkpt lat="57.214405" lon="9.555585">
<ele>22.584095</ele>
<time>2026-07-16T10:01:56.000Z</time>
</trkpt>
<trkpt lat="57.214436" lon="9.555664">
<ele>22.588278</ele>
<time>2026-07-16T10:01:57.000Z</time>
</trkpt>
<trkpt lat="57.214466" lon="9.555745">
<ele>22.592487</ele>
<time>2026-07-16T10:01:58.000Z</time>
</trkpt>
<trkpt lat="57.214497" lon="9.555827">
<ele>22.596775</ele>
<time>2026-07-16T10:01:59.000Z</time>
</trkpt>
<trkpt lat="57.214527" lon="9.555908">
<ele>22.600984</ele>
<time>2026-07-16T10:02:00.000Z</time>
</trkpt>
<trkpt lat="57.214558" lon="9.555990">
<ele>22.605272</ele>
<time>2026-07-16T10:02:01.000Z</time>
</trkpt>
<trkpt lat="57.214584" lon="9.556072">
<ele>22.609347</ele>
<time>2026-07-16T10:02:02.000Z</time>
</trkpt>
<trkpt lat="57.214615" lon="9.556155">
<ele>22.617303</ele>
<time>2026-07-16T10:02:03.000Z</time>
</trkpt>
<trkpt lat="57.214645" lon="9.556237">
<ele>22.626473</ele>
<time>2026-07-16T10:02:04.000Z</time>
</trkpt>
<trkpt lat="57.214676" lon="9.556320">
<ele>22.635815</ele>
<time>2026-07-16T10:02:05.000Z</time>
</trkpt>
<trkpt lat="57.214706" lon="9.556401">
<ele>22.644909</ele>
<time>2026-07-16T10:02:06.000Z</time>
</trkpt>
<trkpt lat="57.214729" lon="9.556484">
<ele>22.653548</ele>
<time>2026-07-16T10:02:07.000Z</time>
</trkpt>
<trkpt lat="57.214756" lon="9.556563">
<ele>22.662204</ele>
<time>2026-07-16T10:02:08.000Z</time>
</trkpt>
<trkpt lat="57.214783" lon="9.556644">
<ele>22.671018</ele>
<time>2026-07-16T10:02:09.000Z</time>
</trkpt>
<trkpt lat="57.214809" lon="9.556725">
<ele>22.679743</ele>
<time>2026-07-16T10:02:10.000Z</time>
</trkpt>
<trkpt lat="57.214836" lon="9.556808">
<ele>22.688715</ele>
<time>2026-07-16T10:02:11.000Z</time>
</trkpt>
<trkpt lat="57.214863" lon="9.556891">
<ele>22.697687</ele>
<time>2026-07-16T10:02:12.000Z</time>
</trkpt>
<trkpt lat="57.214889" lon="9.556974">
<ele>22.706572</ele>
<time>2026-07-16T10:02:13.000Z</time>
</trkpt>
<trkpt lat="57.214916" lon="9.557057">
<ele>22.715544</ele>
<time>2026-07-16T10:02:14.000Z</time>
</trkpt>
<trkpt lat="57.214943" lon="9.557142">
<ele>22.724675</ele>
<time>2026-07-16T10:02:15.000Z</time>
</trkpt>
<trkpt lat="57.214970" lon="9.557229">
<ele>22.733967</ele>
<time>2026-07-16T10:02:16.000Z</time>
</trkpt>
<trkpt lat="57.214993" lon="9.557316">
<ele>22.742938</ele>
<time>2026-07-16T10:02:17.000Z</time>
</trkpt>
<trkpt lat="57.215019" lon="9.557399">
<ele>22.751823</ele>
<time>2026-07-16T10:02:18.000Z</time>
</trkpt>
<trkpt lat="57.215042" lon="9.557484">
<ele>22.760628</ele>
<time>2026-07-16T10:02:19.000Z</time>
</trkpt>
<trkpt lat="57.215069" lon="9.557569">
<ele>22.769759</ele>
<time>2026-07-16T10:02:20.000Z</time>
</trkpt>
<trkpt lat="57.215092" lon="9.557654">
<ele>22.778564</ele>
<time>2026-07-16T10:02:21.000Z</time>
</trkpt>
<trkpt lat="57.215118" lon="9.557739">
<ele>22.787609</ele>
<time>2026-07-16T10:02:22.000Z</time>
</trkpt>
<trkpt lat="57.215145" lon="9.557823">
<ele>22.796661</ele>
<time>2026-07-16T10:02:23.000Z</time>
</trkpt>
<trkpt lat="57.215176" lon="9.557909">
<ele>22.806234</ele>
<time>2026-07-16T10:02:24.000Z</time>
</trkpt>
<trkpt lat="57.215202" lon="9.557996">
<ele>22.815441</ele>
<time>2026-07-16T10:02:25.000Z</time>
</trkpt>
<trkpt lat="57.215229" lon="9.558083">
<ele>22.824733</ele>
<time>2026-07-16T10:02:26.000Z</time>
</trkpt>
<trkpt lat="57.215260" lon="9.558169">
<ele>22.834306</ele>
<time>2026-07-16T10:02:27.000Z</time>
</trkpt>
<trkpt lat="57.215286" lon="9.558257">
<ele>22.843595</ele>
<time>2026-07-16T10:02:28.000Z</time>
</trkpt>
<trkpt lat="57.215313" lon="9.558345">
<ele>22.852967</ele>
<time>2026-07-16T10:02:29.000Z</time>
</trkpt>
<trkpt lat="57.215340" lon="9.558432">
<ele>22.862258</ele>
<time>2026-07-16T10:02:30.000Z</time>
</trkpt>
<trkpt lat="57.215366" lon="9.558520">
<ele>22.871547</ele>
<time>2026-07-16T10:02:31.000Z</time>
</trkpt>
<trkpt lat="57.215393" lon="9.558607">
<ele>22.880839</ele>
<time>2026-07-16T10:02:32.000Z</time>
</trkpt>
<trkpt lat="57.215420" lon="9.558696">
<ele>22.890291</ele>
<time>2026-07-16T10:02:33.000Z</time>
</trkpt>
<trkpt lat="57.215446" lon="9.558786">
<ele>22.899743</ele>
<time>2026-07-16T10:02:34.000Z</time>
</trkpt>
<trkpt lat="57.215477" lon="9.558876">
<ele>22.909627</ele>
<time>2026-07-16T10:02:35.000Z</time>
</trkpt>
<trkpt lat="57.215504" lon="9.558966">
<ele>22.918316</ele>
<time>2026-07-16T10:02:36.000Z</time>
</trkpt>
<trkpt lat="57.215530" lon="9.559052">
<ele>22.918185</ele>
<time>2026-07-16T10:02:37.000Z</time>
</trkpt>
<trkpt lat="57.215557" lon="9.559139">
<ele>22.918052</ele>
<time>2026-07-16T10:02:38.000Z</time>
</trkpt>
<trkpt lat="57.215584" lon="9.559224">
<ele>22.917922</ele>
<time>2026-07-16T10:02:39.000Z</time>
</trkpt>
<trkpt lat="57.215611" lon="9.559311">
<ele>22.917789</ele>
<time>2026-07-16T10:02:40.000Z</time>
</trkpt>
<trkpt lat="57.215637" lon="9.559400">
<ele>22.917654</ele>
<time>2026-07-16T10:02:41.000Z</time>
</trkpt>
<trkpt lat="57.215664" lon="9.559489">
<ele>22.917519</ele>
<time>2026-07-16T10:02:42.000Z</time>
</trkpt>
<trkpt lat="57.215694" lon="9.559581">
<ele>22.917377</ele>
<time>2026-07-16T10:02:43.000Z</time>
</trkpt>
<trkpt lat="57.215721" lon="9.559674">
<ele>22.917237</ele>
<time>2026-07-16T10:02:44.000Z</time>
</trkpt>
<trkpt lat="57.215748" lon="9.559768">
<ele>22.917095</ele>
<time>2026-07-16T10:02:45.000Z</time>
</trkpt>
<trkpt lat="57.215775" lon="9.559859">
<ele>22.916958</ele>
<time>2026-07-16T10:02:46.000Z</time>
</trkpt>
<trkpt lat="57.215805" lon="9.559952">
<ele>22.916814</ele>
<time>2026-07-16T10:02:47.000Z</time>
</trkpt>
<trkpt lat="57.215832" lon="9.560044">
<ele>22.916675</ele>
<time>2026-07-16T10:02:48.000Z</time>
</trkpt>
<trkpt lat="57.215862" lon="9.560138">
<ele>22.916530</ele>
<time>2026-07-16T10:02:49.000Z</time>
</trkpt>
<trkpt lat="57.215889" lon="9.560231">
<ele>22.916390</ele>
<time>2026-07-16T10:02:50.000Z</time>
</trkpt>
<trkpt lat="57.215919" lon="9.560325">
<ele>22.916246</ele>
<time>2026-07-16T10:02:51.000Z</time>
</trkpt>
<trkpt lat="57.215946" lon="9.560415">
<ele>22.916109</ele>
<time>2026-07-16T10:02:52.000Z</time>
</trkpt>
<trkpt lat="57.215973" lon="9.560505">
<ele>22.915973</ele>
<time>2026-07-16T10:02:53.000Z</time>
</trkpt>
<trkpt lat="57.216000" lon="9.560594">
<ele>22.915837</ele>
<time>2026-07-16T10:02:54.000Z</time>
</trkpt>
<trkpt lat="57.216026" lon="9.560681">
<ele>22.915705</ele>
<time>2026-07-16T10:02:55.000Z</time>
</trkpt>
<trkpt lat="57.216053" lon="9.560765">
<ele>22.915576</ele>
<time>2026-07-16T10:02:56.000Z</time>
</trkpt>
<trkpt lat="57.216080" lon="9.560847">
<ele>22.915449</ele>
<time>2026-07-16T10:02:57.000Z</time>
</trkpt>
<trkpt lat="57.216106" lon="9.560931">
<ele>22.915320</ele>
<time>2026-07-16T10:02:58.000Z</time>
</trkpt>
<trkpt lat="57.216129" lon="9.561018">
<ele>22.915192</ele>
<time>2026-07-16T10:02:59.000Z</time>
</trkpt>
<trkpt lat="57.216156" lon="9.561106">
<ele>22.915058</ele>
<time>2026-07-16T10:03:00.000Z</time>
</trkpt>
<trkpt lat="57.216183" lon="9.561194">
<ele>22.914923</ele>
<time>2026-07-16T10:03:01.000Z</time>
</trkpt>
<trkpt lat="57.216209" lon="9.561283">
<ele>22.914789</ele>
<time>2026-07-16T10:03:02.000Z</time>
</trkpt>
<trkpt lat="57.216236" lon="9.561372">
<ele>22.914654</ele>
<time>2026-07-16T10:03:03.000Z</time>
</trkpt>
<trkpt lat="57.216263" lon="9.561460">
<ele>22.914520</ele>
<time>2026-07-16T10:03:04.000Z</time>
</trkpt>
<trkpt lat="57.216290" lon="9.561552">
<ele>22.914381</ele>
<time>2026-07-16T10:03:05.000Z</time>
</trkpt>
<trkpt lat="57.216316" lon="9.561643">
<ele>22.914244</ele>
<time>2026-07-16T10:03:06.000Z</time>
</trkpt>
<trkpt lat="57.216343" lon="9.561728">
<ele>22.914113</ele>
<time>2026-07-16T10:03:07.000Z</time>
</trkpt>
<trkpt lat="57.216373" lon="9.561809">
<ele>22.913983</ele>
<time>2026-07-16T10:03:08.000Z</time>
</trkpt>
<trkpt lat="57.216400" lon="9.561891">
<ele>22.916578</ele>
<time>2026-07-16T10:03:09.000Z</time>
</trkpt>
<trkpt lat="57.216431" lon="9.561979">
<ele>22.922285</ele>
<time>2026-07-16T10:03:10.000Z</time>
</trkpt>
<trkpt lat="57.216457" lon="9.562065">
<ele>22.927639</ele>
<time>2026-07-16T10:03:11.000Z</time>
</trkpt>
<trkpt lat="57.216484" lon="9.562152">
<ele>22.933091</ele>
<time>2026-07-16T10:03:12.000Z</time>
</trkpt>
<trkpt lat="57.216515" lon="9.562239">
<ele>22.938752</ele>
<time>2026-07-16T10:03:13.000Z</time>
</trkpt>
<trkpt lat="57.216541" lon="9.562329">
<ele>22.944297</ele>
<time>2026-07-16T10:03:14.000Z</time>
</trkpt>
<trkpt lat="57.216568" lon="9.562418">
<ele>22.949843</ele>
<time>2026-07-16T10:03:15.000Z</time>
</trkpt>
<trkpt lat="57.216595" lon="9.562508">
<ele>22.955436</ele>
<time>2026-07-16T10:03:16.000Z</time>
</trkpt>
<trkpt lat="57.216625" lon="9.562594">
<ele>22.960998</ele>
<time>2026-07-16T10:03:17.000Z</time>
</trkpt>
<trkpt lat="57.216652" lon="9.562682">
<ele>22.966496</ele>
<time>2026-07-16T10:03:18.000Z</time>
</trkpt>
<trkpt lat="57.216682" lon="9.562769">
<ele>22.972103</ele>
<time>2026-07-16T10:03:19.000Z</time>
</trkpt>
<trkpt lat="57.216709" lon="9.562861">
<ele>22.977792</ele>
<time>2026-07-16T10:03:20.000Z</time>
</trkpt>
<trkpt lat="57.216740" lon="9.562955">
<ele>22.983775</ele>
<time>2026-07-16T10:03:21.000Z</time>
</trkpt>
<trkpt lat="57.216766" lon="9.563045">
<ele>22.989320</ele>
<time>2026-07-16T10:03:22.000Z</time>
</trkpt>
<trkpt lat="57.216797" lon="9.563131">
<ele>22.994936</ele>
<time>2026-07-16T10:03:23.000Z</time>
</trkpt>
<trkpt lat="57.216827" lon="9.563217">
<ele>23.000498</ele>
<time>2026-07-16T10:03:24.000Z</time>
</trkpt>
<trkpt lat="57.216858" lon="9.563308">
<ele>23.006342</ele>
<time>2026-07-16T10:03:25.000Z</time>
</trkpt>
<trkpt lat="57.216885" lon="9.563396">
<ele>23.011840</ele>
<time>2026-07-16T10:03:26.000Z</time>
</trkpt>
<trkpt lat="57.216911" lon="9.563483">
<ele>23.017242</ele>
<time>2026-07-16T10:03:27.000Z</time>
</trkpt>
<trkpt lat="57.216942" lon="9.563581">
<ele>23.023412</ele>
<time>2026-07-16T10:03:28.000Z</time>
</trkpt>
<trkpt lat="57.216969" lon="9.563676">
<ele>23.029245</ele>
<time>2026-07-16T10:03:29.000Z</time>
</trkpt>
<trkpt lat="57.216995" lon="9.563765">
<ele>23.034742</ele>
<time>2026-07-16T10:03:30.000Z</time>
</trkpt>
<trkpt lat="57.217022" lon="9.563848">
<ele>23.040006</ele>
<time>2026-07-16T10:03:31.000Z</time>
</trkpt>
<trkpt lat="57.217049" lon="9.563933">
<ele>23.045363</ele>
<time>2026-07-16T10:03:32.000Z</time>
</trkpt>
<trkpt lat="57.217079" lon="9.564020">
<ele>23.050970</ele>
<time>2026-07-16T10:03:33.000Z</time>
</trkpt>
<trkpt lat="57.217106" lon="9.564111">
<ele>23.056610</ele>
<time>2026-07-16T10:03:34.000Z</time>
</trkpt>
<trkpt lat="57.217133" lon="9.564199">
<ele>23.062109</ele>
<time>2026-07-16T10:03:35.000Z</time>
</trkpt>
<trkpt lat="57.217155" lon="9.564291">
<ele>23.067576</ele>
<time>2026-07-16T10:03:36.000Z</time>
</trkpt>
<trkpt lat="57.217178" lon="9.564382">
<ele>23.073035</ele>
<time>2026-07-16T10:03:37.000Z</time>
</trkpt>
<trkpt lat="57.217197" lon="9.564485">
<ele>23.078950</ele>
<time>2026-07-16T10:03:38.000Z</time>
</trkpt>
<trkpt lat="57.217216" lon="9.564585">
<ele>23.084711</ele>
<time>2026-07-16T10:03:39.000Z</time>
</trkpt>
<trkpt lat="57.217239" lon="9.564681">
<ele>23.090418</ele>
<time>2026-07-16T10:03:40.000Z</time>
</trkpt>
<trkpt lat="57.217266" lon="9.564772">
<ele>23.099307</ele>
<time>2026-07-16T10:03:41.000Z</time>
</trkpt>
<trkpt lat="57.217289" lon="9.564858">
<ele>23.115374</ele>
<time>2026-07-16T10:03:42.000Z</time>
</trkpt>
<trkpt lat="57.217308" lon="9.564938">
<ele>23.130007</ele>
<time>2026-07-16T10:03:43.000Z</time>
</trkpt>
<trkpt lat="57.217331" lon="9.565013">
<ele>23.144445</ele>
<time>2026-07-16T10:03:44.000Z</time>
</trkpt>
<trkpt lat="57.217358" lon="9.565076">
<ele>23.157903</ele>
<time>2026-07-16T10:03:45.000Z</time>
</trkpt>
<trkpt lat="57.217396" lon="9.565119">
<ele>23.171690</ele>
<time>2026-07-16T10:03:46.000Z</time>
</trkpt>
<trkpt lat="57.217434" lon="9.565140">
<ele>23.183961</ele>
<time>2026-07-16T10:03:47.000Z</time>
</trkpt>
<trkpt lat="57.217472" lon="9.565145">
<ele>23.195746</ele>
<time>2026-07-16T10:03:48.000Z</time>
</trkpt>
<trkpt lat="57.217510" lon="9.565144">
<ele>23.207503</ele>
<time>2026-07-16T10:03:49.000Z</time>
</trkpt>
<trkpt lat="57.217541" lon="9.565139">
<ele>23.217130</ele>
<time>2026-07-16T10:03:50.000Z</time>
</trkpt>
<trkpt lat="57.217571" lon="9.565137">
<ele>23.226417</ele>
<time>2026-07-16T10:03:51.000Z</time>
</trkpt>
<trkpt lat="57.217609" lon="9.565147">
<ele>23.238291</ele>
<time>2026-07-16T10:03:52.000Z</time>
</trkpt>
<trkpt lat="57.217651" lon="9.565160">
<ele>23.251466</ele>
<time>2026-07-16T10:03:53.000Z</time>
</trkpt>
<trkpt lat="57.217686" lon="9.565180">
<ele>23.262800</ele>
<time>2026-07-16T10:03:54.000Z</time>
</trkpt>
<trkpt lat="57.217731" lon="9.565213">
<ele>23.277778</ele>
<time>2026-07-16T10:03:55.000Z</time>
</trkpt>
<trkpt lat="57.217773" lon="9.565256">
<ele>23.292634</ele>
<time>2026-07-16T10:03:56.000Z</time>
</trkpt>
<trkpt lat="57.217815" lon="9.565304">
<ele>23.307914</ele>
<time>2026-07-16T10:03:57.000Z</time>
</trkpt>
<trkpt lat="57.217854" lon="9.565358">
<ele>23.322993</ele>
<time>2026-07-16T10:03:58.000Z</time>
</trkpt>
<trkpt lat="57.217892" lon="9.565410">
<ele>23.337624</ele>
<time>2026-07-16T10:03:59.000Z</time>
</trkpt>
<trkpt lat="57.217926" lon="9.565465">
<ele>23.351606</ele>
<time>2026-07-16T10:04:00.000Z</time>
</trkpt>
<trkpt lat="57.217960" lon="9.565523">
<ele>23.365925</ele>
<time>2026-07-16T10:04:01.000Z</time>
</trkpt>
<trkpt lat="57.217991" lon="9.565576">
<ele>23.378993</ele>
<time>2026-07-16T10:04:02.000Z</time>
</trkpt>
<trkpt lat="57.218029" lon="9.565630">
<ele>23.393826</ele>
<time>2026-07-16T10:04:03.000Z</time>
</trkpt>
<trkpt lat="57.218063" lon="9.565683">
<ele>23.407590</ele>
<time>2026-07-16T10:04:04.000Z</time>
</trkpt>
<trkpt lat="57.218102" lon="9.565739">
<ele>23.422872</ele>
<time>2026-07-16T10:04:05.000Z</time>
</trkpt>
<trkpt lat="57.218140" lon="9.565794">
<ele>23.437808</ele>
<time>2026-07-16T10:04:06.000Z</time>
</trkpt>
<trkpt lat="57.218178" lon="9.565855">
<ele>23.453383</ele>
<time>2026-07-16T10:04:07.000Z</time>
</trkpt>
<trkpt lat="57.218216" lon="9.565909">
<ele>23.468216</ele>
<time>2026-07-16T10:04:08.000Z</time>
</trkpt>
<trkpt lat="57.218258" lon="9.565970">
<ele>23.484746</ele>
<time>2026-07-16T10:04:09.000Z</time>
</trkpt>
<trkpt lat="57.218296" lon="9.566030">
<ele>23.500212</ele>
<time>2026-07-16T10:04:10.000Z</time>
</trkpt>
<trkpt lat="57.218330" lon="9.566089">
<ele>23.514644</ele>
<time>2026-07-16T10:04:11.000Z</time>
</trkpt>
<trkpt lat="57.218365" lon="9.566143">
<ele>23.528753</ele>
<time>2026-07-16T10:04:12.000Z</time>
</trkpt>
<trkpt lat="57.218403" lon="9.566201">
<ele>23.544003</ele>
<time>2026-07-16T10:04:13.000Z</time>
</trkpt>
<trkpt lat="57.218445" lon="9.566260">
<ele>23.560328</ele>
<time>2026-07-16T10:04:14.000Z</time>
</trkpt>
<trkpt lat="57.218483" lon="9.566326">
<ele>23.576465</ele>
<time>2026-07-16T10:04:15.000Z</time>
</trkpt>
<trkpt lat="57.218521" lon="9.566390">
<ele>23.592375</ele>
<time>2026-07-16T10:04:16.000Z</time>
</trkpt>
<trkpt lat="57.218555" lon="9.566461">
<ele>23.608251</ele>
<time>2026-07-16T10:04:17.000Z</time>
</trkpt>
<trkpt lat="57.218590" lon="9.566536">
<ele>23.624836</ele>
<time>2026-07-16T10:04:18.000Z</time>
</trkpt>
<trkpt lat="57.218620" lon="9.566616">
<ele>23.641136</ele>
<time>2026-07-16T10:04:19.000Z</time>
</trkpt>
<trkpt lat="57.218647" lon="9.566695">
<ele>23.655926</ele>
<time>2026-07-16T10:04:20.000Z</time>
</trkpt>
<trkpt lat="57.218674" lon="9.566771">
<ele>23.668919</ele>
<time>2026-07-16T10:04:21.000Z</time>
</trkpt>
<trkpt lat="57.218693" lon="9.566847">
<ele>23.680885</ele>
<time>2026-07-16T10:04:22.000Z</time>
</trkpt>
<trkpt lat="57.218712" lon="9.566929">
<ele>23.693634</ele>
<time>2026-07-16T10:04:23.000Z</time>
</trkpt>
<trkpt lat="57.218731" lon="9.567012">
<ele>23.706515</ele>
<time>2026-07-16T10:04:24.000Z</time>
</trkpt>
<trkpt lat="57.218750" lon="9.567096">
<ele>23.719527</ele>
<time>2026-07-16T10:04:25.000Z</time>
</trkpt>
<trkpt lat="57.218765" lon="9.567179">
<ele>23.732035</ele>
<time>2026-07-16T10:04:26.000Z</time>
</trkpt>
<trkpt lat="57.218777" lon="9.567262">
<ele>23.744314</ele>
<time>2026-07-16T10:04:27.000Z</time>
</trkpt>
<trkpt lat="57.218788" lon="9.567345">
<ele>23.756528</ele>
<time>2026-07-16T10:04:28.000Z</time>
</trkpt>
<trkpt lat="57.218803" lon="9.567427">
<ele>23.768900</ele>
<time>2026-07-16T10:04:29.000Z</time>
</trkpt>
<trkpt lat="57.218811" lon="9.567508">
<ele>23.780669</ele>
<time>2026-07-16T10:04:30.000Z</time>
</trkpt>
<trkpt lat="57.218822" lon="9.567587">
<ele>23.792329</ele>
<time>2026-07-16T10:04:31.000Z</time>
</trkpt>
<trkpt lat="57.218830" lon="9.567663">
<ele>23.803396</ele>
<time>2026-07-16T10:04:32.000Z</time>
</trkpt>
<trkpt lat="57.218842" lon="9.567739">
<ele>23.814712</ele>
<time>2026-07-16T10:04:33.000Z</time>
</trkpt>
<trkpt lat="57.218853" lon="9.567818">
<ele>23.826371</ele>
<time>2026-07-16T10:04:34.000Z</time>
</trkpt>
<trkpt lat="57.218864" lon="9.567897">
<ele>23.838031</ele>
<time>2026-07-16T10:04:35.000Z</time>
</trkpt>
<trkpt lat="57.218880" lon="9.567981">
<ele>23.850759</ele>
<time>2026-07-16T10:04:36.000Z</time>
</trkpt>
<trkpt lat="57.218891" lon="9.568064">
<ele>23.862973</ele>
<time>2026-07-16T10:04:37.000Z</time>
</trkpt>
<trkpt lat="57.218906" lon="9.568148">
<ele>23.875616</ele>
<time>2026-07-16T10:04:38.000Z</time>
</trkpt>
<trkpt lat="57.218918" lon="9.568233">
<ele>23.888172</ele>
<time>2026-07-16T10:04:39.000Z</time>
</trkpt>
<trkpt lat="57.218925" lon="9.568317">
<ele>23.900320</ele>
<time>2026-07-16T10:04:40.000Z</time>
</trkpt>
<trkpt lat="57.218937" lon="9.568403">
<ele>23.913015</ele>
<time>2026-07-16T10:04:41.000Z</time>
</trkpt>
<trkpt lat="57.218952" lon="9.568489">
<ele>23.925930</ele>
<time>2026-07-16T10:04:42.000Z</time>
</trkpt>
<trkpt lat="57.218964" lon="9.568574">
<ele>23.938486</ele>
<time>2026-07-16T10:04:43.000Z</time>
</trkpt>
<trkpt lat="57.218979" lon="9.568658">
<ele>23.951129</ele>
<time>2026-07-16T10:04:44.000Z</time>
</trkpt>
<trkpt lat="57.218994" lon="9.568733">
<ele>23.962557</ele>
<time>2026-07-16T10:04:45.000Z</time>
</trkpt>
<trkpt lat="57.219009" lon="9.568801">
<ele>23.973053</ele>
<time>2026-07-16T10:04:46.000Z</time>
</trkpt>
<trkpt lat="57.219021" lon="9.568871">
<ele>23.983548</ele>
<time>2026-07-16T10:04:47.000Z</time>
</trkpt>
<trkpt lat="57.219036" lon="9.568939">
<ele>23.994043</ele>
<time>2026-07-16T10:04:48.000Z</time>
</trkpt>
<trkpt lat="57.219055" lon="9.569013">
<ele>24.005750</ele>
<time>2026-07-16T10:04:49.000Z</time>
</trkpt>
<trkpt lat="57.219070" lon="9.569090">
<ele>24.017447</ele>
<time>2026-07-16T10:04:50.000Z</time>
</trkpt>
<trkpt lat="57.219086" lon="9.569165">
<ele>24.028969</ele>
<time>2026-07-16T10:04:51.000Z</time>
</trkpt>
<trkpt lat="57.219101" lon="9.569244">
<ele>24.040936</ele>
<time>2026-07-16T10:04:52.000Z</time>
</trkpt>
<trkpt lat="57.219112" lon="9.569322">
<ele>24.052457</ele>
<time>2026-07-16T10:04:53.000Z</time>
</trkpt>
<trkpt lat="57.219124" lon="9.569400">
<ele>24.064047</ele>
<time>2026-07-16T10:04:54.000Z</time>
</trkpt>
<trkpt lat="57.219135" lon="9.569482">
<ele>24.076123</ele>
<time>2026-07-16T10:04:55.000Z</time>
</trkpt>
<trkpt lat="57.219147" lon="9.569571">
<ele>24.089233</ele>
<time>2026-07-16T10:04:56.000Z</time>
</trkpt>
<trkpt lat="57.219158" lon="9.569665">
<ele>24.102979</ele>
<time>2026-07-16T10:04:57.000Z</time>
</trkpt>
<trkpt lat="57.219173" lon="9.569752">
<ele>24.116030</ele>
<time>2026-07-16T10:04:58.000Z</time>
</trkpt>
<trkpt lat="57.219193" lon="9.569838">
<ele>24.129963</ele>
<time>2026-07-16T10:04:59.000Z</time>
</trkpt>
<trkpt lat="57.219204" lon="9.569919">
<ele>24.143719</ele>
<time>2026-07-16T10:05:00.000Z</time>
</trkpt>
<trkpt lat="57.219219" lon="9.570006">
<ele>24.158760</ele>
<time>2026-07-16T10:05:01.000Z</time>
</trkpt>
<trkpt lat="57.219231" lon="9.570095">
<ele>24.173869</ele>
<time>2026-07-16T10:05:02.000Z</time>
</trkpt>
<trkpt lat="57.219238" lon="9.570185">
<ele>24.188847</ele>
<time>2026-07-16T10:05:03.000Z</time>
</trkpt>
<trkpt lat="57.219254" lon="9.570275">
<ele>24.204452</ele>
<time>2026-07-16T10:05:04.000Z</time>
</trkpt>
<trkpt lat="57.219269" lon="9.570360">
<ele>24.219179</ele>
<time>2026-07-16T10:05:05.000Z</time>
</trkpt>
<trkpt lat="57.219288" lon="9.570444">
<ele>24.234175</ele>
<time>2026-07-16T10:05:06.000Z</time>
</trkpt>
<trkpt lat="57.219307" lon="9.570529">
<ele>24.249324</ele>
<time>2026-07-16T10:05:07.000Z</time>
</trkpt>
<trkpt lat="57.219322" lon="9.570612">
<ele>24.263738</ele>
<time>2026-07-16T10:05:08.000Z</time>
</trkpt>
<trkpt lat="57.219337" lon="9.570694">
<ele>24.277997</ele>
<time>2026-07-16T10:05:09.000Z</time>
</trkpt>
<trkpt lat="57.219349" lon="9.570779">
<ele>24.292467</ele>
<time>2026-07-16T10:05:10.000Z</time>
</trkpt>
<trkpt lat="57.219360" lon="9.570868">
<ele>24.307505</ele>
<time>2026-07-16T10:05:11.000Z</time>
</trkpt>
<trkpt lat="57.219372" lon="9.570956">
<ele>24.322454</ele>
<time>2026-07-16T10:05:12.000Z</time>
</trkpt>
<trkpt lat="57.219387" lon="9.571048">
<ele>24.338282</ele>
<time>2026-07-16T10:05:13.000Z</time>
</trkpt>
<trkpt lat="57.219402" lon="9.571136">
<ele>24.353480</ele>
<time>2026-07-16T10:05:14.000Z</time>
</trkpt>
<trkpt lat="57.219418" lon="9.571224">
<ele>24.368772</ele>
<time>2026-07-16T10:05:15.000Z</time>
</trkpt>
<trkpt lat="57.219433" lon="9.571314">
<ele>24.384284</ele>
<time>2026-07-16T10:05:16.000Z</time>
</trkpt>
<trkpt lat="57.219452" lon="9.571403">
<ele>24.400044</ele>
<time>2026-07-16T10:05:17.000Z</time>
</trkpt>
<trkpt lat="57.219467" lon="9.571488">
<ele>24.414771</ele>
<time>2026-07-16T10:05:18.000Z</time>
</trkpt>
<trkpt lat="57.219475" lon="9.571576">
<ele>24.429470</ele>
<time>2026-07-16T10:05:19.000Z</time>
</trkpt>
<trkpt lat="57.219490" lon="9.571664">
<ele>24.444668</ele>
<time>2026-07-16T10:05:20.000Z</time>
</trkpt>
<trkpt lat="57.219498" lon="9.571756">
<ele>24.460017</ele>
<time>2026-07-16T10:05:21.000Z</time>
</trkpt>
<trkpt lat="57.219505" lon="9.571855">
<ele>24.476464</ele>
<time>2026-07-16T10:05:22.000Z</time>
</trkpt>
<trkpt lat="57.219517" lon="9.571949">
<ele>24.492373</ele>
<time>2026-07-16T10:05:23.000Z</time>
</trkpt>
<trkpt lat="57.219524" lon="9.572053">
<ele>24.509637</ele>
<time>2026-07-16T10:05:24.000Z</time>
</trkpt>
<trkpt lat="57.219536" lon="9.572153">
<ele>24.526510</ele>
<time>2026-07-16T10:05:25.000Z</time>
</trkpt>
<trkpt lat="57.219543" lon="9.572247">
<ele>24.542141</ele>
<time>2026-07-16T10:05:26.000Z</time>
</trkpt>
<trkpt lat="57.219555" lon="9.572337">
<ele>24.557409</ele>
<time>2026-07-16T10:05:27.000Z</time>
</trkpt>
<trkpt lat="57.219570" lon="9.572420">
<ele>24.571824</ele>
<time>2026-07-16T10:05:28.000Z</time>
</trkpt>
<trkpt lat="57.219582" lon="9.572509">
<ele>24.586932</ele>
<time>2026-07-16T10:05:29.000Z</time>
</trkpt>
<trkpt lat="57.219597" lon="9.572595">
<ele>24.601816</ele>
<time>2026-07-16T10:05:30.000Z</time>
</trkpt>
<trkpt lat="57.219612" lon="9.572684">
<ele>24.617171</ele>
<time>2026-07-16T10:05:31.000Z</time>
</trkpt>
<trkpt lat="57.219624" lon="9.572775">
<ele>24.632600</ele>
<time>2026-07-16T10:05:32.000Z</time>
</trkpt>
<trkpt lat="57.219635" lon="9.572862">
<ele>24.647317</ele>
<time>2026-07-16T10:05:33.000Z</time>
</trkpt>
<trkpt lat="57.219646" lon="9.572944">
<ele>24.661233</ele>
<time>2026-07-16T10:05:34.000Z</time>
</trkpt>
<trkpt lat="57.219665" lon="9.573030">
<ele>24.672954</ele>
<time>2026-07-16T10:05:35.000Z</time>
</trkpt>
<trkpt lat="57.219677" lon="9.573112">
<ele>24.672679</ele>
<time>2026-07-16T10:05:36.000Z</time>
</trkpt>
<trkpt lat="57.219688" lon="9.573204">
<ele>24.672375</ele>
<time>2026-07-16T10:05:37.000Z</time>
</trkpt>
<trkpt lat="57.219704" lon="9.573298">
<ele>24.672057</ele>
<time>2026-07-16T10:05:38.000Z</time>
</trkpt>
<trkpt lat="57.219715" lon="9.573384">
<ele>24.671771</ele>
<time>2026-07-16T10:05:39.000Z</time>
</trkpt>
<trkpt lat="57.219727" lon="9.573478">
<ele>24.671460</ele>
<time>2026-07-16T10:05:40.000Z</time>
</trkpt>
<trkpt lat="57.219742" lon="9.573573">
<ele>24.671140</ele>
<time>2026-07-16T10:05:41.000Z</time>
</trkpt>
<trkpt lat="57.219757" lon="9.573663">
<ele>24.670836</ele>
<time>2026-07-16T10:05:42.000Z</time>
</trkpt>
<trkpt lat="57.219772" lon="9.573752">
<ele>24.670535</ele>
<time>2026-07-16T10:05:43.000Z</time>
</trkpt>
<trkpt lat="57.219784" lon="9.573837">
<ele>24.670251</ele>
<time>2026-07-16T10:05:44.000Z</time>
</trkpt>
<trkpt lat="57.219799" lon="9.573918">
<ele>24.669975</ele>
<time>2026-07-16T10:05:45.000Z</time>
</trkpt>
<trkpt lat="57.219814" lon="9.573991">
<ele>24.669722</ele>
<time>2026-07-16T10:05:46.000Z</time>
</trkpt>
<trkpt lat="57.219826" lon="9.574063">
<ele>24.669479</ele>
<time>2026-07-16T10:05:47.000Z</time>
</trkpt>
<trkpt lat="57.219837" lon="9.574136">
<ele>24.669234</ele>
<time>2026-07-16T10:05:48.000Z</time>
</trkpt>
<trkpt lat="57.219845" lon="9.574203">
<ele>24.669013</ele>
<time>2026-07-16T10:05:49.000Z</time>
</trkpt>
<trkpt lat="57.219852" lon="9.574261">
<ele>24.668821</ele>
<time>2026-07-16T10:05:50.000Z</time>
</trkpt>
<trkpt lat="57.219856" lon="9.574333">
<ele>24.668587</ele>
<time>2026-07-16T10:05:51.000Z</time>
</trkpt>
<trkpt lat="57.219860" lon="9.574401">
<ele>24.668366</ele>
<time>2026-07-16T10:05:52.000Z</time>
</trkpt>
<trkpt lat="57.219849" lon="9.574472">
<ele>24.668128</ele>
<time>2026-07-16T10:05:53.000Z</time>
</trkpt>
<trkpt lat="57.219833" lon="9.574553">
<ele>24.667849</ele>
<time>2026-07-16T10:05:54.000Z</time>
</trkpt>
<trkpt lat="57.219818" lon="9.574632">
<ele>24.667579</ele>
<time>2026-07-16T10:05:55.000Z</time>
</trkpt>
<trkpt lat="57.219799" lon="9.574714">
<ele>24.667291</ele>
<time>2026-07-16T10:05:56.000Z</time>
</trkpt>
<trkpt lat="57.219784" lon="9.574796">
<ele>24.667011</ele>
<time>2026-07-16T10:05:57.000Z</time>
</trkpt>
<trkpt lat="57.219761" lon="9.574871">
<ele>24.666733</ele>
<time>2026-07-16T10:05:58.000Z</time>
</trkpt>
<trkpt lat="57.219734" lon="9.574933">
<ele>24.666476</ele>
<time>2026-07-16T10:05:59.000Z</time>
</trkpt>
<trkpt lat="57.219715" lon="9.574980">
<ele>24.666287</ele>
<time>2026-07-16T10:06:00.000Z</time>
</trkpt>
<trkpt lat="57.219696" lon="9.575013">
<ele>24.666131</ele>
<time>2026-07-16T10:06:01.000Z</time>
</trkpt>
<trkpt lat="57.219685" lon="9.575043">
<ele>24.666014</ele>
<time>2026-07-16T10:06:02.000Z</time>
</trkpt>
<trkpt lat="57.219673" lon="9.575072">
<ele>24.665896</ele>
<time>2026-07-16T10:06:03.000Z</time>
</trkpt>
<trkpt lat="57.219662" lon="9.575110">
<ele>24.665757</ele>
<time>2026-07-16T10:06:04.000Z</time>
</trkpt>
<trkpt lat="57.219658" lon="9.575152">
<ele>24.665619</ele>
<time>2026-07-16T10:06:05.000Z</time>
</trkpt>
<trkpt lat="57.219662" lon="9.575205">
<ele>24.665446</ele>
<time>2026-07-16T10:06:06.000Z</time>
</trkpt>
<trkpt lat="57.219677" lon="9.575263">
<ele>24.665239</ele>
<time>2026-07-16T10:06:07.000Z</time>
</trkpt>
<trkpt lat="57.219692" lon="9.575324">
<ele>24.665022</ele>
<time>2026-07-16T10:06:08.000Z</time>
</trkpt>
<trkpt lat="57.219711" lon="9.575391">
<ele>24.664778</ele>
<time>2026-07-16T10:06:09.000Z</time>
</trkpt>
<trkpt lat="57.219734" lon="9.575459">
<ele>24.664519</ele>
<time>2026-07-16T10:06:10.000Z</time>
</trkpt>
<trkpt lat="57.219753" lon="9.575535">
<ele>24.664249</ele>
<time>2026-07-16T10:06:11.000Z</time>
</trkpt>
<trkpt lat="57.219772" lon="9.575615">
<ele>24.663967</ele>
<time>2026-07-16T10:06:12.000Z</time>
</trkpt>
<trkpt lat="57.219795" lon="9.575697">
<ele>24.663669</ele>
<time>2026-07-16T10:06:13.000Z</time>
</trkpt>
<trkpt lat="57.219814" lon="9.575787">
<ele>24.663357</ele>
<time>2026-07-16T10:06:14.000Z</time>
</trkpt>
<trkpt lat="57.219837" lon="9.575876">
<ele>24.663038</ele>
<time>2026-07-16T10:06:15.000Z</time>
</trkpt>
<trkpt lat="57.219856" lon="9.575969">
<ele>24.662717</ele>
<time>2026-07-16T10:06:16.000Z</time>
</trkpt>
<trkpt lat="57.219875" lon="9.576063">
<ele>24.662393</ele>
<time>2026-07-16T10:06:17.000Z</time>
</trkpt>
<trkpt lat="57.219894" lon="9.576157">
<ele>24.653434</ele>
<time>2026-07-16T10:06:18.000Z</time>
</trkpt>
<trkpt lat="57.219914" lon="9.576253">
<ele>24.640331</ele>
<time>2026-07-16T10:06:19.000Z</time>
</trkpt>
<trkpt lat="57.219933" lon="9.576348">
<ele>24.627431</ele>
<time>2026-07-16T10:06:20.000Z</time>
</trkpt>
<trkpt lat="57.219952" lon="9.576440">
<ele>24.614889</ele>
<time>2026-07-16T10:06:21.000Z</time>
</trkpt>
<trkpt lat="57.219967" lon="9.576533">
<ele>24.602528</ele>
<time>2026-07-16T10:06:22.000Z</time>
</trkpt>
<trkpt lat="57.219982" lon="9.576628">
<ele>24.589923</ele>
<time>2026-07-16T10:06:23.000Z</time>
</trkpt>
<trkpt lat="57.219997" lon="9.576723">
<ele>24.577318</ele>
<time>2026-07-16T10:06:24.000Z</time>
</trkpt>
<trkpt lat="57.220013" lon="9.576817">
<ele>24.564767</ele>
<time>2026-07-16T10:06:25.000Z</time>
</trkpt>
<trkpt lat="57.220024" lon="9.576909">
<ele>24.552766</ele>
<time>2026-07-16T10:06:26.000Z</time>
</trkpt>
<trkpt lat="57.220039" lon="9.576998">
<ele>24.540893</ele>
<time>2026-07-16T10:06:27.000Z</time>
</trkpt>
<trkpt lat="57.220055" lon="9.577082">
<ele>24.529550</ele>
<time>2026-07-16T10:06:28.000Z</time>
</trkpt>
<trkpt lat="57.220074" lon="9.577155">
<ele>24.519233</ele>
<time>2026-07-16T10:06:29.000Z</time>
</trkpt>
<trkpt lat="57.220100" lon="9.577211">
<ele>24.509836</ele>
<time>2026-07-16T10:06:30.000Z</time>
</trkpt>
<trkpt lat="57.220135" lon="9.577239">
<ele>24.500863</ele>
<time>2026-07-16T10:06:31.000Z</time>
</trkpt>
<trkpt lat="57.220169" lon="9.577236">
<ele>24.492855</ele>
<time>2026-07-16T10:06:32.000Z</time>
</trkpt>
<trkpt lat="57.220203" lon="9.577219">
<ele>24.484568</ele>
<time>2026-07-16T10:06:33.000Z</time>
</trkpt>
<trkpt lat="57.220238" lon="9.577194">
<ele>24.475739</ele>
<time>2026-07-16T10:06:34.000Z</time>
</trkpt>
<trkpt lat="57.220276" lon="9.577159">
<ele>24.465749</ele>
<time>2026-07-16T10:06:35.000Z</time>
</trkpt>
<trkpt lat="57.220310" lon="9.577120">
<ele>24.456333</ele>
<time>2026-07-16T10:06:36.000Z</time>
</trkpt>
<trkpt lat="57.220345" lon="9.577078">
<ele>24.446513</ele>
<time>2026-07-16T10:06:37.000Z</time>
</trkpt>
<trkpt lat="57.220379" lon="9.577030">
<ele>24.436445</ele>
<time>2026-07-16T10:06:38.000Z</time>
</trkpt>
<trkpt lat="57.220409" lon="9.576983">
<ele>24.427190</ele>
<time>2026-07-16T10:06:39.000Z</time>
</trkpt>
<trkpt lat="57.220444" lon="9.576931">
<ele>24.416622</ele>
<time>2026-07-16T10:06:40.000Z</time>
</trkpt>
<trkpt lat="57.220467" lon="9.576884">
<ele>24.408552</ele>
<time>2026-07-16T10:06:41.000Z</time>
</trkpt>
<trkpt lat="57.220505" lon="9.576826">
<ele>24.396955</ele>
<time>2026-07-16T10:06:42.000Z</time>
</trkpt>
<trkpt lat="57.220539" lon="9.576772">
<ele>24.386405</ele>
<time>2026-07-16T10:06:43.000Z</time>
</trkpt>
<trkpt lat="57.220570" lon="9.576716">
<ele>24.376203</ele>
<time>2026-07-16T10:06:44.000Z</time>
</trkpt>
<trkpt lat="57.220608" lon="9.576664">
<ele>24.365077</ele>
<time>2026-07-16T10:06:45.000Z</time>
</trkpt>
<trkpt lat="57.220642" lon="9.576611">
<ele>24.354610</ele>
<time>2026-07-16T10:06:46.000Z</time>
</trkpt>
<trkpt lat="57.220676" lon="9.576553">
<ele>24.343721</ele>
<time>2026-07-16T10:06:47.000Z</time>
</trkpt>
<trkpt lat="57.220715" lon="9.576498">
<ele>24.332177</ele>
<time>2026-07-16T10:06:48.000Z</time>
</trkpt>
<trkpt lat="57.220749" lon="9.576444">
<ele>24.321627</ele>
<time>2026-07-16T10:06:49.000Z</time>
</trkpt>
<trkpt lat="57.220779" lon="9.576396">
<ele>24.312289</ele>
<time>2026-07-16T10:06:50.000Z</time>
</trkpt>
<trkpt lat="57.220810" lon="9.576351">
<ele>24.303013</ele>
<time>2026-07-16T10:06:51.000Z</time>
</trkpt>
<trkpt lat="57.220844" lon="9.576308">
<ele>24.293319</ele>
<time>2026-07-16T10:06:52.000Z</time>
</trkpt>
<trkpt lat="57.220875" lon="9.576266">
<ele>24.284274</ele>
<time>2026-07-16T10:06:53.000Z</time>
</trkpt>
<trkpt lat="57.220909" lon="9.576220">
<ele>24.274358</ele>
<time>2026-07-16T10:06:54.000Z</time>
</trkpt>
<trkpt lat="57.220940" lon="9.576169">
<ele>24.264591</ele>
<time>2026-07-16T10:06:55.000Z</time>
</trkpt>
<trkpt lat="57.220970" lon="9.576119">
<ele>24.255085</ele>
<time>2026-07-16T10:06:56.000Z</time>
</trkpt>
<trkpt lat="57.221001" lon="9.576071">
<ele>24.245568</ele>
<time>2026-07-16T10:06:57.000Z</time>
</trkpt>
<trkpt lat="57.221031" lon="9.576022">
<ele>24.239056</ele>
<time>2026-07-16T10:06:58.000Z</time>
</trkpt>
<trkpt lat="57.221062" lon="9.575975">
<ele>24.238817</ele>
<time>2026-07-16T10:06:59.000Z</time>
</trkpt>
<trkpt lat="57.221092" lon="9.575933">
<ele>24.238593</ele>
<time>2026-07-16T10:07:00.000Z</time>
</trkpt>
<trkpt lat="57.221123" lon="9.575892">
<ele>24.238367</ele>
<time>2026-07-16T10:07:01.000Z</time>
</trkpt>
<trkpt lat="57.221157" lon="9.575843">
<ele>24.238111</ele>
<time>2026-07-16T10:07:02.000Z</time>
</trkpt>
<trkpt lat="57.221184" lon="9.575794">
<ele>24.237886</ele>
<time>2026-07-16T10:07:03.000Z</time>
</trkpt>
<trkpt lat="57.221214" lon="9.575744">
<ele>24.237645</ele>
<time>2026-07-16T10:07:04.000Z</time>
</trkpt>
<trkpt lat="57.221241" lon="9.575697">
<ele>24.237425</ele>
<time>2026-07-16T10:07:05.000Z</time>
</trkpt>
<trkpt lat="57.221272" lon="9.575647">
<ele>24.237180</ele>
<time>2026-07-16T10:07:06.000Z</time>
</trkpt>
<trkpt lat="57.221306" lon="9.575596">
<ele>24.236920</ele>
<time>2026-07-16T10:07:07.000Z</time>
</trkpt>
<trkpt lat="57.221336" lon="9.575543">
<ele>24.236673</ele>
<time>2026-07-16T10:07:08.000Z</time>
</trkpt>
<trkpt lat="57.221371" lon="9.575493">
<ele>24.236410</ele>
<time>2026-07-16T10:07:09.000Z</time>
</trkpt>
<trkpt lat="57.221401" lon="9.575441">
<ele>24.236166</ele>
<time>2026-07-16T10:07:10.000Z</time>
</trkpt>
<trkpt lat="57.221436" lon="9.575387">
<ele>24.235895</ele>
<time>2026-07-16T10:07:11.000Z</time>
</trkpt>
<trkpt lat="57.221462" lon="9.575338">
<ele>24.235674</ele>
<time>2026-07-16T10:07:12.000Z</time>
</trkpt>
<trkpt lat="57.221504" lon="9.575278">
<ele>24.235358</ele>
<time>2026-07-16T10:07:13.000Z</time>
</trkpt>
<trkpt lat="57.221546" lon="9.575218">
<ele>24.235043</ele>
<time>2026-07-16T10:07:14.000Z</time>
</trkpt>
<trkpt lat="57.221584" lon="9.575155">
<ele>24.234739</ele>
<time>2026-07-16T10:07:15.000Z</time>
</trkpt>
<trkpt lat="57.221630" lon="9.575081">
<ele>24.234377</ele>
<time>2026-07-16T10:07:16.000Z</time>
</trkpt>
<trkpt lat="57.221676" lon="9.575014">
<ele>24.234029</ele>
<time>2026-07-16T10:07:17.000Z</time>
</trkpt>
<trkpt lat="57.221714" lon="9.574952">
<ele>24.233727</ele>
<time>2026-07-16T10:07:18.000Z</time>
</trkpt>
<trkpt lat="57.221752" lon="9.574886">
<ele>24.233417</ele>
<time>2026-07-16T10:07:19.000Z</time>
</trkpt>
<trkpt lat="57.221794" lon="9.574820">
<ele>24.233089</ele>
<time>2026-07-16T10:07:20.000Z</time>
</trkpt>
<trkpt lat="57.221836" lon="9.574756">
<ele>24.232766</ele>
<time>2026-07-16T10:07:21.000Z</time>
</trkpt>
<trkpt lat="57.221882" lon="9.574689">
<ele>24.232418</ele>
<time>2026-07-16T10:07:22.000Z</time>
</trkpt>
<trkpt lat="57.221924" lon="9.574624">
<ele>24.232092</ele>
<time>2026-07-16T10:07:23.000Z</time>
</trkpt>
<trkpt lat="57.221966" lon="9.574554">
<ele>24.231756</ele>
<time>2026-07-16T10:07:24.000Z</time>
</trkpt>
<trkpt lat="57.222008" lon="9.574484">
<ele>24.231420</ele>
<time>2026-07-16T10:07:25.000Z</time>
</trkpt>
<trkpt lat="57.222050" lon="9.574416">
<ele>24.231088</ele>
<time>2026-07-16T10:07:26.000Z</time>
</trkpt>
<trkpt lat="57.222088" lon="9.574350">
<ele>24.230778</ele>
<time>2026-07-16T10:07:27.000Z</time>
</trkpt>
<trkpt lat="57.222126" lon="9.574291">
<ele>24.230483</ele>
<time>2026-07-16T10:07:28.000Z</time>
</trkpt>
<trkpt lat="57.222164" lon="9.574230">
<ele>24.230183</ele>
<time>2026-07-16T10:07:29.000Z</time>
</trkpt>
<trkpt lat="57.222202" lon="9.574167">
<ele>24.229880</ele>
<time>2026-07-16T10:07:30.000Z</time>
</trkpt>
<trkpt lat="57.222237" lon="9.574106">
<ele>24.229594</ele>
<time>2026-07-16T10:07:31.000Z</time>
</trkpt>
<trkpt lat="57.222279" lon="9.574045">
<ele>24.229276</ele>
<time>2026-07-16T10:07:32.000Z</time>
</trkpt>
<trkpt lat="57.222317" lon="9.573985">
<ele>24.228979</ele>
<time>2026-07-16T10:07:33.000Z</time>
</trkpt>
<trkpt lat="57.222355" lon="9.573925">
<ele>24.228682</ele>
<time>2026-07-16T10:07:34.000Z</time>
</trkpt>
<trkpt lat="57.222389" lon="9.573868">
<ele>24.228203</ele>
<time>2026-07-16T10:07:35.000Z</time>
</trkpt>
<trkpt lat="57.222424" lon="9.573812">
<ele>24.226132</ele>
<time>2026-07-16T10:07:36.000Z</time>
</trkpt>
<trkpt lat="57.222462" lon="9.573754">
<ele>24.223928</ele>
<time>2026-07-16T10:07:37.000Z</time>
</trkpt>
<trkpt lat="57.222500" lon="9.573697">
<ele>24.221739</ele>
<time>2026-07-16T10:07:38.000Z</time>
</trkpt>
<trkpt lat="57.222538" lon="9.573638">
<ele>24.219519</ele>
<time>2026-07-16T10:07:39.000Z</time>
</trkpt>
<trkpt lat="57.222572" lon="9.573575">
<ele>24.217365</ele>
<time>2026-07-16T10:07:40.000Z</time>
</trkpt>
<trkpt lat="57.222607" lon="9.573513">
<ele>24.215196</ele>
<time>2026-07-16T10:07:41.000Z</time>
</trkpt>
<trkpt lat="57.222645" lon="9.573452">
<ele>24.212945</ele>
<time>2026-07-16T10:07:42.000Z</time>
</trkpt>
<trkpt lat="57.222687" lon="9.573392">
<ele>24.210571</ele>
<time>2026-07-16T10:07:43.000Z</time>
</trkpt>
<trkpt lat="57.222721" lon="9.573335">
<ele>24.208517</ele>
<time>2026-07-16T10:07:44.000Z</time>
</trkpt>
<trkpt lat="57.222763" lon="9.573277">
<ele>24.206172</ele>
<time>2026-07-16T10:07:45.000Z</time>
</trkpt>
<trkpt lat="57.222797" lon="9.573214">
<ele>24.204019</ele>
<time>2026-07-16T10:07:46.000Z</time>
</trkpt>
<trkpt lat="57.222839" lon="9.573149">
<ele>24.201568</ele>
<time>2026-07-16T10:07:47.000Z</time>
</trkpt>
<trkpt lat="57.222885" lon="9.573083">
<ele>24.198964</ele>
<time>2026-07-16T10:07:48.000Z</time>
</trkpt>
<trkpt lat="57.222927" lon="9.573022">
<ele>24.196574</ele>
<time>2026-07-16T10:07:49.000Z</time>
</trkpt>
<trkpt lat="57.222973" lon="9.572965">
<ele>24.194097</ele>
<time>2026-07-16T10:07:50.000Z</time>
</trkpt>
<trkpt lat="57.223015" lon="9.572908">
<ele>24.191767</ele>
<time>2026-07-16T10:07:51.000Z</time>
</trkpt>
<trkpt lat="57.223053" lon="9.572854">
<ele>24.189623</ele>
<time>2026-07-16T10:07:52.000Z</time>
</trkpt>
<trkpt lat="57.223091" lon="9.572797">
<ele>24.187434</ele>
<time>2026-07-16T10:07:53.000Z</time>
</trkpt>
<trkpt lat="57.223137" lon="9.572740">
<ele>24.184957</ele>
<time>2026-07-16T10:07:54.000Z</time>
</trkpt>
<trkpt lat="57.223183" lon="9.572680">
<ele>24.182438</ele>
<time>2026-07-16T10:07:55.000Z</time>
</trkpt>
<trkpt lat="57.223236" lon="9.572620">
<ele>24.179659</ele>
<time>2026-07-16T10:07:56.000Z</time>
</trkpt>
<trkpt lat="57.223278" lon="9.572560">
<ele>24.177284</ele>
<time>2026-07-16T10:07:57.000Z</time>
</trkpt>
<trkpt lat="57.223328" lon="9.572500">
<ele>24.174618</ele>
<time>2026-07-16T10:07:58.000Z</time>
</trkpt>
<trkpt lat="57.223377" lon="9.572437">
<ele>24.171948</ele>
<time>2026-07-16T10:07:59.000Z</time>
</trkpt>
<trkpt lat="57.223427" lon="9.572376">
<ele>24.169268</ele>
<time>2026-07-16T10:08:00.000Z</time>
</trkpt>
<trkpt lat="57.223469" lon="9.572312">
<ele>24.166834</ele>
<time>2026-07-16T10:08:01.000Z</time>
</trkpt>
<trkpt lat="57.223511" lon="9.572244">
<ele>24.164336</ele>
<time>2026-07-16T10:08:02.000Z</time>
</trkpt>
<trkpt lat="57.223553" lon="9.572176">
<ele>24.161839</ele>
<time>2026-07-16T10:08:03.000Z</time>
</trkpt>
<trkpt lat="57.223595" lon="9.572113">
<ele>24.159419</ele>
<time>2026-07-16T10:08:04.000Z</time>
</trkpt>
<trkpt lat="57.223637" lon="9.572046">
<ele>24.156937</ele>
<time>2026-07-16T10:08:05.000Z</time>
</trkpt>
<trkpt lat="57.223679" lon="9.571981">
<ele>24.154487</ele>
<time>2026-07-16T10:08:06.000Z</time>
</trkpt>
<trkpt lat="57.223721" lon="9.571913">
<ele>24.151990</ele>
<time>2026-07-16T10:08:07.000Z</time>
</trkpt>
<trkpt lat="57.223755" lon="9.571844">
<ele>24.149731</ele>
<time>2026-07-16T10:08:08.000Z</time>
</trkpt>
<trkpt lat="57.223793" lon="9.571773">
<ele>24.142178</ele>
<time>2026-07-16T10:08:09.000Z</time>
</trkpt>
<trkpt lat="57.223831" lon="9.571701">
<ele>24.121710</ele>
<time>2026-07-16T10:08:10.000Z</time>
</trkpt>
<trkpt lat="57.223873" lon="9.571631">
<ele>24.100441</ele>
<time>2026-07-16T10:08:11.000Z</time>
</trkpt>
<trkpt lat="57.223915" lon="9.571560">
<ele>24.079034</ele>
<time>2026-07-16T10:08:12.000Z</time>
</trkpt>
<trkpt lat="57.223957" lon="9.571488">
<ele>24.057490</ele>
<time>2026-07-16T10:08:13.000Z</time>
</trkpt>
<trkpt lat="57.223999" lon="9.571420">
<ele>24.036490</ele>
<time>2026-07-16T10:08:14.000Z</time>
</trkpt>
<trkpt lat="57.224045" lon="9.571349">
<ele>24.013951</ele>
<time>2026-07-16T10:08:15.000Z</time>
</trkpt>
<trkpt lat="57.224087" lon="9.571282">
<ele>23.993086</ele>
<time>2026-07-16T10:08:16.000Z</time>
</trkpt>
<trkpt lat="57.224133" lon="9.571215">
<ele>23.971060</ele>
<time>2026-07-16T10:08:17.000Z</time>
</trkpt>
<trkpt lat="57.224178" lon="9.571149">
<ele>23.949456</ele>
<time>2026-07-16T10:08:18.000Z</time>
</trkpt>
<trkpt lat="57.224220" lon="9.571081">
<ele>23.928456</ele>
<time>2026-07-16T10:08:19.000Z</time>
</trkpt>
<trkpt lat="57.224266" lon="9.571013">
<ele>23.906304</ele>
<time>2026-07-16T10:08:20.000Z</time>
</trkpt>
<trkpt lat="57.224308" lon="9.570945">
<ele>23.885305</ele>
<time>2026-07-16T10:08:21.000Z</time>
</trkpt>
<trkpt lat="57.224354" lon="9.570879">
<ele>23.863405</ele>
<time>2026-07-16T10:08:22.000Z</time>
</trkpt>
<trkpt lat="57.224400" lon="9.570815">
<ele>23.841752</ele>
<time>2026-07-16T10:08:23.000Z</time>
</trkpt>
<trkpt lat="57.224442" lon="9.570751">
<ele>23.821280</ele>
<time>2026-07-16T10:08:24.000Z</time>
</trkpt>
<trkpt lat="57.224476" lon="9.570683">
<ele>23.802439</ele>
<time>2026-07-16T10:08:25.000Z</time>
</trkpt>
<trkpt lat="57.224518" lon="9.570614">
<ele>23.781305</ele>
<time>2026-07-16T10:08:26.000Z</time>
</trkpt>
<trkpt lat="57.224556" lon="9.570546">
<ele>23.761412</ele>
<time>2026-07-16T10:08:27.000Z</time>
</trkpt>
<trkpt lat="57.224594" lon="9.570474">
<ele>23.740945</ele>
<time>2026-07-16T10:08:28.000Z</time>
</trkpt>
<trkpt lat="57.224628" lon="9.570398">
<ele>23.720877</ele>
<time>2026-07-16T10:08:29.000Z</time>
</trkpt>
<trkpt lat="57.224663" lon="9.570323">
<ele>23.700721</ele>
<time>2026-07-16T10:08:30.000Z</time>
</trkpt>
<trkpt lat="57.224693" lon="9.570247">
<ele>23.681576</ele>
<time>2026-07-16T10:08:31.000Z</time>
</trkpt>
<trkpt lat="57.224735" lon="9.570170">
<ele>23.659327</ele>
<time>2026-07-16T10:08:32.000Z</time>
</trkpt>
<trkpt lat="57.224770" lon="9.570096">
<ele>23.639326</ele>
<time>2026-07-16T10:08:33.000Z</time>
</trkpt>
<trkpt lat="57.224804" lon="9.570026">
<ele>23.620183</ele>
<time>2026-07-16T10:08:34.000Z</time>
</trkpt>
<trkpt lat="57.224838" lon="9.569966">
<ele>23.602503</ele>
<time>2026-07-16T10:08:35.000Z</time>
</trkpt>
<trkpt lat="57.224873" lon="9.569918">
<ele>23.586113</ele>
<time>2026-07-16T10:08:36.000Z</time>
</trkpt>
<trkpt lat="57.224911" lon="9.569877">
<ele>23.569567</ele>
<time>2026-07-16T10:08:37.000Z</time>
</trkpt>
<trkpt lat="57.224945" lon="9.569844">
<ele>23.555126</ele>
<time>2026-07-16T10:08:38.000Z</time>
</trkpt>
<trkpt lat="57.224987" lon="9.569817">
<ele>23.538405</ele>
<time>2026-07-16T10:08:39.000Z</time>
</trkpt>
<trkpt lat="57.225029" lon="9.569787">
<ele>23.521473</ele>
<time>2026-07-16T10:08:40.000Z</time>
</trkpt>
<trkpt lat="57.225075" lon="9.569751">
<ele>23.502689</ele>
<time>2026-07-16T10:08:41.000Z</time>
</trkpt>
<trkpt lat="57.225121" lon="9.569708">
<ele>23.483305</ele>
<time>2026-07-16T10:08:42.000Z</time>
</trkpt>
<trkpt lat="57.225163" lon="9.569659">
<ele>23.461808</ele>
<time>2026-07-16T10:08:43.000Z</time>
</trkpt>
<trkpt lat="57.225208" lon="9.569603">
<ele>23.433301</ele>
<time>2026-07-16T10:08:44.000Z</time>
</trkpt>
<trkpt lat="57.225254" lon="9.569540">
<ele>23.403214</ele>
<time>2026-07-16T10:08:45.000Z</time>
</trkpt>
<trkpt lat="57.225300" lon="9.569474">
<ele>23.372612</ele>
<time>2026-07-16T10:08:46.000Z</time>
</trkpt>
<trkpt lat="57.225342" lon="9.569406">
<ele>23.343269</ele>
<time>2026-07-16T10:08:47.000Z</time>
</trkpt>
<trkpt lat="57.225391" lon="9.569334">
<ele>23.310373</ele>
<time>2026-07-16T10:08:48.000Z</time>
</trkpt>
<trkpt lat="57.225433" lon="9.569266">
<ele>23.281031</ele>
<time>2026-07-16T10:08:49.000Z</time>
</trkpt>
<trkpt lat="57.225483" lon="9.569198">
<ele>23.248409</ele>
<time>2026-07-16T10:08:50.000Z</time>
</trkpt>
<trkpt lat="57.225525" lon="9.569131">
<ele>23.219253</ele>
<time>2026-07-16T10:08:51.000Z</time>
</trkpt>
<trkpt lat="57.225567" lon="9.569062">
<ele>23.189722</ele>
<time>2026-07-16T10:08:52.000Z</time>
</trkpt>
<trkpt lat="57.225613" lon="9.568994">
<ele>23.158768</ele>
<time>2026-07-16T10:08:53.000Z</time>
</trkpt>
<trkpt lat="57.225662" lon="9.568924">
<ele>23.126223</ele>
<time>2026-07-16T10:08:54.000Z</time>
</trkpt>
<trkpt lat="57.225712" lon="9.568857">
<ele>23.093769</ele>
<time>2026-07-16T10:08:55.000Z</time>
</trkpt>
<trkpt lat="57.225758" lon="9.568788">
<ele>23.062637</ele>
<time>2026-07-16T10:08:56.000Z</time>
</trkpt>
<trkpt lat="57.225807" lon="9.568719">
<ele>23.030265</ele>
<time>2026-07-16T10:08:57.000Z</time>
</trkpt>
<trkpt lat="57.225853" lon="9.568652">
<ele>22.999488</ele>
<time>2026-07-16T10:08:58.000Z</time>
</trkpt>
<trkpt lat="57.225899" lon="9.568590">
<ele>22.969570</ele>
<time>2026-07-16T10:08:59.000Z</time>
</trkpt>
<trkpt lat="57.225945" lon="9.568526">
<ele>22.939314</ele>
<time>2026-07-16T10:09:00.000Z</time>
</trkpt>
<trkpt lat="57.225986" lon="9.568462">
<ele>22.911112</ele>
<time>2026-07-16T10:09:01.000Z</time>
</trkpt>
<trkpt lat="57.226032" lon="9.568398">
<ele>22.880855</ele>
<time>2026-07-16T10:09:02.000Z</time>
</trkpt>
<trkpt lat="57.226074" lon="9.568333">
<ele>22.852068</ele>
<time>2026-07-16T10:09:03.000Z</time>
</trkpt>
<trkpt lat="57.226120" lon="9.568267">
<ele>22.821466</ele>
<time>2026-07-16T10:09:04.000Z</time>
</trkpt>
<trkpt lat="57.226162" lon="9.568203">
<ele>22.792861</ele>
<time>2026-07-16T10:09:05.000Z</time>
</trkpt>
<trkpt lat="57.226208" lon="9.568139">
<ele>22.762604</ele>
<time>2026-07-16T10:09:06.000Z</time>
</trkpt>
<trkpt lat="57.226246" lon="9.568077">
<ele>22.735967</ele>
<time>2026-07-16T10:09:07.000Z</time>
</trkpt>
<trkpt lat="57.226288" lon="9.568017">
<ele>22.708072</ele>
<time>2026-07-16T10:09:08.000Z</time>
</trkpt>
<trkpt lat="57.226326" lon="9.567964">
<ele>22.683055</ele>
<time>2026-07-16T10:09:09.000Z</time>
</trkpt>
<trkpt lat="57.226360" lon="9.567920">
<ele>22.661244</ele>
<time>2026-07-16T10:09:10.000Z</time>
</trkpt>
<trkpt lat="57.226391" lon="9.567883">
<ele>22.641853</ele>
<time>2026-07-16T10:09:11.000Z</time>
</trkpt>
<trkpt lat="57.226421" lon="9.567868">
<ele>22.625524</ele>
<time>2026-07-16T10:09:12.000Z</time>
</trkpt>
<trkpt lat="57.226448" lon="9.567883">
<ele>22.610710</ele>
<time>2026-07-16T10:09:13.000Z</time>
</trkpt>
<trkpt lat="57.226471" lon="9.567915">
<ele>22.595582</ele>
<time>2026-07-16T10:09:14.000Z</time>
</trkpt>
<trkpt lat="57.226494" lon="9.567955">
<ele>22.578985</ele>
<time>2026-07-16T10:09:15.000Z</time>
</trkpt>
<trkpt lat="57.226513" lon="9.568000">
<ele>22.562754</ele>
<time>2026-07-16T10:09:16.000Z</time>
</trkpt>
<trkpt lat="57.226540" lon="9.568047">
<ele>22.543263</ele>
<time>2026-07-16T10:09:17.000Z</time>
</trkpt>
<trkpt lat="57.226566" lon="9.568093">
<ele>22.525814</ele>
<time>2026-07-16T10:09:18.000Z</time>
</trkpt>
<trkpt lat="57.226593" lon="9.568138">
<ele>22.518556</ele>
<time>2026-07-16T10:09:19.000Z</time>
</trkpt>
<trkpt lat="57.226620" lon="9.568185">
<ele>22.511150</ele>
<time>2026-07-16T10:09:20.000Z</time>
</trkpt>
<trkpt lat="57.226646" lon="9.568232">
<ele>22.503889</ele>
<time>2026-07-16T10:09:21.000Z</time>
</trkpt>
<trkpt lat="57.226669" lon="9.568279">
<ele>22.497043</ele>
<time>2026-07-16T10:09:22.000Z</time>
</trkpt>
<trkpt lat="57.226696" lon="9.568329">
<ele>22.489412</ele>
<time>2026-07-16T10:09:23.000Z</time>
</trkpt>
<trkpt lat="57.226723" lon="9.568377">
<ele>22.481933</ele>
<time>2026-07-16T10:09:24.000Z</time>
</trkpt>
<trkpt lat="57.226742" lon="9.568424">
<ele>22.475595</ele>
<time>2026-07-16T10:09:25.000Z</time>
</trkpt>
<trkpt lat="57.226765" lon="9.568469">
<ele>22.468907</ele>
<time>2026-07-16T10:09:26.000Z</time>
</trkpt>
<trkpt lat="57.226788" lon="9.568504">
<ele>22.462960</ele>
<time>2026-07-16T10:09:27.000Z</time>
</trkpt>
<trkpt lat="57.226814" lon="9.568534">
<ele>22.456841</ele>
<time>2026-07-16T10:09:28.000Z</time>
</trkpt>
<trkpt lat="57.226841" lon="9.568563">
<ele>22.450607</ele>
<time>2026-07-16T10:09:29.000Z</time>
</trkpt>
<trkpt lat="57.226868" lon="9.568599">
<ele>22.443960</ele>
<time>2026-07-16T10:09:30.000Z</time>
</trkpt>
<trkpt lat="57.226894" lon="9.568644">
<ele>22.436848</ele>
<time>2026-07-16T10:09:31.000Z</time>
</trkpt>
<trkpt lat="57.226921" lon="9.568691">
<ele>22.429443</ele>
<time>2026-07-16T10:09:32.000Z</time>
</trkpt>
<trkpt lat="57.226948" lon="9.568741">
<ele>22.421812</ele>
<time>2026-07-16T10:09:33.000Z</time>
</trkpt>
<trkpt lat="57.226978" lon="9.568789">
<ele>22.413891</ele>
<time>2026-07-16T10:09:34.000Z</time>
</trkpt>
<trkpt lat="57.227009" lon="9.568849">
<ele>22.404929</ele>
<time>2026-07-16T10:09:35.000Z</time>
</trkpt>
<trkpt lat="57.227043" lon="9.568905">
<ele>22.395836</ele>
<time>2026-07-16T10:09:36.000Z</time>
</trkpt>
<trkpt lat="57.227085" lon="9.568959">
<ele>22.385622</ele>
<time>2026-07-16T10:09:37.000Z</time>
</trkpt>
<trkpt lat="57.227123" lon="9.569006">
<ele>22.376494</ele>
<time>2026-07-16T10:09:38.000Z</time>
</trkpt>
<trkpt lat="57.227158" lon="9.569053">
<ele>22.367857</ele>
<time>2026-07-16T10:09:39.000Z</time>
</trkpt>
<trkpt lat="57.227188" lon="9.569101">
<ele>22.359935</ele>
<time>2026-07-16T10:09:40.000Z</time>
</trkpt>
<trkpt lat="57.227226" lon="9.569156">
<ele>22.350300</ele>
<time>2026-07-16T10:09:41.000Z</time>
</trkpt>
<trkpt lat="57.227261" lon="9.569215">
<ele>22.340842</ele>
<time>2026-07-16T10:09:42.000Z</time>
</trkpt>
<trkpt lat="57.227295" lon="9.569271">
<ele>22.331750</ele>
<time>2026-07-16T10:09:43.000Z</time>
</trkpt>
<trkpt lat="57.227325" lon="9.569328">
<ele>22.323160</ele>
<time>2026-07-16T10:09:44.000Z</time>
</trkpt>
<trkpt lat="57.227360" lon="9.569387">
<ele>22.313702</ele>
<time>2026-07-16T10:09:45.000Z</time>
</trkpt>
<trkpt lat="57.227390" lon="9.569442">
<ele>22.305266</ele>
<time>2026-07-16T10:09:46.000Z</time>
</trkpt>
<trkpt lat="57.227428" lon="9.569507">
<ele>22.294929</ele>
<time>2026-07-16T10:09:47.000Z</time>
</trkpt>
<trkpt lat="57.227463" lon="9.569570">
<ele>22.285174</ele>
<time>2026-07-16T10:09:48.000Z</time>
</trkpt>
<trkpt lat="57.227505" lon="9.569631">
<ele>22.274510</ele>
<time>2026-07-16T10:09:49.000Z</time>
</trkpt>
<trkpt lat="57.227543" lon="9.569689">
<ele>22.264671</ele>
<time>2026-07-16T10:09:50.000Z</time>
</trkpt>
<trkpt lat="57.227581" lon="9.569743">
<ele>22.255102</ele>
<time>2026-07-16T10:09:51.000Z</time>
</trkpt>
<trkpt lat="57.227619" lon="9.569800">
<ele>22.245331</ele>
<time>2026-07-16T10:09:52.000Z</time>
</trkpt>
<trkpt lat="57.227657" lon="9.569859">
<ele>22.235423</ele>
<time>2026-07-16T10:09:53.000Z</time>
</trkpt>
<trkpt lat="57.227695" lon="9.569913">
<ele>22.225854</ele>
<time>2026-07-16T10:09:54.000Z</time>
</trkpt>
<trkpt lat="57.227734" lon="9.569963">
<ele>22.216378</ele>
<time>2026-07-16T10:09:55.000Z</time>
</trkpt>
<trkpt lat="57.227768" lon="9.570014">
<ele>22.207636</ele>
<time>2026-07-16T10:09:56.000Z</time>
</trkpt>
<trkpt lat="57.227806" lon="9.570057">
<ele>22.198741</ele>
<time>2026-07-16T10:09:57.000Z</time>
</trkpt>
<trkpt lat="57.227840" lon="9.570097">
<ele>22.190696</ele>
<time>2026-07-16T10:09:58.000Z</time>
</trkpt>
<trkpt lat="57.227875" lon="9.570137">
<ele>22.182481</ele>
<time>2026-07-16T10:09:59.000Z</time>
</trkpt>
<trkpt lat="57.227917" lon="9.570183">
<ele>22.172735</ele>
<time>2026-07-16T10:10:00.000Z</time>
</trkpt>
<trkpt lat="57.227951" lon="9.570225">
<ele>22.170186</ele>
<time>2026-07-16T10:10:01.000Z</time>
</trkpt>
<trkpt lat="57.227993" lon="9.570269">
<ele>22.177885</ele>
<time>2026-07-16T10:10:02.000Z</time>
</trkpt>
<trkpt lat="57.228031" lon="9.570310">
<ele>22.184903</ele>
<time>2026-07-16T10:10:03.000Z</time>
</trkpt>
<trkpt lat="57.228069" lon="9.570354">
<ele>22.192054</ele>
<time>2026-07-16T10:10:04.000Z</time>
</trkpt>
<trkpt lat="57.228111" lon="9.570406">
<ele>22.200116</ele>
<time>2026-07-16T10:10:05.000Z</time>
</trkpt>
<trkpt lat="57.228149" lon="9.570458">
<ele>22.207657</ele>
<time>2026-07-16T10:10:06.000Z</time>
</trkpt>
<trkpt lat="57.228188" lon="9.570501">
<ele>22.214899</ele>
<time>2026-07-16T10:10:07.000Z</time>
</trkpt>
<trkpt lat="57.228233" lon="9.570549">
<ele>22.223185</ele>
<time>2026-07-16T10:10:08.000Z</time>
</trkpt>
<trkpt lat="57.228271" lon="9.570593">
<ele>22.230337</ele>
<time>2026-07-16T10:10:09.000Z</time>
</trkpt>
<trkpt lat="57.228317" lon="9.570640">
<ele>22.238719</ele>
<time>2026-07-16T10:10:10.000Z</time>
</trkpt>
<trkpt lat="57.228363" lon="9.570689">
<ele>22.247186</ele>
<time>2026-07-16T10:10:11.000Z</time>
</trkpt>
<trkpt lat="57.228401" lon="9.570729">
<ele>22.254160</ele>
<time>2026-07-16T10:10:12.000Z</time>
</trkpt>
<trkpt lat="57.228432" lon="9.570767">
<ele>22.260093</ele>
<time>2026-07-16T10:10:13.000Z</time>
</trkpt>
<trkpt lat="57.228470" lon="9.570811">
<ele>22.267244</ele>
<time>2026-07-16T10:10:14.000Z</time>
</trkpt>
<trkpt lat="57.228508" lon="9.570855">
<ele>22.274395</ele>
<time>2026-07-16T10:10:15.000Z</time>
</trkpt>
<trkpt lat="57.228542" lon="9.570902">
<ele>22.281167</ele>
<time>2026-07-16T10:10:16.000Z</time>
</trkpt>
<trkpt lat="57.228584" lon="9.570952">
<ele>22.289134</ele>
<time>2026-07-16T10:10:17.000Z</time>
</trkpt>
<trkpt lat="57.228630" lon="9.571004">
<ele>22.297733</ele>
<time>2026-07-16T10:10:18.000Z</time>
</trkpt>
<trkpt lat="57.228676" lon="9.571053">
<ele>22.306201</ele>
<time>2026-07-16T10:10:19.000Z</time>
</trkpt>
<trkpt lat="57.228714" lon="9.571104">
<ele>22.313690</ele>
<time>2026-07-16T10:10:20.000Z</time>
</trkpt>
<trkpt lat="57.228752" lon="9.571155">
<ele>22.321180</ele>
<time>2026-07-16T10:10:21.000Z</time>
</trkpt>
<trkpt lat="57.228794" lon="9.571211">
<ele>22.329439</ele>
<time>2026-07-16T10:10:22.000Z</time>
</trkpt>
<trkpt lat="57.228836" lon="9.571270">
<ele>22.337853</ele>
<time>2026-07-16T10:10:23.000Z</time>
</trkpt>
<trkpt lat="57.228878" lon="9.571341">
<ele>22.346931</ele>
<time>2026-07-16T10:10:24.000Z</time>
</trkpt>
<trkpt lat="57.228916" lon="9.571416">
<ele>22.355798</ele>
<time>2026-07-16T10:10:25.000Z</time>
</trkpt>
<trkpt lat="57.228950" lon="9.571492">
<ele>22.364308</ele>
<time>2026-07-16T10:10:26.000Z</time>
</trkpt>
<trkpt lat="57.228985" lon="9.571574">
<ele>22.373322</ele>
<time>2026-07-16T10:10:27.000Z</time>
</trkpt>
<trkpt lat="57.229019" lon="9.571654">
<ele>22.382101</ele>
<time>2026-07-16T10:10:28.000Z</time>
</trkpt>
<trkpt lat="57.229050" lon="9.571733">
<ele>22.390523</ele>
<time>2026-07-16T10:10:29.000Z</time>
</trkpt>
<trkpt lat="57.229076" lon="9.571815">
<ele>22.398726</ele>
<time>2026-07-16T10:10:30.000Z</time>
</trkpt>
<trkpt lat="57.229107" lon="9.571886">
<ele>22.406599</ele>
<time>2026-07-16T10:10:31.000Z</time>
</trkpt>
<trkpt lat="57.229141" lon="9.571954">
<ele>22.414589</ele>
<time>2026-07-16T10:10:32.000Z</time>
</trkpt>
<trkpt lat="57.229168" lon="9.572025">
<ele>22.422079</ele>
<time>2026-07-16T10:10:33.000Z</time>
</trkpt>
<trkpt lat="57.229202" lon="9.572104">
<ele>22.430790</ele>
<time>2026-07-16T10:10:34.000Z</time>
</trkpt>
<trkpt lat="57.229237" lon="9.572184">
<ele>22.439669</ele>
<time>2026-07-16T10:10:35.000Z</time>
</trkpt>
<trkpt lat="57.229271" lon="9.572267">
<ele>22.448653</ele>
<time>2026-07-16T10:10:36.000Z</time>
</trkpt>
<trkpt lat="57.229301" lon="9.572352">
<ele>22.455985</ele>
<time>2026-07-16T10:10:37.000Z</time>
</trkpt>
<trkpt lat="57.229336" lon="9.572432">
<ele>22.460504</ele>
<time>2026-07-16T10:10:38.000Z</time>
</trkpt>
<trkpt lat="57.229366" lon="9.572509">
<ele>22.464672</ele>
<time>2026-07-16T10:10:39.000Z</time>
</trkpt>
<trkpt lat="57.229397" lon="9.572585">
<ele>22.468853</ele>
<time>2026-07-16T10:10:40.000Z</time>
</trkpt>
<trkpt lat="57.229427" lon="9.572657">
<ele>22.472845</ele>
<time>2026-07-16T10:10:41.000Z</time>
</trkpt>
<trkpt lat="57.229458" lon="9.572726">
<ele>22.476784</ele>
<time>2026-07-16T10:10:42.000Z</time>
</trkpt>
<trkpt lat="57.229488" lon="9.572797">
<ele>22.480742</ele>
<time>2026-07-16T10:10:43.000Z</time>
</trkpt>
<trkpt lat="57.229519" lon="9.572868">
<ele>22.484749</ele>
<time>2026-07-16T10:10:44.000Z</time>
</trkpt>
<trkpt lat="57.229553" lon="9.572947">
<ele>22.489183</ele>
<time>2026-07-16T10:10:45.000Z</time>
</trkpt>
<trkpt lat="57.229588" lon="9.573025">
<ele>22.493635</ele>
<time>2026-07-16T10:10:46.000Z</time>
</trkpt>
<trkpt lat="57.229622" lon="9.573095">
<ele>22.497767</ele>
<time>2026-07-16T10:10:47.000Z</time>
</trkpt>
<trkpt lat="57.229656" lon="9.573164">
<ele>22.501866</ele>
<time>2026-07-16T10:10:48.000Z</time>
</trkpt>
<trkpt lat="57.229691" lon="9.573231">
<ele>22.505957</ele>
<time>2026-07-16T10:10:49.000Z</time>
</trkpt>
<trkpt lat="57.229729" lon="9.573288">
<ele>22.509930</ele>
<time>2026-07-16T10:10:50.000Z</time>
</trkpt>
<trkpt lat="57.229763" lon="9.573347">
<ele>22.513716</ele>
<time>2026-07-16T10:10:51.000Z</time>
</trkpt>
<trkpt lat="57.229794" lon="9.573401">
<ele>22.517174</ele>
<time>2026-07-16T10:10:52.000Z</time>
</trkpt>
<trkpt lat="57.229828" lon="9.573459">
<ele>22.520930</ele>
<time>2026-07-16T10:10:53.000Z</time>
</trkpt>
<trkpt lat="57.229862" lon="9.573517">
<ele>22.524686</ele>
<time>2026-07-16T10:10:54.000Z</time>
</trkpt>
<trkpt lat="57.229897" lon="9.573566">
<ele>22.528251</ele>
<time>2026-07-16T10:10:55.000Z</time>
</trkpt>
<trkpt lat="57.229931" lon="9.573627">
<ele>22.532098</ele>
<time>2026-07-16T10:10:56.000Z</time>
</trkpt>
<trkpt lat="57.229961" lon="9.573684">
<ele>22.535591</ele>
<time>2026-07-16T10:10:57.000Z</time>
</trkpt>
<trkpt lat="57.230000" lon="9.573745">
<ele>22.539738</ele>
<time>2026-07-16T10:10:58.000Z</time>
</trkpt>
<trkpt lat="57.230034" lon="9.573797">
<ele>22.543321</ele>
<time>2026-07-16T10:10:59.000Z</time>
</trkpt>
<trkpt lat="57.230072" lon="9.573859">
<ele>22.547436</ele>
<time>2026-07-16T10:11:00.000Z</time>
</trkpt>
<trkpt lat="57.230110" lon="9.573916">
<ele>22.551409</ele>
<time>2026-07-16T10:11:01.000Z</time>
</trkpt>
<trkpt lat="57.230148" lon="9.573978">
<ele>22.555523</ele>
<time>2026-07-16T10:11:02.000Z</time>
</trkpt>
<trkpt lat="57.230186" lon="9.574044">
<ele>22.559757</ele>
<time>2026-07-16T10:11:03.000Z</time>
</trkpt>
<trkpt lat="57.230225" lon="9.574106">
<ele>22.563933</ele>
<time>2026-07-16T10:11:04.000Z</time>
</trkpt>
<trkpt lat="57.230263" lon="9.574167">
<ele>22.568019</ele>
<time>2026-07-16T10:11:05.000Z</time>
</trkpt>
<trkpt lat="57.230305" lon="9.574225">
<ele>22.572275</ele>
<time>2026-07-16T10:11:06.000Z</time>
</trkpt>
<trkpt lat="57.230339" lon="9.574289">
<ele>22.576215</ele>
<time>2026-07-16T10:11:07.000Z</time>
</trkpt>
<trkpt lat="57.230377" lon="9.574347">
<ele>22.580215</ele>
<time>2026-07-16T10:11:08.000Z</time>
</trkpt>
<trkpt lat="57.230412" lon="9.574405">
<ele>22.584031</ele>
<time>2026-07-16T10:11:09.000Z</time>
</trkpt>
<trkpt lat="57.230450" lon="9.574460">
<ele>22.587950</ele>
<time>2026-07-16T10:11:10.000Z</time>
</trkpt>
<trkpt lat="57.230484" lon="9.574526">
<ele>22.591952</ele>
<time>2026-07-16T10:11:11.000Z</time>
</trkpt>
<trkpt lat="57.230526" lon="9.574595">
<ele>22.596514</ele>
<time>2026-07-16T10:11:12.000Z</time>
</trkpt>
<trkpt lat="57.230560" lon="9.574657">
<ele>22.600392</ele>
<time>2026-07-16T10:11:13.000Z</time>
</trkpt>
<trkpt lat="57.230595" lon="9.574718">
<ele>22.613170</ele>
<time>2026-07-16T10:11:14.000Z</time>
</trkpt>
<trkpt lat="57.230633" lon="9.574782">
<ele>22.627084</ele>
<time>2026-07-16T10:11:15.000Z</time>
</trkpt>
<trkpt lat="57.230667" lon="9.574846">
<ele>22.640219</ele>
<time>2026-07-16T10:11:16.000Z</time>
</trkpt>
<trkpt lat="57.230701" lon="9.574908">
<ele>22.653147</ele>
<time>2026-07-16T10:11:17.000Z</time>
</trkpt>
<trkpt lat="57.230736" lon="9.574964">
<ele>22.665676</ele>
<time>2026-07-16T10:11:18.000Z</time>
</trkpt>
<trkpt lat="57.230770" lon="9.575022">
<ele>22.678199</ele>
<time>2026-07-16T10:11:19.000Z</time>
</trkpt>
<trkpt lat="57.230808" lon="9.575077">
<ele>22.691262</ele>
<time>2026-07-16T10:11:20.000Z</time>
</trkpt>
<trkpt lat="57.230846" lon="9.575136">
<ele>22.704694</ele>
<time>2026-07-16T10:11:21.000Z</time>
</trkpt>
<trkpt lat="57.230885" lon="9.575194">
<ele>22.718242</ele>
<time>2026-07-16T10:11:22.000Z</time>
</trkpt>
<trkpt lat="57.230919" lon="9.575256">
<ele>22.731169</ele>
<time>2026-07-16T10:11:23.000Z</time>
</trkpt>
<trkpt lat="57.230957" lon="9.575315">
<ele>22.744601</ele>
<time>2026-07-16T10:11:24.000Z</time>
</trkpt>
<trkpt lat="57.230991" lon="9.575367">
<ele>22.756545</ele>
<time>2026-07-16T10:11:25.000Z</time>
</trkpt>
<trkpt lat="57.231030" lon="9.575419">
<ele>22.769560</ele>
<time>2026-07-16T10:11:26.000Z</time>
</trkpt>
<trkpt lat="57.231060" lon="9.575474">
<ele>22.780997</ele>
<time>2026-07-16T10:11:27.000Z</time>
</trkpt>
<trkpt lat="57.231098" lon="9.575529">
<ele>22.794060</ele>
<time>2026-07-16T10:11:28.000Z</time>
</trkpt>
<trkpt lat="57.231136" lon="9.575580">
<ele>22.806770</ele>
<time>2026-07-16T10:11:29.000Z</time>
</trkpt>
<trkpt lat="57.231171" lon="9.575632">
<ele>22.818924</ele>
<time>2026-07-16T10:11:30.000Z</time>
</trkpt>
<trkpt lat="57.231209" lon="9.575688">
<ele>22.832077</ele>
<time>2026-07-16T10:11:31.000Z</time>
</trkpt>
<trkpt lat="57.231247" lon="9.575738">
<ele>22.844702</ele>
<time>2026-07-16T10:11:32.000Z</time>
</trkpt>
<trkpt lat="57.231285" lon="9.575797">
<ele>22.858134</ele>
<time>2026-07-16T10:11:33.000Z</time>
</trkpt>
<trkpt lat="57.231323" lon="9.575850">
<ele>22.871018</ele>
<time>2026-07-16T10:11:34.000Z</time>
</trkpt>
<trkpt lat="57.231361" lon="9.575903">
<ele>22.883902</ele>
<time>2026-07-16T10:11:35.000Z</time>
</trkpt>
<trkpt lat="57.231400" lon="9.575960">
<ele>22.897359</ele>
<time>2026-07-16T10:11:36.000Z</time>
</trkpt>
<trkpt lat="57.231434" lon="9.576025">
<ele>22.910598</ele>
<time>2026-07-16T10:11:37.000Z</time>
</trkpt>
<trkpt lat="57.231472" lon="9.576082">
<ele>22.923844</ele>
<time>2026-07-16T10:11:38.000Z</time>
</trkpt>
<trkpt lat="57.231510" lon="9.576144">
<ele>22.937562</ele>
<time>2026-07-16T10:11:39.000Z</time>
</trkpt>
<trkpt lat="57.231544" lon="9.576200">
<ele>22.949888</ele>
<time>2026-07-16T10:11:40.000Z</time>
</trkpt>
<trkpt lat="57.231583" lon="9.576263">
<ele>22.963907</ele>
<time>2026-07-16T10:11:41.000Z</time>
</trkpt>
<trkpt lat="57.231621" lon="9.576320">
<ele>22.977152</ele>
<time>2026-07-16T10:11:42.000Z</time>
</trkpt>
<trkpt lat="57.231655" lon="9.576371">
<ele>22.989004</ele>
<time>2026-07-16T10:11:43.000Z</time>
</trkpt>
<trkpt lat="57.231693" lon="9.576419">
<ele>23.001460</ele>
<time>2026-07-16T10:11:44.000Z</time>
</trkpt>
<trkpt lat="57.231731" lon="9.576458">
<ele>23.013223</ele>
<time>2026-07-16T10:11:45.000Z</time>
</trkpt>
<trkpt lat="57.231770" lon="9.576493">
<ele>23.024956</ele>
<time>2026-07-16T10:11:46.000Z</time>
</trkpt>
<trkpt lat="57.231808" lon="9.576515">
<ele>23.035732</ele>
<time>2026-07-16T10:11:47.000Z</time>
</trkpt>
<trkpt lat="57.231846" lon="9.576533">
<ele>23.046348</ele>
<time>2026-07-16T10:11:48.000Z</time>
</trkpt>
<trkpt lat="57.231884" lon="9.576547">
<ele>23.056834</ele>
<time>2026-07-16T10:11:49.000Z</time>
</trkpt>
<trkpt lat="57.231926" lon="9.576560">
<ele>23.068358</ele>
<time>2026-07-16T10:11:50.000Z</time>
</trkpt>
<trkpt lat="57.231972" lon="9.576566">
<ele>23.080837</ele>
<time>2026-07-16T10:11:51.000Z</time>
</trkpt>
<trkpt lat="57.232017" lon="9.576574">
<ele>23.090154</ele>
<time>2026-07-16T10:11:52.000Z</time>
</trkpt>
<trkpt lat="57.232056" lon="9.576576">
<ele>23.095444</ele>
<time>2026-07-16T10:11:53.000Z</time>
</trkpt>
<trkpt lat="57.232098" lon="9.576580">
<ele>23.101147</ele>
<time>2026-07-16T10:11:54.000Z</time>
</trkpt>
<trkpt lat="57.232140" lon="9.576586">
<ele>23.106860</ele>
<time>2026-07-16T10:11:55.000Z</time>
</trkpt>
<trkpt lat="57.232178" lon="9.576592">
<ele>23.112032</ele>
<time>2026-07-16T10:11:56.000Z</time>
</trkpt>
<trkpt lat="57.232216" lon="9.576599">
<ele>23.117210</ele>
<time>2026-07-16T10:11:57.000Z</time>
</trkpt>
<trkpt lat="57.232258" lon="9.576608">
<ele>23.122944</ele>
<time>2026-07-16T10:11:58.000Z</time>
</trkpt>
<trkpt lat="57.232296" lon="9.576615">
<ele>23.128122</ele>
<time>2026-07-16T10:11:59.000Z</time>
</trkpt>
<trkpt lat="57.232334" lon="9.576623">
<ele>23.133309</ele>
<time>2026-07-16T10:12:00.000Z</time>
</trkpt>
<trkpt lat="57.232376" lon="9.576634">
<ele>23.139061</ele>
<time>2026-07-16T10:12:01.000Z</time>
</trkpt>
<trkpt lat="57.232422" lon="9.576642">
<ele>23.145327</ele>
<time>2026-07-16T10:12:02.000Z</time>
</trkpt>
<trkpt lat="57.232471" lon="9.576653">
<ele>23.152020</ele>
<time>2026-07-16T10:12:03.000Z</time>
</trkpt>
<trkpt lat="57.232521" lon="9.576659">
<ele>23.158815</ele>
<time>2026-07-16T10:12:04.000Z</time>
</trkpt>
<trkpt lat="57.232571" lon="9.576673">
<ele>23.165672</ele>
<time>2026-07-16T10:12:05.000Z</time>
</trkpt>
<trkpt lat="57.232620" lon="9.576678">
<ele>23.172327</ele>
<time>2026-07-16T10:12:06.000Z</time>
</trkpt>
<trkpt lat="57.232662" lon="9.576678">
<ele>23.178023</ele>
<time>2026-07-16T10:12:07.000Z</time>
</trkpt>
<trkpt lat="57.232700" lon="9.576684">
<ele>23.183195</ele>
<time>2026-07-16T10:12:08.000Z</time>
</trkpt>
<trkpt lat="57.232739" lon="9.576691">
<ele>23.188508</ele>
<time>2026-07-16T10:12:09.000Z</time>
</trkpt>
<trkpt lat="57.232780" lon="9.576703">
<ele>23.194137</ele>
<time>2026-07-16T10:12:10.000Z</time>
</trkpt>
<trkpt lat="57.232822" lon="9.576722">
<ele>23.200001</ele>
<time>2026-07-16T10:12:11.000Z</time>
</trkpt>
<trkpt lat="57.232868" lon="9.576741">
<ele>23.206393</ele>
<time>2026-07-16T10:12:12.000Z</time>
</trkpt>
<trkpt lat="57.232918" lon="9.576754">
<ele>23.213240</ele>
<time>2026-07-16T10:12:13.000Z</time>
</trkpt>
<trkpt lat="57.232960" lon="9.576767">
<ele>23.219015</ele>
<time>2026-07-16T10:12:14.000Z</time>
</trkpt>
<trkpt lat="57.233006" lon="9.576785">
<ele>23.225391</ele>
<time>2026-07-16T10:12:15.000Z</time>
</trkpt>
<trkpt lat="57.233055" lon="9.576811">
<ele>23.232304</ele>
<time>2026-07-16T10:12:16.000Z</time>
</trkpt>
<trkpt lat="57.233105" lon="9.576839">
<ele>23.239389</ele>
<time>2026-07-16T10:12:17.000Z</time>
</trkpt>
<trkpt lat="57.233150" lon="9.576867">
<ele>23.245828</ele>
<time>2026-07-16T10:12:18.000Z</time>
</trkpt>
<trkpt lat="57.233192" lon="9.576887">
<ele>23.251710</ele>
<time>2026-07-16T10:12:19.000Z</time>
</trkpt>
<trkpt lat="57.233242" lon="9.576912">
<ele>23.258734</ele>
<time>2026-07-16T10:12:20.000Z</time>
</trkpt>
<trkpt lat="57.233288" lon="9.576943">
<ele>23.265374</ele>
<time>2026-07-16T10:12:21.000Z</time>
</trkpt>
<trkpt lat="57.233334" lon="9.576972">
<ele>23.271965</ele>
<time>2026-07-16T10:12:22.000Z</time>
</trkpt>
<trkpt lat="57.233376" lon="9.577008">
<ele>23.278243</ele>
<time>2026-07-16T10:12:23.000Z</time>
</trkpt>
<trkpt lat="57.233410" lon="9.577041">
<ele>23.283451</ele>
<time>2026-07-16T10:12:24.000Z</time>
</trkpt>
<trkpt lat="57.233467" lon="9.577099">
<ele>23.292276</ele>
<time>2026-07-16T10:12:25.000Z</time>
</trkpt>
<trkpt lat="57.233517" lon="9.577151">
<ele>23.300056</ele>
<time>2026-07-16T10:12:26.000Z</time>
</trkpt>
<trkpt lat="57.233566" lon="9.577210">
<ele>23.307987</ele>
<time>2026-07-16T10:12:27.000Z</time>
</trkpt>
<trkpt lat="57.233616" lon="9.577261">
<ele>23.315732</ele>
<time>2026-07-16T10:12:28.000Z</time>
</trkpt>
<trkpt lat="57.233658" lon="9.577310">
<ele>23.322468</ele>
<time>2026-07-16T10:12:29.000Z</time>
</trkpt>
<trkpt lat="57.233704" lon="9.577363">
<ele>23.329819</ele>
<time>2026-07-16T10:12:30.000Z</time>
</trkpt>
<trkpt lat="57.233746" lon="9.577419">
<ele>23.333864</ele>
<time>2026-07-16T10:12:31.000Z</time>
</trkpt>
<trkpt lat="57.233795" lon="9.577474">
<ele>23.337584</ele>
<time>2026-07-16T10:12:32.000Z</time>
</trkpt>
<trkpt lat="57.233837" lon="9.577525">
<ele>23.340844</ele>
<time>2026-07-16T10:12:33.000Z</time>
</trkpt>
<trkpt lat="57.233879" lon="9.577580">
<ele>23.344184</ele>
<time>2026-07-16T10:12:34.000Z</time>
</trkpt>
<trkpt lat="57.233921" lon="9.577639">
<ele>23.347608</ele>
<time>2026-07-16T10:12:35.000Z</time>
</trkpt>
<trkpt lat="57.233963" lon="9.577696">
<ele>23.350989</ele>
<time>2026-07-16T10:12:36.000Z</time>
</trkpt>
<trkpt lat="57.234009" lon="9.577754">
<ele>23.354602</ele>
<time>2026-07-16T10:12:37.000Z</time>
</trkpt>
<trkpt lat="57.234051" lon="9.577811">
<ele>23.357983</ele>
<time>2026-07-16T10:12:38.000Z</time>
</trkpt>
<trkpt lat="57.234093" lon="9.577865">
<ele>23.361303</ele>
<time>2026-07-16T10:12:39.000Z</time>
</trkpt>
<trkpt lat="57.234131" lon="9.577917">
<ele>23.364371</ele>
<time>2026-07-16T10:12:40.000Z</time>
</trkpt>
<trkpt lat="57.234173" lon="9.577980">
<ele>23.367881</ele>
<time>2026-07-16T10:12:41.000Z</time>
</trkpt>
<trkpt lat="57.234219" lon="9.578040">
<ele>23.371534</ele>
<time>2026-07-16T10:12:42.000Z</time>
</trkpt>
<trkpt lat="57.234261" lon="9.578098">
<ele>23.374936</ele>
<time>2026-07-16T10:12:43.000Z</time>
</trkpt>
<trkpt lat="57.234314" lon="9.578176">
<ele>23.379332</ele>
<time>2026-07-16T10:12:44.000Z</time>
</trkpt>
<trkpt lat="57.234364" lon="9.578243">
<ele>23.383339</ele>
<time>2026-07-16T10:12:45.000Z</time>
</trkpt>
<trkpt lat="57.234409" lon="9.578310">
<ele>23.387089</ele>
<time>2026-07-16T10:12:46.000Z</time>
</trkpt>
<trkpt lat="57.234455" lon="9.578379">
<ele>23.390933</ele>
<time>2026-07-16T10:12:47.000Z</time>
</trkpt>
<trkpt lat="57.234497" lon="9.578443">
<ele>23.394465</ele>
<time>2026-07-16T10:12:48.000Z</time>
</trkpt>
<trkpt lat="57.234543" lon="9.578513">
<ele>23.398332</ele>
<time>2026-07-16T10:12:49.000Z</time>
</trkpt>
<trkpt lat="57.234585" lon="9.578580">
<ele>23.401932</ele>
<time>2026-07-16T10:12:50.000Z</time>
</trkpt>
<trkpt lat="57.234634" lon="9.578656">
<ele>23.406082</ele>
<time>2026-07-16T10:12:51.000Z</time>
</trkpt>
<trkpt lat="57.234676" lon="9.578726">
<ele>23.409752</ele>
<time>2026-07-16T10:12:52.000Z</time>
</trkpt>
<trkpt lat="57.234718" lon="9.578792">
<ele>23.413329</ele>
<time>2026-07-16T10:12:53.000Z</time>
</trkpt>
<trkpt lat="57.234756" lon="9.578870">
<ele>23.417015</ele>
<time>2026-07-16T10:12:54.000Z</time>
</trkpt>
<trkpt lat="57.234795" lon="9.578934">
<ele>23.420399</ele>
<time>2026-07-16T10:12:55.000Z</time>
</trkpt>
<trkpt lat="57.234833" lon="9.578999">
<ele>23.423758</ele>
<time>2026-07-16T10:12:56.000Z</time>
</trkpt>
<trkpt lat="57.234871" lon="9.579064">
<ele>23.427118</ele>
<time>2026-07-16T10:12:57.000Z</time>
</trkpt>
<trkpt lat="57.234905" lon="9.579128">
<ele>23.430267</ele>
<time>2026-07-16T10:12:58.000Z</time>
</trkpt>
<trkpt lat="57.234940" lon="9.579190">
<ele>23.433413</ele>
<time>2026-07-16T10:12:59.000Z</time>
</trkpt>
<trkpt lat="57.234978" lon="9.579249">
<ele>23.436633</ele>
<time>2026-07-16T10:13:00.000Z</time>
</trkpt>
<trkpt lat="57.235016" lon="9.579310">
<ele>23.439899</ele>
<time>2026-07-16T10:13:01.000Z</time>
</trkpt>
<trkpt lat="57.235050" lon="9.579371">
<ele>23.442974</ele>
<time>2026-07-16T10:13:02.000Z</time>
</trkpt>
<trkpt lat="57.235088" lon="9.579432">
<ele>23.446240</ele>
<time>2026-07-16T10:13:03.000Z</time>
</trkpt>
<trkpt lat="57.235127" lon="9.579496">
<ele>23.454795</ele>
<time>2026-07-16T10:13:04.000Z</time>
</trkpt>
<trkpt lat="57.235168" lon="9.579556">
<ele>23.467964</ele>
<time>2026-07-16T10:13:05.000Z</time>
</trkpt>
<trkpt lat="57.235207" lon="9.579617">
<ele>23.480828</ele>
<time>2026-07-16T10:13:06.000Z</time>
</trkpt>
<trkpt lat="57.235245" lon="9.579677">
<ele>23.493413</ele>
<time>2026-07-16T10:13:07.000Z</time>
</trkpt>
<trkpt lat="57.235283" lon="9.579728">
<ele>23.505238</ele>
<time>2026-07-16T10:13:08.000Z</time>
</trkpt>
<trkpt lat="57.235321" lon="9.579788">
<ele>23.517823</ele>
<time>2026-07-16T10:13:09.000Z</time>
</trkpt>
<trkpt lat="57.235348" lon="9.579835">
<ele>23.527162</ele>
<time>2026-07-16T10:13:10.000Z</time>
</trkpt>
<trkpt lat="57.235394" lon="9.579902">
<ele>23.541910</ele>
<time>2026-07-16T10:13:11.000Z</time>
</trkpt>
<trkpt lat="57.235439" lon="9.579956">
<ele>23.555419</ele>
<time>2026-07-16T10:13:12.000Z</time>
</trkpt>
<trkpt lat="57.235481" lon="9.580008">
<ele>23.568148</ele>
<time>2026-07-16T10:13:13.000Z</time>
</trkpt>
<trkpt lat="57.235523" lon="9.580063">
<ele>23.581109</ele>
<time>2026-07-16T10:13:14.000Z</time>
</trkpt>
<trkpt lat="57.235565" lon="9.580118">
<ele>23.594070</ele>
<time>2026-07-16T10:13:15.000Z</time>
</trkpt>
<trkpt lat="57.235599" lon="9.580170">
<ele>23.605182</ele>
<time>2026-07-16T10:13:16.000Z</time>
</trkpt>
<trkpt lat="57.235641" lon="9.580231">
<ele>23.618633</ele>
<time>2026-07-16T10:13:17.000Z</time>
</trkpt>
<trkpt lat="57.235683" lon="9.580282">
<ele>23.631286</ele>
<time>2026-07-16T10:13:18.000Z</time>
</trkpt>
<trkpt lat="57.235722" lon="9.580330">
<ele>23.643084</ele>
<time>2026-07-16T10:13:19.000Z</time>
</trkpt>
<trkpt lat="57.235764" lon="9.580371">
<ele>23.655044</ele>
<time>2026-07-16T10:13:20.000Z</time>
</trkpt>
<trkpt lat="57.235802" lon="9.580407">
<ele>23.665796</ele>
<time>2026-07-16T10:13:21.000Z</time>
</trkpt>
<trkpt lat="57.235847" lon="9.580440">
<ele>23.677985</ele>
<time>2026-07-16T10:13:22.000Z</time>
</trkpt>
<trkpt lat="57.235889" lon="9.580471">
<ele>23.689372</ele>
<time>2026-07-16T10:13:23.000Z</time>
</trkpt>
<trkpt lat="57.235931" lon="9.580502">
<ele>23.700759</ele>
<time>2026-07-16T10:13:24.000Z</time>
</trkpt>
<trkpt lat="57.235973" lon="9.580536">
<ele>23.712304</ele>
<time>2026-07-16T10:13:25.000Z</time>
</trkpt>
<trkpt lat="57.236019" lon="9.580573">
<ele>23.724936</ele>
<time>2026-07-16T10:13:26.000Z</time>
</trkpt>
<trkpt lat="57.236061" lon="9.580617">
<ele>23.737092</ele>
<time>2026-07-16T10:13:27.000Z</time>
</trkpt>
<trkpt lat="57.236118" lon="9.580670">
<ele>23.753157</ele>
<time>2026-07-16T10:13:28.000Z</time>
</trkpt>
<trkpt lat="57.236172" lon="9.580718">
<ele>23.768245</ele>
<time>2026-07-16T10:13:29.000Z</time>
</trkpt>
<trkpt lat="57.236225" lon="9.580758">
<ele>23.782659</ele>
<time>2026-07-16T10:13:30.000Z</time>
</trkpt>
<trkpt lat="57.236275" lon="9.580805">
<ele>23.796783</ele>
<time>2026-07-16T10:13:31.000Z</time>
</trkpt>
<trkpt lat="57.236324" lon="9.580852">
<ele>23.810683</ele>
<time>2026-07-16T10:13:32.000Z</time>
</trkpt>
<trkpt lat="57.236374" lon="9.580895">
<ele>23.824569</ele>
<time>2026-07-16T10:13:33.000Z</time>
</trkpt>
<trkpt lat="57.236416" lon="9.580937">
<ele>23.836592</ele>
<time>2026-07-16T10:13:34.000Z</time>
</trkpt>
<trkpt lat="57.236462" lon="9.580983">
<ele>23.849761</ele>
<time>2026-07-16T10:13:35.000Z</time>
</trkpt>
<trkpt lat="57.236507" lon="9.581026">
<ele>23.862517</ele>
<time>2026-07-16T10:13:36.000Z</time>
</trkpt>
<trkpt lat="57.236549" lon="9.581068">
<ele>23.874540</ele>
<time>2026-07-16T10:13:37.000Z</time>
</trkpt>
<trkpt lat="57.236595" lon="9.581116">
<ele>23.887841</ele>
<time>2026-07-16T10:13:38.000Z</time>
</trkpt>
<trkpt lat="57.236637" lon="9.581162">
<ele>23.900134</ele>
<time>2026-07-16T10:13:39.000Z</time>
</trkpt>
<trkpt lat="57.236679" lon="9.581211">
<ele>23.902342</ele>
<time>2026-07-16T10:13:40.000Z</time>
</trkpt>
<trkpt lat="57.236721" lon="9.581262">
<ele>23.904096</ele>
<time>2026-07-16T10:13:41.000Z</time>
</trkpt>
<trkpt lat="57.236767" lon="9.581307">
<ele>23.905912</ele>
<time>2026-07-16T10:13:42.000Z</time>
</trkpt>
<trkpt lat="57.236813" lon="9.581356">
<ele>23.907764</ele>
<time>2026-07-16T10:13:43.000Z</time>
</trkpt>
<trkpt lat="57.236858" lon="9.581406">
<ele>23.909596</ele>
<time>2026-07-16T10:13:44.000Z</time>
</trkpt>
<trkpt lat="57.236900" lon="9.581456">
<ele>23.911339</ele>
<time>2026-07-16T10:13:45.000Z</time>
</trkpt>
<trkpt lat="57.236946" lon="9.581508">
<ele>23.913221</ele>
<time>2026-07-16T10:13:46.000Z</time>
</trkpt>
<trkpt lat="57.236996" lon="9.581559">
<ele>23.915213</ele>
<time>2026-07-16T10:13:47.000Z</time>
</trkpt>
<trkpt lat="57.237038" lon="9.581615">
<ele>23.917020</ele>
<time>2026-07-16T10:13:48.000Z</time>
</trkpt>
<trkpt lat="57.237083" lon="9.581670">
<ele>23.918903</ele>
<time>2026-07-16T10:13:49.000Z</time>
</trkpt>
<trkpt lat="57.237129" lon="9.581725">
<ele>23.920814</ele>
<time>2026-07-16T10:13:50.000Z</time>
</trkpt>
<trkpt lat="57.237175" lon="9.581779">
<ele>23.922716</ele>
<time>2026-07-16T10:13:51.000Z</time>
</trkpt>
<trkpt lat="57.237213" lon="9.581831">
<ele>23.924365</ele>
<time>2026-07-16T10:13:52.000Z</time>
</trkpt>
<trkpt lat="57.237263" lon="9.581886">
<ele>23.926396</ele>
<time>2026-07-16T10:13:53.000Z</time>
</trkpt>
<trkpt lat="57.237305" lon="9.581936">
<ele>23.928139</ele>
<time>2026-07-16T10:13:54.000Z</time>
</trkpt>
<trkpt lat="57.237350" lon="9.581984">
<ele>23.929951</ele>
<time>2026-07-16T10:13:55.000Z</time>
</trkpt>
<trkpt lat="57.237400" lon="9.582034">
<ele>23.931935</ele>
<time>2026-07-16T10:13:56.000Z</time>
</trkpt>
<trkpt lat="57.237446" lon="9.582087">
<ele>23.933826</ele>
<time>2026-07-16T10:13:57.000Z</time>
</trkpt>
<trkpt lat="57.237499" lon="9.582146">
<ele>23.935985</ele>
<time>2026-07-16T10:13:58.000Z</time>
</trkpt>
<trkpt lat="57.237549" lon="9.582205">
<ele>23.938055</ele>
<time>2026-07-16T10:13:59.000Z</time>
</trkpt>
<trkpt lat="57.237587" lon="9.582252">
<ele>23.939650</ele>
<time>2026-07-16T10:14:00.000Z</time>
</trkpt>
<trkpt lat="57.237633" lon="9.582303">
<ele>23.941522</ele>
<time>2026-07-16T10:14:01.000Z</time>
</trkpt>
<trkpt lat="57.237682" lon="9.582351">
<ele>23.943457</ele>
<time>2026-07-16T10:14:02.000Z</time>
</trkpt>
<trkpt lat="57.237724" lon="9.582396">
<ele>23.945151</ele>
<time>2026-07-16T10:14:03.000Z</time>
</trkpt>
<trkpt lat="57.237770" lon="9.582441">
<ele>23.946967</ele>
<time>2026-07-16T10:14:04.000Z</time>
</trkpt>
<trkpt lat="57.237812" lon="9.582479">
<ele>23.948598</ele>
<time>2026-07-16T10:14:05.000Z</time>
</trkpt>
<trkpt lat="57.237858" lon="9.582517">
<ele>23.950356</ele>
<time>2026-07-16T10:14:06.000Z</time>
</trkpt>
<trkpt lat="57.237896" lon="9.582552">
<ele>23.951837</ele>
<time>2026-07-16T10:14:07.000Z</time>
</trkpt>
<trkpt lat="57.237942" lon="9.582599">
<ele>23.953671</ele>
<time>2026-07-16T10:14:08.000Z</time>
</trkpt>
<trkpt lat="57.237991" lon="9.582652">
<ele>23.955652</ele>
<time>2026-07-16T10:14:09.000Z</time>
</trkpt>
<trkpt lat="57.238037" lon="9.582705">
<ele>23.957544</ele>
<time>2026-07-16T10:14:10.000Z</time>
</trkpt>
<trkpt lat="57.238083" lon="9.582756">
<ele>23.959415</ele>
<time>2026-07-16T10:14:11.000Z</time>
</trkpt>
<trkpt lat="57.238121" lon="9.582795">
<ele>23.960932</ele>
<time>2026-07-16T10:14:12.000Z</time>
</trkpt>
<trkpt lat="57.238163" lon="9.582836">
<ele>23.962589</ele>
<time>2026-07-16T10:14:13.000Z</time>
</trkpt>
<trkpt lat="57.238201" lon="9.582882">
<ele>23.970257</ele>
<time>2026-07-16T10:14:14.000Z</time>
</trkpt>
<trkpt lat="57.238239" lon="9.582927">
<ele>23.984874</ele>
<time>2026-07-16T10:14:15.000Z</time>
</trkpt>
<trkpt lat="57.238277" lon="9.582968">
<ele>23.999125</ele>
<time>2026-07-16T10:14:16.000Z</time>
</trkpt>
<trkpt lat="57.238319" lon="9.583006">
<ele>24.014269</ele>
<time>2026-07-16T10:14:17.000Z</time>
</trkpt>
<trkpt lat="57.238361" lon="9.583039">
<ele>24.029050</ele>
<time>2026-07-16T10:14:18.000Z</time>
</trkpt>
<trkpt lat="57.238403" lon="9.583080">
<ele>24.044433</ele>
<time>2026-07-16T10:14:19.000Z</time>
</trkpt>
<trkpt lat="57.238445" lon="9.583117">
<ele>24.059501</ele>
<time>2026-07-16T10:14:20.000Z</time>
</trkpt>
<trkpt lat="57.238495" lon="9.583151">
<ele>24.076756</ele>
<time>2026-07-16T10:14:21.000Z</time>
</trkpt>
<trkpt lat="57.238533" lon="9.583182">
<ele>24.090208</ele>
<time>2026-07-16T10:14:22.000Z</time>
</trkpt>
<trkpt lat="57.238579" lon="9.583218">
<ele>24.106386</ele>
<time>2026-07-16T10:14:23.000Z</time>
</trkpt>
<trkpt lat="57.238621" lon="9.583252">
<ele>24.121236</ele>
<time>2026-07-16T10:14:24.000Z</time>
</trkpt>
<trkpt lat="57.238670" lon="9.583284">
<ele>24.138067</ele>
<time>2026-07-16T10:14:25.000Z</time>
</trkpt>
<trkpt lat="57.238712" lon="9.583313">
<ele>24.152587</ele>
<time>2026-07-16T10:14:26.000Z</time>
</trkpt>
<trkpt lat="57.238758" lon="9.583344">
<ele>24.168444</ele>
<time>2026-07-16T10:14:27.000Z</time>
</trkpt>
<trkpt lat="57.238800" lon="9.583382">
<ele>24.183589</ele>
<time>2026-07-16T10:14:28.000Z</time>
</trkpt>
<trkpt lat="57.238846" lon="9.583424">
<ele>24.200205</ele>
<time>2026-07-16T10:14:29.000Z</time>
</trkpt>
<trkpt lat="57.238888" lon="9.583464">
<ele>24.215507</ele>
<time>2026-07-16T10:14:30.000Z</time>
</trkpt>
<trkpt lat="57.238934" lon="9.583503">
<ele>24.231897</ele>
<time>2026-07-16T10:14:31.000Z</time>
</trkpt>
<trkpt lat="57.238972" lon="9.583542">
<ele>24.245975</ele>
<time>2026-07-16T10:14:32.000Z</time>
</trkpt>
<trkpt lat="57.239021" lon="9.583587">
<ele>24.263695</ele>
<time>2026-07-16T10:14:33.000Z</time>
</trkpt>
<trkpt lat="57.239067" lon="9.583627">
<ele>24.280159</ele>
<time>2026-07-16T10:14:34.000Z</time>
</trkpt>
<trkpt lat="57.239109" lon="9.583664">
<ele>24.295228</ele>
<time>2026-07-16T10:14:35.000Z</time>
</trkpt>
<trkpt lat="57.239151" lon="9.583701">
<ele>24.310296</ele>
<time>2026-07-16T10:14:36.000Z</time>
</trkpt>
<trkpt lat="57.239197" lon="9.583740">
<ele>24.326686</ele>
<time>2026-07-16T10:14:37.000Z</time>
</trkpt>
<trkpt lat="57.239243" lon="9.583779">
<ele>24.343077</ele>
<time>2026-07-16T10:14:38.000Z</time>
</trkpt>
<trkpt lat="57.239281" lon="9.583813">
<ele>24.356750</ele>
<time>2026-07-16T10:14:39.000Z</time>
</trkpt>
<trkpt lat="57.239327" lon="9.583856">
<ele>24.373445</ele>
<time>2026-07-16T10:14:40.000Z</time>
</trkpt>
<trkpt lat="57.239372" lon="9.583896">
<ele>24.389616</ele>
<time>2026-07-16T10:14:41.000Z</time>
</trkpt>
<trkpt lat="57.239414" lon="9.583934">
<ele>24.404761</ele>
<time>2026-07-16T10:14:42.000Z</time>
</trkpt>
<trkpt lat="57.239460" lon="9.583972">
<ele>24.421079</ele>
<time>2026-07-16T10:14:43.000Z</time>
</trkpt>
<trkpt lat="57.239506" lon="9.584015">
<ele>24.437774</ele>
<time>2026-07-16T10:14:44.000Z</time>
</trkpt>
<trkpt lat="57.239548" lon="9.584050">
<ele>24.452695</ele>
<time>2026-07-16T10:14:45.000Z</time>
</trkpt>
<trkpt lat="57.239593" lon="9.584092">
<ele>24.469021</ele>
<time>2026-07-16T10:14:46.000Z</time>
</trkpt>
<trkpt lat="57.239643" lon="9.584130">
<ele>24.486530</ele>
<time>2026-07-16T10:14:47.000Z</time>
</trkpt>
<trkpt lat="57.239689" lon="9.584172">
<ele>24.503146</ele>
<time>2026-07-16T10:14:48.000Z</time>
</trkpt>
<trkpt lat="57.239735" lon="9.584209">
<ele>24.519394</ele>
<time>2026-07-16T10:14:49.000Z</time>
</trkpt>
<trkpt lat="57.239773" lon="9.584249">
<ele>24.533556</ele>
<time>2026-07-16T10:14:50.000Z</time>
</trkpt>
<trkpt lat="57.239811" lon="9.584284">
<ele>24.547770</ele>
<time>2026-07-16T10:14:51.000Z</time>
</trkpt>
<trkpt lat="57.239857" lon="9.584316">
<ele>24.569076</ele>
<time>2026-07-16T10:14:52.000Z</time>
</trkpt>
<trkpt lat="57.239903" lon="9.584352">
<ele>24.590731</ele>
<time>2026-07-16T10:14:53.000Z</time>
</trkpt>
<trkpt lat="57.239944" lon="9.584386">
<ele>24.610211</ele>
<time>2026-07-16T10:14:54.000Z</time>
</trkpt>
<trkpt lat="57.239990" lon="9.584421">
<ele>24.631775</ele>
<time>2026-07-16T10:14:55.000Z</time>
</trkpt>
<trkpt lat="57.240032" lon="9.584455">
<ele>24.651652</ele>
<time>2026-07-16T10:14:56.000Z</time>
</trkpt>
<trkpt lat="57.240074" lon="9.584485">
<ele>24.671171</ele>
<time>2026-07-16T10:14:57.000Z</time>
</trkpt>
<trkpt lat="57.240120" lon="9.584521">
<ele>24.692825</ele>
<time>2026-07-16T10:14:58.000Z</time>
</trkpt>
<trkpt lat="57.240158" lon="9.584552">
<ele>24.710831</ele>
<time>2026-07-16T10:14:59.000Z</time>
</trkpt>
<trkpt lat="57.240204" lon="9.584585">
<ele>24.732221</ele>
<time>2026-07-16T10:15:00.000Z</time>
</trkpt>
<trkpt lat="57.240250" lon="9.584620">
<ele>24.753786</ele>
<time>2026-07-16T10:15:01.000Z</time>
</trkpt>
<trkpt lat="57.240295" lon="9.584657">
<ele>24.775136</ele>
<time>2026-07-16T10:15:02.000Z</time>
</trkpt>
<trkpt lat="57.240337" lon="9.584696">
<ele>24.795511</ele>
<time>2026-07-16T10:15:03.000Z</time>
</trkpt>
<trkpt lat="57.240383" lon="9.584737">
<ele>24.817650</ele>
<time>2026-07-16T10:15:04.000Z</time>
</trkpt>
<trkpt lat="57.240417" lon="9.584773">
<ele>24.834636</ele>
<time>2026-07-16T10:15:05.000Z</time>
</trkpt>
<trkpt lat="57.240459" lon="9.584812">
<ele>24.855011</ele>
<time>2026-07-16T10:15:06.000Z</time>
</trkpt>
<trkpt lat="57.240498" lon="9.584851">
<ele>24.874233</ele>
<time>2026-07-16T10:15:07.000Z</time>
</trkpt>
<trkpt lat="57.240543" lon="9.584895">
<ele>24.896302</ele>
<time>2026-07-16T10:15:08.000Z</time>
</trkpt>
<trkpt lat="57.240585" lon="9.584933">
<ele>24.916573</ele>
<time>2026-07-16T10:15:09.000Z</time>
</trkpt>
<trkpt lat="57.240627" lon="9.584975">
<ele>24.937274</ele>
<time>2026-07-16T10:15:10.000Z</time>
</trkpt>
<trkpt lat="57.240669" lon="9.585022">
<ele>24.958558</ele>
<time>2026-07-16T10:15:11.000Z</time>
</trkpt>
<trkpt lat="57.240715" lon="9.585074">
<ele>24.981933</ele>
<time>2026-07-16T10:15:12.000Z</time>
</trkpt>
<trkpt lat="57.240753" lon="9.585119">
<ele>25.001497</ele>
<time>2026-07-16T10:15:13.000Z</time>
</trkpt>
<trkpt lat="57.240803" lon="9.585178">
<ele>25.027213</ele>
<time>2026-07-16T10:15:14.000Z</time>
</trkpt>
<trkpt lat="57.240841" lon="9.585235">
<ele>25.048428</ele>
<time>2026-07-16T10:15:15.000Z</time>
</trkpt>
<trkpt lat="57.240879" lon="9.585286">
<ele>25.068786</ele>
<time>2026-07-16T10:15:16.000Z</time>
</trkpt>
<trkpt lat="57.240921" lon="9.585338">
<ele>25.090701</ele>
<time>2026-07-16T10:15:17.000Z</time>
</trkpt>
<trkpt lat="57.240963" lon="9.585393">
<ele>25.113015</ele>
<time>2026-07-16T10:15:18.000Z</time>
</trkpt>
<trkpt lat="57.241001" lon="9.585458">
<ele>25.135460</ele>
<time>2026-07-16T10:15:19.000Z</time>
</trkpt>
<trkpt lat="57.241043" lon="9.585520">
<ele>25.158762</ele>
<time>2026-07-16T10:15:20.000Z</time>
</trkpt>
<trkpt lat="57.241081" lon="9.585582">
<ele>25.180735</ele>
<time>2026-07-16T10:15:21.000Z</time>
</trkpt>
<trkpt lat="57.241123" lon="9.585645">
<ele>25.204184</ele>
<time>2026-07-16T10:15:22.000Z</time>
</trkpt>
<trkpt lat="57.241165" lon="9.585707">
<ele>25.227485</ele>
<time>2026-07-16T10:15:23.000Z</time>
</trkpt>
<trkpt lat="57.241200" lon="9.585763">
<ele>25.247553</ele>
<time>2026-07-16T10:15:24.000Z</time>
</trkpt>
<trkpt lat="57.241238" lon="9.585816">
<ele>25.268190</ele>
<time>2026-07-16T10:15:25.000Z</time>
</trkpt>
<trkpt lat="57.241276" lon="9.585875">
<ele>25.289704</ele>
<time>2026-07-16T10:15:26.000Z</time>
</trkpt>
<trkpt lat="57.241314" lon="9.585936">
<ele>25.311523</ele>
<time>2026-07-16T10:15:27.000Z</time>
</trkpt>
<trkpt lat="57.241348" lon="9.585993">
<ele>25.326570</ele>
<time>2026-07-16T10:15:28.000Z</time>
</trkpt>
<trkpt lat="57.241394" lon="9.586052">
<ele>25.330535</ele>
<time>2026-07-16T10:15:29.000Z</time>
</trkpt>
<trkpt lat="57.241428" lon="9.586110">
<ele>25.333812</ele>
<time>2026-07-16T10:15:30.000Z</time>
</trkpt>
<trkpt lat="57.241466" lon="9.586172">
<ele>25.337402</ele>
<time>2026-07-16T10:15:31.000Z</time>
</trkpt>
<trkpt lat="57.241505" lon="9.586227">
<ele>25.340876</ele>
<time>2026-07-16T10:15:32.000Z</time>
</trkpt>
<trkpt lat="57.241543" lon="9.586282">
<ele>25.344295</ele>
<time>2026-07-16T10:15:33.000Z</time>
</trkpt>
<trkpt lat="57.241577" lon="9.586337">
<ele>25.347495</ele>
<time>2026-07-16T10:15:34.000Z</time>
</trkpt>
<trkpt lat="57.241611" lon="9.586392">
<ele>25.350695</ele>
<time>2026-07-16T10:15:35.000Z</time>
</trkpt>
<trkpt lat="57.241650" lon="9.586447">
<ele>25.354169</ele>
<time>2026-07-16T10:15:36.000Z</time>
</trkpt>
<trkpt lat="57.241688" lon="9.586509">
<ele>25.357759</ele>
<time>2026-07-16T10:15:37.000Z</time>
</trkpt>
<trkpt lat="57.241726" lon="9.586569">
<ele>25.361299</ele>
<time>2026-07-16T10:15:38.000Z</time>
</trkpt>
<trkpt lat="57.241768" lon="9.586629">
<ele>25.365058</ele>
<time>2026-07-16T10:15:39.000Z</time>
</trkpt>
<trkpt lat="57.241806" lon="9.586684">
<ele>25.368477</ele>
<time>2026-07-16T10:15:40.000Z</time>
</trkpt>
<trkpt lat="57.241844" lon="9.586738">
<ele>25.371872</ele>
<time>2026-07-16T10:15:41.000Z</time>
</trkpt>
<trkpt lat="57.241886" lon="9.586785">
<ele>25.375349</ele>
<time>2026-07-16T10:15:42.000Z</time>
</trkpt>
<trkpt lat="57.241924" lon="9.586827">
<ele>25.378485</ele>
<time>2026-07-16T10:15:43.000Z</time>
</trkpt>
<trkpt lat="57.241962" lon="9.586860">
<ele>25.381458</ele>
<time>2026-07-16T10:15:44.000Z</time>
</trkpt>
<trkpt lat="57.241997" lon="9.586887">
<ele>25.384144</ele>
<time>2026-07-16T10:15:45.000Z</time>
</trkpt>
<trkpt lat="57.242027" lon="9.586913">
<ele>25.386491</ele>
<time>2026-07-16T10:15:46.000Z</time>
</trkpt>
<trkpt lat="57.242050" lon="9.586947">
<ele>25.388577</ele>
<time>2026-07-16T10:15:47.000Z</time>
</trkpt>
<trkpt lat="57.242069" lon="9.586990">
<ele>25.390704</ele>
<time>2026-07-16T10:15:48.000Z</time>
</trkpt>
<trkpt lat="57.242084" lon="9.587050">
<ele>25.393237</ele>
<time>2026-07-16T10:15:49.000Z</time>
</trkpt>
<trkpt lat="57.242096" lon="9.587115">
<ele>25.395869</ele>
<time>2026-07-16T10:15:50.000Z</time>
</trkpt>
<trkpt lat="57.242096" lon="9.587199">
<ele>25.399088</ele>
<time>2026-07-16T10:15:51.000Z</time>
</trkpt>
<trkpt lat="57.242100" lon="9.587272">
<ele>25.401900</ele>
<time>2026-07-16T10:15:52.000Z</time>
</trkpt>
<trkpt lat="57.242104" lon="9.587352">
<ele>25.404978</ele>
<time>2026-07-16T10:15:53.000Z</time>
</trkpt>
<trkpt lat="57.242111" lon="9.587426">
<ele>25.407857</ele>
<time>2026-07-16T10:15:54.000Z</time>
</trkpt>
<trkpt lat="57.242111" lon="9.587500">
<ele>25.410693</ele>
<time>2026-07-16T10:15:55.000Z</time>
</trkpt>
<trkpt lat="57.242107" lon="9.587569">
<ele>25.413352</ele>
<time>2026-07-16T10:15:56.000Z</time>
</trkpt>
<trkpt lat="57.242107" lon="9.587642">
<ele>25.416150</ele>
<time>2026-07-16T10:15:57.000Z</time>
</trkpt>
<trkpt lat="57.242104" lon="9.587704">
<ele>25.418535</ele>
<time>2026-07-16T10:15:58.000Z</time>
</trkpt>
<trkpt lat="57.242100" lon="9.587771">
<ele>25.421118</ele>
<time>2026-07-16T10:15:59.000Z</time>
</trkpt>
<trkpt lat="57.242104" lon="9.587837">
<ele>25.423663</ele>
<time>2026-07-16T10:16:00.000Z</time>
</trkpt>
<trkpt lat="57.242107" lon="9.587908">
<ele>25.426392</ele>
<time>2026-07-16T10:16:01.000Z</time>
</trkpt>
<trkpt lat="57.242111" lon="9.587969">
<ele>25.428747</ele>
<time>2026-07-16T10:16:02.000Z</time>
</trkpt>
<trkpt lat="57.242119" lon="9.588040">
<ele>25.431526</ele>
<time>2026-07-16T10:16:03.000Z</time>
</trkpt>
<trkpt lat="57.242123" lon="9.588110">
<ele>25.434223</ele>
<time>2026-07-16T10:16:04.000Z</time>
</trkpt>
<trkpt lat="57.242123" lon="9.588182">
<ele>25.436983</ele>
<time>2026-07-16T10:16:05.000Z</time>
</trkpt>
<trkpt lat="57.242126" lon="9.588259">
<ele>25.439941</ele>
<time>2026-07-16T10:16:06.000Z</time>
</trkpt>
<trkpt lat="57.242126" lon="9.588348">
<ele>25.443352</ele>
<time>2026-07-16T10:16:07.000Z</time>
</trkpt>
<trkpt lat="57.242123" lon="9.588439">
<ele>25.446845</ele>
<time>2026-07-16T10:16:08.000Z</time>
</trkpt>
<trkpt lat="57.242123" lon="9.588534">
<ele>25.450486</ele>
<time>2026-07-16T10:16:09.000Z</time>
</trkpt>
<trkpt lat="57.242119" lon="9.588631">
<ele>25.456413</ele>
<time>2026-07-16T10:16:10.000Z</time>
</trkpt>
<trkpt lat="57.242123" lon="9.588726">
<ele>25.466710</ele>
<time>2026-07-16T10:16:11.000Z</time>
</trkpt>
<trkpt lat="57.242123" lon="9.588823">
<ele>25.477192</ele>
<time>2026-07-16T10:16:12.000Z</time>
</trkpt>
<trkpt lat="57.242123" lon="9.588921">
<ele>25.487782</ele>
<time>2026-07-16T10:16:13.000Z</time>
</trkpt>
<trkpt lat="57.242119" lon="9.589018">
<ele>25.498294</ele>
<time>2026-07-16T10:16:14.000Z</time>
</trkpt>
<trkpt lat="57.242115" lon="9.589111">
<ele>25.508375</ele>
<time>2026-07-16T10:16:15.000Z</time>
</trkpt>
<trkpt lat="57.242115" lon="9.589208">
<ele>25.518857</ele>
<time>2026-07-16T10:16:16.000Z</time>
</trkpt>
<trkpt lat="57.242111" lon="9.589301">
<ele>25.528939</ele>
<time>2026-07-16T10:16:17.000Z</time>
</trkpt>
<trkpt lat="57.242107" lon="9.589390">
<ele>25.538589</ele>
<time>2026-07-16T10:16:18.000Z</time>
</trkpt>
<trkpt lat="57.242104" lon="9.589479">
<ele>25.548225</ele>
<time>2026-07-16T10:16:19.000Z</time>
</trkpt>
<trkpt lat="57.242104" lon="9.589568">
<ele>25.557843</ele>
<time>2026-07-16T10:16:20.000Z</time>
</trkpt>
<trkpt lat="57.242100" lon="9.589660">
<ele>25.567816</ele>
<time>2026-07-16T10:16:21.000Z</time>
</trkpt>
<trkpt lat="57.242104" lon="9.589747">
<ele>25.577252</ele>
<time>2026-07-16T10:16:22.000Z</time>
</trkpt>
<trkpt lat="57.242104" lon="9.589831">
<ele>25.586329</ele>
<time>2026-07-16T10:16:23.000Z</time>
</trkpt>
<trkpt lat="57.242100" lon="9.589926">
<ele>25.596626</ele>
<time>2026-07-16T10:16:24.000Z</time>
</trkpt>
<trkpt lat="57.242100" lon="9.590014">
<ele>25.606135</ele>
<time>2026-07-16T10:16:25.000Z</time>
</trkpt>
<trkpt lat="57.242096" lon="9.590104">
<ele>25.615893</ele>
<time>2026-07-16T10:16:26.000Z</time>
</trkpt>
<trkpt lat="57.242092" lon="9.590193">
<ele>25.625544</ele>
<time>2026-07-16T10:16:27.000Z</time>
</trkpt>
<trkpt lat="57.242092" lon="9.590284">
<ele>25.635377</ele>
<time>2026-07-16T10:16:28.000Z</time>
</trkpt>
<trkpt lat="57.242092" lon="9.590372">
<ele>25.644887</ele>
<time>2026-07-16T10:16:29.000Z</time>
</trkpt>
<trkpt lat="57.242096" lon="9.590459">
<ele>25.654322</ele>
<time>2026-07-16T10:16:30.000Z</time>
</trkpt>
<trkpt lat="57.242100" lon="9.590549">
<ele>25.664080</ele>
<time>2026-07-16T10:16:31.000Z</time>
</trkpt>
<trkpt lat="57.242104" lon="9.590638">
<ele>25.673731</ele>
<time>2026-07-16T10:16:32.000Z</time>
</trkpt>
<trkpt lat="57.242111" lon="9.590718">
<ele>25.682488</ele>
<time>2026-07-16T10:16:33.000Z</time>
</trkpt>
<trkpt lat="57.242119" lon="9.590802">
<ele>25.691705</ele>
<time>2026-07-16T10:16:34.000Z</time>
</trkpt>
<trkpt lat="57.242130" lon="9.590890">
<ele>25.701465</ele>
<time>2026-07-16T10:16:35.000Z</time>
</trkpt>
<trkpt lat="57.242142" lon="9.590976">
<ele>25.711062</ele>
<time>2026-07-16T10:16:36.000Z</time>
</trkpt>
<trkpt lat="57.242149" lon="9.591054">
<ele>25.719606</ele>
<time>2026-07-16T10:16:37.000Z</time>
</trkpt>
<trkpt lat="57.242161" lon="9.591139">
<ele>25.729098</ele>
<time>2026-07-16T10:16:38.000Z</time>
</trkpt>
<trkpt lat="57.242172" lon="9.591226">
<ele>25.738753</ele>
<time>2026-07-16T10:16:39.000Z</time>
</trkpt>
<trkpt lat="57.242184" lon="9.591305">
<ele>25.747620</ele>
<time>2026-07-16T10:16:40.000Z</time>
</trkpt>
<trkpt lat="57.242191" lon="9.591386">
<ele>25.756484</ele>
<time>2026-07-16T10:16:41.000Z</time>
</trkpt>
<trkpt lat="57.242199" lon="9.591464">
<ele>25.765063</ele>
<time>2026-07-16T10:16:42.000Z</time>
</trkpt>
<trkpt lat="57.242207" lon="9.591553">
<ele>25.774812</ele>
<time>2026-07-16T10:16:43.000Z</time>
</trkpt>
<trkpt lat="57.242210" lon="9.591635">
<ele>25.783693</ele>
<time>2026-07-16T10:16:44.000Z</time>
</trkpt>
<trkpt lat="57.242214" lon="9.591719">
<ele>25.792805</ele>
<time>2026-07-16T10:16:45.000Z</time>
</trkpt>
<trkpt lat="57.242218" lon="9.591798">
<ele>25.801379</ele>
<time>2026-07-16T10:16:46.000Z</time>
</trkpt>
<trkpt lat="57.242218" lon="9.591889">
<ele>25.811213</ele>
<time>2026-07-16T10:16:47.000Z</time>
</trkpt>
<trkpt lat="57.242214" lon="9.591987">
<ele>25.824420</ele>
<time>2026-07-16T10:16:48.000Z</time>
</trkpt>
<trkpt lat="57.242210" lon="9.592084">
<ele>25.837758</ele>
<time>2026-07-16T10:16:49.000Z</time>
</trkpt>
<trkpt lat="57.242207" lon="9.592175">
<ele>25.850259</ele>
<time>2026-07-16T10:16:50.000Z</time>
</trkpt>
<trkpt lat="57.242203" lon="9.592258">
<ele>25.861685</ele>
<time>2026-07-16T10:16:51.000Z</time>
</trkpt>
<trkpt lat="57.242195" lon="9.592356">
<ele>25.875274</ele>
<time>2026-07-16T10:16:52.000Z</time>
</trkpt>
<trkpt lat="57.242191" lon="9.592446">
<ele>25.887656</ele>
<time>2026-07-16T10:16:53.000Z</time>
</trkpt>
<trkpt lat="57.242184" lon="9.592540">
<ele>25.900667</ele>
<time>2026-07-16T10:16:54.000Z</time>
</trkpt>
<trkpt lat="57.242180" lon="9.592624">
<ele>25.912229</ele>
<time>2026-07-16T10:16:55.000Z</time>
</trkpt>
<trkpt lat="57.242180" lon="9.592705">
<ele>25.923335</ele>
<time>2026-07-16T10:16:56.000Z</time>
</trkpt>
<trkpt lat="57.242184" lon="9.592783">
<ele>25.934078</ele>
<time>2026-07-16T10:16:57.000Z</time>
</trkpt>
<trkpt lat="57.242184" lon="9.592861">
<ele>25.944773</ele>
<time>2026-07-16T10:16:58.000Z</time>
</trkpt>
<trkpt lat="57.242184" lon="9.592949">
<ele>25.956840</ele>
<time>2026-07-16T10:16:59.000Z</time>
</trkpt>
<trkpt lat="57.242184" lon="9.593031">
<ele>25.968083</ele>
<time>2026-07-16T10:17:00.000Z</time>
</trkpt>
<trkpt lat="57.242188" lon="9.593110">
<ele>25.978963</ele>
<time>2026-07-16T10:17:01.000Z</time>
</trkpt>
<trkpt lat="57.242195" lon="9.593173">
<ele>25.987781</ele>
<time>2026-07-16T10:17:02.000Z</time>
</trkpt>
<trkpt lat="57.242203" lon="9.593217">
<ele>25.994146</ele>
<time>2026-07-16T10:17:03.000Z</time>
</trkpt>
<trkpt lat="57.242210" lon="9.593247">
<ele>25.998625</ele>
<time>2026-07-16T10:17:04.000Z</time>
</trkpt>
<trkpt lat="57.242195" lon="9.592986">
<ele>26.034614</ele>
<time>2026-07-16T10:20:16.000Z</time>
</trkpt>
<trkpt lat="57.242195" lon="9.592946">
<ele>26.040099</ele>
<time>2026-07-16T10:20:17.000Z</time>
</trkpt>
<trkpt lat="57.242199" lon="9.592876">
<ele>26.049750</ele>
<time>2026-07-16T10:20:18.000Z</time>
</trkpt>
<trkpt lat="57.242207" lon="9.592809">
<ele>26.059158</ele>
<time>2026-07-16T10:20:19.000Z</time>
</trkpt>
<trkpt lat="57.242214" lon="9.592750">
<ele>26.067440</ele>
<time>2026-07-16T10:20:20.000Z</time>
</trkpt>
<trkpt lat="57.242222" lon="9.592683">
<ele>26.076848</ele>
<time>2026-07-16T10:20:21.000Z</time>
</trkpt>
<trkpt lat="57.242222" lon="9.592615">
<ele>26.086172</ele>
<time>2026-07-16T10:20:22.000Z</time>
</trkpt>
<trkpt lat="57.242226" lon="9.592540">
<ele>26.096505</ele>
<time>2026-07-16T10:20:23.000Z</time>
</trkpt>
<trkpt lat="57.242229" lon="9.592456">
<ele>26.108048</ele>
<time>2026-07-16T10:20:24.000Z</time>
</trkpt>
<trkpt lat="57.242233" lon="9.592373">
<ele>26.119474</ele>
<time>2026-07-16T10:20:25.000Z</time>
</trkpt>
<trkpt lat="57.242233" lon="9.592293">
<ele>26.130443</ele>
<time>2026-07-16T10:20:26.000Z</time>
</trkpt>
<trkpt lat="57.242237" lon="9.592212">
<ele>26.141595</ele>
<time>2026-07-16T10:20:27.000Z</time>
</trkpt>
<trkpt lat="57.242241" lon="9.592139">
<ele>26.151656</ele>
<time>2026-07-16T10:20:28.000Z</time>
</trkpt>
<trkpt lat="57.242245" lon="9.592070">
<ele>26.161171</ele>
<time>2026-07-16T10:20:29.000Z</time>
</trkpt>
<trkpt lat="57.242245" lon="9.591998">
<ele>26.171043</ele>
<time>2026-07-16T10:20:30.000Z</time>
</trkpt>
<trkpt lat="57.242245" lon="9.591914">
<ele>26.182561</ele>
<time>2026-07-16T10:20:31.000Z</time>
</trkpt>
<trkpt lat="57.242241" lon="9.591830">
<ele>26.194123</ele>
<time>2026-07-16T10:20:32.000Z</time>
</trkpt>
<trkpt lat="57.242237" lon="9.591749">
<ele>26.205276</ele>
<time>2026-07-16T10:20:33.000Z</time>
</trkpt>
<trkpt lat="57.242233" lon="9.591675">
<ele>26.215473</ele>
<time>2026-07-16T10:20:34.000Z</time>
</trkpt>
<trkpt lat="57.242229" lon="9.591597">
<ele>26.226216</ele>
<time>2026-07-16T10:20:35.000Z</time>
</trkpt>
<trkpt lat="57.242222" lon="9.591520">
<ele>26.236922</ele>
<time>2026-07-16T10:20:36.000Z</time>
</trkpt>
<trkpt lat="57.242214" lon="9.591438">
<ele>26.248347</ele>
<time>2026-07-16T10:20:37.000Z</time>
</trkpt>
<trkpt lat="57.242207" lon="9.591360">
<ele>26.259188</ele>
<time>2026-07-16T10:20:38.000Z</time>
</trkpt>
<trkpt lat="57.242195" lon="9.591278">
<ele>26.265415</ele>
<time>2026-07-16T10:20:39.000Z</time>
</trkpt>
<trkpt lat="57.242188" lon="9.591194">
<ele>26.254777</ele>
<time>2026-07-16T10:20:40.000Z</time>
</trkpt>
<trkpt lat="57.242180" lon="9.591105">
<ele>26.243485</ele>
<time>2026-07-16T10:20:41.000Z</time>
</trkpt>
<trkpt lat="57.242172" lon="9.591015">
<ele>26.232068</ele>
<time>2026-07-16T10:20:42.000Z</time>
</trkpt>
<trkpt lat="57.242161" lon="9.590928">
<ele>26.220885</ele>
<time>2026-07-16T10:20:43.000Z</time>
</trkpt>
<trkpt lat="57.242153" lon="9.590840">
<ele>26.209716</ele>
<time>2026-07-16T10:20:44.000Z</time>
</trkpt>
<trkpt lat="57.242142" lon="9.590760">
<ele>26.199384</ele>
<time>2026-07-16T10:20:45.000Z</time>
</trkpt>
<trkpt lat="57.242134" lon="9.590677">
<ele>26.188832</ele>
<time>2026-07-16T10:20:46.000Z</time>
</trkpt>
<trkpt lat="57.242126" lon="9.590597">
<ele>26.178648</ele>
<time>2026-07-16T10:20:47.000Z</time>
</trkpt>
<trkpt lat="57.242123" lon="9.590522">
<ele>26.169235</ele>
<time>2026-07-16T10:20:48.000Z</time>
</trkpt>
<trkpt lat="57.242119" lon="9.590443">
<ele>26.159303</ele>
<time>2026-07-16T10:20:49.000Z</time>
</trkpt>
<trkpt lat="57.242115" lon="9.590367">
<ele>26.149746</ele>
<time>2026-07-16T10:20:50.000Z</time>
</trkpt>
<trkpt lat="57.242115" lon="9.590286">
<ele>26.139607</ele>
<time>2026-07-16T10:20:51.000Z</time>
</trkpt>
<trkpt lat="57.242111" lon="9.590208">
<ele>26.129800</ele>
<time>2026-07-16T10:20:52.000Z</time>
</trkpt>
<trkpt lat="57.242107" lon="9.590121">
<ele>26.118871</ele>
<time>2026-07-16T10:20:53.000Z</time>
</trkpt>
<trkpt lat="57.242107" lon="9.590036">
<ele>26.108232</ele>
<time>2026-07-16T10:20:54.000Z</time>
</trkpt>
<trkpt lat="57.242111" lon="9.589950">
<ele>26.097427</ele>
<time>2026-07-16T10:20:55.000Z</time>
</trkpt>
<trkpt lat="57.242115" lon="9.589870">
<ele>26.087371</ele>
<time>2026-07-16T10:20:56.000Z</time>
</trkpt>
<trkpt lat="57.242119" lon="9.589782">
<ele>26.076317</ele>
<time>2026-07-16T10:20:57.000Z</time>
</trkpt>
<trkpt lat="57.242123" lon="9.589692">
<ele>26.065014</ele>
<time>2026-07-16T10:20:58.000Z</time>
</trkpt>
<trkpt lat="57.242126" lon="9.589600">
<ele>26.053478</ele>
<time>2026-07-16T10:20:59.000Z</time>
</trkpt>
<trkpt lat="57.242130" lon="9.589511">
<ele>26.042299</ele>
<time>2026-07-16T10:21:00.000Z</time>
</trkpt>
<trkpt lat="57.242130" lon="9.589416">
<ele>26.030408</ele>
<time>2026-07-16T10:21:01.000Z</time>
</trkpt>
<trkpt lat="57.242134" lon="9.589326">
<ele>26.019105</ele>
<time>2026-07-16T10:21:02.000Z</time>
</trkpt>
<trkpt lat="57.242138" lon="9.589241">
<ele>26.008425</ele>
<time>2026-07-16T10:21:03.000Z</time>
</trkpt>
<trkpt lat="57.242138" lon="9.589143">
<ele>25.996159</ele>
<time>2026-07-16T10:21:04.000Z</time>
</trkpt>
<trkpt lat="57.242142" lon="9.589050">
<ele>25.984481</ele>
<time>2026-07-16T10:21:05.000Z</time>
</trkpt>
<trkpt lat="57.242142" lon="9.588961">
<ele>25.973341</ele>
<time>2026-07-16T10:21:06.000Z</time>
</trkpt>
<trkpt lat="57.242142" lon="9.588873">
<ele>25.962326</ele>
<time>2026-07-16T10:21:07.000Z</time>
</trkpt>
<trkpt lat="57.242142" lon="9.588782">
<ele>25.950936</ele>
<time>2026-07-16T10:21:08.000Z</time>
</trkpt>
<trkpt lat="57.242138" lon="9.588685">
<ele>25.938759</ele>
<time>2026-07-16T10:21:09.000Z</time>
</trkpt>
<trkpt lat="57.242134" lon="9.588592">
<ele>25.927082</ele>
<time>2026-07-16T10:21:10.000Z</time>
</trkpt>
<trkpt lat="57.242134" lon="9.588502">
<ele>25.915816</ele>
<time>2026-07-16T10:21:11.000Z</time>
</trkpt>
<trkpt lat="57.242134" lon="9.588411">
<ele>25.904426</ele>
<time>2026-07-16T10:21:12.000Z</time>
</trkpt>
<trkpt lat="57.242134" lon="9.588324">
<ele>25.893536</ele>
<time>2026-07-16T10:21:13.000Z</time>
</trkpt>
<trkpt lat="57.242134" lon="9.588241">
<ele>25.883147</ele>
<time>2026-07-16T10:21:14.000Z</time>
</trkpt>
<trkpt lat="57.242138" lon="9.588158">
<ele>25.872717</ele>
<time>2026-07-16T10:21:15.000Z</time>
</trkpt>
<trkpt lat="57.242142" lon="9.588074">
<ele>25.862162</ele>
<time>2026-07-16T10:21:16.000Z</time>
</trkpt>
<trkpt lat="57.242142" lon="9.587991">
<ele>25.851968</ele>
<time>2026-07-16T10:21:17.000Z</time>
</trkpt>
<trkpt lat="57.242142" lon="9.587916">
<ele>25.854626</ele>
<time>2026-07-16T10:21:18.000Z</time>
</trkpt>
<trkpt lat="57.242149" lon="9.587833">
<ele>25.857603</ele>
<time>2026-07-16T10:21:19.000Z</time>
</trkpt>
<trkpt lat="57.242149" lon="9.587754">
<ele>25.860402</ele>
<time>2026-07-16T10:21:20.000Z</time>
</trkpt>
<trkpt lat="57.242153" lon="9.587674">
<ele>25.863250</ele>
<time>2026-07-16T10:21:21.000Z</time>
</trkpt>
<trkpt lat="57.242161" lon="9.587595">
<ele>25.866098</ele>
<time>2026-07-16T10:21:22.000Z</time>
</trkpt>
<trkpt lat="57.242168" lon="9.587521">
<ele>25.868760</ele>
<time>2026-07-16T10:21:23.000Z</time>
</trkpt>
<trkpt lat="57.242172" lon="9.587446">
<ele>25.871431</ele>
<time>2026-07-16T10:21:24.000Z</time>
</trkpt>
<trkpt lat="57.242172" lon="9.587367">
<ele>25.874231</ele>
<time>2026-07-16T10:21:25.000Z</time>
</trkpt>
<trkpt lat="57.242180" lon="9.587296">
<ele>25.876801</ele>
<time>2026-07-16T10:21:26.000Z</time>
</trkpt>
<trkpt lat="57.242191" lon="9.587229">
<ele>25.879282</ele>
<time>2026-07-16T10:21:27.000Z</time>
</trkpt>
<trkpt lat="57.242207" lon="9.587177">
<ele>25.881402</ele>
<time>2026-07-16T10:21:28.000Z</time>
</trkpt>
<trkpt lat="57.242222" lon="9.587146">
<ele>25.882876</ele>
<time>2026-07-16T10:21:29.000Z</time>
</trkpt>
<trkpt lat="57.242249" lon="9.587128">
<ele>25.884756</ele>
<time>2026-07-16T10:21:30.000Z</time>
</trkpt>
<trkpt lat="57.242279" lon="9.587117">
<ele>25.886759</ele>
<time>2026-07-16T10:21:31.000Z</time>
</trkpt>
<trkpt lat="57.242306" lon="9.587116">
<ele>25.888528</ele>
<time>2026-07-16T10:21:32.000Z</time>
</trkpt>
<trkpt lat="57.242329" lon="9.587118">
<ele>25.890036</ele>
<time>2026-07-16T10:21:33.000Z</time>
</trkpt>
<trkpt lat="57.242359" lon="9.587120">
<ele>25.892002</ele>
<time>2026-07-16T10:21:34.000Z</time>
</trkpt>
<trkpt lat="57.242390" lon="9.587118">
<ele>25.894034</ele>
<time>2026-07-16T10:21:35.000Z</time>
</trkpt>
<trkpt lat="57.242420" lon="9.587118">
<ele>25.895999</ele>
<time>2026-07-16T10:21:36.000Z</time>
</trkpt>
<trkpt lat="57.242451" lon="9.587118">
<ele>25.898029</ele>
<time>2026-07-16T10:21:37.000Z</time>
</trkpt>
<trkpt lat="57.242481" lon="9.587118">
<ele>25.899994</ele>
<time>2026-07-16T10:21:38.000Z</time>
</trkpt>
<trkpt lat="57.242512" lon="9.587116">
<ele>25.902025</ele>
<time>2026-07-16T10:21:39.000Z</time>
</trkpt>
<trkpt lat="57.242542" lon="9.587118">
<ele>25.903992</ele>
<time>2026-07-16T10:21:40.000Z</time>
</trkpt>
<trkpt lat="57.242573" lon="9.587120">
<ele>25.906023</ele>
<time>2026-07-16T10:21:41.000Z</time>
</trkpt>
<trkpt lat="57.242599" lon="9.587124">
<ele>25.907732</ele>
<time>2026-07-16T10:21:42.000Z</time>
</trkpt>
<trkpt lat="57.242626" lon="9.587131">
<ele>25.909518</ele>
<time>2026-07-16T10:21:43.000Z</time>
</trkpt>
<trkpt lat="57.242660" lon="9.587135">
<ele>25.911749</ele>
<time>2026-07-16T10:21:44.000Z</time>
</trkpt>
<trkpt lat="57.242699" lon="9.587151">
<ele>25.914366</ele>
<time>2026-07-16T10:21:45.000Z</time>
</trkpt>
<trkpt lat="57.242737" lon="9.587176">
<ele>25.917007</ele>
<time>2026-07-16T10:21:46.000Z</time>
</trkpt>
<trkpt lat="57.242775" lon="9.587197">
<ele>25.919605</ele>
<time>2026-07-16T10:21:47.000Z</time>
</trkpt>
<trkpt lat="57.242806" lon="9.587223">
<ele>25.921835</ele>
<time>2026-07-16T10:21:48.000Z</time>
</trkpt>
<trkpt lat="57.242836" lon="9.587253">
<ele>25.924069</ele>
<time>2026-07-16T10:21:49.000Z</time>
</trkpt>
<trkpt lat="57.242870" lon="9.587279">
<ele>25.926479</ele>
<time>2026-07-16T10:21:50.000Z</time>
</trkpt>
<trkpt lat="57.242901" lon="9.587307">
<ele>25.928739</ele>
<time>2026-07-16T10:21:51.000Z</time>
</trkpt>
<trkpt lat="57.242935" lon="9.587334">
<ele>25.931163</ele>
<time>2026-07-16T10:21:52.000Z</time>
</trkpt>
<trkpt lat="57.242970" lon="9.587359">
<ele>25.933620</ele>
<time>2026-07-16T10:21:53.000Z</time>
</trkpt>
<trkpt lat="57.243019" lon="9.587392">
<ele>25.937036</ele>
<time>2026-07-16T10:21:54.000Z</time>
</trkpt>
<trkpt lat="57.243084" lon="9.587425">
<ele>25.941451</ele>
<time>2026-07-16T10:21:55.000Z</time>
</trkpt>
<trkpt lat="57.243149" lon="9.587449">
<ele>25.945792</ele>
<time>2026-07-16T10:21:56.000Z</time>
</trkpt>
<trkpt lat="57.243206" lon="9.587455">
<ele>25.949532</ele>
<time>2026-07-16T10:21:57.000Z</time>
</trkpt>
<trkpt lat="57.243263" lon="9.587452">
<ele>25.953266</ele>
<time>2026-07-16T10:21:58.000Z</time>
</trkpt>
<trkpt lat="57.243317" lon="9.587447">
<ele>25.956808</ele>
<time>2026-07-16T10:21:59.000Z</time>
</trkpt>
<trkpt lat="57.243362" lon="9.587440">
<ele>25.959765</ele>
<time>2026-07-16T10:22:00.000Z</time>
</trkpt>
<trkpt lat="57.243412" lon="9.587429">
<ele>25.963063</ele>
<time>2026-07-16T10:22:01.000Z</time>
</trkpt>
<trkpt lat="57.243458" lon="9.587417">
<ele>25.966106</ele>
<time>2026-07-16T10:22:02.000Z</time>
</trkpt>
<trkpt lat="57.243515" lon="9.587401">
<ele>25.965835</ele>
<time>2026-07-16T10:22:03.000Z</time>
</trkpt>
<trkpt lat="57.243572" lon="9.587370">
<ele>25.866823</ele>
<time>2026-07-16T10:22:04.000Z</time>
</trkpt>
<trkpt lat="57.243629" lon="9.587325">
<ele>25.763535</ele>
<time>2026-07-16T10:22:05.000Z</time>
</trkpt>
<trkpt lat="57.243679" lon="9.587270">
<ele>25.666574</ele>
<time>2026-07-16T10:22:06.000Z</time>
</trkpt>
<trkpt lat="57.243721" lon="9.587203">
<ele>25.574120</ele>
<time>2026-07-16T10:22:07.000Z</time>
</trkpt>
<trkpt lat="57.243748" lon="9.587121">
<ele>25.487571</ele>
<time>2026-07-16T10:22:08.000Z</time>
</trkpt>
<trkpt lat="57.243767" lon="9.587031">
<ele>25.400466</ele>
<time>2026-07-16T10:22:09.000Z</time>
</trkpt>
<trkpt lat="57.243778" lon="9.586947">
<ele>25.322542</ele>
<time>2026-07-16T10:22:10.000Z</time>
</trkpt>
<trkpt lat="57.243793" lon="9.586857">
<ele>25.237633</ele>
<time>2026-07-16T10:22:11.000Z</time>
</trkpt>
<trkpt lat="57.243816" lon="9.586771">
<ele>25.151137</ele>
<time>2026-07-16T10:22:12.000Z</time>
</trkpt>
<trkpt lat="57.243832" lon="9.586682">
<ele>25.066578</ele>
<time>2026-07-16T10:22:13.000Z</time>
</trkpt>
<trkpt lat="57.243843" lon="9.586594">
<ele>24.985144</ele>
<time>2026-07-16T10:22:14.000Z</time>
</trkpt>
<trkpt lat="57.243851" lon="9.586508">
<ele>24.906466</ele>
<time>2026-07-16T10:22:15.000Z</time>
</trkpt>
<trkpt lat="57.243862" lon="9.586424">
<ele>24.828543</ele>
<time>2026-07-16T10:22:16.000Z</time>
</trkpt>
<trkpt lat="57.243870" lon="9.586338">
<ele>24.749865</ele>
<time>2026-07-16T10:22:17.000Z</time>
</trkpt>
<trkpt lat="57.243881" lon="9.586249">
<ele>24.667552</ele>
<time>2026-07-16T10:22:18.000Z</time>
</trkpt>
<trkpt lat="57.243893" lon="9.586166">
<ele>24.590091</ele>
<time>2026-07-16T10:22:19.000Z</time>
</trkpt>
<trkpt lat="57.243908" lon="9.586082">
<ele>24.510336</ele>
<time>2026-07-16T10:22:20.000Z</time>
</trkpt>
<trkpt lat="57.243919" lon="9.586000">
<ele>24.434164</ele>
<time>2026-07-16T10:22:21.000Z</time>
</trkpt>
<trkpt lat="57.243935" lon="9.585917">
<ele>24.354721</ele>
<time>2026-07-16T10:22:22.000Z</time>
</trkpt>
<trkpt lat="57.243946" lon="9.585839">
<ele>24.282044</ele>
<time>2026-07-16T10:22:23.000Z</time>
</trkpt>
<trkpt lat="57.243961" lon="9.585763">
<ele>24.209103</ele>
<time>2026-07-16T10:22:24.000Z</time>
</trkpt>
<trkpt lat="57.243977" lon="9.585685">
<ele>24.133892</ele>
<time>2026-07-16T10:22:25.000Z</time>
</trkpt>
<trkpt lat="57.244000" lon="9.585607">
<ele>24.053799</ele>
<time>2026-07-16T10:22:26.000Z</time>
</trkpt>
<trkpt lat="57.244015" lon="9.585518">
<ele>23.969751</ele>
<time>2026-07-16T10:22:27.000Z</time>
</trkpt>
<trkpt lat="57.244034" lon="9.585434">
<ele>23.887662</ele>
<time>2026-07-16T10:22:28.000Z</time>
</trkpt>
<trkpt lat="57.244049" lon="9.585357">
<ele>23.813874</ele>
<time>2026-07-16T10:22:29.000Z</time>
</trkpt>
<trkpt lat="57.244087" lon="9.585299">
<ele>23.731749</ele>
<time>2026-07-16T10:22:30.000Z</time>
</trkpt>
<trkpt lat="57.244106" lon="9.585246">
<ele>23.674425</ele>
<time>2026-07-16T10:22:31.000Z</time>
</trkpt>
<trkpt lat="57.244114" lon="9.585187">
<ele>23.619584</ele>
<time>2026-07-16T10:22:32.000Z</time>
</trkpt>
<trkpt lat="57.244122" lon="9.585128">
<ele>23.564743</ele>
<time>2026-07-16T10:22:33.000Z</time>
</trkpt>
<trkpt lat="57.244133" lon="9.585072">
<ele>23.511028</ele>
<time>2026-07-16T10:22:34.000Z</time>
</trkpt>
<trkpt lat="57.244137" lon="9.585018">
<ele>23.461886</ele>
<time>2026-07-16T10:22:35.000Z</time>
</trkpt>
<trkpt lat="57.244122" lon="9.584937">
<ele>23.384695</ele>
<time>2026-07-16T10:22:36.000Z</time>
</trkpt>
<trkpt lat="57.244122" lon="9.584875">
<ele>23.328794</ele>
<time>2026-07-16T10:22:37.000Z</time>
</trkpt>
<trkpt lat="57.244129" lon="9.584817">
<ele>23.275215</ele>
<time>2026-07-16T10:22:38.000Z</time>
</trkpt>
<trkpt lat="57.244137" lon="9.584757">
<ele>23.219499</ele>
<time>2026-07-16T10:22:39.000Z</time>
</trkpt>
<trkpt lat="57.244148" lon="9.584701">
<ele>23.165783</ele>
<time>2026-07-16T10:22:40.000Z</time>
</trkpt>
<trkpt lat="57.244160" lon="9.584656">
<ele>23.120550</ele>
<time>2026-07-16T10:22:41.000Z</time>
</trkpt>
<trkpt lat="57.244171" lon="9.584613">
<ele>23.077665</ele>
<time>2026-07-16T10:22:42.000Z</time>
</trkpt>
<trkpt lat="57.244175" lon="9.584585">
<ele>23.051555</ele>
<time>2026-07-16T10:22:43.000Z</time>
</trkpt>
<trkpt lat="57.244186" lon="9.584553">
<ele>23.017372</ele>
<time>2026-07-16T10:22:44.000Z</time>
</trkpt>
<trkpt lat="57.244198" lon="9.584534">
<ele>22.991041</ele>
<time>2026-07-16T10:22:45.000Z</time>
</trkpt>
<trkpt lat="57.244202" lon="9.584520">
<ele>22.976766</ele>
<time>2026-07-16T10:22:46.000Z</time>
</trkpt>
<trkpt lat="57.244213" lon="9.584503">
<ele>22.942048</ele>
<time>2026-07-16T10:22:47.000Z</time>
</trkpt>
<trkpt lat="57.244232" lon="9.584480">
<ele>22.883288</ele>
<time>2026-07-16T10:22:48.000Z</time>
</trkpt>
<trkpt lat="57.244247" lon="9.584457">
<ele>22.832865</ele>
<time>2026-07-16T10:22:49.000Z</time>
</trkpt>
<trkpt lat="57.244263" lon="9.584435">
<ele>22.781272</ele>
<time>2026-07-16T10:22:50.000Z</time>
</trkpt>
<trkpt lat="57.244274" lon="9.584406">
<ele>22.731697</ele>
<time>2026-07-16T10:22:51.000Z</time>
</trkpt>
<trkpt lat="57.244289" lon="9.584371">
<ele>22.669197</ele>
<time>2026-07-16T10:22:52.000Z</time>
</trkpt>
<trkpt lat="57.244305" lon="9.584334">
<ele>22.602896</ele>
<time>2026-07-16T10:22:53.000Z</time>
</trkpt>
<trkpt lat="57.244320" lon="9.584295">
<ele>22.535917</ele>
<time>2026-07-16T10:22:54.000Z</time>
</trkpt>
<trkpt lat="57.244335" lon="9.584249">
<ele>22.460737</ele>
<time>2026-07-16T10:22:55.000Z</time>
</trkpt>
<trkpt lat="57.244358" lon="9.584202">
<ele>22.372030</ele>
<time>2026-07-16T10:22:56.000Z</time>
</trkpt>
<trkpt lat="57.244381" lon="9.584151">
<ele>22.279094</ele>
<time>2026-07-16T10:22:57.000Z</time>
</trkpt>
<trkpt lat="57.244408" lon="9.584107">
<ele>22.185967</ele>
<time>2026-07-16T10:22:58.000Z</time>
</trkpt>
<trkpt lat="57.244434" lon="9.584069">
<ele>22.100212</ele>
<time>2026-07-16T10:22:59.000Z</time>
</trkpt>
<trkpt lat="57.244465" lon="9.584040">
<ele>22.010323</ele>
<time>2026-07-16T10:23:00.000Z</time>
</trkpt>
<trkpt lat="57.244507" lon="9.584008">
<ele>21.892794</ele>
<time>2026-07-16T10:23:01.000Z</time>
</trkpt>
<trkpt lat="57.244553" lon="9.583984">
<ele>21.769135</ele>
<time>2026-07-16T10:23:02.000Z</time>
</trkpt>
<trkpt lat="57.244602" lon="9.583962">
<ele>21.638680</ele>
<time>2026-07-16T10:23:03.000Z</time>
</trkpt>
<trkpt lat="57.244656" lon="9.583939">
<ele>21.495314</ele>
<time>2026-07-16T10:23:04.000Z</time>
</trkpt>
<trkpt lat="57.244709" lon="9.583920">
<ele>21.355641</ele>
<time>2026-07-16T10:23:05.000Z</time>
</trkpt>
<trkpt lat="57.244759" lon="9.583903">
<ele>21.224115</ele>
<time>2026-07-16T10:23:06.000Z</time>
</trkpt>
<trkpt lat="57.244808" lon="9.583879">
<ele>21.092970</ele>
<time>2026-07-16T10:23:07.000Z</time>
</trkpt>
<trkpt lat="57.244858" lon="9.583849">
<ele>20.956969</ele>
<time>2026-07-16T10:23:08.000Z</time>
</trkpt>
<trkpt lat="57.244911" lon="9.583815">
<ele>20.811827</ele>
<time>2026-07-16T10:23:09.000Z</time>
</trkpt>
<trkpt lat="57.244965" lon="9.583786">
<ele>20.666345</ele>
<time>2026-07-16T10:23:10.000Z</time>
</trkpt>
<trkpt lat="57.245022" lon="9.583753">
<ele>20.511814</ele>
<time>2026-07-16T10:23:11.000Z</time>
</trkpt>
<trkpt lat="57.245079" lon="9.583723">
<ele>20.358486</ele>
<time>2026-07-16T10:23:12.000Z</time>
</trkpt>
<trkpt lat="57.245136" lon="9.583695">
<ele>20.205901</ele>
<time>2026-07-16T10:23:13.000Z</time>
</trkpt>
<trkpt lat="57.245197" lon="9.583672">
<ele>20.044836</ele>
<time>2026-07-16T10:23:14.000Z</time>
</trkpt>
<trkpt lat="57.245255" lon="9.583647">
<ele>19.890757</ele>
<time>2026-07-16T10:23:15.000Z</time>
</trkpt>
<trkpt lat="57.245316" lon="9.583622">
<ele>19.729110</ele>
<time>2026-07-16T10:23:16.000Z</time>
</trkpt>
<trkpt lat="57.245377" lon="9.583595">
<ele>19.566834</ele>
<time>2026-07-16T10:23:17.000Z</time>
</trkpt>
<trkpt lat="57.245434" lon="9.583570">
<ele>19.415273</ele>
<time>2026-07-16T10:23:18.000Z</time>
</trkpt>
<trkpt lat="57.245487" lon="9.583542">
<ele>19.272664</ele>
<time>2026-07-16T10:23:19.000Z</time>
</trkpt>
<trkpt lat="57.245548" lon="9.583514">
<ele>19.110056</ele>
<time>2026-07-16T10:23:20.000Z</time>
</trkpt>
<trkpt lat="57.245602" lon="9.583487">
<ele>18.965330</ele>
<time>2026-07-16T10:23:21.000Z</time>
</trkpt>
<trkpt lat="57.245659" lon="9.583457">
<ele>18.812002</ele>
<time>2026-07-16T10:23:22.000Z</time>
</trkpt>
<trkpt lat="57.245720" lon="9.583432">
<ele>18.650355</ele>
<time>2026-07-16T10:23:23.000Z</time>
</trkpt>
<trkpt lat="57.245770" lon="9.583408">
<ele>18.516708</ele>
<time>2026-07-16T10:23:24.000Z</time>
</trkpt>
<trkpt lat="57.245823" lon="9.583385">
<ele>18.375862</ele>
<time>2026-07-16T10:23:25.000Z</time>
</trkpt>
<trkpt lat="57.245884" lon="9.583363">
<ele>18.297842</ele>
<time>2026-07-16T10:23:26.000Z</time>
</trkpt>
<trkpt lat="57.245937" lon="9.583344">
<ele>18.269236</ele>
<time>2026-07-16T10:23:27.000Z</time>
</trkpt>
<trkpt lat="57.245987" lon="9.583329">
<ele>18.242395</ele>
<time>2026-07-16T10:23:28.000Z</time>
</trkpt>
<trkpt lat="57.246048" lon="9.583313">
<ele>18.209749</ele>
<time>2026-07-16T10:23:29.000Z</time>
</trkpt>
<trkpt lat="57.246101" lon="9.583295">
<ele>18.181196</ele>
<time>2026-07-16T10:23:30.000Z</time>
</trkpt>
<trkpt lat="57.246155" lon="9.583274">
<ele>18.151956</ele>
<time>2026-07-16T10:23:31.000Z</time>
</trkpt>
<trkpt lat="57.246208" lon="9.583244">
<ele>18.122586</ele>
<time>2026-07-16T10:23:32.000Z</time>
</trkpt>
<trkpt lat="57.246254" lon="9.583210">
<ele>18.096335</ele>
<time>2026-07-16T10:23:33.000Z</time>
</trkpt>
<trkpt lat="57.246307" lon="9.583165">
<ele>18.065430</ele>
<time>2026-07-16T10:23:34.000Z</time>
</trkpt>
<trkpt lat="57.246361" lon="9.583117">
<ele>18.033680</ele>
<time>2026-07-16T10:23:35.000Z</time>
</trkpt>
<trkpt lat="57.246414" lon="9.583070">
<ele>18.002532</ele>
<time>2026-07-16T10:23:36.000Z</time>
</trkpt>
<trkpt lat="57.246468" lon="9.583023">
<ele>17.970905</ele>
<time>2026-07-16T10:23:37.000Z</time>
</trkpt>
<trkpt lat="57.246517" lon="9.582979">
<ele>17.942040</ele>
<time>2026-07-16T10:23:38.000Z</time>
</trkpt>
<trkpt lat="57.246571" lon="9.582934">
<ele>17.910653</ele>
<time>2026-07-16T10:23:39.000Z</time>
</trkpt>
<trkpt lat="57.246620" lon="9.582886">
<ele>17.881268</ele>
<time>2026-07-16T10:23:40.000Z</time>
</trkpt>
<trkpt lat="57.246666" lon="9.582832">
<ele>17.852394</ele>
<time>2026-07-16T10:23:41.000Z</time>
</trkpt>
<trkpt lat="57.246716" lon="9.582777">
<ele>17.821563</ele>
<time>2026-07-16T10:23:42.000Z</time>
</trkpt>
<trkpt lat="57.246757" lon="9.582715">
<ele>17.793494</ele>
<time>2026-07-16T10:23:43.000Z</time>
</trkpt>
<trkpt lat="57.246799" lon="9.582643">
<ele>17.763141</ele>
<time>2026-07-16T10:23:44.000Z</time>
</trkpt>
<trkpt lat="57.246834" lon="9.582567">
<ele>17.734530</ele>
<time>2026-07-16T10:23:45.000Z</time>
</trkpt>
<trkpt lat="57.246868" lon="9.582489">
<ele>17.705815</ele>
<time>2026-07-16T10:23:46.000Z</time>
</trkpt>
<trkpt lat="57.246906" lon="9.582405">
<ele>17.674425</ele>
<time>2026-07-16T10:23:47.000Z</time>
</trkpt>
<trkpt lat="57.246941" lon="9.582323">
<ele>17.644484</ele>
<time>2026-07-16T10:23:48.000Z</time>
</trkpt>
<trkpt lat="57.246971" lon="9.582240">
<ele>17.615868</ele>
<time>2026-07-16T10:23:49.000Z</time>
</trkpt>
<trkpt lat="57.247009" lon="9.582152">
<ele>17.583591</ele>
<time>2026-07-16T10:23:50.000Z</time>
</trkpt>
<trkpt lat="57.247044" lon="9.582069">
<ele>17.553423</ele>
<time>2026-07-16T10:23:51.000Z</time>
</trkpt>
<trkpt lat="57.247078" lon="9.581990">
<ele>17.524485</ele>
<time>2026-07-16T10:23:52.000Z</time>
</trkpt>
<trkpt lat="57.247112" lon="9.581909">
<ele>17.495095</ele>
<time>2026-07-16T10:23:53.000Z</time>
</trkpt>
<trkpt lat="57.247150" lon="9.581832">
<ele>17.465218</ele>
<time>2026-07-16T10:23:54.000Z</time>
</trkpt>
<trkpt lat="57.247192" lon="9.581766">
<ele>17.436007</ele>
<time>2026-07-16T10:23:55.000Z</time>
</trkpt>
<trkpt lat="57.247234" lon="9.581705">
<ele>17.407704</ele>
<time>2026-07-16T10:23:56.000Z</time>
</trkpt>
<trkpt lat="57.247284" lon="9.581648">
<ele>17.376577</ele>
<time>2026-07-16T10:23:57.000Z</time>
</trkpt>
<trkpt lat="57.247337" lon="9.581602">
<ele>17.362151</ele>
<time>2026-07-16T10:23:58.000Z</time>
</trkpt>
<trkpt lat="57.247387" lon="9.581566">
<ele>17.356678</ele>
<time>2026-07-16T10:23:59.000Z</time>
</trkpt>
<trkpt lat="57.247440" lon="9.581541">
<ele>17.351098</ele>
<time>2026-07-16T10:24:00.000Z</time>
</trkpt>
<trkpt lat="57.247490" lon="9.581525">
<ele>17.345922</ele>
<time>2026-07-16T10:24:01.000Z</time>
</trkpt>
<trkpt lat="57.247536" lon="9.581517">
<ele>17.341209</ele>
<time>2026-07-16T10:24:02.000Z</time>
</trkpt>
<trkpt lat="57.247574" lon="9.581515">
<ele>17.337331</ele>
<time>2026-07-16T10:24:03.000Z</time>
</trkpt>
<trkpt lat="57.247616" lon="9.581519">
<ele>17.333041</ele>
<time>2026-07-16T10:24:04.000Z</time>
</trkpt>
<trkpt lat="57.247654" lon="9.581534">
<ele>17.329077</ele>
<time>2026-07-16T10:24:05.000Z</time>
</trkpt>
<trkpt lat="57.247692" lon="9.581559">
<ele>17.324963</ele>
<time>2026-07-16T10:24:06.000Z</time>
</trkpt>
<trkpt lat="57.247734" lon="9.581588">
<ele>17.320389</ele>
<time>2026-07-16T10:24:07.000Z</time>
</trkpt>
<trkpt lat="57.247772" lon="9.581620">
<ele>17.316130</ele>
<time>2026-07-16T10:24:08.000Z</time>
</trkpt>
<trkpt lat="57.247814" lon="9.581654">
<ele>17.311453</ele>
<time>2026-07-16T10:24:09.000Z</time>
</trkpt>
<trkpt lat="57.247860" lon="9.581686">
<ele>17.306439</ele>
<time>2026-07-16T10:24:10.000Z</time>
</trkpt>
<trkpt lat="57.247902" lon="9.581717">
<ele>17.301826</ele>
<time>2026-07-16T10:24:11.000Z</time>
</trkpt>
<trkpt lat="57.247955" lon="9.581759">
<ele>17.295943</ele>
<time>2026-07-16T10:24:12.000Z</time>
</trkpt>
<trkpt lat="57.248001" lon="9.581800">
<ele>17.290734</ele>
<time>2026-07-16T10:24:13.000Z</time>
</trkpt>
<trkpt lat="57.248051" lon="9.581836">
<ele>17.285260</ele>
<time>2026-07-16T10:24:14.000Z</time>
</trkpt>
<trkpt lat="57.248100" lon="9.581872">
<ele>17.279882</ele>
<time>2026-07-16T10:24:15.000Z</time>
</trkpt>
<trkpt lat="57.248150" lon="9.581908">
<ele>17.274408</ele>
<time>2026-07-16T10:24:16.000Z</time>
</trkpt>
<trkpt lat="57.248199" lon="9.581945">
<ele>17.269009</ele>
<time>2026-07-16T10:24:17.000Z</time>
</trkpt>
<trkpt lat="57.248249" lon="9.581980">
<ele>17.263555</ele>
<time>2026-07-16T10:24:18.000Z</time>
</trkpt>
<trkpt lat="57.248295" lon="9.582012">
<ele>17.258541</ele>
<time>2026-07-16T10:24:19.000Z</time>
</trkpt>
<trkpt lat="57.248341" lon="9.582047">
<ele>17.253467</ele>
<time>2026-07-16T10:24:20.000Z</time>
</trkpt>
<trkpt lat="57.248394" lon="9.582083">
<ele>17.247707</ele>
<time>2026-07-16T10:24:21.000Z</time>
</trkpt>
<trkpt lat="57.248444" lon="9.582122">
<ele>17.242171</ele>
<time>2026-07-16T10:24:22.000Z</time>
</trkpt>
<trkpt lat="57.248489" lon="9.582158">
<ele>17.237169</ele>
<time>2026-07-16T10:24:23.000Z</time>
</trkpt>
<trkpt lat="57.248535" lon="9.582194">
<ele>17.232074</ele>
<time>2026-07-16T10:24:24.000Z</time>
</trkpt>
<trkpt lat="57.248577" lon="9.582229">
<ele>17.227374</ele>
<time>2026-07-16T10:24:25.000Z</time>
</trkpt>
<trkpt lat="57.248623" lon="9.582264">
<ele>17.222300</ele>
<time>2026-07-16T10:24:26.000Z</time>
</trkpt>
<trkpt lat="57.248669" lon="9.582299">
<ele>17.217225</ele>
<time>2026-07-16T10:24:27.000Z</time>
</trkpt>
<trkpt lat="57.248718" lon="9.582340">
<ele>17.211739</ele>
<time>2026-07-16T10:24:28.000Z</time>
</trkpt>
<trkpt lat="57.248764" lon="9.582379">
<ele>17.206576</ele>
<time>2026-07-16T10:24:29.000Z</time>
</trkpt>
<trkpt lat="57.248806" lon="9.582418">
<ele>17.201782</ele>
<time>2026-07-16T10:24:30.000Z</time>
</trkpt>
<trkpt lat="57.248852" lon="9.582457">
<ele>17.196619</ele>
<time>2026-07-16T10:24:31.000Z</time>
</trkpt>
<trkpt lat="57.248890" lon="9.582494">
<ele>17.192238</ele>
<time>2026-07-16T10:24:32.000Z</time>
</trkpt>
<trkpt lat="57.248932" lon="9.582531">
<ele>17.187492</ele>
<time>2026-07-16T10:24:33.000Z</time>
</trkpt>
<trkpt lat="57.248970" lon="9.582568">
<ele>17.183111</ele>
<time>2026-07-16T10:24:34.000Z</time>
</trkpt>
<trkpt lat="57.249008" lon="9.582602">
<ele>17.177852</ele>
<time>2026-07-16T10:24:35.000Z</time>
</trkpt>
<trkpt lat="57.249039" lon="9.582642">
<ele>17.173035</ele>
<time>2026-07-16T10:24:36.000Z</time>
</trkpt>
<trkpt lat="57.249062" lon="9.582691">
<ele>17.168564</ele>
<time>2026-07-16T10:24:37.000Z</time>
</trkpt>
<trkpt lat="57.249077" lon="9.582753">
<ele>17.163883</ele>
<time>2026-07-16T10:24:38.000Z</time>
</trkpt>
<trkpt lat="57.249077" lon="9.582833">
<ele>17.158370</ele>
<time>2026-07-16T10:24:39.000Z</time>
</trkpt>
<trkpt lat="57.249069" lon="9.582913">
<ele>17.152763</ele>
<time>2026-07-16T10:24:40.000Z</time>
</trkpt>
<trkpt lat="57.249069" lon="9.582994">
<ele>17.147181</ele>
<time>2026-07-16T10:24:41.000Z</time>
</trkpt>
<trkpt lat="57.249069" lon="9.583077">
<ele>17.141460</ele>
<time>2026-07-16T10:24:42.000Z</time>
</trkpt>
<trkpt lat="57.249073" lon="9.583157">
<ele>17.135923</ele>
<time>2026-07-16T10:24:43.000Z</time>
</trkpt>
<trkpt lat="57.249077" lon="9.583233">
<ele>17.130661</ele>
<time>2026-07-16T10:24:44.000Z</time>
</trkpt>
<trkpt lat="57.249088" lon="9.583314">
<ele>17.124905</ele>
<time>2026-07-16T10:24:45.000Z</time>
</trkpt>
<trkpt lat="57.249100" lon="9.583381">
<ele>17.120041</ele>
<time>2026-07-16T10:24:46.000Z</time>
</trkpt>
<trkpt lat="57.249115" lon="9.583467">
<ele>17.113813</ele>
<time>2026-07-16T10:24:47.000Z</time>
</trkpt>
<trkpt lat="57.249134" lon="9.583543">
<ele>17.108043</ele>
<time>2026-07-16T10:24:48.000Z</time>
</trkpt>
<trkpt lat="57.249157" lon="9.583614">
<ele>17.102340</ele>
<time>2026-07-16T10:24:49.000Z</time>
</trkpt>
<trkpt lat="57.249187" lon="9.583676">
<ele>17.096607</ele>
<time>2026-07-16T10:24:50.000Z</time>
</trkpt>
<trkpt lat="57.249218" lon="9.583732">
<ele>17.091085</ele>
<time>2026-07-16T10:24:51.000Z</time>
</trkpt>
<trkpt lat="57.249252" lon="9.583780">
<ele>17.085635</ele>
<time>2026-07-16T10:24:52.000Z</time>
</trkpt>
<trkpt lat="57.249287" lon="9.583818">
<ele>17.080464</ele>
<time>2026-07-16T10:24:53.000Z</time>
</trkpt>
<trkpt lat="57.249332" lon="9.583844">
<ele>17.074458</ele>
<time>2026-07-16T10:24:54.000Z</time>
</trkpt>
<trkpt lat="57.249378" lon="9.583856">
<ele>17.068539</ele>
<time>2026-07-16T10:24:55.000Z</time>
</trkpt>
<trkpt lat="57.249420" lon="9.583860">
<ele>17.063182</ele>
<time>2026-07-16T10:24:56.000Z</time>
</trkpt>
<trkpt lat="57.249470" lon="9.583861">
<ele>17.056812</ele>
<time>2026-07-16T10:24:57.000Z</time>
</trkpt>
<trkpt lat="57.249516" lon="9.583860">
<ele>17.050951</ele>
<time>2026-07-16T10:24:58.000Z</time>
</trkpt>
<trkpt lat="57.249565" lon="9.583863">
<ele>17.044705</ele>
<time>2026-07-16T10:24:59.000Z</time>
</trkpt>
<trkpt lat="57.249611" lon="9.583867">
<ele>17.038839</ele>
<time>2026-07-16T10:25:00.000Z</time>
</trkpt>
<trkpt lat="57.249653" lon="9.583863">
<ele>17.033481</ele>
<time>2026-07-16T10:25:01.000Z</time>
</trkpt>
<trkpt lat="57.249695" lon="9.583860">
<ele>17.028126</ele>
<time>2026-07-16T10:25:02.000Z</time>
</trkpt>
<trkpt lat="57.249741" lon="9.583855">
<ele>17.022256</ele>
<time>2026-07-16T10:25:03.000Z</time>
</trkpt>
<trkpt lat="57.249786" lon="9.583844">
<ele>17.016473</ele>
<time>2026-07-16T10:25:04.000Z</time>
</trkpt>
<trkpt lat="57.249836" lon="9.583832">
<ele>17.010050</ele>
<time>2026-07-16T10:25:05.000Z</time>
</trkpt>
<trkpt lat="57.249882" lon="9.583819">
<ele>17.004122</ele>
<time>2026-07-16T10:25:06.000Z</time>
</trkpt>
<trkpt lat="57.249931" lon="9.583809">
<ele>16.997842</ele>
<time>2026-07-16T10:25:07.000Z</time>
</trkpt>
<trkpt lat="57.249981" lon="9.583799">
<ele>16.991435</ele>
<time>2026-07-16T10:25:08.000Z</time>
</trkpt>
<trkpt lat="57.250027" lon="9.583787">
<ele>16.985516</ele>
<time>2026-07-16T10:25:09.000Z</time>
</trkpt>
<trkpt lat="57.250076" lon="9.583776">
<ele>16.979228</ele>
<time>2026-07-16T10:25:10.000Z</time>
</trkpt>
<trkpt lat="57.250122" lon="9.583769">
<ele>16.973348</ele>
<time>2026-07-16T10:25:11.000Z</time>
</trkpt>
<trkpt lat="57.250168" lon="9.583765">
<ele>16.967482</ele>
<time>2026-07-16T10:25:12.000Z</time>
</trkpt>
<trkpt lat="57.250214" lon="9.583767">
<ele>16.961620</ele>
<time>2026-07-16T10:25:13.000Z</time>
</trkpt>
<trkpt lat="57.250259" lon="9.583771">
<ele>16.955880</ele>
<time>2026-07-16T10:25:14.000Z</time>
</trkpt>
<trkpt lat="57.250309" lon="9.583779">
<ele>16.957019</ele>
<time>2026-07-16T10:25:15.000Z</time>
</trkpt>
<trkpt lat="57.250351" lon="9.583786">
<ele>16.961740</ele>
<time>2026-07-16T10:25:16.000Z</time>
</trkpt>
<trkpt lat="57.250397" lon="9.583796">
<ele>16.966925</ele>
<time>2026-07-16T10:25:17.000Z</time>
</trkpt>
<trkpt lat="57.250439" lon="9.583806">
<ele>16.971665</ele>
<time>2026-07-16T10:25:18.000Z</time>
</trkpt>
<trkpt lat="57.250484" lon="9.583819">
<ele>16.976764</ele>
<time>2026-07-16T10:25:19.000Z</time>
</trkpt>
<trkpt lat="57.250526" lon="9.583835">
<ele>16.981565</ele>
<time>2026-07-16T10:25:20.000Z</time>
</trkpt>
<trkpt lat="57.250568" lon="9.583852">
<ele>16.986378</ele>
<time>2026-07-16T10:25:21.000Z</time>
</trkpt>
<trkpt lat="57.250610" lon="9.583864">
<ele>16.991136</ele>
<time>2026-07-16T10:25:22.000Z</time>
</trkpt>
<trkpt lat="57.250649" lon="9.583873">
<ele>16.995535</ele>
<time>2026-07-16T10:25:23.000Z</time>
</trkpt>
<trkpt lat="57.250690" lon="9.583882">
<ele>17.000158</ele>
<time>2026-07-16T10:25:24.000Z</time>
</trkpt>
<trkpt lat="57.250729" lon="9.583891">
<ele>17.004557</ele>
<time>2026-07-16T10:25:25.000Z</time>
</trkpt>
<trkpt lat="57.250771" lon="9.583900">
<ele>17.009291</ele>
<time>2026-07-16T10:25:26.000Z</time>
</trkpt>
<trkpt lat="57.250809" lon="9.583907">
<ele>17.013566</ele>
<time>2026-07-16T10:25:27.000Z</time>
</trkpt>
<trkpt lat="57.250847" lon="9.583918">
<ele>17.017872</ele>
<time>2026-07-16T10:25:28.000Z</time>
</trkpt>
<trkpt lat="57.250885" lon="9.583925">
<ele>17.022147</ele>
<time>2026-07-16T10:25:29.000Z</time>
</trkpt>
<trkpt lat="57.250923" lon="9.583934">
<ele>17.026436</ele>
<time>2026-07-16T10:25:30.000Z</time>
</trkpt>
<trkpt lat="57.250961" lon="9.583942">
<ele>17.030717</ele>
<time>2026-07-16T10:25:31.000Z</time>
</trkpt>
<trkpt lat="57.250999" lon="9.583951">
<ele>17.035006</ele>
<time>2026-07-16T10:25:32.000Z</time>
</trkpt>
<trkpt lat="57.251034" lon="9.583959">
<ele>17.038954</ele>
<time>2026-07-16T10:25:33.000Z</time>
</trkpt>
<trkpt lat="57.251072" lon="9.583969">
<ele>17.043251</ele>
<time>2026-07-16T10:25:34.000Z</time>
</trkpt>
<trkpt lat="57.251106" lon="9.583978">
<ele>17.047096</ele>
<time>2026-07-16T10:25:35.000Z</time>
</trkpt>
<trkpt lat="57.251144" lon="9.583984">
<ele>17.051365</ele>
<time>2026-07-16T10:25:36.000Z</time>
</trkpt>
<trkpt lat="57.251186" lon="9.583991">
<ele>17.056086</ele>
<time>2026-07-16T10:25:37.000Z</time>
</trkpt>
<trkpt lat="57.251225" lon="9.583998">
<ele>17.060473</ele>
<time>2026-07-16T10:25:38.000Z</time>
</trkpt>
<trkpt lat="57.251259" lon="9.584005">
<ele>17.064302</ele>
<time>2026-07-16T10:25:39.000Z</time>
</trkpt>
<trkpt lat="57.251297" lon="9.584011">
<ele>17.068572</ele>
<time>2026-07-16T10:25:40.000Z</time>
</trkpt>
<trkpt lat="57.251331" lon="9.584018">
<ele>17.072402</ele>
<time>2026-07-16T10:25:41.000Z</time>
</trkpt>
<trkpt lat="57.251362" lon="9.584025">
<ele>17.075898</ele>
<time>2026-07-16T10:25:42.000Z</time>
</trkpt>
<trkpt lat="57.251392" lon="9.584034">
<ele>17.079300</ele>
<time>2026-07-16T10:25:43.000Z</time>
</trkpt>
<trkpt lat="57.251423" lon="9.584043">
<ele>17.082813</ele>
<time>2026-07-16T10:25:44.000Z</time>
</trkpt>
<trkpt lat="57.251446" lon="9.584051">
<ele>17.085433</ele>
<time>2026-07-16T10:25:45.000Z</time>
</trkpt>
<trkpt lat="57.251472" lon="9.584056">
<ele>17.088360</ele>
<time>2026-07-16T10:25:46.000Z</time>
</trkpt>
<trkpt lat="57.251495" lon="9.584057">
<ele>17.090935</ele>
<time>2026-07-16T10:25:47.000Z</time>
</trkpt>
<trkpt lat="57.251514" lon="9.584060">
<ele>17.093070</ele>
<time>2026-07-16T10:25:48.000Z</time>
</trkpt>
<trkpt lat="57.251533" lon="9.584057">
<ele>17.095205</ele>
<time>2026-07-16T10:25:49.000Z</time>
</trkpt>
<trkpt lat="57.251553" lon="9.584059">
<ele>17.097447</ele>
<time>2026-07-16T10:25:50.000Z</time>
</trkpt>
<trkpt lat="57.251568" lon="9.584062">
<ele>17.099136</ele>
<time>2026-07-16T10:25:51.000Z</time>
</trkpt>
<trkpt lat="57.251598" lon="9.584025">
<ele>17.103173</ele>
<time>2026-07-16T10:26:10.000Z</time>
</trkpt>
<trkpt lat="57.251610" lon="9.583991">
<ele>17.105632</ele>
<time>2026-07-16T10:26:11.000Z</time>
</trkpt>
<trkpt lat="57.251614" lon="9.583957">
<ele>17.107739</ele>
<time>2026-07-16T10:26:12.000Z</time>
</trkpt>
<trkpt lat="57.251617" lon="9.583923">
<ele>17.109825</ele>
<time>2026-07-16T10:26:13.000Z</time>
</trkpt>
<trkpt lat="57.251621" lon="9.583885">
<ele>17.112169</ele>
<time>2026-07-16T10:26:14.000Z</time>
</trkpt>
<trkpt lat="57.251625" lon="9.583842">
<ele>17.114812</ele>
<time>2026-07-16T10:26:15.000Z</time>
</trkpt>
<trkpt lat="57.251625" lon="9.583799">
<ele>17.117416</ele>
<time>2026-07-16T10:26:16.000Z</time>
</trkpt>
<trkpt lat="57.251629" lon="9.583761">
<ele>17.119760</ele>
<time>2026-07-16T10:26:17.000Z</time>
</trkpt>
<trkpt lat="57.251629" lon="9.583725">
<ele>17.121940</ele>
<time>2026-07-16T10:26:18.000Z</time>
</trkpt>
<trkpt lat="57.251633" lon="9.583689">
<ele>17.124166</ele>
<time>2026-07-16T10:26:19.000Z</time>
</trkpt>
<trkpt lat="57.251637" lon="9.583665">
<ele>17.125686</ele>
<time>2026-07-16T10:26:20.000Z</time>
</trkpt>
<trkpt lat="57.251637" lon="9.583652">
<ele>17.126474</ele>
<time>2026-07-16T10:26:21.000Z</time>
</trkpt>
<trkpt lat="57.251637" lon="9.583646">
<ele>17.126837</ele>
<time>2026-07-16T10:26:22.000Z</time>
</trkpt>
<trkpt lat="57.251640" lon="9.583642">
<ele>17.127251</ele>
<time>2026-07-16T10:26:23.000Z</time>
</trkpt>
<trkpt lat="57.251640" lon="9.583642">
<ele>17.127251</ele>
<time>2026-07-16T10:26:25.000Z</time>
</trkpt>
<trkpt lat="57.251637" lon="9.583912">
<ele>17.143605</ele>
<time>2026-07-16T10:28:40.000Z</time>
</trkpt>
<trkpt lat="57.251640" lon="9.583943">
<ele>17.145512</ele>
<time>2026-07-16T10:28:41.000Z</time>
</trkpt>
<trkpt lat="57.251644" lon="9.583981">
<ele>17.147857</ele>
<time>2026-07-16T10:28:42.000Z</time>
</trkpt>
<trkpt lat="57.251644" lon="9.584020">
<ele>17.150219</ele>
<time>2026-07-16T10:28:43.000Z</time>
</trkpt>
<trkpt lat="57.251648" lon="9.584053">
<ele>17.152267</ele>
<time>2026-07-16T10:28:44.000Z</time>
</trkpt>
<trkpt lat="57.251648" lon="9.584104">
<ele>17.155729</ele>
<time>2026-07-16T10:28:45.000Z</time>
</trkpt>
<trkpt lat="57.251648" lon="9.584156">
<ele>17.161212</ele>
<time>2026-07-16T10:28:46.000Z</time>
</trkpt>
<trkpt lat="57.251648" lon="9.584206">
<ele>17.166484</ele>
<time>2026-07-16T10:28:47.000Z</time>
</trkpt>
<trkpt lat="57.251648" lon="9.584259">
<ele>17.172072</ele>
<time>2026-07-16T10:28:48.000Z</time>
</trkpt>
<trkpt lat="57.251644" lon="9.584311">
<ele>17.177610</ele>
<time>2026-07-16T10:28:49.000Z</time>
</trkpt>
<trkpt lat="57.251640" lon="9.584373">
<ele>17.184194</ele>
<time>2026-07-16T10:28:50.000Z</time>
</trkpt>
<trkpt lat="57.251637" lon="9.584432">
<ele>17.190442</ele>
<time>2026-07-16T10:28:51.000Z</time>
</trkpt>
<trkpt lat="57.251637" lon="9.584484">
<ele>17.195925</ele>
<time>2026-07-16T10:28:52.000Z</time>
</trkpt>
<trkpt lat="57.251637" lon="9.584537">
<ele>17.201513</ele>
<time>2026-07-16T10:28:53.000Z</time>
</trkpt>
<trkpt lat="57.251629" lon="9.584594">
<ele>17.207722</ele>
<time>2026-07-16T10:28:54.000Z</time>
</trkpt>
<trkpt lat="57.251629" lon="9.584648">
<ele>17.213416</ele>
<time>2026-07-16T10:28:55.000Z</time>
</trkpt>
<trkpt lat="57.251629" lon="9.584703">
<ele>17.219215</ele>
<time>2026-07-16T10:28:56.000Z</time>
</trkpt>
<trkpt lat="57.251625" lon="9.584759">
<ele>17.225170</ele>
<time>2026-07-16T10:28:57.000Z</time>
</trkpt>
<trkpt lat="57.251629" lon="9.584812">
<ele>17.230813</ele>
<time>2026-07-16T10:28:58.000Z</time>
</trkpt>
<trkpt lat="57.251629" lon="9.584865">
<ele>17.236401</ele>
<time>2026-07-16T10:28:59.000Z</time>
</trkpt>
<trkpt lat="57.251629" lon="9.584916">
<ele>17.241778</ele>
<time>2026-07-16T10:29:00.000Z</time>
</trkpt>
<trkpt lat="57.251625" lon="9.584965">
<ele>17.247003</ele>
<time>2026-07-16T10:29:01.000Z</time>
</trkpt>
<trkpt lat="57.251625" lon="9.585018">
<ele>17.252592</ele>
<time>2026-07-16T10:29:02.000Z</time>
</trkpt>
<trkpt lat="57.251625" lon="9.585074">
<ele>17.258496</ele>
<time>2026-07-16T10:29:03.000Z</time>
</trkpt>
<trkpt lat="57.251617" lon="9.585128">
<ele>17.264399</ele>
<time>2026-07-16T10:29:04.000Z</time>
</trkpt>
<trkpt lat="57.251617" lon="9.585175">
<ele>17.269355</ele>
<time>2026-07-16T10:29:05.000Z</time>
</trkpt>
<trkpt lat="57.251617" lon="9.585226">
<ele>17.274732</ele>
<time>2026-07-16T10:29:06.000Z</time>
</trkpt>
<trkpt lat="57.251625" lon="9.585277">
<ele>17.280331</ele>
<time>2026-07-16T10:29:07.000Z</time>
</trkpt>
<trkpt lat="57.251625" lon="9.585332">
<ele>17.286130</ele>
<time>2026-07-16T10:29:08.000Z</time>
</trkpt>
<trkpt lat="57.251617" lon="9.585386">
<ele>17.292034</ele>
<time>2026-07-16T10:29:09.000Z</time>
</trkpt>
<trkpt lat="57.251610" lon="9.585438">
<ele>17.297684</ele>
<time>2026-07-16T10:29:10.000Z</time>
</trkpt>
<trkpt lat="57.251610" lon="9.585489">
<ele>17.303061</ele>
<time>2026-07-16T10:29:11.000Z</time>
</trkpt>
<trkpt lat="57.251610" lon="9.585540">
<ele>17.308438</ele>
<time>2026-07-16T10:29:12.000Z</time>
</trkpt>
<trkpt lat="57.251610" lon="9.585589">
<ele>17.313605</ele>
<time>2026-07-16T10:29:13.000Z</time>
</trkpt>
<trkpt lat="57.251610" lon="9.585637">
<ele>17.318666</ele>
<time>2026-07-16T10:29:14.000Z</time>
</trkpt>
<trkpt lat="57.251614" lon="9.585684">
<ele>17.323683</ele>
<time>2026-07-16T10:29:15.000Z</time>
</trkpt>
<trkpt lat="57.251614" lon="9.585731">
<ele>17.328638</ele>
<time>2026-07-16T10:29:16.000Z</time>
</trkpt>
<trkpt lat="57.251614" lon="9.585774">
<ele>17.333172</ele>
<time>2026-07-16T10:29:17.000Z</time>
</trkpt>
<trkpt lat="57.251617" lon="9.585820">
<ele>17.338057</ele>
<time>2026-07-16T10:29:18.000Z</time>
</trkpt>
<trkpt lat="57.251617" lon="9.585858">
<ele>17.342064</ele>
<time>2026-07-16T10:29:19.000Z</time>
</trkpt>
<trkpt lat="57.251617" lon="9.585895">
<ele>17.345965</ele>
<time>2026-07-16T10:29:20.000Z</time>
</trkpt>
<trkpt lat="57.251610" lon="9.585926">
<ele>17.349507</ele>
<time>2026-07-16T10:29:21.000Z</time>
</trkpt>
<trkpt lat="57.251606" lon="9.585956">
<ele>17.352765</ele>
<time>2026-07-16T10:29:22.000Z</time>
</trkpt>
<trkpt lat="57.251602" lon="9.585976">
<ele>17.355013</ele>
<time>2026-07-16T10:29:23.000Z</time>
</trkpt>
<trkpt lat="57.251526" lon="9.586122">
<ele>17.376377</ele>
<time>2026-07-16T11:00:08.000Z</time>
</trkpt>
<trkpt lat="57.251526" lon="9.586109">
<ele>17.377748</ele>
<time>2026-07-16T11:00:09.000Z</time>
</trkpt>
<trkpt lat="57.251526" lon="9.586095">
<ele>17.379224</ele>
<time>2026-07-16T11:00:10.000Z</time>
</trkpt>
<trkpt lat="57.251522" lon="9.586090">
<ele>17.380165</ele>
<time>2026-07-16T11:00:11.000Z</time>
</trkpt>
<trkpt lat="57.251522" lon="9.586088">
<ele>17.380376</ele>
<time>2026-07-16T11:00:12.000Z</time>
</trkpt>
<trkpt lat="57.251522" lon="9.586084">
<ele>17.380798</ele>
<time>2026-07-16T11:00:13.000Z</time>
</trkpt>
<trkpt lat="57.251522" lon="9.586083">
<ele>17.380903</ele>
<time>2026-07-16T11:00:14.000Z</time>
</trkpt>
<trkpt lat="57.251564" lon="9.585968">
<ele>17.395533</ele>
<time>2026-07-16T11:03:46.000Z</time>
</trkpt>
<trkpt lat="57.251572" lon="9.585956">
<ele>17.397541</ele>
<time>2026-07-16T11:03:47.000Z</time>
</trkpt>
<trkpt lat="57.251579" lon="9.585947">
<ele>17.399203</ele>
<time>2026-07-16T11:03:48.000Z</time>
</trkpt>
<trkpt lat="57.251595" lon="9.585936">
<ele>17.402531</ele>
<time>2026-07-16T11:03:49.000Z</time>
</trkpt>
<trkpt lat="57.251602" lon="9.585918">
<ele>17.404868</ele>
<time>2026-07-16T11:03:50.000Z</time>
</trkpt>
<trkpt lat="57.251606" lon="9.585903">
<ele>17.406631</ele>
<time>2026-07-16T11:03:51.000Z</time>
</trkpt>
<trkpt lat="57.251610" lon="9.585891">
<ele>17.408118</ele>
<time>2026-07-16T11:03:52.000Z</time>
</trkpt>
<trkpt lat="57.251614" lon="9.585881">
<ele>17.409429</ele>
<time>2026-07-16T11:03:53.000Z</time>
</trkpt>
<trkpt lat="57.251617" lon="9.585876">
<ele>17.410216</ele>
<time>2026-07-16T11:03:54.000Z</time>
</trkpt>
<trkpt lat="57.251621" lon="9.585869">
<ele>17.411290</ele>
<time>2026-07-16T11:03:55.000Z</time>
</trkpt>
<trkpt lat="57.251621" lon="9.585853">
<ele>17.412977</ele>
<time>2026-07-16T11:03:56.000Z</time>
</trkpt>
<trkpt lat="57.251621" lon="9.585835">
<ele>17.414875</ele>
<time>2026-07-16T11:03:57.000Z</time>
</trkpt>
<trkpt lat="57.251617" lon="9.585799">
<ele>17.418750</ele>
<time>2026-07-16T11:03:58.000Z</time>
</trkpt>
<trkpt lat="57.251617" lon="9.585754">
<ele>17.423494</ele>
<time>2026-07-16T11:03:59.000Z</time>
</trkpt>
<trkpt lat="57.251621" lon="9.585706">
<ele>17.428615</ele>
<time>2026-07-16T11:04:00.000Z</time>
</trkpt>
<trkpt lat="57.251625" lon="9.585654">
<ele>17.434153</ele>
<time>2026-07-16T11:04:01.000Z</time>
</trkpt>
<trkpt lat="57.251625" lon="9.585601">
<ele>17.439741</ele>
<time>2026-07-16T11:04:02.000Z</time>
</trkpt>
<trkpt lat="57.251625" lon="9.585544">
<ele>17.445751</ele>
<time>2026-07-16T11:04:03.000Z</time>
</trkpt>
<trkpt lat="57.251629" lon="9.585490">
<ele>17.451498</ele>
<time>2026-07-16T11:04:04.000Z</time>
</trkpt>
<trkpt lat="57.251629" lon="9.585435">
<ele>17.457297</ele>
<time>2026-07-16T11:04:05.000Z</time>
</trkpt>
<trkpt lat="57.251629" lon="9.585375">
<ele>17.463624</ele>
<time>2026-07-16T11:04:06.000Z</time>
</trkpt>
<trkpt lat="57.251633" lon="9.585316">
<ele>17.469893</ele>
<time>2026-07-16T11:04:07.000Z</time>
</trkpt>
<trkpt lat="57.251637" lon="9.585252">
<ele>17.476686</ele>
<time>2026-07-16T11:04:08.000Z</time>
</trkpt>
<trkpt lat="57.251637" lon="9.585185">
<ele>17.483750</ele>
<time>2026-07-16T11:04:09.000Z</time>
</trkpt>
<trkpt lat="57.251640" lon="9.585116">
<ele>17.491049</ele>
<time>2026-07-16T11:04:10.000Z</time>
</trkpt>
<trkpt lat="57.251644" lon="9.585053">
<ele>17.497737</ele>
<time>2026-07-16T11:04:11.000Z</time>
</trkpt>
<trkpt lat="57.251644" lon="9.584977">
<ele>17.505329</ele>
<time>2026-07-16T11:04:12.000Z</time>
</trkpt>
<trkpt lat="57.251644" lon="9.584907">
<ele>17.503019</ele>
<time>2026-07-16T11:04:13.000Z</time>
</trkpt>
<trkpt lat="57.251644" lon="9.584836">
<ele>17.500677</ele>
<time>2026-07-16T11:04:14.000Z</time>
</trkpt>
<trkpt lat="57.251652" lon="9.584764">
<ele>17.498252</ele>
<time>2026-07-16T11:04:15.000Z</time>
</trkpt>
<trkpt lat="57.251652" lon="9.584693">
<ele>17.495909</ele>
<time>2026-07-16T11:04:16.000Z</time>
</trkpt>
<trkpt lat="57.251652" lon="9.584620">
<ele>17.493501</ele>
<time>2026-07-16T11:04:17.000Z</time>
</trkpt>
<trkpt lat="57.251652" lon="9.584546">
<ele>17.491059</ele>
<time>2026-07-16T11:04:18.000Z</time>
</trkpt>
<trkpt lat="57.251648" lon="9.584470">
<ele>17.488540</ele>
<time>2026-07-16T11:04:19.000Z</time>
</trkpt>
<trkpt lat="57.251648" lon="9.584389">
<ele>17.485867</ele>
<time>2026-07-16T11:04:20.000Z</time>
</trkpt>
<trkpt lat="57.251648" lon="9.584311">
<ele>17.483294</ele>
<time>2026-07-16T11:04:21.000Z</time>
</trkpt>
<trkpt lat="57.251644" lon="9.584234">
<ele>17.480742</ele>
<time>2026-07-16T11:04:22.000Z</time>
</trkpt>
<trkpt lat="57.251640" lon="9.584168">
<ele>17.478551</ele>
<time>2026-07-16T11:04:23.000Z</time>
</trkpt>
<trkpt lat="57.251640" lon="9.584091">
<ele>17.476010</ele>
<time>2026-07-16T11:04:24.000Z</time>
</trkpt>
<trkpt lat="57.251640" lon="9.584020">
<ele>17.473668</ele>
<time>2026-07-16T11:04:25.000Z</time>
</trkpt>
<trkpt lat="57.251637" lon="9.583953">
<ele>17.471449</ele>
<time>2026-07-16T11:04:26.000Z</time>
</trkpt>
<trkpt lat="57.251637" lon="9.583885">
<ele>17.469206</ele>
<time>2026-07-16T11:04:27.000Z</time>
</trkpt>
<trkpt lat="57.251637" lon="9.583822">
<ele>17.467127</ele>
<time>2026-07-16T11:04:28.000Z</time>
</trkpt>
<trkpt lat="57.251640" lon="9.583759">
<ele>17.465041</ele>
<time>2026-07-16T11:04:29.000Z</time>
</trkpt>
<trkpt lat="57.251652" lon="9.583685">
<ele>17.462492</ele>
<time>2026-07-16T11:04:30.000Z</time>
</trkpt>
<trkpt lat="57.251656" lon="9.583619">
<ele>17.460301</ele>
<time>2026-07-16T11:04:31.000Z</time>
</trkpt>
<trkpt lat="57.251663" lon="9.583537">
<ele>17.457562</ele>
<time>2026-07-16T11:04:32.000Z</time>
</trkpt>
<trkpt lat="57.251675" lon="9.583459">
<ele>17.454886</ele>
<time>2026-07-16T11:04:33.000Z</time>
</trkpt>
<trkpt lat="57.251686" lon="9.583385">
<ele>17.452354</ele>
<time>2026-07-16T11:04:34.000Z</time>
</trkpt>
<trkpt lat="57.251701" lon="9.583308">
<ele>17.449654</ele>
<time>2026-07-16T11:04:35.000Z</time>
</trkpt>
<trkpt lat="57.251713" lon="9.583233">
<ele>17.447074</ele>
<time>2026-07-16T11:04:36.000Z</time>
</trkpt>
<trkpt lat="57.251724" lon="9.583158">
<ele>17.444510</ele>
<time>2026-07-16T11:04:37.000Z</time>
</trkpt>
<trkpt lat="57.251736" lon="9.583083">
<ele>17.441930</ele>
<time>2026-07-16T11:04:38.000Z</time>
</trkpt>
<trkpt lat="57.251751" lon="9.583004">
<ele>17.439167</ele>
<time>2026-07-16T11:04:39.000Z</time>
</trkpt>
<trkpt lat="57.251766" lon="9.582931">
<ele>17.436591</ele>
<time>2026-07-16T11:04:40.000Z</time>
</trkpt>
<trkpt lat="57.251781" lon="9.582858">
<ele>17.434014</ele>
<time>2026-07-16T11:04:41.000Z</time>
</trkpt>
<trkpt lat="57.251797" lon="9.582783">
<ele>17.431354</ele>
<time>2026-07-16T11:04:42.000Z</time>
</trkpt>
<trkpt lat="57.251812" lon="9.582708">
<ele>17.428716</ele>
<time>2026-07-16T11:04:43.000Z</time>
</trkpt>
<trkpt lat="57.251823" lon="9.582643">
<ele>17.426469</ele>
<time>2026-07-16T11:04:44.000Z</time>
</trkpt>
<trkpt lat="57.251839" lon="9.582603">
<ele>17.424828</ele>
<time>2026-07-16T11:04:45.000Z</time>
</trkpt>
<trkpt lat="57.251846" lon="9.582587">
<ele>17.424149</ele>
<time>2026-07-16T11:04:46.000Z</time>
</trkpt>
<trkpt lat="57.251881" lon="9.582531">
<ele>17.421326</ele>
<time>2026-07-16T11:04:52.000Z</time>
</trkpt>
<trkpt lat="57.251900" lon="9.582483">
<ele>17.419363</ele>
<time>2026-07-16T11:04:53.000Z</time>
</trkpt>
<trkpt lat="57.251915" lon="9.582433">
<ele>17.417477</ele>
<time>2026-07-16T11:04:54.000Z</time>
</trkpt>
<trkpt lat="57.251926" lon="9.582385">
<ele>17.415757</ele>
<time>2026-07-16T11:04:55.000Z</time>
</trkpt>
<trkpt lat="57.251945" lon="9.582341">
<ele>17.413900</ele>
<time>2026-07-16T11:04:56.000Z</time>
</trkpt>
<trkpt lat="57.251965" lon="9.582289">
<ele>17.411795</ele>
<time>2026-07-16T11:04:57.000Z</time>
</trkpt>
<trkpt lat="57.251980" lon="9.582244">
<ele>17.410051</ele>
<time>2026-07-16T11:04:58.000Z</time>
</trkpt>
<trkpt lat="57.251995" lon="9.582203">
<ele>17.408418</ele>
<time>2026-07-16T11:04:59.000Z</time>
</trkpt>
<trkpt lat="57.252014" lon="9.582164">
<ele>17.406686</ele>
<time>2026-07-16T11:05:00.000Z</time>
</trkpt>
<trkpt lat="57.252029" lon="9.582128">
<ele>17.405187</ele>
<time>2026-07-16T11:05:01.000Z</time>
</trkpt>
<trkpt lat="57.252048" lon="9.582092">
<ele>17.403527</ele>
<time>2026-07-16T11:05:02.000Z</time>
</trkpt>
<trkpt lat="57.252060" lon="9.582063">
<ele>17.402323</ele>
<time>2026-07-16T11:05:03.000Z</time>
</trkpt>
<trkpt lat="57.252075" lon="9.582032">
<ele>17.400951</ele>
<time>2026-07-16T11:05:04.000Z</time>
</trkpt>
<trkpt lat="57.252087" lon="9.582002">
<ele>17.399720</ele>
<time>2026-07-16T11:05:05.000Z</time>
</trkpt>
<trkpt lat="57.252102" lon="9.581967">
<ele>17.398246</ele>
<time>2026-07-16T11:05:06.000Z</time>
</trkpt>
<trkpt lat="57.252106" lon="9.581940">
<ele>17.397323</ele>
<time>2026-07-16T11:05:07.000Z</time>
</trkpt>
<trkpt lat="57.252106" lon="9.581910">
<ele>17.396333</ele>
<time>2026-07-16T11:05:08.000Z</time>
</trkpt>
<trkpt lat="57.252113" lon="9.581889">
<ele>17.394416</ele>
<time>2026-07-16T11:05:09.000Z</time>
</trkpt>
<trkpt lat="57.252121" lon="9.581864">
<ele>17.388406</ele>
<time>2026-07-16T11:05:10.000Z</time>
</trkpt>
<trkpt lat="57.252129" lon="9.581838">
<ele>17.382216</ele>
<time>2026-07-16T11:05:11.000Z</time>
</trkpt>
<trkpt lat="57.252144" lon="9.581804">
<ele>17.373137</ele>
<time>2026-07-16T11:05:12.000Z</time>
</trkpt>
<trkpt lat="57.252159" lon="9.581780">
<ele>17.365548</ele>
<time>2026-07-16T11:05:13.000Z</time>
</trkpt>
<trkpt lat="57.252178" lon="9.581759">
<ele>17.357079</ele>
<time>2026-07-16T11:05:14.000Z</time>
</trkpt>
<trkpt lat="57.252182" lon="9.581739">
<ele>17.352667</ele>
<time>2026-07-16T11:05:15.000Z</time>
</trkpt>
<trkpt lat="57.252186" lon="9.581719">
<ele>17.348254</ele>
<time>2026-07-16T11:05:16.000Z</time>
</trkpt>
<trkpt lat="57.252182" lon="9.581718">
<ele>17.346710</ele>
<time>2026-07-16T11:05:17.000Z</time>
</trkpt>
<trkpt lat="57.252174" lon="9.581733">
<ele>17.342351</ele>
<time>2026-07-16T11:05:18.000Z</time>
</trkpt>
<trkpt lat="57.252167" lon="9.581766">
<ele>17.335016</ele>
<time>2026-07-16T11:05:19.000Z</time>
</trkpt>
<trkpt lat="57.252155" lon="9.581809">
<ele>17.325003</ele>
<time>2026-07-16T11:05:20.000Z</time>
</trkpt>
<trkpt lat="57.252140" lon="9.581851">
<ele>17.314589</ele>
<time>2026-07-16T11:05:21.000Z</time>
</trkpt>
<trkpt lat="57.252117" lon="9.581897">
<ele>17.301626</ele>
<time>2026-07-16T11:05:22.000Z</time>
</trkpt>
<trkpt lat="57.252098" lon="9.581944">
<ele>17.289485</ele>
<time>2026-07-16T11:05:23.000Z</time>
</trkpt>
<trkpt lat="57.252075" lon="9.581985">
<ele>17.277262</ele>
<time>2026-07-16T11:05:24.000Z</time>
</trkpt>
<trkpt lat="57.252052" lon="9.582025">
<ele>17.265181</ele>
<time>2026-07-16T11:05:25.000Z</time>
</trkpt>
<trkpt lat="57.252033" lon="9.582064">
<ele>17.254320</ele>
<time>2026-07-16T11:05:26.000Z</time>
</trkpt>
<trkpt lat="57.252014" lon="9.582104">
<ele>17.243305</ele>
<time>2026-07-16T11:05:27.000Z</time>
</trkpt>
<trkpt lat="57.251999" lon="9.582142">
<ele>17.233570</ele>
<time>2026-07-16T11:05:28.000Z</time>
</trkpt>
<trkpt lat="57.251984" lon="9.582182">
<ele>17.223498</ele>
<time>2026-07-16T11:05:29.000Z</time>
</trkpt>
<trkpt lat="57.251968" lon="9.582216">
<ele>17.214173</ele>
<time>2026-07-16T11:05:30.000Z</time>
</trkpt>
<trkpt lat="57.251957" lon="9.582240">
<ele>17.207663</ele>
<time>2026-07-16T11:05:31.000Z</time>
</trkpt>
<trkpt lat="57.251953" lon="9.582274">
<ele>17.200463</ele>
<time>2026-07-16T11:05:32.000Z</time>
</trkpt>
<trkpt lat="57.251949" lon="9.582305">
<ele>17.193868</ele>
<time>2026-07-16T11:05:33.000Z</time>
</trkpt>
<trkpt lat="57.251953" lon="9.582339">
<ele>17.186668</ele>
<time>2026-07-16T11:05:34.000Z</time>
</trkpt>
<trkpt lat="57.251957" lon="9.582373">
<ele>17.179467</ele>
<time>2026-07-16T11:05:35.000Z</time>
</trkpt>
<trkpt lat="57.251965" lon="9.582408">
<ele>17.171604</ele>
<time>2026-07-16T11:05:36.000Z</time>
</trkpt>
<trkpt lat="57.251976" lon="9.582438">
<ele>17.164105</ele>
<time>2026-07-16T11:05:37.000Z</time>
</trkpt>
<trkpt lat="57.251999" lon="9.582472">
<ele>17.152839</ele>
<time>2026-07-16T11:05:38.000Z</time>
</trkpt>
<trkpt lat="57.252022" lon="9.582503">
<ele>17.141950</ele>
<time>2026-07-16T11:05:39.000Z</time>
</trkpt>
<trkpt lat="57.252048" lon="9.582534">
<ele>17.130115</ele>
<time>2026-07-16T11:05:40.000Z</time>
</trkpt>
<trkpt lat="57.252079" lon="9.582562">
<ele>17.116916</ele>
<time>2026-07-16T11:05:41.000Z</time>
</trkpt>
<trkpt lat="57.252113" lon="9.582588">
<ele>17.102840</ele>
<time>2026-07-16T11:05:42.000Z</time>
</trkpt>
<trkpt lat="57.252148" lon="9.582615">
<ele>17.088332</ele>
<time>2026-07-16T11:05:43.000Z</time>
</trkpt>
<trkpt lat="57.252178" lon="9.582633">
<ele>17.076266</ele>
<time>2026-07-16T11:05:44.000Z</time>
</trkpt>
<trkpt lat="57.252220" lon="9.582659">
<ele>17.059323</ele>
<time>2026-07-16T11:05:45.000Z</time>
</trkpt>
<trkpt lat="57.252258" lon="9.582679">
<ele>17.044208</ele>
<time>2026-07-16T11:05:46.000Z</time>
</trkpt>
<trkpt lat="57.252296" lon="9.582699">
<ele>17.029094</ele>
<time>2026-07-16T11:05:47.000Z</time>
</trkpt>
<trkpt lat="57.252331" lon="9.582719">
<ele>17.015080</ele>
<time>2026-07-16T11:05:48.000Z</time>
</trkpt>
<trkpt lat="57.252369" lon="9.582739">
<ele>16.999965</ele>
<time>2026-07-16T11:05:49.000Z</time>
</trkpt>
<trkpt lat="57.252399" lon="9.582760">
<ele>16.987694</ele>
<time>2026-07-16T11:05:50.000Z</time>
</trkpt>
<trkpt lat="57.252434" lon="9.582795">
<ele>16.972471</ele>
<time>2026-07-16T11:05:51.000Z</time>
</trkpt>
<trkpt lat="57.252464" lon="9.582849">
<ele>16.956453</ele>
<time>2026-07-16T11:05:52.000Z</time>
</trkpt>
<trkpt lat="57.252483" lon="9.582900">
<ele>16.943639</ele>
<time>2026-07-16T11:05:53.000Z</time>
</trkpt>
<trkpt lat="57.252506" lon="9.582952">
<ele>16.929739</ele>
<time>2026-07-16T11:05:54.000Z</time>
</trkpt>
<trkpt lat="57.252529" lon="9.583006">
<ele>16.915517</ele>
<time>2026-07-16T11:05:55.000Z</time>
</trkpt>
<trkpt lat="57.252552" lon="9.583055">
<ele>16.902092</ele>
<time>2026-07-16T11:05:56.000Z</time>
</trkpt>
<trkpt lat="57.252571" lon="9.583101">
<ele>16.890115</ele>
<time>2026-07-16T11:05:57.000Z</time>
</trkpt>
<trkpt lat="57.252590" lon="9.583142">
<ele>16.878943</ele>
<time>2026-07-16T11:05:58.000Z</time>
</trkpt>
<trkpt lat="57.252609" lon="9.583180">
<ele>16.868235</ele>
<time>2026-07-16T11:05:59.000Z</time>
</trkpt>
<trkpt lat="57.252628" lon="9.583215">
<ele>16.857974</ele>
<time>2026-07-16T11:06:00.000Z</time>
</trkpt>
<trkpt lat="57.252640" lon="9.583241">
<ele>16.850902</ele>
<time>2026-07-16T11:06:01.000Z</time>
</trkpt>
<trkpt lat="57.252651" lon="9.583258">
<ele>16.845417</ele>
<time>2026-07-16T11:06:02.000Z</time>
</trkpt>
<trkpt lat="57.252655" lon="9.583265">
<ele>16.843310</ele>
<time>2026-07-16T11:06:03.000Z</time>
</trkpt>
<trkpt lat="57.252663" lon="9.583290">
<ele>16.837299</ele>
<time>2026-07-16T11:06:12.000Z</time>
</trkpt>
<trkpt lat="57.252682" lon="9.583308">
<ele>16.829132</ele>
<time>2026-07-16T11:06:13.000Z</time>
</trkpt>
<trkpt lat="57.252701" lon="9.583309">
<ele>16.821861</ele>
<time>2026-07-16T11:06:14.000Z</time>
</trkpt>
<trkpt lat="57.252724" lon="9.583295">
<ele>16.812597</ele>
<time>2026-07-16T11:06:15.000Z</time>
</trkpt>
<trkpt lat="57.252747" lon="9.583271">
<ele>16.802494</ele>
<time>2026-07-16T11:06:16.000Z</time>
</trkpt>
<trkpt lat="57.252769" lon="9.583235">
<ele>16.791254</ele>
<time>2026-07-16T11:06:17.000Z</time>
</trkpt>
<trkpt lat="57.252792" lon="9.583202">
<ele>16.780117</ele>
<time>2026-07-16T11:06:18.000Z</time>
</trkpt>
<trkpt lat="57.252819" lon="9.583168">
<ele>16.767620</ele>
<time>2026-07-16T11:06:19.000Z</time>
</trkpt>
<trkpt lat="57.252842" lon="9.583138">
<ele>16.756851</ele>
<time>2026-07-16T11:06:20.000Z</time>
</trkpt>
<trkpt lat="57.252869" lon="9.583104">
<ele>16.744354</ele>
<time>2026-07-16T11:06:21.000Z</time>
</trkpt>
<trkpt lat="57.252892" lon="9.583073">
<ele>16.733465</ele>
<time>2026-07-16T11:06:22.000Z</time>
</trkpt>
<trkpt lat="57.252918" lon="9.583043">
<ele>16.721741</ele>
<time>2026-07-16T11:06:23.000Z</time>
</trkpt>
<trkpt lat="57.252949" lon="9.583016">
<ele>16.708632</ele>
<time>2026-07-16T11:06:24.000Z</time>
</trkpt>
<trkpt lat="57.252975" lon="9.582999">
<ele>16.692615</ele>
<time>2026-07-16T11:06:25.000Z</time>
</trkpt>
<trkpt lat="57.253002" lon="9.582978">
<ele>16.675018</ele>
<time>2026-07-16T11:06:26.000Z</time>
</trkpt>
<trkpt lat="57.253033" lon="9.582951">
<ele>16.654431</ele>
<time>2026-07-16T11:06:27.000Z</time>
</trkpt>
<trkpt lat="57.253056" lon="9.582923">
<ele>16.637887</ele>
<time>2026-07-16T11:06:28.000Z</time>
</trkpt>
<trkpt lat="57.253086" lon="9.582892">
<ele>16.617240</ele>
<time>2026-07-16T11:06:29.000Z</time>
</trkpt>
<trkpt lat="57.253113" lon="9.582861">
<ele>16.598146</ele>
<time>2026-07-16T11:06:30.000Z</time>
</trkpt>
<trkpt lat="57.253143" lon="9.582831">
<ele>16.577656</ele>
<time>2026-07-16T11:06:31.000Z</time>
</trkpt>
<trkpt lat="57.253174" lon="9.582798">
<ele>16.556166</ele>
<time>2026-07-16T11:06:32.000Z</time>
</trkpt>
<trkpt lat="57.253204" lon="9.582759">
<ele>16.534133</ele>
<time>2026-07-16T11:06:33.000Z</time>
</trkpt>
<trkpt lat="57.253227" lon="9.582717">
<ele>16.514712</ele>
<time>2026-07-16T11:06:34.000Z</time>
</trkpt>
<trkpt lat="57.253254" lon="9.582677">
<ele>16.493926</ele>
<time>2026-07-16T11:06:35.000Z</time>
</trkpt>
<trkpt lat="57.253288" lon="9.582629">
<ele>16.468226</ele>
<time>2026-07-16T11:06:36.000Z</time>
</trkpt>
<trkpt lat="57.253319" lon="9.582582">
<ele>16.444140</ele>
<time>2026-07-16T11:06:37.000Z</time>
</trkpt>
<trkpt lat="57.253349" lon="9.582534">
<ele>16.420305</ele>
<time>2026-07-16T11:06:38.000Z</time>
</trkpt>
<trkpt lat="57.253384" lon="9.582479">
<ele>16.392709</ele>
<time>2026-07-16T11:06:39.000Z</time>
</trkpt>
<trkpt lat="57.253414" lon="9.582420">
<ele>16.366396</ele>
<time>2026-07-16T11:06:40.000Z</time>
</trkpt>
<trkpt lat="57.253449" lon="9.582363">
<ele>16.338374</ele>
<time>2026-07-16T11:06:41.000Z</time>
</trkpt>
<trkpt lat="57.253479" lon="9.582302">
<ele>16.311584</ele>
<time>2026-07-16T11:06:42.000Z</time>
</trkpt>
<trkpt lat="57.253510" lon="9.582246">
<ele>16.285545</ele>
<time>2026-07-16T11:06:43.000Z</time>
</trkpt>
<trkpt lat="57.253544" lon="9.582190">
<ele>16.258189</ele>
<time>2026-07-16T11:06:44.000Z</time>
</trkpt>
<trkpt lat="57.253574" lon="9.582131">
<ele>16.231876</ele>
<time>2026-07-16T11:06:45.000Z</time>
</trkpt>
<trkpt lat="57.253601" lon="9.582071">
<ele>16.206513</ele>
<time>2026-07-16T11:06:46.000Z</time>
</trkpt>
<trkpt lat="57.253632" lon="9.582011">
<ele>16.179551</ele>
<time>2026-07-16T11:06:47.000Z</time>
</trkpt>
<trkpt lat="57.253662" lon="9.581953">
<ele>16.153473</ele>
<time>2026-07-16T11:06:48.000Z</time>
</trkpt>
<trkpt lat="57.253696" lon="9.581897">
<ele>16.126117</ele>
<time>2026-07-16T11:06:49.000Z</time>
</trkpt>
<trkpt lat="57.253731" lon="9.581839">
<ele>16.097880</ele>
<time>2026-07-16T11:06:50.000Z</time>
</trkpt>
<trkpt lat="57.253761" lon="9.581780">
<ele>16.071567</ele>
<time>2026-07-16T11:06:51.000Z</time>
</trkpt>
<trkpt lat="57.253796" lon="9.581725">
<ele>16.043971</ele>
<time>2026-07-16T11:06:52.000Z</time>
</trkpt>
<trkpt lat="57.253826" lon="9.581669">
<ele>16.018359</ele>
<time>2026-07-16T11:06:53.000Z</time>
</trkpt>
<trkpt lat="57.253860" lon="9.581608">
<ele>15.989896</ele>
<time>2026-07-16T11:06:54.000Z</time>
</trkpt>
<trkpt lat="57.253887" lon="9.581550">
<ele>15.965030</ele>
<time>2026-07-16T11:06:55.000Z</time>
</trkpt>
<trkpt lat="57.253921" lon="9.581492">
<ele>15.937237</ele>
<time>2026-07-16T11:06:56.000Z</time>
</trkpt>
<trkpt lat="57.253952" lon="9.581435">
<ele>15.910971</ele>
<time>2026-07-16T11:06:57.000Z</time>
</trkpt>
<trkpt lat="57.253983" lon="9.581388">
<ele>15.886886</ele>
<time>2026-07-16T11:06:58.000Z</time>
</trkpt>
<trkpt lat="57.254013" lon="9.581341">
<ele>15.863263</ele>
<time>2026-07-16T11:06:59.000Z</time>
</trkpt>
<trkpt lat="57.254044" lon="9.581299">
<ele>15.840174</ele>
<time>2026-07-16T11:07:00.000Z</time>
</trkpt>
<trkpt lat="57.254074" lon="9.581263">
<ele>15.818687</ele>
<time>2026-07-16T11:07:01.000Z</time>
</trkpt>
<trkpt lat="57.254101" lon="9.581231">
<ele>15.799420</ele>
<time>2026-07-16T11:07:02.000Z</time>
</trkpt>
<trkpt lat="57.254128" lon="9.581200">
<ele>15.780326</ele>
<time>2026-07-16T11:07:03.000Z</time>
</trkpt>
<trkpt lat="57.254154" lon="9.581170">
<ele>15.761914</ele>
<time>2026-07-16T11:07:04.000Z</time>
</trkpt>
<trkpt lat="57.254177" lon="9.581141">
<ele>15.745189</ele>
<time>2026-07-16T11:07:05.000Z</time>
</trkpt>
<trkpt lat="57.254200" lon="9.581108">
<ele>15.727699</ele>
<time>2026-07-16T11:07:06.000Z</time>
</trkpt>
<trkpt lat="57.254223" lon="9.581078">
<ele>15.710789</ele>
<time>2026-07-16T11:07:07.000Z</time>
</trkpt>
<trkpt lat="57.254238" lon="9.581051">
<ele>15.698212</ele>
<time>2026-07-16T11:07:08.000Z</time>
</trkpt>
<trkpt lat="57.254257" lon="9.581029">
<ele>15.684744</ele>
<time>2026-07-16T11:07:09.000Z</time>
</trkpt>
<trkpt lat="57.254276" lon="9.581002">
<ele>15.670347</ele>
<time>2026-07-16T11:07:10.000Z</time>
</trkpt>
<trkpt lat="57.254292" lon="9.580980">
<ele>15.658368</ele>
<time>2026-07-16T11:07:11.000Z</time>
</trkpt>
<trkpt lat="57.254307" lon="9.580961">
<ele>15.647445</ele>
<time>2026-07-16T11:07:12.000Z</time>
</trkpt>
<trkpt lat="57.254318" lon="9.580948">
<ele>15.639601</ele>
<time>2026-07-16T11:07:13.000Z</time>
</trkpt>
<trkpt lat="57.254330" lon="9.580936">
<ele>15.631405</ele>
<time>2026-07-16T11:07:14.000Z</time>
</trkpt>
<trkpt lat="57.254337" lon="9.580930">
<ele>15.627269</ele>
<time>2026-07-16T11:07:15.000Z</time>
</trkpt>
<trkpt lat="57.254360" lon="9.580886">
<ele>15.635007</ele>
<time>2026-07-16T11:07:25.000Z</time>
</trkpt>
<trkpt lat="57.254364" lon="9.580866">
<ele>15.637704</ele>
<time>2026-07-16T11:07:26.000Z</time>
</trkpt>
<trkpt lat="57.254375" lon="9.580838">
<ele>15.642080</ele>
<time>2026-07-16T11:07:27.000Z</time>
</trkpt>
<trkpt lat="57.254387" lon="9.580818">
<ele>15.645858</ele>
<time>2026-07-16T11:07:28.000Z</time>
</trkpt>
<trkpt lat="57.254402" lon="9.580791">
<ele>15.650752</ele>
<time>2026-07-16T11:07:29.000Z</time>
</trkpt>
<trkpt lat="57.254417" lon="9.580768">
<ele>15.655308</ele>
<time>2026-07-16T11:07:30.000Z</time>
</trkpt>
<trkpt lat="57.254433" lon="9.580736">
<ele>15.660819</ele>
<time>2026-07-16T11:07:31.000Z</time>
</trkpt>
<trkpt lat="57.254456" lon="9.580709">
<ele>15.667189</ele>
<time>2026-07-16T11:07:32.000Z</time>
</trkpt>
<trkpt lat="57.254475" lon="9.580676">
<ele>15.673284</ele>
<time>2026-07-16T11:07:33.000Z</time>
</trkpt>
<trkpt lat="57.254494" lon="9.580649">
<ele>15.678887</ele>
<time>2026-07-16T11:07:34.000Z</time>
</trkpt>
<trkpt lat="57.254517" lon="9.580623">
<ele>15.685190</ele>
<time>2026-07-16T11:07:35.000Z</time>
</trkpt>
<trkpt lat="57.254539" lon="9.580590">
<ele>15.691813</ele>
<time>2026-07-16T11:07:36.000Z</time>
</trkpt>
<trkpt lat="57.254562" lon="9.580565">
<ele>15.698051</ele>
<time>2026-07-16T11:07:37.000Z</time>
</trkpt>
<trkpt lat="57.254581" lon="9.580542">
<ele>15.703361</ele>
<time>2026-07-16T11:07:38.000Z</time>
</trkpt>
<trkpt lat="57.254604" lon="9.580512">
<ele>15.709942</ele>
<time>2026-07-16T11:07:39.000Z</time>
</trkpt>
<trkpt lat="57.254623" lon="9.580487">
<ele>15.715394</ele>
<time>2026-07-16T11:07:40.000Z</time>
</trkpt>
<trkpt lat="57.254643" lon="9.580456">
<ele>15.721496</ele>
<time>2026-07-16T11:07:41.000Z</time>
</trkpt>
<trkpt lat="57.254662" lon="9.580431">
<ele>15.726948</ele>
<time>2026-07-16T11:07:42.000Z</time>
</trkpt>
<trkpt lat="57.254684" lon="9.580406">
<ele>15.732986</ele>
<time>2026-07-16T11:07:43.000Z</time>
</trkpt>
<trkpt lat="57.254704" lon="9.580384">
<ele>15.738427</ele>
<time>2026-07-16T11:07:44.000Z</time>
</trkpt>
<trkpt lat="57.254719" lon="9.580355">
<ele>15.743501</ele>
<time>2026-07-16T11:07:45.000Z</time>
</trkpt>
<trkpt lat="57.254738" lon="9.580331">
<ele>15.748881</ele>
<time>2026-07-16T11:07:46.000Z</time>
</trkpt>
<trkpt lat="57.254753" lon="9.580301">
<ele>15.754047</ele>
<time>2026-07-16T11:07:47.000Z</time>
</trkpt>
<trkpt lat="57.254772" lon="9.580279">
<ele>15.759289</ele>
<time>2026-07-16T11:07:48.000Z</time>
</trkpt>
<trkpt lat="57.254791" lon="9.580255">
<ele>15.764669</ele>
<time>2026-07-16T11:07:49.000Z</time>
</trkpt>
<trkpt lat="57.254807" lon="9.580247">
<ele>15.768544</ele>
<time>2026-07-16T11:07:50.000Z</time>
</trkpt>
<trkpt lat="57.254826" lon="9.580253">
<ele>15.773050</ele>
<time>2026-07-16T11:07:51.000Z</time>
</trkpt>
<trkpt lat="57.254841" lon="9.580266">
<ele>15.776923</ele>
<time>2026-07-16T11:07:52.000Z</time>
</trkpt>
<trkpt lat="57.254852" lon="9.580279">
<ele>15.779976</ele>
<time>2026-07-16T11:07:53.000Z</time>
</trkpt>
<trkpt lat="57.254860" lon="9.580286">
<ele>15.782045</ele>
<time>2026-07-16T11:07:54.000Z</time>
</trkpt>
<trkpt lat="57.254860" lon="9.580288">
<ele>15.782298</ele>
<time>2026-07-16T11:07:55.000Z</time>
</trkpt>
<trkpt lat="57.254864" lon="9.580290">
<ele>15.783267</ele>
<time>2026-07-16T11:07:56.000Z</time>
</trkpt>
<trkpt lat="57.254864" lon="9.580292">
<ele>15.783519</ele>
<time>2026-07-16T11:07:57.000Z</time>
</trkpt>
<trkpt lat="57.254776" lon="9.580332">
<ele>15.804706</ele>
<time>2026-07-16T11:09:59.000Z</time>
</trkpt>
<trkpt lat="57.254768" lon="9.580328">
<ele>15.806644</ele>
<time>2026-07-16T11:10:00.000Z</time>
</trkpt>
<trkpt lat="57.254753" lon="9.580330">
<ele>15.810160</ele>
<time>2026-07-16T11:10:01.000Z</time>
</trkpt>
<trkpt lat="57.254742" lon="9.580334">
<ele>15.812781</ele>
<time>2026-07-16T11:10:02.000Z</time>
</trkpt>
<trkpt lat="57.254726" lon="9.580338">
<ele>15.816556</ele>
<time>2026-07-16T11:10:03.000Z</time>
</trkpt>
<trkpt lat="57.254707" lon="9.580342">
<ele>15.821026</ele>
<time>2026-07-16T11:10:04.000Z</time>
</trkpt>
<trkpt lat="57.254688" lon="9.580353">
<ele>15.825681</ele>
<time>2026-07-16T11:10:05.000Z</time>
</trkpt>
<trkpt lat="57.254669" lon="9.580366">
<ele>15.830418</ele>
<time>2026-07-16T11:10:06.000Z</time>
</trkpt>
<trkpt lat="57.254650" lon="9.580379">
<ele>15.835154</ele>
<time>2026-07-16T11:10:07.000Z</time>
</trkpt>
<trkpt lat="57.254631" lon="9.580397">
<ele>15.840146</ele>
<time>2026-07-16T11:10:08.000Z</time>
</trkpt>
<trkpt lat="57.254612" lon="9.580414">
<ele>15.845081</ele>
<time>2026-07-16T11:10:09.000Z</time>
</trkpt>
<trkpt lat="57.254589" lon="9.580437">
<ele>15.851194</ele>
<time>2026-07-16T11:10:10.000Z</time>
</trkpt>
<trkpt lat="57.254570" lon="9.580458">
<ele>15.856370</ele>
<time>2026-07-16T11:10:11.000Z</time>
</trkpt>
<trkpt lat="57.254551" lon="9.580481">
<ele>15.861679</ele>
<time>2026-07-16T11:10:12.000Z</time>
</trkpt>
<trkpt lat="57.254532" lon="9.580503">
<ele>15.866921</ele>
<time>2026-07-16T11:10:13.000Z</time>
</trkpt>
<trkpt lat="57.254513" lon="9.580530">
<ele>15.872524</ele>
<time>2026-07-16T11:10:14.000Z</time>
</trkpt>
<trkpt lat="57.254494" lon="9.580558">
<ele>15.878204</ele>
<time>2026-07-16T11:10:15.000Z</time>
</trkpt>
<trkpt lat="57.254475" lon="9.580585">
<ele>15.883807</ele>
<time>2026-07-16T11:10:16.000Z</time>
</trkpt>
<trkpt lat="57.254456" lon="9.580608">
<ele>15.889117</ele>
<time>2026-07-16T11:10:17.000Z</time>
</trkpt>
<trkpt lat="57.254440" lon="9.580630">
<ele>15.893779</ele>
<time>2026-07-16T11:10:18.000Z</time>
</trkpt>
<trkpt lat="57.254421" lon="9.580651">
<ele>15.898954</ele>
<time>2026-07-16T11:10:19.000Z</time>
</trkpt>
<trkpt lat="57.254410" lon="9.580667">
<ele>15.902226</ele>
<time>2026-07-16T11:10:20.000Z</time>
</trkpt>
<trkpt lat="57.254395" lon="9.580682">
<ele>15.906213</ele>
<time>2026-07-16T11:10:21.000Z</time>
</trkpt>
<trkpt lat="57.254379" lon="9.580695">
<ele>15.910299</ele>
<time>2026-07-16T11:10:22.000Z</time>
</trkpt>
<trkpt lat="57.254375" lon="9.580704">
<ele>15.911773</ele>
<time>2026-07-16T11:10:23.000Z</time>
</trkpt>
<trkpt lat="57.254372" lon="9.580707">
<ele>15.912570</ele>
<time>2026-07-16T11:10:24.000Z</time>
</trkpt>
<trkpt lat="57.254372" lon="9.580710">
<ele>15.912949</ele>
<time>2026-07-16T11:10:25.000Z</time>
</trkpt>
<trkpt lat="57.254364" lon="9.580723">
<ele>15.915440</ele>
<time>2026-07-16T11:10:26.000Z</time>
</trkpt>
<trkpt lat="57.254353" lon="9.580744">
<ele>15.919136</ele>
<time>2026-07-16T11:10:27.000Z</time>
</trkpt>
<trkpt lat="57.254337" lon="9.580766">
<ele>15.923798</ele>
<time>2026-07-16T11:10:28.000Z</time>
</trkpt>
<trkpt lat="57.254322" lon="9.580789">
<ele>15.928354</ele>
<time>2026-07-16T11:10:29.000Z</time>
</trkpt>
<trkpt lat="57.254299" lon="9.580818">
<ele>15.934863</ele>
<time>2026-07-16T11:10:30.000Z</time>
</trkpt>
<trkpt lat="57.254280" lon="9.580852">
<ele>15.941046</ele>
<time>2026-07-16T11:10:31.000Z</time>
</trkpt>
<trkpt lat="57.254257" lon="9.580885">
<ele>15.947852</ele>
<time>2026-07-16T11:10:32.000Z</time>
</trkpt>
<trkpt lat="57.254231" lon="9.580921">
<ele>15.955447</ele>
<time>2026-07-16T11:10:33.000Z</time>
</trkpt>
<trkpt lat="57.254208" lon="9.580958">
<ele>15.962575</ele>
<time>2026-07-16T11:10:34.000Z</time>
</trkpt>
<trkpt lat="57.254185" lon="9.580995">
<ele>15.969703</ele>
<time>2026-07-16T11:10:35.000Z</time>
</trkpt>
<trkpt lat="57.254162" lon="9.581031">
<ele>15.976749</ele>
<time>2026-07-16T11:10:36.000Z</time>
</trkpt>
<trkpt lat="57.254139" lon="9.581063">
<ele>15.983479</ele>
<time>2026-07-16T11:10:37.000Z</time>
</trkpt>
<trkpt lat="57.254120" lon="9.581093">
<ele>15.989320</ele>
<time>2026-07-16T11:10:38.000Z</time>
</trkpt>
<trkpt lat="57.254101" lon="9.581122">
<ele>15.995081</ele>
<time>2026-07-16T11:10:39.000Z</time>
</trkpt>
<trkpt lat="57.254078" lon="9.581153">
<ele>16.001735</ele>
<time>2026-07-16T11:10:40.000Z</time>
</trkpt>
<trkpt lat="57.254055" lon="9.581183">
<ele>16.008316</ele>
<time>2026-07-16T11:10:41.000Z</time>
</trkpt>
<trkpt lat="57.254032" lon="9.581221">
<ele>16.015528</ele>
<time>2026-07-16T11:10:42.000Z</time>
</trkpt>
<trkpt lat="57.254005" lon="9.581259">
<ele>16.023462</ele>
<time>2026-07-16T11:10:43.000Z</time>
</trkpt>
<trkpt lat="57.253979" lon="9.581299">
<ele>16.031370</ele>
<time>2026-07-16T11:10:44.000Z</time>
</trkpt>
<trkpt lat="57.253952" lon="9.581339">
<ele>16.039459</ele>
<time>2026-07-16T11:10:45.000Z</time>
</trkpt>
<trkpt lat="57.253925" lon="9.581382">
<ele>16.048023</ele>
<time>2026-07-16T11:10:46.000Z</time>
</trkpt>
<trkpt lat="57.253899" lon="9.581426">
<ele>16.069244</ele>
<time>2026-07-16T11:10:47.000Z</time>
</trkpt>
<trkpt lat="57.253872" lon="9.581471">
<ele>16.091130</ele>
<time>2026-07-16T11:10:48.000Z</time>
</trkpt>
<trkpt lat="57.253845" lon="9.581512">
<ele>16.112165</ele>
<time>2026-07-16T11:10:49.000Z</time>
</trkpt>
<trkpt lat="57.253822" lon="9.581563">
<ele>16.133789</ele>
<time>2026-07-16T11:10:50.000Z</time>
</trkpt>
<trkpt lat="57.253796" lon="9.581607">
<ele>16.155010</ele>
<time>2026-07-16T11:10:51.000Z</time>
</trkpt>
<trkpt lat="57.253773" lon="9.581650">
<ele>16.174704</ele>
<time>2026-07-16T11:10:52.000Z</time>
</trkpt>
<trkpt lat="57.253750" lon="9.581694">
<ele>16.194630</ele>
<time>2026-07-16T11:10:53.000Z</time>
</trkpt>
<trkpt lat="57.253727" lon="9.581737">
<ele>16.214324</ele>
<time>2026-07-16T11:10:54.000Z</time>
</trkpt>
<trkpt lat="57.253700" lon="9.581780">
<ele>16.235779</ele>
<time>2026-07-16T11:10:55.000Z</time>
</trkpt>
<trkpt lat="57.253677" lon="9.581826">
<ele>16.256179</ele>
<time>2026-07-16T11:10:56.000Z</time>
</trkpt>
<trkpt lat="57.253654" lon="9.581871">
<ele>16.276340</ele>
<time>2026-07-16T11:10:57.000Z</time>
</trkpt>
<trkpt lat="57.253632" lon="9.581917">
<ele>16.296336</ele>
<time>2026-07-16T11:10:58.000Z</time>
</trkpt>
<trkpt lat="57.253609" lon="9.581960">
<ele>16.316030</ele>
<time>2026-07-16T11:10:59.000Z</time>
</trkpt>
<trkpt lat="57.253582" lon="9.582005">
<ele>16.337916</ele>
<time>2026-07-16T11:11:00.000Z</time>
</trkpt>
<trkpt lat="57.253555" lon="9.582051">
<ele>16.360021</ele>
<time>2026-07-16T11:11:01.000Z</time>
</trkpt>
<trkpt lat="57.253529" lon="9.582099">
<ele>16.382143</ele>
<time>2026-07-16T11:11:02.000Z</time>
</trkpt>
<trkpt lat="57.253502" lon="9.582151">
<ele>16.405616</ele>
<time>2026-07-16T11:11:03.000Z</time>
</trkpt>
<trkpt lat="57.253475" lon="9.582205">
<ele>16.429564</ele>
<time>2026-07-16T11:11:04.000Z</time>
</trkpt>
<trkpt lat="57.253449" lon="9.582258">
<ele>16.452865</ele>
<time>2026-07-16T11:11:05.000Z</time>
</trkpt>
<trkpt lat="57.253426" lon="9.582308">
<ele>16.474239</ele>
<time>2026-07-16T11:11:06.000Z</time>
</trkpt>
<trkpt lat="57.253399" lon="9.582353">
<ele>16.496125</ele>
<time>2026-07-16T11:11:07.000Z</time>
</trkpt>
<trkpt lat="57.253372" lon="9.582397">
<ele>16.517795</ele>
<time>2026-07-16T11:11:08.000Z</time>
</trkpt>
<trkpt lat="57.253345" lon="9.582441">
<ele>16.539464</ele>
<time>2026-07-16T11:11:09.000Z</time>
</trkpt>
<trkpt lat="57.253323" lon="9.582483">
<ele>16.558504</ele>
<time>2026-07-16T11:11:10.000Z</time>
</trkpt>
<trkpt lat="57.253303" lon="9.582525">
<ele>16.576726</ele>
<time>2026-07-16T11:11:11.000Z</time>
</trkpt>
<trkpt lat="57.253281" lon="9.582563">
<ele>16.594853</ele>
<time>2026-07-16T11:11:12.000Z</time>
</trkpt>
<trkpt lat="57.253258" lon="9.582600">
<ele>16.613209</ele>
<time>2026-07-16T11:11:13.000Z</time>
</trkpt>
<trkpt lat="57.253235" lon="9.582637">
<ele>16.631564</ele>
<time>2026-07-16T11:11:14.000Z</time>
</trkpt>
<trkpt lat="57.253204" lon="9.582673">
<ele>16.653604</ele>
<time>2026-07-16T11:11:15.000Z</time>
</trkpt>
<trkpt lat="57.253174" lon="9.582706">
<ele>16.674621</ele>
<time>2026-07-16T11:11:16.000Z</time>
</trkpt>
<trkpt lat="57.253136" lon="9.582742">
<ele>16.700328</ele>
<time>2026-07-16T11:11:17.000Z</time>
</trkpt>
<trkpt lat="57.253101" lon="9.582782">
<ele>16.725101</ele>
<time>2026-07-16T11:11:18.000Z</time>
</trkpt>
<trkpt lat="57.253059" lon="9.582820">
<ele>16.753253</ele>
<time>2026-07-16T11:11:19.000Z</time>
</trkpt>
<trkpt lat="57.253017" lon="9.582864">
<ele>16.782317</ele>
<time>2026-07-16T11:11:20.000Z</time>
</trkpt>
<trkpt lat="57.252975" lon="9.582908">
<ele>16.811381</ele>
<time>2026-07-16T11:11:21.000Z</time>
</trkpt>
<trkpt lat="57.252934" lon="9.582952">
<ele>16.839922</ele>
<time>2026-07-16T11:11:22.000Z</time>
</trkpt>
<trkpt lat="57.252892" lon="9.582992">
<ele>16.868366</ele>
<time>2026-07-16T11:11:23.000Z</time>
</trkpt>
<trkpt lat="57.252853" lon="9.583032">
<ele>16.895218</ele>
<time>2026-07-16T11:11:24.000Z</time>
</trkpt>
<trkpt lat="57.252815" lon="9.583075">
<ele>16.922041</ele>
<time>2026-07-16T11:11:25.000Z</time>
</trkpt>
<trkpt lat="57.252781" lon="9.583118">
<ele>16.946842</ele>
<time>2026-07-16T11:11:26.000Z</time>
</trkpt>
<trkpt lat="57.252750" lon="9.583162">
<ele>16.970372</ele>
<time>2026-07-16T11:11:27.000Z</time>
</trkpt>
<trkpt lat="57.252724" lon="9.583209">
<ele>16.992265</ele>
<time>2026-07-16T11:11:28.000Z</time>
</trkpt>
<trkpt lat="57.252697" lon="9.583260">
<ele>17.015505</ele>
<time>2026-07-16T11:11:29.000Z</time>
</trkpt>
<trkpt lat="57.252674" lon="9.583312">
<ele>17.037380</ele>
<time>2026-07-16T11:11:30.000Z</time>
</trkpt>
<trkpt lat="57.252655" lon="9.583365">
<ele>17.058087</ele>
<time>2026-07-16T11:11:31.000Z</time>
</trkpt>
<trkpt lat="57.252636" lon="9.583422">
<ele>17.079891</ele>
<time>2026-07-16T11:11:32.000Z</time>
</trkpt>
<trkpt lat="57.252621" lon="9.583480">
<ele>17.100828</ele>
<time>2026-07-16T11:11:33.000Z</time>
</trkpt>
<trkpt lat="57.252602" lon="9.583540">
<ele>17.123470</ele>
<time>2026-07-16T11:11:34.000Z</time>
</trkpt>
<trkpt lat="57.252586" lon="9.583602">
<ele>17.149548</ele>
<time>2026-07-16T11:11:35.000Z</time>
</trkpt>
<trkpt lat="57.252575" lon="9.583664">
<ele>17.175935</ele>
<time>2026-07-16T11:11:36.000Z</time>
</trkpt>
<trkpt lat="57.252567" lon="9.583723">
<ele>17.200533</ele>
<time>2026-07-16T11:11:37.000Z</time>
</trkpt>
<trkpt lat="57.252560" lon="9.583778">
<ele>17.223382</ele>
<time>2026-07-16T11:11:38.000Z</time>
</trkpt>
<trkpt lat="57.252552" lon="9.583829">
<ele>17.244856</ele>
<time>2026-07-16T11:11:39.000Z</time>
</trkpt>
<trkpt lat="57.252544" lon="9.583880">
<ele>17.266330</ele>
<time>2026-07-16T11:11:40.000Z</time>
</trkpt>
<trkpt lat="57.252537" lon="9.583932">
<ele>17.288001</ele>
<time>2026-07-16T11:11:41.000Z</time>
</trkpt>
<trkpt lat="57.252537" lon="9.583982">
<ele>17.308221</ele>
<time>2026-07-16T11:11:42.000Z</time>
</trkpt>
<trkpt lat="57.252537" lon="9.584036">
<ele>17.330058</ele>
<time>2026-07-16T11:11:43.000Z</time>
</trkpt>
<trkpt lat="57.252533" lon="9.584093">
<ele>17.353302</ele>
<time>2026-07-16T11:11:44.000Z</time>
</trkpt>
<trkpt lat="57.252537" lon="9.584153">
<ele>17.377750</ele>
<time>2026-07-16T11:11:45.000Z</time>
</trkpt>
<trkpt lat="57.252537" lon="9.584213">
<ele>17.402014</ele>
<time>2026-07-16T11:11:46.000Z</time>
</trkpt>
<trkpt lat="57.252544" lon="9.584274">
<ele>17.427231</ele>
<time>2026-07-16T11:11:47.000Z</time>
</trkpt>
<trkpt lat="57.252552" lon="9.584333">
<ele>17.451829</ele>
<time>2026-07-16T11:11:48.000Z</time>
</trkpt>
<trkpt lat="57.252560" lon="9.584389">
<ele>17.475252</ele>
<time>2026-07-16T11:11:49.000Z</time>
</trkpt>
<trkpt lat="57.252563" lon="9.584449">
<ele>17.499619</ele>
<time>2026-07-16T11:11:50.000Z</time>
</trkpt>
<trkpt lat="57.252571" lon="9.584513">
<ele>17.526183</ele>
<time>2026-07-16T11:11:51.000Z</time>
</trkpt>
<trkpt lat="57.252575" lon="9.584580">
<ele>17.553442</ele>
<time>2026-07-16T11:11:52.000Z</time>
</trkpt>
<trkpt lat="57.252575" lon="9.584655">
<ele>17.583772</ele>
<time>2026-07-16T11:11:53.000Z</time>
</trkpt>
<trkpt lat="57.252575" lon="9.584741">
<ele>17.618551</ele>
<time>2026-07-16T11:11:54.000Z</time>
</trkpt>
<trkpt lat="57.252571" lon="9.584826">
<ele>17.653054</ele>
<time>2026-07-16T11:11:55.000Z</time>
</trkpt>
<trkpt lat="57.252560" lon="9.584916">
<ele>17.690368</ele>
<time>2026-07-16T11:11:56.000Z</time>
</trkpt>
<trkpt lat="57.252548" lon="9.585003">
<ele>17.726676</ele>
<time>2026-07-16T11:11:57.000Z</time>
</trkpt>
<trkpt lat="57.252537" lon="9.585094">
<ele>17.764385</ele>
<time>2026-07-16T11:11:58.000Z</time>
</trkpt>
<trkpt lat="57.252525" lon="9.585188">
<ele>17.803442</ele>
<time>2026-07-16T11:11:59.000Z</time>
</trkpt>
<trkpt lat="57.252514" lon="9.585283">
<ele>17.842731</ele>
<time>2026-07-16T11:12:00.000Z</time>
</trkpt>
<trkpt lat="57.252506" lon="9.585382">
<ele>17.883211</ele>
<time>2026-07-16T11:12:01.000Z</time>
</trkpt>
<trkpt lat="57.252495" lon="9.585486">
<ele>17.926065</ele>
<time>2026-07-16T11:12:02.000Z</time>
</trkpt>
<trkpt lat="57.252487" lon="9.585586">
<ele>17.966945</ele>
<time>2026-07-16T11:12:03.000Z</time>
</trkpt>
<trkpt lat="57.252476" lon="9.585686">
<ele>18.008212</ele>
<time>2026-07-16T11:12:04.000Z</time>
</trkpt>
<trkpt lat="57.252460" lon="9.585780">
<ele>18.048064</ele>
<time>2026-07-16T11:12:05.000Z</time>
</trkpt>
<trkpt lat="57.252438" lon="9.585867">
<ele>18.086901</ele>
<time>2026-07-16T11:12:06.000Z</time>
</trkpt>
<trkpt lat="57.252403" lon="9.585940">
<ele>18.126349</ele>
<time>2026-07-16T11:12:07.000Z</time>
</trkpt>
<trkpt lat="57.252358" lon="9.585996">
<ele>18.166903</ele>
<time>2026-07-16T11:12:08.000Z</time>
</trkpt>
<trkpt lat="57.252308" lon="9.586028">
<ele>18.206459</ele>
<time>2026-07-16T11:12:09.000Z</time>
</trkpt>
<trkpt lat="57.252258" lon="9.586039">
<ele>18.244103</ele>
<time>2026-07-16T11:12:10.000Z</time>
</trkpt>
<trkpt lat="57.252213" lon="9.586040">
<ele>18.277747</ele>
<time>2026-07-16T11:12:11.000Z</time>
</trkpt>
<trkpt lat="57.252159" lon="9.586034">
<ele>18.318190</ele>
<time>2026-07-16T11:12:12.000Z</time>
</trkpt>
<trkpt lat="57.252106" lon="9.586026">
<ele>18.357944</ele>
<time>2026-07-16T11:12:13.000Z</time>
</trkpt>
<trkpt lat="57.252052" lon="9.586020">
<ele>18.398387</ele>
<time>2026-07-16T11:12:14.000Z</time>
</trkpt>
<trkpt lat="57.251999" lon="9.586013">
<ele>18.438110</ele>
<time>2026-07-16T11:12:15.000Z</time>
</trkpt>
<trkpt lat="57.251945" lon="9.586002">
<ele>18.477519</ele>
<time>2026-07-16T11:12:16.000Z</time>
</trkpt>
<trkpt lat="57.251896" lon="9.585994">
<ele>18.501852</ele>
<time>2026-07-16T11:12:17.000Z</time>
</trkpt>
<trkpt lat="57.251843" lon="9.585984">
<ele>18.528206</ele>
<time>2026-07-16T11:12:18.000Z</time>
</trkpt>
<trkpt lat="57.251793" lon="9.585978">
<ele>18.552991</ele>
<time>2026-07-16T11:12:19.000Z</time>
</trkpt>
<trkpt lat="57.251743" lon="9.585977">
<ele>18.577727</ele>
<time>2026-07-16T11:12:20.000Z</time>
</trkpt>
<trkpt lat="57.251705" lon="9.585982">
<ele>18.596572</ele>
<time>2026-07-16T11:12:21.000Z</time>
</trkpt>
<trkpt lat="57.251671" lon="9.585995">
<ele>18.613747</ele>
<time>2026-07-16T11:12:22.000Z</time>
</trkpt>
<trkpt lat="57.251644" lon="9.586023">
<ele>18.629061</ele>
<time>2026-07-16T11:12:23.000Z</time>
</trkpt>
<trkpt lat="57.251625" lon="9.586063">
<ele>18.643305</ele>
<time>2026-07-16T11:12:24.000Z</time>
</trkpt>
<trkpt lat="57.251606" lon="9.586120">
<ele>18.661222</ele>
<time>2026-07-16T11:12:25.000Z</time>
</trkpt>
<trkpt lat="57.251591" lon="9.586193">
<ele>18.682118</ele>
<time>2026-07-16T11:12:26.000Z</time>
</trkpt>
<trkpt lat="57.251575" lon="9.586278">
<ele>18.706201</ele>
<time>2026-07-16T11:12:27.000Z</time>
</trkpt>
<trkpt lat="57.251568" lon="9.586369">
<ele>18.730797</ele>
<time>2026-07-16T11:12:28.000Z</time>
</trkpt>
<trkpt lat="57.251560" lon="9.586463">
<ele>18.756260</ele>
<time>2026-07-16T11:12:29.000Z</time>
</trkpt>
<trkpt lat="57.251549" lon="9.586560">
<ele>18.782781</ele>
<time>2026-07-16T11:12:30.000Z</time>
</trkpt>
<trkpt lat="57.251541" lon="9.586662">
<ele>18.810361</ele>
<time>2026-07-16T11:12:31.000Z</time>
</trkpt>
<trkpt lat="57.251533" lon="9.586763">
<ele>18.837676</ele>
<time>2026-07-16T11:12:32.000Z</time>
</trkpt>
<trkpt lat="57.251522" lon="9.586864">
<ele>18.865246</ele>
<time>2026-07-16T11:12:33.000Z</time>
</trkpt>
<trkpt lat="57.251511" lon="9.586966">
<ele>18.893077</ele>
<time>2026-07-16T11:12:34.000Z</time>
</trkpt>
<trkpt lat="57.251499" lon="9.587072">
<ele>18.922057</ele>
<time>2026-07-16T11:12:35.000Z</time>
</trkpt>
<trkpt lat="57.251492" lon="9.587175">
<ele>18.949836</ele>
<time>2026-07-16T11:12:36.000Z</time>
</trkpt>
<trkpt lat="57.251484" lon="9.587268">
<ele>18.975035</ele>
<time>2026-07-16T11:12:37.000Z</time>
</trkpt>
<trkpt lat="57.251480" lon="9.587355">
<ele>18.998399</ele>
<time>2026-07-16T11:12:38.000Z</time>
</trkpt>
<trkpt lat="57.251472" lon="9.587445">
<ele>19.022806</ele>
<time>2026-07-16T11:12:39.000Z</time>
</trkpt>
<trkpt lat="57.251461" lon="9.587538">
<ele>19.048280</ele>
<time>2026-07-16T11:12:40.000Z</time>
</trkpt>
<trkpt lat="57.251450" lon="9.587630">
<ele>19.073493</ele>
<time>2026-07-16T11:12:41.000Z</time>
</trkpt>
<trkpt lat="57.251434" lon="9.587733">
<ele>19.102169</ele>
<time>2026-07-16T11:12:42.000Z</time>
</trkpt>
<trkpt lat="57.251427" lon="9.587835">
<ele>19.129683</ele>
<time>2026-07-16T11:12:43.000Z</time>
</trkpt>
<trkpt lat="57.251419" lon="9.587934">
<ele>19.156469</ele>
<time>2026-07-16T11:12:44.000Z</time>
</trkpt>
<trkpt lat="57.251411" lon="9.588035">
<ele>19.183784</ele>
<time>2026-07-16T11:12:45.000Z</time>
</trkpt>
<trkpt lat="57.251404" lon="9.588134">
<ele>19.210501</ele>
<time>2026-07-16T11:12:46.000Z</time>
</trkpt>
<trkpt lat="57.251396" lon="9.588234">
<ele>19.237552</ele>
<time>2026-07-16T11:12:47.000Z</time>
</trkpt>
<trkpt lat="57.251385" lon="9.588329">
<ele>19.263549</ele>
<time>2026-07-16T11:12:48.000Z</time>
</trkpt>
<trkpt lat="57.251373" lon="9.588423">
<ele>19.289394</ele>
<time>2026-07-16T11:12:49.000Z</time>
</trkpt>
<trkpt lat="57.251358" lon="9.588518">
<ele>19.315876</ele>
<time>2026-07-16T11:12:50.000Z</time>
</trkpt>
<trkpt lat="57.251339" lon="9.588616">
<ele>19.343734</ele>
<time>2026-07-16T11:12:51.000Z</time>
</trkpt>
<trkpt lat="57.251328" lon="9.588719">
<ele>19.380337</ele>
<time>2026-07-16T11:12:52.000Z</time>
</trkpt>
<trkpt lat="57.251312" lon="9.588822">
<ele>19.444229</ele>
<time>2026-07-16T11:12:53.000Z</time>
</trkpt>
<trkpt lat="57.251305" lon="9.588924">
<ele>19.505532</ele>
<time>2026-07-16T11:12:54.000Z</time>
</trkpt>
<trkpt lat="57.251293" lon="9.589025">
<ele>19.567185</ele>
<time>2026-07-16T11:12:55.000Z</time>
</trkpt>
<trkpt lat="57.251282" lon="9.589130">
<ele>19.630952</ele>
<time>2026-07-16T11:12:56.000Z</time>
</trkpt>
<trkpt lat="57.251270" lon="9.589237">
<ele>19.696105</ele>
<time>2026-07-16T11:12:57.000Z</time>
</trkpt>
<trkpt lat="57.251259" lon="9.589340">
<ele>19.758701</ele>
<time>2026-07-16T11:12:58.000Z</time>
</trkpt>
<trkpt lat="57.251244" lon="9.589442">
<ele>19.821723</ele>
<time>2026-07-16T11:12:59.000Z</time>
</trkpt>
<trkpt lat="57.251228" lon="9.589546">
<ele>19.886189</ele>
<time>2026-07-16T11:13:00.000Z</time>
</trkpt>
<trkpt lat="57.251213" lon="9.589649">
<ele>19.949787</ele>
<time>2026-07-16T11:13:01.000Z</time>
</trkpt>
<trkpt lat="57.251198" lon="9.589752">
<ele>20.013384</ele>
<time>2026-07-16T11:13:02.000Z</time>
</trkpt>
<trkpt lat="57.251179" lon="9.589858">
<ele>20.079963</ele>
<time>2026-07-16T11:13:03.000Z</time>
</trkpt>
<trkpt lat="57.251167" lon="9.589965">
<ele>20.145116</ele>
<time>2026-07-16T11:13:04.000Z</time>
</trkpt>
<trkpt lat="57.251156" lon="9.590070">
<ele>20.208882</ele>
<time>2026-07-16T11:13:05.000Z</time>
</trkpt>
<trkpt lat="57.251144" lon="9.590174">
<ele>20.272285</ele>
<time>2026-07-16T11:13:06.000Z</time>
</trkpt>
<trkpt lat="57.251133" lon="9.590278">
<ele>20.335466</ele>
<time>2026-07-16T11:13:07.000Z</time>
</trkpt>
<trkpt lat="57.251122" lon="9.590382">
<ele>20.398648</ele>
<time>2026-07-16T11:13:08.000Z</time>
</trkpt>
<trkpt lat="57.251110" lon="9.590485">
<ele>20.461467</ele>
<time>2026-07-16T11:13:09.000Z</time>
</trkpt>
<trkpt lat="57.251099" lon="9.590585">
<ele>20.522310</ele>
<time>2026-07-16T11:13:10.000Z</time>
</trkpt>
<trkpt lat="57.251087" lon="9.590683">
<ele>20.582218</ele>
<time>2026-07-16T11:13:11.000Z</time>
</trkpt>
<trkpt lat="57.251072" lon="9.590784">
<ele>20.644666</ele>
<time>2026-07-16T11:13:12.000Z</time>
</trkpt>
<trkpt lat="57.251061" lon="9.590882">
<ele>20.704340</ele>
<time>2026-07-16T11:13:13.000Z</time>
</trkpt>
<trkpt lat="57.251049" lon="9.590981">
<ele>20.764830</ele>
<time>2026-07-16T11:13:14.000Z</time>
</trkpt>
<trkpt lat="57.251038" lon="9.591084">
<ele>20.827427</ele>
<time>2026-07-16T11:13:15.000Z</time>
</trkpt>
<trkpt lat="57.251026" lon="9.591182">
<ele>20.887336</ele>
<time>2026-07-16T11:13:16.000Z</time>
</trkpt>
<trkpt lat="57.251015" lon="9.591276">
<ele>20.944677</ele>
<time>2026-07-16T11:13:17.000Z</time>
</trkpt>
<trkpt lat="57.251003" lon="9.591377">
<ele>21.006332</ele>
<time>2026-07-16T11:13:18.000Z</time>
</trkpt>
<trkpt lat="57.250996" lon="9.591476">
<ele>21.065860</ele>
<time>2026-07-16T11:13:19.000Z</time>
</trkpt>
<trkpt lat="57.250988" lon="9.591574">
<ele>21.124952</ele>
<time>2026-07-16T11:13:20.000Z</time>
</trkpt>
<trkpt lat="57.250977" lon="9.591668">
<ele>21.182294</ele>
<time>2026-07-16T11:13:21.000Z</time>
</trkpt>
<trkpt lat="57.250969" lon="9.591763">
<ele>21.239618</ele>
<time>2026-07-16T11:13:22.000Z</time>
</trkpt>
<trkpt lat="57.250957" lon="9.591858">
<ele>21.297783</ele>
<time>2026-07-16T11:13:23.000Z</time>
</trkpt>
<trkpt lat="57.250946" lon="9.591952">
<ele>21.357460</ele>
<time>2026-07-16T11:13:24.000Z</time>
</trkpt>
<trkpt lat="57.250938" lon="9.592047">
<ele>21.431899</ele>
<time>2026-07-16T11:13:25.000Z</time>
</trkpt>
<trkpt lat="57.250927" lon="9.592139">
<ele>21.504848</ele>
<time>2026-07-16T11:13:26.000Z</time>
</trkpt>
<trkpt lat="57.250919" lon="9.592236">
<ele>21.580818</ele>
<time>2026-07-16T11:13:27.000Z</time>
</trkpt>
<trkpt lat="57.250908" lon="9.592333">
<ele>21.657552</ele>
<time>2026-07-16T11:13:28.000Z</time>
</trkpt>
<trkpt lat="57.250896" lon="9.592429">
<ele>21.733838</ele>
<time>2026-07-16T11:13:29.000Z</time>
</trkpt>
<trkpt lat="57.250889" lon="9.592526">
<ele>21.809605</ele>
<time>2026-07-16T11:13:30.000Z</time>
</trkpt>
<trkpt lat="57.250877" lon="9.592622">
<ele>21.885891</ele>
<time>2026-07-16T11:13:31.000Z</time>
</trkpt>
<trkpt lat="57.250862" lon="9.592717">
<ele>21.962514</ele>
<time>2026-07-16T11:13:32.000Z</time>
</trkpt>
<trkpt lat="57.250851" lon="9.592809">
<ele>22.035463</ele>
<time>2026-07-16T11:13:33.000Z</time>
</trkpt>
<trkpt lat="57.250839" lon="9.592901">
<ele>22.108735</ele>
<time>2026-07-16T11:13:34.000Z</time>
</trkpt>
<trkpt lat="57.250832" lon="9.592997">
<ele>22.183735</ele>
<time>2026-07-16T11:13:35.000Z</time>
</trkpt>
<trkpt lat="57.250820" lon="9.593092">
<ele>22.259267</ele>
<time>2026-07-16T11:13:36.000Z</time>
</trkpt>
<trkpt lat="57.250805" lon="9.593188">
<ele>22.336633</ele>
<time>2026-07-16T11:13:37.000Z</time>
</trkpt>
<trkpt lat="57.250793" lon="9.593286">
<ele>22.414429</ele>
<time>2026-07-16T11:13:38.000Z</time>
</trkpt>
<trkpt lat="57.250786" lon="9.593384">
<ele>22.490964</ele>
<time>2026-07-16T11:13:39.000Z</time>
</trkpt>
<trkpt lat="57.250774" lon="9.593479">
<ele>22.566496</ele>
<time>2026-07-16T11:13:40.000Z</time>
</trkpt>
<trkpt lat="57.250767" lon="9.593572">
<ele>22.639195</ele>
<time>2026-07-16T11:13:41.000Z</time>
</trkpt>
<trkpt lat="57.250751" lon="9.593667">
<ele>22.716230</ele>
<time>2026-07-16T11:13:42.000Z</time>
</trkpt>
<trkpt lat="57.250740" lon="9.593760">
<ele>22.789937</ele>
<time>2026-07-16T11:13:43.000Z</time>
</trkpt>
<trkpt lat="57.250729" lon="9.593856">
<ele>22.865913</ele>
<time>2026-07-16T11:13:44.000Z</time>
</trkpt>
<trkpt lat="57.250721" lon="9.593954">
<ele>22.942649</ele>
<time>2026-07-16T11:13:45.000Z</time>
</trkpt>
<trkpt lat="57.250710" lon="9.594051">
<ele>23.019383</ele>
<time>2026-07-16T11:13:46.000Z</time>
</trkpt>
<trkpt lat="57.250698" lon="9.594146">
<ele>23.094916</ele>
<time>2026-07-16T11:13:47.000Z</time>
</trkpt>
<trkpt lat="57.250687" lon="9.594238">
<ele>23.167866</ele>
<time>2026-07-16T11:13:48.000Z</time>
</trkpt>
<trkpt lat="57.250679" lon="9.594333">
<ele>23.242305</ele>
<time>2026-07-16T11:13:49.000Z</time>
</trkpt>
<trkpt lat="57.250668" lon="9.594426">
<ele>23.316012</ele>
<time>2026-07-16T11:13:50.000Z</time>
</trkpt>
<trkpt lat="57.250660" lon="9.594521">
<ele>23.390451</ele>
<time>2026-07-16T11:13:51.000Z</time>
</trkpt>
<trkpt lat="57.250649" lon="9.594617">
<ele>23.466428</ele>
<time>2026-07-16T11:13:52.000Z</time>
</trkpt>
<trkpt lat="57.250641" lon="9.594713">
<ele>23.541633</ele>
<time>2026-07-16T11:13:53.000Z</time>
</trkpt>
<trkpt lat="57.250629" lon="9.594807">
<ele>23.616412</ele>
<time>2026-07-16T11:13:54.000Z</time>
</trkpt>
<trkpt lat="57.250622" lon="9.594899">
<ele>23.688344</ele>
<time>2026-07-16T11:13:55.000Z</time>
</trkpt>
<trkpt lat="57.250610" lon="9.594998">
<ele>23.766895</ele>
<time>2026-07-16T11:13:56.000Z</time>
</trkpt>
<trkpt lat="57.250599" lon="9.595096">
<ele>23.844388</ele>
<time>2026-07-16T11:13:57.000Z</time>
</trkpt>
<trkpt lat="57.250587" lon="9.595191">
<ele>23.919920</ele>
<time>2026-07-16T11:13:58.000Z</time>
</trkpt>
<trkpt lat="57.250576" lon="9.595283">
<ele>23.988239</ele>
<time>2026-07-16T11:13:59.000Z</time>
</trkpt>
<trkpt lat="57.250568" lon="9.595368">
<ele>24.050698</ele>
<time>2026-07-16T11:14:00.000Z</time>
</trkpt>
<trkpt lat="57.250557" lon="9.595471">
<ele>24.126702</ele>
<time>2026-07-16T11:14:01.000Z</time>
</trkpt>
<trkpt lat="57.250546" lon="9.595568">
<ele>24.198450</ele>
<time>2026-07-16T11:14:02.000Z</time>
</trkpt>
<trkpt lat="57.250534" lon="9.595661">
<ele>24.267665</ele>
<time>2026-07-16T11:14:03.000Z</time>
</trkpt>
<trkpt lat="57.250523" lon="9.595754">
<ele>24.336582</ele>
<time>2026-07-16T11:14:04.000Z</time>
</trkpt>
<trkpt lat="57.250511" lon="9.595849">
<ele>24.407206</ele>
<time>2026-07-16T11:14:05.000Z</time>
</trkpt>
<trkpt lat="57.250504" lon="9.595948">
<ele>24.479485</ele>
<time>2026-07-16T11:14:06.000Z</time>
</trkpt>
<trkpt lat="57.250488" lon="9.596045">
<ele>24.552899</ele>
<time>2026-07-16T11:14:07.000Z</time>
</trkpt>
<trkpt lat="57.250477" lon="9.596144">
<ele>24.626065</ele>
<time>2026-07-16T11:14:08.000Z</time>
</trkpt>
<trkpt lat="57.250465" lon="9.596241">
<ele>24.698100</ele>
<time>2026-07-16T11:14:09.000Z</time>
</trkpt>
<trkpt lat="57.250454" lon="9.596342">
<ele>24.772684</ele>
<time>2026-07-16T11:14:10.000Z</time>
</trkpt>
<trkpt lat="57.250443" lon="9.596440">
<ele>24.845142</ele>
<time>2026-07-16T11:14:11.000Z</time>
</trkpt>
<trkpt lat="57.250435" lon="9.596539">
<ele>24.917607</ele>
<time>2026-07-16T11:14:12.000Z</time>
</trkpt>
<trkpt lat="57.250423" lon="9.596633">
<ele>24.987526</ele>
<time>2026-07-16T11:14:13.000Z</time>
</trkpt>
<trkpt lat="57.250416" lon="9.596728">
<ele>25.056935</ele>
<time>2026-07-16T11:14:14.000Z</time>
</trkpt>
<trkpt lat="57.250404" lon="9.596822">
<ele>25.126855</ele>
<time>2026-07-16T11:14:15.000Z</time>
</trkpt>
<trkpt lat="57.250397" lon="9.596917">
<ele>25.196264</ele>
<time>2026-07-16T11:14:16.000Z</time>
</trkpt>
<trkpt lat="57.250385" lon="9.597011">
<ele>25.266183</ele>
<time>2026-07-16T11:14:17.000Z</time>
</trkpt>
<trkpt lat="57.250378" lon="9.597105">
<ele>25.334875</ele>
<time>2026-07-16T11:14:18.000Z</time>
</trkpt>
<trkpt lat="57.250370" lon="9.597198">
<ele>25.403048</ele>
<time>2026-07-16T11:14:19.000Z</time>
</trkpt>
<trkpt lat="57.250359" lon="9.597290">
<ele>25.471258</ele>
<time>2026-07-16T11:14:20.000Z</time>
</trkpt>
<trkpt lat="57.250351" lon="9.597383">
<ele>25.539430</ele>
<time>2026-07-16T11:14:21.000Z</time>
</trkpt>
<trkpt lat="57.250339" lon="9.597478">
<ele>25.610054</ele>
<time>2026-07-16T11:14:22.000Z</time>
</trkpt>
<trkpt lat="57.250332" lon="9.597571">
<ele>25.678029</ele>
<time>2026-07-16T11:14:23.000Z</time>
</trkpt>
<trkpt lat="57.250324" lon="9.597665">
<ele>25.746917</ele>
<time>2026-07-16T11:14:24.000Z</time>
</trkpt>
<trkpt lat="57.250313" lon="9.597764">
<ele>25.820083</ele>
<time>2026-07-16T11:14:25.000Z</time>
</trkpt>
<trkpt lat="57.250301" lon="9.597858">
<ele>25.890003</ele>
<time>2026-07-16T11:14:26.000Z</time>
</trkpt>
<trkpt lat="57.250290" lon="9.597949">
<ele>25.957506</ele>
<time>2026-07-16T11:14:27.000Z</time>
</trkpt>
<trkpt lat="57.250278" lon="9.598040">
<ele>26.025314</ele>
<time>2026-07-16T11:14:28.000Z</time>
</trkpt>
<trkpt lat="57.250263" lon="9.598125">
<ele>26.090040</ele>
<time>2026-07-16T11:14:29.000Z</time>
</trkpt>
<trkpt lat="57.250252" lon="9.598202">
<ele>26.147694</ele>
<time>2026-07-16T11:14:30.000Z</time>
</trkpt>
<trkpt lat="57.250236" lon="9.598268">
<ele>26.200053</ele>
<time>2026-07-16T11:14:31.000Z</time>
</trkpt>
<trkpt lat="57.250221" lon="9.598322">
<ele>26.243998</ele>
<time>2026-07-16T11:14:32.000Z</time>
</trkpt>
<trkpt lat="57.250195" lon="9.598386">
<ele>26.301940</ele>
<time>2026-07-16T11:14:33.000Z</time>
</trkpt>
<trkpt lat="57.250164" lon="9.598442">
<ele>26.338886</ele>
<time>2026-07-16T11:14:34.000Z</time>
</trkpt>
<trkpt lat="57.250126" lon="9.598498">
<ele>26.360243</ele>
<time>2026-07-16T11:14:35.000Z</time>
</trkpt>
<trkpt lat="57.250092" lon="9.598550">
<ele>26.379637</ele>
<time>2026-07-16T11:14:36.000Z</time>
</trkpt>
<trkpt lat="57.250057" lon="9.598605">
<ele>26.399825</ele>
<time>2026-07-16T11:14:37.000Z</time>
</trkpt>
<trkpt lat="57.250027" lon="9.598660">
<ele>26.418393</ele>
<time>2026-07-16T11:14:38.000Z</time>
</trkpt>
<trkpt lat="57.249989" lon="9.598707">
<ele>26.438487</ele>
<time>2026-07-16T11:14:39.000Z</time>
</trkpt>
<trkpt lat="57.249947" lon="9.598756">
<ele>26.460313</ele>
<time>2026-07-16T11:14:40.000Z</time>
</trkpt>
<trkpt lat="57.249912" lon="9.598804">
<ele>26.479466</ele>
<time>2026-07-16T11:14:41.000Z</time>
</trkpt>
<trkpt lat="57.249878" lon="9.598857">
<ele>26.499011</ele>
<time>2026-07-16T11:14:42.000Z</time>
</trkpt>
<trkpt lat="57.249851" lon="9.598913">
<ele>26.516845</ele>
<time>2026-07-16T11:14:43.000Z</time>
</trkpt>
<trkpt lat="57.249825" lon="9.598985">
<ele>26.537426</ele>
<time>2026-07-16T11:14:44.000Z</time>
</trkpt>
<trkpt lat="57.249805" lon="9.599058">
<ele>26.556880</ele>
<time>2026-07-16T11:14:45.000Z</time>
</trkpt>
<trkpt lat="57.249790" lon="9.599136">
<ele>26.576561</ele>
<time>2026-07-16T11:14:46.000Z</time>
</trkpt>
<trkpt lat="57.249775" lon="9.599216">
<ele>26.596690</ele>
<time>2026-07-16T11:14:47.000Z</time>
</trkpt>
<trkpt lat="57.249767" lon="9.599291">
<ele>26.614864</ele>
<time>2026-07-16T11:14:48.000Z</time>
</trkpt>
<trkpt lat="57.249752" lon="9.599383">
<ele>26.637708</ele>
<time>2026-07-16T11:14:49.000Z</time>
</trkpt>
<trkpt lat="57.249737" lon="9.599473">
<ele>26.660098</ele>
<time>2026-07-16T11:14:50.000Z</time>
</trkpt>
<trkpt lat="57.249725" lon="9.599558">
<ele>26.680983</ele>
<time>2026-07-16T11:14:51.000Z</time>
</trkpt>
<trkpt lat="57.249718" lon="9.599642">
<ele>26.701189</ele>
<time>2026-07-16T11:14:52.000Z</time>
</trkpt>
<trkpt lat="57.249710" lon="9.599731">
<ele>26.722638</ele>
<time>2026-07-16T11:14:53.000Z</time>
</trkpt>
<trkpt lat="57.249699" lon="9.599822">
<ele>26.744806</ele>
<time>2026-07-16T11:14:54.000Z</time>
</trkpt>
<trkpt lat="57.249683" lon="9.599915">
<ele>26.768007</ele>
<time>2026-07-16T11:14:55.000Z</time>
</trkpt>
<trkpt lat="57.249672" lon="9.600008">
<ele>26.790640</ele>
<time>2026-07-16T11:14:56.000Z</time>
</trkpt>
<trkpt lat="57.249660" lon="9.600100">
<ele>26.813139</ele>
<time>2026-07-16T11:14:57.000Z</time>
</trkpt>
<trkpt lat="57.249649" lon="9.600189">
<ele>26.834844</ele>
<time>2026-07-16T11:14:58.000Z</time>
</trkpt>
<trkpt lat="57.249645" lon="9.600280">
<ele>26.856550</ele>
<time>2026-07-16T11:14:59.000Z</time>
</trkpt>
<trkpt lat="57.249634" lon="9.600371">
<ele>26.878718</ele>
<time>2026-07-16T11:15:00.000Z</time>
</trkpt>
<trkpt lat="57.249630" lon="9.600460">
<ele>26.899950</ele>
<time>2026-07-16T11:15:01.000Z</time>
</trkpt>
<trkpt lat="57.249619" lon="9.600546">
<ele>26.920960</ele>
<time>2026-07-16T11:15:02.000Z</time>
</trkpt>
<trkpt lat="57.249611" lon="9.600630">
<ele>26.941237</ele>
<time>2026-07-16T11:15:03.000Z</time>
</trkpt>
<trkpt lat="57.249603" lon="9.600715">
<ele>26.961749</ele>
<time>2026-07-16T11:15:04.000Z</time>
</trkpt>
<trkpt lat="57.249603" lon="9.600800">
<ele>26.981957</ele>
<time>2026-07-16T11:15:05.000Z</time>
</trkpt>
<trkpt lat="57.249607" lon="9.600878">
<ele>27.000585</ele>
<time>2026-07-16T11:15:06.000Z</time>
</trkpt>
<trkpt lat="57.249619" lon="9.600949">
<ele>27.018269</ele>
<time>2026-07-16T11:15:07.000Z</time>
</trkpt>
<trkpt lat="57.249634" lon="9.601022">
<ele>27.036834</ele>
<time>2026-07-16T11:15:08.000Z</time>
</trkpt>
<trkpt lat="57.249649" lon="9.601100">
<ele>27.056515</ele>
<time>2026-07-16T11:15:09.000Z</time>
</trkpt>
<trkpt lat="57.249660" lon="9.601178">
<ele>27.075679</ele>
<time>2026-07-16T11:15:10.000Z</time>
</trkpt>
<trkpt lat="57.249668" lon="9.601263">
<ele>27.096191</ele>
<time>2026-07-16T11:15:11.000Z</time>
</trkpt>
<trkpt lat="57.249672" lon="9.601350">
<ele>27.116949</ele>
<time>2026-07-16T11:15:12.000Z</time>
</trkpt>
<trkpt lat="57.249672" lon="9.601438">
<ele>27.131254</ele>
<time>2026-07-16T11:15:13.000Z</time>
</trkpt>
<trkpt lat="57.249680" lon="9.601522">
<ele>27.144407</ele>
<time>2026-07-16T11:15:14.000Z</time>
</trkpt>
<trkpt lat="57.249691" lon="9.601607">
<ele>27.157885</ele>
<time>2026-07-16T11:15:15.000Z</time>
</trkpt>
<trkpt lat="57.249702" lon="9.601692">
<ele>27.171364</ele>
<time>2026-07-16T11:15:16.000Z</time>
</trkpt>
<trkpt lat="57.249718" lon="9.601770">
<ele>27.184228</ele>
<time>2026-07-16T11:15:17.000Z</time>
</trkpt>
<trkpt lat="57.249737" lon="9.601841">
<ele>27.196444</ele>
<time>2026-07-16T11:15:18.000Z</time>
</trkpt>
<trkpt lat="57.249771" lon="9.601900">
<ele>27.209738</ele>
<time>2026-07-16T11:15:19.000Z</time>
</trkpt>
<trkpt lat="57.249802" lon="9.601960">
<ele>27.222533</ele>
<time>2026-07-16T11:15:20.000Z</time>
</trkpt>
<trkpt lat="57.249825" lon="9.602025">
<ele>27.234511</ele>
<time>2026-07-16T11:15:21.000Z</time>
</trkpt>
<trkpt lat="57.249847" lon="9.602094">
<ele>27.246863</ele>
<time>2026-07-16T11:15:22.000Z</time>
</trkpt>
<trkpt lat="57.249863" lon="9.602165">
<ele>27.258724</ele>
<time>2026-07-16T11:15:23.000Z</time>
</trkpt>
<trkpt lat="57.249874" lon="9.602243">
<ele>27.271155</ele>
<time>2026-07-16T11:15:24.000Z</time>
</trkpt>
<trkpt lat="57.249882" lon="9.602325">
<ele>27.284005</ele>
<time>2026-07-16T11:15:25.000Z</time>
</trkpt>
<trkpt lat="57.249882" lon="9.602409">
<ele>27.296959</ele>
<time>2026-07-16T11:15:26.000Z</time>
</trkpt>
<trkpt lat="57.249878" lon="9.602496">
<ele>27.310424</ele>
<time>2026-07-16T11:15:27.000Z</time>
</trkpt>
<trkpt lat="57.249870" lon="9.602591">
<ele>27.325251</ele>
<time>2026-07-16T11:15:28.000Z</time>
</trkpt>
<trkpt lat="57.249863" lon="9.602690">
<ele>27.340648</ele>
<time>2026-07-16T11:15:29.000Z</time>
</trkpt>
<trkpt lat="57.249855" lon="9.602791">
<ele>27.356390</ele>
<time>2026-07-16T11:15:30.000Z</time>
</trkpt>
<trkpt lat="57.249840" lon="9.602889">
<ele>27.372097</ele>
<time>2026-07-16T11:15:31.000Z</time>
</trkpt>
<trkpt lat="57.249828" lon="9.602988">
<ele>27.387742</ele>
<time>2026-07-16T11:15:32.000Z</time>
</trkpt>
<trkpt lat="57.249825" lon="9.603084">
<ele>27.402572</ele>
<time>2026-07-16T11:15:33.000Z</time>
</trkpt>
<trkpt lat="57.249821" lon="9.603178">
<ele>27.417113</ele>
<time>2026-07-16T11:15:34.000Z</time>
</trkpt>
<trkpt lat="57.249813" lon="9.603271">
<ele>27.431635</ele>
<time>2026-07-16T11:15:35.000Z</time>
</trkpt>
<trkpt lat="57.249805" lon="9.603366">
<ele>27.446462</ele>
<time>2026-07-16T11:15:36.000Z</time>
</trkpt>
<trkpt lat="57.249798" lon="9.603465">
<ele>27.461860</ele>
<time>2026-07-16T11:15:37.000Z</time>
</trkpt>
<trkpt lat="57.249783" lon="9.603573">
<ele>27.479055</ele>
<time>2026-07-16T11:15:38.000Z</time>
</trkpt>
<trkpt lat="57.249771" lon="9.603676">
<ele>27.495304</ele>
<time>2026-07-16T11:15:39.000Z</time>
</trkpt>
<trkpt lat="57.249763" lon="9.603777">
<ele>27.511046</ele>
<time>2026-07-16T11:15:40.000Z</time>
</trkpt>
<trkpt lat="57.249756" lon="9.603884">
<ele>27.527667</ele>
<time>2026-07-16T11:15:41.000Z</time>
</trkpt>
<trkpt lat="57.249744" lon="9.603990">
<ele>27.544368</ele>
<time>2026-07-16T11:15:42.000Z</time>
</trkpt>
<trkpt lat="57.249737" lon="9.604095">
<ele>27.560683</ele>
<time>2026-07-16T11:15:43.000Z</time>
</trkpt>
<trkpt lat="57.249721" lon="9.604213">
<ele>27.579444</ele>
<time>2026-07-16T11:15:44.000Z</time>
</trkpt>
<trkpt lat="57.249710" lon="9.604326">
<ele>27.597150</ele>
<time>2026-07-16T11:15:45.000Z</time>
</trkpt>
<trkpt lat="57.249695" lon="9.604440">
<ele>27.615243</ele>
<time>2026-07-16T11:15:46.000Z</time>
</trkpt>
<trkpt lat="57.249683" lon="9.604553">
<ele>27.631489</ele>
<time>2026-07-16T11:15:47.000Z</time>
</trkpt>
<trkpt lat="57.249668" lon="9.604671">
<ele>27.627108</ele>
<time>2026-07-16T11:15:48.000Z</time>
</trkpt>
<trkpt lat="57.249657" lon="9.604785">
<ele>27.622922</ele>
<time>2026-07-16T11:15:49.000Z</time>
</trkpt>
<trkpt lat="57.249645" lon="9.604898">
<ele>27.618760</ele>
<time>2026-07-16T11:15:50.000Z</time>
</trkpt>
<trkpt lat="57.249630" lon="9.605013">
<ele>27.614484</ele>
<time>2026-07-16T11:15:51.000Z</time>
</trkpt>
<trkpt lat="57.249619" lon="9.605129">
<ele>27.610227</ele>
<time>2026-07-16T11:15:52.000Z</time>
</trkpt>
<trkpt lat="57.249603" lon="9.605245">
<ele>27.605900</ele>
<time>2026-07-16T11:15:53.000Z</time>
</trkpt>
<trkpt lat="57.249592" lon="9.605360">
<ele>27.601679</ele>
<time>2026-07-16T11:15:54.000Z</time>
</trkpt>
<trkpt lat="57.249580" lon="9.605474">
<ele>27.597481</ele>
<time>2026-07-16T11:15:55.000Z</time>
</trkpt>
<trkpt lat="57.249565" lon="9.605582">
<ele>27.593451</ele>
<time>2026-07-16T11:15:56.000Z</time>
</trkpt>
<trkpt lat="57.249550" lon="9.605691">
<ele>27.589386</ele>
<time>2026-07-16T11:15:57.000Z</time>
</trkpt>
<trkpt lat="57.249538" lon="9.605799">
<ele>27.585400</ele>
<time>2026-07-16T11:15:58.000Z</time>
</trkpt>
<trkpt lat="57.249527" lon="9.605904">
<ele>27.581535</ele>
<time>2026-07-16T11:15:59.000Z</time>
</trkpt>
<trkpt lat="57.249516" lon="9.606012">
<ele>27.577562</ele>
<time>2026-07-16T11:16:00.000Z</time>
</trkpt>
<trkpt lat="57.249500" lon="9.606122">
<ele>27.573445</ele>
<time>2026-07-16T11:16:01.000Z</time>
</trkpt>
<trkpt lat="57.249489" lon="9.606231">
<ele>27.569437</ele>
<time>2026-07-16T11:16:02.000Z</time>
</trkpt>
<trkpt lat="57.249477" lon="9.606339">
<ele>27.565452</ele>
<time>2026-07-16T11:16:03.000Z</time>
</trkpt>
<trkpt lat="57.249470" lon="9.606447">
<ele>27.561521</ele>
<time>2026-07-16T11:16:04.000Z</time>
</trkpt>
<trkpt lat="57.249462" lon="9.606553">
<ele>27.557652</ele>
<time>2026-07-16T11:16:05.000Z</time>
</trkpt>
<trkpt lat="57.249455" lon="9.606665">
<ele>27.553577</ele>
<time>2026-07-16T11:16:06.000Z</time>
</trkpt>
<trkpt lat="57.249439" lon="9.606779">
<ele>27.549320</ele>
<time>2026-07-16T11:16:07.000Z</time>
</trkpt>
<trkpt lat="57.249428" lon="9.606894">
<ele>27.545099</ele>
<time>2026-07-16T11:16:08.000Z</time>
</trkpt>
<trkpt lat="57.249416" lon="9.607007">
<ele>27.540936</ele>
<time>2026-07-16T11:16:09.000Z</time>
</trkpt>
<trkpt lat="57.249401" lon="9.607119">
<ele>27.536766</ele>
<time>2026-07-16T11:16:10.000Z</time>
</trkpt>
<trkpt lat="57.249390" lon="9.607233">
<ele>27.532580</ele>
<time>2026-07-16T11:16:11.000Z</time>
</trkpt>
<trkpt lat="57.249378" lon="9.607341">
<ele>27.528595</ele>
<time>2026-07-16T11:16:12.000Z</time>
</trkpt>
<trkpt lat="57.249367" lon="9.607450">
<ele>27.524587</ele>
<time>2026-07-16T11:16:13.000Z</time>
</trkpt>
<trkpt lat="57.249352" lon="9.607562">
<ele>27.520416</ele>
<time>2026-07-16T11:16:14.000Z</time>
</trkpt>
<trkpt lat="57.249340" lon="9.607677">
<ele>27.516183</ele>
<time>2026-07-16T11:16:15.000Z</time>
</trkpt>
<trkpt lat="57.249329" lon="9.607792">
<ele>27.511962</ele>
<time>2026-07-16T11:16:16.000Z</time>
</trkpt>
<trkpt lat="57.249317" lon="9.607901">
<ele>27.525636</ele>
<time>2026-07-16T11:16:17.000Z</time>
</trkpt>
<trkpt lat="57.249302" lon="9.608016">
<ele>27.542035</ele>
<time>2026-07-16T11:16:18.000Z</time>
</trkpt>
<trkpt lat="57.249290" lon="9.608132">
<ele>27.558407</ele>
<time>2026-07-16T11:16:19.000Z</time>
</trkpt>
<trkpt lat="57.249287" lon="9.608241">
<ele>27.573537</ele>
<time>2026-07-16T11:16:20.000Z</time>
</trkpt>
<trkpt lat="57.249287" lon="9.608351">
<ele>27.588785</ele>
<time>2026-07-16T11:16:21.000Z</time>
</trkpt>
<trkpt lat="57.249283" lon="9.608458">
<ele>27.603654</ele>
<time>2026-07-16T11:16:22.000Z</time>
</trkpt>
<trkpt lat="57.249275" lon="9.608566">
<ele>27.618765</ele>
<time>2026-07-16T11:16:23.000Z</time>
</trkpt>
<trkpt lat="57.249264" lon="9.608674">
<ele>27.633999</ele>
<time>2026-07-16T11:16:24.000Z</time>
</trkpt>
<trkpt lat="57.249256" lon="9.608778">
<ele>27.648561</ele>
<time>2026-07-16T11:16:25.000Z</time>
</trkpt>
<trkpt lat="57.249245" lon="9.608890">
<ele>27.664341</ele>
<time>2026-07-16T11:16:26.000Z</time>
</trkpt>
<trkpt lat="57.249233" lon="9.609005">
<ele>27.680577</ele>
<time>2026-07-16T11:16:27.000Z</time>
</trkpt>
<trkpt lat="57.249222" lon="9.609118">
<ele>27.696493</ele>
<time>2026-07-16T11:16:28.000Z</time>
</trkpt>
<trkpt lat="57.249207" lon="9.609234">
<ele>27.713027</ele>
<time>2026-07-16T11:16:29.000Z</time>
</trkpt>
<trkpt lat="57.249199" lon="9.609344">
<ele>27.728413</ele>
<time>2026-07-16T11:16:30.000Z</time>
</trkpt>
<trkpt lat="57.249195" lon="9.609451">
<ele>27.743281</ele>
<time>2026-07-16T11:16:31.000Z</time>
</trkpt>
<trkpt lat="57.249191" lon="9.609551">
<ele>27.757181</ele>
<time>2026-07-16T11:16:32.000Z</time>
</trkpt>
<trkpt lat="57.249191" lon="9.609652">
<ele>27.771182</ele>
<time>2026-07-16T11:16:33.000Z</time>
</trkpt>
<trkpt lat="57.249187" lon="9.609756">
<ele>27.785636</ele>
<time>2026-07-16T11:16:34.000Z</time>
</trkpt>
<trkpt lat="57.249184" lon="9.609858">
<ele>27.799796</ele>
<time>2026-07-16T11:16:35.000Z</time>
</trkpt>
<trkpt lat="57.249176" lon="9.609964">
<ele>27.814633</ele>
<time>2026-07-16T11:16:36.000Z</time>
</trkpt>
<trkpt lat="57.249161" lon="9.610072">
<ele>27.830090</ele>
<time>2026-07-16T11:16:37.000Z</time>
</trkpt>
<trkpt lat="57.249145" lon="9.610180">
<ele>27.845613</ele>
<time>2026-07-16T11:16:38.000Z</time>
</trkpt>
<trkpt lat="57.249130" lon="9.610284">
<ele>27.860534</ele>
<time>2026-07-16T11:16:39.000Z</time>
</trkpt>
<trkpt lat="57.249115" lon="9.610390">
<ele>27.875722</ele>
<time>2026-07-16T11:16:40.000Z</time>
</trkpt>
<trkpt lat="57.249107" lon="9.610495">
<ele>27.890422</ele>
<time>2026-07-16T11:16:41.000Z</time>
</trkpt>
<trkpt lat="57.249104" lon="9.610603">
<ele>27.905413</ele>
<time>2026-07-16T11:16:42.000Z</time>
</trkpt>
<trkpt lat="57.249096" lon="9.610714">
<ele>27.920936</ele>
<time>2026-07-16T11:16:43.000Z</time>
</trkpt>
<trkpt lat="57.249088" lon="9.610822">
<ele>27.936048</ele>
<time>2026-07-16T11:16:44.000Z</time>
</trkpt>
<trkpt lat="57.249077" lon="9.610939">
<ele>27.952510</ele>
<time>2026-07-16T11:16:45.000Z</time>
</trkpt>
<trkpt lat="57.249058" lon="9.611057">
<ele>27.969577</ele>
<time>2026-07-16T11:16:46.000Z</time>
</trkpt>
<trkpt lat="57.249046" lon="9.611169">
<ele>27.953422</ele>
<time>2026-07-16T11:16:47.000Z</time>
</trkpt>
<trkpt lat="57.249035" lon="9.611280">
<ele>27.930309</ele>
<time>2026-07-16T11:16:48.000Z</time>
</trkpt>
<trkpt lat="57.249023" lon="9.611387">
<ele>27.907928</ele>
<time>2026-07-16T11:16:49.000Z</time>
</trkpt>
<trkpt lat="57.249012" lon="9.611492">
<ele>27.886023</ele>
<time>2026-07-16T11:16:50.000Z</time>
</trkpt>
<trkpt lat="57.249004" lon="9.611596">
<ele>27.864508</ele>
<time>2026-07-16T11:16:51.000Z</time>
</trkpt>
<trkpt lat="57.248997" lon="9.611701">
<ele>27.842839</ele>
<time>2026-07-16T11:16:52.000Z</time>
</trkpt>
<trkpt lat="57.248985" lon="9.611806">
<ele>27.820859</ele>
<time>2026-07-16T11:16:53.000Z</time>
</trkpt>
<trkpt lat="57.248978" lon="9.611910">
<ele>27.799394</ele>
<time>2026-07-16T11:16:54.000Z</time>
</trkpt>
<trkpt lat="57.248970" lon="9.612010">
<ele>27.778690</ele>
<time>2026-07-16T11:16:55.000Z</time>
</trkpt>
<trkpt lat="57.248962" lon="9.612111">
<ele>27.757783</ele>
<time>2026-07-16T11:16:56.000Z</time>
</trkpt>
<trkpt lat="57.248951" lon="9.612220">
<ele>27.735073</ele>
<time>2026-07-16T11:16:57.000Z</time>
</trkpt>
<trkpt lat="57.248943" lon="9.612324">
<ele>27.713558</ele>
<time>2026-07-16T11:16:58.000Z</time>
</trkpt>
<trkpt lat="57.248932" lon="9.612425">
<ele>27.692456</ele>
<time>2026-07-16T11:16:59.000Z</time>
</trkpt>
<trkpt lat="57.248932" lon="9.612525">
<ele>27.671975</ele>
<time>2026-07-16T11:17:00.000Z</time>
</trkpt>
<trkpt lat="57.248928" lon="9.612625">
<ele>27.651437</ele>
<time>2026-07-16T11:17:01.000Z</time>
</trkpt>
<trkpt lat="57.248924" lon="9.612721">
<ele>27.631717</ele>
<time>2026-07-16T11:17:02.000Z</time>
</trkpt>
<trkpt lat="57.248924" lon="9.612820">
<ele>27.611440</ele>
<time>2026-07-16T11:17:03.000Z</time>
</trkpt>
<trkpt lat="57.248917" lon="9.612913">
<ele>27.592208</ele>
<time>2026-07-16T11:17:04.000Z</time>
</trkpt>
<trkpt lat="57.248913" lon="9.613010">
<ele>27.572284</ele>
<time>2026-07-16T11:17:05.000Z</time>
</trkpt>
<trkpt lat="57.248909" lon="9.613108">
<ele>27.552155</ele>
<time>2026-07-16T11:17:06.000Z</time>
</trkpt>
<trkpt lat="57.248898" lon="9.613205">
<ele>27.531856</ele>
<time>2026-07-16T11:17:07.000Z</time>
</trkpt>
<trkpt lat="57.248886" lon="9.613305">
<ele>27.510876</ele>
<time>2026-07-16T11:17:08.000Z</time>
</trkpt>
<trkpt lat="57.248875" lon="9.613410">
<ele>27.488971</ele>
<time>2026-07-16T11:17:09.000Z</time>
</trkpt>
<trkpt lat="57.248863" lon="9.613514">
<ele>27.467191</ele>
<time>2026-07-16T11:17:10.000Z</time>
</trkpt>
<trkpt lat="57.248852" lon="9.613617">
<ele>27.445688</ele>
<time>2026-07-16T11:17:11.000Z</time>
</trkpt>
<trkpt lat="57.248840" lon="9.613720">
<ele>27.424108</ele>
<time>2026-07-16T11:17:12.000Z</time>
</trkpt>
<trkpt lat="57.248833" lon="9.613818">
<ele>27.403862</ele>
<time>2026-07-16T11:17:13.000Z</time>
</trkpt>
<trkpt lat="57.248817" lon="9.613928">
<ele>27.380532</ele>
<time>2026-07-16T11:17:14.000Z</time>
</trkpt>
<trkpt lat="57.248806" lon="9.614035">
<ele>27.358225</ele>
<time>2026-07-16T11:17:15.000Z</time>
</trkpt>
<trkpt lat="57.248798" lon="9.614132">
<ele>27.338128</ele>
<time>2026-07-16T11:17:16.000Z</time>
</trkpt>
<trkpt lat="57.248783" lon="9.614244">
<ele>27.314496</ele>
<time>2026-07-16T11:17:17.000Z</time>
</trkpt>
<trkpt lat="57.248768" lon="9.614347">
<ele>27.292649</ele>
<time>2026-07-16T11:17:18.000Z</time>
</trkpt>
<trkpt lat="57.248756" lon="9.614455">
<ele>27.282690</ele>
<time>2026-07-16T11:17:19.000Z</time>
</trkpt>
<trkpt lat="57.248749" lon="9.614560">
<ele>27.273761</ele>
<time>2026-07-16T11:17:20.000Z</time>
</trkpt>
<trkpt lat="57.248741" lon="9.614663">
<ele>27.264978</ele>
<time>2026-07-16T11:17:21.000Z</time>
</trkpt>
<trkpt lat="57.248734" lon="9.614764">
<ele>27.256384</ele>
<time>2026-07-16T11:17:22.000Z</time>
</trkpt>
<trkpt lat="57.248726" lon="9.614862">
<ele>27.248019</ele>
<time>2026-07-16T11:17:23.000Z</time>
</trkpt>
<trkpt lat="57.248714" lon="9.614964">
<ele>27.239208</ele>
<time>2026-07-16T11:17:24.000Z</time>
</trkpt>
<trkpt lat="57.248707" lon="9.615066">
<ele>27.230530</ele>
<time>2026-07-16T11:17:25.000Z</time>
</trkpt>
<trkpt lat="57.248699" lon="9.615164">
<ele>27.222165</ele>
<time>2026-07-16T11:17:26.000Z</time>
</trkpt>
<trkpt lat="57.248688" lon="9.615260">
<ele>27.213883</ele>
<time>2026-07-16T11:17:27.000Z</time>
</trkpt>
<trkpt lat="57.248680" lon="9.615350">
<ele>27.206184</ele>
<time>2026-07-16T11:17:28.000Z</time>
</trkpt>
<trkpt lat="57.248669" lon="9.615456">
<ele>27.197075</ele>
<time>2026-07-16T11:17:29.000Z</time>
</trkpt>
<trkpt lat="57.248657" lon="9.615552">
<ele>27.188758</ele>
<time>2026-07-16T11:17:30.000Z</time>
</trkpt>
<trkpt lat="57.248646" lon="9.615628">
<ele>27.182118</ele>
<time>2026-07-16T11:17:31.000Z</time>
</trkpt>
<trkpt lat="57.248638" lon="9.615693">
<ele>27.176492</ele>
<time>2026-07-16T11:17:32.000Z</time>
</trkpt>
<trkpt lat="57.248631" lon="9.615749">
<ele>27.171641</ele>
<time>2026-07-16T11:17:33.000Z</time>
</trkpt>
<trkpt lat="57.248623" lon="9.615801">
<ele>27.167078</ele>
<time>2026-07-16T11:17:34.000Z</time>
</trkpt>
<trkpt lat="57.248619" lon="9.615844">
<ele>27.163395</ele>
<time>2026-07-16T11:17:35.000Z</time>
</trkpt>
<trkpt lat="57.248615" lon="9.615887">
<ele>27.159712</ele>
<time>2026-07-16T11:17:36.000Z</time>
</trkpt>
<trkpt lat="57.248611" lon="9.615930">
<ele>27.156030</ele>
<time>2026-07-16T11:17:37.000Z</time>
</trkpt>
<trkpt lat="57.248608" lon="9.615985">
<ele>27.151364</ele>
<time>2026-07-16T11:17:38.000Z</time>
</trkpt>
<trkpt lat="57.248600" lon="9.616052">
<ele>27.145573</ele>
<time>2026-07-16T11:17:39.000Z</time>
</trkpt>
<trkpt lat="57.248592" lon="9.616125">
<ele>27.139286</ele>
<time>2026-07-16T11:17:40.000Z</time>
</trkpt>
<trkpt lat="57.248585" lon="9.616204">
<ele>27.132529</ele>
<time>2026-07-16T11:17:41.000Z</time>
</trkpt>
<trkpt lat="57.248573" lon="9.616287">
<ele>27.125278</ele>
<time>2026-07-16T11:17:42.000Z</time>
</trkpt>
<trkpt lat="57.248569" lon="9.616361">
<ele>27.119001</ele>
<time>2026-07-16T11:17:43.000Z</time>
</trkpt>
<trkpt lat="57.248562" lon="9.616453">
<ele>27.111160</ele>
<time>2026-07-16T11:17:44.000Z</time>
</trkpt>
<trkpt lat="57.248554" lon="9.616539">
<ele>27.103794</ele>
<time>2026-07-16T11:17:45.000Z</time>
</trkpt>
<trkpt lat="57.248547" lon="9.616625">
<ele>27.096454</ele>
<time>2026-07-16T11:17:46.000Z</time>
</trkpt>
<trkpt lat="57.248539" lon="9.616710">
<ele>27.089172</ele>
<time>2026-07-16T11:17:47.000Z</time>
</trkpt>
<trkpt lat="57.248535" lon="9.616796">
<ele>27.081886</ele>
<time>2026-07-16T11:17:48.000Z</time>
</trkpt>
<trkpt lat="57.248535" lon="9.616880">
<ele>27.074796</ele>
<time>2026-07-16T11:17:49.000Z</time>
</trkpt>
<trkpt lat="57.248531" lon="9.616961">
<ele>27.067931</ele>
<time>2026-07-16T11:17:50.000Z</time>
</trkpt>
<trkpt lat="57.248524" lon="9.617045">
<ele>27.060758</ele>
<time>2026-07-16T11:17:51.000Z</time>
</trkpt>
<trkpt lat="57.248516" lon="9.617127">
<ele>27.053725</ele>
<time>2026-07-16T11:17:52.000Z</time>
</trkpt>
<trkpt lat="57.248512" lon="9.617220">
<ele>27.045851</ele>
<time>2026-07-16T11:17:53.000Z</time>
</trkpt>
<trkpt lat="57.248505" lon="9.617319">
<ele>27.037423</ele>
<time>2026-07-16T11:17:54.000Z</time>
</trkpt>
<trkpt lat="57.248493" lon="9.617415">
<ele>27.029107</ele>
<time>2026-07-16T11:17:55.000Z</time>
</trkpt>
<trkpt lat="57.248482" lon="9.617510">
<ele>27.020907</ele>
<time>2026-07-16T11:17:56.000Z</time>
</trkpt>
<trkpt lat="57.248470" lon="9.617606">
<ele>27.012591</ele>
<time>2026-07-16T11:17:57.000Z</time>
</trkpt>
<trkpt lat="57.248463" lon="9.617695">
<ele>27.018527</ele>
<time>2026-07-16T11:17:58.000Z</time>
</trkpt>
<trkpt lat="57.248455" lon="9.617785">
<ele>27.028413</ele>
<time>2026-07-16T11:17:59.000Z</time>
</trkpt>
<trkpt lat="57.248447" lon="9.617875">
<ele>27.038298</ele>
<time>2026-07-16T11:18:00.000Z</time>
</trkpt>
<trkpt lat="57.248436" lon="9.617970">
<ele>27.048828</ele>
<time>2026-07-16T11:18:01.000Z</time>
</trkpt>
<trkpt lat="57.248425" lon="9.618067">
<ele>27.059569</ele>
<time>2026-07-16T11:18:02.000Z</time>
</trkpt>
<trkpt lat="57.248413" lon="9.618164">
<ele>27.070354</ele>
<time>2026-07-16T11:18:03.000Z</time>
</trkpt>
<trkpt lat="57.248402" lon="9.618263">
<ele>27.081308</ele>
<time>2026-07-16T11:18:04.000Z</time>
</trkpt>
<trkpt lat="57.248394" lon="9.618364">
<ele>27.092371</ele>
<time>2026-07-16T11:18:05.000Z</time>
</trkpt>
<trkpt lat="57.248383" lon="9.618467">
<ele>27.103750</ele>
<time>2026-07-16T11:18:06.000Z</time>
</trkpt>
<trkpt lat="57.248371" lon="9.618567">
<ele>27.114852</ele>
<time>2026-07-16T11:18:07.000Z</time>
</trkpt>
<trkpt lat="57.248360" lon="9.618668">
<ele>27.126019</ele>
<time>2026-07-16T11:18:08.000Z</time>
</trkpt>
<trkpt lat="57.248348" lon="9.618770">
<ele>27.137332</ele>
<time>2026-07-16T11:18:09.000Z</time>
</trkpt>
<trkpt lat="57.248337" lon="9.618870">
<ele>27.148392</ele>
<time>2026-07-16T11:18:10.000Z</time>
</trkpt>
<trkpt lat="57.248329" lon="9.618964">
<ele>27.158706</ele>
<time>2026-07-16T11:18:11.000Z</time>
</trkpt>
<trkpt lat="57.248310" lon="9.619067">
<ele>27.170500</ele>
<time>2026-07-16T11:18:12.000Z</time>
</trkpt>
<trkpt lat="57.248299" lon="9.619165">
<ele>27.181348</ele>
<time>2026-07-16T11:18:13.000Z</time>
</trkpt>
<trkpt lat="57.248291" lon="9.619264">
<ele>27.192197</ele>
<time>2026-07-16T11:18:14.000Z</time>
</trkpt>
<trkpt lat="57.248280" lon="9.619367">
<ele>27.203576</ele>
<time>2026-07-16T11:18:15.000Z</time>
</trkpt>
<trkpt lat="57.248272" lon="9.619465">
<ele>27.214318</ele>
<time>2026-07-16T11:18:16.000Z</time>
</trkpt>
<trkpt lat="57.248261" lon="9.619562">
<ele>27.225060</ele>
<time>2026-07-16T11:18:17.000Z</time>
</trkpt>
<trkpt lat="57.248253" lon="9.619658">
<ele>27.235588</ele>
<time>2026-07-16T11:18:18.000Z</time>
</trkpt>
<trkpt lat="57.248249" lon="9.619736">
<ele>27.244080</ele>
<time>2026-07-16T11:18:19.000Z</time>
</trkpt>
<trkpt lat="57.248234" lon="9.619840">
<ele>27.255745</ele>
<time>2026-07-16T11:18:20.000Z</time>
</trkpt>
<trkpt lat="57.248219" lon="9.619938">
<ele>27.266784</ele>
<time>2026-07-16T11:18:21.000Z</time>
</trkpt>
<trkpt lat="57.248207" lon="9.620030">
<ele>27.277041</ele>
<time>2026-07-16T11:18:22.000Z</time>
</trkpt>
<trkpt lat="57.248196" lon="9.620117">
<ele>27.286725</ele>
<time>2026-07-16T11:18:23.000Z</time>
</trkpt>
<trkpt lat="57.248180" lon="9.620203">
<ele>27.296581</ele>
<time>2026-07-16T11:18:24.000Z</time>
</trkpt>
<trkpt lat="57.248165" lon="9.620290">
<ele>27.306478</ele>
<time>2026-07-16T11:18:25.000Z</time>
</trkpt>
<trkpt lat="57.248146" lon="9.620381">
<ele>27.317050</ele>
<time>2026-07-16T11:18:26.000Z</time>
</trkpt>
<trkpt lat="57.248138" lon="9.620471">
<ele>27.326936</ele>
<time>2026-07-16T11:18:27.000Z</time>
</trkpt>
<trkpt lat="57.248135" lon="9.620561">
<ele>27.336709</ele>
<time>2026-07-16T11:18:28.000Z</time>
</trkpt>
<trkpt lat="57.248138" lon="9.620652">
<ele>27.346590</ele>
<time>2026-07-16T11:18:29.000Z</time>
</trkpt>
<trkpt lat="57.248135" lon="9.620746">
<ele>27.356796</ele>
<time>2026-07-16T11:18:30.000Z</time>
</trkpt>
<trkpt lat="57.248127" lon="9.620838">
<ele>27.366895</ele>
<time>2026-07-16T11:18:31.000Z</time>
</trkpt>
<trkpt lat="57.248116" lon="9.620930">
<ele>27.384708</ele>
<time>2026-07-16T11:18:32.000Z</time>
</trkpt>
<trkpt lat="57.248108" lon="9.621023">
<ele>27.408191</ele>
<time>2026-07-16T11:18:33.000Z</time>
</trkpt>
<trkpt lat="57.248096" lon="9.621119">
<ele>27.432761</ele>
<time>2026-07-16T11:18:34.000Z</time>
</trkpt>
<trkpt lat="57.248089" lon="9.621210">
<ele>27.455682</ele>
<time>2026-07-16T11:18:35.000Z</time>
</trkpt>
<trkpt lat="57.248081" lon="9.621305">
<ele>27.479658</ele>
<time>2026-07-16T11:18:36.000Z</time>
</trkpt>
<trkpt lat="57.248074" lon="9.621401">
<ele>27.503814</ele>
<time>2026-07-16T11:18:37.000Z</time>
</trkpt>
<trkpt lat="57.248062" lon="9.621495">
<ele>27.527899</ele>
<time>2026-07-16T11:18:38.000Z</time>
</trkpt>
<trkpt lat="57.248051" lon="9.621588">
<ele>27.551638</ele>
<time>2026-07-16T11:18:39.000Z</time>
</trkpt>
<trkpt lat="57.248043" lon="9.621677">
<ele>27.574136</ele>
<time>2026-07-16T11:18:40.000Z</time>
</trkpt>
<trkpt lat="57.248032" lon="9.621770">
<ele>27.597876</ele>
<time>2026-07-16T11:18:41.000Z</time>
</trkpt>
<trkpt lat="57.248020" lon="9.621861">
<ele>27.621233</ele>
<time>2026-07-16T11:18:42.000Z</time>
</trkpt>
<trkpt lat="57.248009" lon="9.621951">
<ele>27.644242</ele>
<time>2026-07-16T11:18:43.000Z</time>
</trkpt>
<trkpt lat="57.248001" lon="9.622038">
<ele>27.666248</ele>
<time>2026-07-16T11:18:44.000Z</time>
</trkpt>
<trkpt lat="57.247993" lon="9.622128">
<ele>27.688993</ele>
<time>2026-07-16T11:18:45.000Z</time>
</trkpt>
<trkpt lat="57.247982" lon="9.622213">
<ele>27.710787</ele>
<time>2026-07-16T11:18:46.000Z</time>
</trkpt>
<trkpt lat="57.247974" lon="9.622294">
<ele>27.731320</ele>
<time>2026-07-16T11:18:47.000Z</time>
</trkpt>
<trkpt lat="57.247963" lon="9.622374">
<ele>27.751904</ele>
<time>2026-07-16T11:18:48.000Z</time>
</trkpt>
<trkpt lat="57.247951" lon="9.622450">
<ele>27.771647</ele>
<time>2026-07-16T11:18:49.000Z</time>
</trkpt>
<trkpt lat="57.247944" lon="9.622523">
<ele>27.790135</ele>
<time>2026-07-16T11:18:50.000Z</time>
</trkpt>
<trkpt lat="57.247932" lon="9.622598">
<ele>27.809639</ele>
<time>2026-07-16T11:18:51.000Z</time>
</trkpt>
<trkpt lat="57.247921" lon="9.622663">
<ele>27.826622</ele>
<time>2026-07-16T11:18:52.000Z</time>
</trkpt>
<trkpt lat="57.247902" lon="9.622724">
<ele>27.844175</ele>
<time>2026-07-16T11:18:53.000Z</time>
</trkpt>
<trkpt lat="57.247883" lon="9.622766">
<ele>27.857828</ele>
<time>2026-07-16T11:18:54.000Z</time>
</trkpt>
<trkpt lat="57.247856" lon="9.622811">
<ele>27.874586</ele>
<time>2026-07-16T11:18:55.000Z</time>
</trkpt>
<trkpt lat="57.247837" lon="9.622850">
<ele>27.887673</ele>
<time>2026-07-16T11:18:56.000Z</time>
</trkpt>
<trkpt lat="57.247810" lon="9.622874">
<ele>27.901483</ele>
<time>2026-07-16T11:18:57.000Z</time>
</trkpt>
<trkpt lat="57.247784" lon="9.622891">
<ele>27.914195</ele>
<time>2026-07-16T11:18:58.000Z</time>
</trkpt>
<trkpt lat="57.247761" lon="9.622918">
<ele>27.926754</ele>
<time>2026-07-16T11:18:59.000Z</time>
</trkpt>
<trkpt lat="57.247746" lon="9.622951">
<ele>27.937503</ele>
<time>2026-07-16T11:19:00.000Z</time>
</trkpt>
<trkpt lat="57.247742" lon="9.622987">
<ele>27.946667</ele>
<time>2026-07-16T11:19:01.000Z</time>
</trkpt>
<trkpt lat="57.247746" lon="9.623018">
<ele>27.954615</ele>
<time>2026-07-16T11:19:02.000Z</time>
</trkpt>
<trkpt lat="57.247757" lon="9.623041">
<ele>27.962270</ele>
<time>2026-07-16T11:19:03.000Z</time>
</trkpt>
<trkpt lat="57.247772" lon="9.623060">
<ele>27.970652</ele>
<time>2026-07-16T11:19:04.000Z</time>
</trkpt>
<trkpt lat="57.247791" lon="9.623087">
<ele>27.981699</ele>
<time>2026-07-16T11:19:05.000Z</time>
</trkpt>
<trkpt lat="57.247803" lon="9.623124">
<ele>27.992457</ele>
<time>2026-07-16T11:19:06.000Z</time>
</trkpt>
<trkpt lat="57.247814" lon="9.623169">
<ele>28.004771</ele>
<time>2026-07-16T11:19:07.000Z</time>
</trkpt>
<trkpt lat="57.247822" lon="9.623207">
<ele>28.014939</ele>
<time>2026-07-16T11:19:08.000Z</time>
</trkpt>
<trkpt lat="57.247829" lon="9.623247">
<ele>28.025423</ele>
<time>2026-07-16T11:19:09.000Z</time>
</trkpt>
<trkpt lat="57.247833" lon="9.623285">
<ele>28.035077</ele>
<time>2026-07-16T11:19:10.000Z</time>
</trkpt>
<trkpt lat="57.247833" lon="9.623318">
<ele>28.043306</ele>
<time>2026-07-16T11:19:11.000Z</time>
</trkpt>
<trkpt lat="57.247833" lon="9.623346">
<ele>28.050289</ele>
<time>2026-07-16T11:19:12.000Z</time>
</trkpt>
<trkpt lat="57.247841" lon="9.623358">
<ele>28.055038</ele>
<time>2026-07-16T11:19:14.000Z</time>
</trkpt>
<trkpt lat="57.247852" lon="9.623364">
<ele>28.060324</ele>
<time>2026-07-16T11:19:15.000Z</time>
</trkpt>
<trkpt lat="57.247868" lon="9.623371">
<ele>28.067903</ele>
<time>2026-07-16T11:19:16.000Z</time>
</trkpt>
<trkpt lat="57.247887" lon="9.623378">
<ele>28.076833</ele>
<time>2026-07-16T11:19:17.000Z</time>
</trkpt>
<trkpt lat="57.247910" lon="9.623382">
<ele>28.087482</ele>
<time>2026-07-16T11:19:18.000Z</time>
</trkpt>
<trkpt lat="57.247929" lon="9.623382">
<ele>28.096240</ele>
<time>2026-07-16T11:19:19.000Z</time>
</trkpt>
<trkpt lat="57.247948" lon="9.623368">
<ele>28.105668</ele>
<time>2026-07-16T11:19:20.000Z</time>
</trkpt>
<trkpt lat="57.247967" lon="9.623337">
<ele>28.117349</ele>
<time>2026-07-16T11:19:21.000Z</time>
</trkpt>
<trkpt lat="57.247986" lon="9.623300">
<ele>28.130071</ele>
<time>2026-07-16T11:19:22.000Z</time>
</trkpt>
<trkpt lat="57.248009" lon="9.623261">
<ele>28.144458</ele>
<time>2026-07-16T11:19:23.000Z</time>
</trkpt>
<trkpt lat="57.248035" lon="9.623224">
<ele>28.159582</ele>
<time>2026-07-16T11:19:24.000Z</time>
</trkpt>
<trkpt lat="57.248070" lon="9.623198">
<ele>28.176970</ele>
<time>2026-07-16T11:19:25.000Z</time>
</trkpt>
<trkpt lat="57.248116" lon="9.623192">
<ele>28.198226</ele>
<time>2026-07-16T11:19:26.000Z</time>
</trkpt>
<trkpt lat="57.248154" lon="9.623199">
<ele>28.225355</ele>
<time>2026-07-16T11:19:27.000Z</time>
</trkpt>
<trkpt lat="57.248199" lon="9.623204">
<ele>28.258912</ele>
<time>2026-07-16T11:19:28.000Z</time>
</trkpt>
<trkpt lat="57.248245" lon="9.623208">
<ele>28.293191</ele>
<time>2026-07-16T11:19:29.000Z</time>
</trkpt>
<trkpt lat="57.248291" lon="9.623208">
<ele>28.327433</ele>
<time>2026-07-16T11:19:30.000Z</time>
</trkpt>
<trkpt lat="57.248329" lon="9.623208">
<ele>28.355719</ele>
<time>2026-07-16T11:19:31.000Z</time>
</trkpt>
<trkpt lat="57.248363" lon="9.623214">
<ele>28.381143</ele>
<time>2026-07-16T11:19:32.000Z</time>
</trkpt>
<trkpt lat="57.248402" lon="9.623220">
<ele>28.410274</ele>
<time>2026-07-16T11:19:33.000Z</time>
</trkpt>
<trkpt lat="57.248440" lon="9.623226">
<ele>28.438663</ele>
<time>2026-07-16T11:19:34.000Z</time>
</trkpt>
<trkpt lat="57.248474" lon="9.623237">
<ele>28.464356</ele>
<time>2026-07-16T11:19:35.000Z</time>
</trkpt>
<trkpt lat="57.248508" lon="9.623248">
<ele>28.490050</ele>
<time>2026-07-16T11:19:36.000Z</time>
</trkpt>
<trkpt lat="57.248547" lon="9.623260">
<ele>28.519480</ele>
<time>2026-07-16T11:19:37.000Z</time>
</trkpt>
<trkpt lat="57.248585" lon="9.623271">
<ele>28.548111</ele>
<time>2026-07-16T11:19:38.000Z</time>
</trkpt>
<trkpt lat="57.248623" lon="9.623278">
<ele>28.576537</ele>
<time>2026-07-16T11:19:39.000Z</time>
</trkpt>
<trkpt lat="57.248661" lon="9.623287">
<ele>28.605055</ele>
<time>2026-07-16T11:19:40.000Z</time>
</trkpt>
<trkpt lat="57.248703" lon="9.623302">
<ele>28.636897</ele>
<time>2026-07-16T11:19:41.000Z</time>
</trkpt>
<trkpt lat="57.248741" lon="9.623317">
<ele>28.665821</ele>
<time>2026-07-16T11:19:42.000Z</time>
</trkpt>
<trkpt lat="57.248791" lon="9.623330">
<ele>28.703406</ele>
<time>2026-07-16T11:19:43.000Z</time>
</trkpt>
<trkpt lat="57.248833" lon="9.623340">
<ele>28.734928</ele>
<time>2026-07-16T11:19:44.000Z</time>
</trkpt>
<trkpt lat="57.248878" lon="9.623350">
<ele>28.768666</ele>
<time>2026-07-16T11:19:45.000Z</time>
</trkpt>
<trkpt lat="57.248928" lon="9.623363">
<ele>28.806251</ele>
<time>2026-07-16T11:19:46.000Z</time>
</trkpt>
<trkpt lat="57.248974" lon="9.623375">
<ele>28.840832</ele>
<time>2026-07-16T11:19:47.000Z</time>
</trkpt>
<trkpt lat="57.249023" lon="9.623388">
<ele>28.877680</ele>
<time>2026-07-16T11:19:48.000Z</time>
</trkpt>
<trkpt lat="57.249065" lon="9.623404">
<ele>28.909601</ele>
<time>2026-07-16T11:19:49.000Z</time>
</trkpt>
<trkpt lat="57.249115" lon="9.623414">
<ele>28.947037</ele>
<time>2026-07-16T11:19:50.000Z</time>
</trkpt>
<trkpt lat="57.249161" lon="9.623425">
<ele>28.981563</ele>
<time>2026-07-16T11:19:51.000Z</time>
</trkpt>
<trkpt lat="57.249207" lon="9.623440">
<ele>29.016333</ele>
<time>2026-07-16T11:19:52.000Z</time>
</trkpt>
<trkpt lat="57.249256" lon="9.623453">
<ele>29.053181</ele>
<time>2026-07-16T11:19:53.000Z</time>
</trkpt>
<trkpt lat="57.249306" lon="9.623466">
<ele>29.090766</ele>
<time>2026-07-16T11:19:54.000Z</time>
</trkpt>
<trkpt lat="57.249355" lon="9.623472">
<ele>29.127321</ele>
<time>2026-07-16T11:19:55.000Z</time>
</trkpt>
<trkpt lat="57.249401" lon="9.623481">
<ele>29.161753</ele>
<time>2026-07-16T11:19:56.000Z</time>
</trkpt>
<trkpt lat="57.249451" lon="9.623489">
<ele>29.199111</ele>
<time>2026-07-16T11:19:57.000Z</time>
</trkpt>
<trkpt lat="57.249500" lon="9.623497">
<ele>29.235727</ele>
<time>2026-07-16T11:19:58.000Z</time>
</trkpt>
<trkpt lat="57.249546" lon="9.623506">
<ele>29.270160</ele>
<time>2026-07-16T11:19:59.000Z</time>
</trkpt>
<trkpt lat="57.249596" lon="9.623515">
<ele>29.307555</ele>
<time>2026-07-16T11:20:00.000Z</time>
</trkpt>
<trkpt lat="57.249645" lon="9.623523">
<ele>29.344171</ele>
<time>2026-07-16T11:20:01.000Z</time>
</trkpt>
<trkpt lat="57.249695" lon="9.623530">
<ele>29.381496</ele>
<time>2026-07-16T11:20:02.000Z</time>
</trkpt>
<trkpt lat="57.249737" lon="9.623538">
<ele>29.412926</ele>
<time>2026-07-16T11:20:03.000Z</time>
</trkpt>
<trkpt lat="57.249790" lon="9.623544">
<ele>29.452451</ele>
<time>2026-07-16T11:20:04.000Z</time>
</trkpt>
<trkpt lat="57.249840" lon="9.623550">
<ele>29.489748</ele>
<time>2026-07-16T11:20:05.000Z</time>
</trkpt>
<trkpt lat="57.249886" lon="9.623557">
<ele>29.524106</ele>
<time>2026-07-16T11:20:06.000Z</time>
</trkpt>
<trkpt lat="57.249939" lon="9.623566">
<ele>29.567153</ele>
<time>2026-07-16T11:20:07.000Z</time>
</trkpt>
<trkpt lat="57.249989" lon="9.623574">
<ele>29.609735</ele>
<time>2026-07-16T11:20:08.000Z</time>
</trkpt>
<trkpt lat="57.250031" lon="9.623583">
<ele>29.645610</ele>
<time>2026-07-16T11:20:09.000Z</time>
</trkpt>
<trkpt lat="57.250080" lon="9.623592">
<ele>29.687389</ele>
<time>2026-07-16T11:20:10.000Z</time>
</trkpt>
<trkpt lat="57.250126" lon="9.623597">
<ele>29.726486</ele>
<time>2026-07-16T11:20:11.000Z</time>
</trkpt>
<trkpt lat="57.250175" lon="9.623604">
<ele>29.768186</ele>
<time>2026-07-16T11:20:12.000Z</time>
</trkpt>
<trkpt lat="57.250229" lon="9.623609">
<ele>29.814060</ele>
<time>2026-07-16T11:20:13.000Z</time>
</trkpt>
<trkpt lat="57.250278" lon="9.623615">
<ele>29.855727</ele>
<time>2026-07-16T11:20:14.000Z</time>
</trkpt>
<trkpt lat="57.250328" lon="9.623622">
<ele>29.898272</ele>
<time>2026-07-16T11:20:15.000Z</time>
</trkpt>
<trkpt lat="57.250378" lon="9.623625">
<ele>29.940718</ele>
<time>2026-07-16T11:20:16.000Z</time>
</trkpt>
<trkpt lat="57.250427" lon="9.623625">
<ele>29.982293</ele>
<time>2026-07-16T11:20:17.000Z</time>
</trkpt>
<trkpt lat="57.250473" lon="9.623629">
<ele>30.021365</ele>
<time>2026-07-16T11:20:18.000Z</time>
</trkpt>
<trkpt lat="57.250523" lon="9.623634">
<ele>30.063851</ele>
<time>2026-07-16T11:20:19.000Z</time>
</trkpt>
<trkpt lat="57.250572" lon="9.623639">
<ele>30.105489</ele>
<time>2026-07-16T11:20:20.000Z</time>
</trkpt>
<trkpt lat="57.250622" lon="9.623640">
<ele>30.147915</ele>
<time>2026-07-16T11:20:21.000Z</time>
</trkpt>
<trkpt lat="57.250668" lon="9.623638">
<ele>30.186956</ele>
<time>2026-07-16T11:20:22.000Z</time>
</trkpt>
<trkpt lat="57.250717" lon="9.623636">
<ele>30.228541</ele>
<time>2026-07-16T11:20:23.000Z</time>
</trkpt>
<trkpt lat="57.250767" lon="9.623636">
<ele>30.270965</ele>
<time>2026-07-16T11:20:24.000Z</time>
</trkpt>
<trkpt lat="57.250813" lon="9.623635">
<ele>30.309997</ele>
<time>2026-07-16T11:20:25.000Z</time>
</trkpt>
<trkpt lat="57.250862" lon="9.623636">
<ele>30.351575</ele>
<time>2026-07-16T11:20:26.000Z</time>
</trkpt>
<trkpt lat="57.250912" lon="9.623638">
<ele>30.394008</ele>
<time>2026-07-16T11:20:27.000Z</time>
</trkpt>
<trkpt lat="57.250961" lon="9.623638">
<ele>30.435583</ele>
<time>2026-07-16T11:20:28.000Z</time>
</trkpt>
<trkpt lat="57.251011" lon="9.623636">
<ele>30.478017</ele>
<time>2026-07-16T11:20:29.000Z</time>
</trkpt>
<trkpt lat="57.251057" lon="9.623635">
<ele>30.517049</ele>
<time>2026-07-16T11:20:30.000Z</time>
</trkpt>
<trkpt lat="57.251106" lon="9.623635">
<ele>30.558624</ele>
<time>2026-07-16T11:20:31.000Z</time>
</trkpt>
<trkpt lat="57.251156" lon="9.623636">
<ele>30.601050</ele>
<time>2026-07-16T11:20:32.000Z</time>
</trkpt>
<trkpt lat="57.251202" lon="9.623636">
<ele>30.640080</ele>
<time>2026-07-16T11:20:33.000Z</time>
</trkpt>
<trkpt lat="57.251247" lon="9.623635">
<ele>30.678264</ele>
<time>2026-07-16T11:20:34.000Z</time>
</trkpt>
<trkpt lat="57.251297" lon="9.623632">
<ele>30.720710</ele>
<time>2026-07-16T11:20:35.000Z</time>
</trkpt>
<trkpt lat="57.251343" lon="9.623629">
<ele>30.759763</ele>
<time>2026-07-16T11:20:36.000Z</time>
</trkpt>
<trkpt lat="57.251389" lon="9.623626">
<ele>30.798817</ele>
<time>2026-07-16T11:20:37.000Z</time>
</trkpt>
<trkpt lat="57.251434" lon="9.623625">
<ele>30.837001</ele>
<time>2026-07-16T11:20:38.000Z</time>
</trkpt>
<trkpt lat="57.251480" lon="9.623625">
<ele>30.876031</ele>
<time>2026-07-16T11:20:39.000Z</time>
</trkpt>
<trkpt lat="57.251526" lon="9.623623">
<ele>30.915071</ele>
<time>2026-07-16T11:20:40.000Z</time>
</trkpt>
<trkpt lat="57.251568" lon="9.623621">
<ele>30.950719</ele>
<time>2026-07-16T11:20:41.000Z</time>
</trkpt>
<trkpt lat="57.251617" lon="9.623617">
<ele>30.992335</ele>
<time>2026-07-16T11:20:42.000Z</time>
</trkpt>
<trkpt lat="57.251659" lon="9.623615">
<ele>31.027982</ele>
<time>2026-07-16T11:20:43.000Z</time>
</trkpt>
<trkpt lat="57.251709" lon="9.623611">
<ele>31.078296</ele>
<time>2026-07-16T11:20:44.000Z</time>
</trkpt>
<trkpt lat="57.251755" lon="9.623610">
<ele>31.176833</ele>
<time>2026-07-16T11:20:45.000Z</time>
</trkpt>
<trkpt lat="57.251801" lon="9.623609">
<ele>31.275371</ele>
<time>2026-07-16T11:20:46.000Z</time>
</trkpt>
<trkpt lat="57.251846" lon="9.623606">
<ele>31.371822</ele>
<time>2026-07-16T11:20:47.000Z</time>
</trkpt>
<trkpt lat="57.251892" lon="9.623603">
<ele>31.470414</ele>
<time>2026-07-16T11:20:48.000Z</time>
</trkpt>
<trkpt lat="57.251938" lon="9.623602">
<ele>31.568951</ele>
<time>2026-07-16T11:20:49.000Z</time>
</trkpt>
<trkpt lat="57.251984" lon="9.623598">
<ele>31.667591</ele>
<time>2026-07-16T11:20:50.000Z</time>
</trkpt>
<trkpt lat="57.252022" lon="9.623596">
<ele>31.749019</ele>
<time>2026-07-16T11:20:51.000Z</time>
</trkpt>
<trkpt lat="57.252071" lon="9.623592">
<ele>31.854078</ele>
<time>2026-07-16T11:20:52.000Z</time>
</trkpt>
<trkpt lat="57.252117" lon="9.623590">
<ele>31.952636</ele>
<time>2026-07-16T11:20:53.000Z</time>
</trkpt>
<trkpt lat="57.252163" lon="9.623591">
<ele>32.051173</ele>
<time>2026-07-16T11:20:54.000Z</time>
</trkpt>
<trkpt lat="57.252213" lon="9.623590">
<ele>32.158278</ele>
<time>2026-07-16T11:20:55.000Z</time>
</trkpt>
<trkpt lat="57.252247" lon="9.623590">
<ele>32.231105</ele>
<time>2026-07-16T11:20:56.000Z</time>
</trkpt>
<trkpt lat="57.252296" lon="9.623590">
<ele>32.336061</ele>
<time>2026-07-16T11:20:57.000Z</time>
</trkpt>
<trkpt lat="57.252346" lon="9.623589">
<ele>32.443166</ele>
<time>2026-07-16T11:20:58.000Z</time>
</trkpt>
<trkpt lat="57.252392" lon="9.623586">
<ele>32.541758</ele>
<time>2026-07-16T11:20:59.000Z</time>
</trkpt>
<trkpt lat="57.252441" lon="9.623581">
<ele>32.646874</ele>
<time>2026-07-16T11:21:00.000Z</time>
</trkpt>
<trkpt lat="57.252483" lon="9.623578">
<ele>32.736904</ele>
<time>2026-07-16T11:21:01.000Z</time>
</trkpt>
<trkpt lat="57.252529" lon="9.623577">
<ele>32.835442</ele>
<time>2026-07-16T11:21:02.000Z</time>
</trkpt>
<trkpt lat="57.252579" lon="9.623577">
<ele>32.942540</ele>
<time>2026-07-16T11:21:03.000Z</time>
</trkpt>
<trkpt lat="57.252624" lon="9.623571">
<ele>33.039179</ele>
<time>2026-07-16T11:21:04.000Z</time>
</trkpt>
<trkpt lat="57.252674" lon="9.623565">
<ele>33.146503</ele>
<time>2026-07-16T11:21:05.000Z</time>
</trkpt>
<trkpt lat="57.252720" lon="9.623559">
<ele>33.245279</ele>
<time>2026-07-16T11:21:06.000Z</time>
</trkpt>
<trkpt lat="57.252769" lon="9.623558">
<ele>33.350242</ele>
<time>2026-07-16T11:21:07.000Z</time>
</trkpt>
<trkpt lat="57.252811" lon="9.623558">
<ele>33.440204</ele>
<time>2026-07-16T11:21:08.000Z</time>
</trkpt>
<trkpt lat="57.252861" lon="9.623557">
<ele>33.547309</ele>
<time>2026-07-16T11:21:09.000Z</time>
</trkpt>
<trkpt lat="57.252903" lon="9.623555">
<ele>33.637302</ele>
<time>2026-07-16T11:21:10.000Z</time>
</trkpt>
<trkpt lat="57.252949" lon="9.623557">
<ele>33.735860</ele>
<time>2026-07-16T11:21:11.000Z</time>
</trkpt>
<trkpt lat="57.252991" lon="9.623561">
<ele>33.825942</ele>
<time>2026-07-16T11:21:12.000Z</time>
</trkpt>
<trkpt lat="57.253037" lon="9.623566">
<ele>33.924643</ele>
<time>2026-07-16T11:21:13.000Z</time>
</trkpt>
<trkpt lat="57.253086" lon="9.623569">
<ele>34.029657</ele>
<time>2026-07-16T11:21:14.000Z</time>
</trkpt>
<trkpt lat="57.253132" lon="9.623567">
<ele>34.128215</ele>
<time>2026-07-16T11:21:15.000Z</time>
</trkpt>
<trkpt lat="57.253178" lon="9.623567">
<ele>34.226745</ele>
<time>2026-07-16T11:21:16.000Z</time>
</trkpt>
<trkpt lat="57.253220" lon="9.623567">
<ele>34.316708</ele>
<time>2026-07-16T11:21:17.000Z</time>
</trkpt>
<trkpt lat="57.253262" lon="9.623567">
<ele>34.406671</ele>
<time>2026-07-16T11:21:18.000Z</time>
</trkpt>
<trkpt lat="57.253307" lon="9.623565">
<ele>34.503087</ele>
<time>2026-07-16T11:21:19.000Z</time>
</trkpt>
<trkpt lat="57.253349" lon="9.623565">
<ele>34.593050</ele>
<time>2026-07-16T11:21:20.000Z</time>
</trkpt>
<trkpt lat="57.253387" lon="9.623564">
<ele>34.674453</ele>
<time>2026-07-16T11:21:21.000Z</time>
</trkpt>
<trkpt lat="57.253437" lon="9.623558">
<ele>34.781777</ele>
<time>2026-07-16T11:21:22.000Z</time>
</trkpt>
<trkpt lat="57.253479" lon="9.623555">
<ele>34.871807</ele>
<time>2026-07-16T11:21:23.000Z</time>
</trkpt>
<trkpt lat="57.253525" lon="9.623555">
<ele>34.959365</ele>
<time>2026-07-16T11:21:24.000Z</time>
</trkpt>
<trkpt lat="57.253567" lon="9.623555">
<ele>35.030490</ele>
<time>2026-07-16T11:21:25.000Z</time>
</trkpt>
<trkpt lat="57.253616" lon="9.623551">
<ele>35.113550</ele>
<time>2026-07-16T11:21:26.000Z</time>
</trkpt>
<trkpt lat="57.253658" lon="9.623546">
<ele>35.184822</ele>
<time>2026-07-16T11:21:27.000Z</time>
</trkpt>
<trkpt lat="57.253704" lon="9.623545">
<ele>35.262726</ele>
<time>2026-07-16T11:21:28.000Z</time>
</trkpt>
<trkpt lat="57.253750" lon="9.623547">
<ele>35.340646</ele>
<time>2026-07-16T11:21:29.000Z</time>
</trkpt>
<trkpt lat="57.253796" lon="9.623550">
<ele>35.418593</ele>
<time>2026-07-16T11:21:30.000Z</time>
</trkpt>
<trkpt lat="57.253841" lon="9.623553">
<ele>35.494848</ele>
<time>2026-07-16T11:21:31.000Z</time>
</trkpt>
<trkpt lat="57.253887" lon="9.623557">
<ele>35.572832</ele>
<time>2026-07-16T11:21:32.000Z</time>
</trkpt>
<trkpt lat="57.253929" lon="9.623564">
<ele>35.644246</ele>
<time>2026-07-16T11:21:33.000Z</time>
</trkpt>
<trkpt lat="57.253979" lon="9.623569">
<ele>35.729042</ele>
<time>2026-07-16T11:21:34.000Z</time>
</trkpt>
<trkpt lat="57.254021" lon="9.623574">
<ele>35.800314</ele>
<time>2026-07-16T11:21:35.000Z</time>
</trkpt>
<trkpt lat="57.254067" lon="9.623581">
<ele>35.878476</ele>
<time>2026-07-16T11:21:36.000Z</time>
</trkpt>
<trkpt lat="57.254108" lon="9.623586">
<ele>35.948058</ele>
<time>2026-07-16T11:21:37.000Z</time>
</trkpt>
<trkpt lat="57.254154" lon="9.623592">
<ele>36.026151</ele>
<time>2026-07-16T11:21:38.000Z</time>
</trkpt>
<trkpt lat="57.254200" lon="9.623599">
<ele>36.104313</ele>
<time>2026-07-16T11:21:39.000Z</time>
</trkpt>
<trkpt lat="57.254250" lon="9.623606">
<ele>36.189227</ele>
<time>2026-07-16T11:21:40.000Z</time>
</trkpt>
<trkpt lat="57.254288" lon="9.623614">
<ele>36.253994</ele>
<time>2026-07-16T11:21:41.000Z</time>
</trkpt>
<trkpt lat="57.254333" lon="9.623624">
<ele>36.330748</ele>
<time>2026-07-16T11:21:42.000Z</time>
</trkpt>
<trkpt lat="57.254372" lon="9.623636">
<ele>36.397701</ele>
<time>2026-07-16T11:21:43.000Z</time>
</trkpt>
<trkpt lat="57.254421" lon="9.623648">
<ele>36.481405</ele>
<time>2026-07-16T11:21:44.000Z</time>
</trkpt>
<trkpt lat="57.254459" lon="9.623655">
<ele>36.546075</ele>
<time>2026-07-16T11:21:45.000Z</time>
</trkpt>
<trkpt lat="57.254501" lon="9.623664">
<ele>36.617676</ele>
<time>2026-07-16T11:21:46.000Z</time>
</trkpt>
<trkpt lat="57.254536" lon="9.623673">
<ele>36.677517</ele>
<time>2026-07-16T11:21:47.000Z</time>
</trkpt>
<trkpt lat="57.254578" lon="9.623688">
<ele>36.749957</ele>
<time>2026-07-16T11:21:48.000Z</time>
</trkpt>
<trkpt lat="57.254620" lon="9.623701">
<ele>36.822071</ele>
<time>2026-07-16T11:21:49.000Z</time>
</trkpt>
<trkpt lat="57.254669" lon="9.623716">
<ele>36.906180</ele>
<time>2026-07-16T11:21:50.000Z</time>
</trkpt>
<trkpt lat="57.254711" lon="9.623734">
<ele>36.979191</ele>
<time>2026-07-16T11:21:51.000Z</time>
</trkpt>
<trkpt lat="57.254753" lon="9.623754">
<ele>37.052637</ele>
<time>2026-07-16T11:21:52.000Z</time>
</trkpt>
<trkpt lat="57.254795" lon="9.623776">
<ele>37.126562</ele>
<time>2026-07-16T11:21:53.000Z</time>
</trkpt>
<trkpt lat="57.254841" lon="9.623798">
<ele>37.207025</ele>
<time>2026-07-16T11:21:54.000Z</time>
</trkpt>
<trkpt lat="57.254887" lon="9.623820">
<ele>37.287488</ele>
<time>2026-07-16T11:21:55.000Z</time>
</trkpt>
<trkpt lat="57.254932" lon="9.623840">
<ele>37.365864</ele>
<time>2026-07-16T11:21:56.000Z</time>
</trkpt>
<trkpt lat="57.254986" lon="9.623865">
<ele>37.460134</ele>
<time>2026-07-16T11:21:57.000Z</time>
</trkpt>
<trkpt lat="57.255024" lon="9.623890">
<ele>37.528438</ele>
<time>2026-07-16T11:21:58.000Z</time>
</trkpt>
<trkpt lat="57.255077" lon="9.623918">
<ele>37.621784</ele>
<time>2026-07-16T11:21:59.000Z</time>
</trkpt>
<trkpt lat="57.255123" lon="9.623943">
<ele>37.702978</ele>
<time>2026-07-16T11:22:00.000Z</time>
</trkpt>
<trkpt lat="57.255173" lon="9.623969">
<ele>37.790936</ele>
<time>2026-07-16T11:22:01.000Z</time>
</trkpt>
<trkpt lat="57.255219" lon="9.624000">
<ele>37.873849</ele>
<time>2026-07-16T11:22:02.000Z</time>
</trkpt>
<trkpt lat="57.255264" lon="9.624029">
<ele>37.954551</ele>
<time>2026-07-16T11:22:03.000Z</time>
</trkpt>
<trkpt lat="57.255310" lon="9.624056">
<ele>37.961996</ele>
<time>2026-07-16T11:22:04.000Z</time>
</trkpt>
<trkpt lat="57.255356" lon="9.624084">
<ele>37.959902</ele>
<time>2026-07-16T11:22:05.000Z</time>
</trkpt>
<trkpt lat="57.255402" lon="9.624117">
<ele>37.957769</ele>
<time>2026-07-16T11:22:06.000Z</time>
</trkpt>
<trkpt lat="57.255444" lon="9.624153">
<ele>37.955767</ele>
<time>2026-07-16T11:22:07.000Z</time>
</trkpt>
<trkpt lat="57.255489" lon="9.624191">
<ele>37.953628</ele>
<time>2026-07-16T11:22:08.000Z</time>
</trkpt>
<trkpt lat="57.255535" lon="9.624224">
<ele>37.951495</ele>
<time>2026-07-16T11:22:09.000Z</time>
</trkpt>
<trkpt lat="57.255581" lon="9.624255">
<ele>37.949378</ele>
<time>2026-07-16T11:22:10.000Z</time>
</trkpt>
<trkpt lat="57.255627" lon="9.624287">
<ele>37.947253</ele>
<time>2026-07-16T11:22:11.000Z</time>
</trkpt>
<trkpt lat="57.255676" lon="9.624325">
<ele>37.944955</ele>
<time>2026-07-16T11:22:12.000Z</time>
</trkpt>
<trkpt lat="57.255726" lon="9.624359">
<ele>37.942652</ele>
<time>2026-07-16T11:22:13.000Z</time>
</trkpt>
<trkpt lat="57.255772" lon="9.624398">
<ele>37.940463</ele>
<time>2026-07-16T11:22:14.000Z</time>
</trkpt>
<trkpt lat="57.255821" lon="9.624442">
<ele>37.938108</ele>
<time>2026-07-16T11:22:15.000Z</time>
</trkpt>
<trkpt lat="57.255871" lon="9.624489">
<ele>37.935683</ele>
<time>2026-07-16T11:22:16.000Z</time>
</trkpt>
<trkpt lat="57.255920" lon="9.624536">
<ele>37.933296</ele>
<time>2026-07-16T11:22:17.000Z</time>
</trkpt>
<trkpt lat="57.255970" lon="9.624581">
<ele>37.930892</ele>
<time>2026-07-16T11:22:18.000Z</time>
</trkpt>
<trkpt lat="57.256020" lon="9.624622">
<ele>37.928527</ele>
<time>2026-07-16T11:22:19.000Z</time>
</trkpt>
<trkpt lat="57.256069" lon="9.624673">
<ele>37.926095</ele>
<time>2026-07-16T11:22:20.000Z</time>
</trkpt>
<trkpt lat="57.256126" lon="9.624723">
<ele>37.923367</ele>
<time>2026-07-16T11:22:21.000Z</time>
</trkpt>
<trkpt lat="57.256180" lon="9.624773">
<ele>37.920756</ele>
<time>2026-07-16T11:22:22.000Z</time>
</trkpt>
<trkpt lat="57.256237" lon="9.624826">
<ele>37.917997</ele>
<time>2026-07-16T11:22:23.000Z</time>
</trkpt>
<trkpt lat="57.256290" lon="9.624882">
<ele>37.915358</ele>
<time>2026-07-16T11:22:24.000Z</time>
</trkpt>
<trkpt lat="57.256344" lon="9.624934">
<ele>37.912725</ele>
<time>2026-07-16T11:22:25.000Z</time>
</trkpt>
<trkpt lat="57.256397" lon="9.624988">
<ele>37.910109</ele>
<time>2026-07-16T11:22:26.000Z</time>
</trkpt>
<trkpt lat="57.256447" lon="9.625039">
<ele>37.907640</ele>
<time>2026-07-16T11:22:27.000Z</time>
</trkpt>
<trkpt lat="57.256496" lon="9.625092">
<ele>37.905185</ele>
<time>2026-07-16T11:22:28.000Z</time>
</trkpt>
<trkpt lat="57.256546" lon="9.625144">
<ele>37.902705</ele>
<time>2026-07-16T11:22:29.000Z</time>
</trkpt>
<trkpt lat="57.256592" lon="9.625194">
<ele>37.900398</ele>
<time>2026-07-16T11:22:30.000Z</time>
</trkpt>
<trkpt lat="57.256641" lon="9.625244">
<ele>37.897978</ele>
<time>2026-07-16T11:22:31.000Z</time>
</trkpt>
<trkpt lat="57.256687" lon="9.625294">
<ele>37.895670</ele>
<time>2026-07-16T11:22:32.000Z</time>
</trkpt>
<trkpt lat="57.256737" lon="9.625342">
<ele>37.893235</ele>
<time>2026-07-16T11:22:33.000Z</time>
</trkpt>
<trkpt lat="57.256782" lon="9.625386">
<ele>37.891034</ele>
<time>2026-07-16T11:22:34.000Z</time>
</trkpt>
<trkpt lat="57.256828" lon="9.625429">
<ele>37.888805</ele>
<time>2026-07-16T11:22:35.000Z</time>
</trkpt>
<trkpt lat="57.256874" lon="9.625475">
<ele>37.886544</ele>
<time>2026-07-16T11:22:36.000Z</time>
</trkpt>
<trkpt lat="57.256916" lon="9.625514">
<ele>37.901887</ele>
<time>2026-07-16T11:22:37.000Z</time>
</trkpt>
<trkpt lat="57.256958" lon="9.625552">
<ele>37.922315</ele>
<time>2026-07-16T11:22:38.000Z</time>
</trkpt>
<trkpt lat="57.256992" lon="9.625588">
<ele>37.939432</ele>
<time>2026-07-16T11:22:39.000Z</time>
</trkpt>
<trkpt lat="57.257031" lon="9.625626">
<ele>37.958692</ele>
<time>2026-07-16T11:22:40.000Z</time>
</trkpt>
<trkpt lat="57.257061" lon="9.625660">
<ele>37.974064</ele>
<time>2026-07-16T11:22:41.000Z</time>
</trkpt>
<trkpt lat="57.257107" lon="9.625701">
<ele>37.996374</ele>
<time>2026-07-16T11:22:42.000Z</time>
</trkpt>
<trkpt lat="57.257153" lon="9.625746">
<ele>38.019110</ele>
<time>2026-07-16T11:22:43.000Z</time>
</trkpt>
<trkpt lat="57.257198" lon="9.625799">
<ele>38.042419</ele>
<time>2026-07-16T11:22:44.000Z</time>
</trkpt>
<trkpt lat="57.257244" lon="9.625853">
<ele>38.066224</ele>
<time>2026-07-16T11:22:45.000Z</time>
</trkpt>
<trkpt lat="57.257294" lon="9.625906">
<ele>38.091403</ele>
<time>2026-07-16T11:22:46.000Z</time>
</trkpt>
<trkpt lat="57.257347" lon="9.625966">
<ele>38.118553</ele>
<time>2026-07-16T11:22:47.000Z</time>
</trkpt>
<trkpt lat="57.257404" lon="9.626028">
<ele>38.147445</ele>
<time>2026-07-16T11:22:48.000Z</time>
</trkpt>
<trkpt lat="57.257462" lon="9.626088">
<ele>38.176480</ele>
<time>2026-07-16T11:22:49.000Z</time>
</trkpt>
<trkpt lat="57.257519" lon="9.626146">
<ele>38.204904</ele>
<time>2026-07-16T11:22:50.000Z</time>
</trkpt>
<trkpt lat="57.257576" lon="9.626206">
<ele>38.233559</ele>
<time>2026-07-16T11:22:51.000Z</time>
</trkpt>
<trkpt lat="57.257626" lon="9.626254">
<ele>38.258172</ele>
<time>2026-07-16T11:22:52.000Z</time>
</trkpt>
<trkpt lat="57.257679" lon="9.626302">
<ele>38.283955</ele>
<time>2026-07-16T11:22:53.000Z</time>
</trkpt>
<trkpt lat="57.257732" lon="9.626364">
<ele>38.311355</ele>
<time>2026-07-16T11:22:54.000Z</time>
</trkpt>
<trkpt lat="57.257793" lon="9.626425">
<ele>38.341652</ele>
<time>2026-07-16T11:22:55.000Z</time>
</trkpt>
<trkpt lat="57.257847" lon="9.626479">
<ele>38.368473</ele>
<time>2026-07-16T11:22:56.000Z</time>
</trkpt>
<trkpt lat="57.257900" lon="9.626534">
<ele>38.395025</ele>
<time>2026-07-16T11:22:57.000Z</time>
</trkpt>
<trkpt lat="57.257946" lon="9.626589">
<ele>38.418958</ele>
<time>2026-07-16T11:22:58.000Z</time>
</trkpt>
<trkpt lat="57.258007" lon="9.626652">
<ele>38.449483</ele>
<time>2026-07-16T11:22:59.000Z</time>
</trkpt>
<trkpt lat="57.258064" lon="9.626719">
<ele>38.478991</ele>
<time>2026-07-16T11:23:00.000Z</time>
</trkpt>
<trkpt lat="57.258114" lon="9.626779">
<ele>38.505032</ele>
<time>2026-07-16T11:23:01.000Z</time>
</trkpt>
<trkpt lat="57.258167" lon="9.626837">
<ele>38.531938</ele>
<time>2026-07-16T11:23:02.000Z</time>
</trkpt>
<trkpt lat="57.258209" lon="9.626883">
<ele>38.553265</ele>
<time>2026-07-16T11:23:03.000Z</time>
</trkpt>
<trkpt lat="57.258266" lon="9.626937">
<ele>38.581245</ele>
<time>2026-07-16T11:23:04.000Z</time>
</trkpt>
<trkpt lat="57.258327" lon="9.626987">
<ele>38.610396</ele>
<time>2026-07-16T11:23:05.000Z</time>
</trkpt>
<trkpt lat="57.258377" lon="9.627041">
<ele>38.635693</ele>
<time>2026-07-16T11:23:06.000Z</time>
</trkpt>
<trkpt lat="57.258427" lon="9.627097">
<ele>38.661232</ele>
<time>2026-07-16T11:23:07.000Z</time>
</trkpt>
<trkpt lat="57.258465" lon="9.627143">
<ele>38.688482</ele>
<time>2026-07-16T11:23:08.000Z</time>
</trkpt>
<trkpt lat="57.258518" lon="9.627201">
<ele>38.737014</ele>
<time>2026-07-16T11:23:09.000Z</time>
</trkpt>
<trkpt lat="57.258564" lon="9.627250">
<ele>38.778848</ele>
<time>2026-07-16T11:23:10.000Z</time>
</trkpt>
<trkpt lat="57.258610" lon="9.627302">
<ele>38.821335</ele>
<time>2026-07-16T11:23:11.000Z</time>
</trkpt>
<trkpt lat="57.258659" lon="9.627351">
<ele>38.865234</ele>
<time>2026-07-16T11:23:12.000Z</time>
</trkpt>
<trkpt lat="57.258709" lon="9.627398">
<ele>38.909434</ele>
<time>2026-07-16T11:23:13.000Z</time>
</trkpt>
<trkpt lat="57.258762" lon="9.627445">
<ele>38.955754</ele>
<time>2026-07-16T11:23:14.000Z</time>
</trkpt>
<trkpt lat="57.258812" lon="9.627492">
<ele>38.999955</ele>
<time>2026-07-16T11:23:15.000Z</time>
</trkpt>
<trkpt lat="57.258858" lon="9.627544">
<ele>39.042442</ele>
<time>2026-07-16T11:23:16.000Z</time>
</trkpt>
<trkpt lat="57.258907" lon="9.627600">
<ele>39.087835</ele>
<time>2026-07-16T11:23:17.000Z</time>
</trkpt>
<trkpt lat="57.258965" lon="9.627660">
<ele>39.140208</ele>
<time>2026-07-16T11:23:18.000Z</time>
</trkpt>
<trkpt lat="57.259026" lon="9.627722">
<ele>39.195061</ele>
<time>2026-07-16T11:23:19.000Z</time>
</trkpt>
<trkpt lat="57.259083" lon="9.627780">
<ele>39.246330</ele>
<time>2026-07-16T11:23:20.000Z</time>
</trkpt>
<trkpt lat="57.259136" lon="9.627834">
<ele>39.294016</ele>
<time>2026-07-16T11:23:21.000Z</time>
</trkpt>
<trkpt lat="57.259190" lon="9.627893">
<ele>39.343443</ele>
<time>2026-07-16T11:23:22.000Z</time>
</trkpt>
<trkpt lat="57.259247" lon="9.627952">
<ele>39.394920</ele>
<time>2026-07-16T11:23:23.000Z</time>
</trkpt>
<trkpt lat="57.259296" lon="9.628007">
<ele>39.440091</ele>
<time>2026-07-16T11:23:24.000Z</time>
</trkpt>
<trkpt lat="57.259350" lon="9.628060">
<ele>39.488267</ele>
<time>2026-07-16T11:23:25.000Z</time>
</trkpt>
<trkpt lat="57.259403" lon="9.628117">
<ele>39.536583</ele>
<time>2026-07-16T11:23:26.000Z</time>
</trkpt>
<trkpt lat="57.259453" lon="9.628171">
<ele>39.582213</ele>
<time>2026-07-16T11:23:27.000Z</time>
</trkpt>
<trkpt lat="57.259502" lon="9.628222">
<ele>39.626523</ele>
<time>2026-07-16T11:23:28.000Z</time>
</trkpt>
<trkpt lat="57.259548" lon="9.628265">
<ele>39.667141</ele>
<time>2026-07-16T11:23:29.000Z</time>
</trkpt>
<trkpt lat="57.259598" lon="9.628305">
<ele>39.710072</ele>
<time>2026-07-16T11:23:30.000Z</time>
</trkpt>
<trkpt lat="57.259647" lon="9.628351">
<ele>39.753376</ele>
<time>2026-07-16T11:23:31.000Z</time>
</trkpt>
<trkpt lat="57.259701" lon="9.628398">
<ele>39.800408</ele>
<time>2026-07-16T11:23:32.000Z</time>
</trkpt>
<trkpt lat="57.259750" lon="9.628443">
<ele>39.843521</ele>
<time>2026-07-16T11:23:33.000Z</time>
</trkpt>
<trkpt lat="57.259800" lon="9.628488">
<ele>39.887342</ele>
<time>2026-07-16T11:23:34.000Z</time>
</trkpt>
<trkpt lat="57.259850" lon="9.628526">
<ele>39.929941</ele>
<time>2026-07-16T11:23:35.000Z</time>
</trkpt>
<trkpt lat="57.259895" lon="9.628561">
<ele>39.968411</ele>
<time>2026-07-16T11:23:36.000Z</time>
</trkpt>
<trkpt lat="57.259941" lon="9.628598">
<ele>40.007941</ele>
<time>2026-07-16T11:23:37.000Z</time>
</trkpt>
<trkpt lat="57.259995" lon="9.628633">
<ele>40.053033</ele>
<time>2026-07-16T11:23:38.000Z</time>
</trkpt>
<trkpt lat="57.260048" lon="9.628672">
<ele>40.100364</ele>
<time>2026-07-16T11:23:39.000Z</time>
</trkpt>
<trkpt lat="57.260101" lon="9.628709">
<ele>40.157133</ele>
<time>2026-07-16T11:23:40.000Z</time>
</trkpt>
<trkpt lat="57.260159" lon="9.628742">
<ele>40.217941</ele>
<time>2026-07-16T11:23:41.000Z</time>
</trkpt>
<trkpt lat="57.260212" lon="9.628774">
<ele>40.273810</ele>
<time>2026-07-16T11:23:42.000Z</time>
</trkpt>
<trkpt lat="57.260265" lon="9.628803">
<ele>40.329196</ele>
<time>2026-07-16T11:23:43.000Z</time>
</trkpt>
<trkpt lat="57.260319" lon="9.628836">
<ele>40.386186</ele>
<time>2026-07-16T11:23:44.000Z</time>
</trkpt>
<trkpt lat="57.260368" lon="9.628864">
<ele>40.437578</ele>
<time>2026-07-16T11:23:45.000Z</time>
</trkpt>
<trkpt lat="57.260418" lon="9.628890">
<ele>40.489625</ele>
<time>2026-07-16T11:23:46.000Z</time>
</trkpt>
<trkpt lat="57.260468" lon="9.628914">
<ele>40.541388</ele>
<time>2026-07-16T11:23:47.000Z</time>
</trkpt>
<trkpt lat="57.260513" lon="9.628936">
<ele>40.588031</ele>
<time>2026-07-16T11:23:48.000Z</time>
</trkpt>
<trkpt lat="57.260559" lon="9.628963">
<ele>40.636392</ele>
<time>2026-07-16T11:23:49.000Z</time>
</trkpt>
<trkpt lat="57.260601" lon="9.628989">
<ele>40.680775</ele>
<time>2026-07-16T11:23:50.000Z</time>
</trkpt>
<trkpt lat="57.260654" lon="9.629018">
<ele>40.736160</ele>
<time>2026-07-16T11:23:51.000Z</time>
</trkpt>
<trkpt lat="57.260704" lon="9.629045">
<ele>40.788356</ele>
<time>2026-07-16T11:23:52.000Z</time>
</trkpt>
<trkpt lat="57.260757" lon="9.629073">
<ele>40.843591</ele>
<time>2026-07-16T11:23:53.000Z</time>
</trkpt>
<trkpt lat="57.260811" lon="9.629103">
<ele>40.900091</ele>
<time>2026-07-16T11:23:54.000Z</time>
</trkpt>
<trkpt lat="57.260857" lon="9.629128">
<ele>40.948136</ele>
<time>2026-07-16T11:23:55.000Z</time>
</trkpt>
<trkpt lat="57.260910" lon="9.629153">
<ele>41.002946</ele>
<time>2026-07-16T11:23:56.000Z</time>
</trkpt>
<trkpt lat="57.260956" lon="9.629172">
<ele>41.050177</ele>
<time>2026-07-16T11:23:57.000Z</time>
</trkpt>
<trkpt lat="57.261005" lon="9.629192">
<ele>41.100460</ele>
<time>2026-07-16T11:23:58.000Z</time>
</trkpt>
<trkpt lat="57.261051" lon="9.629207">
<ele>41.147266</ele>
<time>2026-07-16T11:23:59.000Z</time>
</trkpt>
<trkpt lat="57.261089" lon="9.629217">
<ele>41.185728</ele>
<time>2026-07-16T11:24:00.000Z</time>
</trkpt>
<trkpt lat="57.261150" lon="9.629233">
<ele>41.247465</ele>
<time>2026-07-16T11:24:01.000Z</time>
</trkpt>
<trkpt lat="57.261204" lon="9.629248">
<ele>41.302184</ele>
<time>2026-07-16T11:24:02.000Z</time>
</trkpt>
<trkpt lat="57.261246" lon="9.629257">
<ele>41.344552</ele>
<time>2026-07-16T11:24:03.000Z</time>
</trkpt>
<trkpt lat="57.261295" lon="9.629269">
<ele>41.394082</ele>
<time>2026-07-16T11:24:04.000Z</time>
</trkpt>
<trkpt lat="57.261333" lon="9.629281">
<ele>41.432711</ele>
<time>2026-07-16T11:24:05.000Z</time>
</trkpt>
<trkpt lat="57.261379" lon="9.629294">
<ele>41.479341</ele>
<time>2026-07-16T11:24:06.000Z</time>
</trkpt>
<trkpt lat="57.261421" lon="9.629308">
<ele>41.522106</ele>
<time>2026-07-16T11:24:07.000Z</time>
</trkpt>
<trkpt lat="57.261467" lon="9.629315">
<ele>41.568357</ele>
<time>2026-07-16T11:24:08.000Z</time>
</trkpt>
<trkpt lat="57.261513" lon="9.629318">
<ele>41.614480</ele>
<time>2026-07-16T11:24:09.000Z</time>
</trkpt>
<trkpt lat="57.261555" lon="9.629321">
<ele>41.656598</ele>
<time>2026-07-16T11:24:10.000Z</time>
</trkpt>
<trkpt lat="57.261593" lon="9.629332">
<ele>41.695140</ele>
<time>2026-07-16T11:24:11.000Z</time>
</trkpt>
<trkpt lat="57.261631" lon="9.629337">
<ele>41.733315</ele>
<time>2026-07-16T11:24:12.000Z</time>
</trkpt>
<trkpt lat="57.261669" lon="9.629338">
<ele>41.771397</ele>
<time>2026-07-16T11:24:13.000Z</time>
</trkpt>
<trkpt lat="57.261707" lon="9.629338">
<ele>41.809475</ele>
<time>2026-07-16T11:24:14.000Z</time>
</trkpt>
<trkpt lat="57.261753" lon="9.629342">
<ele>41.855621</ele>
<time>2026-07-16T11:24:15.000Z</time>
</trkpt>
<trkpt lat="57.261791" lon="9.629349">
<ele>41.890529</ele>
<time>2026-07-16T11:24:16.000Z</time>
</trkpt>
<trkpt lat="57.261841" lon="9.629352">
<ele>41.868069</ele>
<time>2026-07-16T11:24:17.000Z</time>
</trkpt>
<trkpt lat="57.261887" lon="9.629350">
<ele>41.847411</ele>
<time>2026-07-16T11:24:18.000Z</time>
</trkpt>
<trkpt lat="57.261936" lon="9.629353">
<ele>41.825399</ele>
<time>2026-07-16T11:24:19.000Z</time>
</trkpt>
<trkpt lat="57.261986" lon="9.629355">
<ele>41.802946</ele>
<time>2026-07-16T11:24:20.000Z</time>
</trkpt>
<trkpt lat="57.262035" lon="9.629359">
<ele>41.780925</ele>
<time>2026-07-16T11:24:21.000Z</time>
</trkpt>
<trkpt lat="57.262085" lon="9.629360">
<ele>41.758475</ele>
<time>2026-07-16T11:24:22.000Z</time>
</trkpt>
<trkpt lat="57.262131" lon="9.629364">
<ele>41.737800</ele>
<time>2026-07-16T11:24:23.000Z</time>
</trkpt>
<trkpt lat="57.262192" lon="9.629373">
<ele>41.710326</ele>
<time>2026-07-16T11:24:24.000Z</time>
</trkpt>
<trkpt lat="57.262245" lon="9.629382">
<ele>41.686431</ele>
<time>2026-07-16T11:24:25.000Z</time>
</trkpt>
<trkpt lat="57.262302" lon="9.629393">
<ele>41.660701</ele>
<time>2026-07-16T11:24:26.000Z</time>
</trkpt>
<trkpt lat="57.262356" lon="9.629403">
<ele>41.636335</ele>
<time>2026-07-16T11:24:27.000Z</time>
</trkpt>
<trkpt lat="57.262409" lon="9.629409">
<ele>41.612495</ele>
<time>2026-07-16T11:24:28.000Z</time>
</trkpt>
<trkpt lat="57.262459" lon="9.629414">
<ele>41.590014</ele>
<time>2026-07-16T11:24:29.000Z</time>
</trkpt>
<trkpt lat="57.262512" lon="9.629419">
<ele>41.566188</ele>
<time>2026-07-16T11:24:30.000Z</time>
</trkpt>
<trkpt lat="57.262566" lon="9.629430">
<ele>41.541797</ele>
<time>2026-07-16T11:24:31.000Z</time>
</trkpt>
<trkpt lat="57.262619" lon="9.629437">
<ele>41.517941</ele>
<time>2026-07-16T11:24:32.000Z</time>
</trkpt>
<trkpt lat="57.262672" lon="9.629446">
<ele>41.494046</ele>
<time>2026-07-16T11:24:33.000Z</time>
</trkpt>
<trkpt lat="57.262733" lon="9.629458">
<ele>41.466504</ele>
<time>2026-07-16T11:24:34.000Z</time>
</trkpt>
<trkpt lat="57.262791" lon="9.629464">
<ele>41.440423</ele>
<time>2026-07-16T11:24:35.000Z</time>
</trkpt>
<trkpt lat="57.262844" lon="9.629473">
<ele>41.416528</ele>
<time>2026-07-16T11:24:36.000Z</time>
</trkpt>
<trkpt lat="57.262901" lon="9.629480">
<ele>41.390881</ele>
<time>2026-07-16T11:24:37.000Z</time>
</trkpt>
<trkpt lat="57.262962" lon="9.629490">
<ele>41.363386</ele>
<time>2026-07-16T11:24:38.000Z</time>
</trkpt>
<trkpt lat="57.263023" lon="9.629497">
<ele>41.335946</ele>
<time>2026-07-16T11:24:39.000Z</time>
</trkpt>
<trkpt lat="57.263084" lon="9.629504">
<ele>41.308507</ele>
<time>2026-07-16T11:24:40.000Z</time>
</trkpt>
<trkpt lat="57.263149" lon="9.629508">
<ele>41.279308</ele>
<time>2026-07-16T11:24:41.000Z</time>
</trkpt>
<trkpt lat="57.263206" lon="9.629514">
<ele>41.253675</ele>
<time>2026-07-16T11:24:42.000Z</time>
</trkpt>
<trkpt lat="57.263267" lon="9.629523">
<ele>41.226201</ele>
<time>2026-07-16T11:24:43.000Z</time>
</trkpt>
<trkpt lat="57.263329" lon="9.629535">
<ele>41.198213</ele>
<time>2026-07-16T11:24:44.000Z</time>
</trkpt>
<trkpt lat="57.263386" lon="9.629546">
<ele>41.172483</ele>
<time>2026-07-16T11:24:45.000Z</time>
</trkpt>
<trkpt lat="57.263451" lon="9.629554">
<ele>41.143236</ele>
<time>2026-07-16T11:24:46.000Z</time>
</trkpt>
<trkpt lat="57.263512" lon="9.629562">
<ele>41.115780</ele>
<time>2026-07-16T11:24:47.000Z</time>
</trkpt>
<trkpt lat="57.263569" lon="9.629579">
<ele>41.089858</ele>
<time>2026-07-16T11:24:48.000Z</time>
</trkpt>
<trkpt lat="57.263630" lon="9.629602">
<ele>40.996549</ele>
<time>2026-07-16T11:24:49.000Z</time>
</trkpt>
<trkpt lat="57.263687" lon="9.629626">
<ele>40.892784</ele>
<time>2026-07-16T11:24:50.000Z</time>
</trkpt>
<trkpt lat="57.263744" lon="9.629655">
<ele>40.787850</ele>
<time>2026-07-16T11:24:51.000Z</time>
</trkpt>
<trkpt lat="57.263802" lon="9.629686">
<ele>40.680686</ele>
<time>2026-07-16T11:24:52.000Z</time>
</trkpt>
<trkpt lat="57.263859" lon="9.629718">
<ele>40.574952</ele>
<time>2026-07-16T11:24:53.000Z</time>
</trkpt>
<trkpt lat="57.263912" lon="9.629759">
<ele>40.472977</ele>
<time>2026-07-16T11:24:54.000Z</time>
</trkpt>
<trkpt lat="57.263966" lon="9.629807">
<ele>40.366629</ele>
<time>2026-07-16T11:24:55.000Z</time>
</trkpt>
<trkpt lat="57.264019" lon="9.629852">
<ele>40.263112</ele>
<time>2026-07-16T11:24:56.000Z</time>
</trkpt>
<trkpt lat="57.264072" lon="9.629902">
<ele>40.157502</ele>
<time>2026-07-16T11:24:57.000Z</time>
</trkpt>
<trkpt lat="57.264118" lon="9.629959">
<ele>40.059216</ele>
<time>2026-07-16T11:24:58.000Z</time>
</trkpt>
<trkpt lat="57.264164" lon="9.630027">
<ele>39.954684</ele>
<time>2026-07-16T11:24:59.000Z</time>
</trkpt>
<trkpt lat="57.264214" lon="9.630096">
<ele>39.843946</ele>
<time>2026-07-16T11:25:00.000Z</time>
</trkpt>
<trkpt lat="57.264256" lon="9.630168">
<ele>39.742291</ele>
<time>2026-07-16T11:25:01.000Z</time>
</trkpt>
<trkpt lat="57.264294" lon="9.630247">
<ele>39.640804</ele>
<time>2026-07-16T11:25:02.000Z</time>
</trkpt>
<trkpt lat="57.264332" lon="9.630328">
<ele>39.537876</ele>
<time>2026-07-16T11:25:03.000Z</time>
</trkpt>
<trkpt lat="57.264366" lon="9.630418">
<ele>39.432497</ele>
<time>2026-07-16T11:25:04.000Z</time>
</trkpt>
<trkpt lat="57.264404" lon="9.630511">
<ele>39.320613</ele>
<time>2026-07-16T11:25:05.000Z</time>
</trkpt>
<trkpt lat="57.264435" lon="9.630609">
<ele>39.211636</ele>
<time>2026-07-16T11:25:06.000Z</time>
</trkpt>
<trkpt lat="57.264461" lon="9.630711">
<ele>39.103399</ele>
<time>2026-07-16T11:25:07.000Z</time>
</trkpt>
<trkpt lat="57.264488" lon="9.630816">
<ele>38.991800</ele>
<time>2026-07-16T11:25:08.000Z</time>
</trkpt>
<trkpt lat="57.264511" lon="9.630928">
<ele>38.876807</ele>
<time>2026-07-16T11:25:09.000Z</time>
</trkpt>
<trkpt lat="57.264530" lon="9.631040">
<ele>38.764138</ele>
<time>2026-07-16T11:25:10.000Z</time>
</trkpt>
<trkpt lat="57.264542" lon="9.631150">
<ele>38.656427</ele>
<time>2026-07-16T11:25:11.000Z</time>
</trkpt>
<trkpt lat="57.264557" lon="9.631265">
<ele>38.542879</ele>
<time>2026-07-16T11:25:12.000Z</time>
</trkpt>
<trkpt lat="57.264565" lon="9.631373">
<ele>38.438247</ele>
<time>2026-07-16T11:25:13.000Z</time>
</trkpt>
<trkpt lat="57.264568" lon="9.631493">
<ele>38.322943</ele>
<time>2026-07-16T11:25:14.000Z</time>
</trkpt>
<trkpt lat="57.264568" lon="9.631613">
<ele>38.207761</ele>
<time>2026-07-16T11:25:15.000Z</time>
</trkpt>
<trkpt lat="57.264572" lon="9.631729">
<ele>38.096192</ele>
<time>2026-07-16T11:25:16.000Z</time>
</trkpt>
<trkpt lat="57.264576" lon="9.631850">
<ele>37.979834</ele>
<time>2026-07-16T11:25:17.000Z</time>
</trkpt>
<trkpt lat="57.264576" lon="9.631974">
<ele>37.841017</ele>
<time>2026-07-16T11:25:18.000Z</time>
</trkpt>
<trkpt lat="57.264576" lon="9.632103">
<ele>37.637199</ele>
<time>2026-07-16T11:25:19.000Z</time>
</trkpt>
<trkpt lat="57.264572" lon="9.632229">
<ele>37.437778</ele>
<time>2026-07-16T11:25:20.000Z</time>
</trkpt>
<trkpt lat="57.264568" lon="9.632361">
<ele>37.228893</ele>
<time>2026-07-16T11:25:21.000Z</time>
</trkpt>
<trkpt lat="57.264565" lon="9.632497">
<ele>37.013836</ele>
<time>2026-07-16T11:25:22.000Z</time>
</trkpt>
<trkpt lat="57.264561" lon="9.632628">
<ele>36.806529</ele>
<time>2026-07-16T11:25:23.000Z</time>
</trkpt>
<trkpt lat="57.264557" lon="9.632762">
<ele>36.594488</ele>
<time>2026-07-16T11:25:24.000Z</time>
</trkpt>
<trkpt lat="57.264561" lon="9.632894">
<ele>36.385603</ele>
<time>2026-07-16T11:25:25.000Z</time>
</trkpt>
<trkpt lat="57.264557" lon="9.633031">
<ele>36.168829</ele>
<time>2026-07-16T11:25:26.000Z</time>
</trkpt>
<trkpt lat="57.264553" lon="9.633163">
<ele>35.959944</ele>
<time>2026-07-16T11:25:27.000Z</time>
</trkpt>
<trkpt lat="57.264549" lon="9.633301">
<ele>35.741593</ele>
<time>2026-07-16T11:25:28.000Z</time>
</trkpt>
<trkpt lat="57.264549" lon="9.633430">
<ele>35.537775</ele>
<time>2026-07-16T11:25:29.000Z</time>
</trkpt>
<trkpt lat="57.264553" lon="9.633570">
<ele>35.316268</ele>
<time>2026-07-16T11:25:30.000Z</time>
</trkpt>
<trkpt lat="57.264549" lon="9.633716">
<ele>35.085294</ele>
<time>2026-07-16T11:25:31.000Z</time>
</trkpt>
<trkpt lat="57.264549" lon="9.633872">
<ele>34.838816</ele>
<time>2026-07-16T11:25:32.000Z</time>
</trkpt>
<trkpt lat="57.264545" lon="9.634034">
<ele>34.582592</ele>
<time>2026-07-16T11:25:33.000Z</time>
</trkpt>
<trkpt lat="57.264542" lon="9.634190">
<ele>34.335958</ele>
<time>2026-07-16T11:25:34.000Z</time>
</trkpt>
<trkpt lat="57.264538" lon="9.634351">
<ele>34.081312</ele>
<time>2026-07-16T11:25:35.000Z</time>
</trkpt>
<trkpt lat="57.264534" lon="9.634496">
<ele>33.851916</ele>
<time>2026-07-16T11:25:36.000Z</time>
</trkpt>
<trkpt lat="57.264523" lon="9.634678">
<ele>33.562568</ele>
<time>2026-07-16T11:25:37.000Z</time>
</trkpt>
<trkpt lat="57.264515" lon="9.634837">
<ele>33.310265</ele>
<time>2026-07-16T11:25:38.000Z</time>
</trkpt>
<trkpt lat="57.264511" lon="9.635007">
<ele>33.041413</ele>
<time>2026-07-16T11:25:39.000Z</time>
</trkpt>
<trkpt lat="57.264507" lon="9.635173">
<ele>32.778875</ele>
<time>2026-07-16T11:25:40.000Z</time>
</trkpt>
<trkpt lat="57.264503" lon="9.635336">
<ele>32.573813</ele>
<time>2026-07-16T11:25:41.000Z</time>
</trkpt>
<trkpt lat="57.264496" lon="9.635498">
<ele>32.434663</ele>
<time>2026-07-16T11:25:42.000Z</time>
</trkpt>
<trkpt lat="57.264492" lon="9.635657">
<ele>32.298377</ele>
<time>2026-07-16T11:25:43.000Z</time>
</trkpt>
<trkpt lat="57.264484" lon="9.635821">
<ele>32.157387</ele>
<time>2026-07-16T11:25:44.000Z</time>
</trkpt>
<trkpt lat="57.264481" lon="9.635986">
<ele>32.016031</ele>
<time>2026-07-16T11:25:45.000Z</time>
</trkpt>
<trkpt lat="57.264477" lon="9.636149">
<ele>31.876324</ele>
<time>2026-07-16T11:25:46.000Z</time>
</trkpt>
<trkpt lat="57.264473" lon="9.636308">
<ele>31.740038</ele>
<time>2026-07-16T11:25:47.000Z</time>
</trkpt>
<trkpt lat="57.264469" lon="9.636470">
<ele>31.601185</ele>
<time>2026-07-16T11:25:48.000Z</time>
</trkpt>
<trkpt lat="57.264461" lon="9.636624">
<ele>31.468721</ele>
<time>2026-07-16T11:25:49.000Z</time>
</trkpt>
<trkpt lat="57.264454" lon="9.636785">
<ele>31.330424</ele>
<time>2026-07-16T11:25:50.000Z</time>
</trkpt>
<trkpt lat="57.264446" lon="9.636938">
<ele>31.198812</ele>
<time>2026-07-16T11:25:51.000Z</time>
</trkpt>
<trkpt lat="57.264439" lon="9.637092">
<ele>31.066489</ele>
<time>2026-07-16T11:25:52.000Z</time>
</trkpt>
<trkpt lat="57.264431" lon="9.637239">
<ele>30.939988</ele>
<time>2026-07-16T11:25:53.000Z</time>
</trkpt>
<trkpt lat="57.264427" lon="9.637405">
<ele>30.797715</ele>
<time>2026-07-16T11:25:54.000Z</time>
</trkpt>
<trkpt lat="57.264423" lon="9.637556">
<ele>30.668270</ele>
<time>2026-07-16T11:25:55.000Z</time>
</trkpt>
<trkpt lat="57.264412" lon="9.637710">
<ele>30.535267</ele>
<time>2026-07-16T11:25:56.000Z</time>
</trkpt>
<trkpt lat="57.264408" lon="9.637865">
<ele>30.402402</ele>
<time>2026-07-16T11:25:57.000Z</time>
</trkpt>
<trkpt lat="57.264400" lon="9.638020">
<ele>30.269084</ele>
<time>2026-07-16T11:25:58.000Z</time>
</trkpt>
<trkpt lat="57.264393" lon="9.638171">
<ele>30.139321</ele>
<time>2026-07-16T11:25:59.000Z</time>
</trkpt>
<trkpt lat="57.264389" lon="9.638312">
<ele>30.018427</ele>
<time>2026-07-16T11:26:00.000Z</time>
</trkpt>
<trkpt lat="57.264385" lon="9.638469">
<ele>29.883851</ele>
<time>2026-07-16T11:26:01.000Z</time>
</trkpt>
<trkpt lat="57.264385" lon="9.638623">
<ele>29.773011</ele>
<time>2026-07-16T11:26:02.000Z</time>
</trkpt>
<trkpt lat="57.264381" lon="9.638770">
<ele>29.719920</ele>
<time>2026-07-16T11:26:03.000Z</time>
</trkpt>
<trkpt lat="57.264374" lon="9.638920">
<ele>29.665613</ele>
<time>2026-07-16T11:26:04.000Z</time>
</trkpt>
<trkpt lat="57.264370" lon="9.639056">
<ele>29.616485</ele>
<time>2026-07-16T11:26:05.000Z</time>
</trkpt>
<trkpt lat="57.264370" lon="9.639211">
<ele>29.560575</ele>
<time>2026-07-16T11:26:06.000Z</time>
</trkpt>
<trkpt lat="57.264366" lon="9.639360">
<ele>29.506764</ele>
<time>2026-07-16T11:26:07.000Z</time>
</trkpt>
<trkpt lat="57.264359" lon="9.639504">
<ele>29.454613</ele>
<time>2026-07-16T11:26:08.000Z</time>
</trkpt>
<trkpt lat="57.264359" lon="9.639651">
<ele>29.401589</ele>
<time>2026-07-16T11:26:09.000Z</time>
</trkpt>
<trkpt lat="57.264355" lon="9.639796">
<ele>29.349219</ele>
<time>2026-07-16T11:26:10.000Z</time>
</trkpt>
<trkpt lat="57.264347" lon="9.639946">
<ele>29.294850</ele>
<time>2026-07-16T11:26:11.000Z</time>
</trkpt>
<trkpt lat="57.264343" lon="9.640092">
<ele>29.242120</ele>
<time>2026-07-16T11:26:12.000Z</time>
</trkpt>
<trkpt lat="57.264336" lon="9.640240">
<ele>29.188531</ele>
<time>2026-07-16T11:26:13.000Z</time>
</trkpt>
<trkpt lat="57.264332" lon="9.640388">
<ele>29.135080</ele>
<time>2026-07-16T11:26:14.000Z</time>
</trkpt>
<trkpt lat="57.264328" lon="9.640534">
<ele>29.082349</ele>
<time>2026-07-16T11:26:15.000Z</time>
</trkpt>
<trkpt lat="57.264324" lon="9.640678">
<ele>29.030339</ele>
<time>2026-07-16T11:26:16.000Z</time>
</trkpt>
<trkpt lat="57.264320" lon="9.640822">
<ele>28.978329</ele>
<time>2026-07-16T11:26:17.000Z</time>
</trkpt>
<trkpt lat="57.264320" lon="9.640965">
<ele>28.926748</ele>
<time>2026-07-16T11:26:18.000Z</time>
</trkpt>
<trkpt lat="57.264317" lon="9.641105">
<ele>28.876209</ele>
<time>2026-07-16T11:26:19.000Z</time>
</trkpt>
<trkpt lat="57.264313" lon="9.641237">
<ele>28.828521</ele>
<time>2026-07-16T11:26:20.000Z</time>
</trkpt>
<trkpt lat="57.264305" lon="9.641383">
<ele>28.775589</ele>
<time>2026-07-16T11:26:21.000Z</time>
</trkpt>
<trkpt lat="57.264301" lon="9.641520">
<ele>28.726100</ele>
<time>2026-07-16T11:26:22.000Z</time>
</trkpt>
<trkpt lat="57.264297" lon="9.641661">
<ele>28.675170</ele>
<time>2026-07-16T11:26:23.000Z</time>
</trkpt>
<trkpt lat="57.264294" lon="9.641805">
<ele>28.623190</ele>
<time>2026-07-16T11:26:24.000Z</time>
</trkpt>
<trkpt lat="57.264290" lon="9.641943">
<ele>28.570781</ele>
<time>2026-07-16T11:26:25.000Z</time>
</trkpt>
<trkpt lat="57.264286" lon="9.642082">
<ele>28.512127</ele>
<time>2026-07-16T11:26:26.000Z</time>
</trkpt>
<trkpt lat="57.264282" lon="9.642220">
<ele>28.453893</ele>
<time>2026-07-16T11:26:27.000Z</time>
</trkpt>
<trkpt lat="57.264278" lon="9.642362">
<ele>28.393977</ele>
<time>2026-07-16T11:26:28.000Z</time>
</trkpt>
<trkpt lat="57.264275" lon="9.642495">
<ele>28.337885</ele>
<time>2026-07-16T11:26:29.000Z</time>
</trkpt>
<trkpt lat="57.264271" lon="9.642645">
<ele>28.274601</ele>
<time>2026-07-16T11:26:30.000Z</time>
</trkpt>
<trkpt lat="57.264267" lon="9.642781">
<ele>28.217209</ele>
<time>2026-07-16T11:26:31.000Z</time>
</trkpt>
<trkpt lat="57.264263" lon="9.642931">
<ele>28.153926</ele>
<time>2026-07-16T11:26:32.000Z</time>
</trkpt>
<trkpt lat="57.264263" lon="9.643075">
<ele>28.093248</ele>
<time>2026-07-16T11:26:33.000Z</time>
</trkpt>
<trkpt lat="57.264259" lon="9.643217">
<ele>28.033331</ele>
<time>2026-07-16T11:26:34.000Z</time>
</trkpt>
<trkpt lat="57.264256" lon="9.643356">
<ele>27.974713</ele>
<time>2026-07-16T11:26:35.000Z</time>
</trkpt>
<trkpt lat="57.264252" lon="9.643499">
<ele>27.914375</ele>
<time>2026-07-16T11:26:36.000Z</time>
</trkpt>
<trkpt lat="57.264244" lon="9.643643">
<ele>27.853377</ele>
<time>2026-07-16T11:26:37.000Z</time>
</trkpt>
<trkpt lat="57.264240" lon="9.643783">
<ele>27.794302</ele>
<time>2026-07-16T11:26:38.000Z</time>
</trkpt>
<trkpt lat="57.264236" lon="9.643924">
<ele>27.734806</ele>
<time>2026-07-16T11:26:39.000Z</time>
</trkpt>
<trkpt lat="57.264233" lon="9.644053">
<ele>27.680398</ele>
<time>2026-07-16T11:26:40.000Z</time>
</trkpt>
<trkpt lat="57.264233" lon="9.644193">
<ele>27.621405</ele>
<time>2026-07-16T11:26:41.000Z</time>
</trkpt>
<trkpt lat="57.264225" lon="9.644331">
<ele>27.562922</ele>
<time>2026-07-16T11:26:42.000Z</time>
</trkpt>
<trkpt lat="57.264221" lon="9.644469">
<ele>27.504688</ele>
<time>2026-07-16T11:26:43.000Z</time>
</trkpt>
<trkpt lat="57.264214" lon="9.644601">
<ele>27.448800</ele>
<time>2026-07-16T11:26:44.000Z</time>
</trkpt>
<trkpt lat="57.264210" lon="9.644739">
<ele>27.390566</ele>
<time>2026-07-16T11:26:45.000Z</time>
</trkpt>
<trkpt lat="57.264202" lon="9.644875">
<ele>27.332921</ele>
<time>2026-07-16T11:26:46.000Z</time>
</trkpt>
<trkpt lat="57.264198" lon="9.645007">
<ele>27.277212</ele>
<time>2026-07-16T11:26:47.000Z</time>
</trkpt>
<trkpt lat="57.264195" lon="9.645147">
<ele>27.218172</ele>
<time>2026-07-16T11:26:48.000Z</time>
</trkpt>
<trkpt lat="57.264187" lon="9.645283">
<ele>27.129474</ele>
<time>2026-07-16T11:26:49.000Z</time>
</trkpt>
<trkpt lat="57.264179" lon="9.645416">
<ele>27.006976</ele>
<time>2026-07-16T11:26:50.000Z</time>
</trkpt>
<trkpt lat="57.264172" lon="9.645548">
<ele>26.885564</ele>
<time>2026-07-16T11:26:51.000Z</time>
</trkpt>
<trkpt lat="57.264172" lon="9.645680">
<ele>26.764732</ele>
<time>2026-07-16T11:26:52.000Z</time>
</trkpt>
<trkpt lat="57.264172" lon="9.645811">
<ele>26.644815</ele>
<time>2026-07-16T11:26:53.000Z</time>
</trkpt>
<trkpt lat="57.264172" lon="9.645944">
<ele>26.523068</ele>
<time>2026-07-16T11:26:54.000Z</time>
</trkpt>
<trkpt lat="57.264172" lon="9.646073">
<ele>26.404982</ele>
<time>2026-07-16T11:26:55.000Z</time>
</trkpt>
<trkpt lat="57.264172" lon="9.646204">
<ele>26.285065</ele>
<time>2026-07-16T11:26:56.000Z</time>
</trkpt>
<trkpt lat="57.264172" lon="9.646337">
<ele>26.163317</ele>
<time>2026-07-16T11:26:57.000Z</time>
</trkpt>
<trkpt lat="57.264172" lon="9.646461">
<ele>26.049808</ele>
<time>2026-07-16T11:26:58.000Z</time>
</trkpt>
<trkpt lat="57.264168" lon="9.646606">
<ele>25.916903</ele>
<time>2026-07-16T11:26:59.000Z</time>
</trkpt>
<trkpt lat="57.264160" lon="9.646749">
<ele>25.785303</ele>
<time>2026-07-16T11:27:00.000Z</time>
</trkpt>
<trkpt lat="57.264160" lon="9.646883">
<ele>25.662640</ele>
<time>2026-07-16T11:27:01.000Z</time>
</trkpt>
<trkpt lat="57.264156" lon="9.647019">
<ele>25.537962</ele>
<time>2026-07-16T11:27:02.000Z</time>
</trkpt>
<trkpt lat="57.264153" lon="9.647150">
<ele>25.417938</ele>
<time>2026-07-16T11:27:03.000Z</time>
</trkpt>
<trkpt lat="57.264149" lon="9.647287">
<ele>25.292346</ele>
<time>2026-07-16T11:27:04.000Z</time>
</trkpt>
<trkpt lat="57.264145" lon="9.647424">
<ele>25.166754</ele>
<time>2026-07-16T11:27:05.000Z</time>
</trkpt>
<trkpt lat="57.264141" lon="9.647559">
<ele>25.042990</ele>
<time>2026-07-16T11:27:06.000Z</time>
</trkpt>
<trkpt lat="57.264137" lon="9.647688">
<ele>24.924710</ele>
<time>2026-07-16T11:27:07.000Z</time>
</trkpt>
<trkpt lat="57.264133" lon="9.647826">
<ele>24.798204</ele>
<time>2026-07-16T11:27:08.000Z</time>
</trkpt>
<trkpt lat="57.264130" lon="9.647963">
<ele>24.672692</ele>
<time>2026-07-16T11:27:09.000Z</time>
</trkpt>
<trkpt lat="57.264126" lon="9.648103">
<ele>24.544358</ele>
<time>2026-07-16T11:27:10.000Z</time>
</trkpt>
<trkpt lat="57.264122" lon="9.648237">
<ele>24.421508</ele>
<time>2026-07-16T11:27:11.000Z</time>
</trkpt>
<trkpt lat="57.264118" lon="9.648378">
<ele>24.292259</ele>
<time>2026-07-16T11:27:12.000Z</time>
</trkpt>
<trkpt lat="57.264114" lon="9.648493">
<ele>24.186771</ele>
<time>2026-07-16T11:27:13.000Z</time>
</trkpt>
<trkpt lat="57.264111" lon="9.648656">
<ele>24.088562</ele>
<time>2026-07-16T11:27:14.000Z</time>
</trkpt>
<trkpt lat="57.264107" lon="9.648804">
<ele>24.019011</ele>
<time>2026-07-16T11:27:15.000Z</time>
</trkpt>
<trkpt lat="57.264103" lon="9.648946">
<ele>23.952273</ele>
<time>2026-07-16T11:27:16.000Z</time>
</trkpt>
<trkpt lat="57.264099" lon="9.649084">
<ele>23.887410</ele>
<time>2026-07-16T11:27:17.000Z</time>
</trkpt>
<trkpt lat="57.264095" lon="9.649217">
<ele>23.824890</ele>
<time>2026-07-16T11:27:18.000Z</time>
</trkpt>
<trkpt lat="57.264092" lon="9.649363">
<ele>23.756316</ele>
<time>2026-07-16T11:27:19.000Z</time>
</trkpt>
<trkpt lat="57.264088" lon="9.649498">
<ele>23.692859</ele>
<time>2026-07-16T11:27:20.000Z</time>
</trkpt>
<trkpt lat="57.264084" lon="9.649640">
<ele>23.626121</ele>
<time>2026-07-16T11:27:21.000Z</time>
</trkpt>
<trkpt lat="57.264080" lon="9.649759">
<ele>23.570161</ele>
<time>2026-07-16T11:27:22.000Z</time>
</trkpt>
<trkpt lat="57.264080" lon="9.649918">
<ele>23.495534</ele>
<time>2026-07-16T11:27:23.000Z</time>
</trkpt>
<trkpt lat="57.264076" lon="9.650056">
<ele>23.430671</ele>
<time>2026-07-16T11:27:24.000Z</time>
</trkpt>
<trkpt lat="57.264072" lon="9.650205">
<ele>23.360652</ele>
<time>2026-07-16T11:27:25.000Z</time>
</trkpt>
<trkpt lat="57.264069" lon="9.650351">
<ele>23.292078</ele>
<time>2026-07-16T11:27:26.000Z</time>
</trkpt>
<trkpt lat="57.264061" lon="9.650493">
<ele>23.225069</ele>
<time>2026-07-16T11:27:27.000Z</time>
</trkpt>
<trkpt lat="57.264053" lon="9.650632">
<ele>23.159461</ele>
<time>2026-07-16T11:27:28.000Z</time>
</trkpt>
<trkpt lat="57.264053" lon="9.650770">
<ele>23.094691</ele>
<time>2026-07-16T11:27:29.000Z</time>
</trkpt>
<trkpt lat="57.264050" lon="9.650905">
<ele>23.031276</ele>
<time>2026-07-16T11:27:30.000Z</time>
</trkpt>
<trkpt lat="57.264042" lon="9.651043">
<ele>22.966134</ele>
<time>2026-07-16T11:27:31.000Z</time>
</trkpt>
<trkpt lat="57.264038" lon="9.651168">
<ele>22.907363</ele>
<time>2026-07-16T11:27:32.000Z</time>
</trkpt>
<trkpt lat="57.264038" lon="9.651298">
<ele>22.846348</ele>
<time>2026-07-16T11:27:33.000Z</time>
</trkpt>
<trkpt lat="57.264030" lon="9.651426">
<ele>22.785871</ele>
<time>2026-07-16T11:27:34.000Z</time>
</trkpt>
<trkpt lat="57.264027" lon="9.651552">
<ele>22.726676</ele>
<time>2026-07-16T11:27:35.000Z</time>
</trkpt>
<trkpt lat="57.264023" lon="9.651675">
<ele>22.668841</ele>
<time>2026-07-16T11:27:36.000Z</time>
</trkpt>
<trkpt lat="57.264019" lon="9.651794">
<ele>22.612881</ele>
<time>2026-07-16T11:27:37.000Z</time>
</trkpt>
<trkpt lat="57.264015" lon="9.651913">
<ele>22.576070</ele>
<time>2026-07-16T11:27:38.000Z</time>
</trkpt>
<trkpt lat="57.264004" lon="9.652019">
<ele>22.565335</ele>
<time>2026-07-16T11:27:39.000Z</time>
</trkpt>
<trkpt lat="57.263992" lon="9.652121">
<ele>22.554953</ele>
<time>2026-07-16T11:27:40.000Z</time>
</trkpt>
<trkpt lat="57.263977" lon="9.652209">
<ele>22.545776</ele>
<time>2026-07-16T11:27:41.000Z</time>
</trkpt>
<trkpt lat="57.263962" lon="9.652292">
<ele>22.537072</ele>
<time>2026-07-16T11:27:42.000Z</time>
</trkpt>
<trkpt lat="57.263947" lon="9.652369">
<ele>22.528932</ele>
<time>2026-07-16T11:27:43.000Z</time>
</trkpt>
<trkpt lat="57.263924" lon="9.652437">
<ele>22.520954</ele>
<time>2026-07-16T11:27:44.000Z</time>
</trkpt>
<trkpt lat="57.263901" lon="9.652486">
<ele>22.514501</ele>
<time>2026-07-16T11:27:45.000Z</time>
</trkpt>
<trkpt lat="57.263874" lon="9.652519">
<ele>22.508548</ele>
<time>2026-07-16T11:27:46.000Z</time>
</trkpt>
<trkpt lat="57.263847" lon="9.652548">
<ele>22.502806</ele>
<time>2026-07-16T11:27:47.000Z</time>
</trkpt>
<trkpt lat="57.263813" lon="9.652581">
<ele>22.495743</ele>
<time>2026-07-16T11:27:48.000Z</time>
</trkpt>
<trkpt lat="57.263782" lon="9.652610">
<ele>22.489354</ele>
<time>2026-07-16T11:27:49.000Z</time>
</trkpt>
<trkpt lat="57.263748" lon="9.652651">
<ele>22.481888</ele>
<time>2026-07-16T11:27:50.000Z</time>
</trkpt>
<trkpt lat="57.263725" lon="9.652704">
<ele>22.475129</ele>
<time>2026-07-16T11:27:51.000Z</time>
</trkpt>
<trkpt lat="57.263714" lon="9.652771">
<ele>22.468165</ele>
<time>2026-07-16T11:27:52.000Z</time>
</trkpt>
<trkpt lat="57.263721" lon="9.652843">
<ele>22.460889</ele>
<time>2026-07-16T11:27:53.000Z</time>
</trkpt>
<trkpt lat="57.263733" lon="9.652918">
<ele>22.453110</ele>
<time>2026-07-16T11:27:54.000Z</time>
</trkpt>
<trkpt lat="57.263763" lon="9.652980">
<ele>22.444835</ele>
<time>2026-07-16T11:27:55.000Z</time>
</trkpt>
<trkpt lat="57.263805" lon="9.653031">
<ele>22.435594</ele>
<time>2026-07-16T11:27:56.000Z</time>
</trkpt>
<trkpt lat="57.263847" lon="9.653080">
<ele>22.426460</ele>
<time>2026-07-16T11:27:57.000Z</time>
</trkpt>
<trkpt lat="57.263893" lon="9.653136">
<ele>22.416331</ele>
<time>2026-07-16T11:27:58.000Z</time>
</trkpt>
<trkpt lat="57.263931" lon="9.653194">
<ele>22.407269</ele>
<time>2026-07-16T11:27:59.000Z</time>
</trkpt>
<trkpt lat="57.263969" lon="9.653249">
<ele>22.398394</ele>
<time>2026-07-16T11:28:00.000Z</time>
</trkpt>
<trkpt lat="57.264015" lon="9.653307">
<ele>22.388154</ele>
<time>2026-07-16T11:28:01.000Z</time>
</trkpt>
<trkpt lat="57.264053" lon="9.653365">
<ele>22.379091</ele>
<time>2026-07-16T11:28:02.000Z</time>
</trkpt>
<trkpt lat="57.264088" lon="9.653420">
<ele>22.370644</ele>
<time>2026-07-16T11:28:03.000Z</time>
</trkpt>
<trkpt lat="57.264130" lon="9.653482">
<ele>22.360760</ele>
<time>2026-07-16T11:28:04.000Z</time>
</trkpt>
<trkpt lat="57.264168" lon="9.653543">
<ele>22.351505</ele>
<time>2026-07-16T11:28:05.000Z</time>
</trkpt>
<trkpt lat="57.264210" lon="9.653604">
<ele>22.341682</ele>
<time>2026-07-16T11:28:06.000Z</time>
</trkpt>
<trkpt lat="57.264248" lon="9.653662">
<ele>22.332620</ele>
<time>2026-07-16T11:28:07.000Z</time>
</trkpt>
<trkpt lat="57.264282" lon="9.653714">
<ele>22.324505</ele>
<time>2026-07-16T11:28:08.000Z</time>
</trkpt>
<trkpt lat="57.264324" lon="9.653770">
<ele>22.314982</ele>
<time>2026-07-16T11:28:09.000Z</time>
</trkpt>
<trkpt lat="57.264359" lon="9.653829">
<ele>22.306271</ele>
<time>2026-07-16T11:28:10.000Z</time>
</trkpt>
<trkpt lat="57.264397" lon="9.653884">
<ele>22.297396</ele>
<time>2026-07-16T11:28:11.000Z</time>
</trkpt>
<trkpt lat="57.264431" lon="9.653940">
<ele>22.289022</ele>
<time>2026-07-16T11:28:12.000Z</time>
</trkpt>
<trkpt lat="57.264465" lon="9.653992">
<ele>22.280907</ele>
<time>2026-07-16T11:28:13.000Z</time>
</trkpt>
<trkpt lat="57.264500" lon="9.654047">
<ele>22.272459</ele>
<time>2026-07-16T11:28:14.000Z</time>
</trkpt>
<trkpt lat="57.264534" lon="9.654098">
<ele>22.264407</ele>
<time>2026-07-16T11:28:15.000Z</time>
</trkpt>
<trkpt lat="57.264572" lon="9.654162">
<ele>22.254954</ele>
<time>2026-07-16T11:28:16.000Z</time>
</trkpt>
<trkpt lat="57.264618" lon="9.654231">
<ele>22.246997</ele>
<time>2026-07-16T11:28:17.000Z</time>
</trkpt>
<trkpt lat="57.264656" lon="9.654302">
<ele>22.241658</ele>
<time>2026-07-16T11:28:18.000Z</time>
</trkpt>
<trkpt lat="57.264698" lon="9.654370">
<ele>22.236141</ele>
<time>2026-07-16T11:28:19.000Z</time>
</trkpt>
<trkpt lat="57.264740" lon="9.654437">
<ele>22.230659</ele>
<time>2026-07-16T11:28:20.000Z</time>
</trkpt>
<trkpt lat="57.264782" lon="9.654507">
<ele>22.225071</ele>
<time>2026-07-16T11:28:21.000Z</time>
</trkpt>
<trkpt lat="57.264828" lon="9.654580">
<ele>22.219080</ele>
<time>2026-07-16T11:28:22.000Z</time>
</trkpt>
<trkpt lat="57.264870" lon="9.654649">
<ele>22.213527</ele>
<time>2026-07-16T11:28:23.000Z</time>
</trkpt>
<trkpt lat="57.264919" lon="9.654725">
<ele>22.207207</ele>
<time>2026-07-16T11:28:24.000Z</time>
</trkpt>
<trkpt lat="57.264961" lon="9.654799">
<ele>22.201473</ele>
<time>2026-07-16T11:28:25.000Z</time>
</trkpt>
<trkpt lat="57.265003" lon="9.654865">
<ele>22.196026</ele>
<time>2026-07-16T11:28:26.000Z</time>
</trkpt>
<trkpt lat="57.265049" lon="9.654935">
<ele>22.190138</ele>
<time>2026-07-16T11:28:27.000Z</time>
</trkpt>
<trkpt lat="57.265095" lon="9.655008">
<ele>22.184147</ele>
<time>2026-07-16T11:28:28.000Z</time>
</trkpt>
<trkpt lat="57.265141" lon="9.655078">
<ele>22.178260</ele>
<time>2026-07-16T11:28:29.000Z</time>
</trkpt>
<trkpt lat="57.265186" lon="9.655155">
<ele>22.172200</ele>
<time>2026-07-16T11:28:30.000Z</time>
</trkpt>
<trkpt lat="57.265228" lon="9.655230">
<ele>22.166430</ele>
<time>2026-07-16T11:28:31.000Z</time>
</trkpt>
<trkpt lat="57.265278" lon="9.655303">
<ele>22.160134</ele>
<time>2026-07-16T11:28:32.000Z</time>
</trkpt>
<trkpt lat="57.265324" lon="9.655371">
<ele>22.154313</ele>
<time>2026-07-16T11:28:33.000Z</time>
</trkpt>
<trkpt lat="57.265366" lon="9.655442">
<ele>22.148689</ele>
<time>2026-07-16T11:28:34.000Z</time>
</trkpt>
<trkpt lat="57.265411" lon="9.655519">
<ele>22.142630</ele>
<time>2026-07-16T11:28:35.000Z</time>
</trkpt>
<trkpt lat="57.265453" lon="9.655597">
<ele>22.136747</ele>
<time>2026-07-16T11:28:36.000Z</time>
</trkpt>
<trkpt lat="57.265499" lon="9.655674">
<ele>22.130615</ele>
<time>2026-07-16T11:28:37.000Z</time>
</trkpt>
<trkpt lat="57.265541" lon="9.655751">
<ele>22.124770</ele>
<time>2026-07-16T11:28:38.000Z</time>
</trkpt>
<trkpt lat="57.265575" lon="9.655818">
<ele>22.119859</ele>
<time>2026-07-16T11:28:39.000Z</time>
</trkpt>
<trkpt lat="57.265617" lon="9.655910">
<ele>22.113425</ele>
<time>2026-07-16T11:28:40.000Z</time>
</trkpt>
<trkpt lat="57.265655" lon="9.655993">
<ele>22.107612</ele>
<time>2026-07-16T11:28:41.000Z</time>
</trkpt>
<trkpt lat="57.265694" lon="9.656089">
<ele>22.101195</ele>
<time>2026-07-16T11:28:42.000Z</time>
</trkpt>
<trkpt lat="57.265732" lon="9.656182">
<ele>22.094965</ele>
<time>2026-07-16T11:28:43.000Z</time>
</trkpt>
<trkpt lat="57.265770" lon="9.656275">
<ele>22.088736</ele>
<time>2026-07-16T11:28:44.000Z</time>
</trkpt>
<trkpt lat="57.265808" lon="9.656364">
<ele>22.082675</ele>
<time>2026-07-16T11:28:45.000Z</time>
</trkpt>
<trkpt lat="57.265842" lon="9.656459">
<ele>22.076587</ele>
<time>2026-07-16T11:28:46.000Z</time>
</trkpt>
<trkpt lat="57.265877" lon="9.656556">
<ele>22.106131</ele>
<time>2026-07-16T11:28:47.000Z</time>
</trkpt>
<trkpt lat="57.265907" lon="9.656656">
<ele>22.195624</ele>
<time>2026-07-16T11:28:48.000Z</time>
</trkpt>
<trkpt lat="57.265938" lon="9.656753">
<ele>22.283799</ele>
<time>2026-07-16T11:28:49.000Z</time>
</trkpt>
<trkpt lat="57.265968" lon="9.656854">
<ele>22.373977</ele>
<time>2026-07-16T11:28:50.000Z</time>
</trkpt>
<trkpt lat="57.266003" lon="9.656948">
<ele>22.463289</ele>
<time>2026-07-16T11:28:51.000Z</time>
</trkpt>
<trkpt lat="57.266033" lon="9.657042">
<ele>22.548707</ele>
<time>2026-07-16T11:28:52.000Z</time>
</trkpt>
<trkpt lat="57.266068" lon="9.657134">
<ele>22.636735</ele>
<time>2026-07-16T11:28:53.000Z</time>
</trkpt>
<trkpt lat="57.266098" lon="9.657221">
<ele>22.717483</ele>
<time>2026-07-16T11:28:54.000Z</time>
</trkpt>
<trkpt lat="57.266125" lon="9.657317">
<ele>22.802163</ele>
<time>2026-07-16T11:28:55.000Z</time>
</trkpt>
<trkpt lat="57.266159" lon="9.657411">
<ele>22.890662</ele>
<time>2026-07-16T11:28:56.000Z</time>
</trkpt>
<trkpt lat="57.266193" lon="9.657507">
<ele>22.980468</ele>
<time>2026-07-16T11:28:57.000Z</time>
</trkpt>
<trkpt lat="57.266224" lon="9.657603">
<ele>23.067969</ele>
<time>2026-07-16T11:28:58.000Z</time>
</trkpt>
<trkpt lat="57.266258" lon="9.657697">
<ele>23.156469</ele>
<time>2026-07-16T11:28:59.000Z</time>
</trkpt>
<trkpt lat="57.266293" lon="9.657789">
<ele>23.244497</ele>
<time>2026-07-16T11:29:00.000Z</time>
</trkpt>
<trkpt lat="57.266331" lon="9.657880">
<ele>23.334472</ele>
<time>2026-07-16T11:29:01.000Z</time>
</trkpt>
<trkpt lat="57.266369" lon="9.657964">
<ele>23.420177</ele>
<time>2026-07-16T11:29:02.000Z</time>
</trkpt>
<trkpt lat="57.266399" lon="9.658030">
<ele>23.487649</ele>
<time>2026-07-16T11:29:03.000Z</time>
</trkpt>
<trkpt lat="57.266441" lon="9.658114">
<ele>23.577178</ele>
<time>2026-07-16T11:29:04.000Z</time>
</trkpt>
<trkpt lat="57.266476" lon="9.658180">
<ele>23.649519</ele>
<time>2026-07-16T11:29:05.000Z</time>
</trkpt>
<trkpt lat="57.266521" lon="9.658263">
<ele>23.741497</ele>
<time>2026-07-16T11:29:06.000Z</time>
</trkpt>
<trkpt lat="57.266563" lon="9.658334">
<ele>23.823847</ele>
<time>2026-07-16T11:29:07.000Z</time>
</trkpt>
<trkpt lat="57.266605" lon="9.658398">
<ele>23.902605</ele>
<time>2026-07-16T11:29:08.000Z</time>
</trkpt>
<trkpt lat="57.266644" lon="9.658462">
<ele>23.978063</ele>
<time>2026-07-16T11:29:09.000Z</time>
</trkpt>
<trkpt lat="57.266682" lon="9.658526">
<ele>24.052444</ele>
<time>2026-07-16T11:29:10.000Z</time>
</trkpt>
<trkpt lat="57.266720" lon="9.658589">
<ele>24.126301</ele>
<time>2026-07-16T11:29:11.000Z</time>
</trkpt>
<trkpt lat="57.266754" lon="9.658648">
<ele>24.193775</ele>
<time>2026-07-16T11:29:12.000Z</time>
</trkpt>
<trkpt lat="57.266788" lon="9.658705">
<ele>24.260189</ele>
<time>2026-07-16T11:29:13.000Z</time>
</trkpt>
<trkpt lat="57.266823" lon="9.658760">
<ele>24.326657</ele>
<time>2026-07-16T11:29:14.000Z</time>
</trkpt>
<trkpt lat="57.266853" lon="9.658815">
<ele>24.387791</ele>
<time>2026-07-16T11:29:15.000Z</time>
</trkpt>
<trkpt lat="57.266884" lon="9.658869">
<ele>24.449422</ele>
<time>2026-07-16T11:29:16.000Z</time>
</trkpt>
<trkpt lat="57.266914" lon="9.658924">
<ele>24.510556</ele>
<time>2026-07-16T11:29:17.000Z</time>
</trkpt>
<trkpt lat="57.266945" lon="9.658979">
<ele>24.572727</ele>
<time>2026-07-16T11:29:18.000Z</time>
</trkpt>
<trkpt lat="57.266975" lon="9.659032">
<ele>24.632769</ele>
<time>2026-07-16T11:29:19.000Z</time>
</trkpt>
<trkpt lat="57.267002" lon="9.659078">
<ele>24.685154</ele>
<time>2026-07-16T11:29:20.000Z</time>
</trkpt>
<trkpt lat="57.267033" lon="9.659127">
<ele>24.739895</ele>
<time>2026-07-16T11:29:21.000Z</time>
</trkpt>
<trkpt lat="57.267059" lon="9.659167">
<ele>24.785293</ele>
<time>2026-07-16T11:29:22.000Z</time>
</trkpt>
<trkpt lat="57.267078" lon="9.659198">
<ele>24.819304</ele>
<time>2026-07-16T11:29:23.000Z</time>
</trkpt>
<trkpt lat="57.267101" lon="9.659222">
<ele>24.854754</ele>
<time>2026-07-16T11:29:24.000Z</time>
</trkpt>
<trkpt lat="57.267120" lon="9.659245">
<ele>24.885236</ele>
<time>2026-07-16T11:29:25.000Z</time>
</trkpt>
<trkpt lat="57.267132" lon="9.659272">
<ele>24.910604</ele>
<time>2026-07-16T11:29:26.000Z</time>
</trkpt>
<trkpt lat="57.267151" lon="9.659289">
<ele>24.938936</ele>
<time>2026-07-16T11:29:27.000Z</time>
</trkpt>
<trkpt lat="57.267166" lon="9.659297">
<ele>24.959892</ele>
<time>2026-07-16T11:29:28.000Z</time>
</trkpt>
<trkpt lat="57.267170" lon="9.659306">
<ele>24.968348</ele>
<time>2026-07-16T11:29:29.000Z</time>
</trkpt>
<trkpt lat="57.267185" lon="9.659314">
<ele>24.989304</ele>
<time>2026-07-16T11:29:30.000Z</time>
</trkpt>
<trkpt lat="57.267200" lon="9.659313">
<ele>25.009452</ele>
<time>2026-07-16T11:29:31.000Z</time>
</trkpt>
<trkpt lat="57.267212" lon="9.659320">
<ele>25.026342</ele>
<time>2026-07-16T11:29:39.000Z</time>
</trkpt>
<trkpt lat="57.267250" lon="9.659307">
<ele>25.078216</ele>
<time>2026-07-16T11:29:40.000Z</time>
</trkpt>
<trkpt lat="57.267281" lon="9.659283">
<ele>25.123328</ele>
<time>2026-07-16T11:29:41.000Z</time>
</trkpt>
<trkpt lat="57.267300" lon="9.659258">
<ele>25.154629</ele>
<time>2026-07-16T11:29:42.000Z</time>
</trkpt>
<trkpt lat="57.267323" lon="9.659235">
<ele>25.189727</ele>
<time>2026-07-16T11:29:43.000Z</time>
</trkpt>
<trkpt lat="57.267345" lon="9.659219">
<ele>25.221460</ele>
<time>2026-07-16T11:29:44.000Z</time>
</trkpt>
<trkpt lat="57.267368" lon="9.659195">
<ele>25.256909</ele>
<time>2026-07-16T11:29:45.000Z</time>
</trkpt>
<trkpt lat="57.267391" lon="9.659173">
<ele>25.291668</ele>
<time>2026-07-16T11:29:46.000Z</time>
</trkpt>
<trkpt lat="57.267410" lon="9.659160">
<ele>25.318862</ele>
<time>2026-07-16T11:29:47.000Z</time>
</trkpt>
<trkpt lat="57.267429" lon="9.659151">
<ele>25.345190</ele>
<time>2026-07-16T11:29:48.000Z</time>
</trkpt>
<trkpt lat="57.267464" lon="9.659139">
<ele>25.392972</ele>
<time>2026-07-16T11:29:49.000Z</time>
</trkpt>
<trkpt lat="57.267494" lon="9.659129">
<ele>25.433891</ele>
<time>2026-07-16T11:29:50.000Z</time>
</trkpt>
<trkpt lat="57.267517" lon="9.659121">
<ele>25.465306</ele>
<time>2026-07-16T11:29:51.000Z</time>
</trkpt>
<trkpt lat="57.267544" lon="9.659119">
<ele>25.501578</ele>
<time>2026-07-16T11:29:52.000Z</time>
</trkpt>
<trkpt lat="57.267571" lon="9.659117">
<ele>25.537850</ele>
<time>2026-07-16T11:29:53.000Z</time>
</trkpt>
<trkpt lat="57.267605" lon="9.659114">
<ele>25.583542</ele>
<time>2026-07-16T11:29:54.000Z</time>
</trkpt>
<trkpt lat="57.267624" lon="9.659109">
<ele>25.609303</ele>
<time>2026-07-16T11:29:55.000Z</time>
</trkpt>
<trkpt lat="57.267658" lon="9.659102">
<ele>25.655225</ele>
<time>2026-07-16T11:29:56.000Z</time>
</trkpt>
<trkpt lat="57.267696" lon="9.659100">
<ele>25.706254</ele>
<time>2026-07-16T11:29:57.000Z</time>
</trkpt>
<trkpt lat="57.267723" lon="9.659100">
<ele>25.742497</ele>
<time>2026-07-16T11:29:58.000Z</time>
</trkpt>
<trkpt lat="57.267765" lon="9.659094">
<ele>25.799044</ele>
<time>2026-07-16T11:29:59.000Z</time>
</trkpt>
<trkpt lat="57.267799" lon="9.659095">
<ele>25.844689</ele>
<time>2026-07-16T11:30:00.000Z</time>
</trkpt>
<trkpt lat="57.267849" lon="9.659097">
<ele>25.911821</ele>
<time>2026-07-16T11:30:01.000Z</time>
</trkpt>
<trkpt lat="57.267895" lon="9.659099">
<ele>25.973586</ele>
<time>2026-07-16T11:30:02.000Z</time>
</trkpt>
<trkpt lat="57.267944" lon="9.659102">
<ele>26.039397</ele>
<time>2026-07-16T11:30:03.000Z</time>
</trkpt>
<trkpt lat="57.267982" lon="9.659106">
<ele>26.090488</ele>
<time>2026-07-16T11:30:04.000Z</time>
</trkpt>
<trkpt lat="57.268032" lon="9.659111">
<ele>26.157703</ele>
<time>2026-07-16T11:30:05.000Z</time>
</trkpt>
<trkpt lat="57.268074" lon="9.659115">
<ele>26.214156</ele>
<time>2026-07-16T11:30:06.000Z</time>
</trkpt>
<trkpt lat="57.268143" lon="9.659124">
<ele>26.307007</ele>
<time>2026-07-16T11:30:07.000Z</time>
</trkpt>
<trkpt lat="57.268196" lon="9.659134">
<ele>26.378521</ele>
<time>2026-07-16T11:30:08.000Z</time>
</trkpt>
<trkpt lat="57.268246" lon="9.659139">
<ele>26.445736</ele>
<time>2026-07-16T11:30:09.000Z</time>
</trkpt>
<trkpt lat="57.268295" lon="9.659150">
<ele>26.511993</ele>
<time>2026-07-16T11:30:10.000Z</time>
</trkpt>
<trkpt lat="57.268345" lon="9.659166">
<ele>26.580107</ele>
<time>2026-07-16T11:30:11.000Z</time>
</trkpt>
<trkpt lat="57.268391" lon="9.659187">
<ele>26.643708</ele>
<time>2026-07-16T11:30:12.000Z</time>
</trkpt>
<trkpt lat="57.268433" lon="9.659209">
<ele>26.702304</ele>
<time>2026-07-16T11:30:13.000Z</time>
</trkpt>
<trkpt lat="57.268478" lon="9.659223">
<ele>26.763558</ele>
<time>2026-07-16T11:30:14.000Z</time>
</trkpt>
<trkpt lat="57.268520" lon="9.659234">
<ele>26.820499</ele>
<time>2026-07-16T11:30:15.000Z</time>
</trkpt>
<trkpt lat="57.268562" lon="9.659244">
<ele>26.877342</ele>
<time>2026-07-16T11:30:16.000Z</time>
</trkpt>
<trkpt lat="57.268600" lon="9.659260">
<ele>26.929656</ele>
<time>2026-07-16T11:30:17.000Z</time>
</trkpt>
<trkpt lat="57.268650" lon="9.659280">
<ele>26.998325</ele>
<time>2026-07-16T11:30:18.000Z</time>
</trkpt>
<trkpt lat="57.268707" lon="9.659304">
<ele>27.076796</ele>
<time>2026-07-16T11:30:19.000Z</time>
</trkpt>
<trkpt lat="57.268761" lon="9.659328">
<ele>27.103358</ele>
<time>2026-07-16T11:30:20.000Z</time>
</trkpt>
<trkpt lat="57.268826" lon="9.659350">
<ele>27.122637</ele>
<time>2026-07-16T11:30:21.000Z</time>
</trkpt>
<trkpt lat="57.268894" lon="9.659374">
<ele>27.142833</ele>
<time>2026-07-16T11:30:22.000Z</time>
</trkpt>
<trkpt lat="57.268951" lon="9.659392">
<ele>27.159704</ele>
<time>2026-07-16T11:30:23.000Z</time>
</trkpt>
<trkpt lat="57.269012" lon="9.659417">
<ele>27.177932</ele>
<time>2026-07-16T11:30:24.000Z</time>
</trkpt>
<trkpt lat="57.269081" lon="9.659443">
<ele>27.198476</ele>
<time>2026-07-16T11:30:25.000Z</time>
</trkpt>
<trkpt lat="57.269150" lon="9.659468">
<ele>27.218989</ele>
<time>2026-07-16T11:30:26.000Z</time>
</trkpt>
<trkpt lat="57.269215" lon="9.659502">
<ele>27.238696</ele>
<time>2026-07-16T11:30:27.000Z</time>
</trkpt>
<trkpt lat="57.269283" lon="9.659532">
<ele>27.259092</ele>
<time>2026-07-16T11:30:28.000Z</time>
</trkpt>
<trkpt lat="57.269348" lon="9.659560">
<ele>27.278563</ele>
<time>2026-07-16T11:30:29.000Z</time>
</trkpt>
<trkpt lat="57.269409" lon="9.659587">
<ele>27.296862</ele>
<time>2026-07-16T11:30:30.000Z</time>
</trkpt>
<trkpt lat="57.269474" lon="9.659614">
<ele>27.316298</ele>
<time>2026-07-16T11:30:31.000Z</time>
</trkpt>
<trkpt lat="57.269539" lon="9.659639">
<ele>27.335667</ele>
<time>2026-07-16T11:30:32.000Z</time>
</trkpt>
<trkpt lat="57.269600" lon="9.659658">
<ele>27.353714</ele>
<time>2026-07-16T11:30:33.000Z</time>
</trkpt>
<trkpt lat="57.269657" lon="9.659677">
<ele>27.370612</ele>
<time>2026-07-16T11:30:34.000Z</time>
</trkpt>
<trkpt lat="57.269714" lon="9.659698">
<ele>27.387568</ele>
<time>2026-07-16T11:30:35.000Z</time>
</trkpt>
<trkpt lat="57.269772" lon="9.659722">
<ele>27.404908</ele>
<time>2026-07-16T11:30:36.000Z</time>
</trkpt>
<trkpt lat="57.269825" lon="9.659740">
<ele>27.420629</ele>
<time>2026-07-16T11:30:37.000Z</time>
</trkpt>
<trkpt lat="57.269878" lon="9.659759">
<ele>27.436379</ele>
<time>2026-07-16T11:30:38.000Z</time>
</trkpt>
<trkpt lat="57.269932" lon="9.659778">
<ele>27.452416</ele>
<time>2026-07-16T11:30:39.000Z</time>
</trkpt>
<trkpt lat="57.269989" lon="9.659797">
<ele>27.469314</ele>
<time>2026-07-16T11:30:40.000Z</time>
</trkpt>
<trkpt lat="57.270046" lon="9.659816">
<ele>27.486211</ele>
<time>2026-07-16T11:30:41.000Z</time>
</trkpt>
<trkpt lat="57.270100" lon="9.659837">
<ele>27.502310</ele>
<time>2026-07-16T11:30:42.000Z</time>
</trkpt>
<trkpt lat="57.270153" lon="9.659856">
<ele>27.518060</ele>
<time>2026-07-16T11:30:43.000Z</time>
</trkpt>
<trkpt lat="57.270206" lon="9.659877">
<ele>27.533874</ele>
<time>2026-07-16T11:30:44.000Z</time>
</trkpt>
<trkpt lat="57.270252" lon="9.659895">
<ele>27.547591</ele>
<time>2026-07-16T11:30:45.000Z</time>
</trkpt>
<trkpt lat="57.270309" lon="9.659920">
<ele>27.564682</ele>
<time>2026-07-16T11:30:46.000Z</time>
</trkpt>
<trkpt lat="57.270359" lon="9.659944">
<ele>27.579753</ele>
<time>2026-07-16T11:30:47.000Z</time>
</trkpt>
<trkpt lat="57.270412" lon="9.659966">
<ele>27.595600</ele>
<time>2026-07-16T11:30:48.000Z</time>
</trkpt>
<trkpt lat="57.270470" lon="9.659990">
<ele>27.612939</ele>
<time>2026-07-16T11:30:49.000Z</time>
</trkpt>
<trkpt lat="57.270523" lon="9.660012">
<ele>27.621979</ele>
<time>2026-07-16T11:30:50.000Z</time>
</trkpt>
<trkpt lat="57.270577" lon="9.660034">
<ele>27.630270</ele>
<time>2026-07-16T11:30:51.000Z</time>
</trkpt>
<trkpt lat="57.270630" lon="9.660055">
<ele>27.638397</ele>
<time>2026-07-16T11:30:52.000Z</time>
</trkpt>
<trkpt lat="57.270679" lon="9.660069">
<ele>27.645831</ele>
<time>2026-07-16T11:30:53.000Z</time>
</trkpt>
<trkpt lat="57.270729" lon="9.660089">
<ele>27.653502</ele>
<time>2026-07-16T11:30:54.000Z</time>
</trkpt>
<trkpt lat="57.270782" lon="9.660109">
<ele>27.661613</ele>
<time>2026-07-16T11:30:55.000Z</time>
</trkpt>
<trkpt lat="57.270836" lon="9.660134">
<ele>27.669959</ele>
<time>2026-07-16T11:30:56.000Z</time>
</trkpt>
<trkpt lat="57.270889" lon="9.660159">
<ele>27.678161</ele>
<time>2026-07-16T11:30:57.000Z</time>
</trkpt>
<trkpt lat="57.270943" lon="9.660184">
<ele>27.686507</ele>
<time>2026-07-16T11:30:58.000Z</time>
</trkpt>
<trkpt lat="57.270996" lon="9.660213">
<ele>27.694795</ele>
<time>2026-07-16T11:30:59.000Z</time>
</trkpt>
<trkpt lat="57.271042" lon="9.660234">
<ele>27.701899</ele>
<time>2026-07-16T11:31:00.000Z</time>
</trkpt>
<trkpt lat="57.271103" lon="9.660257">
<ele>27.711234</ele>
<time>2026-07-16T11:31:01.000Z</time>
</trkpt>
<trkpt lat="57.271153" lon="9.660276">
<ele>27.718888</ele>
<time>2026-07-16T11:31:02.000Z</time>
</trkpt>
<trkpt lat="57.271206" lon="9.660294">
<ele>27.726967</ele>
<time>2026-07-16T11:31:03.000Z</time>
</trkpt>
<trkpt lat="57.271259" lon="9.660316">
<ele>27.735112</ele>
<time>2026-07-16T11:31:04.000Z</time>
</trkpt>
<trkpt lat="57.271309" lon="9.660337">
<ele>27.742800</ele>
<time>2026-07-16T11:31:05.000Z</time>
</trkpt>
<trkpt lat="57.271362" lon="9.660357">
<ele>27.750911</ele>
<time>2026-07-16T11:31:06.000Z</time>
</trkpt>
<trkpt lat="57.271416" lon="9.660378">
<ele>27.759185</ele>
<time>2026-07-16T11:31:07.000Z</time>
</trkpt>
<trkpt lat="57.271465" lon="9.660397">
<ele>27.766692</ele>
<time>2026-07-16T11:31:08.000Z</time>
</trkpt>
<trkpt lat="57.271519" lon="9.660413">
<ele>27.774892</ele>
<time>2026-07-16T11:31:09.000Z</time>
</trkpt>
<trkpt lat="57.271568" lon="9.660437">
<ele>27.782492</ele>
<time>2026-07-16T11:31:10.000Z</time>
</trkpt>
<trkpt lat="57.271622" lon="9.660462">
<ele>27.790839</ele>
<time>2026-07-16T11:31:11.000Z</time>
</trkpt>
<trkpt lat="57.271671" lon="9.660485">
<ele>27.798419</ele>
<time>2026-07-16T11:31:12.000Z</time>
</trkpt>
<trkpt lat="57.271732" lon="9.660515">
<ele>27.807883</ele>
<time>2026-07-16T11:31:13.000Z</time>
</trkpt>
<trkpt lat="57.271786" lon="9.660539">
<ele>27.816211</ele>
<time>2026-07-16T11:31:14.000Z</time>
</trkpt>
<trkpt lat="57.271843" lon="9.660566">
<ele>27.825033</ele>
<time>2026-07-16T11:31:15.000Z</time>
</trkpt>
<trkpt lat="57.271904" lon="9.660592">
<ele>27.834419</ele>
<time>2026-07-16T11:31:16.000Z</time>
</trkpt>
<trkpt lat="57.271961" lon="9.660616">
<ele>27.843185</ele>
<time>2026-07-16T11:31:17.000Z</time>
</trkpt>
<trkpt lat="57.272018" lon="9.660642">
<ele>27.851988</ele>
<time>2026-07-16T11:31:18.000Z</time>
</trkpt>
<trkpt lat="57.272079" lon="9.660669">
<ele>27.861392</ele>
<time>2026-07-16T11:31:19.000Z</time>
</trkpt>
<trkpt lat="57.272137" lon="9.660699">
<ele>27.870423</ele>
<time>2026-07-16T11:31:20.000Z</time>
</trkpt>
<trkpt lat="57.272194" lon="9.660726">
<ele>27.879245</ele>
<time>2026-07-16T11:31:21.000Z</time>
</trkpt>
<trkpt lat="57.272255" lon="9.660751">
<ele>27.880043</ele>
<time>2026-07-16T11:31:22.000Z</time>
</trkpt>
<trkpt lat="57.272312" lon="9.660780">
<ele>27.870557</ele>
<time>2026-07-16T11:31:23.000Z</time>
</trkpt>
<trkpt lat="57.272373" lon="9.660809">
<ele>27.860451</ele>
<time>2026-07-16T11:31:24.000Z</time>
</trkpt>
<trkpt lat="57.272430" lon="9.660838">
<ele>27.850965</ele>
<time>2026-07-16T11:31:25.000Z</time>
</trkpt>
<trkpt lat="57.272491" lon="9.660870">
<ele>27.840791</ele>
<time>2026-07-16T11:31:26.000Z</time>
</trkpt>
<trkpt lat="57.272552" lon="9.660901">
<ele>27.830640</ele>
<time>2026-07-16T11:31:27.000Z</time>
</trkpt>
<trkpt lat="57.272610" lon="9.660932">
<ele>27.820952</ele>
<time>2026-07-16T11:31:28.000Z</time>
</trkpt>
<trkpt lat="57.272671" lon="9.660965">
<ele>27.810754</ele>
<time>2026-07-16T11:31:29.000Z</time>
</trkpt>
<trkpt lat="57.272728" lon="9.660994">
<ele>27.801268</ele>
<time>2026-07-16T11:31:30.000Z</time>
</trkpt>
<trkpt lat="57.272793" lon="9.661028">
<ele>27.790429</ele>
<time>2026-07-16T11:31:31.000Z</time>
</trkpt>
<trkpt lat="57.272854" lon="9.661063">
<ele>27.780180</ele>
<time>2026-07-16T11:31:32.000Z</time>
</trkpt>
<trkpt lat="57.272911" lon="9.661095">
<ele>27.770622</ele>
<time>2026-07-16T11:31:33.000Z</time>
</trkpt>
<trkpt lat="57.272976" lon="9.661128">
<ele>27.759806</ele>
<time>2026-07-16T11:31:34.000Z</time>
</trkpt>
<trkpt lat="57.273037" lon="9.661161">
<ele>27.749608</ele>
<time>2026-07-16T11:31:35.000Z</time>
</trkpt>
<trkpt lat="57.273098" lon="9.661197">
<ele>27.739333</ele>
<time>2026-07-16T11:31:36.000Z</time>
</trkpt>
<trkpt lat="57.273163" lon="9.661234">
<ele>27.728421</ele>
<time>2026-07-16T11:31:37.000Z</time>
</trkpt>
<trkpt lat="57.273224" lon="9.661272">
<ele>27.718092</ele>
<time>2026-07-16T11:31:38.000Z</time>
</trkpt>
<trkpt lat="57.273285" lon="9.661308">
<ele>27.707818</ele>
<time>2026-07-16T11:31:39.000Z</time>
</trkpt>
<trkpt lat="57.273346" lon="9.661342">
<ele>27.697595</ele>
<time>2026-07-16T11:31:40.000Z</time>
</trkpt>
<trkpt lat="57.273407" lon="9.661374">
<ele>27.687421</ele>
<time>2026-07-16T11:31:41.000Z</time>
</trkpt>
<trkpt lat="57.273464" lon="9.661407">
<ele>27.677837</ele>
<time>2026-07-16T11:31:42.000Z</time>
</trkpt>
<trkpt lat="57.273521" lon="9.661439">
<ele>27.668278</ele>
<time>2026-07-16T11:31:43.000Z</time>
</trkpt>
<trkpt lat="57.273579" lon="9.661471">
<ele>27.658566</ele>
<time>2026-07-16T11:31:44.000Z</time>
</trkpt>
<trkpt lat="57.273636" lon="9.661502">
<ele>27.649033</ele>
<time>2026-07-16T11:31:45.000Z</time>
</trkpt>
<trkpt lat="57.273689" lon="9.661534">
<ele>27.640087</ele>
<time>2026-07-16T11:31:46.000Z</time>
</trkpt>
<trkpt lat="57.273746" lon="9.661566">
<ele>27.630528</ele>
<time>2026-07-16T11:31:47.000Z</time>
</trkpt>
<trkpt lat="57.273800" lon="9.661594">
<ele>27.621529</ele>
<time>2026-07-16T11:31:48.000Z</time>
</trkpt>
<trkpt lat="57.273853" lon="9.661626">
<ele>27.612583</ele>
<time>2026-07-16T11:31:49.000Z</time>
</trkpt>
<trkpt lat="57.273907" lon="9.661659">
<ele>27.603457</ele>
<time>2026-07-16T11:31:50.000Z</time>
</trkpt>
<trkpt lat="57.273964" lon="9.661691">
<ele>27.603385</ele>
<time>2026-07-16T11:31:51.000Z</time>
</trkpt>
<trkpt lat="57.274017" lon="9.661726">
<ele>27.638069</ele>
<time>2026-07-16T11:31:52.000Z</time>
</trkpt>
<trkpt lat="57.274071" lon="9.661756">
<ele>27.672818</ele>
<time>2026-07-16T11:31:53.000Z</time>
</trkpt>
<trkpt lat="57.274124" lon="9.661791">
<ele>27.707502</ele>
<time>2026-07-16T11:31:54.000Z</time>
</trkpt>
<trkpt lat="57.274174" lon="9.661821">
<ele>27.739898</ele>
<time>2026-07-16T11:31:55.000Z</time>
</trkpt>
<trkpt lat="57.274231" lon="9.661853">
<ele>27.776610</ele>
<time>2026-07-16T11:31:56.000Z</time>
</trkpt>
<trkpt lat="57.274284" lon="9.661881">
<ele>27.810581</ele>
<time>2026-07-16T11:31:57.000Z</time>
</trkpt>
<trkpt lat="57.274338" lon="9.661908">
<ele>27.845056</ele>
<time>2026-07-16T11:31:58.000Z</time>
</trkpt>
<trkpt lat="57.274391" lon="9.661936">
<ele>27.879027</ele>
<time>2026-07-16T11:31:59.000Z</time>
</trkpt>
<trkpt lat="57.274437" lon="9.661958">
<ele>27.908310</ele>
<time>2026-07-16T11:32:00.000Z</time>
</trkpt>
<trkpt lat="57.274498" lon="9.661990">
<ele>27.947387</ele>
<time>2026-07-16T11:32:01.000Z</time>
</trkpt>
<trkpt lat="57.274548" lon="9.662022">
<ele>27.979995</ele>
<time>2026-07-16T11:32:02.000Z</time>
</trkpt>
<trkpt lat="57.274601" lon="9.662052">
<ele>28.014155</ele>
<time>2026-07-16T11:32:03.000Z</time>
</trkpt>
<trkpt lat="57.274654" lon="9.662085">
<ele>28.048620</ele>
<time>2026-07-16T11:32:04.000Z</time>
</trkpt>
<trkpt lat="57.274696" lon="9.662114">
<ele>28.076250</ele>
<time>2026-07-16T11:32:05.000Z</time>
</trkpt>
<trkpt lat="57.274757" lon="9.662148">
<ele>28.115515</ele>
<time>2026-07-16T11:32:06.000Z</time>
</trkpt>
<trkpt lat="57.274811" lon="9.662176">
<ele>28.150078</ele>
<time>2026-07-16T11:32:07.000Z</time>
</trkpt>
<trkpt lat="57.274864" lon="9.662208">
<ele>28.184439</ele>
<time>2026-07-16T11:32:08.000Z</time>
</trkpt>
<trkpt lat="57.274914" lon="9.662239">
<ele>28.216939</ele>
<time>2026-07-16T11:32:09.000Z</time>
</trkpt>
<trkpt lat="57.274967" lon="9.662271">
<ele>28.251300</ele>
<time>2026-07-16T11:32:10.000Z</time>
</trkpt>
<trkpt lat="57.275021" lon="9.662305">
<ele>28.286456</ele>
<time>2026-07-16T11:32:11.000Z</time>
</trkpt>
<trkpt lat="57.275074" lon="9.662335">
<ele>28.320615</ele>
<time>2026-07-16T11:32:12.000Z</time>
</trkpt>
<trkpt lat="57.275124" lon="9.662369">
<ele>28.353447</ele>
<time>2026-07-16T11:32:13.000Z</time>
</trkpt>
<trkpt lat="57.275173" lon="9.662396">
<ele>28.384958</ele>
<time>2026-07-16T11:32:14.000Z</time>
</trkpt>
<trkpt lat="57.275230" lon="9.662429">
<ele>28.421768</ele>
<time>2026-07-16T11:32:15.000Z</time>
</trkpt>
<trkpt lat="57.275280" lon="9.662459">
<ele>28.454164</ele>
<time>2026-07-16T11:32:16.000Z</time>
</trkpt>
<trkpt lat="57.275333" lon="9.662493">
<ele>28.488737</ele>
<time>2026-07-16T11:32:17.000Z</time>
</trkpt>
<trkpt lat="57.275383" lon="9.662529">
<ele>28.521805</ele>
<time>2026-07-16T11:32:18.000Z</time>
</trkpt>
<trkpt lat="57.275433" lon="9.662570">
<ele>28.555512</ele>
<time>2026-07-16T11:32:19.000Z</time>
</trkpt>
<trkpt lat="57.275478" lon="9.662616">
<ele>28.587199</ele>
<time>2026-07-16T11:32:20.000Z</time>
</trkpt>
<trkpt lat="57.275517" lon="9.662667">
<ele>28.616635</ele>
<time>2026-07-16T11:32:21.000Z</time>
</trkpt>
<trkpt lat="57.275558" lon="9.662729">
<ele>28.649273</ele>
<time>2026-07-16T11:32:22.000Z</time>
</trkpt>
<trkpt lat="57.275597" lon="9.662798">
<ele>28.682533</ele>
<time>2026-07-16T11:32:23.000Z</time>
</trkpt>
<trkpt lat="57.275631" lon="9.662867">
<ele>28.701052</ele>
<time>2026-07-16T11:32:24.000Z</time>
</trkpt>
<trkpt lat="57.275669" lon="9.662935">
<ele>28.689327</ele>
<time>2026-07-16T11:32:25.000Z</time>
</trkpt>
<trkpt lat="57.275703" lon="9.663005">
<ele>28.678044</ele>
<time>2026-07-16T11:32:26.000Z</time>
</trkpt>
<trkpt lat="57.275738" lon="9.663068">
<ele>28.667214</ele>
<time>2026-07-16T11:32:27.000Z</time>
</trkpt>
<trkpt lat="57.275768" lon="9.663126">
<ele>28.657590</ele>
<time>2026-07-16T11:32:28.000Z</time>
</trkpt>
<trkpt lat="57.275795" lon="9.663184">
<ele>28.648413</ele>
<time>2026-07-16T11:32:29.000Z</time>
</trkpt>
<trkpt lat="57.275818" lon="9.663239">
<ele>28.640077</ele>
<time>2026-07-16T11:32:30.000Z</time>
</trkpt>
<trkpt lat="57.275845" lon="9.663281">
<ele>28.632253</ele>
<time>2026-07-16T11:32:31.000Z</time>
</trkpt>
<trkpt lat="57.275867" lon="9.663317">
<ele>28.625739</ele>
<time>2026-07-16T11:32:32.000Z</time>
</trkpt>
<trkpt lat="57.275890" lon="9.663333">
<ele>28.620290</ele>
<time>2026-07-16T11:32:33.000Z</time>
</trkpt>
<trkpt lat="57.275925" lon="9.663335">
<ele>28.612524</ele>
<time>2026-07-16T11:32:34.000Z</time>
</trkpt>
<trkpt lat="57.275951" lon="9.663315">
<ele>28.606279</ele>
<time>2026-07-16T11:32:35.000Z</time>
</trkpt>
<trkpt lat="57.275982" lon="9.663275">
<ele>28.597897</ele>
<time>2026-07-16T11:32:36.000Z</time>
</trkpt>
<trkpt lat="57.276009" lon="9.663224">
<ele>28.589338</ele>
<time>2026-07-16T11:32:37.000Z</time>
</trkpt>
<trkpt lat="57.276028" lon="9.663165">
<ele>28.581105</ele>
<time>2026-07-16T11:32:38.000Z</time>
</trkpt>
<trkpt lat="57.276047" lon="9.663108">
<ele>28.573077</ele>
<time>2026-07-16T11:32:39.000Z</time>
</trkpt>
<trkpt lat="57.276062" lon="9.663048">
<ele>28.565151</ele>
<time>2026-07-16T11:32:40.000Z</time>
</trkpt>
<trkpt lat="57.276081" lon="9.662988">
<ele>28.556815</ele>
<time>2026-07-16T11:32:41.000Z</time>
</trkpt>
<trkpt lat="57.276100" lon="9.662908">
<ele>28.546339</ele>
<time>2026-07-16T11:32:42.000Z</time>
</trkpt>
<trkpt lat="57.276123" lon="9.662831">
<ele>28.535792</ele>
<time>2026-07-16T11:32:43.000Z</time>
</trkpt>
<trkpt lat="57.276146" lon="9.662744">
<ele>28.524181</ele>
<time>2026-07-16T11:32:44.000Z</time>
</trkpt>
<trkpt lat="57.276161" lon="9.662658">
<ele>28.513347</ele>
<time>2026-07-16T11:32:45.000Z</time>
</trkpt>
<trkpt lat="57.276180" lon="9.662570">
<ele>28.501986</ele>
<time>2026-07-16T11:32:46.000Z</time>
</trkpt>
<trkpt lat="57.276192" lon="9.662475">
<ele>28.490290</ele>
<time>2026-07-16T11:32:47.000Z</time>
</trkpt>
<trkpt lat="57.276199" lon="9.662380">
<ele>28.478795</ele>
<time>2026-07-16T11:32:48.000Z</time>
</trkpt>
<trkpt lat="57.276211" lon="9.662282">
<ele>28.466749</ele>
<time>2026-07-16T11:32:49.000Z</time>
</trkpt>
<trkpt lat="57.276222" lon="9.662188">
<ele>28.455218</ele>
<time>2026-07-16T11:32:50.000Z</time>
</trkpt>
<trkpt lat="57.276230" lon="9.662095">
<ele>28.443928</ele>
<time>2026-07-16T11:32:51.000Z</time>
</trkpt>
<trkpt lat="57.276241" lon="9.661999">
<ele>28.432163</ele>
<time>2026-07-16T11:32:52.000Z</time>
</trkpt>
<trkpt lat="57.276253" lon="9.661901">
<ele>28.420116</ele>
<time>2026-07-16T11:32:53.000Z</time>
</trkpt>
<trkpt lat="57.276264" lon="9.661800">
<ele>28.407764</ele>
<time>2026-07-16T11:32:54.000Z</time>
</trkpt>
<trkpt lat="57.276272" lon="9.661695">
<ele>28.395051</ele>
<time>2026-07-16T11:32:55.000Z</time>
</trkpt>
<trkpt lat="57.276279" lon="9.661613">
<ele>28.385099</ele>
<time>2026-07-16T11:32:56.000Z</time>
</trkpt>
<trkpt lat="57.276295" lon="9.661493">
<ele>28.370281</ele>
<time>2026-07-16T11:32:57.000Z</time>
</trkpt>
<trkpt lat="57.276306" lon="9.661399">
<ele>28.358750</ele>
<time>2026-07-16T11:32:58.000Z</time>
</trkpt>
<trkpt lat="57.276321" lon="9.661287">
<ele>28.344917</ele>
<time>2026-07-16T11:32:59.000Z</time>
</trkpt>
<trkpt lat="57.276329" lon="9.661196">
<ele>28.333864</ele>
<time>2026-07-16T11:33:00.000Z</time>
</trkpt>
<trkpt lat="57.276344" lon="9.661086">
<ele>28.320263</ele>
<time>2026-07-16T11:33:01.000Z</time>
</trkpt>
<trkpt lat="57.276360" lon="9.660991">
<ele>28.308334</ele>
<time>2026-07-16T11:33:02.000Z</time>
</trkpt>
<trkpt lat="57.276375" lon="9.660886">
<ele>28.283022</ele>
<time>2026-07-16T11:33:03.000Z</time>
</trkpt>
<trkpt lat="57.276390" lon="9.660784">
<ele>28.255043</ele>
<time>2026-07-16T11:33:04.000Z</time>
</trkpt>
<trkpt lat="57.276405" lon="9.660683">
<ele>28.227319</ele>
<time>2026-07-16T11:33:05.000Z</time>
</trkpt>
<trkpt lat="57.276424" lon="9.660588">
<ele>28.200509</ele>
<time>2026-07-16T11:33:06.000Z</time>
</trkpt>
<trkpt lat="57.276451" lon="9.660499">
<ele>28.173496</ele>
<time>2026-07-16T11:33:07.000Z</time>
</trkpt>
<trkpt lat="57.276482" lon="9.660408">
<ele>28.145026</ele>
<time>2026-07-16T11:33:08.000Z</time>
</trkpt>
<trkpt lat="57.276508" lon="9.660324">
<ele>28.119406</ele>
<time>2026-07-16T11:33:09.000Z</time>
</trkpt>
<trkpt lat="57.276539" lon="9.660236">
<ele>28.091604</ele>
<time>2026-07-16T11:33:10.000Z</time>
</trkpt>
<trkpt lat="57.276573" lon="9.660154">
<ele>28.064251</ele>
<time>2026-07-16T11:33:11.000Z</time>
</trkpt>
<trkpt lat="57.276611" lon="9.660081">
<ele>28.037427</ele>
<time>2026-07-16T11:33:12.000Z</time>
</trkpt>
<trkpt lat="57.276649" lon="9.660005">
<ele>28.010026</ele>
<time>2026-07-16T11:33:13.000Z</time>
</trkpt>
<trkpt lat="57.276691" lon="9.659935">
<ele>27.982346</ele>
<time>2026-07-16T11:33:14.000Z</time>
</trkpt>
<trkpt lat="57.276733" lon="9.659865">
<ele>27.954666</ele>
<time>2026-07-16T11:33:15.000Z</time>
</trkpt>
<trkpt lat="57.276775" lon="9.659801">
<ele>27.928023</ele>
<time>2026-07-16T11:33:16.000Z</time>
</trkpt>
<trkpt lat="57.276817" lon="9.659739">
<ele>27.901714</ele>
<time>2026-07-16T11:33:17.000Z</time>
</trkpt>
<trkpt lat="57.276863" lon="9.659670">
<ele>27.872717</ele>
<time>2026-07-16T11:33:18.000Z</time>
</trkpt>
<trkpt lat="57.276909" lon="9.659602">
<ele>27.843886</ele>
<time>2026-07-16T11:33:19.000Z</time>
</trkpt>
<trkpt lat="57.276951" lon="9.659533">
<ele>27.816383</ele>
<time>2026-07-16T11:33:20.000Z</time>
</trkpt>
<trkpt lat="57.277000" lon="9.659465">
<ele>27.786390</ele>
<time>2026-07-16T11:33:21.000Z</time>
</trkpt>
<trkpt lat="57.277050" lon="9.659390">
<ele>27.754872</ele>
<time>2026-07-16T11:33:22.000Z</time>
</trkpt>
<trkpt lat="57.277096" lon="9.659308">
<ele>27.723594</ele>
<time>2026-07-16T11:33:23.000Z</time>
</trkpt>
<trkpt lat="57.277149" lon="9.659224">
<ele>27.689422</ele>
<time>2026-07-16T11:33:24.000Z</time>
</trkpt>
<trkpt lat="57.277199" lon="9.659135">
<ele>27.655447</ele>
<time>2026-07-16T11:33:25.000Z</time>
</trkpt>
<trkpt lat="57.277256" lon="9.659045">
<ele>27.618755</ele>
<time>2026-07-16T11:33:26.000Z</time>
</trkpt>
<trkpt lat="57.277313" lon="9.658960">
<ele>27.582907</ele>
<time>2026-07-16T11:33:27.000Z</time>
</trkpt>
<trkpt lat="57.277374" lon="9.658877">
<ele>27.545831</ele>
<time>2026-07-16T11:33:28.000Z</time>
</trkpt>
<trkpt lat="57.277428" lon="9.658794">
<ele>27.511455</ele>
<time>2026-07-16T11:33:29.000Z</time>
</trkpt>
<trkpt lat="57.277485" lon="9.658703">
<ele>27.474591</ele>
<time>2026-07-16T11:33:30.000Z</time>
</trkpt>
<trkpt lat="57.277538" lon="9.658619">
<ele>27.440419</ele>
<time>2026-07-16T11:33:31.000Z</time>
</trkpt>
<trkpt lat="57.277599" lon="9.658538">
<ele>27.460906</ele>
<time>2026-07-16T11:33:32.000Z</time>
</trkpt>
<trkpt lat="57.277660" lon="9.658468">
<ele>27.520801</ele>
<time>2026-07-16T11:33:33.000Z</time>
</trkpt>
<trkpt lat="57.277718" lon="9.658407">
<ele>27.576471</ele>
<time>2026-07-16T11:33:34.000Z</time>
</trkpt>
<trkpt lat="57.277782" lon="9.658360">
<ele>27.633926</ele>
<time>2026-07-16T11:33:35.000Z</time>
</trkpt>
<trkpt lat="57.277843" lon="9.658338">
<ele>27.685782</ele>
<time>2026-07-16T11:33:36.000Z</time>
</trkpt>
<trkpt lat="57.277912" lon="9.658342">
<ele>27.743384</ele>
<time>2026-07-16T11:33:37.000Z</time>
</trkpt>
<trkpt lat="57.277977" lon="9.658370">
<ele>27.799071</ele>
<time>2026-07-16T11:33:38.000Z</time>
</trkpt>
<trkpt lat="57.278042" lon="9.658406">
<ele>27.855685</ele>
<time>2026-07-16T11:33:39.000Z</time>
</trkpt>
<trkpt lat="57.278103" lon="9.658442">
<ele>27.909110</ele>
<time>2026-07-16T11:33:40.000Z</time>
</trkpt>
<trkpt lat="57.278168" lon="9.658485">
<ele>27.966710</ele>
<time>2026-07-16T11:33:41.000Z</time>
</trkpt>
<trkpt lat="57.278225" lon="9.658529">
<ele>28.018245</ele>
<time>2026-07-16T11:33:42.000Z</time>
</trkpt>
<trkpt lat="57.278282" lon="9.658576">
<ele>28.070316</ele>
<time>2026-07-16T11:33:43.000Z</time>
</trkpt>
<trkpt lat="57.278336" lon="9.658626">
<ele>28.120702</ele>
<time>2026-07-16T11:33:44.000Z</time>
</trkpt>
<trkpt lat="57.278385" lon="9.658681">
<ele>28.168524</ele>
<time>2026-07-16T11:33:45.000Z</time>
</trkpt>
<trkpt lat="57.278435" lon="9.658741">
<ele>28.218253</ele>
<time>2026-07-16T11:33:46.000Z</time>
</trkpt>
<trkpt lat="57.278488" lon="9.658793">
<ele>28.268310</ele>
<time>2026-07-16T11:33:47.000Z</time>
</trkpt>
<trkpt lat="57.278534" lon="9.658849">
<ele>28.314258</ele>
<time>2026-07-16T11:33:48.000Z</time>
</trkpt>
<trkpt lat="57.278583" lon="9.658911">
<ele>28.363792</ele>
<time>2026-07-16T11:33:49.000Z</time>
</trkpt>
<trkpt lat="57.278622" lon="9.658963">
<ele>28.403904</ele>
<time>2026-07-16T11:33:50.000Z</time>
</trkpt>
<trkpt lat="57.278675" lon="9.659037">
<ele>28.459309</ele>
<time>2026-07-16T11:33:51.000Z</time>
</trkpt>
<trkpt lat="57.278721" lon="9.659111">
<ele>28.510173</ele>
<time>2026-07-16T11:33:52.000Z</time>
</trkpt>
<trkpt lat="57.278763" lon="9.659183">
<ele>28.557951</ele>
<time>2026-07-16T11:33:53.000Z</time>
</trkpt>
<trkpt lat="57.278805" lon="9.659254">
<ele>28.605424</ele>
<time>2026-07-16T11:33:54.000Z</time>
</trkpt>
<trkpt lat="57.278843" lon="9.659321">
<ele>28.649225</ele>
<time>2026-07-16T11:33:55.000Z</time>
</trkpt>
<trkpt lat="57.278889" lon="9.659391">
<ele>28.698924</ele>
<time>2026-07-16T11:33:56.000Z</time>
</trkpt>
<trkpt lat="57.278934" lon="9.659461">
<ele>28.747981</ele>
<time>2026-07-16T11:33:57.000Z</time>
</trkpt>
<trkpt lat="57.278969" lon="9.659530">
<ele>28.790659</ele>
<time>2026-07-16T11:33:58.000Z</time>
</trkpt>
<trkpt lat="57.279011" lon="9.659602">
<ele>28.838437</ele>
<time>2026-07-16T11:33:59.000Z</time>
</trkpt>
<trkpt lat="57.279057" lon="9.659666">
<ele>28.886462</ele>
<time>2026-07-16T11:34:00.000Z</time>
</trkpt>
<trkpt lat="57.279102" lon="9.659733">
<ele>28.927772</ele>
<time>2026-07-16T11:34:01.000Z</time>
</trkpt>
<trkpt lat="57.279144" lon="9.659795">
<ele>28.938499</ele>
<time>2026-07-16T11:34:02.000Z</time>
</trkpt>
<trkpt lat="57.279186" lon="9.659858">
<ele>28.949294</ele>
<time>2026-07-16T11:34:03.000Z</time>
</trkpt>
<trkpt lat="57.279224" lon="9.659926">
<ele>28.959849</ele>
<time>2026-07-16T11:34:04.000Z</time>
</trkpt>
<trkpt lat="57.279266" lon="9.659995">
<ele>28.971064</ele>
<time>2026-07-16T11:34:05.000Z</time>
</trkpt>
<trkpt lat="57.279304" lon="9.660065">
<ele>28.981770</ele>
<time>2026-07-16T11:34:06.000Z</time>
</trkpt>
<trkpt lat="57.279346" lon="9.660134">
<ele>28.992984</ele>
<time>2026-07-16T11:34:07.000Z</time>
</trkpt>
<trkpt lat="57.279385" lon="9.660203">
<ele>29.003758</ele>
<time>2026-07-16T11:34:08.000Z</time>
</trkpt>
<trkpt lat="57.279427" lon="9.660270">
<ele>29.014830</ele>
<time>2026-07-16T11:34:09.000Z</time>
</trkpt>
<trkpt lat="57.279469" lon="9.660337">
<ele>29.025902</ele>
<time>2026-07-16T11:34:10.000Z</time>
</trkpt>
<trkpt lat="57.279507" lon="9.660394">
<ele>29.035669</ele>
<time>2026-07-16T11:34:11.000Z</time>
</trkpt>
<trkpt lat="57.279545" lon="9.660457">
<ele>29.045856</ele>
<time>2026-07-16T11:34:12.000Z</time>
</trkpt>
<trkpt lat="57.279587" lon="9.660521">
<ele>29.056720</ele>
<time>2026-07-16T11:34:13.000Z</time>
</trkpt>
<trkpt lat="57.279625" lon="9.660577">
<ele>29.066419</ele>
<time>2026-07-16T11:34:14.000Z</time>
</trkpt>
<trkpt lat="57.279667" lon="9.660631">
<ele>29.076630</ele>
<time>2026-07-16T11:34:15.000Z</time>
</trkpt>
<trkpt lat="57.279709" lon="9.660678">
<ele>29.086430</ele>
<time>2026-07-16T11:34:16.000Z</time>
</trkpt>
<trkpt lat="57.279758" lon="9.660713">
<ele>29.096917</ele>
<time>2026-07-16T11:34:17.000Z</time>
</trkpt>
<trkpt lat="57.279808" lon="9.660740">
<ele>29.107316</ele>
<time>2026-07-16T11:34:18.000Z</time>
</trkpt>
<trkpt lat="57.279861" lon="9.660758">
<ele>29.118074</ele>
<time>2026-07-16T11:34:19.000Z</time>
</trkpt>
<trkpt lat="57.279915" lon="9.660776">
<ele>29.129028</ele>
<time>2026-07-16T11:34:20.000Z</time>
</trkpt>
<trkpt lat="57.279968" lon="9.660795">
<ele>29.139806</ele>
<time>2026-07-16T11:34:21.000Z</time>
</trkpt>
<trkpt lat="57.280022" lon="9.660813">
<ele>29.150761</ele>
<time>2026-07-16T11:34:22.000Z</time>
</trkpt>
<trkpt lat="57.280075" lon="9.660830">
<ele>29.161500</ele>
<time>2026-07-16T11:34:23.000Z</time>
</trkpt>
<trkpt lat="57.280132" lon="9.660843">
<ele>29.172966</ele>
<time>2026-07-16T11:34:24.000Z</time>
</trkpt>
<trkpt lat="57.280186" lon="9.660856">
<ele>29.183838</ele>
<time>2026-07-16T11:34:25.000Z</time>
</trkpt>
<trkpt lat="57.280239" lon="9.660872">
<ele>29.194559</ele>
<time>2026-07-16T11:34:26.000Z</time>
</trkpt>
<trkpt lat="57.280296" lon="9.660888">
<ele>29.206069</ele>
<time>2026-07-16T11:34:27.000Z</time>
</trkpt>
<trkpt lat="57.280354" lon="9.660905">
<ele>29.217793</ele>
<time>2026-07-16T11:34:28.000Z</time>
</trkpt>
<trkpt lat="57.280407" lon="9.660921">
<ele>29.228514</ele>
<time>2026-07-16T11:34:29.000Z</time>
</trkpt>
<trkpt lat="57.280464" lon="9.660938">
<ele>29.240041</ele>
<time>2026-07-16T11:34:30.000Z</time>
</trkpt>
<trkpt lat="57.280521" lon="9.660954">
<ele>29.251551</ele>
<time>2026-07-16T11:34:31.000Z</time>
</trkpt>
<trkpt lat="57.280579" lon="9.660968">
<ele>29.263229</ele>
<time>2026-07-16T11:34:32.000Z</time>
</trkpt>
<trkpt lat="57.280636" lon="9.660985">
<ele>29.274756</ele>
<time>2026-07-16T11:34:33.000Z</time>
</trkpt>
<trkpt lat="57.280689" lon="9.661002">
<ele>29.285452</ele>
<time>2026-07-16T11:34:34.000Z</time>
</trkpt>
<trkpt lat="57.280743" lon="9.661022">
<ele>29.295852</ele>
<time>2026-07-16T11:34:35.000Z</time>
</trkpt>
<trkpt lat="57.280800" lon="9.661040">
<ele>29.306773</ele>
<time>2026-07-16T11:34:36.000Z</time>
</trkpt>
<trkpt lat="57.280853" lon="9.661058">
<ele>29.316949</ele>
<time>2026-07-16T11:34:37.000Z</time>
</trkpt>
<trkpt lat="57.280910" lon="9.661077">
<ele>29.327887</ele>
<time>2026-07-16T11:34:38.000Z</time>
</trkpt>
<trkpt lat="57.280968" lon="9.661092">
<ele>29.338947</ele>
<time>2026-07-16T11:34:39.000Z</time>
</trkpt>
<trkpt lat="57.281025" lon="9.661103">
<ele>29.349770</ele>
<time>2026-07-16T11:34:40.000Z</time>
</trkpt>
<trkpt lat="57.281078" lon="9.661114">
<ele>29.359842</ele>
<time>2026-07-16T11:34:41.000Z</time>
</trkpt>
<trkpt lat="57.281136" lon="9.661129">
<ele>29.370902</ele>
<time>2026-07-16T11:34:42.000Z</time>
</trkpt>
<trkpt lat="57.281189" lon="9.661146">
<ele>29.381061</ele>
<time>2026-07-16T11:34:43.000Z</time>
</trkpt>
<trkpt lat="57.281250" lon="9.661161">
<ele>29.392682</ele>
<time>2026-07-16T11:34:44.000Z</time>
</trkpt>
<trkpt lat="57.281307" lon="9.661173">
<ele>29.403516</ele>
<time>2026-07-16T11:34:45.000Z</time>
</trkpt>
<trkpt lat="57.281364" lon="9.661184">
<ele>29.414340</ele>
<time>2026-07-16T11:34:46.000Z</time>
</trkpt>
<trkpt lat="57.281425" lon="9.661195">
<ele>29.425914</ele>
<time>2026-07-16T11:34:47.000Z</time>
</trkpt>
<trkpt lat="57.281483" lon="9.661205">
<ele>29.436915</ele>
<time>2026-07-16T11:34:48.000Z</time>
</trkpt>
<trkpt lat="57.281540" lon="9.661218">
<ele>29.447761</ele>
<time>2026-07-16T11:34:49.000Z</time>
</trkpt>
<trkpt lat="57.281597" lon="9.661229">
<ele>29.458585</ele>
<time>2026-07-16T11:34:50.000Z</time>
</trkpt>
<trkpt lat="57.281654" lon="9.661239">
<ele>29.469398</ele>
<time>2026-07-16T11:34:51.000Z</time>
</trkpt>
<trkpt lat="57.281715" lon="9.661244">
<ele>29.480929</ele>
<time>2026-07-16T11:34:52.000Z</time>
</trkpt>
<trkpt lat="57.281769" lon="9.661247">
<ele>29.491132</ele>
<time>2026-07-16T11:34:53.000Z</time>
</trkpt>
<trkpt lat="57.281826" lon="9.661254">
<ele>29.501920</ele>
<time>2026-07-16T11:34:54.000Z</time>
</trkpt>
<trkpt lat="57.281887" lon="9.661259">
<ele>29.513451</ele>
<time>2026-07-16T11:34:55.000Z</time>
</trkpt>
<trkpt lat="57.281944" lon="9.661265">
<ele>29.524234</ele>
<time>2026-07-16T11:34:56.000Z</time>
</trkpt>
<trkpt lat="57.281998" lon="9.661272">
<ele>29.534457</ele>
<time>2026-07-16T11:34:57.000Z</time>
</trkpt>
<trkpt lat="57.282055" lon="9.661281">
<ele>29.545260</ele>
<time>2026-07-16T11:34:58.000Z</time>
</trkpt>
<trkpt lat="57.282112" lon="9.661290">
<ele>29.556064</ele>
<time>2026-07-16T11:34:59.000Z</time>
</trkpt>
<trkpt lat="57.282169" lon="9.661304">
<ele>29.566923</ele>
<time>2026-07-16T11:35:00.000Z</time>
</trkpt>
<trkpt lat="57.282227" lon="9.661323">
<ele>29.578047</ele>
<time>2026-07-16T11:35:01.000Z</time>
</trkpt>
<trkpt lat="57.282280" lon="9.661337">
<ele>29.588158</ele>
<time>2026-07-16T11:35:02.000Z</time>
</trkpt>
<trkpt lat="57.282341" lon="9.661353">
<ele>29.599793</ele>
<time>2026-07-16T11:35:03.000Z</time>
</trkpt>
<trkpt lat="57.282394" lon="9.661367">
<ele>29.609904</ele>
<time>2026-07-16T11:35:04.000Z</time>
</trkpt>
<trkpt lat="57.282452" lon="9.661382">
<ele>29.620964</ele>
<time>2026-07-16T11:35:05.000Z</time>
</trkpt>
<trkpt lat="57.282513" lon="9.661399">
<ele>29.642290</ele>
<time>2026-07-16T11:35:06.000Z</time>
</trkpt>
<trkpt lat="57.282570" lon="9.661416">
<ele>29.666006</ele>
<time>2026-07-16T11:35:07.000Z</time>
</trkpt>
<trkpt lat="57.282627" lon="9.661429">
<ele>29.689596</ele>
<time>2026-07-16T11:35:08.000Z</time>
</trkpt>
<trkpt lat="57.282680" lon="9.661445">
<ele>29.711655</ele>
<time>2026-07-16T11:35:09.000Z</time>
</trkpt>
<trkpt lat="57.282734" lon="9.661458">
<ele>29.734023</ele>
<time>2026-07-16T11:35:10.000Z</time>
</trkpt>
<trkpt lat="57.282791" lon="9.661471">
<ele>29.757613</ele>
<time>2026-07-16T11:35:11.000Z</time>
</trkpt>
<trkpt lat="57.282848" lon="9.661484">
<ele>29.781204</ele>
<time>2026-07-16T11:35:12.000Z</time>
</trkpt>
<trkpt lat="57.282906" lon="9.661500">
<ele>29.805291</ele>
<time>2026-07-16T11:35:13.000Z</time>
</trkpt>
<trkpt lat="57.282959" lon="9.661516">
<ele>29.827350</ele>
<time>2026-07-16T11:35:14.000Z</time>
</trkpt>
<trkpt lat="57.283012" lon="9.661533">
<ele>29.849445</ele>
<time>2026-07-16T11:35:15.000Z</time>
</trkpt>
<trkpt lat="57.283066" lon="9.661550">
<ele>29.871944</ele>
<time>2026-07-16T11:35:16.000Z</time>
</trkpt>
<trkpt lat="57.283119" lon="9.661563">
<ele>29.893905</ele>
<time>2026-07-16T11:35:17.000Z</time>
</trkpt>
<trkpt lat="57.283176" lon="9.661578">
<ele>29.917554</ele>
<time>2026-07-16T11:35:18.000Z</time>
</trkpt>
<trkpt lat="57.283234" lon="9.661592">
<ele>29.941580</ele>
<time>2026-07-16T11:35:19.000Z</time>
</trkpt>
<trkpt lat="57.283287" lon="9.661603">
<ele>29.963487</ele>
<time>2026-07-16T11:35:20.000Z</time>
</trkpt>
<trkpt lat="57.283340" lon="9.661614">
<ele>29.985394</ele>
<time>2026-07-16T11:35:21.000Z</time>
</trkpt>
<trkpt lat="57.283394" lon="9.661624">
<ele>30.007686</ele>
<time>2026-07-16T11:35:22.000Z</time>
</trkpt>
<trkpt lat="57.283447" lon="9.661634">
<ele>30.029569</ele>
<time>2026-07-16T11:35:23.000Z</time>
</trkpt>
<trkpt lat="57.283501" lon="9.661651">
<ele>30.052069</ele>
<time>2026-07-16T11:35:24.000Z</time>
</trkpt>
<trkpt lat="57.283554" lon="9.661669">
<ele>30.074203</ele>
<time>2026-07-16T11:35:25.000Z</time>
</trkpt>
<trkpt lat="57.283604" lon="9.661686">
<ele>30.095085</ele>
<time>2026-07-16T11:35:26.000Z</time>
</trkpt>
<trkpt lat="57.283661" lon="9.661704">
<ele>30.118837</ele>
<time>2026-07-16T11:35:27.000Z</time>
</trkpt>
<trkpt lat="57.283718" lon="9.661716">
<ele>30.142402</ele>
<time>2026-07-16T11:35:28.000Z</time>
</trkpt>
<trkpt lat="57.283772" lon="9.661730">
<ele>30.164799</ele>
<time>2026-07-16T11:35:29.000Z</time>
</trkpt>
<trkpt lat="57.283825" lon="9.661744">
<ele>30.186790</ele>
<time>2026-07-16T11:35:30.000Z</time>
</trkpt>
<trkpt lat="57.283882" lon="9.661758">
<ele>30.210409</ele>
<time>2026-07-16T11:35:31.000Z</time>
</trkpt>
<trkpt lat="57.283936" lon="9.661770">
<ele>30.232750</ele>
<time>2026-07-16T11:35:32.000Z</time>
</trkpt>
<trkpt lat="57.283993" lon="9.661779">
<ele>30.256248</ele>
<time>2026-07-16T11:35:33.000Z</time>
</trkpt>
<trkpt lat="57.284050" lon="9.661790">
<ele>30.279788</ele>
<time>2026-07-16T11:35:34.000Z</time>
</trkpt>
<trkpt lat="57.284107" lon="9.661805">
<ele>30.303438</ele>
<time>2026-07-16T11:35:35.000Z</time>
</trkpt>
<trkpt lat="57.284157" lon="9.661822">
<ele>30.324319</ele>
<time>2026-07-16T11:35:36.000Z</time>
</trkpt>
<trkpt lat="57.284210" lon="9.661842">
<ele>30.346538</ele>
<time>2026-07-16T11:35:37.000Z</time>
</trkpt>
<trkpt lat="57.284256" lon="9.661862">
<ele>30.361141</ele>
<time>2026-07-16T11:35:38.000Z</time>
</trkpt>
<trkpt lat="57.284302" lon="9.661880">
<ele>30.346770</ele>
<time>2026-07-16T11:35:39.000Z</time>
</trkpt>
<trkpt lat="57.284344" lon="9.661899">
<ele>30.333555</ele>
<time>2026-07-16T11:35:40.000Z</time>
</trkpt>
<trkpt lat="57.284382" lon="9.661914">
<ele>30.321679</ele>
<time>2026-07-16T11:35:41.000Z</time>
</trkpt>
<trkpt lat="57.284420" lon="9.661928">
<ele>30.309836</ele>
<time>2026-07-16T11:35:42.000Z</time>
</trkpt>
<trkpt lat="57.284454" lon="9.661937">
<ele>30.299338</ele>
<time>2026-07-16T11:35:43.000Z</time>
</trkpt>
<trkpt lat="57.284481" lon="9.661948">
<ele>30.290887</ele>
<time>2026-07-16T11:35:44.000Z</time>
</trkpt>
<trkpt lat="57.284508" lon="9.661962">
<ele>30.282317</ele>
<time>2026-07-16T11:35:45.000Z</time>
</trkpt>
<trkpt lat="57.284531" lon="9.661976">
<ele>30.274916</ele>
<time>2026-07-16T11:35:46.000Z</time>
</trkpt>
<trkpt lat="57.284542" lon="9.661988">
<ele>30.271013</ele>
<time>2026-07-16T11:35:47.000Z</time>
</trkpt>
<trkpt lat="57.284599" lon="9.662001">
<ele>30.253459</ele>
<time>2026-07-16T11:35:54.000Z</time>
</trkpt>
<trkpt lat="57.284626" lon="9.662006">
<ele>30.245165</ele>
<time>2026-07-16T11:35:55.000Z</time>
</trkpt>
<trkpt lat="57.284657" lon="9.662018">
<ele>30.235485</ele>
<time>2026-07-16T11:35:56.000Z</time>
</trkpt>
<trkpt lat="57.284679" lon="9.662027">
<ele>30.228598</ele>
<time>2026-07-16T11:35:57.000Z</time>
</trkpt>
<trkpt lat="57.284714" lon="9.662040">
<ele>30.217686</ele>
<time>2026-07-16T11:35:58.000Z</time>
</trkpt>
<trkpt lat="57.284748" lon="9.662051">
<ele>30.207137</ele>
<time>2026-07-16T11:35:59.000Z</time>
</trkpt>
<trkpt lat="57.284779" lon="9.662062">
<ele>30.197489</ele>
<time>2026-07-16T11:36:00.000Z</time>
</trkpt>
<trkpt lat="57.284809" lon="9.662069">
<ele>30.188246</ele>
<time>2026-07-16T11:36:01.000Z</time>
</trkpt>
<trkpt lat="57.284847" lon="9.662079">
<ele>30.176515</ele>
<time>2026-07-16T11:36:02.000Z</time>
</trkpt>
<trkpt lat="57.284882" lon="9.662091">
<ele>30.165635</ele>
<time>2026-07-16T11:36:03.000Z</time>
</trkpt>
<trkpt lat="57.284924" lon="9.662108">
<ele>30.152494</ele>
<time>2026-07-16T11:36:04.000Z</time>
</trkpt>
<trkpt lat="57.284962" lon="9.662128">
<ele>30.140418</ele>
<time>2026-07-16T11:36:05.000Z</time>
</trkpt>
<trkpt lat="57.285004" lon="9.662143">
<ele>30.127344</ele>
<time>2026-07-16T11:36:06.000Z</time>
</trkpt>
<trkpt lat="57.285038" lon="9.662158">
<ele>30.116660</ele>
<time>2026-07-16T11:36:07.000Z</time>
</trkpt>
<trkpt lat="57.285076" lon="9.662173">
<ele>30.104784</ele>
<time>2026-07-16T11:36:08.000Z</time>
</trkpt>
<trkpt lat="57.285114" lon="9.662189">
<ele>30.092872</ele>
<time>2026-07-16T11:36:09.000Z</time>
</trkpt>
<trkpt lat="57.285152" lon="9.662205">
<ele>30.080960</ele>
<time>2026-07-16T11:36:10.000Z</time>
</trkpt>
<trkpt lat="57.285191" lon="9.662220">
<ele>30.068785</ele>
<time>2026-07-16T11:36:11.000Z</time>
</trkpt>
<trkpt lat="57.285225" lon="9.662231">
<ele>30.058235</ele>
<time>2026-07-16T11:36:12.000Z</time>
</trkpt>
<trkpt lat="57.285255" lon="9.662243">
<ele>30.048854</ele>
<time>2026-07-16T11:36:13.000Z</time>
</trkpt>
<trkpt lat="57.285290" lon="9.662253">
<ele>30.038029</ele>
<time>2026-07-16T11:36:14.000Z</time>
</trkpt>
<trkpt lat="57.285320" lon="9.662266">
<ele>30.028611</ele>
<time>2026-07-16T11:36:15.000Z</time>
</trkpt>
<trkpt lat="57.285355" lon="9.662281">
<ele>30.017630</ele>
<time>2026-07-16T11:36:16.000Z</time>
</trkpt>
<trkpt lat="57.285389" lon="9.662299">
<ele>30.006821</ele>
<time>2026-07-16T11:36:17.000Z</time>
</trkpt>
<trkpt lat="57.285435" lon="9.662314">
<ele>29.992544</ele>
<time>2026-07-16T11:36:18.000Z</time>
</trkpt>
<trkpt lat="57.285477" lon="9.662330">
<ele>29.979438</ele>
<time>2026-07-16T11:36:19.000Z</time>
</trkpt>
<trkpt lat="57.285526" lon="9.662343">
<ele>29.964307</ele>
<time>2026-07-16T11:36:20.000Z</time>
</trkpt>
<trkpt lat="57.285576" lon="9.662356">
<ele>29.948875</ele>
<time>2026-07-16T11:36:21.000Z</time>
</trkpt>
<trkpt lat="57.285622" lon="9.662367">
<ele>29.934698</ele>
<time>2026-07-16T11:36:22.000Z</time>
</trkpt>
<trkpt lat="57.285667" lon="9.662366">
<ele>29.920942</ele>
<time>2026-07-16T11:36:23.000Z</time>
</trkpt>
<trkpt lat="57.285717" lon="9.662357">
<ele>29.905587</ele>
<time>2026-07-16T11:36:24.000Z</time>
</trkpt>
<trkpt lat="57.285759" lon="9.662344">
<ele>29.892572</ele>
<time>2026-07-16T11:36:25.000Z</time>
</trkpt>
<trkpt lat="57.285809" lon="9.662326">
<ele>29.877002</ele>
<time>2026-07-16T11:36:26.000Z</time>
</trkpt>
<trkpt lat="57.285851" lon="9.662295">
<ele>29.863181</ele>
<time>2026-07-16T11:36:27.000Z</time>
</trkpt>
<trkpt lat="57.285881" lon="9.662261">
<ele>29.852428</ele>
<time>2026-07-16T11:36:28.000Z</time>
</trkpt>
<trkpt lat="57.285912" lon="9.662221">
<ele>29.840877</ele>
<time>2026-07-16T11:36:29.000Z</time>
</trkpt>
<trkpt lat="57.285950" lon="9.662164">
<ele>29.825925</ele>
<time>2026-07-16T11:36:30.000Z</time>
</trkpt>
<trkpt lat="57.285984" lon="9.662108">
<ele>29.819981</ele>
<time>2026-07-16T11:36:31.000Z</time>
</trkpt>
<trkpt lat="57.286022" lon="9.662044">
<ele>29.892499</ele>
<time>2026-07-16T11:36:32.000Z</time>
</trkpt>
<trkpt lat="57.286064" lon="9.661979">
<ele>29.969773</ele>
<time>2026-07-16T11:36:33.000Z</time>
</trkpt>
<trkpt lat="57.286102" lon="9.661914">
<ele>30.042806</ele>
<time>2026-07-16T11:36:34.000Z</time>
</trkpt>
<trkpt lat="57.286140" lon="9.661839">
<ele>30.121217</ele>
<time>2026-07-16T11:36:35.000Z</time>
</trkpt>
<trkpt lat="57.286175" lon="9.661752">
<ele>30.203940</ele>
<time>2026-07-16T11:36:36.000Z</time>
</trkpt>
<trkpt lat="57.286205" lon="9.661654">
<ele>30.289844</ele>
<time>2026-07-16T11:36:37.000Z</time>
</trkpt>
<trkpt lat="57.286228" lon="9.661557">
<ele>30.370635</ele>
<time>2026-07-16T11:36:38.000Z</time>
</trkpt>
<trkpt lat="57.286251" lon="9.661455">
<ele>30.454932</ele>
<time>2026-07-16T11:36:39.000Z</time>
</trkpt>
<trkpt lat="57.286266" lon="9.661357">
<ele>30.532618</ele>
<time>2026-07-16T11:36:40.000Z</time>
</trkpt>
<trkpt lat="57.286282" lon="9.661264">
<ele>30.607058</ele>
<time>2026-07-16T11:36:41.000Z</time>
</trkpt>
<trkpt lat="57.286297" lon="9.661169">
<ele>30.682545</ele>
<time>2026-07-16T11:36:42.000Z</time>
</trkpt>
<trkpt lat="57.286304" lon="9.661080">
<ele>30.751142</ele>
<time>2026-07-16T11:36:43.000Z</time>
</trkpt>
<trkpt lat="57.286316" lon="9.660985">
<ele>30.825552</ele>
<time>2026-07-16T11:36:44.000Z</time>
</trkpt>
<trkpt lat="57.286324" lon="9.660891">
<ele>30.898131</ele>
<time>2026-07-16T11:36:45.000Z</time>
</trkpt>
<trkpt lat="57.286331" lon="9.660797">
<ele>30.970504</ele>
<time>2026-07-16T11:36:46.000Z</time>
</trkpt>
<trkpt lat="57.286343" lon="9.660702">
<ele>31.044914</ele>
<time>2026-07-16T11:36:47.000Z</time>
</trkpt>
<trkpt lat="57.286350" lon="9.660605">
<ele>31.119554</ele>
<time>2026-07-16T11:36:48.000Z</time>
</trkpt>
<trkpt lat="57.286362" lon="9.660508">
<ele>31.195451</ele>
<time>2026-07-16T11:36:49.000Z</time>
</trkpt>
<trkpt lat="57.286373" lon="9.660418">
<ele>31.265829</ele>
<time>2026-07-16T11:36:50.000Z</time>
</trkpt>
<trkpt lat="57.286385" lon="9.660326">
<ele>31.338013</ele>
<time>2026-07-16T11:36:51.000Z</time>
</trkpt>
<trkpt lat="57.286396" lon="9.660230">
<ele>31.412861</ele>
<time>2026-07-16T11:36:52.000Z</time>
</trkpt>
<trkpt lat="57.286423" lon="9.660140">
<ele>31.491372</ele>
<time>2026-07-16T11:36:53.000Z</time>
</trkpt>
<trkpt lat="57.286449" lon="9.660060">
<ele>31.562572</ele>
<time>2026-07-16T11:36:54.000Z</time>
</trkpt>
<trkpt lat="57.286491" lon="9.659986">
<ele>31.644419</ele>
<time>2026-07-16T11:36:55.000Z</time>
</trkpt>
<trkpt lat="57.286549" lon="9.659943">
<ele>31.732599</ele>
<time>2026-07-16T11:36:56.000Z</time>
</trkpt>
<trkpt lat="57.286606" lon="9.659928">
<ele>31.813852</ele>
<time>2026-07-16T11:36:57.000Z</time>
</trkpt>
<trkpt lat="57.286667" lon="9.659928">
<ele>31.899940</ele>
<time>2026-07-16T11:36:58.000Z</time>
</trkpt>
<trkpt lat="57.286724" lon="9.659934">
<ele>31.980513</ele>
<time>2026-07-16T11:36:59.000Z</time>
</trkpt>
<trkpt lat="57.286770" lon="9.659943">
<ele>32.045793</ele>
<time>2026-07-16T11:37:00.000Z</time>
</trkpt>
<trkpt lat="57.286816" lon="9.659946">
<ele>32.110753</ele>
<time>2026-07-16T11:37:01.000Z</time>
</trkpt>
<trkpt lat="57.286861" lon="9.659948">
<ele>32.174279</ele>
<time>2026-07-16T11:37:02.000Z</time>
</trkpt>
<trkpt lat="57.286903" lon="9.659954">
<ele>32.233729</ele>
<time>2026-07-16T11:37:03.000Z</time>
</trkpt>
<trkpt lat="57.286942" lon="9.659962">
<ele>32.289106</ele>
<time>2026-07-16T11:37:04.000Z</time>
</trkpt>
<trkpt lat="57.286980" lon="9.659969">
<ele>32.343000</ele>
<time>2026-07-16T11:37:05.000Z</time>
</trkpt>
<trkpt lat="57.287003" lon="9.659976">
<ele>32.399577</ele>
<time>2026-07-16T11:37:06.000Z</time>
</trkpt>
<trkpt lat="57.287033" lon="9.659983">
<ele>32.484228</ele>
<time>2026-07-16T11:37:07.000Z</time>
</trkpt>
<trkpt lat="57.287056" lon="9.659985">
<ele>32.548689</ele>
<time>2026-07-16T11:37:08.000Z</time>
</trkpt>
<trkpt lat="57.287087" lon="9.659985">
<ele>32.635474</ele>
<time>2026-07-16T11:37:09.000Z</time>
</trkpt>
<trkpt lat="57.287109" lon="9.659987">
<ele>32.697138</ele>
<time>2026-07-16T11:37:10.000Z</time>
</trkpt>
<trkpt lat="57.287132" lon="9.659986">
<ele>32.761545</ele>
<time>2026-07-16T11:37:11.000Z</time>
</trkpt>
<trkpt lat="57.287159" lon="9.659985">
<ele>32.837148</ele>
<time>2026-07-16T11:37:12.000Z</time>
</trkpt>
<trkpt lat="57.287186" lon="9.659985">
<ele>32.912735</ele>
<time>2026-07-16T11:37:13.000Z</time>
</trkpt>
<trkpt lat="57.287216" lon="9.659987">
<ele>32.996776</ele>
<time>2026-07-16T11:37:14.000Z</time>
</trkpt>
<trkpt lat="57.287239" lon="9.659988">
<ele>33.061183</ele>
<time>2026-07-16T11:37:15.000Z</time>
</trkpt>
<trkpt lat="57.287258" lon="9.659990">
<ele>33.114460</ele>
<time>2026-07-16T11:37:16.000Z</time>
</trkpt>
<trkpt lat="57.287285" lon="9.659996">
<ele>33.190591</ele>
<time>2026-07-16T11:37:17.000Z</time>
</trkpt>
<trkpt lat="57.287315" lon="9.660003">
<ele>33.275242</ele>
<time>2026-07-16T11:37:18.000Z</time>
</trkpt>
<trkpt lat="57.287346" lon="9.660005">
<ele>33.362080</ele>
<time>2026-07-16T11:37:19.000Z</time>
</trkpt>
<trkpt lat="57.287380" lon="9.660005">
<ele>33.457264</ele>
<time>2026-07-16T11:37:20.000Z</time>
</trkpt>
<trkpt lat="57.287418" lon="9.660012">
<ele>33.564172</ele>
<time>2026-07-16T11:37:21.000Z</time>
</trkpt>
<trkpt lat="57.287453" lon="9.660021">
<ele>33.663097</ele>
<time>2026-07-16T11:37:22.000Z</time>
</trkpt>
<trkpt lat="57.287491" lon="9.660030">
<ele>33.770348</ele>
<time>2026-07-16T11:37:23.000Z</time>
</trkpt>
<trkpt lat="57.287529" lon="9.660044">
<ele>33.878818</ele>
<time>2026-07-16T11:37:24.000Z</time>
</trkpt>
<trkpt lat="57.287571" lon="9.660062">
<ele>33.999511</ele>
<time>2026-07-16T11:37:25.000Z</time>
</trkpt>
<trkpt lat="57.287609" lon="9.660073">
<ele>34.107187</ele>
<time>2026-07-16T11:37:26.000Z</time>
</trkpt>
<trkpt lat="57.287647" lon="9.660078">
<ele>34.213838</ele>
<time>2026-07-16T11:37:27.000Z</time>
</trkpt>
<trkpt lat="57.287685" lon="9.660080">
<ele>34.320263</ele>
<time>2026-07-16T11:37:28.000Z</time>
</trkpt>
<trkpt lat="57.287720" lon="9.660084">
<ele>34.418433</ele>
<time>2026-07-16T11:37:29.000Z</time>
</trkpt>
<trkpt lat="57.287758" lon="9.660092">
<ele>34.525502</ele>
<time>2026-07-16T11:37:30.000Z</time>
</trkpt>
<trkpt lat="57.287796" lon="9.660103">
<ele>34.633178</ele>
<time>2026-07-16T11:37:31.000Z</time>
</trkpt>
<trkpt lat="57.287830" lon="9.660111">
<ele>34.729129</ele>
<time>2026-07-16T11:37:32.000Z</time>
</trkpt>
<trkpt lat="57.287869" lon="9.660120">
<ele>34.839156</ele>
<time>2026-07-16T11:37:33.000Z</time>
</trkpt>
<trkpt lat="57.287907" lon="9.660129">
<ele>34.946406</ele>
<time>2026-07-16T11:37:34.000Z</time>
</trkpt>
<trkpt lat="57.287945" lon="9.660137">
<ele>35.053475</ele>
<time>2026-07-16T11:37:35.000Z</time>
</trkpt>
<trkpt lat="57.287983" lon="9.660146">
<ele>35.160725</ele>
<time>2026-07-16T11:37:36.000Z</time>
</trkpt>
<trkpt lat="57.288017" lon="9.660154">
<ele>35.256676</ele>
<time>2026-07-16T11:37:37.000Z</time>
</trkpt>
<trkpt lat="57.288055" lon="9.660165">
<ele>35.364352</ele>
<time>2026-07-16T11:37:38.000Z</time>
</trkpt>
<trkpt lat="57.288094" lon="9.660178">
<ele>35.475291</ele>
<time>2026-07-16T11:37:39.000Z</time>
</trkpt>
<trkpt lat="57.288128" lon="9.660190">
<ele>35.572191</ele>
<time>2026-07-16T11:37:40.000Z</time>
</trkpt>
<trkpt lat="57.288166" lon="9.660201">
<ele>35.679867</ele>
<time>2026-07-16T11:37:41.000Z</time>
</trkpt>
<trkpt lat="57.288193" lon="9.660210">
<ele>35.756671</ele>
<time>2026-07-16T11:37:42.000Z</time>
</trkpt>
<trkpt lat="57.288235" lon="9.660221">
<ele>35.875423</ele>
<time>2026-07-16T11:37:43.000Z</time>
</trkpt>
<trkpt lat="57.288277" lon="9.660228">
<ele>35.993480</ele>
<time>2026-07-16T11:37:44.000Z</time>
</trkpt>
<trkpt lat="57.288315" lon="9.660237">
<ele>36.100730</ele>
<time>2026-07-16T11:37:45.000Z</time>
</trkpt>
<trkpt lat="57.288349" lon="9.660248">
<ele>36.197358</ele>
<time>2026-07-16T11:37:46.000Z</time>
</trkpt>
<trkpt lat="57.288387" lon="9.660260">
<ele>36.305278</ele>
<time>2026-07-16T11:37:47.000Z</time>
</trkpt>
<trkpt lat="57.288429" lon="9.660271">
<ele>36.424030</ele>
<time>2026-07-16T11:37:48.000Z</time>
</trkpt>
<trkpt lat="57.288471" lon="9.660280">
<ele>36.542396</ele>
<time>2026-07-16T11:37:49.000Z</time>
</trkpt>
<trkpt lat="57.288509" lon="9.660292">
<ele>36.650317</ele>
<time>2026-07-16T11:37:50.000Z</time>
</trkpt>
<trkpt lat="57.288551" lon="9.660307">
<ele>36.770067</ele>
<time>2026-07-16T11:37:51.000Z</time>
</trkpt>
<trkpt lat="57.288597" lon="9.660325">
<ele>36.901693</ele>
<time>2026-07-16T11:37:52.000Z</time>
</trkpt>
<trkpt lat="57.288639" lon="9.660342">
<ele>37.022054</ele>
<time>2026-07-16T11:37:53.000Z</time>
</trkpt>
<trkpt lat="57.288689" lon="9.660357">
<ele>37.163858</ele>
<time>2026-07-16T11:37:54.000Z</time>
</trkpt>
<trkpt lat="57.288738" lon="9.660372">
<ele>37.302899</ele>
<time>2026-07-16T11:37:55.000Z</time>
</trkpt>
<trkpt lat="57.288784" lon="9.660382">
<ele>37.429094</ele>
<time>2026-07-16T11:37:56.000Z</time>
</trkpt>
<trkpt lat="57.288834" lon="9.660393">
<ele>37.559280</ele>
<time>2026-07-16T11:37:57.000Z</time>
</trkpt>
<trkpt lat="57.288883" lon="9.660403">
<ele>37.686739</ele>
<time>2026-07-16T11:37:58.000Z</time>
</trkpt>
<trkpt lat="57.288933" lon="9.660414">
<ele>37.816925</ele>
<time>2026-07-16T11:37:59.000Z</time>
</trkpt>
<trkpt lat="57.288982" lon="9.660426">
<ele>37.944719</ele>
<time>2026-07-16T11:38:00.000Z</time>
</trkpt>
<trkpt lat="57.289032" lon="9.660439">
<ele>38.075265</ele>
<time>2026-07-16T11:38:01.000Z</time>
</trkpt>
<trkpt lat="57.289082" lon="9.660452">
<ele>38.205810</ele>
<time>2026-07-16T11:38:02.000Z</time>
</trkpt>
<trkpt lat="57.289131" lon="9.660463">
<ele>38.333429</ele>
<time>2026-07-16T11:38:03.000Z</time>
</trkpt>
<trkpt lat="57.289181" lon="9.660473">
<ele>38.463458</ele>
<time>2026-07-16T11:38:04.000Z</time>
</trkpt>
<trkpt lat="57.289226" lon="9.660484">
<ele>38.580816</ele>
<time>2026-07-16T11:38:05.000Z</time>
</trkpt>
<trkpt lat="57.289276" lon="9.660500">
<ele>38.712011</ele>
<time>2026-07-16T11:38:06.000Z</time>
</trkpt>
<trkpt lat="57.289322" lon="9.660517">
<ele>38.833293</ele>
<time>2026-07-16T11:38:07.000Z</time>
</trkpt>
<trkpt lat="57.289371" lon="9.660530">
<ele>38.961279</ele>
<time>2026-07-16T11:38:08.000Z</time>
</trkpt>
<trkpt lat="57.289417" lon="9.660543">
<ele>39.081591</ele>
<time>2026-07-16T11:38:09.000Z</time>
</trkpt>
<trkpt lat="57.289471" lon="9.660555">
<ele>39.222212</ele>
<time>2026-07-16T11:38:10.000Z</time>
</trkpt>
<trkpt lat="57.289520" lon="9.660565">
<ele>39.349670</ele>
<time>2026-07-16T11:38:11.000Z</time>
</trkpt>
<trkpt lat="57.289570" lon="9.660577">
<ele>39.480028</ele>
<time>2026-07-16T11:38:12.000Z</time>
</trkpt>
<trkpt lat="57.289619" lon="9.660587">
<ele>39.607487</ele>
<time>2026-07-16T11:38:13.000Z</time>
</trkpt>
<trkpt lat="57.289669" lon="9.660599">
<ele>39.737845</ele>
<time>2026-07-16T11:38:14.000Z</time>
</trkpt>
<trkpt lat="57.289719" lon="9.660607">
<ele>39.867603</ele>
<time>2026-07-16T11:38:15.000Z</time>
</trkpt>
<trkpt lat="57.289764" lon="9.660614">
<ele>39.984361</ele>
<time>2026-07-16T11:38:16.000Z</time>
</trkpt>
<trkpt lat="57.289814" lon="9.660621">
<ele>40.114006</ele>
<time>2026-07-16T11:38:17.000Z</time>
</trkpt>
<trkpt lat="57.289860" lon="9.660631">
<ele>40.233758</ele>
<time>2026-07-16T11:38:18.000Z</time>
</trkpt>
<trkpt lat="57.289906" lon="9.660644">
<ele>40.354070</ele>
<time>2026-07-16T11:38:19.000Z</time>
</trkpt>
<trkpt lat="57.289948" lon="9.660655">
<ele>40.463744</ele>
<time>2026-07-16T11:38:20.000Z</time>
</trkpt>
<trkpt lat="57.289997" lon="9.660664">
<ele>40.591057</ele>
<time>2026-07-16T11:38:21.000Z</time>
</trkpt>
<trkpt lat="57.290039" lon="9.660670">
<ele>40.699971</ele>
<time>2026-07-16T11:38:22.000Z</time>
</trkpt>
<trkpt lat="57.290089" lon="9.660677">
<ele>40.829616</ele>
<time>2026-07-16T11:38:23.000Z</time>
</trkpt>
<trkpt lat="57.290131" lon="9.660686">
<ele>40.938934</ele>
<time>2026-07-16T11:38:24.000Z</time>
</trkpt>
<trkpt lat="57.290176" lon="9.660689">
<ele>41.055357</ele>
<time>2026-07-16T11:38:25.000Z</time>
</trkpt>
<trkpt lat="57.290218" lon="9.660691">
<ele>41.163985</ele>
<time>2026-07-16T11:38:26.000Z</time>
</trkpt>
<trkpt lat="57.290264" lon="9.660690">
<ele>41.282926</ele>
<time>2026-07-16T11:38:27.000Z</time>
</trkpt>
<trkpt lat="57.290302" lon="9.660687">
<ele>41.381265</ele>
<time>2026-07-16T11:38:28.000Z</time>
</trkpt>
<trkpt lat="57.290344" lon="9.660686">
<ele>41.489866</ele>
<time>2026-07-16T11:38:29.000Z</time>
</trkpt>
<trkpt lat="57.290382" lon="9.660685">
<ele>41.588125</ele>
<time>2026-07-16T11:38:30.000Z</time>
</trkpt>
<trkpt lat="57.290420" lon="9.660681">
<ele>41.686533</ele>
<time>2026-07-16T11:38:31.000Z</time>
</trkpt>
<trkpt lat="57.290466" lon="9.660677">
<ele>41.805598</ele>
<time>2026-07-16T11:38:32.000Z</time>
</trkpt>
<trkpt lat="57.290512" lon="9.660666">
<ele>41.925521</ele>
<time>2026-07-16T11:38:33.000Z</time>
</trkpt>
<trkpt lat="57.290546" lon="9.660655">
<ele>42.014761</ele>
<time>2026-07-16T11:38:34.000Z</time>
</trkpt>
<trkpt lat="57.290588" lon="9.660644">
<ele>42.133902</ele>
<time>2026-07-16T11:38:35.000Z</time>
</trkpt>
<trkpt lat="57.290630" lon="9.660639">
<ele>42.254581</ele>
<time>2026-07-16T11:38:36.000Z</time>
</trkpt>
<trkpt lat="57.290672" lon="9.660640">
<ele>42.375020</ele>
<time>2026-07-16T11:38:37.000Z</time>
</trkpt>
<trkpt lat="57.290710" lon="9.660645">
<ele>42.484256</ele>
<time>2026-07-16T11:38:38.000Z</time>
</trkpt>
<trkpt lat="57.290756" lon="9.660656">
<ele>42.617252</ele>
<time>2026-07-16T11:38:39.000Z</time>
</trkpt>
<trkpt lat="57.290791" lon="9.660668">
<ele>42.719318</ele>
<time>2026-07-16T11:38:40.000Z</time>
</trkpt>
<trkpt lat="57.290833" lon="9.660682">
<ele>42.841686</ele>
<time>2026-07-16T11:38:41.000Z</time>
</trkpt>
<trkpt lat="57.290863" lon="9.660696">
<ele>42.930400</ele>
<time>2026-07-16T11:38:42.000Z</time>
</trkpt>
<trkpt lat="57.290897" lon="9.660711">
<ele>43.030623</ele>
<time>2026-07-16T11:38:43.000Z</time>
</trkpt>
<trkpt lat="57.290928" lon="9.660728">
<ele>43.123332</ele>
<time>2026-07-16T11:38:44.000Z</time>
</trkpt>
<trkpt lat="57.290958" lon="9.660752">
<ele>43.217047</ele>
<time>2026-07-16T11:38:45.000Z</time>
</trkpt>
<trkpt lat="57.290997" lon="9.660773">
<ele>43.333513</ele>
<time>2026-07-16T11:38:46.000Z</time>
</trkpt>
<trkpt lat="57.291031" lon="9.660787">
<ele>43.433388</ele>
<time>2026-07-16T11:38:47.000Z</time>
</trkpt>
<trkpt lat="57.291065" lon="9.660800">
<ele>43.532938</ele>
<time>2026-07-16T11:38:48.000Z</time>
</trkpt>
<trkpt lat="57.291096" lon="9.660811">
<ele>43.623446</ele>
<time>2026-07-16T11:38:49.000Z</time>
</trkpt>
<trkpt lat="57.291134" lon="9.660817">
<ele>43.732802</ele>
<time>2026-07-16T11:38:50.000Z</time>
</trkpt>
<trkpt lat="57.291168" lon="9.660828">
<ele>43.831771</ele>
<time>2026-07-16T11:38:51.000Z</time>
</trkpt>
<trkpt lat="57.291203" lon="9.660836">
<ele>43.932892</ele>
<time>2026-07-16T11:38:52.000Z</time>
</trkpt>
<trkpt lat="57.291237" lon="9.660842">
<ele>44.030825</ele>
<time>2026-07-16T11:38:53.000Z</time>
</trkpt>
<trkpt lat="57.291271" lon="9.660843">
<ele>44.128328</ele>
<time>2026-07-16T11:38:54.000Z</time>
</trkpt>
<trkpt lat="57.291306" lon="9.660841">
<ele>44.228734</ele>
<time>2026-07-16T11:38:55.000Z</time>
</trkpt>
<trkpt lat="57.291344" lon="9.660837">
<ele>44.337871</ele>
<time>2026-07-16T11:38:56.000Z</time>
</trkpt>
<trkpt lat="57.291378" lon="9.660832">
<ele>44.435669</ele>
<time>2026-07-16T11:38:57.000Z</time>
</trkpt>
<trkpt lat="57.291412" lon="9.660829">
<ele>44.533270</ele>
<time>2026-07-16T11:38:58.000Z</time>
</trkpt>
<trkpt lat="57.291447" lon="9.660827">
<ele>44.633676</ele>
<time>2026-07-16T11:38:59.000Z</time>
</trkpt>
<trkpt lat="57.291481" lon="9.660829">
<ele>44.731216</ele>
<time>2026-07-16T11:39:00.000Z</time>
</trkpt>
<trkpt lat="57.291527" lon="9.660830">
<ele>44.863125</ele>
<time>2026-07-16T11:39:01.000Z</time>
</trkpt>
<trkpt lat="57.291569" lon="9.660833">
<ele>44.983644</ele>
<time>2026-07-16T11:39:02.000Z</time>
</trkpt>
<trkpt lat="57.291607" lon="9.660835">
<ele>45.092649</ele>
<time>2026-07-16T11:39:03.000Z</time>
</trkpt>
<trkpt lat="57.291645" lon="9.660835">
<ele>45.201609</ele>
<time>2026-07-16T11:39:04.000Z</time>
</trkpt>
<trkpt lat="57.291687" lon="9.660836">
<ele>45.322049</ele>
<time>2026-07-16T11:39:05.000Z</time>
</trkpt>
<trkpt lat="57.291729" lon="9.660840">
<ele>45.442638</ele>
<time>2026-07-16T11:39:06.000Z</time>
</trkpt>
<trkpt lat="57.291763" lon="9.660842">
<ele>45.540178</ele>
<time>2026-07-16T11:39:07.000Z</time>
</trkpt>
<trkpt lat="57.291805" lon="9.660836">
<ele>45.660966</ele>
<time>2026-07-16T11:39:08.000Z</time>
</trkpt>
<trkpt lat="57.291851" lon="9.660822">
<ele>45.794637</ele>
<time>2026-07-16T11:39:09.000Z</time>
</trkpt>
<trkpt lat="57.291893" lon="9.660795">
<ele>45.922126</ele>
<time>2026-07-16T11:39:10.000Z</time>
</trkpt>
<trkpt lat="57.291927" lon="9.660754">
<ele>46.038487</ele>
<time>2026-07-16T11:39:11.000Z</time>
</trkpt>
<trkpt lat="57.291965" lon="9.660696">
<ele>46.179726</ele>
<time>2026-07-16T11:39:12.000Z</time>
</trkpt>
<trkpt lat="57.291996" lon="9.660622">
<ele>46.324802</ele>
<time>2026-07-16T11:39:13.000Z</time>
</trkpt>
<trkpt lat="57.292023" lon="9.660542">
<ele>46.470946</ele>
<time>2026-07-16T11:39:14.000Z</time>
</trkpt>
<trkpt lat="57.292053" lon="9.660457">
<ele>46.628250</ele>
<time>2026-07-16T11:39:15.000Z</time>
</trkpt>
<trkpt lat="57.292091" lon="9.660377">
<ele>46.793285</ele>
<time>2026-07-16T11:39:16.000Z</time>
</trkpt>
<trkpt lat="57.292129" lon="9.660315">
<ele>46.938545</ele>
<time>2026-07-16T11:39:17.000Z</time>
</trkpt>
<trkpt lat="57.292179" lon="9.660266">
<ele>47.100775</ele>
<time>2026-07-16T11:39:18.000Z</time>
</trkpt>
<trkpt lat="57.292232" lon="9.660238">
<ele>47.188514</ele>
<time>2026-07-16T11:39:19.000Z</time>
</trkpt>
<trkpt lat="57.292286" lon="9.660230">
<ele>47.172772</ele>
<time>2026-07-16T11:39:20.000Z</time>
</trkpt>
<trkpt lat="57.292336" lon="9.660232">
<ele>47.158239</ele>
<time>2026-07-16T11:39:21.000Z</time>
</trkpt>
<trkpt lat="57.292385" lon="9.660239">
<ele>47.143958</ele>
<time>2026-07-16T11:39:22.000Z</time>
</trkpt>
<trkpt lat="57.292431" lon="9.660250">
<ele>47.130480</ele>
<time>2026-07-16T11:39:23.000Z</time>
</trkpt>
<trkpt lat="57.292477" lon="9.660263">
<ele>47.116958</ele>
<time>2026-07-16T11:39:24.000Z</time>
</trkpt>
<trkpt lat="57.292519" lon="9.660276">
<ele>47.104584</ele>
<time>2026-07-16T11:39:25.000Z</time>
</trkpt>
<trkpt lat="57.292561" lon="9.660289">
<ele>47.092210</ele>
<time>2026-07-16T11:39:26.000Z</time>
</trkpt>
<trkpt lat="57.292603" lon="9.660304">
<ele>47.079780</ele>
<time>2026-07-16T11:39:27.000Z</time>
</trkpt>
<trkpt lat="57.292652" lon="9.660325">
<ele>47.065164</ele>
<time>2026-07-16T11:39:28.000Z</time>
</trkpt>
<trkpt lat="57.292686" lon="9.660353">
<ele>47.054350</ele>
<time>2026-07-16T11:39:29.000Z</time>
</trkpt>
<trkpt lat="57.292728" lon="9.660388">
<ele>47.040966</ele>
<time>2026-07-16T11:39:30.000Z</time>
</trkpt>
<trkpt lat="57.292763" lon="9.660426">
<ele>47.029174</ele>
<time>2026-07-16T11:39:31.000Z</time>
</trkpt>
<trkpt lat="57.292793" lon="9.660477">
<ele>47.017337</ele>
<time>2026-07-16T11:39:32.000Z</time>
</trkpt>
<trkpt lat="57.292824" lon="9.660535">
<ele>47.004527</ele>
<time>2026-07-16T11:39:33.000Z</time>
</trkpt>
<trkpt lat="57.292854" lon="9.660611">
<ele>46.989749</ele>
<time>2026-07-16T11:39:34.000Z</time>
</trkpt>
<trkpt lat="57.292877" lon="9.660697">
<ele>46.974682</ele>
<time>2026-07-16T11:39:35.000Z</time>
</trkpt>
<trkpt lat="57.292889" lon="9.660797">
<ele>46.958598</ele>
<time>2026-07-16T11:39:36.000Z</time>
</trkpt>
<trkpt lat="57.292892" lon="9.660893">
<ele>46.943499</ele>
<time>2026-07-16T11:39:37.000Z</time>
</trkpt>
<trkpt lat="57.292889" lon="9.660993">
<ele>46.927773</ele>
<time>2026-07-16T11:39:38.000Z</time>
</trkpt>
<trkpt lat="57.292889" lon="9.661085">
<ele>46.913328</ele>
<time>2026-07-16T11:39:39.000Z</time>
</trkpt>
<trkpt lat="57.292889" lon="9.661187">
<ele>46.897312</ele>
<time>2026-07-16T11:39:40.000Z</time>
</trkpt>
<trkpt lat="57.292889" lon="9.661291">
<ele>46.880982</ele>
<time>2026-07-16T11:39:41.000Z</time>
</trkpt>
<trkpt lat="57.292892" lon="9.661397">
<ele>46.864316</ele>
<time>2026-07-16T11:39:42.000Z</time>
</trkpt>
<trkpt lat="57.292892" lon="9.661504">
<ele>46.847515</ele>
<time>2026-07-16T11:39:43.000Z</time>
</trkpt>
<trkpt lat="57.292900" lon="9.661608">
<ele>46.831020</ele>
<time>2026-07-16T11:39:44.000Z</time>
</trkpt>
<trkpt lat="57.292908" lon="9.661718">
<ele>46.813593</ele>
<time>2026-07-16T11:39:45.000Z</time>
</trkpt>
<trkpt lat="57.292919" lon="9.661829">
<ele>46.795873</ele>
<time>2026-07-16T11:39:46.000Z</time>
</trkpt>
<trkpt lat="57.292931" lon="9.661941">
<ele>46.777945</ele>
<time>2026-07-16T11:39:47.000Z</time>
</trkpt>
<trkpt lat="57.292946" lon="9.662052">
<ele>46.759980</ele>
<time>2026-07-16T11:39:48.000Z</time>
</trkpt>
<trkpt lat="57.292954" lon="9.662161">
<ele>46.742708</ele>
<time>2026-07-16T11:39:49.000Z</time>
</trkpt>
<trkpt lat="57.292965" lon="9.662275">
<ele>46.724525</ele>
<time>2026-07-16T11:39:50.000Z</time>
</trkpt>
<trkpt lat="57.292973" lon="9.662390">
<ele>46.706319</ele>
<time>2026-07-16T11:39:51.000Z</time>
</trkpt>
<trkpt lat="57.292980" lon="9.662506">
<ele>46.687992</ele>
<time>2026-07-16T11:39:52.000Z</time>
</trkpt>
<trkpt lat="57.292992" lon="9.662625">
<ele>46.661150</ele>
<time>2026-07-16T11:39:53.000Z</time>
</trkpt>
<trkpt lat="57.293003" lon="9.662746">
<ele>46.596672</ele>
<time>2026-07-16T11:39:54.000Z</time>
</trkpt>
<trkpt lat="57.293011" lon="9.662862">
<ele>46.535220</ele>
<time>2026-07-16T11:39:55.000Z</time>
</trkpt>
<trkpt lat="57.293018" lon="9.662973">
<ele>46.476494</ele>
<time>2026-07-16T11:39:56.000Z</time>
</trkpt>
<trkpt lat="57.293030" lon="9.663098">
<ele>46.409778</ele>
<time>2026-07-16T11:39:57.000Z</time>
</trkpt>
<trkpt lat="57.293041" lon="9.663197">
<ele>46.356666</ele>
<time>2026-07-16T11:39:58.000Z</time>
</trkpt>
<trkpt lat="57.293057" lon="9.663330">
<ele>46.285063</ele>
<time>2026-07-16T11:39:59.000Z</time>
</trkpt>
<trkpt lat="57.293076" lon="9.663450">
<ele>46.219353</ele>
<time>2026-07-16T11:40:00.000Z</time>
</trkpt>
<trkpt lat="57.293095" lon="9.663562">
<ele>46.157665</ele>
<time>2026-07-16T11:40:01.000Z</time>
</trkpt>
<trkpt lat="57.293114" lon="9.663675">
<ele>46.095475</ele>
<time>2026-07-16T11:40:02.000Z</time>
</trkpt>
<trkpt lat="57.293133" lon="9.663790">
<ele>46.032282</ele>
<time>2026-07-16T11:40:03.000Z</time>
</trkpt>
<trkpt lat="57.293152" lon="9.663906">
<ele>45.968585</ele>
<time>2026-07-16T11:40:04.000Z</time>
</trkpt>
<trkpt lat="57.293171" lon="9.664021">
<ele>45.905392</ele>
<time>2026-07-16T11:40:05.000Z</time>
</trkpt>
<trkpt lat="57.293186" lon="9.664126">
<ele>45.848319</ele>
<time>2026-07-16T11:40:06.000Z</time>
</trkpt>
<trkpt lat="57.293213" lon="9.664235">
<ele>45.785308</ele>
<time>2026-07-16T11:40:07.000Z</time>
</trkpt>
<trkpt lat="57.293240" lon="9.664342">
<ele>45.723252</ele>
<time>2026-07-16T11:40:08.000Z</time>
</trkpt>
<trkpt lat="57.293274" lon="9.664438">
<ele>45.662934</ele>
<time>2026-07-16T11:40:09.000Z</time>
</trkpt>
<trkpt lat="57.293308" lon="9.664522">
<ele>45.607781</ele>
<time>2026-07-16T11:40:10.000Z</time>
</trkpt>
<trkpt lat="57.293354" lon="9.664613">
<ele>45.542298</ele>
<time>2026-07-16T11:40:11.000Z</time>
</trkpt>
<trkpt lat="57.293400" lon="9.664694">
<ele>45.480548</ele>
<time>2026-07-16T11:40:12.000Z</time>
</trkpt>
<trkpt lat="57.293449" lon="9.664769">
<ele>45.418708</ele>
<time>2026-07-16T11:40:13.000Z</time>
</trkpt>
<trkpt lat="57.293499" lon="9.664840">
<ele>45.357418</ele>
<time>2026-07-16T11:40:14.000Z</time>
</trkpt>
<trkpt lat="57.293552" lon="9.664911">
<ele>45.293788</ele>
<time>2026-07-16T11:40:15.000Z</time>
</trkpt>
<trkpt lat="57.293602" lon="9.664974">
<ele>45.234962</ele>
<time>2026-07-16T11:40:16.000Z</time>
</trkpt>
<trkpt lat="57.293655" lon="9.665043">
<ele>45.171943</ele>
<time>2026-07-16T11:40:17.000Z</time>
</trkpt>
<trkpt lat="57.293701" lon="9.665121">
<ele>45.111269</ele>
<time>2026-07-16T11:40:18.000Z</time>
</trkpt>
<trkpt lat="57.293743" lon="9.665196">
<ele>45.054509</ele>
<time>2026-07-16T11:40:19.000Z</time>
</trkpt>
<trkpt lat="57.293781" lon="9.665277">
<ele>44.998140</ele>
<time>2026-07-16T11:40:20.000Z</time>
</trkpt>
<trkpt lat="57.293816" lon="9.665361">
<ele>44.942400</ele>
<time>2026-07-16T11:40:21.000Z</time>
</trkpt>
<trkpt lat="57.293846" lon="9.665458">
<ele>44.912277</ele>
<time>2026-07-16T11:40:22.000Z</time>
</trkpt>
<trkpt lat="57.293873" lon="9.665559">
<ele>44.896022</ele>
<time>2026-07-16T11:40:23.000Z</time>
</trkpt>
<trkpt lat="57.293888" lon="9.665672">
<ele>44.879237</ele>
<time>2026-07-16T11:40:24.000Z</time>
</trkpt>
<trkpt lat="57.293907" lon="9.665778">
<ele>44.863128</ele>
<time>2026-07-16T11:40:25.000Z</time>
</trkpt>
<trkpt lat="57.293926" lon="9.665894">
<ele>44.845643</ele>
<time>2026-07-16T11:40:26.000Z</time>
</trkpt>
<trkpt lat="57.293945" lon="9.666006">
<ele>44.828710</ele>
<time>2026-07-16T11:40:27.000Z</time>
</trkpt>
<trkpt lat="57.293964" lon="9.666117">
<ele>44.811914</ele>
<time>2026-07-16T11:40:28.000Z</time>
</trkpt>
<trkpt lat="57.293983" lon="9.666217">
<ele>44.796623</ele>
<time>2026-07-16T11:40:29.000Z</time>
</trkpt>
<trkpt lat="57.294006" lon="9.666315">
<ele>44.781211</ele>
<time>2026-07-16T11:40:30.000Z</time>
</trkpt>
<trkpt lat="57.294022" lon="9.666412">
<ele>44.766582</ele>
<time>2026-07-16T11:40:31.000Z</time>
</trkpt>
<trkpt lat="57.294033" lon="9.666530">
<ele>44.749309</ele>
<time>2026-07-16T11:40:32.000Z</time>
</trkpt>
<trkpt lat="57.294033" lon="9.666650">
<ele>44.731999</ele>
<time>2026-07-16T11:40:33.000Z</time>
</trkpt>
<trkpt lat="57.294029" lon="9.666773">
<ele>44.714225</ele>
<time>2026-07-16T11:40:34.000Z</time>
</trkpt>
<trkpt lat="57.294022" lon="9.666893">
<ele>44.696815</ele>
<time>2026-07-16T11:40:35.000Z</time>
</trkpt>
<trkpt lat="57.294010" lon="9.667017">
<ele>44.678643</ele>
<time>2026-07-16T11:40:36.000Z</time>
</trkpt>
<trkpt lat="57.294006" lon="9.667139">
<ele>44.661013</ele>
<time>2026-07-16T11:40:37.000Z</time>
</trkpt>
<trkpt lat="57.293995" lon="9.667261">
<ele>44.643171</ele>
<time>2026-07-16T11:40:38.000Z</time>
</trkpt>
<trkpt lat="57.293987" lon="9.667385">
<ele>44.625157</ele>
<time>2026-07-16T11:40:39.000Z</time>
</trkpt>
<trkpt lat="57.293983" lon="9.667509">
<ele>44.607239</ele>
<time>2026-07-16T11:40:40.000Z</time>
</trkpt>
<trkpt lat="57.293980" lon="9.667634">
<ele>44.589190</ele>
<time>2026-07-16T11:40:41.000Z</time>
</trkpt>
<trkpt lat="57.293976" lon="9.667758">
<ele>44.571272</ele>
<time>2026-07-16T11:40:42.000Z</time>
</trkpt>
<trkpt lat="57.293968" lon="9.667882">
<ele>44.553258</ele>
<time>2026-07-16T11:40:43.000Z</time>
</trkpt>
<trkpt lat="57.293961" lon="9.668007">
<ele>44.535130</ele>
<time>2026-07-16T11:40:44.000Z</time>
</trkpt>
<trkpt lat="57.293957" lon="9.668132">
<ele>44.517068</ele>
<time>2026-07-16T11:40:45.000Z</time>
</trkpt>
<trkpt lat="57.293949" lon="9.668250">
<ele>44.499913</ele>
<time>2026-07-16T11:40:46.000Z</time>
</trkpt>
<trkpt lat="57.293941" lon="9.668370">
<ele>44.482472</ele>
<time>2026-07-16T11:40:47.000Z</time>
</trkpt>
<trkpt lat="57.293941" lon="9.668502">
<ele>44.463431</ele>
<time>2026-07-16T11:40:48.000Z</time>
</trkpt>
<trkpt lat="57.293938" lon="9.668623">
<ele>44.445959</ele>
<time>2026-07-16T11:40:49.000Z</time>
</trkpt>
<trkpt lat="57.293934" lon="9.668740">
<ele>44.497662</ele>
<time>2026-07-16T11:40:50.000Z</time>
</trkpt>
<trkpt lat="57.293934" lon="9.668848">
<ele>44.559083</ele>
<time>2026-07-16T11:40:51.000Z</time>
</trkpt>
<trkpt lat="57.293934" lon="9.668962">
<ele>44.623915</ele>
<time>2026-07-16T11:40:52.000Z</time>
</trkpt>
<trkpt lat="57.293934" lon="9.669069">
<ele>44.684767</ele>
<time>2026-07-16T11:40:53.000Z</time>
</trkpt>
<trkpt lat="57.293934" lon="9.669172">
<ele>44.743344</ele>
<time>2026-07-16T11:40:54.000Z</time>
</trkpt>
<trkpt lat="57.293938" lon="9.669269">
<ele>44.798669</ele>
<time>2026-07-16T11:40:55.000Z</time>
</trkpt>
<trkpt lat="57.293938" lon="9.669351">
<ele>44.845304</ele>
<time>2026-07-16T11:40:56.000Z</time>
</trkpt>
<trkpt lat="57.293941" lon="9.669417">
<ele>44.882971</ele>
<time>2026-07-16T11:40:57.000Z</time>
</trkpt>
<trkpt lat="57.293957" lon="9.669466">
<ele>44.915531</ele>
<time>2026-07-16T11:40:58.000Z</time>
</trkpt>
<trkpt lat="57.293980" lon="9.669491">
<ele>44.943605</ele>
<time>2026-07-16T11:40:59.000Z</time>
</trkpt>
<trkpt lat="57.294022" lon="9.669488">
<ele>44.987844</ele>
<time>2026-07-16T11:41:00.000Z</time>
</trkpt>
<trkpt lat="57.294056" lon="9.669474">
<ele>45.024505</ele>
<time>2026-07-16T11:41:01.000Z</time>
</trkpt>
<trkpt lat="57.294090" lon="9.669458">
<ele>45.061429</ele>
<time>2026-07-16T11:41:02.000Z</time>
</trkpt>
<trkpt lat="57.294121" lon="9.669445">
<ele>45.094885</ele>
<time>2026-07-16T11:41:03.000Z</time>
</trkpt>
<trkpt lat="57.294151" lon="9.669425">
<ele>45.128447</ele>
<time>2026-07-16T11:41:04.000Z</time>
</trkpt>
<trkpt lat="57.294178" lon="9.669401">
<ele>45.159973</ele>
<time>2026-07-16T11:41:05.000Z</time>
</trkpt>
<trkpt lat="57.294205" lon="9.669376">
<ele>45.191749</ele>
<time>2026-07-16T11:41:06.000Z</time>
</trkpt>
<trkpt lat="57.294228" lon="9.669353">
<ele>45.219265</ele>
<time>2026-07-16T11:41:07.000Z</time>
</trkpt>
<trkpt lat="57.294247" lon="9.669326">
<ele>45.244478</ele>
<time>2026-07-16T11:41:08.000Z</time>
</trkpt>
<trkpt lat="57.294270" lon="9.669301">
<ele>45.272552</ele>
<time>2026-07-16T11:41:09.000Z</time>
</trkpt>
<trkpt lat="57.294292" lon="9.669279">
<ele>45.298871</ele>
<time>2026-07-16T11:41:10.000Z</time>
</trkpt>
<trkpt lat="57.294319" lon="9.669251">
<ele>45.331447</ele>
<time>2026-07-16T11:41:11.000Z</time>
</trkpt>
<trkpt lat="57.294346" lon="9.669225">
<ele>45.363481</ele>
<time>2026-07-16T11:41:12.000Z</time>
</trkpt>
<trkpt lat="57.294376" lon="9.669192">
<ele>45.400213</ele>
<time>2026-07-16T11:41:13.000Z</time>
</trkpt>
<trkpt lat="57.294403" lon="9.669161">
<ele>45.433656</ele>
<time>2026-07-16T11:41:14.000Z</time>
</trkpt>
<trkpt lat="57.294430" lon="9.669122">
<ele>45.469704</ele>
<time>2026-07-16T11:41:15.000Z</time>
</trkpt>
<trkpt lat="57.294476" lon="9.669068">
<ele>45.527039</ele>
<time>2026-07-16T11:41:16.000Z</time>
</trkpt>
<trkpt lat="57.294525" lon="9.669004">
<ele>45.590162</ele>
<time>2026-07-16T11:41:17.000Z</time>
</trkpt>
<trkpt lat="57.294575" lon="9.668933">
<ele>45.656494</ele>
<time>2026-07-16T11:41:18.000Z</time>
</trkpt>
<trkpt lat="57.294620" lon="9.668849">
<ele>45.723764</ele>
<time>2026-07-16T11:41:19.000Z</time>
</trkpt>
<trkpt lat="57.294655" lon="9.668761">
<ele>45.785906</ele>
<time>2026-07-16T11:41:20.000Z</time>
</trkpt>
<trkpt lat="57.294689" lon="9.668671">
<ele>45.848358</ele>
<time>2026-07-16T11:41:21.000Z</time>
</trkpt>
<trkpt lat="57.294716" lon="9.668576">
<ele>45.909403</ele>
<time>2026-07-16T11:41:22.000Z</time>
</trkpt>
<trkpt lat="57.294743" lon="9.668476">
<ele>45.972978</ele>
<time>2026-07-16T11:41:23.000Z</time>
</trkpt>
<trkpt lat="57.294766" lon="9.668382">
<ele>46.031661</ele>
<time>2026-07-16T11:41:24.000Z</time>
</trkpt>
<trkpt lat="57.294785" lon="9.668287">
<ele>46.089269</ele>
<time>2026-07-16T11:41:25.000Z</time>
</trkpt>
<trkpt lat="57.294800" lon="9.668196">
<ele>46.143375</ele>
<time>2026-07-16T11:41:26.000Z</time>
</trkpt>
<trkpt lat="57.294815" lon="9.668107">
<ele>46.196394</ele>
<time>2026-07-16T11:41:27.000Z</time>
</trkpt>
<trkpt lat="57.294834" lon="9.668019">
<ele>46.250287</ele>
<time>2026-07-16T11:41:28.000Z</time>
</trkpt>
<trkpt lat="57.294857" lon="9.667933">
<ele>46.304858</ele>
<time>2026-07-16T11:41:29.000Z</time>
</trkpt>
<trkpt lat="57.294880" lon="9.667848">
<ele>46.350083</ele>
<time>2026-07-16T11:41:30.000Z</time>
</trkpt>
<trkpt lat="57.294907" lon="9.667765">
<ele>46.383895</ele>
<time>2026-07-16T11:41:31.000Z</time>
</trkpt>
<trkpt lat="57.294933" lon="9.667681">
<ele>46.417682</ele>
<time>2026-07-16T11:41:32.000Z</time>
</trkpt>
<trkpt lat="57.294964" lon="9.667601">
<ele>46.452040</ele>
<time>2026-07-16T11:41:33.000Z</time>
</trkpt>
<trkpt lat="57.294998" lon="9.667531">
<ele>46.484891</ele>
<time>2026-07-16T11:41:34.000Z</time>
</trkpt>
<trkpt lat="57.295036" lon="9.667457">
<ele>46.520521</ele>
<time>2026-07-16T11:41:35.000Z</time>
</trkpt>
<trkpt lat="57.295086" lon="9.667394">
<ele>46.559592</ele>
<time>2026-07-16T11:41:36.000Z</time>
</trkpt>
<trkpt lat="57.295124" lon="9.667335">
<ele>46.591631</ele>
<time>2026-07-16T11:41:37.000Z</time>
</trkpt>
<trkpt lat="57.295166" lon="9.667276">
<ele>46.625689</ele>
<time>2026-07-16T11:41:38.000Z</time>
</trkpt>
<trkpt lat="57.295208" lon="9.667212">
<ele>46.660831</ele>
<time>2026-07-16T11:41:39.000Z</time>
</trkpt>
<trkpt lat="57.295246" lon="9.667150">
<ele>46.693552</ele>
<time>2026-07-16T11:41:40.000Z</time>
</trkpt>
<trkpt lat="57.295288" lon="9.667083">
<ele>46.729368</ele>
<time>2026-07-16T11:41:41.000Z</time>
</trkpt>
<trkpt lat="57.295322" lon="9.667010">
<ele>46.763004</ele>
<time>2026-07-16T11:41:42.000Z</time>
</trkpt>
<trkpt lat="57.295357" lon="9.666933">
<ele>46.798123</ele>
<time>2026-07-16T11:41:43.000Z</time>
</trkpt>
<trkpt lat="57.295391" lon="9.666853">
<ele>46.833645</ele>
<time>2026-07-16T11:41:44.000Z</time>
</trkpt>
<trkpt lat="57.295425" lon="9.666770">
<ele>46.869997</ele>
<time>2026-07-16T11:41:45.000Z</time>
</trkpt>
<trkpt lat="57.295456" lon="9.666684">
<ele>46.906077</ele>
<time>2026-07-16T11:41:46.000Z</time>
</trkpt>
<trkpt lat="57.295483" lon="9.666597">
<ele>46.941093</ele>
<time>2026-07-16T11:41:47.000Z</time>
</trkpt>
<trkpt lat="57.295509" lon="9.666509">
<ele>46.976097</ele>
<time>2026-07-16T11:41:48.000Z</time>
</trkpt>
<trkpt lat="57.295536" lon="9.666424">
<ele>47.010509</ele>
<time>2026-07-16T11:41:49.000Z</time>
</trkpt>
<trkpt lat="57.295563" lon="9.666340">
<ele>47.044620</ele>
<time>2026-07-16T11:41:50.000Z</time>
</trkpt>
<trkpt lat="57.295589" lon="9.666256">
<ele>47.078406</ele>
<time>2026-07-16T11:41:51.000Z</time>
</trkpt>
<trkpt lat="57.295616" lon="9.666173">
<ele>47.112218</ele>
<time>2026-07-16T11:41:52.000Z</time>
</trkpt>
<trkpt lat="57.295639" lon="9.666091">
<ele>47.144463</ele>
<time>2026-07-16T11:41:53.000Z</time>
</trkpt>
<trkpt lat="57.295662" lon="9.666007">
<ele>47.177329</ele>
<time>2026-07-16T11:41:54.000Z</time>
</trkpt>
<trkpt lat="57.295685" lon="9.665918">
<ele>47.211760</ele>
<time>2026-07-16T11:41:55.000Z</time>
</trkpt>
<trkpt lat="57.295715" lon="9.665833">
<ele>47.247193</ele>
<time>2026-07-16T11:41:56.000Z</time>
</trkpt>
<trkpt lat="57.295738" lon="9.665742">
<ele>47.282255</ele>
<time>2026-07-16T11:41:57.000Z</time>
</trkpt>
<trkpt lat="57.295765" lon="9.665652">
<ele>47.318182</ele>
<time>2026-07-16T11:41:58.000Z</time>
</trkpt>
<trkpt lat="57.295795" lon="9.665559">
<ele>47.355984</ele>
<time>2026-07-16T11:41:59.000Z</time>
</trkpt>
<trkpt lat="57.295826" lon="9.665464">
<ele>47.394716</ele>
<time>2026-07-16T11:42:00.000Z</time>
</trkpt>
<trkpt lat="57.295856" lon="9.665370">
<ele>47.432818</ele>
<time>2026-07-16T11:42:01.000Z</time>
</trkpt>
<trkpt lat="57.295876" lon="9.665275">
<ele>47.468401</ele>
<time>2026-07-16T11:42:02.000Z</time>
</trkpt>
<trkpt lat="57.295891" lon="9.665180">
<ele>47.495371</ele>
<time>2026-07-16T11:42:03.000Z</time>
</trkpt>
<trkpt lat="57.295906" lon="9.665087">
<ele>47.478900</ele>
<time>2026-07-16T11:42:04.000Z</time>
</trkpt>
<trkpt lat="57.295918" lon="9.664988">
<ele>47.461680</ele>
<time>2026-07-16T11:42:05.000Z</time>
</trkpt>
<trkpt lat="57.295929" lon="9.664892">
<ele>47.445026</ele>
<time>2026-07-16T11:42:06.000Z</time>
</trkpt>
<trkpt lat="57.295944" lon="9.664799">
<ele>47.428554</ele>
<time>2026-07-16T11:42:07.000Z</time>
</trkpt>
<trkpt lat="57.295967" lon="9.664707">
<ele>47.411350</ele>
<time>2026-07-16T11:42:08.000Z</time>
</trkpt>
<trkpt lat="57.295990" lon="9.664614">
<ele>47.393992</ele>
<time>2026-07-16T11:42:09.000Z</time>
</trkpt>
<trkpt lat="57.296013" lon="9.664523">
<ele>47.376942</ele>
<time>2026-07-16T11:42:10.000Z</time>
</trkpt>
<trkpt lat="57.296043" lon="9.664436">
<ele>47.359426</ele>
<time>2026-07-16T11:42:11.000Z</time>
</trkpt>
<trkpt lat="57.296074" lon="9.664352">
<ele>47.342162</ele>
<time>2026-07-16T11:42:12.000Z</time>
</trkpt>
<trkpt lat="57.296108" lon="9.664276">
<ele>47.325416</ele>
<time>2026-07-16T11:42:13.000Z</time>
</trkpt>
<trkpt lat="57.296146" lon="9.664206">
<ele>47.308575</ele>
<time>2026-07-16T11:42:14.000Z</time>
</trkpt>
<trkpt lat="57.296188" lon="9.664140">
<ele>47.291269</ele>
<time>2026-07-16T11:42:15.000Z</time>
</trkpt>
<trkpt lat="57.296230" lon="9.664072">
<ele>47.273741</ele>
<time>2026-07-16T11:42:16.000Z</time>
</trkpt>
<trkpt lat="57.296268" lon="9.663997">
<ele>47.256292</ele>
<time>2026-07-16T11:42:17.000Z</time>
</trkpt>
<trkpt lat="57.296310" lon="9.663926">
<ele>47.238425</ele>
<time>2026-07-16T11:42:18.000Z</time>
</trkpt>
<trkpt lat="57.296356" lon="9.663857">
<ele>47.219826</ele>
<time>2026-07-16T11:42:19.000Z</time>
</trkpt>
<trkpt lat="57.296402" lon="9.663787">
<ele>47.201120</ele>
<time>2026-07-16T11:42:20.000Z</time>
</trkpt>
<trkpt lat="57.296448" lon="9.663713">
<ele>47.181976</ele>
<time>2026-07-16T11:42:21.000Z</time>
</trkpt>
<trkpt lat="57.296497" lon="9.663642">
<ele>47.162429</ele>
<time>2026-07-16T11:42:22.000Z</time>
</trkpt>
<trkpt lat="57.296547" lon="9.663567">
<ele>47.142214</ele>
<time>2026-07-16T11:42:23.000Z</time>
</trkpt>
<trkpt lat="57.296597" lon="9.663493">
<ele>47.122104</ele>
<time>2026-07-16T11:42:24.000Z</time>
</trkpt>
<trkpt lat="57.296642" lon="9.663413">
<ele>47.102505</ele>
<time>2026-07-16T11:42:25.000Z</time>
</trkpt>
<trkpt lat="57.296684" lon="9.663332">
<ele>47.083452</ele>
<time>2026-07-16T11:42:26.000Z</time>
</trkpt>
<trkpt lat="57.296734" lon="9.663251">
<ele>47.062581</ele>
<time>2026-07-16T11:42:27.000Z</time>
</trkpt>
<trkpt lat="57.296780" lon="9.663173">
<ele>47.042985</ele>
<time>2026-07-16T11:42:28.000Z</time>
</trkpt>
<trkpt lat="57.296822" lon="9.663096">
<ele>47.024416</ele>
<time>2026-07-16T11:42:29.000Z</time>
</trkpt>
<trkpt lat="57.296864" lon="9.663019">
<ele>47.005847</ele>
<time>2026-07-16T11:42:30.000Z</time>
</trkpt>
<trkpt lat="57.296905" lon="9.662949">
<ele>46.988326</ele>
<time>2026-07-16T11:42:31.000Z</time>
</trkpt>
<trkpt lat="57.296947" lon="9.662888">
<ele>46.971556</ele>
<time>2026-07-16T11:42:32.000Z</time>
</trkpt>
<trkpt lat="57.296997" lon="9.662843">
<ele>46.954093</ele>
<time>2026-07-16T11:42:33.000Z</time>
</trkpt>
<trkpt lat="57.297050" lon="9.662820">
<ele>46.936993</ele>
<time>2026-07-16T11:42:34.000Z</time>
</trkpt>
<trkpt lat="57.297112" lon="9.662815">
<ele>46.811113</ele>
<time>2026-07-16T11:42:35.000Z</time>
</trkpt>
<trkpt lat="57.297173" lon="9.662823">
<ele>46.659008</ele>
<time>2026-07-16T11:42:36.000Z</time>
</trkpt>
<trkpt lat="57.297230" lon="9.662842">
<ele>46.514952</ele>
<time>2026-07-16T11:42:37.000Z</time>
</trkpt>
<trkpt lat="57.297291" lon="9.662864">
<ele>46.360373</ele>
<time>2026-07-16T11:42:38.000Z</time>
</trkpt>
<trkpt lat="57.297356" lon="9.662890">
<ele>46.194967</ele>
<time>2026-07-16T11:42:39.000Z</time>
</trkpt>
<trkpt lat="57.297417" lon="9.662925">
<ele>46.036119</ele>
<time>2026-07-16T11:42:40.000Z</time>
</trkpt>
<trkpt lat="57.297482" lon="9.662961">
<ele>45.867362</ele>
<time>2026-07-16T11:42:41.000Z</time>
</trkpt>
<trkpt lat="57.297546" lon="9.662996">
<ele>45.701373</ele>
<time>2026-07-16T11:42:42.000Z</time>
</trkpt>
<trkpt lat="57.297611" lon="9.663022">
<ele>45.535966</ele>
<time>2026-07-16T11:42:43.000Z</time>
</trkpt>
<trkpt lat="57.297684" lon="9.663050">
<ele>45.350536</ele>
<time>2026-07-16T11:42:44.000Z</time>
</trkpt>
<trkpt lat="57.297752" lon="9.663079">
<ele>45.176969</ele>
<time>2026-07-16T11:42:45.000Z</time>
</trkpt>
<trkpt lat="57.297825" lon="9.663107">
<ele>44.991539</ele>
<time>2026-07-16T11:42:46.000Z</time>
</trkpt>
<trkpt lat="57.297897" lon="9.663135">
<ele>44.808544</ele>
<time>2026-07-16T11:42:47.000Z</time>
</trkpt>
<trkpt lat="57.297966" lon="9.663164">
<ele>44.632552</ele>
<time>2026-07-16T11:42:48.000Z</time>
</trkpt>
<trkpt lat="57.298038" lon="9.663185">
<ele>44.451257</ele>
<time>2026-07-16T11:42:49.000Z</time>
</trkpt>
<trkpt lat="57.298107" lon="9.663203">
<ele>44.277938</ele>
<time>2026-07-16T11:42:50.000Z</time>
</trkpt>
<trkpt lat="57.298176" lon="9.663229">
<ele>44.102794</ele>
<time>2026-07-16T11:42:51.000Z</time>
</trkpt>
<trkpt lat="57.298244" lon="9.663251">
<ele>43.931094</ele>
<time>2026-07-16T11:42:52.000Z</time>
</trkpt>
<trkpt lat="57.298317" lon="9.663270">
<ele>43.747736</ele>
<time>2026-07-16T11:42:53.000Z</time>
</trkpt>
<trkpt lat="57.298386" lon="9.663284">
<ele>43.575084</ele>
<time>2026-07-16T11:42:54.000Z</time>
</trkpt>
<trkpt lat="57.298454" lon="9.663303">
<ele>43.404032</ele>
<time>2026-07-16T11:42:55.000Z</time>
</trkpt>
<trkpt lat="57.298527" lon="9.663325">
<ele>43.220069</ele>
<time>2026-07-16T11:42:56.000Z</time>
</trkpt>
<trkpt lat="57.298599" lon="9.663352">
<ele>43.037346</ele>
<time>2026-07-16T11:42:57.000Z</time>
</trkpt>
<trkpt lat="57.298675" lon="9.663381">
<ele>42.844336</ele>
<time>2026-07-16T11:42:58.000Z</time>
</trkpt>
<trkpt lat="57.298752" lon="9.663405">
<ele>42.650119</ele>
<time>2026-07-16T11:42:59.000Z</time>
</trkpt>
<trkpt lat="57.298824" lon="9.663429">
<ele>42.468153</ele>
<time>2026-07-16T11:43:00.000Z</time>
</trkpt>
<trkpt lat="57.298901" lon="9.663455">
<ele>42.408368</ele>
<time>2026-07-16T11:43:01.000Z</time>
</trkpt>
<trkpt lat="57.298981" lon="9.663489">
<ele>42.352549</ele>
<time>2026-07-16T11:43:02.000Z</time>
</trkpt>
<trkpt lat="57.299057" lon="9.663523">
<ele>42.299379</ele>
<time>2026-07-16T11:43:03.000Z</time>
</trkpt>
<trkpt lat="57.299133" lon="9.663554">
<ele>42.246456</ele>
<time>2026-07-16T11:43:04.000Z</time>
</trkpt>
<trkpt lat="57.299206" lon="9.663585">
<ele>42.195524</ele>
<time>2026-07-16T11:43:05.000Z</time>
</trkpt>
<trkpt lat="57.299282" lon="9.663612">
<ele>42.142898</ele>
<time>2026-07-16T11:43:06.000Z</time>
</trkpt>
<trkpt lat="57.299358" lon="9.663637">
<ele>42.090406</ele>
<time>2026-07-16T11:43:07.000Z</time>
</trkpt>
<trkpt lat="57.299427" lon="9.663664">
<ele>42.042446</ele>
<time>2026-07-16T11:43:08.000Z</time>
</trkpt>
<trkpt lat="57.299496" lon="9.663692">
<ele>41.994410</ele>
<time>2026-07-16T11:43:09.000Z</time>
</trkpt>
<trkpt lat="57.299561" lon="9.663725">
<ele>41.948575</ele>
<time>2026-07-16T11:43:10.000Z</time>
</trkpt>
<trkpt lat="57.299629" lon="9.663758">
<ele>41.900770</ele>
<time>2026-07-16T11:43:11.000Z</time>
</trkpt>
<trkpt lat="57.299694" lon="9.663792">
<ele>41.854836</ele>
<time>2026-07-16T11:43:12.000Z</time>
</trkpt>
<trkpt lat="57.299755" lon="9.663820">
<ele>41.812098</ele>
<time>2026-07-16T11:43:13.000Z</time>
</trkpt>
<trkpt lat="57.299820" lon="9.663841">
<ele>41.767227</ele>
<time>2026-07-16T11:43:14.000Z</time>
</trkpt>
<trkpt lat="57.299877" lon="9.663841">
<ele>41.728466</ele>
<time>2026-07-16T11:43:15.000Z</time>
</trkpt>
<trkpt lat="57.299931" lon="9.663811">
<ele>41.690125</ele>
<time>2026-07-16T11:43:16.000Z</time>
</trkpt>
<trkpt lat="57.299980" lon="9.663750">
<ele>41.649969</ele>
<time>2026-07-16T11:43:17.000Z</time>
</trkpt>
<trkpt lat="57.300011" lon="9.663664">
<ele>41.611987</ele>
<time>2026-07-16T11:43:18.000Z</time>
</trkpt>
<trkpt lat="57.300030" lon="9.663559">
<ele>41.571305</ele>
<time>2026-07-16T11:43:19.000Z</time>
</trkpt>
<trkpt lat="57.300045" lon="9.663448">
<ele>41.529269</ele>
<time>2026-07-16T11:43:20.000Z</time>
</trkpt>
<trkpt lat="57.300056" lon="9.663338">
<ele>41.488171</ele>
<time>2026-07-16T11:43:21.000Z</time>
</trkpt>
<trkpt lat="57.300068" lon="9.663230">
<ele>41.447663</ele>
<time>2026-07-16T11:43:22.000Z</time>
</trkpt>
<trkpt lat="57.300083" lon="9.663120">
<ele>41.405984</ele>
<time>2026-07-16T11:43:23.000Z</time>
</trkpt>
<trkpt lat="57.300095" lon="9.663012">
<ele>41.365476</ele>
<time>2026-07-16T11:43:24.000Z</time>
</trkpt>
<trkpt lat="57.300110" lon="9.662904">
<ele>41.324509</ele>
<time>2026-07-16T11:43:25.000Z</time>
</trkpt>
<trkpt lat="57.300121" lon="9.662797">
<ele>41.284494</ele>
<time>2026-07-16T11:43:26.000Z</time>
</trkpt>
<trkpt lat="57.300133" lon="9.662690">
<ele>41.244346</ele>
<time>2026-07-16T11:43:27.000Z</time>
</trkpt>
<trkpt lat="57.300148" lon="9.662581">
<ele>41.283322</ele>
<time>2026-07-16T11:43:28.000Z</time>
</trkpt>
<trkpt lat="57.300159" lon="9.662473">
<ele>41.341297</ele>
<time>2026-07-16T11:43:29.000Z</time>
</trkpt>
<trkpt lat="57.300171" lon="9.662364">
<ele>41.399977</ele>
<time>2026-07-16T11:43:30.000Z</time>
</trkpt>
<trkpt lat="57.300182" lon="9.662256">
<ele>41.457951</ele>
<time>2026-07-16T11:43:31.000Z</time>
</trkpt>
<trkpt lat="57.300198" lon="9.662149">
<ele>41.516516</ele>
<time>2026-07-16T11:43:32.000Z</time>
</trkpt>
<trkpt lat="57.300213" lon="9.662041">
<ele>41.575340</ele>
<time>2026-07-16T11:43:33.000Z</time>
</trkpt>
<trkpt lat="57.300228" lon="9.661931">
<ele>41.635185</ele>
<time>2026-07-16T11:43:34.000Z</time>
</trkpt>
<trkpt lat="57.300243" lon="9.661820">
<ele>41.695542</ele>
<time>2026-07-16T11:43:35.000Z</time>
</trkpt>
<trkpt lat="57.300255" lon="9.661709">
<ele>41.755256</ele>
<time>2026-07-16T11:43:36.000Z</time>
</trkpt>
<trkpt lat="57.300270" lon="9.661594">
<ele>41.817663</ele>
<time>2026-07-16T11:43:37.000Z</time>
</trkpt>
<trkpt lat="57.300285" lon="9.661483">
<ele>41.878020</ele>
<time>2026-07-16T11:43:38.000Z</time>
</trkpt>
<trkpt lat="57.300297" lon="9.661369">
<ele>41.939286</ele>
<time>2026-07-16T11:43:39.000Z</time>
</trkpt>
<trkpt lat="57.300316" lon="9.661254">
<ele>42.002723</ele>
<time>2026-07-16T11:43:40.000Z</time>
</trkpt>
<trkpt lat="57.300331" lon="9.661141">
<ele>42.064104</ele>
<time>2026-07-16T11:43:41.000Z</time>
</trkpt>
<trkpt lat="57.300343" lon="9.661030">
<ele>42.123818</ele>
<time>2026-07-16T11:43:42.000Z</time>
</trkpt>
<trkpt lat="57.300358" lon="9.660915">
<ele>42.186224</ele>
<time>2026-07-16T11:43:43.000Z</time>
</trkpt>
<trkpt lat="57.300369" lon="9.660803">
<ele>42.246272</ele>
<time>2026-07-16T11:43:44.000Z</time>
</trkpt>
<trkpt lat="57.300384" lon="9.660690">
<ele>42.307653</ele>
<time>2026-07-16T11:43:45.000Z</time>
</trkpt>
<trkpt lat="57.300400" lon="9.660579">
<ele>42.368255</ele>
<time>2026-07-16T11:43:46.000Z</time>
</trkpt>
<trkpt lat="57.300415" lon="9.660468">
<ele>42.428612</ele>
<time>2026-07-16T11:43:47.000Z</time>
</trkpt>
<trkpt lat="57.300426" lon="9.660386">
<ele>42.473181</ele>
<time>2026-07-16T11:43:48.000Z</time>
</trkpt>
<trkpt lat="57.300442" lon="9.660275">
<ele>42.533782</ele>
<time>2026-07-16T11:43:49.000Z</time>
</trkpt>
<trkpt lat="57.300457" lon="9.660164">
<ele>42.594139</ele>
<time>2026-07-16T11:43:50.000Z</time>
</trkpt>
<trkpt lat="57.300468" lon="9.660064">
<ele>42.647971</ele>
<time>2026-07-16T11:43:51.000Z</time>
</trkpt>
<trkpt lat="57.300484" lon="9.659964">
<ele>42.702986</ele>
<time>2026-07-16T11:43:52.000Z</time>
</trkpt>
<trkpt lat="57.300495" lon="9.659864">
<ele>42.756819</ele>
<time>2026-07-16T11:43:53.000Z</time>
</trkpt>
<trkpt lat="57.300507" lon="9.659770">
<ele>42.807770</ele>
<time>2026-07-16T11:43:54.000Z</time>
</trkpt>
<trkpt lat="57.300510" lon="9.659678">
<ele>42.856388</ele>
<time>2026-07-16T11:43:55.000Z</time>
</trkpt>
<trkpt lat="57.300522" lon="9.659597">
<ele>42.900693</ele>
<time>2026-07-16T11:43:56.000Z</time>
</trkpt>
<trkpt lat="57.300537" lon="9.659525">
<ele>42.941400</ele>
<time>2026-07-16T11:43:57.000Z</time>
</trkpt>
<trkpt lat="57.300552" lon="9.659457">
<ele>42.980145</ele>
<time>2026-07-16T11:43:58.000Z</time>
</trkpt>
<trkpt lat="57.300571" lon="9.659400">
<ele>43.004838</ele>
<time>2026-07-16T11:43:59.000Z</time>
</trkpt>
<trkpt lat="57.300594" lon="9.659335">
<ele>43.027058</ele>
<time>2026-07-16T11:44:00.000Z</time>
</trkpt>
<trkpt lat="57.300617" lon="9.659278">
<ele>43.047402</ele>
<time>2026-07-16T11:44:01.000Z</time>
</trkpt>
<trkpt lat="57.300636" lon="9.659226">
<ele>43.065354</ele>
<time>2026-07-16T11:44:02.000Z</time>
</trkpt>
<trkpt lat="57.300655" lon="9.659170">
<ele>43.084264</ele>
<time>2026-07-16T11:44:03.000Z</time>
</trkpt>
<trkpt lat="57.300674" lon="9.659113">
<ele>43.103417</ele>
<time>2026-07-16T11:44:04.000Z</time>
</trkpt>
<trkpt lat="57.300690" lon="9.659057">
<ele>43.121532</ele>
<time>2026-07-16T11:44:05.000Z</time>
</trkpt>
<trkpt lat="57.300705" lon="9.658997">
<ele>43.140438</ele>
<time>2026-07-16T11:44:06.000Z</time>
</trkpt>
<trkpt lat="57.300728" lon="9.658937">
<ele>43.161476</ele>
<time>2026-07-16T11:44:07.000Z</time>
</trkpt>
<trkpt lat="57.300755" lon="9.658878">
<ele>43.183587</ele>
<time>2026-07-16T11:44:08.000Z</time>
</trkpt>
<trkpt lat="57.300785" lon="9.658833">
<ele>43.204026</ele>
<time>2026-07-16T11:44:09.000Z</time>
</trkpt>
<trkpt lat="57.300819" lon="9.658789">
<ele>43.225985</ele>
<time>2026-07-16T11:44:10.000Z</time>
</trkpt>
<trkpt lat="57.300854" lon="9.658761">
<ele>43.246168</ele>
<time>2026-07-16T11:44:11.000Z</time>
</trkpt>
<trkpt lat="57.300888" lon="9.658739">
<ele>43.265233</ele>
<time>2026-07-16T11:44:12.000Z</time>
</trkpt>
<trkpt lat="57.300926" lon="9.658718">
<ele>43.286225</ele>
<time>2026-07-16T11:44:13.000Z</time>
</trkpt>
<trkpt lat="57.300968" lon="9.658696">
<ele>43.309330</ele>
<time>2026-07-16T11:44:14.000Z</time>
</trkpt>
<trkpt lat="57.301014" lon="9.658671">
<ele>43.334706</ele>
<time>2026-07-16T11:44:15.000Z</time>
</trkpt>
<trkpt lat="57.301056" lon="9.658645">
<ele>43.358148</ele>
<time>2026-07-16T11:44:16.000Z</time>
</trkpt>
<trkpt lat="57.301102" lon="9.658610">
<ele>43.384474</ele>
<time>2026-07-16T11:44:17.000Z</time>
</trkpt>
<trkpt lat="57.301144" lon="9.658577">
<ele>43.408626</ele>
<time>2026-07-16T11:44:18.000Z</time>
</trkpt>
<trkpt lat="57.301186" lon="9.658540">
<ele>43.433247</ele>
<time>2026-07-16T11:44:19.000Z</time>
</trkpt>
<trkpt lat="57.301224" lon="9.658502">
<ele>43.456109</ele>
<time>2026-07-16T11:44:20.000Z</time>
</trkpt>
<trkpt lat="57.301266" lon="9.658462">
<ele>43.481111</ele>
<time>2026-07-16T11:44:21.000Z</time>
</trkpt>
<trkpt lat="57.301304" lon="9.658416">
<ele>43.505144</ele>
<time>2026-07-16T11:44:22.000Z</time>
</trkpt>
<trkpt lat="57.301350" lon="9.658353">
<ele>43.535433</ele>
<time>2026-07-16T11:44:23.000Z</time>
</trkpt>
<trkpt lat="57.301392" lon="9.658288">
<ele>43.564411</ele>
<time>2026-07-16T11:44:24.000Z</time>
</trkpt>
<trkpt lat="57.301434" lon="9.658222">
<ele>43.593574</ele>
<time>2026-07-16T11:44:25.000Z</time>
</trkpt>
<trkpt lat="57.301472" lon="9.658155">
<ele>43.621352</ele>
<time>2026-07-16T11:44:26.000Z</time>
</trkpt>
<trkpt lat="57.301506" lon="9.658074">
<ele>43.650685</ele>
<time>2026-07-16T11:44:27.000Z</time>
</trkpt>
<trkpt lat="57.301548" lon="9.657993">
<ele>43.682790</ele>
<time>2026-07-16T11:44:28.000Z</time>
</trkpt>
<trkpt lat="57.301582" lon="9.657902">
<ele>43.714429</ele>
<time>2026-07-16T11:44:29.000Z</time>
</trkpt>
<trkpt lat="57.301617" lon="9.657810">
<ele>43.746605</ele>
<time>2026-07-16T11:44:30.000Z</time>
</trkpt>
<trkpt lat="57.301651" lon="9.657724">
<ele>43.777079</ele>
<time>2026-07-16T11:44:31.000Z</time>
</trkpt>
<trkpt lat="57.301681" lon="9.657644">
<ele>43.804926</ele>
<time>2026-07-16T11:44:32.000Z</time>
</trkpt>
<trkpt lat="57.301716" lon="9.657561">
<ele>43.835035</ele>
<time>2026-07-16T11:44:33.000Z</time>
</trkpt>
<trkpt lat="57.301750" lon="9.657474">
<ele>43.865740</ele>
<time>2026-07-16T11:44:34.000Z</time>
</trkpt>
<trkpt lat="57.301781" lon="9.657388">
<ele>43.895304</ele>
<time>2026-07-16T11:44:35.000Z</time>
</trkpt>
<trkpt lat="57.301807" lon="9.657299">
<ele>43.924236</ele>
<time>2026-07-16T11:44:36.000Z</time>
</trkpt>
<trkpt lat="57.301838" lon="9.657202">
<ele>43.949800</ele>
<time>2026-07-16T11:44:37.000Z</time>
</trkpt>
<trkpt lat="57.301865" lon="9.657101">
<ele>43.964347</ele>
<time>2026-07-16T11:44:38.000Z</time>
</trkpt>
<trkpt lat="57.301891" lon="9.657004">
<ele>43.978325</ele>
<time>2026-07-16T11:44:39.000Z</time>
</trkpt>
<trkpt lat="57.301918" lon="9.656902">
<ele>43.992987</ele>
<time>2026-07-16T11:44:40.000Z</time>
</trkpt>
<trkpt lat="57.301945" lon="9.656808">
<ele>44.006729</ele>
<time>2026-07-16T11:44:41.000Z</time>
</trkpt>
<trkpt lat="57.301968" lon="9.656722">
<ele>44.019116</ele>
<time>2026-07-16T11:44:42.000Z</time>
</trkpt>
<trkpt lat="57.301994" lon="9.656633">
<ele>44.032177</ele>
<time>2026-07-16T11:44:43.000Z</time>
</trkpt>
<trkpt lat="57.302021" lon="9.656549">
<ele>44.044794</ele>
<time>2026-07-16T11:44:44.000Z</time>
</trkpt>
<trkpt lat="57.302044" lon="9.656480">
<ele>44.055260</ele>
<time>2026-07-16T11:44:45.000Z</time>
</trkpt>
<trkpt lat="57.302063" lon="9.656398">
<ele>44.066778</ele>
<time>2026-07-16T11:44:46.000Z</time>
</trkpt>
<trkpt lat="57.302086" lon="9.656316">
<ele>44.078704</ele>
<time>2026-07-16T11:44:47.000Z</time>
</trkpt>
<trkpt lat="57.302109" lon="9.656233">
<ele>44.090745</ele>
<time>2026-07-16T11:44:48.000Z</time>
</trkpt>
<trkpt lat="57.302139" lon="9.656142">
<ele>44.104507</ele>
<time>2026-07-16T11:44:49.000Z</time>
</trkpt>
<trkpt lat="57.302166" lon="9.656065">
<ele>44.116356</ele>
<time>2026-07-16T11:44:50.000Z</time>
</trkpt>
<trkpt lat="57.302193" lon="9.655994">
<ele>44.127564</ele>
<time>2026-07-16T11:44:51.000Z</time>
</trkpt>
<trkpt lat="57.302219" lon="9.655933">
<ele>44.137594</ele>
<time>2026-07-16T11:44:52.000Z</time>
</trkpt>
<trkpt lat="57.302246" lon="9.655880">
<ele>44.146998</ele>
<time>2026-07-16T11:44:53.000Z</time>
</trkpt>
<trkpt lat="57.302273" lon="9.655827">
<ele>44.156401</ele>
<time>2026-07-16T11:44:54.000Z</time>
</trkpt>
<trkpt lat="57.302303" lon="9.655768">
<ele>44.166860</ele>
<time>2026-07-16T11:44:55.000Z</time>
</trkpt>
<trkpt lat="57.302338" lon="9.655715">
<ele>44.177665</ele>
<time>2026-07-16T11:44:56.000Z</time>
</trkpt>
<trkpt lat="57.302368" lon="9.655667">
<ele>44.187140</ele>
<time>2026-07-16T11:44:57.000Z</time>
</trkpt>
<trkpt lat="57.302414" lon="9.655612">
<ele>44.200225</ele>
<time>2026-07-16T11:44:58.000Z</time>
</trkpt>
<trkpt lat="57.302460" lon="9.655561">
<ele>44.213038</ele>
<time>2026-07-16T11:44:59.000Z</time>
</trkpt>
<trkpt lat="57.302506" lon="9.655512">
<ele>44.225719</ele>
<time>2026-07-16T11:45:00.000Z</time>
</trkpt>
<trkpt lat="57.302555" lon="9.655451">
<ele>44.239829</ele>
<time>2026-07-16T11:45:01.000Z</time>
</trkpt>
<trkpt lat="57.302612" lon="9.655390">
<ele>44.255562</ele>
<time>2026-07-16T11:45:02.000Z</time>
</trkpt>
<trkpt lat="57.302673" lon="9.655320">
<ele>44.272711</ele>
<time>2026-07-16T11:45:03.000Z</time>
</trkpt>
<trkpt lat="57.302727" lon="9.655263">
<ele>44.287565</ele>
<time>2026-07-16T11:45:04.000Z</time>
</trkpt>
<trkpt lat="57.302776" lon="9.655204">
<ele>44.301532</ele>
<time>2026-07-16T11:45:05.000Z</time>
</trkpt>
<trkpt lat="57.302830" lon="9.655136">
<ele>44.317138</ele>
<time>2026-07-16T11:45:06.000Z</time>
</trkpt>
<trkpt lat="57.302887" lon="9.655068">
<ele>44.333341</ele>
<time>2026-07-16T11:45:07.000Z</time>
</trkpt>
<trkpt lat="57.302933" lon="9.655005">
<ele>44.347014</ele>
<time>2026-07-16T11:45:08.000Z</time>
</trkpt>
<trkpt lat="57.302982" lon="9.654935">
<ele>44.361804</ele>
<time>2026-07-16T11:45:09.000Z</time>
</trkpt>
<trkpt lat="57.303032" lon="9.654860">
<ele>44.387652</ele>
<time>2026-07-16T11:45:10.000Z</time>
</trkpt>
<trkpt lat="57.303070" lon="9.654779">
<ele>44.448604</ele>
<time>2026-07-16T11:45:11.000Z</time>
</trkpt>
<trkpt lat="57.303108" lon="9.654697">
<ele>44.509987</ele>
<time>2026-07-16T11:45:12.000Z</time>
</trkpt>
<trkpt lat="57.303139" lon="9.654604">
<ele>44.572075</ele>
<time>2026-07-16T11:45:13.000Z</time>
</trkpt>
<trkpt lat="57.303162" lon="9.654509">
<ele>44.631222</ele>
<time>2026-07-16T11:45:14.000Z</time>
</trkpt>
<trkpt lat="57.303181" lon="9.654413">
<ele>44.689310</ele>
<time>2026-07-16T11:45:15.000Z</time>
</trkpt>
<trkpt lat="57.303188" lon="9.654321">
<ele>44.742096</ele>
<time>2026-07-16T11:45:16.000Z</time>
</trkpt>
<trkpt lat="57.303196" lon="9.654226">
<ele>44.796722</ele>
<time>2026-07-16T11:45:17.000Z</time>
</trkpt>
<trkpt lat="57.303196" lon="9.654136">
<ele>44.847856</ele>
<time>2026-07-16T11:45:18.000Z</time>
</trkpt>
<trkpt lat="57.303196" lon="9.654047">
<ele>44.898421</ele>
<time>2026-07-16T11:45:19.000Z</time>
</trkpt>
<trkpt lat="57.303200" lon="9.653955">
<ele>44.950860</ele>
<time>2026-07-16T11:45:20.000Z</time>
</trkpt>
<trkpt lat="57.303207" lon="9.653860">
<ele>45.005334</ele>
<time>2026-07-16T11:45:21.000Z</time>
</trkpt>
<trkpt lat="57.303215" lon="9.653768">
<ele>45.058277</ele>
<time>2026-07-16T11:45:22.000Z</time>
</trkpt>
<trkpt lat="57.303226" lon="9.653676">
<ele>45.111812</ele>
<time>2026-07-16T11:45:23.000Z</time>
</trkpt>
<trkpt lat="57.303242" lon="9.653583">
<ele>45.167265</ele>
<time>2026-07-16T11:45:24.000Z</time>
</trkpt>
<trkpt lat="57.303253" lon="9.653488">
<ele>45.222465</ele>
<time>2026-07-16T11:45:25.000Z</time>
</trkpt>
<trkpt lat="57.303268" lon="9.653396">
<ele>45.277064</ele>
<time>2026-07-16T11:45:26.000Z</time>
</trkpt>
<trkpt lat="57.303280" lon="9.653306">
<ele>45.329732</ele>
<time>2026-07-16T11:45:27.000Z</time>
</trkpt>
<trkpt lat="57.303287" lon="9.653214">
<ele>45.382518</ele>
<time>2026-07-16T11:45:28.000Z</time>
</trkpt>
<trkpt lat="57.303295" lon="9.653124">
<ele>45.434339</ele>
<time>2026-07-16T11:45:29.000Z</time>
</trkpt>
<trkpt lat="57.303303" lon="9.653034">
<ele>45.486160</ele>
<time>2026-07-16T11:45:30.000Z</time>
</trkpt>
<trkpt lat="57.303310" lon="9.652946">
<ele>45.536696</ele>
<time>2026-07-16T11:45:31.000Z</time>
</trkpt>
<trkpt lat="57.303322" lon="9.652856">
<ele>45.589364</ele>
<time>2026-07-16T11:45:32.000Z</time>
</trkpt>
<trkpt lat="57.303329" lon="9.652761">
<ele>45.643838</ele>
<time>2026-07-16T11:45:33.000Z</time>
</trkpt>
<trkpt lat="57.303341" lon="9.652671">
<ele>45.696506</ele>
<time>2026-07-16T11:45:34.000Z</time>
</trkpt>
<trkpt lat="57.303352" lon="9.652578">
<ele>45.750595</ele>
<time>2026-07-16T11:45:35.000Z</time>
</trkpt>
<trkpt lat="57.303364" lon="9.652488">
<ele>45.803263</ele>
<time>2026-07-16T11:45:36.000Z</time>
</trkpt>
<trkpt lat="57.303379" lon="9.652397">
<ele>45.857318</ele>
<time>2026-07-16T11:45:37.000Z</time>
</trkpt>
<trkpt lat="57.303390" lon="9.652307">
<ele>45.909744</ele>
<time>2026-07-16T11:45:38.000Z</time>
</trkpt>
<trkpt lat="57.303406" lon="9.652219">
<ele>45.962497</ele>
<time>2026-07-16T11:45:39.000Z</time>
</trkpt>
<trkpt lat="57.303417" lon="9.652134">
<ele>46.012156</ele>
<time>2026-07-16T11:45:40.000Z</time>
</trkpt>
<trkpt lat="57.303425" lon="9.652050">
<ele>46.060616</ele>
<time>2026-07-16T11:45:41.000Z</time>
</trkpt>
<trkpt lat="57.303429" lon="9.651970">
<ele>46.106262</ele>
<time>2026-07-16T11:45:42.000Z</time>
</trkpt>
<trkpt lat="57.303436" lon="9.651896">
<ele>46.148945</ele>
<time>2026-07-16T11:45:43.000Z</time>
</trkpt>
<trkpt lat="57.303444" lon="9.651851">
<ele>46.175861</ele>
<time>2026-07-16T11:45:44.000Z</time>
</trkpt>
<trkpt lat="57.303463" lon="9.651634">
<ele>46.295973</ele>
<time>2026-07-16T11:48:38.000Z</time>
</trkpt>
<trkpt lat="57.303467" lon="9.651574">
<ele>46.325616</ele>
<time>2026-07-16T11:48:39.000Z</time>
</trkpt>
<trkpt lat="57.303471" lon="9.651509">
<ele>46.357692</ele>
<time>2026-07-16T11:48:40.000Z</time>
</trkpt>
<trkpt lat="57.303474" lon="9.651446">
<ele>46.388702</ele>
<time>2026-07-16T11:48:41.000Z</time>
</trkpt>
<trkpt lat="57.303482" lon="9.651385">
<ele>46.419480</ele>
<time>2026-07-16T11:48:42.000Z</time>
</trkpt>
<trkpt lat="57.303493" lon="9.651322">
<ele>46.451944</ele>
<time>2026-07-16T11:48:43.000Z</time>
</trkpt>
<trkpt lat="57.303501" lon="9.651268">
<ele>46.479399</ele>
<time>2026-07-16T11:48:44.000Z</time>
</trkpt>
<trkpt lat="57.303509" lon="9.651222">
<ele>46.503093</ele>
<time>2026-07-16T11:48:45.000Z</time>
</trkpt>
<trkpt lat="57.303513" lon="9.651177">
<ele>46.525454</ele>
<time>2026-07-16T11:48:46.000Z</time>
</trkpt>
<trkpt lat="57.303513" lon="9.651133">
<ele>46.547028</ele>
<time>2026-07-16T11:48:47.000Z</time>
</trkpt>
<trkpt lat="57.303520" lon="9.651085">
<ele>46.571406</ele>
<time>2026-07-16T11:48:48.000Z</time>
</trkpt>
<trkpt lat="57.303524" lon="9.651032">
<ele>46.597645</ele>
<time>2026-07-16T11:48:49.000Z</time>
</trkpt>
<trkpt lat="57.303532" lon="9.650980">
<ele>46.624156</ele>
<time>2026-07-16T11:48:50.000Z</time>
</trkpt>
<trkpt lat="57.303539" lon="9.650929">
<ele>46.649956</ele>
<time>2026-07-16T11:48:51.000Z</time>
</trkpt>
<trkpt lat="57.303543" lon="9.650879">
<ele>46.674739</ele>
<time>2026-07-16T11:48:52.000Z</time>
</trkpt>
<trkpt lat="57.303547" lon="9.650832">
<ele>46.698069</ele>
<time>2026-07-16T11:48:53.000Z</time>
</trkpt>
<trkpt lat="57.303551" lon="9.650785">
<ele>46.721398</ele>
<time>2026-07-16T11:48:54.000Z</time>
</trkpt>
<trkpt lat="57.303555" lon="9.650743">
<ele>46.742309</ele>
<time>2026-07-16T11:48:55.000Z</time>
</trkpt>
<trkpt lat="57.303558" lon="9.650706">
<ele>46.760654</ele>
<time>2026-07-16T11:48:56.000Z</time>
</trkpt>
<trkpt lat="57.303566" lon="9.650672">
<ele>46.778837</ele>
<time>2026-07-16T11:48:57.000Z</time>
</trkpt>
<trkpt lat="57.303574" lon="9.650637">
<ele>46.797471</ele>
<time>2026-07-16T11:48:58.000Z</time>
</trkpt>
<trkpt lat="57.303585" lon="9.650600">
<ele>46.818179</ele>
<time>2026-07-16T11:48:59.000Z</time>
</trkpt>
<trkpt lat="57.303600" lon="9.650565">
<ele>46.840085</ele>
<time>2026-07-16T11:49:00.000Z</time>
</trkpt>
<trkpt lat="57.303619" lon="9.650531">
<ele>46.864071</ele>
<time>2026-07-16T11:49:01.000Z</time>
</trkpt>
<trkpt lat="57.303638" lon="9.650497">
<ele>46.888057</ele>
<time>2026-07-16T11:49:02.000Z</time>
</trkpt>
<trkpt lat="57.303654" lon="9.650465">
<ele>46.909437</ele>
<time>2026-07-16T11:49:03.000Z</time>
</trkpt>
<trkpt lat="57.303665" lon="9.650434">
<ele>46.927623</ele>
<time>2026-07-16T11:49:04.000Z</time>
</trkpt>
<trkpt lat="57.303680" lon="9.650408">
<ele>46.946274</ele>
<time>2026-07-16T11:49:05.000Z</time>
</trkpt>
<trkpt lat="57.303696" lon="9.650393">
<ele>46.962553</ele>
<time>2026-07-16T11:49:06.000Z</time>
</trkpt>
<trkpt lat="57.303715" lon="9.650384">
<ele>46.980355</ele>
<time>2026-07-16T11:49:07.000Z</time>
</trkpt>
<trkpt lat="57.303726" lon="9.650375">
<ele>46.991271</ele>
<time>2026-07-16T11:49:08.000Z</time>
</trkpt>
<trkpt lat="57.303738" lon="9.650362">
<ele>47.003891</ele>
<time>2026-07-16T11:49:09.000Z</time>
</trkpt>
<trkpt lat="57.303753" lon="9.650343">
<ele>47.020388</ele>
<time>2026-07-16T11:49:10.000Z</time>
</trkpt>
<trkpt lat="57.303768" lon="9.650319">
<ele>47.038384</ele>
<time>2026-07-16T11:49:11.000Z</time>
</trkpt>
<trkpt lat="57.303772" lon="9.650299">
<ele>47.048841</ele>
<time>2026-07-16T11:49:12.000Z</time>
</trkpt>
<trkpt lat="57.303776" lon="9.650287">
<ele>47.055755</ele>
<time>2026-07-16T11:49:13.000Z</time>
</trkpt>
<trkpt lat="57.303780" lon="9.650279">
<ele>47.061100</ele>
<time>2026-07-16T11:49:14.000Z</time>
</trkpt>
<trkpt lat="57.303783" lon="9.650275">
<ele>47.064455</ele>
<time>2026-07-16T11:49:15.000Z</time>
</trkpt>
<trkpt lat="57.303783" lon="9.650275">
<ele>47.064455</ele>
<time>2026-07-16T11:49:18.000Z</time>
</trkpt>
<trkpt lat="57.303829" lon="9.650097">
<ele>47.161205</ele>
<time>2026-07-16T11:49:39.000Z</time>
</trkpt>
<trkpt lat="57.303829" lon="9.650089">
<ele>47.165127</ele>
<time>2026-07-16T11:49:40.000Z</time>
</trkpt>
<trkpt lat="57.303829" lon="9.650085">
<ele>47.167088</ele>
<time>2026-07-16T11:49:41.000Z</time>
</trkpt>
<trkpt lat="57.303837" lon="9.650022">
<ele>47.198820</ele>
<time>2026-07-16T11:49:46.000Z</time>
</trkpt>
<trkpt lat="57.303841" lon="9.649983">
<ele>47.218284</ele>
<time>2026-07-16T11:49:47.000Z</time>
</trkpt>
<trkpt lat="57.303848" lon="9.649944">
<ele>47.238434</ele>
<time>2026-07-16T11:49:48.000Z</time>
</trkpt>
<trkpt lat="57.303852" lon="9.649899">
<ele>47.260795</ele>
<time>2026-07-16T11:49:49.000Z</time>
</trkpt>
<trkpt lat="57.303856" lon="9.649856">
<ele>47.282188</ele>
<time>2026-07-16T11:49:50.000Z</time>
</trkpt>
<trkpt lat="57.303864" lon="9.649814">
<ele>47.304024</ele>
<time>2026-07-16T11:49:51.000Z</time>
</trkpt>
<trkpt lat="57.303871" lon="9.649771">
<ele>47.326044</ele>
<time>2026-07-16T11:49:52.000Z</time>
</trkpt>
<trkpt lat="57.303875" lon="9.649719">
<ele>47.351798</ele>
<time>2026-07-16T11:49:53.000Z</time>
</trkpt>
<trkpt lat="57.303883" lon="9.649665">
<ele>47.379252</ele>
<time>2026-07-16T11:49:54.000Z</time>
</trkpt>
<trkpt lat="57.303890" lon="9.649605">
<ele>47.409349</ele>
<time>2026-07-16T11:49:55.000Z</time>
</trkpt>
<trkpt lat="57.303894" lon="9.649551">
<ele>47.436074</ele>
<time>2026-07-16T11:49:56.000Z</time>
</trkpt>
<trkpt lat="57.303898" lon="9.649499">
<ele>47.461827</ele>
<time>2026-07-16T11:49:57.000Z</time>
</trkpt>
<trkpt lat="57.303905" lon="9.649444">
<ele>47.489533</ele>
<time>2026-07-16T11:49:58.000Z</time>
</trkpt>
<trkpt lat="57.303913" lon="9.649383">
<ele>47.520311</ele>
<time>2026-07-16T11:49:59.000Z</time>
</trkpt>
<trkpt lat="57.303925" lon="9.649317">
<ele>47.554455</ele>
<time>2026-07-16T11:50:00.000Z</time>
</trkpt>
<trkpt lat="57.303928" lon="9.649249">
<ele>47.587907</ele>
<time>2026-07-16T11:50:01.000Z</time>
</trkpt>
<trkpt lat="57.303936" lon="9.649184">
<ele>47.620594</ele>
<time>2026-07-16T11:50:02.000Z</time>
</trkpt>
<trkpt lat="57.303944" lon="9.649124">
<ele>47.650896</ele>
<time>2026-07-16T11:50:03.000Z</time>
</trkpt>
<trkpt lat="57.303951" lon="9.649054">
<ele>47.685801</ele>
<time>2026-07-16T11:50:04.000Z</time>
</trkpt>
<trkpt lat="57.303955" lon="9.648986">
<ele>47.719339</ele>
<time>2026-07-16T11:50:05.000Z</time>
</trkpt>
<trkpt lat="57.303966" lon="9.648923">
<ele>47.751802</ele>
<time>2026-07-16T11:50:06.000Z</time>
</trkpt>
<trkpt lat="57.303974" lon="9.648860">
<ele>47.783534</ele>
<time>2026-07-16T11:50:07.000Z</time>
</trkpt>
<trkpt lat="57.303982" lon="9.648797">
<ele>47.815266</ele>
<time>2026-07-16T11:50:08.000Z</time>
</trkpt>
<trkpt lat="57.303989" lon="9.648732">
<ele>47.847763</ele>
<time>2026-07-16T11:50:09.000Z</time>
</trkpt>
<trkpt lat="57.304001" lon="9.648669">
<ele>47.880517</ele>
<time>2026-07-16T11:50:10.000Z</time>
</trkpt>
<trkpt lat="57.304012" lon="9.648602">
<ele>47.923396</ele>
<time>2026-07-16T11:50:11.000Z</time>
</trkpt>
<trkpt lat="57.304028" lon="9.648534">
<ele>47.978674</ele>
<time>2026-07-16T11:50:12.000Z</time>
</trkpt>
<trkpt lat="57.304043" lon="9.648473">
<ele>48.028626</ele>
<time>2026-07-16T11:50:13.000Z</time>
</trkpt>
<trkpt lat="57.304058" lon="9.648403">
<ele>48.084751</ele>
<time>2026-07-16T11:50:14.000Z</time>
</trkpt>
<trkpt lat="57.304073" lon="9.648339">
<ele>48.136746</ele>
<time>2026-07-16T11:50:15.000Z</time>
</trkpt>
<trkpt lat="57.304085" lon="9.648274">
<ele>48.187941</ele>
<time>2026-07-16T11:50:16.000Z</time>
</trkpt>
<trkpt lat="57.304100" lon="9.648211">
<ele>48.239253</ele>
<time>2026-07-16T11:50:17.000Z</time>
</trkpt>
<trkpt lat="57.304111" lon="9.648148">
<ele>48.288598</ele>
<time>2026-07-16T11:50:18.000Z</time>
</trkpt>
<trkpt lat="57.304123" lon="9.648087">
<ele>48.336981</ele>
<time>2026-07-16T11:50:19.000Z</time>
</trkpt>
<trkpt lat="57.304138" lon="9.648024">
<ele>48.388293</ele>
<time>2026-07-16T11:50:20.000Z</time>
</trkpt>
<trkpt lat="57.304157" lon="9.647965">
<ele>48.439486</ele>
<time>2026-07-16T11:50:21.000Z</time>
</trkpt>
<trkpt lat="57.304176" lon="9.647913">
<ele>48.486274</ele>
<time>2026-07-16T11:50:22.000Z</time>
</trkpt>
<trkpt lat="57.304199" lon="9.647871">
<ele>48.530848</ele>
<time>2026-07-16T11:50:23.000Z</time>
</trkpt>
<trkpt lat="57.304226" lon="9.647848">
<ele>48.571854</ele>
<time>2026-07-16T11:50:24.000Z</time>
</trkpt>
<trkpt lat="57.304256" lon="9.647837">
<ele>48.614050</ele>
<time>2026-07-16T11:50:25.000Z</time>
</trkpt>
<trkpt lat="57.304287" lon="9.647829">
<ele>48.657234</ele>
<time>2026-07-16T11:50:26.000Z</time>
</trkpt>
<trkpt lat="57.304321" lon="9.647821">
<ele>48.704521</ele>
<time>2026-07-16T11:50:27.000Z</time>
</trkpt>
<trkpt lat="57.304356" lon="9.647811">
<ele>48.753383</ele>
<time>2026-07-16T11:50:28.000Z</time>
</trkpt>
<trkpt lat="57.304386" lon="9.647802">
<ele>48.795314</ele>
<time>2026-07-16T11:50:29.000Z</time>
</trkpt>
<trkpt lat="57.304417" lon="9.647796">
<ele>48.838318</ele>
<time>2026-07-16T11:50:30.000Z</time>
</trkpt>
<trkpt lat="57.304443" lon="9.647791">
<ele>48.874383</ele>
<time>2026-07-16T11:50:31.000Z</time>
</trkpt>
<trkpt lat="57.304470" lon="9.647777">
<ele>48.913069</ele>
<time>2026-07-16T11:50:32.000Z</time>
</trkpt>
<trkpt lat="57.304489" lon="9.647755">
<ele>48.943988</ele>
<time>2026-07-16T11:50:33.000Z</time>
</trkpt>
<trkpt lat="57.304504" lon="9.647726">
<ele>48.973912</ele>
<time>2026-07-16T11:50:34.000Z</time>
</trkpt>
<trkpt lat="57.304523" lon="9.647683">
<ele>49.015315</ele>
<time>2026-07-16T11:50:35.000Z</time>
</trkpt>
<trkpt lat="57.304539" lon="9.647637">
<ele>49.056090</ele>
<time>2026-07-16T11:50:36.000Z</time>
</trkpt>
<trkpt lat="57.304550" lon="9.647585">
<ele>49.097711</ele>
<time>2026-07-16T11:50:37.000Z</time>
</trkpt>
<trkpt lat="57.304562" lon="9.647532">
<ele>49.140540</ele>
<time>2026-07-16T11:50:38.000Z</time>
</trkpt>
<trkpt lat="57.304569" lon="9.647481">
<ele>49.179757</ele>
<time>2026-07-16T11:50:39.000Z</time>
</trkpt>
<trkpt lat="57.304577" lon="9.647421">
<ele>49.225816</ele>
<time>2026-07-16T11:50:40.000Z</time>
</trkpt>
<trkpt lat="57.304581" lon="9.647365">
<ele>49.267915</ele>
<time>2026-07-16T11:50:41.000Z</time>
</trkpt>
<trkpt lat="57.304588" lon="9.647310">
<ele>49.310027</ele>
<time>2026-07-16T11:50:42.000Z</time>
</trkpt>
<trkpt lat="57.304592" lon="9.647257">
<ele>49.349911</ele>
<time>2026-07-16T11:50:43.000Z</time>
</trkpt>
<trkpt lat="57.304600" lon="9.647208">
<ele>49.388061</ele>
<time>2026-07-16T11:50:44.000Z</time>
</trkpt>
<trkpt lat="57.304604" lon="9.647162">
<ele>49.422785</ele>
<time>2026-07-16T11:50:45.000Z</time>
</trkpt>
<trkpt lat="57.304615" lon="9.647125">
<ele>49.454261</ele>
<time>2026-07-16T11:50:46.000Z</time>
</trkpt>
<trkpt lat="57.304623" lon="9.647097">
<ele>49.477868</ele>
<time>2026-07-16T11:50:47.000Z</time>
</trkpt>
<trkpt lat="57.304638" lon="9.647078">
<ele>49.502944</ele>
<time>2026-07-16T11:50:48.000Z</time>
</trkpt>
<trkpt lat="57.304657" lon="9.647065">
<ele>49.530892</ele>
<time>2026-07-16T11:50:49.000Z</time>
</trkpt>
<trkpt lat="57.304676" lon="9.647059">
<ele>49.557485</ele>
<time>2026-07-16T11:50:50.000Z</time>
</trkpt>
<trkpt lat="57.304691" lon="9.647060">
<ele>49.578194</ele>
<time>2026-07-16T11:50:51.000Z</time>
</trkpt>
<trkpt lat="57.304764" lon="9.647063">
<ele>49.678937</ele>
<time>2026-07-16T11:50:57.000Z</time>
</trkpt>
<trkpt lat="57.304791" lon="9.647077">
<ele>49.717623</ele>
<time>2026-07-16T11:50:58.000Z</time>
</trkpt>
<trkpt lat="57.304813" lon="9.647087">
<ele>49.748878</ele>
<time>2026-07-16T11:50:59.000Z</time>
</trkpt>
<trkpt lat="57.304844" lon="9.647101">
<ele>49.792903</ele>
<time>2026-07-16T11:51:00.000Z</time>
</trkpt>
<trkpt lat="57.304871" lon="9.647117">
<ele>49.832017</ele>
<time>2026-07-16T11:51:01.000Z</time>
</trkpt>
<trkpt lat="57.304901" lon="9.647131">
<ele>49.874702</ele>
<time>2026-07-16T11:51:02.000Z</time>
</trkpt>
<trkpt lat="57.304928" lon="9.647143">
<ele>49.913013</ele>
<time>2026-07-16T11:51:03.000Z</time>
</trkpt>
<trkpt lat="57.304958" lon="9.647152">
<ele>49.954944</ele>
<time>2026-07-16T11:51:04.000Z</time>
</trkpt>
<trkpt lat="57.304985" lon="9.647161">
<ele>49.992795</ele>
<time>2026-07-16T11:51:05.000Z</time>
</trkpt>
<trkpt lat="57.305012" lon="9.647171">
<ele>50.030785</ele>
<time>2026-07-16T11:51:06.000Z</time>
</trkpt>
<trkpt lat="57.305038" lon="9.647178">
<ele>50.067035</ele>
<time>2026-07-16T11:51:07.000Z</time>
</trkpt>
<trkpt lat="57.305065" lon="9.647191">
<ele>50.105526</ele>
<time>2026-07-16T11:51:08.000Z</time>
</trkpt>
<trkpt lat="57.305096" lon="9.647208">
<ele>50.150134</ele>
<time>2026-07-16T11:51:09.000Z</time>
</trkpt>
<trkpt lat="57.305122" lon="9.647227">
<ele>50.188700</ele>
<time>2026-07-16T11:51:10.000Z</time>
</trkpt>
<trkpt lat="57.305141" lon="9.647243">
<ele>50.217499</ele>
<time>2026-07-16T11:51:11.000Z</time>
</trkpt>
<trkpt lat="57.305157" lon="9.647254">
<ele>50.241047</ele>
<time>2026-07-16T11:51:12.000Z</time>
</trkpt>
<trkpt lat="57.305168" lon="9.647259">
<ele>50.256675</ele>
<time>2026-07-16T11:51:13.000Z</time>
</trkpt>
<trkpt lat="57.305168" lon="9.647257">
<ele>50.258165</ele>
<time>2026-07-16T11:51:14.000Z</time>
</trkpt>
<trkpt lat="57.305164" lon="9.647255">
<ele>50.263882</ele>
<time>2026-07-16T11:51:15.000Z</time>
</trkpt>
<trkpt lat="57.305206" lon="9.647254">
<ele>50.321834</ele>
<time>2026-07-16T11:51:38.000Z</time>
</trkpt>
<trkpt lat="57.305237" lon="9.647262">
<ele>50.365018</ele>
<time>2026-07-16T11:51:39.000Z</time>
</trkpt>
<trkpt lat="57.305279" lon="9.647284">
<ele>50.359299</ele>
<time>2026-07-16T11:51:40.000Z</time>
</trkpt>
<trkpt lat="57.305309" lon="9.647306">
<ele>50.338906</ele>
<time>2026-07-16T11:51:41.000Z</time>
</trkpt>
<trkpt lat="57.305355" lon="9.647330">
<ele>50.308704</ele>
<time>2026-07-16T11:51:42.000Z</time>
</trkpt>
<trkpt lat="57.305397" lon="9.647355">
<ele>50.280823</ele>
<time>2026-07-16T11:51:43.000Z</time>
</trkpt>
<trkpt lat="57.305439" lon="9.647379">
<ele>50.253045</ele>
<time>2026-07-16T11:51:44.000Z</time>
</trkpt>
<trkpt lat="57.305481" lon="9.647406">
<ele>50.224947</ele>
<time>2026-07-16T11:51:45.000Z</time>
</trkpt>
<trkpt lat="57.305527" lon="9.647436">
<ele>50.194126</ele>
<time>2026-07-16T11:51:46.000Z</time>
</trkpt>
<trkpt lat="57.305573" lon="9.647468">
<ele>50.163071</ele>
<time>2026-07-16T11:51:47.000Z</time>
</trkpt>
<trkpt lat="57.305618" lon="9.647504">
<ele>50.132091</ele>
<time>2026-07-16T11:51:48.000Z</time>
</trkpt>
<trkpt lat="57.305664" lon="9.647538">
<ele>50.100789</ele>
<time>2026-07-16T11:51:49.000Z</time>
</trkpt>
<trkpt lat="57.305706" lon="9.647568">
<ele>50.072340</ele>
<time>2026-07-16T11:51:50.000Z</time>
</trkpt>
<trkpt lat="57.305756" lon="9.647595">
<ele>50.039425</ele>
<time>2026-07-16T11:51:51.000Z</time>
</trkpt>
<trkpt lat="57.305805" lon="9.647620">
<ele>50.007304</ele>
<time>2026-07-16T11:51:52.000Z</time>
</trkpt>
<trkpt lat="57.305855" lon="9.647644">
<ele>49.974661</ele>
<time>2026-07-16T11:51:53.000Z</time>
</trkpt>
<trkpt lat="57.305889" lon="9.647668">
<ele>49.951665</ele>
<time>2026-07-16T11:51:54.000Z</time>
</trkpt>
<trkpt lat="57.305923" lon="9.647691">
<ele>49.928789</ele>
<time>2026-07-16T11:51:55.000Z</time>
</trkpt>
<trkpt lat="57.305939" lon="9.647692">
<ele>49.918672</ele>
<time>2026-07-16T11:51:56.000Z</time>
</trkpt>
<trkpt lat="57.305943" lon="9.647680">
<ele>49.913858</ele>
<time>2026-07-16T11:51:57.000Z</time>
</trkpt>
<trkpt lat="57.305935" lon="9.647669">
<ele>49.907561</ele>
<time>2026-07-16T11:51:58.000Z</time>
</trkpt>
<trkpt lat="57.305927" lon="9.647661">
<ele>49.901814</ele>
<time>2026-07-16T11:51:59.000Z</time>
</trkpt>
<trkpt lat="57.305916" lon="9.647655">
<ele>49.894567</ele>
<time>2026-07-16T11:52:00.000Z</time>
</trkpt>
<trkpt lat="57.305893" lon="9.647655">
<ele>49.880032</ele>
<time>2026-07-16T11:52:01.000Z</time>
</trkpt>
<trkpt lat="57.305870" lon="9.647648">
<ele>49.865302</ele>
<time>2026-07-16T11:52:02.000Z</time>
</trkpt>
<trkpt lat="57.305847" lon="9.647635">
<ele>49.850104</ele>
<time>2026-07-16T11:52:03.000Z</time>
</trkpt>
<trkpt lat="57.305828" lon="9.647618">
<ele>49.836768</ele>
<time>2026-07-16T11:52:04.000Z</time>
</trkpt>
<trkpt lat="57.305809" lon="9.647600">
<ele>49.823280</ele>
<time>2026-07-16T11:52:05.000Z</time>
</trkpt>
<trkpt lat="57.305790" lon="9.647587">
<ele>49.810479</ele>
<time>2026-07-16T11:52:06.000Z</time>
</trkpt>
<trkpt lat="57.305786" lon="9.647583">
<ele>49.807606</ele>
<time>2026-07-16T11:52:07.000Z</time>
</trkpt>
<trkpt lat="57.305786" lon="9.647582">
<ele>49.807264</ele>
<time>2026-07-16T11:52:09.000Z</time>
</trkpt>
<trkpt lat="57.305813" lon="9.647612">
<ele>49.787364</ele>
<time>2026-07-16T11:52:49.000Z</time>
</trkpt>
<trkpt lat="57.305836" lon="9.647630">
<ele>49.771584</ele>
<time>2026-07-16T11:52:50.000Z</time>
</trkpt>
<trkpt lat="57.305862" lon="9.647648">
<ele>49.754041</ele>
<time>2026-07-16T11:52:51.000Z</time>
</trkpt>
<trkpt lat="57.305893" lon="9.647667">
<ele>49.733405</ele>
<time>2026-07-16T11:52:52.000Z</time>
</trkpt>
<trkpt lat="57.305923" lon="9.647687">
<ele>49.713254</ele>
<time>2026-07-16T11:52:53.000Z</time>
</trkpt>
<trkpt lat="57.305958" lon="9.647705">
<ele>49.690298</ele>
<time>2026-07-16T11:52:54.000Z</time>
</trkpt>
<trkpt lat="57.305988" lon="9.647722">
<ele>49.670470</ele>
<time>2026-07-16T11:52:55.000Z</time>
</trkpt>
<trkpt lat="57.306023" lon="9.647741">
<ele>49.647420</ele>
<time>2026-07-16T11:52:56.000Z</time>
</trkpt>
<trkpt lat="57.306053" lon="9.647762">
<ele>49.627151</ele>
<time>2026-07-16T11:52:57.000Z</time>
</trkpt>
<trkpt lat="57.306091" lon="9.647784">
<ele>49.601990</ele>
<time>2026-07-16T11:52:58.000Z</time>
</trkpt>
<trkpt lat="57.306126" lon="9.647809">
<ele>49.578282</ele>
<time>2026-07-16T11:52:59.000Z</time>
</trkpt>
<trkpt lat="57.306160" lon="9.647835">
<ele>49.555034</ele>
<time>2026-07-16T11:53:00.000Z</time>
</trkpt>
<trkpt lat="57.306194" lon="9.647859">
<ele>49.532038</ele>
<time>2026-07-16T11:53:01.000Z</time>
</trkpt>
<trkpt lat="57.306225" lon="9.647881">
<ele>49.511057</ele>
<time>2026-07-16T11:53:02.000Z</time>
</trkpt>
<trkpt lat="57.306259" lon="9.647903">
<ele>49.488296</ele>
<time>2026-07-16T11:53:03.000Z</time>
</trkpt>
<trkpt lat="57.306293" lon="9.647925">
<ele>49.465535</ele>
<time>2026-07-16T11:53:04.000Z</time>
</trkpt>
<trkpt lat="57.306328" lon="9.647949">
<ele>49.441947</ele>
<time>2026-07-16T11:53:05.000Z</time>
</trkpt>
<trkpt lat="57.306362" lon="9.647977">
<ele>49.418431</ele>
<time>2026-07-16T11:53:06.000Z</time>
</trkpt>
<trkpt lat="57.306400" lon="9.648007">
<ele>49.392324</ele>
<time>2026-07-16T11:53:07.000Z</time>
</trkpt>
<trkpt lat="57.306438" lon="9.648038">
<ele>49.366081</ele>
<time>2026-07-16T11:53:08.000Z</time>
</trkpt>
<trkpt lat="57.306480" lon="9.648070">
<ele>49.337379</ele>
<time>2026-07-16T11:53:09.000Z</time>
</trkpt>
<trkpt lat="57.306526" lon="9.648110">
<ele>49.305261</ele>
<time>2026-07-16T11:53:10.000Z</time>
</trkpt>
<trkpt lat="57.306568" lon="9.648154">
<ele>49.274764</ele>
<time>2026-07-16T11:53:11.000Z</time>
</trkpt>
<trkpt lat="57.306618" lon="9.648199">
<ele>49.247553</ele>
<time>2026-07-16T11:53:12.000Z</time>
</trkpt>
<trkpt lat="57.306667" lon="9.648244">
<ele>49.286920</ele>
<time>2026-07-16T11:53:13.000Z</time>
</trkpt>
<trkpt lat="57.306717" lon="9.648293">
<ele>49.327636</ele>
<time>2026-07-16T11:53:14.000Z</time>
</trkpt>
<trkpt lat="57.306763" lon="9.648341">
<ele>49.365640</ele>
<time>2026-07-16T11:53:15.000Z</time>
</trkpt>
<trkpt lat="57.306808" lon="9.648397">
<ele>49.404663</ele>
<time>2026-07-16T11:53:16.000Z</time>
</trkpt>
<trkpt lat="57.306854" lon="9.648451">
<ele>49.443865</ele>
<time>2026-07-16T11:53:17.000Z</time>
</trkpt>
<trkpt lat="57.306896" lon="9.648511">
<ele>49.482046</ele>
<time>2026-07-16T11:53:18.000Z</time>
</trkpt>
<trkpt lat="57.306934" lon="9.648578">
<ele>49.519813</ele>
<time>2026-07-16T11:53:19.000Z</time>
</trkpt>
<trkpt lat="57.306972" lon="9.648656">
<ele>49.560647</ele>
<time>2026-07-16T11:53:20.000Z</time>
</trkpt>
<trkpt lat="57.307003" lon="9.648736">
<ele>49.598922</ele>
<time>2026-07-16T11:53:21.000Z</time>
</trkpt>
<trkpt lat="57.307026" lon="9.648825">
<ele>49.637276</ele>
<time>2026-07-16T11:53:22.000Z</time>
</trkpt>
<trkpt lat="57.307049" lon="9.648913">
<ele>49.675280</ele>
<time>2026-07-16T11:53:23.000Z</time>
</trkpt>
<trkpt lat="57.307068" lon="9.648999">
<ele>49.711401</ele>
<time>2026-07-16T11:53:24.000Z</time>
</trkpt>
<trkpt lat="57.307091" lon="9.649078">
<ele>49.746289</ele>
<time>2026-07-16T11:53:25.000Z</time>
</trkpt>
<trkpt lat="57.307106" lon="9.649157">
<ele>49.778842</ele>
<time>2026-07-16T11:53:26.000Z</time>
</trkpt>
<trkpt lat="57.307125" lon="9.649225">
<ele>49.808604</ele>
<time>2026-07-16T11:53:27.000Z</time>
</trkpt>
<trkpt lat="57.307144" lon="9.649282">
<ele>49.834642</ele>
<time>2026-07-16T11:53:28.000Z</time>
</trkpt>
<trkpt lat="57.307163" lon="9.649333">
<ele>49.858726</ele>
<time>2026-07-16T11:53:29.000Z</time>
</trkpt>
<trkpt lat="57.307186" lon="9.649376">
<ele>49.882252</ele>
<time>2026-07-16T11:53:30.000Z</time>
</trkpt>
<trkpt lat="57.307209" lon="9.649413">
<ele>49.904181</ele>
<time>2026-07-16T11:53:31.000Z</time>
</trkpt>
<trkpt lat="57.307236" lon="9.649445">
<ele>49.927254</ele>
<time>2026-07-16T11:53:32.000Z</time>
</trkpt>
<trkpt lat="57.307266" lon="9.649476">
<ele>49.951981</ele>
<time>2026-07-16T11:53:33.000Z</time>
</trkpt>
<trkpt lat="57.307293" lon="9.649503">
<ele>49.974067</ele>
<time>2026-07-16T11:53:34.000Z</time>
</trkpt>
<trkpt lat="57.307320" lon="9.649533">
<ele>49.996730</ele>
<time>2026-07-16T11:53:35.000Z</time>
</trkpt>
<trkpt lat="57.307354" lon="9.649562">
<ele>50.023672</ele>
<time>2026-07-16T11:53:36.000Z</time>
</trkpt>
<trkpt lat="57.307384" lon="9.649591">
<ele>50.048029</ele>
<time>2026-07-16T11:53:37.000Z</time>
</trkpt>
<trkpt lat="57.307419" lon="9.649623">
<ele>50.076124</ele>
<time>2026-07-16T11:53:38.000Z</time>
</trkpt>
<trkpt lat="57.307453" lon="9.649652">
<ele>50.103066</ele>
<time>2026-07-16T11:53:39.000Z</time>
</trkpt>
<trkpt lat="57.307491" lon="9.649683">
<ele>50.132952</ele>
<time>2026-07-16T11:53:40.000Z</time>
</trkpt>
<trkpt lat="57.307529" lon="9.649714">
<ele>50.162839</ele>
<time>2026-07-16T11:53:41.000Z</time>
</trkpt>
<trkpt lat="57.307568" lon="9.649742">
<ele>50.192944</ele>
<time>2026-07-16T11:53:42.000Z</time>
</trkpt>
<trkpt lat="57.307610" lon="9.649777">
<ele>50.226093</ele>
<time>2026-07-16T11:53:43.000Z</time>
</trkpt>
<trkpt lat="57.307648" lon="9.649813">
<ele>50.256815</ele>
<time>2026-07-16T11:53:44.000Z</time>
</trkpt>
<trkpt lat="57.307686" lon="9.649850">
<ele>50.287716</ele>
<time>2026-07-16T11:53:45.000Z</time>
</trkpt>
<trkpt lat="57.307724" lon="9.649883">
<ele>50.317924</ele>
<time>2026-07-16T11:53:46.000Z</time>
</trkpt>
<trkpt lat="57.307766" lon="9.649921">
<ele>50.351568</ele>
<time>2026-07-16T11:53:47.000Z</time>
</trkpt>
<trkpt lat="57.307804" lon="9.649955">
<ele>50.381944</ele>
<time>2026-07-16T11:53:48.000Z</time>
</trkpt>
<trkpt lat="57.307842" lon="9.649984">
<ele>50.411525</ele>
<time>2026-07-16T11:53:49.000Z</time>
</trkpt>
<trkpt lat="57.307880" lon="9.650018">
<ele>50.441901</ele>
<time>2026-07-16T11:53:50.000Z</time>
</trkpt>
<trkpt lat="57.307919" lon="9.650052">
<ele>50.472926</ele>
<time>2026-07-16T11:53:51.000Z</time>
</trkpt>
<trkpt lat="57.307957" lon="9.650091">
<ele>50.504196</ele>
<time>2026-07-16T11:53:52.000Z</time>
</trkpt>
<trkpt lat="57.307999" lon="9.650134">
<ele>50.535512</ele>
<time>2026-07-16T11:53:53.000Z</time>
</trkpt>
<trkpt lat="57.308044" lon="9.650181">
<ele>50.438466</ele>
<time>2026-07-16T11:53:54.000Z</time>
</trkpt>
<trkpt lat="57.308090" lon="9.650230">
<ele>50.338784</ele>
<time>2026-07-16T11:53:55.000Z</time>
</trkpt>
<trkpt lat="57.308136" lon="9.650287">
<ele>50.234817</ele>
<time>2026-07-16T11:53:56.000Z</time>
</trkpt>
<trkpt lat="57.308178" lon="9.650348">
<ele>50.134551</ele>
<time>2026-07-16T11:53:57.000Z</time>
</trkpt>
<trkpt lat="57.308224" lon="9.650417">
<ele>50.023351</ele>
<time>2026-07-16T11:53:58.000Z</time>
</trkpt>
<trkpt lat="57.308273" lon="9.650491">
<ele>49.904579</ele>
<time>2026-07-16T11:53:59.000Z</time>
</trkpt>
<trkpt lat="57.308319" lon="9.650566">
<ele>49.789450</ele>
<time>2026-07-16T11:54:00.000Z</time>
</trkpt>
<trkpt lat="57.308369" lon="9.650640">
<ele>49.669216</ele>
<time>2026-07-16T11:54:01.000Z</time>
</trkpt>
<trkpt lat="57.308418" lon="9.650711">
<ele>49.552344</ele>
<time>2026-07-16T11:54:02.000Z</time>
</trkpt>
<trkpt lat="57.308468" lon="9.650780">
<ele>49.435211</ele>
<time>2026-07-16T11:54:03.000Z</time>
</trkpt>
<trkpt lat="57.308517" lon="9.650848">
<ele>49.320190</ele>
<time>2026-07-16T11:54:04.000Z</time>
</trkpt>
<trkpt lat="57.308567" lon="9.650913">
<ele>49.205436</ele>
<time>2026-07-16T11:54:05.000Z</time>
</trkpt>
<trkpt lat="57.308617" lon="9.650978">
<ele>49.090682</ele>
<time>2026-07-16T11:54:06.000Z</time>
</trkpt>
<trkpt lat="57.308662" lon="9.651042">
<ele>48.984099</ele>
<time>2026-07-16T11:54:07.000Z</time>
</trkpt>
<trkpt lat="57.308712" lon="9.651112">
<ele>48.866357</ele>
<time>2026-07-16T11:54:08.000Z</time>
</trkpt>
<trkpt lat="57.308758" lon="9.651176">
<ele>48.758279</ele>
<time>2026-07-16T11:54:09.000Z</time>
</trkpt>
<trkpt lat="57.308804" lon="9.651244">
<ele>48.647715</ele>
<time>2026-07-16T11:54:10.000Z</time>
</trkpt>
<trkpt lat="57.308853" lon="9.651308">
<ele>48.535082</ele>
<time>2026-07-16T11:54:11.000Z</time>
</trkpt>
<trkpt lat="57.308899" lon="9.651372">
<ele>48.427004</ele>
<time>2026-07-16T11:54:12.000Z</time>
</trkpt>
<trkpt lat="57.308949" lon="9.651437">
<ele>48.312250</ele>
<time>2026-07-16T11:54:13.000Z</time>
</trkpt>
<trkpt lat="57.308994" lon="9.651502">
<ele>48.205047</ele>
<time>2026-07-16T11:54:14.000Z</time>
</trkpt>
<trkpt lat="57.309040" lon="9.651569">
<ele>48.095113</ele>
<time>2026-07-16T11:54:15.000Z</time>
</trkpt>
<trkpt lat="57.309090" lon="9.651636">
<ele>47.979182</ele>
<time>2026-07-16T11:54:16.000Z</time>
</trkpt>
<trkpt lat="57.309135" lon="9.651705">
<ele>47.869436</ele>
<time>2026-07-16T11:54:17.000Z</time>
</trkpt>
<trkpt lat="57.309181" lon="9.651772">
<ele>47.759503</ele>
<time>2026-07-16T11:54:18.000Z</time>
</trkpt>
<trkpt lat="57.309231" lon="9.651848">
<ele>47.637994</ele>
<time>2026-07-16T11:54:19.000Z</time>
</trkpt>
<trkpt lat="57.309277" lon="9.651920">
<ele>47.524854</ele>
<time>2026-07-16T11:54:20.000Z</time>
</trkpt>
<trkpt lat="57.309326" lon="9.651992">
<ele>47.407355</ele>
<time>2026-07-16T11:54:21.000Z</time>
</trkpt>
<trkpt lat="57.309376" lon="9.652069">
<ele>47.285200</ele>
<time>2026-07-16T11:54:22.000Z</time>
</trkpt>
<trkpt lat="57.309425" lon="9.652147">
<ele>47.163823</ele>
<time>2026-07-16T11:54:23.000Z</time>
</trkpt>
<trkpt lat="57.309475" lon="9.652222">
<ele>46.979844</ele>
<time>2026-07-16T11:54:24.000Z</time>
</trkpt>
<trkpt lat="57.309525" lon="9.652300">
<ele>46.790504</ele>
<time>2026-07-16T11:54:25.000Z</time>
</trkpt>
<trkpt lat="57.309570" lon="9.652376">
<ele>46.614116</ele>
<time>2026-07-16T11:54:26.000Z</time>
</trkpt>
<trkpt lat="57.309616" lon="9.652459">
<ele>46.428110</ele>
<time>2026-07-16T11:54:27.000Z</time>
</trkpt>
<trkpt lat="57.309650" lon="9.652547">
<ele>46.258878</ele>
<time>2026-07-16T11:54:28.000Z</time>
</trkpt>
<trkpt lat="57.309677" lon="9.652646">
<ele>46.085413</ele>
<time>2026-07-16T11:54:29.000Z</time>
</trkpt>
<trkpt lat="57.309704" lon="9.652757">
<ele>45.895005</ele>
<time>2026-07-16T11:54:30.000Z</time>
</trkpt>
<trkpt lat="57.309723" lon="9.652871">
<ele>45.708403</ele>
<time>2026-07-16T11:54:31.000Z</time>
</trkpt>
<trkpt lat="57.309742" lon="9.652989">
<ele>45.515815</ele>
<time>2026-07-16T11:54:32.000Z</time>
</trkpt>
<trkpt lat="57.309757" lon="9.653107">
<ele>45.326210</ele>
<time>2026-07-16T11:54:33.000Z</time>
</trkpt>
<trkpt lat="57.309765" lon="9.653227">
<ele>45.137096</ele>
<time>2026-07-16T11:54:34.000Z</time>
</trkpt>
<trkpt lat="57.309776" lon="9.653348">
<ele>44.945181</ele>
<time>2026-07-16T11:54:35.000Z</time>
</trkpt>
<trkpt lat="57.309788" lon="9.653475">
<ele>44.743526</ele>
<time>2026-07-16T11:54:36.000Z</time>
</trkpt>
<trkpt lat="57.309799" lon="9.653601">
<ele>44.543895</ele>
<time>2026-07-16T11:54:37.000Z</time>
</trkpt>
<trkpt lat="57.309811" lon="9.653725">
<ele>44.346860</ele>
<time>2026-07-16T11:54:38.000Z</time>
</trkpt>
<trkpt lat="57.309833" lon="9.653846">
<ele>44.147171</ele>
<time>2026-07-16T11:54:39.000Z</time>
</trkpt>
<trkpt lat="57.309864" lon="9.653966">
<ele>43.939117</ele>
<time>2026-07-16T11:54:40.000Z</time>
</trkpt>
<trkpt lat="57.309895" lon="9.654075">
<ele>43.746441</ele>
<time>2026-07-16T11:54:41.000Z</time>
</trkpt>
<trkpt lat="57.309936" lon="9.654185">
<ele>43.537401</ele>
<time>2026-07-16T11:54:42.000Z</time>
</trkpt>
<trkpt lat="57.309978" lon="9.654287">
<ele>43.336789</ele>
<time>2026-07-16T11:54:43.000Z</time>
</trkpt>
<trkpt lat="57.310024" lon="9.654384">
<ele>43.134891</ele>
<time>2026-07-16T11:54:44.000Z</time>
</trkpt>
<trkpt lat="57.310074" lon="9.654476">
<ele>42.930755</ele>
<time>2026-07-16T11:54:45.000Z</time>
</trkpt>
<trkpt lat="57.310123" lon="9.654558">
<ele>42.739485</ele>
<time>2026-07-16T11:54:46.000Z</time>
</trkpt>
<trkpt lat="57.310181" lon="9.654642">
<ele>42.526241</ele>
<time>2026-07-16T11:54:47.000Z</time>
</trkpt>
<trkpt lat="57.310234" lon="9.654726">
<ele>42.324206</ele>
<time>2026-07-16T11:54:48.000Z</time>
</trkpt>
<trkpt lat="57.310295" lon="9.654803">
<ele>42.110408</ele>
<time>2026-07-16T11:54:49.000Z</time>
</trkpt>
<trkpt lat="57.310360" lon="9.654873">
<ele>41.904545</ele>
<time>2026-07-16T11:54:50.000Z</time>
</trkpt>
<trkpt lat="57.310425" lon="9.654933">
<ele>41.737303</ele>
<time>2026-07-16T11:54:51.000Z</time>
</trkpt>
<trkpt lat="57.310493" lon="9.654985">
<ele>41.567893</ele>
<time>2026-07-16T11:54:52.000Z</time>
</trkpt>
<trkpt lat="57.310562" lon="9.655031">
<ele>41.399024</ele>
<time>2026-07-16T11:54:53.000Z</time>
</trkpt>
<trkpt lat="57.310631" lon="9.655076">
<ele>41.230573</ele>
<time>2026-07-16T11:54:54.000Z</time>
</trkpt>
<trkpt lat="57.310703" lon="9.655119">
<ele>41.056370</ele>
<time>2026-07-16T11:54:55.000Z</time>
</trkpt>
<trkpt lat="57.310776" lon="9.655166">
<ele>40.878403</ele>
<time>2026-07-16T11:54:56.000Z</time>
</trkpt>
<trkpt lat="57.310841" lon="9.655216">
<ele>40.716328</ele>
<time>2026-07-16T11:54:57.000Z</time>
</trkpt>
<trkpt lat="57.310909" lon="9.655273">
<ele>40.544449</ele>
<time>2026-07-16T11:54:58.000Z</time>
</trkpt>
<trkpt lat="57.310970" lon="9.655336">
<ele>40.383613</ele>
<time>2026-07-16T11:54:59.000Z</time>
</trkpt>
<trkpt lat="57.311031" lon="9.655404">
<ele>40.219659</ele>
<time>2026-07-16T11:55:00.000Z</time>
</trkpt>
<trkpt lat="57.311085" lon="9.655482">
<ele>40.061954</ele>
<time>2026-07-16T11:55:01.000Z</time>
</trkpt>
<trkpt lat="57.311134" lon="9.655562">
<ele>39.911525</ele>
<time>2026-07-16T11:55:02.000Z</time>
</trkpt>
<trkpt lat="57.311169" lon="9.655648">
<ele>39.777608</ele>
<time>2026-07-16T11:55:03.000Z</time>
</trkpt>
<trkpt lat="57.311199" lon="9.655746">
<ele>39.637518</ele>
<time>2026-07-16T11:55:04.000Z</time>
</trkpt>
<trkpt lat="57.311214" lon="9.655850">
<ele>39.503650</ele>
<time>2026-07-16T11:55:05.000Z</time>
</trkpt>
<trkpt lat="57.311226" lon="9.655958">
<ele>39.366527</ele>
<time>2026-07-16T11:55:06.000Z</time>
</trkpt>
<trkpt lat="57.311222" lon="9.656073">
<ele>39.223216</ele>
<time>2026-07-16T11:55:07.000Z</time>
</trkpt>
<trkpt lat="57.311214" lon="9.656188">
<ele>39.079019</ele>
<time>2026-07-16T11:55:08.000Z</time>
</trkpt>
<trkpt lat="57.311207" lon="9.656306">
<ele>38.931390</ele>
<time>2026-07-16T11:55:09.000Z</time>
</trkpt>
<trkpt lat="57.311195" lon="9.656430">
<ele>38.774726</ele>
<time>2026-07-16T11:55:10.000Z</time>
</trkpt>
<trkpt lat="57.311188" lon="9.656562">
<ele>38.609780</ele>
<time>2026-07-16T11:55:11.000Z</time>
</trkpt>
<trkpt lat="57.311176" lon="9.656696">
<ele>38.440861</ele>
<time>2026-07-16T11:55:12.000Z</time>
</trkpt>
<trkpt lat="57.311169" lon="9.656830">
<ele>38.273439</ele>
<time>2026-07-16T11:55:13.000Z</time>
</trkpt>
<trkpt lat="57.311161" lon="9.656970">
<ele>38.098361</ele>
<time>2026-07-16T11:55:14.000Z</time>
</trkpt>
<trkpt lat="57.311150" lon="9.657110">
<ele>37.922423</ele>
<time>2026-07-16T11:55:15.000Z</time>
</trkpt>
<trkpt lat="57.311142" lon="9.657251">
<ele>37.772011</ele>
<time>2026-07-16T11:55:16.000Z</time>
</trkpt>
<trkpt lat="57.311134" lon="9.657396">
<ele>37.665341</ele>
<time>2026-07-16T11:55:17.000Z</time>
</trkpt>
<trkpt lat="57.311127" lon="9.657536">
<ele>37.562445</ele>
<time>2026-07-16T11:55:18.000Z</time>
</trkpt>
<trkpt lat="57.311115" lon="9.657682">
<ele>37.454366</ele>
<time>2026-07-16T11:55:19.000Z</time>
</trkpt>
<trkpt lat="57.311104" lon="9.657830">
<ele>37.345032</ele>
<time>2026-07-16T11:55:20.000Z</time>
</trkpt>
<trkpt lat="57.311092" lon="9.657975">
<ele>37.237676</ele>
<time>2026-07-16T11:55:21.000Z</time>
</trkpt>
<trkpt lat="57.311081" lon="9.658119">
<ele>37.131241</ele>
<time>2026-07-16T11:55:22.000Z</time>
</trkpt>
<trkpt lat="57.311073" lon="9.658257">
<ele>37.029667</ele>
<time>2026-07-16T11:55:23.000Z</time>
</trkpt>
<trkpt lat="57.311062" lon="9.658401">
<ele>36.923232</ele>
<time>2026-07-16T11:55:24.000Z</time>
</trkpt>
<trkpt lat="57.311054" lon="9.658540">
<ele>36.820930</ele>
<time>2026-07-16T11:55:25.000Z</time>
</trkpt>
<trkpt lat="57.311047" lon="9.658680">
<ele>36.718033</ele>
<time>2026-07-16T11:55:26.000Z</time>
</trkpt>
<trkpt lat="57.311047" lon="9.658815">
<ele>36.619234</ele>
<time>2026-07-16T11:55:27.000Z</time>
</trkpt>
<trkpt lat="57.311050" lon="9.658949">
<ele>36.521083</ele>
<time>2026-07-16T11:55:28.000Z</time>
</trkpt>
<trkpt lat="57.311058" lon="9.659084">
<ele>36.421691</ele>
<time>2026-07-16T11:55:29.000Z</time>
</trkpt>
<trkpt lat="57.311062" lon="9.659227">
<ele>36.316897</ele>
<time>2026-07-16T11:55:30.000Z</time>
</trkpt>
<trkpt lat="57.311069" lon="9.659368">
<ele>36.213271</ele>
<time>2026-07-16T11:55:31.000Z</time>
</trkpt>
<trkpt lat="57.311073" lon="9.659504">
<ele>36.113593</ele>
<time>2026-07-16T11:55:32.000Z</time>
</trkpt>
<trkpt lat="57.311077" lon="9.659641">
<ele>36.013184</ele>
<time>2026-07-16T11:55:33.000Z</time>
</trkpt>
<trkpt lat="57.311085" lon="9.659784">
<ele>35.907970</ele>
<time>2026-07-16T11:55:34.000Z</time>
</trkpt>
<trkpt lat="57.311096" lon="9.659923">
<ele>35.805158</ele>
<time>2026-07-16T11:55:35.000Z</time>
</trkpt>
<trkpt lat="57.311104" lon="9.660061">
<ele>35.703583</ele>
<time>2026-07-16T11:55:36.000Z</time>
</trkpt>
<trkpt lat="57.311115" lon="9.660198">
<ele>35.602218</ele>
<time>2026-07-16T11:55:37.000Z</time>
</trkpt>
<trkpt lat="57.311123" lon="9.660336">
<ele>35.500644</ele>
<time>2026-07-16T11:55:38.000Z</time>
</trkpt>
<trkpt lat="57.311131" lon="9.660466">
<ele>35.404889</ele>
<time>2026-07-16T11:55:39.000Z</time>
</trkpt>
<trkpt lat="57.311138" lon="9.660605">
<ele>35.313275</ele>
<time>2026-07-16T11:55:40.000Z</time>
</trkpt>
<trkpt lat="57.311142" lon="9.660743">
<ele>35.227597</ele>
<time>2026-07-16T11:55:41.000Z</time>
</trkpt>
<trkpt lat="57.311150" lon="9.660882">
<ele>35.140934</ele>
<time>2026-07-16T11:55:42.000Z</time>
</trkpt>
<trkpt lat="57.311161" lon="9.661023">
<ele>35.052611</ele>
<time>2026-07-16T11:55:43.000Z</time>
</trkpt>
<trkpt lat="57.311172" lon="9.661148">
<ele>34.974094</ele>
<time>2026-07-16T11:55:44.000Z</time>
</trkpt>
<trkpt lat="57.311192" lon="9.661289">
<ele>34.883714</ele>
<time>2026-07-16T11:55:45.000Z</time>
</trkpt>
<trkpt lat="57.311214" lon="9.661418">
<ele>34.799846</ele>
<time>2026-07-16T11:55:46.000Z</time>
</trkpt>
<trkpt lat="57.311234" lon="9.661548">
<ele>34.716044</ele>
<time>2026-07-16T11:55:47.000Z</time>
</trkpt>
<trkpt lat="57.311253" lon="9.661677">
<ele>34.633148</ele>
<time>2026-07-16T11:55:48.000Z</time>
</trkpt>
<trkpt lat="57.311272" lon="9.661801">
<ele>34.553239</ele>
<time>2026-07-16T11:55:49.000Z</time>
</trkpt>
<trkpt lat="57.311295" lon="9.661941">
<ele>34.462517</ele>
<time>2026-07-16T11:55:50.000Z</time>
</trkpt>
<trkpt lat="57.311314" lon="9.662076">
<ele>34.376027</ele>
<time>2026-07-16T11:55:51.000Z</time>
</trkpt>
<trkpt lat="57.311333" lon="9.662208">
<ele>34.291336</ele>
<time>2026-07-16T11:55:52.000Z</time>
</trkpt>
<trkpt lat="57.311356" lon="9.662337">
<ele>34.207115</ele>
<time>2026-07-16T11:55:53.000Z</time>
</trkpt>
<trkpt lat="57.311375" lon="9.662468">
<ele>34.123022</ele>
<time>2026-07-16T11:55:54.000Z</time>
</trkpt>
<trkpt lat="57.311394" lon="9.662595">
<ele>34.041322</ele>
<time>2026-07-16T11:55:55.000Z</time>
</trkpt>
<trkpt lat="57.311401" lon="9.662724">
<ele>33.960945</ele>
<time>2026-07-16T11:55:56.000Z</time>
</trkpt>
<trkpt lat="57.311405" lon="9.662849">
<ele>33.883314</ele>
<time>2026-07-16T11:55:57.000Z</time>
</trkpt>
<trkpt lat="57.311409" lon="9.662980">
<ele>33.801969</ele>
<time>2026-07-16T11:55:58.000Z</time>
</trkpt>
<trkpt lat="57.311405" lon="9.663107">
<ele>33.723100</ele>
<time>2026-07-16T11:55:59.000Z</time>
</trkpt>
<trkpt lat="57.311405" lon="9.663235">
<ele>33.643745</ele>
<time>2026-07-16T11:56:00.000Z</time>
</trkpt>
<trkpt lat="57.311398" lon="9.663362">
<ele>33.564601</ele>
<time>2026-07-16T11:56:01.000Z</time>
</trkpt>
<trkpt lat="57.311390" lon="9.663496">
<ele>33.481020</ele>
<time>2026-07-16T11:56:02.000Z</time>
</trkpt>
<trkpt lat="57.311386" lon="9.663626">
<ele>33.400295</ele>
<time>2026-07-16T11:56:03.000Z</time>
</trkpt>
<trkpt lat="57.311382" lon="9.663757">
<ele>33.318950</ele>
<time>2026-07-16T11:56:04.000Z</time>
</trkpt>
<trkpt lat="57.311375" lon="9.663887">
<ele>33.252472</ele>
<time>2026-07-16T11:56:05.000Z</time>
</trkpt>
<trkpt lat="57.311367" lon="9.664020">
<ele>33.186935</ele>
<time>2026-07-16T11:56:06.000Z</time>
</trkpt>
<trkpt lat="57.311359" lon="9.664150">
<ele>33.122859</ele>
<time>2026-07-16T11:56:07.000Z</time>
</trkpt>
<trkpt lat="57.311352" lon="9.664283">
<ele>33.057416</ele>
<time>2026-07-16T11:56:08.000Z</time>
</trkpt>
<trkpt lat="57.311348" lon="9.664413">
<ele>32.993649</ele>
<time>2026-07-16T11:56:09.000Z</time>
</trkpt>
<trkpt lat="57.311344" lon="9.664545">
<ele>32.928903</ele>
<time>2026-07-16T11:56:10.000Z</time>
</trkpt>
<trkpt lat="57.311344" lon="9.664676">
<ele>32.864748</ele>
<time>2026-07-16T11:56:11.000Z</time>
</trkpt>
<trkpt lat="57.311348" lon="9.664804">
<ele>32.801958</ele>
<time>2026-07-16T11:56:12.000Z</time>
</trkpt>
<trkpt lat="57.311356" lon="9.664935">
<ele>32.737395</ele>
<time>2026-07-16T11:56:13.000Z</time>
</trkpt>
<trkpt lat="57.311367" lon="9.665061">
<ele>32.674888</ele>
<time>2026-07-16T11:56:14.000Z</time>
</trkpt>
<trkpt lat="57.311382" lon="9.665183">
<ele>32.613613</ele>
<time>2026-07-16T11:56:15.000Z</time>
</trkpt>
<trkpt lat="57.311401" lon="9.665302">
<ele>32.552842</ele>
<time>2026-07-16T11:56:16.000Z</time>
</trkpt>
<trkpt lat="57.311424" lon="9.665417">
<ele>32.492786</ele>
<time>2026-07-16T11:56:17.000Z</time>
</trkpt>
<trkpt lat="57.311447" lon="9.665532">
<ele>32.432729</ele>
<time>2026-07-16T11:56:18.000Z</time>
</trkpt>
<trkpt lat="57.311470" lon="9.665643">
<ele>32.374506</ele>
<time>2026-07-16T11:56:19.000Z</time>
</trkpt>
<trkpt lat="57.311501" lon="9.665748">
<ele>32.315903</ele>
<time>2026-07-16T11:56:20.000Z</time>
</trkpt>
<trkpt lat="57.311531" lon="9.665855">
<ele>32.256862</ele>
<time>2026-07-16T11:56:21.000Z</time>
</trkpt>
<trkpt lat="57.311558" lon="9.665965">
<ele>32.197689</ele>
<time>2026-07-16T11:56:22.000Z</time>
</trkpt>
<trkpt lat="57.311584" lon="9.666075">
<ele>32.138886</ele>
<time>2026-07-16T11:56:23.000Z</time>
</trkpt>
<trkpt lat="57.311611" lon="9.666185">
<ele>32.079714</ele>
<time>2026-07-16T11:56:24.000Z</time>
</trkpt>
<trkpt lat="57.311638" lon="9.666297">
<ele>32.019649</ele>
<time>2026-07-16T11:56:25.000Z</time>
</trkpt>
<trkpt lat="57.311668" lon="9.666409">
<ele>31.958424</ele>
<time>2026-07-16T11:56:26.000Z</time>
</trkpt>
<trkpt lat="57.311699" lon="9.666520">
<ele>31.897227</ele>
<time>2026-07-16T11:56:27.000Z</time>
</trkpt>
<trkpt lat="57.311726" lon="9.666619">
<ele>31.842913</ele>
<time>2026-07-16T11:56:28.000Z</time>
</trkpt>
<trkpt lat="57.311764" lon="9.666736">
<ele>31.776052</ele>
<time>2026-07-16T11:56:29.000Z</time>
</trkpt>
<trkpt lat="57.311794" lon="9.666839">
<ele>31.718743</ele>
<time>2026-07-16T11:56:30.000Z</time>
</trkpt>
<trkpt lat="57.311821" lon="9.666926">
<ele>31.681184</ele>
<time>2026-07-16T11:56:31.000Z</time>
</trkpt>
<trkpt lat="57.311855" lon="9.666987">
<ele>31.714965</ele>
<time>2026-07-16T11:56:32.000Z</time>
</trkpt>
<trkpt lat="57.311890" lon="9.667008">
<ele>31.741217</ele>
<time>2026-07-16T11:56:33.000Z</time>
</trkpt>
<trkpt lat="57.311928" lon="9.667006">
<ele>31.768342</ele>
<time>2026-07-16T11:56:34.000Z</time>
</trkpt>
<trkpt lat="57.311958" lon="9.666993">
<ele>31.790326</ele>
<time>2026-07-16T11:56:35.000Z</time>
</trkpt>
<trkpt lat="57.312000" lon="9.666971">
<ele>31.821471</ele>
<time>2026-07-16T11:56:36.000Z</time>
</trkpt>
<trkpt lat="57.312042" lon="9.666954">
<ele>31.852147</ele>
<time>2026-07-16T11:56:37.000Z</time>
</trkpt>
<trkpt lat="57.312088" lon="9.666941">
<ele>31.885349</ele>
<time>2026-07-16T11:56:38.000Z</time>
</trkpt>
<trkpt lat="57.312126" lon="9.666931">
<ele>31.912736</ele>
<time>2026-07-16T11:56:39.000Z</time>
</trkpt>
<trkpt lat="57.312172" lon="9.666920">
<ele>31.945831</ele>
<time>2026-07-16T11:56:40.000Z</time>
</trkpt>
<trkpt lat="57.312210" lon="9.666903">
<ele>31.973725</ele>
<time>2026-07-16T11:56:41.000Z</time>
</trkpt>
<trkpt lat="57.312244" lon="9.666885">
<ele>31.998957</ele>
<time>2026-07-16T11:56:42.000Z</time>
</trkpt>
<trkpt lat="57.312279" lon="9.666874">
<ele>32.024288</ele>
<time>2026-07-16T11:56:43.000Z</time>
</trkpt>
<trkpt lat="57.312328" lon="9.666859">
<ele>32.059726</ele>
<time>2026-07-16T11:56:44.000Z</time>
</trkpt>
<trkpt lat="57.312370" lon="9.666841">
<ele>32.090486</ele>
<time>2026-07-16T11:56:45.000Z</time>
</trkpt>
<trkpt lat="57.312416" lon="9.666825">
<ele>32.123883</ele>
<time>2026-07-16T11:56:46.000Z</time>
</trkpt>
<trkpt lat="57.312462" lon="9.666812">
<ele>32.157085</ele>
<time>2026-07-16T11:56:47.000Z</time>
</trkpt>
<trkpt lat="57.312504" lon="9.666802">
<ele>32.187300</ele>
<time>2026-07-16T11:56:48.000Z</time>
</trkpt>
<trkpt lat="57.312550" lon="9.666794">
<ele>32.220267</ele>
<time>2026-07-16T11:56:49.000Z</time>
</trkpt>
<trkpt lat="57.312607" lon="9.666771">
<ele>32.261893</ele>
<time>2026-07-16T11:56:50.000Z</time>
</trkpt>
<trkpt lat="57.312660" lon="9.666755">
<ele>32.300209</ele>
<time>2026-07-16T11:56:51.000Z</time>
</trkpt>
<trkpt lat="57.312710" lon="9.666746">
<ele>32.336054</ele>
<time>2026-07-16T11:56:52.000Z</time>
</trkpt>
<trkpt lat="57.312767" lon="9.666732">
<ele>32.377082</ele>
<time>2026-07-16T11:56:53.000Z</time>
</trkpt>
<trkpt lat="57.312820" lon="9.666716">
<ele>32.415398</ele>
<time>2026-07-16T11:56:54.000Z</time>
</trkpt>
<trkpt lat="57.312878" lon="9.666703">
<ele>32.457085</ele>
<time>2026-07-16T11:56:55.000Z</time>
</trkpt>
<trkpt lat="57.312939" lon="9.666690">
<ele>32.500898</ele>
<time>2026-07-16T11:56:56.000Z</time>
</trkpt>
<trkpt lat="57.312996" lon="9.666677">
<ele>32.541876</ele>
<time>2026-07-16T11:56:57.000Z</time>
</trkpt>
<trkpt lat="57.313057" lon="9.666661">
<ele>32.585836</ele>
<time>2026-07-16T11:56:58.000Z</time>
</trkpt>
<trkpt lat="57.313118" lon="9.666645">
<ele>32.629796</ele>
<time>2026-07-16T11:56:59.000Z</time>
</trkpt>
<trkpt lat="57.313168" lon="9.666630">
<ele>32.665938</ele>
<time>2026-07-16T11:57:00.000Z</time>
</trkpt>
<trkpt lat="57.313221" lon="9.666614">
<ele>32.704254</ele>
<time>2026-07-16T11:57:01.000Z</time>
</trkpt>
<trkpt lat="57.313274" lon="9.666598">
<ele>32.742571</ele>
<time>2026-07-16T11:57:02.000Z</time>
</trkpt>
<trkpt lat="57.313324" lon="9.666585">
<ele>32.778597</ele>
<time>2026-07-16T11:57:03.000Z</time>
</trkpt>
<trkpt lat="57.313374" lon="9.666572">
<ele>32.814624</ele>
<time>2026-07-16T11:57:04.000Z</time>
</trkpt>
<trkpt lat="57.313427" lon="9.666559">
<ele>32.852771</ele>
<time>2026-07-16T11:57:05.000Z</time>
</trkpt>
<trkpt lat="57.313477" lon="9.666548">
<ele>32.888699</ele>
<time>2026-07-16T11:57:06.000Z</time>
</trkpt>
<trkpt lat="57.313522" lon="9.666537">
<ele>32.921086</ele>
<time>2026-07-16T11:57:07.000Z</time>
</trkpt>
<trkpt lat="57.313580" lon="9.666522">
<ele>32.957181</ele>
<time>2026-07-16T11:57:08.000Z</time>
</trkpt>
<trkpt lat="57.313629" lon="9.666507">
<ele>32.933291</ele>
<time>2026-07-16T11:57:09.000Z</time>
</trkpt>
<trkpt lat="57.313683" lon="9.666494">
<ele>32.907097</ele>
<time>2026-07-16T11:57:10.000Z</time>
</trkpt>
<trkpt lat="57.313732" lon="9.666484">
<ele>32.883385</ele>
<time>2026-07-16T11:57:11.000Z</time>
</trkpt>
<trkpt lat="57.313786" lon="9.666468">
<ele>32.857079</ele>
<time>2026-07-16T11:57:12.000Z</time>
</trkpt>
<trkpt lat="57.313839" lon="9.666455">
<ele>32.831362</ele>
<time>2026-07-16T11:57:13.000Z</time>
</trkpt>
<trkpt lat="57.313892" lon="9.666443">
<ele>32.805679</ele>
<time>2026-07-16T11:57:14.000Z</time>
</trkpt>
<trkpt lat="57.313953" lon="9.666431">
<ele>32.776171</ele>
<time>2026-07-16T11:57:15.000Z</time>
</trkpt>
<trkpt lat="57.314007" lon="9.666418">
<ele>32.749978</ele>
<time>2026-07-16T11:57:16.000Z</time>
</trkpt>
<trkpt lat="57.314064" lon="9.666405">
<ele>32.722353</ele>
<time>2026-07-16T11:57:17.000Z</time>
</trkpt>
<trkpt lat="57.314121" lon="9.666390">
<ele>32.694659</ele>
<time>2026-07-16T11:57:18.000Z</time>
</trkpt>
<trkpt lat="57.314178" lon="9.666375">
<ele>32.666966</ele>
<time>2026-07-16T11:57:19.000Z</time>
</trkpt>
<trkpt lat="57.314232" lon="9.666360">
<ele>32.640700</ele>
<time>2026-07-16T11:57:20.000Z</time>
</trkpt>
<trkpt lat="57.314281" lon="9.666346">
<ele>32.616851</ele>
<time>2026-07-16T11:57:21.000Z</time>
</trkpt>
<trkpt lat="57.314331" lon="9.666331">
<ele>32.592487</ele>
<time>2026-07-16T11:57:22.000Z</time>
</trkpt>
<trkpt lat="57.314384" lon="9.666314">
<ele>32.566613</ele>
<time>2026-07-16T11:57:23.000Z</time>
</trkpt>
<trkpt lat="57.314434" lon="9.666293">
<ele>32.541951</ele>
<time>2026-07-16T11:57:24.000Z</time>
</trkpt>
<trkpt lat="57.314480" lon="9.666265">
<ele>32.518660</ele>
<time>2026-07-16T11:57:25.000Z</time>
</trkpt>
<trkpt lat="57.314529" lon="9.666219">
<ele>32.492234</ele>
<time>2026-07-16T11:57:26.000Z</time>
</trkpt>
<trkpt lat="57.314583" lon="9.666166">
<ele>32.462836</ele>
<time>2026-07-16T11:57:27.000Z</time>
</trkpt>
<trkpt lat="57.314632" lon="9.666110">
<ele>32.435138</ele>
<time>2026-07-16T11:57:28.000Z</time>
</trkpt>
<trkpt lat="57.314682" lon="9.666051">
<ele>32.406619</ele>
<time>2026-07-16T11:57:29.000Z</time>
</trkpt>
<trkpt lat="57.314732" lon="9.665991">
<ele>32.377960</ele>
<time>2026-07-16T11:57:30.000Z</time>
</trkpt>
<trkpt lat="57.314781" lon="9.665929">
<ele>32.349413</ele>
<time>2026-07-16T11:57:31.000Z</time>
</trkpt>
<trkpt lat="57.314827" lon="9.665864">
<ele>32.321580</ele>
<time>2026-07-16T11:57:32.000Z</time>
</trkpt>
<trkpt lat="57.314877" lon="9.665796">
<ele>32.291740</ele>
<time>2026-07-16T11:57:33.000Z</time>
</trkpt>
<trkpt lat="57.314922" lon="9.665731">
<ele>32.264287</ele>
<time>2026-07-16T11:57:34.000Z</time>
</trkpt>
<trkpt lat="57.314968" lon="9.665670">
<ele>32.237072</ele>
<time>2026-07-16T11:57:35.000Z</time>
</trkpt>
<trkpt lat="57.315018" lon="9.665609">
<ele>32.208271</ele>
<time>2026-07-16T11:57:36.000Z</time>
</trkpt>
<trkpt lat="57.315060" lon="9.665550">
<ele>32.182913</ele>
<time>2026-07-16T11:57:37.000Z</time>
</trkpt>
<trkpt lat="57.315109" lon="9.665487">
<ele>32.154219</ele>
<time>2026-07-16T11:57:38.000Z</time>
</trkpt>
<trkpt lat="57.315155" lon="9.665428">
<ele>32.127303</ele>
<time>2026-07-16T11:57:39.000Z</time>
</trkpt>
<trkpt lat="57.315201" lon="9.665369">
<ele>32.100387</ele>
<time>2026-07-16T11:57:40.000Z</time>
</trkpt>
<trkpt lat="57.315243" lon="9.665312">
<ele>32.023867</ele>
<time>2026-07-16T11:57:41.000Z</time>
</trkpt>
<trkpt lat="57.315281" lon="9.665257">
<ele>31.937663</ele>
<time>2026-07-16T11:57:42.000Z</time>
</trkpt>
<trkpt lat="57.315327" lon="9.665201">
<ele>31.839270</ele>
<time>2026-07-16T11:57:43.000Z</time>
</trkpt>
<trkpt lat="57.315376" lon="9.665145">
<ele>31.736354</ele>
<time>2026-07-16T11:57:44.000Z</time>
</trkpt>
<trkpt lat="57.315418" lon="9.665097">
<ele>31.648140</ele>
<time>2026-07-16T11:57:45.000Z</time>
</trkpt>
<trkpt lat="57.315460" lon="9.665053">
<ele>31.561891</ele>
<time>2026-07-16T11:57:46.000Z</time>
</trkpt>
<trkpt lat="57.315495" lon="9.665020">
<ele>31.491693</ele>
<time>2026-07-16T11:57:47.000Z</time>
</trkpt>
<trkpt lat="57.315540" lon="9.664990">
<ele>31.406209</ele>
<time>2026-07-16T11:57:48.000Z</time>
</trkpt>
<trkpt lat="57.315582" lon="9.664968">
<ele>31.328195</ele>
<time>2026-07-16T11:57:49.000Z</time>
</trkpt>
<trkpt lat="57.315632" lon="9.664952">
<ele>31.237504</ele>
<time>2026-07-16T11:57:50.000Z</time>
</trkpt>
<trkpt lat="57.315681" lon="9.664941">
<ele>31.149283</ele>
<time>2026-07-16T11:57:51.000Z</time>
</trkpt>
<trkpt lat="57.315739" lon="9.664940">
<ele>31.045612</ele>
<time>2026-07-16T11:57:52.000Z</time>
</trkpt>
<trkpt lat="57.315800" lon="9.664947">
<ele>30.936375</ele>
<time>2026-07-16T11:57:53.000Z</time>
</trkpt>
<trkpt lat="57.315857" lon="9.664960">
<ele>30.833727</ele>
<time>2026-07-16T11:57:54.000Z</time>
</trkpt>
<trkpt lat="57.315914" lon="9.664971">
<ele>30.731297</ele>
<time>2026-07-16T11:57:55.000Z</time>
</trkpt>
<trkpt lat="57.315975" lon="9.664984">
<ele>30.621550</ele>
<time>2026-07-16T11:57:56.000Z</time>
</trkpt>
<trkpt lat="57.316044" lon="9.664996">
<ele>30.497680</ele>
<time>2026-07-16T11:57:57.000Z</time>
</trkpt>
<trkpt lat="57.316105" lon="9.665014">
<ele>30.387277</ele>
<time>2026-07-16T11:57:58.000Z</time>
</trkpt>
<trkpt lat="57.316174" lon="9.665030">
<ele>30.262987</ele>
<time>2026-07-16T11:57:59.000Z</time>
</trkpt>
<trkpt lat="57.316235" lon="9.665043">
<ele>30.153240</ele>
<time>2026-07-16T11:58:00.000Z</time>
</trkpt>
<trkpt lat="57.316299" lon="9.665058">
<ele>30.037937</ele>
<time>2026-07-16T11:58:01.000Z</time>
</trkpt>
<trkpt lat="57.316360" lon="9.665071">
<ele>29.928190</ele>
<time>2026-07-16T11:58:02.000Z</time>
</trkpt>
<trkpt lat="57.316421" lon="9.665082">
<ele>29.818646</ele>
<time>2026-07-16T11:58:03.000Z</time>
</trkpt>
<trkpt lat="57.316490" lon="9.665093">
<ele>29.694864</ele>
<time>2026-07-16T11:58:04.000Z</time>
</trkpt>
<trkpt lat="57.316551" lon="9.665106">
<ele>29.585116</ele>
<time>2026-07-16T11:58:05.000Z</time>
</trkpt>
<trkpt lat="57.316616" lon="9.665114">
<ele>29.468683</ele>
<time>2026-07-16T11:58:06.000Z</time>
</trkpt>
<trkpt lat="57.316685" lon="9.665118">
<ele>29.345296</ele>
<time>2026-07-16T11:58:07.000Z</time>
</trkpt>
<trkpt lat="57.316753" lon="9.665120">
<ele>29.223741</ele>
<time>2026-07-16T11:58:08.000Z</time>
</trkpt>
<trkpt lat="57.316818" lon="9.665128">
<ele>29.107308</ele>
<time>2026-07-16T11:58:09.000Z</time>
</trkpt>
<trkpt lat="57.316887" lon="9.665143">
<ele>28.983134</ele>
<time>2026-07-16T11:58:10.000Z</time>
</trkpt>
<trkpt lat="57.316956" lon="9.665158">
<ele>28.863226</ele>
<time>2026-07-16T11:58:11.000Z</time>
</trkpt>
<trkpt lat="57.317020" lon="9.665175">
<ele>28.771657</ele>
<time>2026-07-16T11:58:12.000Z</time>
</trkpt>
<trkpt lat="57.317085" lon="9.665195">
<ele>28.678338</ele>
<time>2026-07-16T11:58:13.000Z</time>
</trkpt>
<trkpt lat="57.317158" lon="9.665214">
<ele>28.573934</ele>
<time>2026-07-16T11:58:14.000Z</time>
</trkpt>
<trkpt lat="57.317230" lon="9.665234">
<ele>28.470822</ele>
<time>2026-07-16T11:58:15.000Z</time>
</trkpt>
<trkpt lat="57.317299" lon="9.665256">
<ele>28.371662</ele>
<time>2026-07-16T11:58:16.000Z</time>
</trkpt>
<trkpt lat="57.317371" lon="9.665275">
<ele>28.268661</ele>
<time>2026-07-16T11:58:17.000Z</time>
</trkpt>
<trkpt lat="57.317444" lon="9.665293">
<ele>28.164361</ele>
<time>2026-07-16T11:58:18.000Z</time>
</trkpt>
<trkpt lat="57.317509" lon="9.665309">
<ele>28.071495</ele>
<time>2026-07-16T11:58:19.000Z</time>
</trkpt>
<trkpt lat="57.317593" lon="9.665325">
<ele>27.951901</ele>
<time>2026-07-16T11:58:20.000Z</time>
</trkpt>
<trkpt lat="57.317669" lon="9.665341">
<ele>27.843571</ele>
<time>2026-07-16T11:58:21.000Z</time>
</trkpt>
<trkpt lat="57.317741" lon="9.665357">
<ele>27.740869</ele>
<time>2026-07-16T11:58:22.000Z</time>
</trkpt>
<trkpt lat="57.317814" lon="9.665367">
<ele>27.637199</ele>
<time>2026-07-16T11:58:23.000Z</time>
</trkpt>
<trkpt lat="57.317886" lon="9.665377">
<ele>27.534941</ele>
<time>2026-07-16T11:58:24.000Z</time>
</trkpt>
<trkpt lat="57.317963" lon="9.665390">
<ele>27.425437</ele>
<time>2026-07-16T11:58:25.000Z</time>
</trkpt>
<trkpt lat="57.318035" lon="9.665404">
<ele>27.322905</ele>
<time>2026-07-16T11:58:26.000Z</time>
</trkpt>
<trkpt lat="57.318100" lon="9.665421">
<ele>27.229934</ele>
<time>2026-07-16T11:58:27.000Z</time>
</trkpt>
<trkpt lat="57.318172" lon="9.665437">
<ele>27.127232</ele>
<time>2026-07-16T11:58:28.000Z</time>
</trkpt>
<trkpt lat="57.318241" lon="9.665451">
<ele>27.028925</ele>
<time>2026-07-16T11:58:29.000Z</time>
</trkpt>
<trkpt lat="57.318314" lon="9.665464">
<ele>26.925061</ele>
<time>2026-07-16T11:58:30.000Z</time>
</trkpt>
<trkpt lat="57.318382" lon="9.665482">
<ele>26.827776</ele>
<time>2026-07-16T11:58:31.000Z</time>
</trkpt>
<trkpt lat="57.318451" lon="9.665495">
<ele>26.729549</ele>
<time>2026-07-16T11:58:32.000Z</time>
</trkpt>
<trkpt lat="57.318512" lon="9.665507">
<ele>26.642671</ele>
<time>2026-07-16T11:58:33.000Z</time>
</trkpt>
<trkpt lat="57.318573" lon="9.665516">
<ele>26.556005</ele>
<time>2026-07-16T11:58:34.000Z</time>
</trkpt>
<trkpt lat="57.318638" lon="9.665525">
<ele>26.463691</ele>
<time>2026-07-16T11:58:35.000Z</time>
</trkpt>
<trkpt lat="57.318703" lon="9.665536">
<ele>26.371250</ele>
<time>2026-07-16T11:58:36.000Z</time>
</trkpt>
<trkpt lat="57.318768" lon="9.665545">
<ele>26.331539</ele>
<time>2026-07-16T11:58:37.000Z</time>
</trkpt>
<trkpt lat="57.318825" lon="9.665552">
<ele>26.330614</ele>
<time>2026-07-16T11:58:38.000Z</time>
</trkpt>
<trkpt lat="57.318878" lon="9.665560">
<ele>26.329754</ele>
<time>2026-07-16T11:58:39.000Z</time>
</trkpt>
<trkpt lat="57.318939" lon="9.665571">
<ele>26.328762</ele>
<time>2026-07-16T11:58:40.000Z</time>
</trkpt>
<trkpt lat="57.319004" lon="9.665588">
<ele>26.327700</ele>
<time>2026-07-16T11:58:41.000Z</time>
</trkpt>
<trkpt lat="57.319061" lon="9.665605">
<ele>26.326765</ele>
<time>2026-07-16T11:58:42.000Z</time>
</trkpt>
<trkpt lat="57.319115" lon="9.665618">
<ele>26.325884</ele>
<time>2026-07-16T11:58:43.000Z</time>
</trkpt>
<trkpt lat="57.319168" lon="9.665635">
<ele>26.325014</ele>
<time>2026-07-16T11:58:44.000Z</time>
</trkpt>
<trkpt lat="57.319225" lon="9.665651">
<ele>26.324081</ele>
<time>2026-07-16T11:58:45.000Z</time>
</trkpt>
<trkpt lat="57.319279" lon="9.665662">
<ele>26.323202</ele>
<time>2026-07-16T11:58:46.000Z</time>
</trkpt>
<trkpt lat="57.319328" lon="9.665670">
<ele>26.322406</ele>
<time>2026-07-16T11:58:47.000Z</time>
</trkpt>
<trkpt lat="57.319382" lon="9.665676">
<ele>26.321530</ele>
<time>2026-07-16T11:58:48.000Z</time>
</trkpt>
<trkpt lat="57.319431" lon="9.665689">
<ele>26.320729</ele>
<time>2026-07-16T11:58:49.000Z</time>
</trkpt>
<trkpt lat="57.319485" lon="9.665702">
<ele>26.319848</ele>
<time>2026-07-16T11:58:50.000Z</time>
</trkpt>
<trkpt lat="57.319546" lon="9.665718">
<ele>26.318851</ele>
<time>2026-07-16T11:58:51.000Z</time>
</trkpt>
<trkpt lat="57.319614" lon="9.665730">
<ele>26.317745</ele>
<time>2026-07-16T11:58:52.000Z</time>
</trkpt>
<trkpt lat="57.319675" lon="9.665741">
<ele>26.316754</ele>
<time>2026-07-16T11:58:53.000Z</time>
</trkpt>
<trkpt lat="57.319736" lon="9.665753">
<ele>26.315761</ele>
<time>2026-07-16T11:58:54.000Z</time>
</trkpt>
<trkpt lat="57.319798" lon="9.665761">
<ele>26.314755</ele>
<time>2026-07-16T11:58:55.000Z</time>
</trkpt>
<trkpt lat="57.319855" lon="9.665769">
<ele>26.313830</ele>
<time>2026-07-16T11:58:56.000Z</time>
</trkpt>
<trkpt lat="57.319908" lon="9.665784">
<ele>26.312962</ele>
<time>2026-07-16T11:58:57.000Z</time>
</trkpt>
<trkpt lat="57.319962" lon="9.665807">
<ele>26.312066</ele>
<time>2026-07-16T11:58:58.000Z</time>
</trkpt>
<trkpt lat="57.320026" lon="9.665833">
<ele>26.311005</ele>
<time>2026-07-16T11:58:59.000Z</time>
</trkpt>
<trkpt lat="57.320087" lon="9.665852">
<ele>26.310004</ele>
<time>2026-07-16T11:59:00.000Z</time>
</trkpt>
<trkpt lat="57.320141" lon="9.665867">
<ele>26.309121</ele>
<time>2026-07-16T11:59:01.000Z</time>
</trkpt>
<trkpt lat="57.320194" lon="9.665880">
<ele>26.308256</ele>
<time>2026-07-16T11:59:02.000Z</time>
</trkpt>
<trkpt lat="57.320251" lon="9.665896">
<ele>26.307323</ele>
<time>2026-07-16T11:59:03.000Z</time>
</trkpt>
<trkpt lat="57.320305" lon="9.665910">
<ele>26.306440</ele>
<time>2026-07-16T11:59:04.000Z</time>
</trkpt>
<trkpt lat="57.320374" lon="9.665922">
<ele>26.305319</ele>
<time>2026-07-16T11:59:05.000Z</time>
</trkpt>
<trkpt lat="57.320438" lon="9.665933">
<ele>26.304279</ele>
<time>2026-07-16T11:59:06.000Z</time>
</trkpt>
<trkpt lat="57.320511" lon="9.665950">
<ele>26.303088</ele>
<time>2026-07-16T11:59:07.000Z</time>
</trkpt>
<trkpt lat="57.320583" lon="9.665968">
<ele>26.327928</ele>
<time>2026-07-16T11:59:08.000Z</time>
</trkpt>
<trkpt lat="57.320663" lon="9.665981">
<ele>26.356615</ele>
<time>2026-07-16T11:59:09.000Z</time>
</trkpt>
<trkpt lat="57.320736" lon="9.665994">
<ele>26.382811</ele>
<time>2026-07-16T11:59:10.000Z</time>
</trkpt>
<trkpt lat="57.320797" lon="9.666004">
<ele>26.404686</ele>
<time>2026-07-16T11:59:11.000Z</time>
</trkpt>
<trkpt lat="57.320850" lon="9.666017">
<ele>26.423783</ele>
<time>2026-07-16T11:59:12.000Z</time>
</trkpt>
<trkpt lat="57.320915" lon="9.666032">
<ele>26.447181</ele>
<time>2026-07-16T11:59:13.000Z</time>
</trkpt>
<trkpt lat="57.320972" lon="9.666045">
<ele>26.467696</ele>
<time>2026-07-16T11:59:14.000Z</time>
</trkpt>
<trkpt lat="57.321018" lon="9.666054">
<ele>26.484219</ele>
<time>2026-07-16T11:59:15.000Z</time>
</trkpt>
<trkpt lat="57.321083" lon="9.666065">
<ele>26.507534</ele>
<time>2026-07-16T11:59:16.000Z</time>
</trkpt>
<trkpt lat="57.321140" lon="9.666081">
<ele>26.528128</ele>
<time>2026-07-16T11:59:17.000Z</time>
</trkpt>
<trkpt lat="57.321198" lon="9.666101">
<ele>26.549202</ele>
<time>2026-07-16T11:59:18.000Z</time>
</trkpt>
<trkpt lat="57.321255" lon="9.666117">
<ele>26.569795</ele>
<time>2026-07-16T11:59:19.000Z</time>
</trkpt>
<trkpt lat="57.321316" lon="9.666133">
<ele>26.591802</ele>
<time>2026-07-16T11:59:20.000Z</time>
</trkpt>
<trkpt lat="57.321381" lon="9.666150">
<ele>26.615251</ele>
<time>2026-07-16T11:59:21.000Z</time>
</trkpt>
<trkpt lat="57.321445" lon="9.666162">
<ele>26.638229</ele>
<time>2026-07-16T11:59:22.000Z</time>
</trkpt>
<trkpt lat="57.321510" lon="9.666167">
<ele>26.661468</ele>
<time>2026-07-16T11:59:23.000Z</time>
</trkpt>
<trkpt lat="57.321568" lon="9.666176">
<ele>26.682258</ele>
<time>2026-07-16T11:59:24.000Z</time>
</trkpt>
<trkpt lat="57.321621" lon="9.666185">
<ele>26.701270</ele>
<time>2026-07-16T11:59:25.000Z</time>
</trkpt>
<trkpt lat="57.321667" lon="9.666194">
<ele>26.717793</ele>
<time>2026-07-16T11:59:26.000Z</time>
</trkpt>
<trkpt lat="57.321724" lon="9.666208">
<ele>26.738332</ele>
<time>2026-07-16T11:59:27.000Z</time>
</trkpt>
<trkpt lat="57.321781" lon="9.666224">
<ele>26.758925</ele>
<time>2026-07-16T11:59:28.000Z</time>
</trkpt>
<trkpt lat="57.321842" lon="9.666237">
<ele>26.780859</ele>
<time>2026-07-16T11:59:29.000Z</time>
</trkpt>
<trkpt lat="57.321896" lon="9.666247">
<ele>26.800244</ele>
<time>2026-07-16T11:59:30.000Z</time>
</trkpt>
<trkpt lat="57.321953" lon="9.666250">
<ele>26.820613</ele>
<time>2026-07-16T11:59:31.000Z</time>
</trkpt>
<trkpt lat="57.322014" lon="9.666256">
<ele>26.842434</ele>
<time>2026-07-16T11:59:32.000Z</time>
</trkpt>
<trkpt lat="57.322075" lon="9.666263">
<ele>26.864265</ele>
<time>2026-07-16T11:59:33.000Z</time>
</trkpt>
<trkpt lat="57.322140" lon="9.666266">
<ele>26.887491</ele>
<time>2026-07-16T11:59:34.000Z</time>
</trkpt>
<trkpt lat="57.322201" lon="9.666274">
<ele>26.909335</ele>
<time>2026-07-16T11:59:35.000Z</time>
</trkpt>
<trkpt lat="57.322258" lon="9.666281">
<ele>26.929741</ele>
<time>2026-07-16T11:59:36.000Z</time>
</trkpt>
<trkpt lat="57.322315" lon="9.666295">
<ele>26.946591</ele>
<time>2026-07-16T11:59:37.000Z</time>
</trkpt>
<trkpt lat="57.322380" lon="9.666300">
<ele>26.951784</ele>
<time>2026-07-16T11:59:38.000Z</time>
</trkpt>
<trkpt lat="57.322445" lon="9.666298">
<ele>26.956973</ele>
<time>2026-07-16T11:59:39.000Z</time>
</trkpt>
<trkpt lat="57.322506" lon="9.666300">
<ele>26.961843</ele>
<time>2026-07-16T11:59:40.000Z</time>
</trkpt>
<trkpt lat="57.322571" lon="9.666309">
<ele>26.967046</ele>
<time>2026-07-16T11:59:41.000Z</time>
</trkpt>
<trkpt lat="57.322632" lon="9.666326">
<ele>26.971970</ele>
<time>2026-07-16T11:59:42.000Z</time>
</trkpt>
<trkpt lat="57.322693" lon="9.666358">
<ele>26.977031</ele>
<time>2026-07-16T11:59:43.000Z</time>
</trkpt>
<trkpt lat="57.322754" lon="9.666387">
<ele>26.982058</ele>
<time>2026-07-16T11:59:44.000Z</time>
</trkpt>
<trkpt lat="57.322811" lon="9.666408">
<ele>26.986697</ele>
<time>2026-07-16T11:59:45.000Z</time>
</trkpt>
<trkpt lat="57.322876" lon="9.666428">
<ele>26.991957</ele>
<time>2026-07-16T11:59:46.000Z</time>
</trkpt>
<trkpt lat="57.322941" lon="9.666443">
<ele>26.997186</ele>
<time>2026-07-16T11:59:47.000Z</time>
</trkpt>
<trkpt lat="57.323006" lon="9.666458">
<ele>27.002414</ele>
<time>2026-07-16T11:59:48.000Z</time>
</trkpt>
<trkpt lat="57.323067" lon="9.666475">
<ele>27.007338</ele>
<time>2026-07-16T11:59:49.000Z</time>
</trkpt>
<trkpt lat="57.323132" lon="9.666495">
<ele>27.012598</ele>
<time>2026-07-16T11:59:50.000Z</time>
</trkpt>
<trkpt lat="57.323193" lon="9.666509">
<ele>27.017504</ele>
<time>2026-07-16T11:59:51.000Z</time>
</trkpt>
<trkpt lat="57.323250" lon="9.666521">
<ele>27.022084</ele>
<time>2026-07-16T11:59:52.000Z</time>
</trkpt>
<trkpt lat="57.323303" lon="9.666533">
<ele>27.026346</ele>
<time>2026-07-16T11:59:53.000Z</time>
</trkpt>
<trkpt lat="57.323353" lon="9.666545">
<ele>27.030370</ele>
<time>2026-07-16T11:59:54.000Z</time>
</trkpt>
<trkpt lat="57.323402" lon="9.666551">
<ele>27.034290</ele>
<time>2026-07-16T11:59:55.000Z</time>
</trkpt>
<trkpt lat="57.323452" lon="9.666559">
<ele>27.038296</ele>
<time>2026-07-16T11:59:56.000Z</time>
</trkpt>
<trkpt lat="57.323502" lon="9.666569">
<ele>27.042311</ele>
<time>2026-07-16T11:59:57.000Z</time>
</trkpt>
<trkpt lat="57.323544" lon="9.666580">
<ele>27.045697</ele>
<time>2026-07-16T11:59:58.000Z</time>
</trkpt>
<trkpt lat="57.323578" lon="9.666593">
<ele>27.048468</ele>
<time>2026-07-16T11:59:59.000Z</time>
</trkpt>
<trkpt lat="57.323608" lon="9.666604">
<ele>27.050909</ele>
<time>2026-07-16T12:00:00.000Z</time>
</trkpt>
<trkpt lat="57.323635" lon="9.666616">
<ele>27.053125</ele>
<time>2026-07-16T12:00:01.000Z</time>
</trkpt>
<trkpt lat="57.323658" lon="9.666624">
<ele>27.054993</ele>
<time>2026-07-16T12:00:02.000Z</time>
</trkpt>
<trkpt lat="57.323677" lon="9.666629">
<ele>27.056525</ele>
<time>2026-07-16T12:00:03.000Z</time>
</trkpt>
<trkpt lat="57.323723" lon="9.666588">
<ele>27.060600</ele>
<time>2026-07-16T12:00:08.000Z</time>
</trkpt>
<trkpt lat="57.323738" lon="9.666556">
<ele>27.062426</ele>
<time>2026-07-16T12:00:09.000Z</time>
</trkpt>
<trkpt lat="57.323753" lon="9.666499">
<ele>27.065159</ele>
<time>2026-07-16T12:00:10.000Z</time>
</trkpt>
<trkpt lat="57.323765" lon="9.666440">
<ele>27.067876</ele>
<time>2026-07-16T12:00:11.000Z</time>
</trkpt>
<trkpt lat="57.323780" lon="9.666373">
<ele>27.071002</ele>
<time>2026-07-16T12:00:12.000Z</time>
</trkpt>
<trkpt lat="57.323792" lon="9.666309">
<ele>27.073922</ele>
<time>2026-07-16T12:00:13.000Z</time>
</trkpt>
<trkpt lat="57.323807" lon="9.666245">
<ele>27.076929</ele>
<time>2026-07-16T12:00:14.000Z</time>
</trkpt>
<trkpt lat="57.323830" lon="9.666187">
<ele>27.080030</ele>
<time>2026-07-16T12:00:15.000Z</time>
</trkpt>
<trkpt lat="57.323849" lon="9.666128">
<ele>27.082991</ele>
<time>2026-07-16T12:00:16.000Z</time>
</trkpt>
<trkpt lat="57.323868" lon="9.666072">
<ele>27.085841</ele>
<time>2026-07-16T12:00:17.000Z</time>
</trkpt>
<trkpt lat="57.323891" lon="9.666007">
<ele>27.085247</ele>
<time>2026-07-16T12:00:18.000Z</time>
</trkpt>
<trkpt lat="57.323906" lon="9.665939">
<ele>26.944562</ele>
<time>2026-07-16T12:00:19.000Z</time>
</trkpt>
<trkpt lat="57.323929" lon="9.665871">
<ele>26.790880</ele>
<time>2026-07-16T12:00:20.000Z</time>
</trkpt>
<trkpt lat="57.323948" lon="9.665804">
<ele>26.645937</ele>
<time>2026-07-16T12:00:21.000Z</time>
</trkpt>
<trkpt lat="57.323975" lon="9.665739">
<ele>26.488866</ele>
<time>2026-07-16T12:00:22.000Z</time>
</trkpt>
<trkpt lat="57.323994" lon="9.665683">
<ele>26.362194</ele>
<time>2026-07-16T12:00:23.000Z</time>
</trkpt>
<trkpt lat="57.324020" lon="9.665602">
<ele>26.181716</ele>
<time>2026-07-16T12:00:24.000Z</time>
</trkpt>
<trkpt lat="57.324047" lon="9.665528">
<ele>26.010661</ele>
<time>2026-07-16T12:00:25.000Z</time>
</trkpt>
<trkpt lat="57.324070" lon="9.665461">
<ele>25.858599</ele>
<time>2026-07-16T12:00:26.000Z</time>
</trkpt>
<trkpt lat="57.324093" lon="9.665395">
<ele>25.708151</ele>
<time>2026-07-16T12:00:27.000Z</time>
</trkpt>
<trkpt lat="57.324116" lon="9.665339">
<ele>25.573393</ele>
<time>2026-07-16T12:00:28.000Z</time>
</trkpt>
<trkpt lat="57.324142" lon="9.665267">
<ele>25.407496</ele>
<time>2026-07-16T12:00:29.000Z</time>
</trkpt>
<trkpt lat="57.324165" lon="9.665206">
<ele>25.264998</ele>
<time>2026-07-16T12:00:30.000Z</time>
</trkpt>
<trkpt lat="57.324184" lon="9.665132">
<ele>25.108063</ele>
<time>2026-07-16T12:00:31.000Z</time>
</trkpt>
<trkpt lat="57.324204" lon="9.665065">
<ele>24.961437</ele>
<time>2026-07-16T12:00:32.000Z</time>
</trkpt>
<trkpt lat="57.324223" lon="9.664997">
<ele>24.814796</ele>
<time>2026-07-16T12:00:33.000Z</time>
</trkpt>
<trkpt lat="57.324238" lon="9.664928">
<ele>24.672337</ele>
<time>2026-07-16T12:00:34.000Z</time>
</trkpt>
<trkpt lat="57.324257" lon="9.664856">
<ele>24.518853</ele>
<time>2026-07-16T12:00:35.000Z</time>
</trkpt>
<trkpt lat="57.324276" lon="9.664777">
<ele>24.353219</ele>
<time>2026-07-16T12:00:36.000Z</time>
</trkpt>
<trkpt lat="57.324299" lon="9.664697">
<ele>24.179634</ele>
<time>2026-07-16T12:00:37.000Z</time>
</trkpt>
<trkpt lat="57.324322" lon="9.664616">
<ele>24.004356</ele>
<time>2026-07-16T12:00:38.000Z</time>
</trkpt>
<trkpt lat="57.324348" lon="9.664529">
<ele>23.813910</ele>
<time>2026-07-16T12:00:39.000Z</time>
</trkpt>
<trkpt lat="57.324371" lon="9.664437">
<ele>23.619739</ele>
<time>2026-07-16T12:00:40.000Z</time>
</trkpt>
<trkpt lat="57.324398" lon="9.664338">
<ele>23.407317</ele>
<time>2026-07-16T12:00:41.000Z</time>
</trkpt>
<trkpt lat="57.324429" lon="9.664237">
<ele>23.184809</ele>
<time>2026-07-16T12:00:42.000Z</time>
</trkpt>
<trkpt lat="57.324451" lon="9.664127">
<ele>22.960148</ele>
<time>2026-07-16T12:00:43.000Z</time>
</trkpt>
<trkpt lat="57.324482" lon="9.664011">
<ele>22.712259</ele>
<time>2026-07-16T12:00:44.000Z</time>
</trkpt>
<trkpt lat="57.324512" lon="9.663900">
<ele>22.474524</ele>
<time>2026-07-16T12:00:45.000Z</time>
</trkpt>
<trkpt lat="57.324543" lon="9.663789">
<ele>22.235180</ele>
<time>2026-07-16T12:00:46.000Z</time>
</trkpt>
<trkpt lat="57.324577" lon="9.663682">
<ele>21.997397</ele>
<time>2026-07-16T12:00:47.000Z</time>
</trkpt>
<trkpt lat="57.324612" lon="9.663583">
<ele>21.770759</ele>
<time>2026-07-16T12:00:48.000Z</time>
</trkpt>
<trkpt lat="57.324646" lon="9.663486">
<ele>21.549268</ele>
<time>2026-07-16T12:00:49.000Z</time>
</trkpt>
<trkpt lat="57.324688" lon="9.663388">
<ele>21.309634</ele>
<time>2026-07-16T12:00:50.000Z</time>
</trkpt>
<trkpt lat="57.324730" lon="9.663303">
<ele>21.088956</ele>
<time>2026-07-16T12:00:51.000Z</time>
</trkpt>
<trkpt lat="57.324772" lon="9.663226">
<ele>20.879325</ele>
<time>2026-07-16T12:00:52.000Z</time>
</trkpt>
<trkpt lat="57.324810" lon="9.663147">
<ele>20.690817</ele>
<time>2026-07-16T12:00:53.000Z</time>
</trkpt>
<trkpt lat="57.324848" lon="9.663073">
<ele>20.581894</ele>
<time>2026-07-16T12:00:54.000Z</time>
</trkpt>
<trkpt lat="57.324890" lon="9.662991">
<ele>20.461342</ele>
<time>2026-07-16T12:00:55.000Z</time>
</trkpt>
<trkpt lat="57.324928" lon="9.662913">
<ele>20.349289</ele>
<time>2026-07-16T12:00:56.000Z</time>
</trkpt>
<trkpt lat="57.324966" lon="9.662834">
<ele>20.236442</ele>
<time>2026-07-16T12:00:57.000Z</time>
</trkpt>
<trkpt lat="57.325005" lon="9.662752">
<ele>20.119890</ele>
<time>2026-07-16T12:00:58.000Z</time>
</trkpt>
<trkpt lat="57.325043" lon="9.662673">
<ele>20.007043</ele>
<time>2026-07-16T12:00:59.000Z</time>
</trkpt>
<trkpt lat="57.325073" lon="9.662616">
<ele>19.922143</ele>
<time>2026-07-16T12:01:00.000Z</time>
</trkpt>
<trkpt lat="57.325115" lon="9.662525">
<ele>19.794457</ele>
<time>2026-07-16T12:01:01.000Z</time>
</trkpt>
<trkpt lat="57.325161" lon="9.662437">
<ele>19.663817</ele>
<time>2026-07-16T12:01:02.000Z</time>
</trkpt>
<trkpt lat="57.325199" lon="9.662362">
<ele>19.554119</ele>
<time>2026-07-16T12:01:03.000Z</time>
</trkpt>
<trkpt lat="57.325233" lon="9.662292">
<ele>19.453695</ele>
<time>2026-07-16T12:01:04.000Z</time>
</trkpt>
<trkpt lat="57.325268" lon="9.662225">
<ele>19.354262</ele>
<time>2026-07-16T12:01:05.000Z</time>
</trkpt>
<trkpt lat="57.325294" lon="9.662163">
<ele>19.270533</ele>
<time>2026-07-16T12:01:06.000Z</time>
</trkpt>
<trkpt lat="57.325325" lon="9.662103">
<ele>19.181959</ele>
<time>2026-07-16T12:01:07.000Z</time>
</trkpt>
<trkpt lat="57.325356" lon="9.662044">
<ele>19.094153</ele>
<time>2026-07-16T12:01:08.000Z</time>
</trkpt>
<trkpt lat="57.325386" lon="9.661987">
<ele>19.009253</ele>
<time>2026-07-16T12:01:09.000Z</time>
</trkpt>
<trkpt lat="57.325413" lon="9.661931">
<ele>18.929177</ele>
<time>2026-07-16T12:01:10.000Z</time>
</trkpt>
<trkpt lat="57.325439" lon="9.661876">
<ele>18.851210</ele>
<time>2026-07-16T12:01:11.000Z</time>
</trkpt>
<trkpt lat="57.325462" lon="9.661831">
<ele>18.785120</ele>
<time>2026-07-16T12:01:12.000Z</time>
</trkpt>
<trkpt lat="57.325478" lon="9.661793">
<ele>18.733724</ele>
<time>2026-07-16T12:01:13.000Z</time>
</trkpt>
<trkpt lat="57.325485" lon="9.661761">
<ele>18.696900</ele>
<time>2026-07-16T12:01:14.000Z</time>
</trkpt>
<trkpt lat="57.325497" lon="9.661725">
<ele>18.651777</ele>
<time>2026-07-16T12:01:15.000Z</time>
</trkpt>
<trkpt lat="57.325508" lon="9.661690">
<ele>18.608584</ele>
<time>2026-07-16T12:01:16.000Z</time>
</trkpt>
<trkpt lat="57.325520" lon="9.661655">
<ele>18.564365</ele>
<time>2026-07-16T12:01:17.000Z</time>
</trkpt>
<trkpt lat="57.325539" lon="9.661618">
<ele>18.509904</ele>
<time>2026-07-16T12:01:18.000Z</time>
</trkpt>
<trkpt lat="57.325554" lon="9.661581">
<ele>18.460555</ele>
<time>2026-07-16T12:01:19.000Z</time>
</trkpt>
<trkpt lat="57.325569" lon="9.661541">
<ele>18.408613</ele>
<time>2026-07-16T12:01:20.000Z</time>
</trkpt>
<trkpt lat="57.325581" lon="9.661510">
<ele>18.367930</ele>
<time>2026-07-16T12:01:21.000Z</time>
</trkpt>
<trkpt lat="57.325592" lon="9.661482">
<ele>18.330998</ele>
<time>2026-07-16T12:01:22.000Z</time>
</trkpt>
<trkpt lat="57.325630" lon="9.661374">
<ele>18.193512</ele>
<time>2026-07-16T12:01:34.000Z</time>
</trkpt>
<trkpt lat="57.325642" lon="9.661343">
<ele>18.152829</ele>
<time>2026-07-16T12:01:35.000Z</time>
</trkpt>
<trkpt lat="57.325657" lon="9.661310">
<ele>18.106821</ele>
<time>2026-07-16T12:01:36.000Z</time>
</trkpt>
<trkpt lat="57.325668" lon="9.661277">
<ele>18.065458</ele>
<time>2026-07-16T12:01:37.000Z</time>
</trkpt>
<trkpt lat="57.325684" lon="9.661243">
<ele>18.017354</ele>
<time>2026-07-16T12:01:38.000Z</time>
</trkpt>
<trkpt lat="57.325695" lon="9.661206">
<ele>17.972306</ele>
<time>2026-07-16T12:01:39.000Z</time>
</trkpt>
<trkpt lat="57.325706" lon="9.661173">
<ele>17.930943</ele>
<time>2026-07-16T12:01:40.000Z</time>
</trkpt>
<trkpt lat="57.325726" lon="9.661140">
<ele>17.878031</ele>
<time>2026-07-16T12:01:41.000Z</time>
</trkpt>
<trkpt lat="57.325745" lon="9.661114">
<ele>17.831364</ele>
<time>2026-07-16T12:01:42.000Z</time>
</trkpt>
<trkpt lat="57.325764" lon="9.661082">
<ele>17.780633</ele>
<time>2026-07-16T12:01:43.000Z</time>
</trkpt>
<trkpt lat="57.325783" lon="9.661050">
<ele>17.729903</ele>
<time>2026-07-16T12:01:44.000Z</time>
</trkpt>
<trkpt lat="57.325802" lon="9.661016">
<ele>17.677714</ele>
<time>2026-07-16T12:01:45.000Z</time>
</trkpt>
<trkpt lat="57.325825" lon="9.660984">
<ele>17.620887</ele>
<time>2026-07-16T12:01:46.000Z</time>
</trkpt>
<trkpt lat="57.325848" lon="9.660947">
<ele>17.560707</ele>
<time>2026-07-16T12:01:47.000Z</time>
</trkpt>
<trkpt lat="57.325870" lon="9.660917">
<ele>17.506739</ele>
<time>2026-07-16T12:01:48.000Z</time>
</trkpt>
<trkpt lat="57.325893" lon="9.660892">
<ele>17.454057</ele>
<time>2026-07-16T12:01:49.000Z</time>
</trkpt>
<trkpt lat="57.325924" lon="9.660872">
<ele>17.389208</ele>
<time>2026-07-16T12:01:50.000Z</time>
</trkpt>
<trkpt lat="57.325954" lon="9.660858">
<ele>17.328090</ele>
<time>2026-07-16T12:01:51.000Z</time>
</trkpt>
<trkpt lat="57.325981" lon="9.660848">
<ele>17.273696</ele>
<time>2026-07-16T12:01:52.000Z</time>
</trkpt>
<trkpt lat="57.326016" lon="9.660839">
<ele>17.203890</ele>
<time>2026-07-16T12:01:53.000Z</time>
</trkpt>
<trkpt lat="57.326046" lon="9.660834">
<ele>17.151322</ele>
<time>2026-07-16T12:01:54.000Z</time>
</trkpt>
<trkpt lat="57.326077" lon="9.660830">
<ele>17.128836</ele>
<time>2026-07-16T12:01:55.000Z</time>
</trkpt>
<trkpt lat="57.326107" lon="9.660830">
<ele>17.107128</ele>
<time>2026-07-16T12:01:56.000Z</time>
</trkpt>
<trkpt lat="57.326141" lon="9.660830">
<ele>17.082526</ele>
<time>2026-07-16T12:01:57.000Z</time>
</trkpt>
<trkpt lat="57.326172" lon="9.660829">
<ele>17.060091</ele>
<time>2026-07-16T12:01:58.000Z</time>
</trkpt>
<trkpt lat="57.326206" lon="9.660824">
<ele>17.035411</ele>
<time>2026-07-16T12:01:59.000Z</time>
</trkpt>
<trkpt lat="57.326237" lon="9.660816">
<ele>17.012763</ele>
<time>2026-07-16T12:02:00.000Z</time>
</trkpt>
<trkpt lat="57.326271" lon="9.660805">
<ele>16.987788</ele>
<time>2026-07-16T12:02:01.000Z</time>
</trkpt>
<trkpt lat="57.326305" lon="9.660790">
<ele>16.962498</ele>
<time>2026-07-16T12:02:02.000Z</time>
</trkpt>
<trkpt lat="57.326340" lon="9.660773">
<ele>16.936316</ele>
<time>2026-07-16T12:02:03.000Z</time>
</trkpt>
<trkpt lat="57.326370" lon="9.660758">
<ele>16.913831</ele>
<time>2026-07-16T12:02:04.000Z</time>
</trkpt>
<trkpt lat="57.326405" lon="9.660738">
<ele>16.887327</ele>
<time>2026-07-16T12:02:05.000Z</time>
</trkpt>
<trkpt lat="57.326431" lon="9.660719">
<ele>16.867102</ele>
<time>2026-07-16T12:02:06.000Z</time>
</trkpt>
<trkpt lat="57.326466" lon="9.660699">
<ele>16.840599</ele>
<time>2026-07-16T12:02:07.000Z</time>
</trkpt>
<trkpt lat="57.326496" lon="9.660682">
<ele>16.817898</ele>
<time>2026-07-16T12:02:08.000Z</time>
</trkpt>
<trkpt lat="57.326527" lon="9.660662">
<ele>16.794145</ele>
<time>2026-07-16T12:02:09.000Z</time>
</trkpt>
<trkpt lat="57.326557" lon="9.660640">
<ele>16.770797</ele>
<time>2026-07-16T12:02:10.000Z</time>
</trkpt>
<trkpt lat="57.326588" lon="9.660613">
<ele>16.746010</ele>
<time>2026-07-16T12:02:11.000Z</time>
</trkpt>
<trkpt lat="57.326611" lon="9.660589">
<ele>16.726908</ele>
<time>2026-07-16T12:02:12.000Z</time>
</trkpt>
<trkpt lat="57.326641" lon="9.660552">
<ele>16.700829</ele>
<time>2026-07-16T12:02:13.000Z</time>
</trkpt>
<trkpt lat="57.326660" lon="9.660527">
<ele>16.683965</ele>
<time>2026-07-16T12:02:14.000Z</time>
</trkpt>
<trkpt lat="57.326687" lon="9.660487">
<ele>16.658948</ele>
<time>2026-07-16T12:02:15.000Z</time>
</trkpt>
<trkpt lat="57.326717" lon="9.660443">
<ele>16.631259</ele>
<time>2026-07-16T12:02:16.000Z</time>
</trkpt>
<trkpt lat="57.326744" lon="9.660409">
<ele>16.607635</ele>
<time>2026-07-16T12:02:17.000Z</time>
</trkpt>
<trkpt lat="57.326771" lon="9.660381">
<ele>16.585245</ele>
<time>2026-07-16T12:02:18.000Z</time>
</trkpt>
<trkpt lat="57.326805" lon="9.660355">
<ele>16.558628</ele>
<time>2026-07-16T12:02:19.000Z</time>
</trkpt>
<trkpt lat="57.326832" lon="9.660331">
<ele>16.536958</ele>
<time>2026-07-16T12:02:20.000Z</time>
</trkpt>
<trkpt lat="57.326862" lon="9.660307">
<ele>16.513312</ele>
<time>2026-07-16T12:02:21.000Z</time>
</trkpt>
<trkpt lat="57.326893" lon="9.660283">
<ele>16.489000</ele>
<time>2026-07-16T12:02:22.000Z</time>
</trkpt>
<trkpt lat="57.326923" lon="9.660263">
<ele>16.465929</ele>
<time>2026-07-16T12:02:23.000Z</time>
</trkpt>
<trkpt lat="57.326954" lon="9.660246">
<ele>16.442535</ele>
<time>2026-07-16T12:02:24.000Z</time>
</trkpt>
<trkpt lat="57.326984" lon="9.660236">
<ele>16.420479</ele>
<time>2026-07-16T12:02:25.000Z</time>
</trkpt>
<trkpt lat="57.327015" lon="9.660236">
<ele>16.398047</ele>
<time>2026-07-16T12:02:26.000Z</time>
</trkpt>
<trkpt lat="57.327045" lon="9.660242">
<ele>16.376213</ele>
<time>2026-07-16T12:02:27.000Z</time>
</trkpt>
<trkpt lat="57.327072" lon="9.660253">
<ele>16.356209</ele>
<time>2026-07-16T12:02:28.000Z</time>
</trkpt>
<trkpt lat="57.327099" lon="9.660259">
<ele>16.336532</ele>
<time>2026-07-16T12:02:29.000Z</time>
</trkpt>
<trkpt lat="57.327126" lon="9.660266">
<ele>16.316804</ele>
<time>2026-07-16T12:02:30.000Z</time>
</trkpt>
<trkpt lat="57.327152" lon="9.660270">
<ele>16.297926</ele>
<time>2026-07-16T12:02:31.000Z</time>
</trkpt>
<trkpt lat="57.327183" lon="9.660279">
<ele>16.275220</ele>
<time>2026-07-16T12:02:32.000Z</time>
</trkpt>
<trkpt lat="57.327210" lon="9.660295">
<ele>16.254708</ele>
<time>2026-07-16T12:02:33.000Z</time>
</trkpt>
<trkpt lat="57.327236" lon="9.660312">
<ele>16.234757</ele>
<time>2026-07-16T12:02:34.000Z</time>
</trkpt>
<trkpt lat="57.327259" lon="9.660332">
<ele>16.216371</ele>
<time>2026-07-16T12:02:35.000Z</time>
</trkpt>
<trkpt lat="57.327282" lon="9.660351">
<ele>16.198149</ele>
<time>2026-07-16T12:02:36.000Z</time>
</trkpt>
<trkpt lat="57.327305" lon="9.660376">
<ele>16.178852</ele>
<time>2026-07-16T12:02:37.000Z</time>
</trkpt>
<trkpt lat="57.327328" lon="9.660399">
<ele>16.159939</ele>
<time>2026-07-16T12:02:38.000Z</time>
</trkpt>
<trkpt lat="57.327354" lon="9.660431">
<ele>16.137352</ele>
<time>2026-07-16T12:02:39.000Z</time>
</trkpt>
<trkpt lat="57.327377" lon="9.660462">
<ele>16.116770</ele>
<time>2026-07-16T12:02:40.000Z</time>
</trkpt>
<trkpt lat="57.327404" lon="9.660498">
<ele>16.092698</ele>
<time>2026-07-16T12:02:41.000Z</time>
</trkpt>
<trkpt lat="57.327427" lon="9.660534">
<ele>16.070909</ele>
<time>2026-07-16T12:02:42.000Z</time>
</trkpt>
<trkpt lat="57.327450" lon="9.660572">
<ele>16.048609</ele>
<time>2026-07-16T12:02:43.000Z</time>
</trkpt>
<trkpt lat="57.327473" lon="9.660609">
<ele>16.026566</ele>
<time>2026-07-16T12:02:44.000Z</time>
</trkpt>
<trkpt lat="57.327499" lon="9.660648">
<ele>16.002358</ele>
<time>2026-07-16T12:02:45.000Z</time>
</trkpt>
<trkpt lat="57.327522" lon="9.660686">
<ele>15.980057</ele>
<time>2026-07-16T12:02:46.000Z</time>
</trkpt>
<trkpt lat="57.327549" lon="9.660726">
<ele>15.955040</ele>
<time>2026-07-16T12:02:47.000Z</time>
</trkpt>
<trkpt lat="57.327572" lon="9.660764">
<ele>15.932740</ele>
<time>2026-07-16T12:02:48.000Z</time>
</trkpt>
<trkpt lat="57.327599" lon="9.660802">
<ele>15.908203</ele>
<time>2026-07-16T12:02:49.000Z</time>
</trkpt>
<trkpt lat="57.327625" lon="9.660837">
<ele>15.884947</ele>
<time>2026-07-16T12:02:50.000Z</time>
</trkpt>
<trkpt lat="57.327652" lon="9.660875">
<ele>15.860410</ele>
<time>2026-07-16T12:02:51.000Z</time>
</trkpt>
<trkpt lat="57.327675" lon="9.660913">
<ele>15.851781</ele>
<time>2026-07-16T12:02:52.000Z</time>
</trkpt>
<trkpt lat="57.327702" lon="9.660951">
<ele>15.848575</ele>
<time>2026-07-16T12:02:53.000Z</time>
</trkpt>
<trkpt lat="57.327724" lon="9.660987">
<ele>15.845799</ele>
<time>2026-07-16T12:02:54.000Z</time>
</trkpt>
<trkpt lat="57.327751" lon="9.661023">
<ele>15.842654</ele>
<time>2026-07-16T12:02:55.000Z</time>
</trkpt>
<trkpt lat="57.327778" lon="9.661060">
<ele>15.839479</ele>
<time>2026-07-16T12:02:56.000Z</time>
</trkpt>
<trkpt lat="57.327805" lon="9.661097">
<ele>15.836303</ele>
<time>2026-07-16T12:02:57.000Z</time>
</trkpt>
<trkpt lat="57.327831" lon="9.661131">
<ele>15.833294</ele>
<time>2026-07-16T12:02:58.000Z</time>
</trkpt>
<trkpt lat="57.327858" lon="9.661167">
<ele>15.830148</ele>
<time>2026-07-16T12:02:59.000Z</time>
</trkpt>
<trkpt lat="57.327881" lon="9.661197">
<ele>15.827489</ele>
<time>2026-07-16T12:03:00.000Z</time>
</trkpt>
<trkpt lat="57.327919" lon="9.661242">
<ele>15.823224</ele>
<time>2026-07-16T12:03:01.000Z</time>
</trkpt>
<trkpt lat="57.327950" lon="9.661282">
<ele>15.819652</ele>
<time>2026-07-16T12:03:02.000Z</time>
</trkpt>
<trkpt lat="57.327976" lon="9.661318">
<ele>15.816583</ele>
<time>2026-07-16T12:03:03.000Z</time>
</trkpt>
<trkpt lat="57.328007" lon="9.661352">
<ele>15.813177</ele>
<time>2026-07-16T12:03:04.000Z</time>
</trkpt>
<trkpt lat="57.328037" lon="9.661389">
<ele>15.809769</ele>
<time>2026-07-16T12:03:05.000Z</time>
</trkpt>
<trkpt lat="57.328060" lon="9.661420">
<ele>15.807080</ele>
<time>2026-07-16T12:03:06.000Z</time>
</trkpt>
<trkpt lat="57.328094" lon="9.661467">
<ele>15.803069</ele>
<time>2026-07-16T12:03:07.000Z</time>
</trkpt>
<trkpt lat="57.328121" lon="9.661508">
<ele>15.799768</ele>
<time>2026-07-16T12:03:08.000Z</time>
</trkpt>
<trkpt lat="57.328148" lon="9.661542">
<ele>15.796681</ele>
<time>2026-07-16T12:03:09.000Z</time>
</trkpt>
<trkpt lat="57.328171" lon="9.661575">
<ele>15.793930</ele>
<time>2026-07-16T12:03:10.000Z</time>
</trkpt>
<trkpt lat="57.328201" lon="9.661606">
<ele>15.790682</ele>
<time>2026-07-16T12:03:11.000Z</time>
</trkpt>
<trkpt lat="57.328228" lon="9.661640">
<ele>15.787595</ele>
<time>2026-07-16T12:03:12.000Z</time>
</trkpt>
<trkpt lat="57.328255" lon="9.661677">
<ele>15.784420</ele>
<time>2026-07-16T12:03:13.000Z</time>
</trkpt>
<trkpt lat="57.328285" lon="9.661712">
<ele>15.781068</ele>
<time>2026-07-16T12:03:14.000Z</time>
</trkpt>
<trkpt lat="57.328316" lon="9.661750">
<ele>15.777553</ele>
<time>2026-07-16T12:03:15.000Z</time>
</trkpt>
<trkpt lat="57.328342" lon="9.661785">
<ele>15.774514</ele>
<time>2026-07-16T12:03:16.000Z</time>
</trkpt>
<trkpt lat="57.328373" lon="9.661820">
<ele>15.771081</ele>
<time>2026-07-16T12:03:17.000Z</time>
</trkpt>
<trkpt lat="57.328400" lon="9.661857">
<ele>15.767906</ele>
<time>2026-07-16T12:03:18.000Z</time>
</trkpt>
<trkpt lat="57.328430" lon="9.661895">
<ele>15.764470</ele>
<time>2026-07-16T12:03:19.000Z</time>
</trkpt>
<trkpt lat="57.328457" lon="9.661938">
<ele>15.761103</ele>
<time>2026-07-16T12:03:20.000Z</time>
</trkpt>
<trkpt lat="57.328480" lon="9.661983">
<ele>15.757940</ele>
<time>2026-07-16T12:03:21.000Z</time>
</trkpt>
<trkpt lat="57.328510" lon="9.662026">
<ele>15.754354</ele>
<time>2026-07-16T12:03:22.000Z</time>
</trkpt>
<trkpt lat="57.328541" lon="9.662064">
<ele>15.750839</ele>
<time>2026-07-16T12:03:23.000Z</time>
</trkpt>
<trkpt lat="57.328571" lon="9.662101">
<ele>15.747431</ele>
<time>2026-07-16T12:03:24.000Z</time>
</trkpt>
<trkpt lat="57.328606" lon="9.662140">
<ele>15.743569</ele>
<time>2026-07-16T12:03:25.000Z</time>
</trkpt>
<trkpt lat="57.328636" lon="9.662177">
<ele>15.740162</ele>
<time>2026-07-16T12:03:26.000Z</time>
</trkpt>
<trkpt lat="57.328667" lon="9.662217">
<ele>15.736590</ele>
<time>2026-07-16T12:03:27.000Z</time>
</trkpt>
<trkpt lat="57.328693" lon="9.662246">
<ele>15.733720</ele>
<time>2026-07-16T12:03:28.000Z</time>
</trkpt>
<trkpt lat="57.328728" lon="9.662287">
<ele>15.729805</ele>
<time>2026-07-16T12:03:29.000Z</time>
</trkpt>
<trkpt lat="57.328751" lon="9.662319">
<ele>15.727085</ele>
<time>2026-07-16T12:03:30.000Z</time>
</trkpt>
<trkpt lat="57.328785" lon="9.662363">
<ele>15.723164</ele>
<time>2026-07-16T12:03:31.000Z</time>
</trkpt>
<trkpt lat="57.328815" lon="9.662402">
<ele>15.719698</ele>
<time>2026-07-16T12:03:32.000Z</time>
</trkpt>
<trkpt lat="57.328846" lon="9.662444">
<ele>15.716067</ele>
<time>2026-07-16T12:03:33.000Z</time>
</trkpt>
<trkpt lat="57.328876" lon="9.662481">
<ele>15.712659</ele>
<time>2026-07-16T12:03:34.000Z</time>
</trkpt>
<trkpt lat="57.328907" lon="9.662520">
<ele>15.709116</ele>
<time>2026-07-16T12:03:35.000Z</time>
</trkpt>
<trkpt lat="57.328941" lon="9.662557">
<ele>15.705388</ele>
<time>2026-07-16T12:03:36.000Z</time>
</trkpt>
<trkpt lat="57.328972" lon="9.662595">
<ele>15.701873</ele>
<time>2026-07-16T12:03:37.000Z</time>
</trkpt>
<trkpt lat="57.329002" lon="9.662632">
<ele>15.698465</ele>
<time>2026-07-16T12:03:38.000Z</time>
</trkpt>
<trkpt lat="57.329037" lon="9.662674">
<ele>15.694523</ele>
<time>2026-07-16T12:03:39.000Z</time>
</trkpt>
<trkpt lat="57.329067" lon="9.662709">
<ele>15.691170</ele>
<time>2026-07-16T12:03:40.000Z</time>
</trkpt>
<trkpt lat="57.329102" lon="9.662746">
<ele>15.687360</ele>
<time>2026-07-16T12:03:41.000Z</time>
</trkpt>
<trkpt lat="57.329136" lon="9.662776">
<ele>15.683799</ele>
<time>2026-07-16T12:03:42.000Z</time>
</trkpt>
<trkpt lat="57.329174" lon="9.662807">
<ele>15.680111</ele>
<time>2026-07-16T12:03:43.000Z</time>
</trkpt>
<trkpt lat="57.329208" lon="9.662838">
<ele>15.676746</ele>
<time>2026-07-16T12:03:44.000Z</time>
</trkpt>
<trkpt lat="57.329243" lon="9.662869">
<ele>15.673301</ele>
<time>2026-07-16T12:03:45.000Z</time>
</trkpt>
<trkpt lat="57.329277" lon="9.662904">
<ele>15.669847</ele>
<time>2026-07-16T12:03:46.000Z</time>
</trkpt>
<trkpt lat="57.329308" lon="9.662937">
<ele>15.666673</ele>
<time>2026-07-16T12:03:47.000Z</time>
</trkpt>
<trkpt lat="57.329334" lon="9.662968">
<ele>15.663927</ele>
<time>2026-07-16T12:03:48.000Z</time>
</trkpt>
<trkpt lat="57.329369" lon="9.663002">
<ele>15.660418</ele>
<time>2026-07-16T12:03:49.000Z</time>
</trkpt>
<trkpt lat="57.329399" lon="9.663031">
<ele>15.657413</ele>
<time>2026-07-16T12:03:50.000Z</time>
</trkpt>
<trkpt lat="57.329426" lon="9.663059">
<ele>15.654666</ele>
<time>2026-07-16T12:03:51.000Z</time>
</trkpt>
<trkpt lat="57.329441" lon="9.663080">
<ele>15.652996</ele>
<time>2026-07-16T12:03:52.000Z</time>
</trkpt>
<trkpt lat="57.329456" lon="9.663103">
<ele>15.651267</ele>
<time>2026-07-16T12:03:56.000Z</time>
</trkpt>
<trkpt lat="57.329479" lon="9.663133">
<ele>15.648769</ele>
<time>2026-07-16T12:03:58.000Z</time>
</trkpt>
<trkpt lat="57.329506" lon="9.663170">
<ele>15.645787</ele>
<time>2026-07-16T12:03:59.000Z</time>
</trkpt>
<trkpt lat="57.329529" lon="9.663203">
<ele>15.643204</ele>
<time>2026-07-16T12:04:00.000Z</time>
</trkpt>
<trkpt lat="57.329556" lon="9.663237">
<ele>15.640305</ele>
<time>2026-07-16T12:04:01.000Z</time>
</trkpt>
<trkpt lat="57.329586" lon="9.663272">
<ele>15.637157</ele>
<time>2026-07-16T12:04:02.000Z</time>
</trkpt>
<trkpt lat="57.329617" lon="9.663305">
<ele>15.633982</ele>
<time>2026-07-16T12:04:03.000Z</time>
</trkpt>
<trkpt lat="57.329647" lon="9.663341">
<ele>15.630808</ele>
<time>2026-07-16T12:04:04.000Z</time>
</trkpt>
<trkpt lat="57.329681" lon="9.663381">
<ele>15.627232</ele>
<time>2026-07-16T12:04:05.000Z</time>
</trkpt>
<trkpt lat="57.329712" lon="9.663414">
<ele>15.624057</ele>
<time>2026-07-16T12:04:06.000Z</time>
</trkpt>
<trkpt lat="57.329746" lon="9.663453">
<ele>15.620506</ele>
<time>2026-07-16T12:04:07.000Z</time>
</trkpt>
<trkpt lat="57.329777" lon="9.663492">
<ele>15.617179</ele>
<time>2026-07-16T12:04:08.000Z</time>
</trkpt>
<trkpt lat="57.329811" lon="9.663534">
<ele>15.613550</ele>
<time>2026-07-16T12:04:09.000Z</time>
</trkpt>
<trkpt lat="57.329842" lon="9.663571">
<ele>15.610276</ele>
<time>2026-07-16T12:04:10.000Z</time>
</trkpt>
<trkpt lat="57.329876" lon="9.663611">
<ele>15.606699</ele>
<time>2026-07-16T12:04:11.000Z</time>
</trkpt>
<trkpt lat="57.329910" lon="9.663650">
<ele>15.603148</ele>
<time>2026-07-16T12:04:12.000Z</time>
</trkpt>
<trkpt lat="57.329941" lon="9.663694">
<ele>15.599681</ele>
<time>2026-07-16T12:04:13.000Z</time>
</trkpt>
<trkpt lat="57.329971" lon="9.663733">
<ele>15.596426</ele>
<time>2026-07-16T12:04:14.000Z</time>
</trkpt>
<trkpt lat="57.330006" lon="9.663774">
<ele>15.592749</ele>
<time>2026-07-16T12:04:15.000Z</time>
</trkpt>
<trkpt lat="57.330036" lon="9.663810">
<ele>15.589575</ele>
<time>2026-07-16T12:04:16.000Z</time>
</trkpt>
<trkpt lat="57.330071" lon="9.663850">
<ele>15.585924</ele>
<time>2026-07-16T12:04:17.000Z</time>
</trkpt>
<trkpt lat="57.330097" lon="9.663880">
<ele>15.583204</ele>
<time>2026-07-16T12:04:18.000Z</time>
</trkpt>
<trkpt lat="57.330132" lon="9.663921">
<ele>15.579527</ele>
<time>2026-07-16T12:04:19.000Z</time>
</trkpt>
<trkpt lat="57.330170" lon="9.663960">
<ele>15.575669</ele>
<time>2026-07-16T12:04:20.000Z</time>
</trkpt>
<trkpt lat="57.330204" lon="9.663998">
<ele>15.572143</ele>
<time>2026-07-16T12:04:21.000Z</time>
</trkpt>
<trkpt lat="57.330235" lon="9.664035">
<ele>15.568869</ele>
<time>2026-07-16T12:04:22.000Z</time>
</trkpt>
<trkpt lat="57.330273" lon="9.664075">
<ele>15.564988</ele>
<time>2026-07-16T12:04:23.000Z</time>
</trkpt>
<trkpt lat="57.330307" lon="9.664111">
<ele>15.561511</ele>
<time>2026-07-16T12:04:24.000Z</time>
</trkpt>
<trkpt lat="57.330341" lon="9.664152">
<ele>15.557908</ele>
<time>2026-07-16T12:04:25.000Z</time>
</trkpt>
<trkpt lat="57.330376" lon="9.664190">
<ele>15.554306</ele>
<time>2026-07-16T12:04:26.000Z</time>
</trkpt>
<trkpt lat="57.330406" lon="9.664231">
<ele>15.550996</ele>
<time>2026-07-16T12:04:27.000Z</time>
</trkpt>
<trkpt lat="57.330441" lon="9.664269">
<ele>15.547394</ele>
<time>2026-07-16T12:04:28.000Z</time>
</trkpt>
<trkpt lat="57.330479" lon="9.664306">
<ele>15.543582</ele>
<time>2026-07-16T12:04:29.000Z</time>
</trkpt>
<trkpt lat="57.330509" lon="9.664342">
<ele>15.540408</ele>
<time>2026-07-16T12:04:30.000Z</time>
</trkpt>
<trkpt lat="57.330547" lon="9.664382">
<ele>15.536527</ele>
<time>2026-07-16T12:04:31.000Z</time>
</trkpt>
<trkpt lat="57.330582" lon="9.664417">
<ele>15.532995</ele>
<time>2026-07-16T12:04:32.000Z</time>
</trkpt>
<trkpt lat="57.330616" lon="9.664452">
<ele>15.529542</ele>
<time>2026-07-16T12:04:33.000Z</time>
</trkpt>
<trkpt lat="57.330650" lon="9.664479">
<ele>15.526257</ele>
<time>2026-07-16T12:04:34.000Z</time>
</trkpt>
<trkpt lat="57.330688" lon="9.664514">
<ele>15.525982</ele>
<time>2026-07-16T12:04:35.000Z</time>
</trkpt>
<trkpt lat="57.330715" lon="9.664547">
<ele>15.529487</ele>
<time>2026-07-16T12:04:36.000Z</time>
</trkpt>
<trkpt lat="57.330753" lon="9.664586">
<ele>15.534196</ele>
<time>2026-07-16T12:04:37.000Z</time>
</trkpt>
<trkpt lat="57.330788" lon="9.664623">
<ele>15.538563</ele>
<time>2026-07-16T12:04:38.000Z</time>
</trkpt>
<trkpt lat="57.330818" lon="9.664660">
<ele>15.542469</ele>
<time>2026-07-16T12:04:39.000Z</time>
</trkpt>
<trkpt lat="57.330849" lon="9.664697">
<ele>15.546466</ele>
<time>2026-07-16T12:04:40.000Z</time>
</trkpt>
<trkpt lat="57.330883" lon="9.664738">
<ele>15.550863</ele>
<time>2026-07-16T12:04:41.000Z</time>
</trkpt>
<trkpt lat="57.330917" lon="9.664777">
<ele>15.555197</ele>
<time>2026-07-16T12:04:42.000Z</time>
</trkpt>
<trkpt lat="57.330948" lon="9.664821">
<ele>15.559430</ele>
<time>2026-07-16T12:04:43.000Z</time>
</trkpt>
<trkpt lat="57.330975" lon="9.664852">
<ele>15.562872</ele>
<time>2026-07-16T12:04:44.000Z</time>
</trkpt>
<trkpt lat="57.331013" lon="9.664899">
<ele>15.567824</ele>
<time>2026-07-16T12:04:45.000Z</time>
</trkpt>
<trkpt lat="57.331051" lon="9.664940">
<ele>15.572591</ele>
<time>2026-07-16T12:04:46.000Z</time>
</trkpt>
<trkpt lat="57.331081" lon="9.664981">
<ele>15.576631</ele>
<time>2026-07-16T12:04:47.000Z</time>
</trkpt>
<trkpt lat="57.331116" lon="9.665019">
<ele>15.581028</ele>
<time>2026-07-16T12:04:48.000Z</time>
</trkpt>
<trkpt lat="57.331150" lon="9.665057">
<ele>15.585331</ele>
<time>2026-07-16T12:04:49.000Z</time>
</trkpt>
<trkpt lat="57.331181" lon="9.665090">
<ele>15.589206</ele>
<time>2026-07-16T12:04:50.000Z</time>
</trkpt>
<trkpt lat="57.331223" lon="9.665125">
<ele>15.594198</ele>
<time>2026-07-16T12:04:51.000Z</time>
</trkpt>
<trkpt lat="57.331253" lon="9.665156">
<ele>15.597921</ele>
<time>2026-07-16T12:04:52.000Z</time>
</trkpt>
<trkpt lat="57.331291" lon="9.665186">
<ele>15.602398</ele>
<time>2026-07-16T12:04:53.000Z</time>
</trkpt>
<trkpt lat="57.331326" lon="9.665214">
<ele>15.606530</ele>
<time>2026-07-16T12:04:54.000Z</time>
</trkpt>
<trkpt lat="57.331368" lon="9.665244">
<ele>15.611408</ele>
<time>2026-07-16T12:04:55.000Z</time>
</trkpt>
<trkpt lat="57.331402" lon="9.665276">
<ele>15.615542</ele>
<time>2026-07-16T12:04:56.000Z</time>
</trkpt>
<trkpt lat="57.331436" lon="9.665307">
<ele>15.619649</ele>
<time>2026-07-16T12:04:57.000Z</time>
</trkpt>
<trkpt lat="57.331471" lon="9.665340">
<ele>15.623905</ele>
<time>2026-07-16T12:04:58.000Z</time>
</trkpt>
<trkpt lat="57.331501" lon="9.665379">
<ele>15.627877</ele>
<time>2026-07-16T12:04:59.000Z</time>
</trkpt>
<trkpt lat="57.331524" lon="9.665414">
<ele>15.631103</ele>
<time>2026-07-16T12:05:00.000Z</time>
</trkpt>
<trkpt lat="57.331558" lon="9.665462">
<ele>15.635736</ele>
<time>2026-07-16T12:05:01.000Z</time>
</trkpt>
<trkpt lat="57.331593" lon="9.665501">
<ele>15.640163</ele>
<time>2026-07-16T12:05:02.000Z</time>
</trkpt>
<trkpt lat="57.331623" lon="9.665535">
<ele>15.643974</ele>
<time>2026-07-16T12:05:03.000Z</time>
</trkpt>
<trkpt lat="57.331654" lon="9.665566">
<ele>15.647792</ele>
<time>2026-07-16T12:05:04.000Z</time>
</trkpt>
<trkpt lat="57.331688" lon="9.665606">
<ele>15.652157</ele>
<time>2026-07-16T12:05:05.000Z</time>
</trkpt>
<trkpt lat="57.331718" lon="9.665647">
<ele>15.656198</ele>
<time>2026-07-16T12:05:06.000Z</time>
</trkpt>
<trkpt lat="57.331753" lon="9.665687">
<ele>15.660655</ele>
<time>2026-07-16T12:05:07.000Z</time>
</trkpt>
<trkpt lat="57.331787" lon="9.665723">
<ele>15.664899</ele>
<time>2026-07-16T12:05:08.000Z</time>
</trkpt>
<trkpt lat="57.331821" lon="9.665760">
<ele>15.669173</ele>
<time>2026-07-16T12:05:09.000Z</time>
</trkpt>
<trkpt lat="57.331848" lon="9.665792">
<ele>15.672647</ele>
<time>2026-07-16T12:05:10.000Z</time>
</trkpt>
<trkpt lat="57.331883" lon="9.665829">
<ele>15.677014</ele>
<time>2026-07-16T12:05:11.000Z</time>
</trkpt>
<trkpt lat="57.331909" lon="9.665862">
<ele>15.680430</ele>
<time>2026-07-16T12:05:12.000Z</time>
</trkpt>
<trkpt lat="57.331936" lon="9.665905">
<ele>15.684289</ele>
<time>2026-07-16T12:05:13.000Z</time>
</trkpt>
<trkpt lat="57.331951" lon="9.665939">
<ele>15.686858</ele>
<time>2026-07-16T12:05:14.000Z</time>
</trkpt>
<trkpt lat="57.331966" lon="9.665972">
<ele>15.689382</ele>
<time>2026-07-16T12:05:15.000Z</time>
</trkpt>
<trkpt lat="57.331974" lon="9.665988">
<ele>15.690658</ele>
<time>2026-07-16T12:06:05.000Z</time>
</trkpt>
<trkpt lat="57.331993" lon="9.666000">
<ele>15.692833</ele>
<time>2026-07-16T12:06:06.000Z</time>
</trkpt>
<trkpt lat="57.332008" lon="9.666018">
<ele>15.694770</ele>
<time>2026-07-16T12:06:07.000Z</time>
</trkpt>
<trkpt lat="57.332024" lon="9.666038">
<ele>15.696862</ele>
<time>2026-07-16T12:06:08.000Z</time>
</trkpt>
<trkpt lat="57.332043" lon="9.666060">
<ele>15.699291</ele>
<time>2026-07-16T12:06:09.000Z</time>
</trkpt>
<trkpt lat="57.332066" lon="9.666082">
<ele>15.702096</ele>
<time>2026-07-16T12:06:10.000Z</time>
</trkpt>
<trkpt lat="57.332088" lon="9.666108">
<ele>15.704924</ele>
<time>2026-07-16T12:06:11.000Z</time>
</trkpt>
<trkpt lat="57.332111" lon="9.666134">
<ele>15.707845</ele>
<time>2026-07-16T12:06:12.000Z</time>
</trkpt>
<trkpt lat="57.332138" lon="9.666160">
<ele>15.711143</ele>
<time>2026-07-16T12:06:13.000Z</time>
</trkpt>
<trkpt lat="57.332165" lon="9.666186">
<ele>15.714441</ele>
<time>2026-07-16T12:06:14.000Z</time>
</trkpt>
<trkpt lat="57.332191" lon="9.666213">
<ele>15.717671</ele>
<time>2026-07-16T12:06:15.000Z</time>
</trkpt>
<trkpt lat="57.332218" lon="9.666238">
<ele>15.719186</ele>
<time>2026-07-16T12:06:16.000Z</time>
</trkpt>
<trkpt lat="57.332245" lon="9.666260">
<ele>15.719491</ele>
<time>2026-07-16T12:06:17.000Z</time>
</trkpt>
<trkpt lat="57.332275" lon="9.666285">
<ele>15.719830</ele>
<time>2026-07-16T12:06:18.000Z</time>
</trkpt>
<trkpt lat="57.332302" lon="9.666308">
<ele>15.720136</ele>
<time>2026-07-16T12:06:19.000Z</time>
</trkpt>
<trkpt lat="57.332333" lon="9.666331">
<ele>15.720480</ele>
<time>2026-07-16T12:06:20.000Z</time>
</trkpt>
<trkpt lat="57.332359" lon="9.666357">
<ele>15.720785</ele>
<time>2026-07-16T12:06:21.000Z</time>
</trkpt>
<trkpt lat="57.332386" lon="9.666389">
<ele>15.721115</ele>
<time>2026-07-16T12:06:22.000Z</time>
</trkpt>
<trkpt lat="57.332413" lon="9.666419">
<ele>15.721440</ele>
<time>2026-07-16T12:06:23.000Z</time>
</trkpt>
<trkpt lat="57.332443" lon="9.666452">
<ele>15.721800</ele>
<time>2026-07-16T12:06:24.000Z</time>
</trkpt>
<trkpt lat="57.332474" lon="9.666486">
<ele>15.722171</ele>
<time>2026-07-16T12:06:25.000Z</time>
</trkpt>
<trkpt lat="57.332500" lon="9.666518">
<ele>15.722493</ele>
<time>2026-07-16T12:06:26.000Z</time>
</trkpt>
<trkpt lat="57.332531" lon="9.666550">
<ele>15.722859</ele>
<time>2026-07-16T12:06:27.000Z</time>
</trkpt>
<trkpt lat="57.332565" lon="9.666582">
<ele>15.723252</ele>
<time>2026-07-16T12:06:28.000Z</time>
</trkpt>
<trkpt lat="57.332596" lon="9.666614">
<ele>15.723618</ele>
<time>2026-07-16T12:06:29.000Z</time>
</trkpt>
<trkpt lat="57.332626" lon="9.666654">
<ele>15.723999</ele>
<time>2026-07-16T12:06:30.000Z</time>
</trkpt>
<trkpt lat="57.332657" lon="9.666694">
<ele>15.724389</ele>
<time>2026-07-16T12:06:31.000Z</time>
</trkpt>
<trkpt lat="57.332684" lon="9.666733">
<ele>15.724742</ele>
<time>2026-07-16T12:06:32.000Z</time>
</trkpt>
<trkpt lat="57.332718" lon="9.666771">
<ele>15.725151</ele>
<time>2026-07-16T12:06:33.000Z</time>
</trkpt>
<trkpt lat="57.332748" lon="9.666805">
<ele>15.725514</ele>
<time>2026-07-16T12:06:34.000Z</time>
</trkpt>
<trkpt lat="57.332779" lon="9.666838">
<ele>15.725882</ele>
<time>2026-07-16T12:06:35.000Z</time>
</trkpt>
<trkpt lat="57.332813" lon="9.666870">
<ele>15.726275</ele>
<time>2026-07-16T12:06:36.000Z</time>
</trkpt>
<trkpt lat="57.332848" lon="9.666905">
<ele>15.726685</ele>
<time>2026-07-16T12:06:37.000Z</time>
</trkpt>
<trkpt lat="57.332878" lon="9.666939">
<ele>15.727048</ele>
<time>2026-07-16T12:06:38.000Z</time>
</trkpt>
<trkpt lat="57.332909" lon="9.666972">
<ele>15.727417</ele>
<time>2026-07-16T12:06:39.000Z</time>
</trkpt>
<trkpt lat="57.332943" lon="9.667007">
<ele>15.727818</ele>
<time>2026-07-16T12:06:40.000Z</time>
</trkpt>
<trkpt lat="57.332973" lon="9.667038">
<ele>15.728172</ele>
<time>2026-07-16T12:06:41.000Z</time>
</trkpt>
<trkpt lat="57.333008" lon="9.667076">
<ele>15.728590</ele>
<time>2026-07-16T12:06:42.000Z</time>
</trkpt>
<trkpt lat="57.333042" lon="9.667111">
<ele>15.728991</ele>
<time>2026-07-16T12:06:43.000Z</time>
</trkpt>
<trkpt lat="57.333084" lon="9.667152">
<ele>15.729481</ele>
<time>2026-07-16T12:06:44.000Z</time>
</trkpt>
<trkpt lat="57.333118" lon="9.667190">
<ele>15.729890</ele>
<time>2026-07-16T12:06:45.000Z</time>
</trkpt>
<trkpt lat="57.333153" lon="9.667224">
<ele>15.730297</ele>
<time>2026-07-16T12:06:46.000Z</time>
</trkpt>
<trkpt lat="57.333191" lon="9.667257">
<ele>15.730730</ele>
<time>2026-07-16T12:06:47.000Z</time>
</trkpt>
<trkpt lat="57.333225" lon="9.667297">
<ele>15.731145</ele>
<time>2026-07-16T12:06:48.000Z</time>
</trkpt>
<trkpt lat="57.333252" lon="9.667331">
<ele>15.731482</ele>
<time>2026-07-16T12:06:49.000Z</time>
</trkpt>
<trkpt lat="57.333286" lon="9.667369">
<ele>15.731891</ele>
<time>2026-07-16T12:06:50.000Z</time>
</trkpt>
<trkpt lat="57.333321" lon="9.667406">
<ele>15.732307</ele>
<time>2026-07-16T12:06:51.000Z</time>
</trkpt>
<trkpt lat="57.333351" lon="9.667446">
<ele>15.732688</ele>
<time>2026-07-16T12:06:52.000Z</time>
</trkpt>
<trkpt lat="57.333378" lon="9.667481">
<ele>15.733028</ele>
<time>2026-07-16T12:06:53.000Z</time>
</trkpt>
<trkpt lat="57.333408" lon="9.667516">
<ele>15.733393</ele>
<time>2026-07-16T12:06:54.000Z</time>
</trkpt>
<trkpt lat="57.333435" lon="9.667542">
<ele>15.733707</ele>
<time>2026-07-16T12:06:55.000Z</time>
</trkpt>
<trkpt lat="57.333469" lon="9.667569">
<ele>15.734088</ele>
<time>2026-07-16T12:06:56.000Z</time>
</trkpt>
<trkpt lat="57.333500" lon="9.667599">
<ele>15.734449</ele>
<time>2026-07-16T12:06:57.000Z</time>
</trkpt>
<trkpt lat="57.333534" lon="9.667636">
<ele>15.734856</ele>
<time>2026-07-16T12:06:58.000Z</time>
</trkpt>
<trkpt lat="57.333565" lon="9.667676">
<ele>15.735245</ele>
<time>2026-07-16T12:06:59.000Z</time>
</trkpt>
<trkpt lat="57.333595" lon="9.667718">
<ele>15.735633</ele>
<time>2026-07-16T12:07:00.000Z</time>
</trkpt>
<trkpt lat="57.333630" lon="9.667756">
<ele>15.736051</ele>
<time>2026-07-16T12:07:01.000Z</time>
</trkpt>
<trkpt lat="57.333664" lon="9.667795">
<ele>15.736463</ele>
<time>2026-07-16T12:07:02.000Z</time>
</trkpt>
<trkpt lat="57.333698" lon="9.667832">
<ele>15.736870</ele>
<time>2026-07-16T12:07:03.000Z</time>
</trkpt>
<trkpt lat="57.333733" lon="9.667871">
<ele>15.737291</ele>
<time>2026-07-16T12:07:04.000Z</time>
</trkpt>
<trkpt lat="57.333767" lon="9.667904">
<ele>15.736857</ele>
<time>2026-07-16T12:07:05.000Z</time>
</trkpt>
<trkpt lat="57.333801" lon="9.667940">
<ele>15.734872</ele>
<time>2026-07-16T12:07:06.000Z</time>
</trkpt>
<trkpt lat="57.333828" lon="9.667976">
<ele>15.733185</ele>
<time>2026-07-16T12:07:07.000Z</time>
</trkpt>
<trkpt lat="57.333847" lon="9.668011">
<ele>15.731827</ele>
<time>2026-07-16T12:07:08.000Z</time>
</trkpt>
<trkpt lat="57.333862" lon="9.668042">
<ele>15.730688</ele>
<time>2026-07-16T12:07:09.000Z</time>
</trkpt>
<trkpt lat="57.333874" lon="9.668067">
<ele>15.729772</ele>
<time>2026-07-16T12:08:28.000Z</time>
</trkpt>
<trkpt lat="57.333916" lon="9.668113">
<ele>15.727299</ele>
<time>2026-07-16T12:08:29.000Z</time>
</trkpt>
<trkpt lat="57.333942" lon="9.668138">
<ele>15.725814</ele>
<time>2026-07-16T12:08:30.000Z</time>
</trkpt>
<trkpt lat="57.333965" lon="9.668160">
<ele>15.724502</ele>
<time>2026-07-16T12:08:31.000Z</time>
</trkpt>
<trkpt lat="57.333996" lon="9.668182">
<ele>15.722819</ele>
<time>2026-07-16T12:08:32.000Z</time>
</trkpt>
<trkpt lat="57.334022" lon="9.668207">
<ele>15.721334</ele>
<time>2026-07-16T12:08:33.000Z</time>
</trkpt>
<trkpt lat="57.334053" lon="9.668236">
<ele>15.719574</ele>
<time>2026-07-16T12:08:34.000Z</time>
</trkpt>
<trkpt lat="57.334084" lon="9.668269">
<ele>15.717761</ele>
<time>2026-07-16T12:08:35.000Z</time>
</trkpt>
<trkpt lat="57.334114" lon="9.668302">
<ele>15.715993</ele>
<time>2026-07-16T12:08:36.000Z</time>
</trkpt>
<trkpt lat="57.334145" lon="9.668336">
<ele>15.714166</ele>
<time>2026-07-16T12:08:37.000Z</time>
</trkpt>
<trkpt lat="57.334179" lon="9.668371">
<ele>15.712195</ele>
<time>2026-07-16T12:08:38.000Z</time>
</trkpt>
<trkpt lat="57.334209" lon="9.668405">
<ele>15.710412</ele>
<time>2026-07-16T12:08:39.000Z</time>
</trkpt>
<trkpt lat="57.334248" lon="9.668440">
<ele>15.708215</ele>
<time>2026-07-16T12:08:40.000Z</time>
</trkpt>
<trkpt lat="57.334278" lon="9.668475">
<ele>15.706418</ele>
<time>2026-07-16T12:08:41.000Z</time>
</trkpt>
<trkpt lat="57.334312" lon="9.668513">
<ele>15.704405</ele>
<time>2026-07-16T12:08:42.000Z</time>
</trkpt>
<trkpt lat="57.334347" lon="9.668550">
<ele>15.702362</ele>
<time>2026-07-16T12:08:43.000Z</time>
</trkpt>
<trkpt lat="57.334381" lon="9.668589">
<ele>15.700335</ele>
<time>2026-07-16T12:08:44.000Z</time>
</trkpt>
<trkpt lat="57.334419" lon="9.668625">
<ele>15.698171</ele>
<time>2026-07-16T12:08:45.000Z</time>
</trkpt>
<trkpt lat="57.334454" lon="9.668660">
<ele>15.696155</ele>
<time>2026-07-16T12:08:46.000Z</time>
</trkpt>
<trkpt lat="57.334488" lon="9.668694">
<ele>15.694197</ele>
<time>2026-07-16T12:08:47.000Z</time>
</trkpt>
<trkpt lat="57.334526" lon="9.668726">
<ele>15.692081</ele>
<time>2026-07-16T12:08:48.000Z</time>
</trkpt>
<trkpt lat="57.334557" lon="9.668761">
<ele>15.690240</ele>
<time>2026-07-16T12:08:49.000Z</time>
</trkpt>
<trkpt lat="57.334591" lon="9.668797">
<ele>15.688255</ele>
<time>2026-07-16T12:08:50.000Z</time>
</trkpt>
<trkpt lat="57.334625" lon="9.668834">
<ele>15.686256</ele>
<time>2026-07-16T12:08:51.000Z</time>
</trkpt>
<trkpt lat="57.334660" lon="9.668870">
<ele>15.684227</ele>
<time>2026-07-16T12:08:52.000Z</time>
</trkpt>
<trkpt lat="57.334690" lon="9.668908">
<ele>15.682385</ele>
<time>2026-07-16T12:08:53.000Z</time>
</trkpt>
<trkpt lat="57.334721" lon="9.668950">
<ele>15.680438</ele>
<time>2026-07-16T12:08:54.000Z</time>
</trkpt>
<trkpt lat="57.334751" lon="9.668988">
<ele>15.678595</ele>
<time>2026-07-16T12:08:55.000Z</time>
</trkpt>
<trkpt lat="57.334782" lon="9.669023">
<ele>15.676755</ele>
<time>2026-07-16T12:08:56.000Z</time>
</trkpt>
<trkpt lat="57.334816" lon="9.669053">
<ele>15.674846</ele>
<time>2026-07-16T12:08:57.000Z</time>
</trkpt>
<trkpt lat="57.334847" lon="9.669085">
<ele>15.673047</ele>
<time>2026-07-16T12:08:58.000Z</time>
</trkpt>
<trkpt lat="57.334881" lon="9.669118">
<ele>15.671101</ele>
<time>2026-07-16T12:08:59.000Z</time>
</trkpt>
<trkpt lat="57.334911" lon="9.669149">
<ele>15.669360</ele>
<time>2026-07-16T12:09:00.000Z</time>
</trkpt>
<trkpt lat="57.334946" lon="9.669180">
<ele>15.667393</ele>
<time>2026-07-16T12:09:01.000Z</time>
</trkpt>
<trkpt lat="57.334976" lon="9.669211">
<ele>15.665652</ele>
<time>2026-07-16T12:09:02.000Z</time>
</trkpt>
<trkpt lat="57.335007" lon="9.669245">
<ele>15.663826</ele>
<time>2026-07-16T12:09:03.000Z</time>
</trkpt>
<trkpt lat="57.335041" lon="9.669278">
<ele>15.661880</ele>
<time>2026-07-16T12:09:04.000Z</time>
</trkpt>
<trkpt lat="57.335072" lon="9.669312">
<ele>15.660054</ele>
<time>2026-07-16T12:09:05.000Z</time>
</trkpt>
<trkpt lat="57.335102" lon="9.669346">
<ele>15.658271</ele>
<time>2026-07-16T12:09:06.000Z</time>
</trkpt>
<trkpt lat="57.335136" lon="9.669379">
<ele>15.656325</ele>
<time>2026-07-16T12:09:07.000Z</time>
</trkpt>
<trkpt lat="57.335171" lon="9.669410">
<ele>15.654359</ele>
<time>2026-07-16T12:09:08.000Z</time>
</trkpt>
<trkpt lat="57.335201" lon="9.669439">
<ele>15.652643</ele>
<time>2026-07-16T12:09:09.000Z</time>
</trkpt>
<trkpt lat="57.335236" lon="9.669475">
<ele>15.650614</ele>
<time>2026-07-16T12:09:10.000Z</time>
</trkpt>
<trkpt lat="57.335266" lon="9.669507">
<ele>15.648859</ele>
<time>2026-07-16T12:09:11.000Z</time>
</trkpt>
<trkpt lat="57.335300" lon="9.669539">
<ele>15.646926</ele>
<time>2026-07-16T12:09:12.000Z</time>
</trkpt>
<trkpt lat="57.335335" lon="9.669575">
<ele>15.643464</ele>
<time>2026-07-16T12:09:13.000Z</time>
</trkpt>
<trkpt lat="57.335365" lon="9.669610">
<ele>15.639914</ele>
<time>2026-07-16T12:09:14.000Z</time>
</trkpt>
<trkpt lat="57.335400" lon="9.669645">
<ele>15.635932</ele>
<time>2026-07-16T12:09:15.000Z</time>
</trkpt>
<trkpt lat="57.335434" lon="9.669678">
<ele>15.632090</ele>
<time>2026-07-16T12:09:16.000Z</time>
</trkpt>
<trkpt lat="57.335468" lon="9.669711">
<ele>15.628247</ele>
<time>2026-07-16T12:09:17.000Z</time>
</trkpt>
<trkpt lat="57.335499" lon="9.669744">
<ele>15.624667</ele>
<time>2026-07-16T12:09:18.000Z</time>
</trkpt>
<trkpt lat="57.335533" lon="9.669777">
<ele>15.620825</ele>
<time>2026-07-16T12:09:19.000Z</time>
</trkpt>
<trkpt lat="57.335571" lon="9.669809">
<ele>15.616646</ele>
<time>2026-07-16T12:09:20.000Z</time>
</trkpt>
<trkpt lat="57.335609" lon="9.669843">
<ele>15.612421</ele>
<time>2026-07-16T12:09:21.000Z</time>
</trkpt>
<trkpt lat="57.335648" lon="9.669877">
<ele>15.608106</ele>
<time>2026-07-16T12:09:22.000Z</time>
</trkpt>
<trkpt lat="57.335682" lon="9.669911">
<ele>15.604237</ele>
<time>2026-07-16T12:09:23.000Z</time>
</trkpt>
<trkpt lat="57.335716" lon="9.669946">
<ele>15.600343</ele>
<time>2026-07-16T12:09:24.000Z</time>
</trkpt>
<trkpt lat="57.335754" lon="9.669982">
<ele>15.596070</ele>
<time>2026-07-16T12:09:25.000Z</time>
</trkpt>
<trkpt lat="57.335789" lon="9.670018">
<ele>15.592063</ele>
<time>2026-07-16T12:09:26.000Z</time>
</trkpt>
<trkpt lat="57.335823" lon="9.670058">
<ele>15.588030</ele>
<time>2026-07-16T12:09:27.000Z</time>
</trkpt>
<trkpt lat="57.335854" lon="9.670100">
<ele>15.584185</ele>
<time>2026-07-16T12:09:28.000Z</time>
</trkpt>
<trkpt lat="57.335888" lon="9.670142">
<ele>15.580094</ele>
<time>2026-07-16T12:09:29.000Z</time>
</trkpt>
<trkpt lat="57.335918" lon="9.670182">
<ele>15.576394</ele>
<time>2026-07-16T12:09:30.000Z</time>
</trkpt>
<trkpt lat="57.335953" lon="9.670225">
<ele>15.572189</ele>
<time>2026-07-16T12:09:31.000Z</time>
</trkpt>
<trkpt lat="57.335979" lon="9.670268">
<ele>15.568700</ele>
<time>2026-07-16T12:09:32.000Z</time>
</trkpt>
<trkpt lat="57.336010" lon="9.670307">
<ele>15.564949</ele>
<time>2026-07-16T12:09:33.000Z</time>
</trkpt>
<trkpt lat="57.336044" lon="9.670338">
<ele>15.561155</ele>
<time>2026-07-16T12:09:34.000Z</time>
</trkpt>
<trkpt lat="57.336075" lon="9.670368">
<ele>15.557653</ele>
<time>2026-07-16T12:09:35.000Z</time>
</trkpt>
<trkpt lat="57.336105" lon="9.670402">
<ele>15.554132</ele>
<time>2026-07-16T12:09:36.000Z</time>
</trkpt>
<trkpt lat="57.336132" lon="9.670436">
<ele>15.550864</ele>
<time>2026-07-16T12:09:37.000Z</time>
</trkpt>
<trkpt lat="57.336159" lon="9.670469">
<ele>15.547626</ele>
<time>2026-07-16T12:09:38.000Z</time>
</trkpt>
<trkpt lat="57.336185" lon="9.670503">
<ele>15.544440</ele>
<time>2026-07-16T12:09:39.000Z</time>
</trkpt>
<trkpt lat="57.336216" lon="9.670532">
<ele>15.540963</ele>
<time>2026-07-16T12:09:40.000Z</time>
</trkpt>
<trkpt lat="57.336243" lon="9.670558">
<ele>15.537916</ele>
<time>2026-07-16T12:09:41.000Z</time>
</trkpt>
<trkpt lat="57.336277" lon="9.670588">
<ele>15.534146</ele>
<time>2026-07-16T12:09:42.000Z</time>
</trkpt>
<trkpt lat="57.336308" lon="9.670620">
<ele>15.530593</ele>
<time>2026-07-16T12:09:43.000Z</time>
</trkpt>
<trkpt lat="57.336338" lon="9.670651">
<ele>15.527154</ele>
<time>2026-07-16T12:09:44.000Z</time>
</trkpt>
<trkpt lat="57.336376" lon="9.670686">
<ele>15.522906</ele>
<time>2026-07-16T12:09:45.000Z</time>
</trkpt>
<trkpt lat="57.336407" lon="9.670722">
<ele>15.519243</ele>
<time>2026-07-16T12:09:46.000Z</time>
</trkpt>
<trkpt lat="57.336441" lon="9.670760">
<ele>15.515267</ele>
<time>2026-07-16T12:09:47.000Z</time>
</trkpt>
<trkpt lat="57.336475" lon="9.670798">
<ele>15.511292</ele>
<time>2026-07-16T12:09:48.000Z</time>
</trkpt>
<trkpt lat="57.336510" lon="9.670836">
<ele>15.507231</ele>
<time>2026-07-16T12:09:49.000Z</time>
</trkpt>
<trkpt lat="57.336544" lon="9.670873">
<ele>15.503283</ele>
<time>2026-07-16T12:09:50.000Z</time>
</trkpt>
<trkpt lat="57.336578" lon="9.670910">
<ele>15.499335</ele>
<time>2026-07-16T12:09:51.000Z</time>
</trkpt>
<trkpt lat="57.336613" lon="9.670946">
<ele>15.495327</ele>
<time>2026-07-16T12:09:52.000Z</time>
</trkpt>
<trkpt lat="57.336647" lon="9.670980">
<ele>15.491459</ele>
<time>2026-07-16T12:09:53.000Z</time>
</trkpt>
<trkpt lat="57.336685" lon="9.671013">
<ele>15.487258</ele>
<time>2026-07-16T12:09:54.000Z</time>
</trkpt>
<trkpt lat="57.336720" lon="9.671046">
<ele>15.483326</ele>
<time>2026-07-16T12:09:55.000Z</time>
</trkpt>
<trkpt lat="57.336754" lon="9.671080">
<ele>15.479458</ele>
<time>2026-07-16T12:09:56.000Z</time>
</trkpt>
<trkpt lat="57.336788" lon="9.671111">
<ele>15.475664</ele>
<time>2026-07-16T12:09:57.000Z</time>
</trkpt>
<trkpt lat="57.336826" lon="9.671143">
<ele>15.471485</ele>
<time>2026-07-16T12:09:58.000Z</time>
</trkpt>
<trkpt lat="57.336861" lon="9.671176">
<ele>15.467553</ele>
<time>2026-07-16T12:09:59.000Z</time>
</trkpt>
<trkpt lat="57.336895" lon="9.671207">
<ele>15.462903</ele>
<time>2026-07-16T12:10:00.000Z</time>
</trkpt>
<trkpt lat="57.336929" lon="9.671241">
<ele>15.457725</ele>
<time>2026-07-16T12:10:01.000Z</time>
</trkpt>
<trkpt lat="57.336967" lon="9.671273">
<ele>15.452132</ele>
<time>2026-07-16T12:10:02.000Z</time>
</trkpt>
<trkpt lat="57.337002" lon="9.671305">
<ele>15.446902</ele>
<time>2026-07-16T12:10:03.000Z</time>
</trkpt>
<trkpt lat="57.337036" lon="9.671340">
<ele>15.441689</ele>
<time>2026-07-16T12:10:04.000Z</time>
</trkpt>
<trkpt lat="57.337067" lon="9.671378">
<ele>15.436708</ele>
<time>2026-07-16T12:10:05.000Z</time>
</trkpt>
<trkpt lat="57.337101" lon="9.671414">
<ele>15.431460</ele>
<time>2026-07-16T12:10:06.000Z</time>
</trkpt>
<trkpt lat="57.337139" lon="9.671446">
<ele>15.425867</ele>
<time>2026-07-16T12:10:07.000Z</time>
</trkpt>
<trkpt lat="57.337173" lon="9.671478">
<ele>15.420756</ele>
<time>2026-07-16T12:10:08.000Z</time>
</trkpt>
<trkpt lat="57.337208" lon="9.671513">
<ele>15.415427</ele>
<time>2026-07-16T12:10:09.000Z</time>
</trkpt>
<trkpt lat="57.337242" lon="9.671547">
<ele>15.410249</ele>
<time>2026-07-16T12:10:10.000Z</time>
</trkpt>
<trkpt lat="57.337280" lon="9.671577">
<ele>15.404714</ele>
<time>2026-07-16T12:10:11.000Z</time>
</trkpt>
<trkpt lat="57.337315" lon="9.671606">
<ele>15.399576</ele>
<time>2026-07-16T12:10:12.000Z</time>
</trkpt>
<trkpt lat="57.337353" lon="9.671638">
<ele>15.393982</ele>
<time>2026-07-16T12:10:13.000Z</time>
</trkpt>
<trkpt lat="57.337387" lon="9.671671">
<ele>15.388839</ele>
<time>2026-07-16T12:10:14.000Z</time>
</trkpt>
<trkpt lat="57.337421" lon="9.671706">
<ele>15.383626</ele>
<time>2026-07-16T12:10:15.000Z</time>
</trkpt>
<trkpt lat="57.337460" lon="9.671741">
<ele>15.377819</ele>
<time>2026-07-16T12:10:16.000Z</time>
</trkpt>
<trkpt lat="57.337494" lon="9.671776">
<ele>15.372607</ele>
<time>2026-07-16T12:10:17.000Z</time>
</trkpt>
<trkpt lat="57.337532" lon="9.671811">
<ele>15.366920</ele>
<time>2026-07-16T12:10:18.000Z</time>
</trkpt>
<trkpt lat="57.337566" lon="9.671846">
<ele>15.361708</ele>
<time>2026-07-16T12:10:19.000Z</time>
</trkpt>
<trkpt lat="57.337604" lon="9.671883">
<ele>15.355955</ele>
<time>2026-07-16T12:10:20.000Z</time>
</trkpt>
<trkpt lat="57.337643" lon="9.671916">
<ele>15.350210</ele>
<time>2026-07-16T12:10:21.000Z</time>
</trkpt>
<trkpt lat="57.337677" lon="9.671951">
<ele>15.344998</ele>
<time>2026-07-16T12:10:22.000Z</time>
</trkpt>
<trkpt lat="57.337711" lon="9.671988">
<ele>15.339714</ele>
<time>2026-07-16T12:10:23.000Z</time>
</trkpt>
<trkpt lat="57.337749" lon="9.672024">
<ele>15.333994</ele>
<time>2026-07-16T12:10:24.000Z</time>
</trkpt>
<trkpt lat="57.337784" lon="9.672059">
<ele>15.328665</ele>
<time>2026-07-16T12:10:25.000Z</time>
</trkpt>
<trkpt lat="57.337818" lon="9.672095">
<ele>15.323417</ele>
<time>2026-07-16T12:10:26.000Z</time>
</trkpt>
<trkpt lat="57.337856" lon="9.672130">
<ele>15.317730</ele>
<time>2026-07-16T12:10:27.000Z</time>
</trkpt>
<trkpt lat="57.337894" lon="9.672164">
<ele>15.312075</ele>
<time>2026-07-16T12:10:28.000Z</time>
</trkpt>
<trkpt lat="57.337929" lon="9.672199">
<ele>15.306745</ele>
<time>2026-07-16T12:10:29.000Z</time>
</trkpt>
<trkpt lat="57.337963" lon="9.672236">
<ele>15.301461</ele>
<time>2026-07-16T12:10:30.000Z</time>
</trkpt>
<trkpt lat="57.337997" lon="9.672278">
<ele>15.295985</ele>
<time>2026-07-16T12:10:31.000Z</time>
</trkpt>
<trkpt lat="57.338032" lon="9.672320">
<ele>15.290397</ele>
<time>2026-07-16T12:10:32.000Z</time>
</trkpt>
<trkpt lat="57.338066" lon="9.672359">
<ele>15.285039</ele>
<time>2026-07-16T12:10:33.000Z</time>
</trkpt>
<trkpt lat="57.338104" lon="9.672399">
<ele>15.279182</ele>
<time>2026-07-16T12:10:34.000Z</time>
</trkpt>
<trkpt lat="57.338139" lon="9.672439">
<ele>15.273671</ele>
<time>2026-07-16T12:10:35.000Z</time>
</trkpt>
<trkpt lat="57.338177" lon="9.672479">
<ele>15.267815</ele>
<time>2026-07-16T12:10:36.000Z</time>
</trkpt>
<trkpt lat="57.338211" lon="9.672517">
<ele>15.262494</ele>
<time>2026-07-16T12:10:37.000Z</time>
</trkpt>
<trkpt lat="57.338249" lon="9.672559">
<ele>15.256564</ele>
<time>2026-07-16T12:10:38.000Z</time>
</trkpt>
<trkpt lat="57.338287" lon="9.672599">
<ele>15.250708</ele>
<time>2026-07-16T12:10:39.000Z</time>
</trkpt>
<trkpt lat="57.338322" lon="9.672640">
<ele>15.245159</ele>
<time>2026-07-16T12:10:40.000Z</time>
</trkpt>
<trkpt lat="57.338360" lon="9.672682">
<ele>15.239229</ele>
<time>2026-07-16T12:10:41.000Z</time>
</trkpt>
<trkpt lat="57.338398" lon="9.672722">
<ele>15.233372</ele>
<time>2026-07-16T12:10:42.000Z</time>
</trkpt>
<trkpt lat="57.338432" lon="9.672759">
<ele>15.228088</ele>
<time>2026-07-16T12:10:43.000Z</time>
</trkpt>
<trkpt lat="57.338470" lon="9.672795">
<ele>15.227348</ele>
<time>2026-07-16T12:10:44.000Z</time>
</trkpt>
<trkpt lat="57.338505" lon="9.672833">
<ele>15.231289</ele>
<time>2026-07-16T12:10:45.000Z</time>
</trkpt>
<trkpt lat="57.338543" lon="9.672873">
<ele>15.235535</ele>
<time>2026-07-16T12:10:46.000Z</time>
</trkpt>
<trkpt lat="57.338581" lon="9.672911">
<ele>15.239730</ele>
<time>2026-07-16T12:10:47.000Z</time>
</trkpt>
<trkpt lat="57.338619" lon="9.672947">
<ele>15.243877</ele>
<time>2026-07-16T12:10:48.000Z</time>
</trkpt>
<trkpt lat="57.338657" lon="9.672984">
<ele>15.248047</ele>
<time>2026-07-16T12:10:49.000Z</time>
</trkpt>
<trkpt lat="57.338692" lon="9.673023">
<ele>15.252015</ele>
<time>2026-07-16T12:10:50.000Z</time>
</trkpt>
<trkpt lat="57.338726" lon="9.673063">
<ele>15.255928</ele>
<time>2026-07-16T12:10:51.000Z</time>
</trkpt>
<trkpt lat="57.338764" lon="9.673103">
<ele>15.260174</ele>
<time>2026-07-16T12:10:52.000Z</time>
</trkpt>
<trkpt lat="57.338798" lon="9.673141">
<ele>15.264032</ele>
<time>2026-07-16T12:10:53.000Z</time>
</trkpt>
<trkpt lat="57.338837" lon="9.673178">
<ele>15.268288</ele>
<time>2026-07-16T12:10:54.000Z</time>
</trkpt>
<trkpt lat="57.338875" lon="9.673215">
<ele>15.272459</ele>
<time>2026-07-16T12:10:55.000Z</time>
</trkpt>
<trkpt lat="57.338913" lon="9.673250">
<ele>15.276582</ele>
<time>2026-07-16T12:10:56.000Z</time>
</trkpt>
<trkpt lat="57.338947" lon="9.673288">
<ele>15.280439</ele>
<time>2026-07-16T12:10:57.000Z</time>
</trkpt>
<trkpt lat="57.338985" lon="9.673328">
<ele>15.284685</ele>
<time>2026-07-16T12:10:58.000Z</time>
</trkpt>
<trkpt lat="57.339020" lon="9.673370">
<ele>15.288736</ele>
<time>2026-07-16T12:10:59.000Z</time>
</trkpt>
<trkpt lat="57.339054" lon="9.673410">
<ele>15.292649</ele>
<time>2026-07-16T12:11:00.000Z</time>
</trkpt>
<trkpt lat="57.339092" lon="9.673448">
<ele>15.296844</ele>
<time>2026-07-16T12:11:01.000Z</time>
</trkpt>
<trkpt lat="57.339130" lon="9.673483">
<ele>15.300967</ele>
<time>2026-07-16T12:11:02.000Z</time>
</trkpt>
<trkpt lat="57.339165" lon="9.673518">
<ele>15.304831</ele>
<time>2026-07-16T12:11:03.000Z</time>
</trkpt>
<trkpt lat="57.339203" lon="9.673553">
<ele>15.308954</ele>
<time>2026-07-16T12:11:04.000Z</time>
</trkpt>
<trkpt lat="57.339237" lon="9.673588">
<ele>15.312733</ele>
<time>2026-07-16T12:11:05.000Z</time>
</trkpt>
<trkpt lat="57.339272" lon="9.673624">
<ele>15.316622</ele>
<time>2026-07-16T12:11:06.000Z</time>
</trkpt>
<trkpt lat="57.339306" lon="9.673662">
<ele>15.320479</ele>
<time>2026-07-16T12:11:07.000Z</time>
</trkpt>
<trkpt lat="57.339340" lon="9.673701">
<ele>15.324364</ele>
<time>2026-07-16T12:11:08.000Z</time>
</trkpt>
<trkpt lat="57.339378" lon="9.673742">
<ele>15.328636</ele>
<time>2026-07-16T12:11:09.000Z</time>
</trkpt>
<trkpt lat="57.339413" lon="9.673782">
<ele>15.332632</ele>
<time>2026-07-16T12:11:10.000Z</time>
</trkpt>
<trkpt lat="57.339447" lon="9.673824">
<ele>15.336602</ele>
<time>2026-07-16T12:11:11.000Z</time>
</trkpt>
<trkpt lat="57.339481" lon="9.673866">
<ele>15.340571</ele>
<time>2026-07-16T12:11:12.000Z</time>
</trkpt>
<trkpt lat="57.339520" lon="9.673905">
<ele>15.344877</ele>
<time>2026-07-16T12:11:13.000Z</time>
</trkpt>
<trkpt lat="57.339554" lon="9.673942">
<ele>15.348708</ele>
<time>2026-07-16T12:11:14.000Z</time>
</trkpt>
<trkpt lat="57.339588" lon="9.673979">
<ele>15.352539</ele>
<time>2026-07-16T12:11:15.000Z</time>
</trkpt>
<trkpt lat="57.339626" lon="9.674015">
<ele>15.356685</ele>
<time>2026-07-16T12:11:16.000Z</time>
</trkpt>
<trkpt lat="57.339661" lon="9.674051">
<ele>15.360574</ele>
<time>2026-07-16T12:11:17.000Z</time>
</trkpt>
<trkpt lat="57.339695" lon="9.674087">
<ele>15.364379</ele>
<time>2026-07-16T12:11:18.000Z</time>
</trkpt>
<trkpt lat="57.339729" lon="9.674124">
<ele>15.368209</ele>
<time>2026-07-16T12:11:19.000Z</time>
</trkpt>
<trkpt lat="57.339764" lon="9.674162">
<ele>15.372150</ele>
<time>2026-07-16T12:11:20.000Z</time>
</trkpt>
<trkpt lat="57.339798" lon="9.674199">
<ele>15.375981</ele>
<time>2026-07-16T12:11:21.000Z</time>
</trkpt>
<trkpt lat="57.339836" lon="9.674234">
<ele>15.380104</ele>
<time>2026-07-16T12:11:22.000Z</time>
</trkpt>
<trkpt lat="57.339870" lon="9.674268">
<ele>15.383857</ele>
<time>2026-07-16T12:11:23.000Z</time>
</trkpt>
<trkpt lat="57.339905" lon="9.674303">
<ele>15.387721</ele>
<time>2026-07-16T12:11:24.000Z</time>
</trkpt>
<trkpt lat="57.339939" lon="9.674337">
<ele>15.391475</ele>
<time>2026-07-16T12:11:25.000Z</time>
</trkpt>
<trkpt lat="57.339973" lon="9.674368">
<ele>15.395156</ele>
<time>2026-07-16T12:11:26.000Z</time>
</trkpt>
<trkpt lat="57.340004" lon="9.674398">
<ele>15.398554</ele>
<time>2026-07-16T12:11:27.000Z</time>
</trkpt>
<trkpt lat="57.340031" lon="9.674424">
<ele>15.401942</ele>
<time>2026-07-16T12:11:28.000Z</time>
</trkpt>
<trkpt lat="57.340057" lon="9.674454">
<ele>15.405768</ele>
<time>2026-07-16T12:11:29.000Z</time>
</trkpt>
<trkpt lat="57.340084" lon="9.674479">
<ele>15.409539</ele>
<time>2026-07-16T12:11:30.000Z</time>
</trkpt>
<trkpt lat="57.340103" lon="9.674499">
<ele>15.412269</ele>
<time>2026-07-16T12:11:31.000Z</time>
</trkpt>
<trkpt lat="57.340122" lon="9.674517">
<ele>15.414935</ele>
<time>2026-07-16T12:11:32.000Z</time>
</trkpt>
<trkpt lat="57.340141" lon="9.674535">
<ele>15.417601</ele>
<time>2026-07-16T12:11:33.000Z</time>
</trkpt>
<trkpt lat="57.340168" lon="9.674557">
<ele>15.421285</ele>
<time>2026-07-16T12:11:34.000Z</time>
</trkpt>
<trkpt lat="57.340195" lon="9.674582">
<ele>15.425056</ele>
<time>2026-07-16T12:11:35.000Z</time>
</trkpt>
<trkpt lat="57.340221" lon="9.674615">
<ele>15.428993</ele>
<time>2026-07-16T12:11:36.000Z</time>
</trkpt>
<trkpt lat="57.340244" lon="9.674652">
<ele>15.432798</ele>
<time>2026-07-16T12:11:37.000Z</time>
</trkpt>
<trkpt lat="57.340275" lon="9.674692">
<ele>15.437517</ele>
<time>2026-07-16T12:11:38.000Z</time>
</trkpt>
<trkpt lat="57.340309" lon="9.674731">
<ele>15.442513</ele>
<time>2026-07-16T12:11:39.000Z</time>
</trkpt>
<trkpt lat="57.340340" lon="9.674773">
<ele>15.447311</ele>
<time>2026-07-16T12:11:40.000Z</time>
</trkpt>
<trkpt lat="57.340378" lon="9.674812">
<ele>15.452737</ele>
<time>2026-07-16T12:11:41.000Z</time>
</trkpt>
<trkpt lat="57.340412" lon="9.674850">
<ele>15.457698</ele>
<time>2026-07-16T12:11:42.000Z</time>
</trkpt>
<trkpt lat="57.340446" lon="9.674889">
<ele>15.462693</ele>
<time>2026-07-16T12:11:43.000Z</time>
</trkpt>
<trkpt lat="57.340485" lon="9.674929">
<ele>15.468262</ele>
<time>2026-07-16T12:11:44.000Z</time>
</trkpt>
<trkpt lat="57.340519" lon="9.674971">
<ele>15.473367</ele>
<time>2026-07-16T12:11:45.000Z</time>
</trkpt>
<trkpt lat="57.340553" lon="9.675011">
<ele>15.478398</ele>
<time>2026-07-16T12:11:46.000Z</time>
</trkpt>
<trkpt lat="57.340588" lon="9.675049">
<ele>15.483466</ele>
<time>2026-07-16T12:11:47.000Z</time>
</trkpt>
<trkpt lat="57.340626" lon="9.675084">
<ele>15.488767</ele>
<time>2026-07-16T12:11:48.000Z</time>
</trkpt>
<trkpt lat="57.340660" lon="9.675119">
<ele>15.493626</ele>
<time>2026-07-16T12:11:49.000Z</time>
</trkpt>
<trkpt lat="57.340698" lon="9.675156">
<ele>15.498989</ele>
<time>2026-07-16T12:11:50.000Z</time>
</trkpt>
<trkpt lat="57.340733" lon="9.675191">
<ele>15.503958</ele>
<time>2026-07-16T12:11:51.000Z</time>
</trkpt>
<trkpt lat="57.340767" lon="9.675226">
<ele>15.508817</ele>
<time>2026-07-16T12:11:52.000Z</time>
</trkpt>
<trkpt lat="57.340805" lon="9.675260">
<ele>15.514088</ele>
<time>2026-07-16T12:11:53.000Z</time>
</trkpt>
<trkpt lat="57.340839" lon="9.675294">
<ele>15.518915</ele>
<time>2026-07-16T12:11:54.000Z</time>
</trkpt>
<trkpt lat="57.340878" lon="9.675328">
<ele>15.524300</ele>
<time>2026-07-16T12:11:55.000Z</time>
</trkpt>
<trkpt lat="57.340912" lon="9.675363">
<ele>15.529159</ele>
<time>2026-07-16T12:11:56.000Z</time>
</trkpt>
<trkpt lat="57.340946" lon="9.675399">
<ele>15.534051</ele>
<time>2026-07-16T12:11:57.000Z</time>
</trkpt>
<trkpt lat="57.340984" lon="9.675436">
<ele>15.539413</ele>
<time>2026-07-16T12:11:58.000Z</time>
</trkpt>
<trkpt lat="57.341019" lon="9.675473">
<ele>15.544447</ele>
<time>2026-07-16T12:11:59.000Z</time>
</trkpt>
<trkpt lat="57.341053" lon="9.675509">
<ele>15.549340</ele>
<time>2026-07-16T12:12:00.000Z</time>
</trkpt>
<trkpt lat="57.341091" lon="9.675549">
<ele>15.554799</ele>
<time>2026-07-16T12:12:01.000Z</time>
</trkpt>
<trkpt lat="57.341125" lon="9.675587">
<ele>15.559760</ele>
<time>2026-07-16T12:12:02.000Z</time>
</trkpt>
<trkpt lat="57.341160" lon="9.675623">
<ele>15.564761</ele>
<time>2026-07-16T12:12:03.000Z</time>
</trkpt>
<trkpt lat="57.341198" lon="9.675653">
<ele>15.569921</ele>
<time>2026-07-16T12:12:04.000Z</time>
</trkpt>
<trkpt lat="57.341236" lon="9.675685">
<ele>15.575135</ele>
<time>2026-07-16T12:12:05.000Z</time>
</trkpt>
<trkpt lat="57.341270" lon="9.675718">
<ele>15.579930</ele>
<time>2026-07-16T12:12:06.000Z</time>
</trkpt>
<trkpt lat="57.341305" lon="9.675756">
<ele>15.584998</ele>
<time>2026-07-16T12:12:07.000Z</time>
</trkpt>
<trkpt lat="57.341339" lon="9.675794">
<ele>15.589958</ele>
<time>2026-07-16T12:12:08.000Z</time>
</trkpt>
<trkpt lat="57.341370" lon="9.675834">
<ele>15.594678</ele>
<time>2026-07-16T12:12:09.000Z</time>
</trkpt>
<trkpt lat="57.341400" lon="9.675877">
<ele>15.599416</ele>
<time>2026-07-16T12:12:10.000Z</time>
</trkpt>
<trkpt lat="57.341427" lon="9.675920">
<ele>15.603863</ele>
<time>2026-07-16T12:12:11.000Z</time>
</trkpt>
<trkpt lat="57.341457" lon="9.675963">
<ele>15.608601</ele>
<time>2026-07-16T12:12:12.000Z</time>
</trkpt>
<trkpt lat="57.341488" lon="9.676005">
<ele>15.613399</ele>
<time>2026-07-16T12:12:13.000Z</time>
</trkpt>
<trkpt lat="57.341515" lon="9.676044">
<ele>15.617676</ele>
<time>2026-07-16T12:12:14.000Z</time>
</trkpt>
<trkpt lat="57.341545" lon="9.676081">
<ele>15.622178</ele>
<time>2026-07-16T12:12:15.000Z</time>
</trkpt>
<trkpt lat="57.341576" lon="9.676111">
<ele>15.627426</ele>
<time>2026-07-16T12:12:16.000Z</time>
</trkpt>
<trkpt lat="57.341606" lon="9.676141">
<ele>15.633717</ele>
<time>2026-07-16T12:12:17.000Z</time>
</trkpt>
<trkpt lat="57.341633" lon="9.676171">
<ele>15.639528</ele>
<time>2026-07-16T12:12:18.000Z</time>
</trkpt>
<trkpt lat="57.341660" lon="9.676201">
<ele>15.645338</ele>
<time>2026-07-16T12:12:19.000Z</time>
</trkpt>
<trkpt lat="57.341686" lon="9.676231">
<ele>15.650991</ele>
<time>2026-07-16T12:12:20.000Z</time>
</trkpt>
<trkpt lat="57.341709" lon="9.676261">
<ele>15.656182</ele>
<time>2026-07-16T12:12:21.000Z</time>
</trkpt>
<trkpt lat="57.341732" lon="9.676288">
<ele>15.661206</ele>
<time>2026-07-16T12:12:22.000Z</time>
</trkpt>
<trkpt lat="57.341751" lon="9.676312">
<ele>15.665450</ele>
<time>2026-07-16T12:12:23.000Z</time>
</trkpt>
<trkpt lat="57.341862" lon="9.676435">
<ele>15.689320</ele>
<time>2026-07-16T12:12:51.000Z</time>
</trkpt>
<trkpt lat="57.341869" lon="9.676444">
<ele>15.690892</ele>
<time>2026-07-16T12:12:52.000Z</time>
</trkpt>
<trkpt lat="57.341877" lon="9.676456">
<ele>15.692792</ele>
<time>2026-07-16T12:12:53.000Z</time>
</trkpt>
<trkpt lat="57.341885" lon="9.676467">
<ele>15.694630</ele>
<time>2026-07-16T12:12:54.000Z</time>
</trkpt>
<trkpt lat="57.341896" lon="9.676476">
<ele>15.696849</ele>
<time>2026-07-16T12:12:55.000Z</time>
</trkpt>
<trkpt lat="57.341904" lon="9.676487">
<ele>15.698688</ele>
<time>2026-07-16T12:12:56.000Z</time>
</trkpt>
<trkpt lat="57.341915" lon="9.676498">
<ele>15.700995</ele>
<time>2026-07-16T12:12:57.000Z</time>
</trkpt>
<trkpt lat="57.341927" lon="9.676509">
<ele>15.703466</ele>
<time>2026-07-16T12:12:58.000Z</time>
</trkpt>
<trkpt lat="57.341934" lon="9.676516">
<ele>15.704934</ele>
<time>2026-07-16T12:12:59.000Z</time>
</trkpt>
<trkpt lat="57.341942" lon="9.676522">
<ele>15.706526</ele>
<time>2026-07-16T12:13:00.000Z</time>
</trkpt>
<trkpt lat="57.341946" lon="9.676526">
<ele>15.707365</ele>
<time>2026-07-16T12:13:01.000Z</time>
</trkpt>
<trkpt lat="57.341946" lon="9.676527">
<ele>15.707465</ele>
<time>2026-07-16T12:13:02.000Z</time>
</trkpt>
<trkpt lat="57.341965" lon="9.676547">
<ele>15.711498</ele>
<time>2026-07-16T12:13:10.000Z</time>
</trkpt>
<trkpt lat="57.341984" lon="9.676560">
<ele>15.715236</ele>
<time>2026-07-16T12:13:11.000Z</time>
</trkpt>
<trkpt lat="57.342003" lon="9.676580">
<ele>15.719269</ele>
<time>2026-07-16T12:13:12.000Z</time>
</trkpt>
<trkpt lat="57.342026" lon="9.676606">
<ele>15.724241</ele>
<time>2026-07-16T12:13:13.000Z</time>
</trkpt>
<trkpt lat="57.342052" lon="9.676632">
<ele>15.729694</ele>
<time>2026-07-16T12:13:14.000Z</time>
</trkpt>
<trkpt lat="57.342079" lon="9.676657">
<ele>15.735264</ele>
<time>2026-07-16T12:13:15.000Z</time>
</trkpt>
<trkpt lat="57.342106" lon="9.676684">
<ele>15.740926</ele>
<time>2026-07-16T12:13:16.000Z</time>
</trkpt>
<trkpt lat="57.342136" lon="9.676718">
<ele>15.747417</ele>
<time>2026-07-16T12:13:17.000Z</time>
</trkpt>
<trkpt lat="57.342163" lon="9.676756">
<ele>15.753674</ele>
<time>2026-07-16T12:13:18.000Z</time>
</trkpt>
<trkpt lat="57.342194" lon="9.676795">
<ele>15.760589</ele>
<time>2026-07-16T12:13:19.000Z</time>
</trkpt>
<trkpt lat="57.342224" lon="9.676831">
<ele>15.767185</ele>
<time>2026-07-16T12:13:20.000Z</time>
</trkpt>
<trkpt lat="57.342255" lon="9.676863">
<ele>15.773735</ele>
<time>2026-07-16T12:13:21.000Z</time>
</trkpt>
<trkpt lat="57.342281" lon="9.676893">
<ele>15.779387</ele>
<time>2026-07-16T12:13:22.000Z</time>
</trkpt>
<trkpt lat="57.342308" lon="9.676925">
<ele>15.785302</ele>
<time>2026-07-16T12:13:23.000Z</time>
</trkpt>
<trkpt lat="57.342342" lon="9.676959">
<ele>15.792433</ele>
<time>2026-07-16T12:13:24.000Z</time>
</trkpt>
<trkpt lat="57.342373" lon="9.676992">
<ele>15.799031</ele>
<time>2026-07-16T12:13:25.000Z</time>
</trkpt>
<trkpt lat="57.342407" lon="9.677026">
<ele>15.806161</ele>
<time>2026-07-16T12:13:26.000Z</time>
</trkpt>
<trkpt lat="57.342438" lon="9.677058">
<ele>15.812710</ele>
<time>2026-07-16T12:13:27.000Z</time>
</trkpt>
<trkpt lat="57.342468" lon="9.677094">
<ele>15.819306</ele>
<time>2026-07-16T12:13:28.000Z</time>
</trkpt>
<trkpt lat="57.342499" lon="9.677132">
<ele>15.826166</ele>
<time>2026-07-16T12:13:29.000Z</time>
</trkpt>
<trkpt lat="57.342529" lon="9.677169">
<ele>15.832817</ele>
<time>2026-07-16T12:13:30.000Z</time>
</trkpt>
<trkpt lat="57.342560" lon="9.677207">
<ele>15.839677</ele>
<time>2026-07-16T12:13:31.000Z</time>
</trkpt>
<trkpt lat="57.342594" lon="9.677242">
<ele>15.846855</ele>
<time>2026-07-16T12:13:32.000Z</time>
</trkpt>
<trkpt lat="57.342625" lon="9.677279">
<ele>15.853660</ele>
<time>2026-07-16T12:13:33.000Z</time>
</trkpt>
<trkpt lat="57.342659" lon="9.677315">
<ele>15.860887</ele>
<time>2026-07-16T12:13:34.000Z</time>
</trkpt>
<trkpt lat="57.342693" lon="9.677354">
<ele>15.868267</ele>
<time>2026-07-16T12:13:35.000Z</time>
</trkpt>
<trkpt lat="57.342728" lon="9.677392">
<ele>15.875754</ele>
<time>2026-07-16T12:13:36.000Z</time>
</trkpt>
<trkpt lat="57.342766" lon="9.677432">
<ele>15.883820</ele>
<time>2026-07-16T12:13:37.000Z</time>
</trkpt>
<trkpt lat="57.342800" lon="9.677474">
<ele>15.891361</ele>
<time>2026-07-16T12:13:38.000Z</time>
</trkpt>
<trkpt lat="57.342834" lon="9.677518">
<ele>15.899015</ele>
<time>2026-07-16T12:13:39.000Z</time>
</trkpt>
<trkpt lat="57.342865" lon="9.677559">
<ele>15.906044</ele>
<time>2026-07-16T12:13:40.000Z</time>
</trkpt>
<trkpt lat="57.342899" lon="9.677602">
<ele>15.913641</ele>
<time>2026-07-16T12:13:41.000Z</time>
</trkpt>
<trkpt lat="57.342934" lon="9.677642">
<ele>15.921230</ele>
<time>2026-07-16T12:13:42.000Z</time>
</trkpt>
<trkpt lat="57.342972" lon="9.677680">
<ele>15.929199</ele>
<time>2026-07-16T12:13:43.000Z</time>
</trkpt>
<trkpt lat="57.343006" lon="9.677719">
<ele>15.936579</ele>
<time>2026-07-16T12:13:44.000Z</time>
</trkpt>
<trkpt lat="57.343044" lon="9.677759">
<ele>15.944644</ele>
<time>2026-07-16T12:13:45.000Z</time>
</trkpt>
<trkpt lat="57.343079" lon="9.677802">
<ele>15.952395</ele>
<time>2026-07-16T12:13:46.000Z</time>
</trkpt>
<trkpt lat="57.343113" lon="9.677844">
<ele>15.957493</ele>
<time>2026-07-16T12:13:47.000Z</time>
</trkpt>
<trkpt lat="57.343151" lon="9.677883">
<ele>15.959527</ele>
<time>2026-07-16T12:13:48.000Z</time>
</trkpt>
<trkpt lat="57.343185" lon="9.677920">
<ele>15.961373</ele>
<time>2026-07-16T12:13:49.000Z</time>
</trkpt>
<trkpt lat="57.343224" lon="9.677952">
<ele>15.963370</ele>
<time>2026-07-16T12:13:50.000Z</time>
</trkpt>
<trkpt lat="57.343262" lon="9.677986">
<ele>15.965346</ele>
<time>2026-07-16T12:13:51.000Z</time>
</trkpt>
<trkpt lat="57.343296" lon="9.678019">
<ele>15.967143</ele>
<time>2026-07-16T12:13:52.000Z</time>
</trkpt>
<trkpt lat="57.343338" lon="9.678054">
<ele>15.969300</ele>
<time>2026-07-16T12:13:53.000Z</time>
</trkpt>
<trkpt lat="57.343376" lon="9.678088">
<ele>15.971276</ele>
<time>2026-07-16T12:13:54.000Z</time>
</trkpt>
<trkpt lat="57.343410" lon="9.678123">
<ele>15.973097</ele>
<time>2026-07-16T12:13:55.000Z</time>
</trkpt>
<trkpt lat="57.343445" lon="9.678159">
<ele>15.974971</ele>
<time>2026-07-16T12:13:56.000Z</time>
</trkpt>
<trkpt lat="57.343483" lon="9.678195">
<ele>15.976969</ele>
<time>2026-07-16T12:13:57.000Z</time>
</trkpt>
<trkpt lat="57.343517" lon="9.678231">
<ele>15.978803</ele>
<time>2026-07-16T12:13:58.000Z</time>
</trkpt>
<trkpt lat="57.343552" lon="9.678268">
<ele>15.980689</ele>
<time>2026-07-16T12:13:59.000Z</time>
</trkpt>
<trkpt lat="57.343586" lon="9.678305">
<ele>15.982536</ele>
<time>2026-07-16T12:14:00.000Z</time>
</trkpt>
<trkpt lat="57.343624" lon="9.678344">
<ele>15.984570</ele>
<time>2026-07-16T12:14:01.000Z</time>
</trkpt>
<trkpt lat="57.343658" lon="9.678384">
<ele>15.986455</ele>
<time>2026-07-16T12:14:02.000Z</time>
</trkpt>
<trkpt lat="57.343693" lon="9.678422">
<ele>15.988355</ele>
<time>2026-07-16T12:14:03.000Z</time>
</trkpt>
<trkpt lat="57.343727" lon="9.678462">
<ele>15.990240</ele>
<time>2026-07-16T12:14:04.000Z</time>
</trkpt>
<trkpt lat="57.343758" lon="9.678498">
<ele>15.991953</ele>
<time>2026-07-16T12:14:05.000Z</time>
</trkpt>
<trkpt lat="57.343792" lon="9.678534">
<ele>15.993787</ele>
<time>2026-07-16T12:14:06.000Z</time>
</trkpt>
<trkpt lat="57.343826" lon="9.678570">
<ele>15.995620</ele>
<time>2026-07-16T12:14:07.000Z</time>
</trkpt>
<trkpt lat="57.343864" lon="9.678603">
<ele>15.997585</ele>
<time>2026-07-16T12:14:08.000Z</time>
</trkpt>
<trkpt lat="57.343895" lon="9.678642">
<ele>15.999340</ele>
<time>2026-07-16T12:14:09.000Z</time>
</trkpt>
<trkpt lat="57.343929" lon="9.678680">
<ele>16.001199</ele>
<time>2026-07-16T12:14:10.000Z</time>
</trkpt>
<trkpt lat="57.343964" lon="9.678717">
<ele>16.003086</ele>
<time>2026-07-16T12:14:11.000Z</time>
</trkpt>
<trkpt lat="57.343994" lon="9.678746">
<ele>16.004670</ele>
<time>2026-07-16T12:14:12.000Z</time>
</trkpt>
<trkpt lat="57.344032" lon="9.678778">
<ele>16.006624</ele>
<time>2026-07-16T12:14:13.000Z</time>
</trkpt>
<trkpt lat="57.344067" lon="9.678808">
<ele>16.008430</ele>
<time>2026-07-16T12:14:14.000Z</time>
</trkpt>
<trkpt lat="57.344101" lon="9.678838">
<ele>16.010193</ele>
<time>2026-07-16T12:14:15.000Z</time>
</trkpt>
<trkpt lat="57.344131" lon="9.678870">
<ele>16.011814</ele>
<time>2026-07-16T12:14:16.000Z</time>
</trkpt>
<trkpt lat="57.344166" lon="9.678901">
<ele>16.013630</ele>
<time>2026-07-16T12:14:17.000Z</time>
</trkpt>
<trkpt lat="57.344196" lon="9.678927">
<ele>16.015181</ele>
<time>2026-07-16T12:14:18.000Z</time>
</trkpt>
<trkpt lat="57.344223" lon="9.678954">
<ele>16.016617</ele>
<time>2026-07-16T12:14:19.000Z</time>
</trkpt>
<trkpt lat="57.344254" lon="9.678981">
<ele>16.018221</ele>
<time>2026-07-16T12:14:20.000Z</time>
</trkpt>
<trkpt lat="57.344280" lon="9.679008">
<ele>16.019617</ele>
<time>2026-07-16T12:14:21.000Z</time>
</trkpt>
<trkpt lat="57.344307" lon="9.679042">
<ele>16.021145</ele>
<time>2026-07-16T12:14:22.000Z</time>
</trkpt>
<trkpt lat="57.344337" lon="9.679080">
<ele>16.022847</ele>
<time>2026-07-16T12:14:23.000Z</time>
</trkpt>
<trkpt lat="57.344368" lon="9.679118">
<ele>16.024587</ele>
<time>2026-07-16T12:14:24.000Z</time>
</trkpt>
<trkpt lat="57.344399" lon="9.679152">
<ele>16.026274</ele>
<time>2026-07-16T12:14:25.000Z</time>
</trkpt>
<trkpt lat="57.344433" lon="9.679179">
<ele>16.028006</ele>
<time>2026-07-16T12:14:26.000Z</time>
</trkpt>
<trkpt lat="57.344463" lon="9.679204">
<ele>16.029546</ele>
<time>2026-07-16T12:14:27.000Z</time>
</trkpt>
<trkpt lat="57.344498" lon="9.679232">
<ele>16.031331</ele>
<time>2026-07-16T12:14:28.000Z</time>
</trkpt>
<trkpt lat="57.344524" lon="9.679259">
<ele>16.032726</ele>
<time>2026-07-16T12:14:29.000Z</time>
</trkpt>
<trkpt lat="57.344551" lon="9.679288">
<ele>16.034188</ele>
<time>2026-07-16T12:14:30.000Z</time>
</trkpt>
<trkpt lat="57.344582" lon="9.679316">
<ele>16.035802</ele>
<time>2026-07-16T12:14:31.000Z</time>
</trkpt>
<trkpt lat="57.344604" lon="9.679340">
<ele>16.036998</ele>
<time>2026-07-16T12:14:32.000Z</time>
</trkpt>
<trkpt lat="57.344624" lon="9.679355">
<ele>16.038008</ele>
<time>2026-07-16T12:14:33.000Z</time>
</trkpt>
<trkpt lat="57.344715" lon="9.679461">
<ele>16.045850</ele>
<time>2026-07-16T12:14:53.000Z</time>
</trkpt>
<trkpt lat="57.344727" lon="9.679471">
<ele>16.047268</ele>
<time>2026-07-16T12:14:54.000Z</time>
</trkpt>
<trkpt lat="57.344734" lon="9.679479">
<ele>16.048154</ele>
<time>2026-07-16T12:14:55.000Z</time>
</trkpt>
<trkpt lat="57.344742" lon="9.679487">
<ele>16.049134</ele>
<time>2026-07-16T12:14:56.000Z</time>
</trkpt>
<trkpt lat="57.344753" lon="9.679498">
<ele>16.050481</ele>
<time>2026-07-16T12:14:57.000Z</time>
</trkpt>
<trkpt lat="57.344765" lon="9.679509">
<ele>16.051923</ele>
<time>2026-07-16T12:14:58.000Z</time>
</trkpt>
<trkpt lat="57.344776" lon="9.679519">
<ele>16.053243</ele>
<time>2026-07-16T12:14:59.000Z</time>
</trkpt>
<trkpt lat="57.344784" lon="9.679530">
<ele>16.054317</ele>
<time>2026-07-16T12:15:00.000Z</time>
</trkpt>
<trkpt lat="57.344799" lon="9.679541">
<ele>16.056055</ele>
<time>2026-07-16T12:15:01.000Z</time>
</trkpt>
<trkpt lat="57.344807" lon="9.679551">
<ele>16.057095</ele>
<time>2026-07-16T12:15:02.000Z</time>
</trkpt>
<trkpt lat="57.344818" lon="9.679561">
<ele>16.058415</ele>
<time>2026-07-16T12:15:03.000Z</time>
</trkpt>
<trkpt lat="57.344830" lon="9.679570">
<ele>16.059810</ele>
<time>2026-07-16T12:15:04.000Z</time>
</trkpt>
<trkpt lat="57.344841" lon="9.679582">
<ele>16.061186</ele>
<time>2026-07-16T12:15:05.000Z</time>
</trkpt>
<trkpt lat="57.344845" lon="9.679595">
<ele>16.062056</ele>
<time>2026-07-16T12:15:06.000Z</time>
</trkpt>
<trkpt lat="57.344852" lon="9.679606">
<ele>16.063045</ele>
<time>2026-07-16T12:15:07.000Z</time>
</trkpt>
<trkpt lat="57.344856" lon="9.679610">
<ele>16.063534</ele>
<time>2026-07-16T12:15:08.000Z</time>
</trkpt>
<trkpt lat="57.344860" lon="9.679611">
<ele>16.063969</ele>
<time>2026-07-16T12:15:09.000Z</time>
</trkpt>
<trkpt lat="57.344891" lon="9.679636">
<ele>16.067612</ele>
<time>2026-07-16T12:15:28.000Z</time>
</trkpt>
<trkpt lat="57.344910" lon="9.679655">
<ele>16.069939</ele>
<time>2026-07-16T12:15:29.000Z</time>
</trkpt>
<trkpt lat="57.344929" lon="9.679675">
<ele>16.072293</ele>
<time>2026-07-16T12:15:30.000Z</time>
</trkpt>
<trkpt lat="57.344948" lon="9.679699">
<ele>16.074771</ele>
<time>2026-07-16T12:15:31.000Z</time>
</trkpt>
<trkpt lat="57.344971" lon="9.679721">
<ele>16.077560</ele>
<time>2026-07-16T12:15:32.000Z</time>
</trkpt>
<trkpt lat="57.344986" lon="9.679739">
<ele>16.079486</ele>
<time>2026-07-16T12:15:33.000Z</time>
</trkpt>
<trkpt lat="57.344994" lon="9.679753">
<ele>16.080671</ele>
<time>2026-07-16T12:15:34.000Z</time>
</trkpt>
<trkpt lat="57.345001" lon="9.679764">
<ele>16.081660</ele>
<time>2026-07-16T12:15:35.000Z</time>
</trkpt>
<trkpt lat="57.345005" lon="9.679765">
<ele>16.082095</ele>
<time>2026-07-16T12:15:36.000Z</time>
</trkpt>
<trkpt lat="57.345005" lon="9.679767">
<ele>16.082212</ele>
<time>2026-07-16T12:15:37.000Z</time>
</trkpt>
<trkpt lat="57.345005" lon="9.679767">
<ele>16.082212</ele>
<time>2026-07-16T12:15:38.000Z</time>
</trkpt>
<trkpt lat="57.345036" lon="9.679795">
<ele>16.085928</ele>
<time>2026-07-16T12:15:43.000Z</time>
</trkpt>
<trkpt lat="57.345047" lon="9.679809">
<ele>16.087366</ele>
<time>2026-07-16T12:15:44.000Z</time>
</trkpt>
<trkpt lat="57.345058" lon="9.679819">
<ele>16.088686</ele>
<time>2026-07-16T12:15:45.000Z</time>
</trkpt>
<trkpt lat="57.345066" lon="9.679831">
<ele>16.089795</ele>
<time>2026-07-16T12:15:46.000Z</time>
</trkpt>
<trkpt lat="57.345081" lon="9.679848">
<ele>16.091690</ele>
<time>2026-07-16T12:15:47.000Z</time>
</trkpt>
<trkpt lat="57.345097" lon="9.679871">
<ele>16.093872</ele>
<time>2026-07-16T12:15:48.000Z</time>
</trkpt>
<trkpt lat="57.345119" lon="9.679895">
<ele>16.096622</ele>
<time>2026-07-16T12:15:49.000Z</time>
</trkpt>
<trkpt lat="57.345146" lon="9.679923">
<ele>16.099956</ele>
<time>2026-07-16T12:15:50.000Z</time>
</trkpt>
<trkpt lat="57.345173" lon="9.679953">
<ele>16.103349</ele>
<time>2026-07-16T12:15:51.000Z</time>
</trkpt>
<trkpt lat="57.345203" lon="9.679982">
<ele>16.106995</ele>
<time>2026-07-16T12:15:52.000Z</time>
</trkpt>
<trkpt lat="57.345234" lon="9.680009">
<ele>16.110686</ele>
<time>2026-07-16T12:15:53.000Z</time>
</trkpt>
<trkpt lat="57.345264" lon="9.680033">
<ele>16.114207</ele>
<time>2026-07-16T12:15:54.000Z</time>
</trkpt>
<trkpt lat="57.345291" lon="9.680063">
<ele>16.117599</ele>
<time>2026-07-16T12:15:55.000Z</time>
</trkpt>
<trkpt lat="57.345325" lon="9.680095">
<ele>16.121708</ele>
<time>2026-07-16T12:15:56.000Z</time>
</trkpt>
<trkpt lat="57.345356" lon="9.680130">
<ele>16.125620</ele>
<time>2026-07-16T12:15:57.000Z</time>
</trkpt>
<trkpt lat="57.345387" lon="9.680167">
<ele>16.129593</ele>
<time>2026-07-16T12:15:58.000Z</time>
</trkpt>
<trkpt lat="57.345421" lon="9.680205">
<ele>16.133871</ele>
<time>2026-07-16T12:15:59.000Z</time>
</trkpt>
<trkpt lat="57.345455" lon="9.680242">
<ele>16.138120</ele>
<time>2026-07-16T12:16:00.000Z</time>
</trkpt>
<trkpt lat="57.345490" lon="9.680282">
<ele>16.142551</ele>
<time>2026-07-16T12:16:01.000Z</time>
</trkpt>
<trkpt lat="57.345520" lon="9.680319">
<ele>16.146434</ele>
<time>2026-07-16T12:16:02.000Z</time>
</trkpt>
<trkpt lat="57.345554" lon="9.680356">
<ele>16.150683</ele>
<time>2026-07-16T12:16:03.000Z</time>
</trkpt>
<trkpt lat="57.345589" lon="9.680389">
<ele>16.154914</ele>
<time>2026-07-16T12:16:04.000Z</time>
</trkpt>
<trkpt lat="57.345623" lon="9.680424">
<ele>16.159105</ele>
<time>2026-07-16T12:16:05.000Z</time>
</trkpt>
<trkpt lat="57.345654" lon="9.680459">
<ele>16.163017</ele>
<time>2026-07-16T12:16:06.000Z</time>
</trkpt>
<trkpt lat="57.345688" lon="9.680495">
<ele>16.167236</ele>
<time>2026-07-16T12:16:07.000Z</time>
</trkpt>
<trkpt lat="57.345715" lon="9.680530">
<ele>16.170787</ele>
<time>2026-07-16T12:16:08.000Z</time>
</trkpt>
<trkpt lat="57.345749" lon="9.680565">
<ele>16.174978</ele>
<time>2026-07-16T12:16:09.000Z</time>
</trkpt>
<trkpt lat="57.345779" lon="9.680597">
<ele>16.178708</ele>
<time>2026-07-16T12:16:10.000Z</time>
</trkpt>
<trkpt lat="57.345810" lon="9.680633">
<ele>16.182650</ele>
<time>2026-07-16T12:16:11.000Z</time>
</trkpt>
<trkpt lat="57.345844" lon="9.680666">
<ele>16.186785</ele>
<time>2026-07-16T12:16:12.000Z</time>
</trkpt>
<trkpt lat="57.345879" lon="9.680701">
<ele>16.191071</ele>
<time>2026-07-16T12:16:13.000Z</time>
</trkpt>
<trkpt lat="57.345909" lon="9.680735">
<ele>16.194860</ele>
<time>2026-07-16T12:16:14.000Z</time>
</trkpt>
<trkpt lat="57.345943" lon="9.680776">
<ele>16.199231</ele>
<time>2026-07-16T12:16:15.000Z</time>
</trkpt>
<trkpt lat="57.345974" lon="9.680815">
<ele>16.203269</ele>
<time>2026-07-16T12:16:16.000Z</time>
</trkpt>
<trkpt lat="57.346004" lon="9.680852">
<ele>16.207152</ele>
<time>2026-07-16T12:16:17.000Z</time>
</trkpt>
<trkpt lat="57.346035" lon="9.680888">
<ele>16.211094</ele>
<time>2026-07-16T12:16:18.000Z</time>
</trkpt>
<trkpt lat="57.346069" lon="9.680927">
<ele>16.215402</ele>
<time>2026-07-16T12:16:19.000Z</time>
</trkpt>
<trkpt lat="57.346100" lon="9.680961">
<ele>16.219284</ele>
<time>2026-07-16T12:16:20.000Z</time>
</trkpt>
<trkpt lat="57.346138" lon="9.680991">
<ele>16.223735</ele>
<time>2026-07-16T12:16:21.000Z</time>
</trkpt>
<trkpt lat="57.346169" lon="9.681018">
<ele>16.227426</ele>
<time>2026-07-16T12:16:22.000Z</time>
</trkpt>
<trkpt lat="57.346203" lon="9.681047">
<ele>16.231459</ele>
<time>2026-07-16T12:16:23.000Z</time>
</trkpt>
<trkpt lat="57.346237" lon="9.681080">
<ele>16.234615</ele>
<time>2026-07-16T12:16:24.000Z</time>
</trkpt>
<trkpt lat="57.346272" lon="9.681113">
<ele>16.234216</ele>
<time>2026-07-16T12:16:25.000Z</time>
</trkpt>
<trkpt lat="57.346302" lon="9.681147">
<ele>16.233859</ele>
<time>2026-07-16T12:16:26.000Z</time>
</trkpt>
<trkpt lat="57.346336" lon="9.681184">
<ele>16.233459</ele>
<time>2026-07-16T12:16:27.000Z</time>
</trkpt>
<trkpt lat="57.346367" lon="9.681221">
<ele>16.233085</ele>
<time>2026-07-16T12:16:28.000Z</time>
</trkpt>
<trkpt lat="57.346401" lon="9.681260">
<ele>16.232679</ele>
<time>2026-07-16T12:16:29.000Z</time>
</trkpt>
<trkpt lat="57.346432" lon="9.681300">
<ele>16.232295</ele>
<time>2026-07-16T12:16:30.000Z</time>
</trkpt>
<trkpt lat="57.346466" lon="9.681337">
<ele>16.231895</ele>
<time>2026-07-16T12:16:31.000Z</time>
</trkpt>
<trkpt lat="57.346493" lon="9.681374">
<ele>16.231554</ele>
<time>2026-07-16T12:16:32.000Z</time>
</trkpt>
<trkpt lat="57.346527" lon="9.681410">
<ele>16.231157</ele>
<time>2026-07-16T12:16:33.000Z</time>
</trkpt>
<trkpt lat="57.346561" lon="9.681445">
<ele>16.230762</ele>
<time>2026-07-16T12:16:34.000Z</time>
</trkpt>
<trkpt lat="57.346596" lon="9.681483">
<ele>16.230350</ele>
<time>2026-07-16T12:16:35.000Z</time>
</trkpt>
<trkpt lat="57.346630" lon="9.681520">
<ele>16.229950</ele>
<time>2026-07-16T12:16:36.000Z</time>
</trkpt>
<trkpt lat="57.346664" lon="9.681557">
<ele>16.229550</ele>
<time>2026-07-16T12:16:37.000Z</time>
</trkpt>
<trkpt lat="57.346699" lon="9.681592">
<ele>16.229146</ele>
<time>2026-07-16T12:16:38.000Z</time>
</trkpt>
<trkpt lat="57.346733" lon="9.681626">
<ele>16.228754</ele>
<time>2026-07-16T12:16:39.000Z</time>
</trkpt>
<trkpt lat="57.346767" lon="9.681661">
<ele>16.228359</ele>
<time>2026-07-16T12:16:40.000Z</time>
</trkpt>
<trkpt lat="57.346802" lon="9.681695">
<ele>16.227958</ele>
<time>2026-07-16T12:16:41.000Z</time>
</trkpt>
<trkpt lat="57.346836" lon="9.681727">
<ele>16.227571</ele>
<time>2026-07-16T12:16:42.000Z</time>
</trkpt>
<trkpt lat="57.346874" lon="9.681761">
<ele>16.227143</ele>
<time>2026-07-16T12:16:43.000Z</time>
</trkpt>
<trkpt lat="57.346905" lon="9.681790">
<ele>16.226790</ele>
<time>2026-07-16T12:16:44.000Z</time>
</trkpt>
<trkpt lat="57.346943" lon="9.681827">
<ele>16.226354</ele>
<time>2026-07-16T12:16:45.000Z</time>
</trkpt>
<trkpt lat="57.346981" lon="9.681860">
<ele>16.225928</ele>
<time>2026-07-16T12:16:46.000Z</time>
</trkpt>
<trkpt lat="57.347012" lon="9.681891">
<ele>16.225571</ele>
<time>2026-07-16T12:16:47.000Z</time>
</trkpt>
<trkpt lat="57.347050" lon="9.681922">
<ele>16.225149</ele>
<time>2026-07-16T12:16:48.000Z</time>
</trkpt>
<trkpt lat="57.347084" lon="9.681952">
<ele>16.224767</ele>
<time>2026-07-16T12:16:49.000Z</time>
</trkpt>
<trkpt lat="57.347118" lon="9.681983">
<ele>16.224383</ele>
<time>2026-07-16T12:16:50.000Z</time>
</trkpt>
<trkpt lat="57.347153" lon="9.682016">
<ele>16.223984</ele>
<time>2026-07-16T12:16:51.000Z</time>
</trkpt>
<trkpt lat="57.347187" lon="9.682048">
<ele>16.223597</ele>
<time>2026-07-16T12:16:52.000Z</time>
</trkpt>
<trkpt lat="57.347221" lon="9.682081">
<ele>16.223207</ele>
<time>2026-07-16T12:16:53.000Z</time>
</trkpt>
<trkpt lat="57.347260" lon="9.682113">
<ele>16.222774</ele>
<time>2026-07-16T12:16:54.000Z</time>
</trkpt>
<trkpt lat="57.347294" lon="9.682143">
<ele>16.222392</ele>
<time>2026-07-16T12:16:55.000Z</time>
</trkpt>
<trkpt lat="57.347324" lon="9.682177">
<ele>16.222035</ele>
<time>2026-07-16T12:16:56.000Z</time>
</trkpt>
<trkpt lat="57.347359" lon="9.682210">
<ele>16.221637</ele>
<time>2026-07-16T12:16:57.000Z</time>
</trkpt>
<trkpt lat="57.347393" lon="9.682243">
<ele>16.221247</ele>
<time>2026-07-16T12:16:58.000Z</time>
</trkpt>
<trkpt lat="57.347427" lon="9.682276">
<ele>16.220857</ele>
<time>2026-07-16T12:16:59.000Z</time>
</trkpt>
<trkpt lat="57.347458" lon="9.682305">
<ele>16.220505</ele>
<time>2026-07-16T12:17:00.000Z</time>
</trkpt>
<trkpt lat="57.347492" lon="9.682347">
<ele>16.220090</ele>
<time>2026-07-16T12:17:01.000Z</time>
</trkpt>
<trkpt lat="57.347523" lon="9.682389">
<ele>16.219700</ele>
<time>2026-07-16T12:17:02.000Z</time>
</trkpt>
<trkpt lat="57.347549" lon="9.682432">
<ele>16.219347</ele>
<time>2026-07-16T12:17:03.000Z</time>
</trkpt>
<trkpt lat="57.347580" lon="9.682474">
<ele>16.218957</ele>
<time>2026-07-16T12:17:04.000Z</time>
</trkpt>
<trkpt lat="57.347607" lon="9.682507">
<ele>16.218629</ele>
<time>2026-07-16T12:17:05.000Z</time>
</trkpt>
<trkpt lat="57.347626" lon="9.682522">
<ele>16.218419</ele>
<time>2026-07-16T12:17:06.000Z</time>
</trkpt>
<trkpt lat="57.347763" lon="9.682674">
<ele>16.216798</ele>
<time>2026-07-16T12:17:29.000Z</time>
</trkpt>
<trkpt lat="57.347775" lon="9.682687">
<ele>16.216657</ele>
<time>2026-07-16T12:17:30.000Z</time>
</trkpt>
<trkpt lat="57.347782" lon="9.682701">
<ele>16.216553</ele>
<time>2026-07-16T12:17:31.000Z</time>
</trkpt>
<trkpt lat="57.347794" lon="9.682714">
<ele>16.216065</ele>
<time>2026-07-16T12:17:32.000Z</time>
</trkpt>
<trkpt lat="57.347801" lon="9.682726">
<ele>16.214848</ele>
<time>2026-07-16T12:17:33.000Z</time>
</trkpt>
<trkpt lat="57.347809" lon="9.682733">
<ele>16.213718</ele>
<time>2026-07-16T12:17:34.000Z</time>
</trkpt>
<trkpt lat="57.347809" lon="9.682736">
<ele>16.213512</ele>
<time>2026-07-16T12:17:35.000Z</time>
</trkpt>
<trkpt lat="57.347813" lon="9.682741">
<ele>16.212896</ele>
<time>2026-07-16T12:17:36.000Z</time>
</trkpt>
<trkpt lat="57.347813" lon="9.682742">
<ele>16.212827</ele>
<time>2026-07-16T12:17:37.000Z</time>
</trkpt>
<trkpt lat="57.347836" lon="9.682764">
<ele>16.209523</ele>
<time>2026-07-16T12:17:42.000Z</time>
</trkpt>
<trkpt lat="57.347855" lon="9.682783">
<ele>16.206768</ele>
<time>2026-07-16T12:17:43.000Z</time>
</trkpt>
<trkpt lat="57.347874" lon="9.682798">
<ele>16.204132</ele>
<time>2026-07-16T12:17:44.000Z</time>
</trkpt>
<trkpt lat="57.347893" lon="9.682813">
<ele>16.201496</ele>
<time>2026-07-16T12:17:45.000Z</time>
</trkpt>
<trkpt lat="57.347916" lon="9.682828">
<ele>16.198384</ele>
<time>2026-07-16T12:17:46.000Z</time>
</trkpt>
<trkpt lat="57.347939" lon="9.682839">
<ele>16.195352</ele>
<time>2026-07-16T12:17:47.000Z</time>
</trkpt>
<trkpt lat="57.347958" lon="9.682850">
<ele>16.192811</ele>
<time>2026-07-16T12:17:48.000Z</time>
</trkpt>
<trkpt lat="57.347977" lon="9.682865">
<ele>16.190175</ele>
<time>2026-07-16T12:17:49.000Z</time>
</trkpt>
<trkpt lat="57.347996" lon="9.682879">
<ele>16.187565</ele>
<time>2026-07-16T12:17:50.000Z</time>
</trkpt>
<trkpt lat="57.348015" lon="9.682895">
<ele>16.184901</ele>
<time>2026-07-16T12:17:51.000Z</time>
</trkpt>
<trkpt lat="57.348026" lon="9.682906">
<ele>16.183306</ele>
<time>2026-07-16T12:17:52.000Z</time>
</trkpt>
<trkpt lat="57.348030" lon="9.682914">
<ele>16.182555</ele>
<time>2026-07-16T12:17:53.000Z</time>
</trkpt>
<trkpt lat="57.348034" lon="9.682924">
<ele>16.181698</ele>
<time>2026-07-16T12:17:54.000Z</time>
</trkpt>
<trkpt lat="57.348034" lon="9.682925">
<ele>16.181629</ele>
<time>2026-07-16T12:17:55.000Z</time>
</trkpt>
<trkpt lat="57.348064" lon="9.682958">
<ele>16.177176</ele>
<time>2026-07-16T12:18:03.000Z</time>
</trkpt>
<trkpt lat="57.348083" lon="9.682978">
<ele>16.174387</ele>
<time>2026-07-16T12:18:04.000Z</time>
</trkpt>
<trkpt lat="57.348103" lon="9.682991">
<ele>16.171682</ele>
<time>2026-07-16T12:18:05.000Z</time>
</trkpt>
<trkpt lat="57.348125" lon="9.683010">
<ele>16.168584</ele>
<time>2026-07-16T12:18:06.000Z</time>
</trkpt>
<trkpt lat="57.348145" lon="9.683032">
<ele>16.165615</ele>
<time>2026-07-16T12:18:07.000Z</time>
</trkpt>
<trkpt lat="57.348171" lon="9.683057">
<ele>16.161877</ele>
<time>2026-07-16T12:18:08.000Z</time>
</trkpt>
<trkpt lat="57.348194" lon="9.683082">
<ele>16.158473</ele>
<time>2026-07-16T12:18:09.000Z</time>
</trkpt>
<trkpt lat="57.348221" lon="9.683107">
<ele>16.154621</ele>
<time>2026-07-16T12:18:10.000Z</time>
</trkpt>
<trkpt lat="57.348247" lon="9.683130">
<ele>16.150943</ele>
<time>2026-07-16T12:18:11.000Z</time>
</trkpt>
<trkpt lat="57.348270" lon="9.683155">
<ele>16.147540</ele>
<time>2026-07-16T12:18:12.000Z</time>
</trkpt>
<trkpt lat="57.348297" lon="9.683181">
<ele>16.143656</ele>
<time>2026-07-16T12:18:13.000Z</time>
</trkpt>
<trkpt lat="57.348320" lon="9.683203">
<ele>16.140353</ele>
<time>2026-07-16T12:18:14.000Z</time>
</trkpt>
<trkpt lat="57.348343" lon="9.683223">
<ele>16.137110</ele>
<time>2026-07-16T12:18:15.000Z</time>
</trkpt>
<trkpt lat="57.348370" lon="9.683243">
<ele>16.133399</ele>
<time>2026-07-16T12:18:16.000Z</time>
</trkpt>
<trkpt lat="57.348389" lon="9.683264">
<ele>16.130575</ele>
<time>2026-07-16T12:18:17.000Z</time>
</trkpt>
<trkpt lat="57.348404" lon="9.683278">
<ele>16.128431</ele>
<time>2026-07-16T12:18:18.000Z</time>
</trkpt>
<trkpt lat="57.348415" lon="9.683288">
<ele>16.126868</ele>
<time>2026-07-16T12:18:19.000Z</time>
</trkpt>
<trkpt lat="57.348423" lon="9.683292">
<ele>16.125810</ele>
<time>2026-07-16T12:18:20.000Z</time>
</trkpt>
<trkpt lat="57.348427" lon="9.683296">
<ele>16.125230</ele>
<time>2026-07-16T12:18:21.000Z</time>
</trkpt>
<trkpt lat="57.348541" lon="9.683486">
<ele>16.105661</ele>
<time>2026-07-16T12:18:41.000Z</time>
</trkpt>
<trkpt lat="57.348553" lon="9.683504">
<ele>16.103691</ele>
<time>2026-07-16T12:18:42.000Z</time>
</trkpt>
<trkpt lat="57.348560" lon="9.683523">
<ele>16.102106</ele>
<time>2026-07-16T12:18:43.000Z</time>
</trkpt>
<trkpt lat="57.348572" lon="9.683539">
<ele>16.100219</ele>
<time>2026-07-16T12:18:44.000Z</time>
</trkpt>
<trkpt lat="57.348583" lon="9.683553">
<ele>16.098516</ele>
<time>2026-07-16T12:18:45.000Z</time>
</trkpt>
<trkpt lat="57.348595" lon="9.683565">
<ele>16.096776</ele>
<time>2026-07-16T12:18:46.000Z</time>
</trkpt>
<trkpt lat="57.348606" lon="9.683579">
<ele>16.095073</ele>
<time>2026-07-16T12:18:47.000Z</time>
</trkpt>
<trkpt lat="57.348618" lon="9.683592">
<ele>16.093298</ele>
<time>2026-07-16T12:18:48.000Z</time>
</trkpt>
<trkpt lat="57.348633" lon="9.683601">
<ele>16.091286</ele>
<time>2026-07-16T12:18:49.000Z</time>
</trkpt>
<trkpt lat="57.348644" lon="9.683615">
<ele>16.089583</ele>
<time>2026-07-16T12:18:50.000Z</time>
</trkpt>
<trkpt lat="57.348656" lon="9.683628">
<ele>16.087809</ele>
<time>2026-07-16T12:18:51.000Z</time>
</trkpt>
<trkpt lat="57.348663" lon="9.683638">
<ele>16.086681</ele>
<time>2026-07-16T12:18:52.000Z</time>
</trkpt>
<trkpt lat="57.348679" lon="9.683647">
<ele>16.084546</ele>
<time>2026-07-16T12:18:53.000Z</time>
</trkpt>
<trkpt lat="57.348690" lon="9.683654">
<ele>16.083062</ele>
<time>2026-07-16T12:18:54.000Z</time>
</trkpt>
<trkpt lat="57.348698" lon="9.683663">
<ele>16.081867</ele>
<time>2026-07-16T12:18:55.000Z</time>
</trkpt>
<trkpt lat="57.348709" lon="9.683678">
<ele>16.080124</ele>
<time>2026-07-16T12:18:56.000Z</time>
</trkpt>
<trkpt lat="57.348724" lon="9.683693">
<ele>16.077949</ele>
<time>2026-07-16T12:18:57.000Z</time>
</trkpt>
<trkpt lat="57.348732" lon="9.683706">
<ele>16.076591</ele>
<time>2026-07-16T12:18:58.000Z</time>
</trkpt>
<trkpt lat="57.348743" lon="9.683721">
<ele>16.074848</ele>
<time>2026-07-16T12:18:59.000Z</time>
</trkpt>
<trkpt lat="57.348755" lon="9.683735">
<ele>16.073038</ele>
<time>2026-07-16T12:19:00.000Z</time>
</trkpt>
<trkpt lat="57.348766" lon="9.683748">
<ele>16.071373</ele>
<time>2026-07-16T12:19:01.000Z</time>
</trkpt>
<trkpt lat="57.348778" lon="9.683762">
<ele>16.069563</ele>
<time>2026-07-16T12:19:02.000Z</time>
</trkpt>
<trkpt lat="57.348785" lon="9.683775">
<ele>16.068298</ele>
<time>2026-07-16T12:19:03.000Z</time>
</trkpt>
<trkpt lat="57.348797" lon="9.683786">
<ele>16.066589</ele>
<time>2026-07-16T12:19:04.000Z</time>
</trkpt>
<trkpt lat="57.348808" lon="9.683802">
<ele>16.064804</ele>
<time>2026-07-16T12:19:05.000Z</time>
</trkpt>
<trkpt lat="57.348820" lon="9.683815">
<ele>16.063030</ele>
<time>2026-07-16T12:19:06.000Z</time>
</trkpt>
<trkpt lat="57.348831" lon="9.683826">
<ele>16.061435</ele>
<time>2026-07-16T12:19:07.000Z</time>
</trkpt>
<trkpt lat="57.348839" lon="9.683837">
<ele>16.060164</ele>
<time>2026-07-16T12:19:08.000Z</time>
</trkpt>
<trkpt lat="57.348854" lon="9.683848">
<ele>16.058105</ele>
<time>2026-07-16T12:19:09.000Z</time>
</trkpt>
<trkpt lat="57.348862" lon="9.683861">
<ele>16.056747</ele>
<time>2026-07-16T12:19:10.000Z</time>
</trkpt>
<trkpt lat="57.348873" lon="9.683873">
<ele>16.055117</ele>
<time>2026-07-16T12:19:11.000Z</time>
</trkpt>
<trkpt lat="57.348885" lon="9.683885">
<ele>16.053377</ele>
<time>2026-07-16T12:19:12.000Z</time>
</trkpt>
<trkpt lat="57.348896" lon="9.683896">
<ele>16.051782</ele>
<time>2026-07-16T12:19:13.000Z</time>
</trkpt>
<trkpt lat="57.348907" lon="9.683908">
<ele>16.050152</ele>
<time>2026-07-16T12:19:14.000Z</time>
</trkpt>
<trkpt lat="57.348919" lon="9.683920">
<ele>16.048412</ele>
<time>2026-07-16T12:19:15.000Z</time>
</trkpt>
<trkpt lat="57.348930" lon="9.683933">
<ele>16.046747</ele>
<time>2026-07-16T12:19:16.000Z</time>
</trkpt>
<trkpt lat="57.348942" lon="9.683947">
<ele>16.044937</ele>
<time>2026-07-16T12:19:17.000Z</time>
</trkpt>
<trkpt lat="57.348953" lon="9.683958">
<ele>16.043342</ele>
<time>2026-07-16T12:19:18.000Z</time>
</trkpt>
<trkpt lat="57.348965" lon="9.683969">
<ele>16.041633</ele>
<time>2026-07-16T12:19:19.000Z</time>
</trkpt>
<trkpt lat="57.348980" lon="9.683980">
<ele>16.039574</ele>
<time>2026-07-16T12:19:20.000Z</time>
</trkpt>
<trkpt lat="57.348991" lon="9.683992">
<ele>16.037945</ele>
<time>2026-07-16T12:19:21.000Z</time>
</trkpt>
<trkpt lat="57.349003" lon="9.684004">
<ele>16.036204</ele>
<time>2026-07-16T12:19:22.000Z</time>
</trkpt>
<trkpt lat="57.349014" lon="9.684012">
<ele>16.034696</ele>
<time>2026-07-16T12:19:23.000Z</time>
</trkpt>
<trkpt lat="57.349022" lon="9.684021">
<ele>16.033501</ele>
<time>2026-07-16T12:19:24.000Z</time>
</trkpt>
<trkpt lat="57.349033" lon="9.684031">
<ele>16.031938</ele>
<time>2026-07-16T12:19:25.000Z</time>
</trkpt>
<trkpt lat="57.349041" lon="9.684041">
<ele>16.030706</ele>
<time>2026-07-16T12:19:26.000Z</time>
</trkpt>
<trkpt lat="57.349052" lon="9.684048">
<ele>16.029221</ele>
<time>2026-07-16T12:19:27.000Z</time>
</trkpt>
<trkpt lat="57.349060" lon="9.684052">
<ele>16.028164</ele>
<time>2026-07-16T12:19:28.000Z</time>
</trkpt>
<trkpt lat="57.349072" lon="9.684061">
<ele>16.026512</ele>
<time>2026-07-16T12:19:29.000Z</time>
</trkpt>
<trkpt lat="57.349079" lon="9.684069">
<ele>16.025462</ele>
<time>2026-07-16T12:19:30.000Z</time>
</trkpt>
<trkpt lat="57.349087" lon="9.684077">
<ele>16.024302</ele>
<time>2026-07-16T12:19:31.000Z</time>
</trkpt>
<trkpt lat="57.349098" lon="9.684089">
<ele>16.022672</ele>
<time>2026-07-16T12:19:32.000Z</time>
</trkpt>
<trkpt lat="57.349110" lon="9.684098">
<ele>16.021020</ele>
<time>2026-07-16T12:19:33.000Z</time>
</trkpt>
<trkpt lat="57.349117" lon="9.684110">
<ele>16.019803</ele>
<time>2026-07-16T12:19:34.000Z</time>
</trkpt>
<trkpt lat="57.349125" lon="9.684121">
<ele>16.018532</ele>
<time>2026-07-16T12:19:35.000Z</time>
</trkpt>
<trkpt lat="57.349136" lon="9.684131">
<ele>16.016968</ele>
<time>2026-07-16T12:19:36.000Z</time>
</trkpt>
<trkpt lat="57.349144" lon="9.684143">
<ele>16.015654</ele>
<time>2026-07-16T12:19:37.000Z</time>
</trkpt>
<trkpt lat="57.349155" lon="9.684159">
<ele>16.013869</ele>
<time>2026-07-16T12:19:38.000Z</time>
</trkpt>
<trkpt lat="57.349167" lon="9.684173">
<ele>16.012060</ele>
<time>2026-07-16T12:19:39.000Z</time>
</trkpt>
<trkpt lat="57.349178" lon="9.684185">
<ele>16.010430</ele>
<time>2026-07-16T12:19:40.000Z</time>
</trkpt>
<trkpt lat="57.349190" lon="9.684197">
<ele>16.008690</ele>
<time>2026-07-16T12:19:41.000Z</time>
</trkpt>
<trkpt lat="57.349201" lon="9.684207">
<ele>16.007126</ele>
<time>2026-07-16T12:19:42.000Z</time>
</trkpt>
<trkpt lat="57.349213" lon="9.684217">
<ele>16.005447</ele>
<time>2026-07-16T12:19:43.000Z</time>
</trkpt>
<trkpt lat="57.349228" lon="9.684230">
<ele>16.003333</ele>
<time>2026-07-16T12:19:44.000Z</time>
</trkpt>
<trkpt lat="57.349236" lon="9.684243">
<ele>16.001975</ele>
<time>2026-07-16T12:19:45.000Z</time>
</trkpt>
<trkpt lat="57.349243" lon="9.684257">
<ele>16.000661</ele>
<time>2026-07-16T12:19:46.000Z</time>
</trkpt>
<trkpt lat="57.349255" lon="9.684270">
<ele>15.998887</ele>
<time>2026-07-16T12:19:47.000Z</time>
</trkpt>
<trkpt lat="57.349266" lon="9.684282">
<ele>15.997257</ele>
<time>2026-07-16T12:19:48.000Z</time>
</trkpt>
<trkpt lat="57.349274" lon="9.684293">
<ele>15.995986</ele>
<time>2026-07-16T12:19:49.000Z</time>
</trkpt>
<trkpt lat="57.349285" lon="9.684306">
<ele>15.994321</ele>
<time>2026-07-16T12:19:50.000Z</time>
</trkpt>
<trkpt lat="57.349293" lon="9.684319">
<ele>15.992963</ele>
<time>2026-07-16T12:19:51.000Z</time>
</trkpt>
<trkpt lat="57.349300" lon="9.684327">
<ele>15.991913</ele>
<time>2026-07-16T12:19:52.000Z</time>
</trkpt>
<trkpt lat="57.349312" lon="9.684338">
<ele>15.990204</ele>
<time>2026-07-16T12:19:53.000Z</time>
</trkpt>
<trkpt lat="57.349323" lon="9.684347">
<ele>15.988670</ele>
<time>2026-07-16T12:19:54.000Z</time>
</trkpt>
<trkpt lat="57.349331" lon="9.684354">
<ele>15.987540</ele>
<time>2026-07-16T12:19:55.000Z</time>
</trkpt>
<trkpt lat="57.349339" lon="9.684358">
<ele>15.986554</ele>
<time>2026-07-16T12:19:56.000Z</time>
</trkpt>
<trkpt lat="57.349350" lon="9.684365">
<ele>15.985347</ele>
<time>2026-07-16T12:19:57.000Z</time>
</trkpt>
<trkpt lat="57.349358" lon="9.684369">
<ele>15.984488</ele>
<time>2026-07-16T12:19:58.000Z</time>
</trkpt>
<trkpt lat="57.349369" lon="9.684370">
<ele>15.983345</ele>
<time>2026-07-16T12:19:59.000Z</time>
</trkpt>
<trkpt lat="57.349377" lon="9.684368">
<ele>15.982508</ele>
<time>2026-07-16T12:20:00.000Z</time>
</trkpt>
<trkpt lat="57.349388" lon="9.684365">
<ele>15.981355</ele>
<time>2026-07-16T12:20:01.000Z</time>
</trkpt>
<trkpt lat="57.349403" lon="9.684356">
<ele>15.979719</ele>
<time>2026-07-16T12:20:02.000Z</time>
</trkpt>
<trkpt lat="57.349415" lon="9.684341">
<ele>15.978218</ele>
<time>2026-07-16T12:20:03.000Z</time>
</trkpt>
<trkpt lat="57.349422" lon="9.684332">
<ele>15.977334</ele>
<time>2026-07-16T12:20:04.000Z</time>
</trkpt>
<trkpt lat="57.349434" lon="9.684326">
<ele>15.976045</ele>
<time>2026-07-16T12:20:05.000Z</time>
</trkpt>
<trkpt lat="57.349441" lon="9.684319">
<ele>15.975220</ele>
<time>2026-07-16T12:20:06.000Z</time>
</trkpt>
<trkpt lat="57.349453" lon="9.684313">
<ele>15.973930</ele>
<time>2026-07-16T12:20:07.000Z</time>
</trkpt>
<trkpt lat="57.349464" lon="9.684308">
<ele>15.972755</ele>
<time>2026-07-16T12:20:08.000Z</time>
</trkpt>
<trkpt lat="57.349472" lon="9.684297">
<ele>15.971722</ele>
<time>2026-07-16T12:20:09.000Z</time>
</trkpt>
<trkpt lat="57.349480" lon="9.684283">
<ele>15.970581</ele>
<time>2026-07-16T12:20:10.000Z</time>
</trkpt>
<trkpt lat="57.349491" lon="9.684270">
<ele>15.969228</ele>
<time>2026-07-16T12:20:11.000Z</time>
</trkpt>
<trkpt lat="57.349499" lon="9.684257">
<ele>15.968124</ele>
<time>2026-07-16T12:20:12.000Z</time>
</trkpt>
<trkpt lat="57.349510" lon="9.684242">
<ele>15.966707</ele>
<time>2026-07-16T12:20:13.000Z</time>
</trkpt>
<trkpt lat="57.349518" lon="9.684227">
<ele>15.965527</ele>
<time>2026-07-16T12:20:14.000Z</time>
</trkpt>
<trkpt lat="57.349525" lon="9.684209">
<ele>15.964285</ele>
<time>2026-07-16T12:20:15.000Z</time>
</trkpt>
<trkpt lat="57.349537" lon="9.684190">
<ele>15.962648</ele>
<time>2026-07-16T12:20:16.000Z</time>
</trkpt>
<trkpt lat="57.349545" lon="9.684174">
<ele>15.961427</ele>
<time>2026-07-16T12:20:17.000Z</time>
</trkpt>
<trkpt lat="57.349552" lon="9.684155">
<ele>15.960140</ele>
<time>2026-07-16T12:20:18.000Z</time>
</trkpt>
<trkpt lat="57.349560" lon="9.684135">
<ele>15.958746</ele>
<time>2026-07-16T12:20:19.000Z</time>
</trkpt>
<trkpt lat="57.349560" lon="9.684114">
<ele>15.957571</ele>
<time>2026-07-16T12:20:20.000Z</time>
</trkpt>
<trkpt lat="57.349567" lon="9.684093">
<ele>15.956190</ele>
<time>2026-07-16T12:20:21.000Z</time>
</trkpt>
<trkpt lat="57.349571" lon="9.684076">
<ele>15.955152</ele>
<time>2026-07-16T12:20:22.000Z</time>
</trkpt>
<trkpt lat="57.349575" lon="9.684057">
<ele>15.954010</ele>
<time>2026-07-16T12:20:23.000Z</time>
</trkpt>
<trkpt lat="57.349587" lon="9.684040">
<ele>15.952443</ele>
<time>2026-07-16T12:20:24.000Z</time>
</trkpt>
<trkpt lat="57.349590" lon="9.684025">
<ele>15.951548</ele>
<time>2026-07-16T12:20:25.000Z</time>
</trkpt>
<trkpt lat="57.349598" lon="9.684008">
<ele>15.950286</ele>
<time>2026-07-16T12:20:26.000Z</time>
</trkpt>
<trkpt lat="57.349602" lon="9.683989">
<ele>15.949144</ele>
<time>2026-07-16T12:20:27.000Z</time>
</trkpt>
<trkpt lat="57.349609" lon="9.683969">
<ele>15.947810</ele>
<time>2026-07-16T12:20:28.000Z</time>
</trkpt>
<trkpt lat="57.349613" lon="9.683949">
<ele>15.946616</ele>
<time>2026-07-16T12:20:29.000Z</time>
</trkpt>
<trkpt lat="57.349621" lon="9.683931">
<ele>15.945311</ele>
<time>2026-07-16T12:20:30.000Z</time>
</trkpt>
<trkpt lat="57.349625" lon="9.683913">
<ele>15.944222</ele>
<time>2026-07-16T12:20:31.000Z</time>
</trkpt>
<trkpt lat="57.349632" lon="9.683897">
<ele>15.943069</ele>
<time>2026-07-16T12:20:32.000Z</time>
</trkpt>
<trkpt lat="57.349640" lon="9.683880">
<ele>15.941806</ele>
<time>2026-07-16T12:20:33.000Z</time>
</trkpt>
<trkpt lat="57.349644" lon="9.683865">
<ele>15.940870</ele>
<time>2026-07-16T12:20:34.000Z</time>
</trkpt>
<trkpt lat="57.349651" lon="9.683848">
<ele>15.939673</ele>
<time>2026-07-16T12:20:35.000Z</time>
</trkpt>
<trkpt lat="57.349655" lon="9.683832">
<ele>15.938686</ele>
<time>2026-07-16T12:20:36.000Z</time>
</trkpt>
<trkpt lat="57.349667" lon="9.683819">
<ele>15.937244</ele>
<time>2026-07-16T12:20:37.000Z</time>
</trkpt>
<trkpt lat="57.349674" lon="9.683807">
<ele>15.936255</ele>
<time>2026-07-16T12:20:38.000Z</time>
</trkpt>
<trkpt lat="57.349682" lon="9.683805">
<ele>15.935418</ele>
<time>2026-07-16T12:20:39.000Z</time>
</trkpt>
<trkpt lat="57.349690" lon="9.683806">
<ele>15.934586</ele>
<time>2026-07-16T12:20:48.000Z</time>
</trkpt>
<trkpt lat="57.349705" lon="9.683817">
<ele>15.932913</ele>
<time>2026-07-16T12:20:49.000Z</time>
</trkpt>
<trkpt lat="57.349720" lon="9.683828">
<ele>15.931239</ele>
<time>2026-07-16T12:20:50.000Z</time>
</trkpt>
<trkpt lat="57.349731" lon="9.683845">
<ele>15.929754</ele>
<time>2026-07-16T12:20:51.000Z</time>
</trkpt>
<trkpt lat="57.349751" lon="9.683863">
<ele>15.927448</ele>
<time>2026-07-16T12:20:52.000Z</time>
</trkpt>
<trkpt lat="57.349770" lon="9.683881">
<ele>15.925234</ele>
<time>2026-07-16T12:20:53.000Z</time>
</trkpt>
<trkpt lat="57.349792" lon="9.683902">
<ele>15.922667</ele>
<time>2026-07-16T12:20:54.000Z</time>
</trkpt>
<trkpt lat="57.349812" lon="9.683924">
<ele>15.920255</ele>
<time>2026-07-16T12:20:55.000Z</time>
</trkpt>
<trkpt lat="57.349834" lon="9.683946">
<ele>15.917662</ele>
<time>2026-07-16T12:20:56.000Z</time>
</trkpt>
<trkpt lat="57.349854" lon="9.683968">
<ele>15.915249</ele>
<time>2026-07-16T12:20:57.000Z</time>
</trkpt>
<trkpt lat="57.349876" lon="9.683989">
<ele>15.912682</ele>
<time>2026-07-16T12:20:58.000Z</time>
</trkpt>
<trkpt lat="57.349899" lon="9.684011">
<ele>15.909997</ele>
<time>2026-07-16T12:20:59.000Z</time>
</trkpt>
<trkpt lat="57.349918" lon="9.684030">
<ele>15.907758</ele>
<time>2026-07-16T12:21:00.000Z</time>
</trkpt>
<trkpt lat="57.349945" lon="9.684052">
<ele>15.904698</ele>
<time>2026-07-16T12:21:01.000Z</time>
</trkpt>
<trkpt lat="57.349968" lon="9.684073">
<ele>15.902039</ele>
<time>2026-07-16T12:21:02.000Z</time>
</trkpt>
<trkpt lat="57.349987" lon="9.684095">
<ele>15.899715</ele>
<time>2026-07-16T12:21:03.000Z</time>
</trkpt>
<trkpt lat="57.350010" lon="9.684113">
<ele>15.897125</ele>
<time>2026-07-16T12:21:04.000Z</time>
</trkpt>
<trkpt lat="57.350029" lon="9.684135">
<ele>15.894801</ele>
<time>2026-07-16T12:21:05.000Z</time>
</trkpt>
<trkpt lat="57.350052" lon="9.684154">
<ele>15.892189</ele>
<time>2026-07-16T12:21:06.000Z</time>
</trkpt>
<trkpt lat="57.350071" lon="9.684175">
<ele>15.889895</ele>
<time>2026-07-16T12:21:07.000Z</time>
</trkpt>
<trkpt lat="57.350098" lon="9.684198">
<ele>15.886812</ele>
<time>2026-07-16T12:21:08.000Z</time>
</trkpt>
<trkpt lat="57.350117" lon="9.684220">
<ele>15.884488</ele>
<time>2026-07-16T12:21:09.000Z</time>
</trkpt>
<trkpt lat="57.350140" lon="9.684243">
<ele>15.881777</ele>
<time>2026-07-16T12:21:10.000Z</time>
</trkpt>
<trkpt lat="57.350163" lon="9.684270">
<ele>15.878953</ele>
<time>2026-07-16T12:21:11.000Z</time>
</trkpt>
<trkpt lat="57.350182" lon="9.684297">
<ele>15.876470</ele>
<time>2026-07-16T12:21:12.000Z</time>
</trkpt>
<trkpt lat="57.350205" lon="9.684322">
<ele>15.873704</ele>
<time>2026-07-16T12:21:13.000Z</time>
</trkpt>
<trkpt lat="57.350227" lon="9.684347">
<ele>15.871027</ele>
<time>2026-07-16T12:21:14.000Z</time>
</trkpt>
<trkpt lat="57.350250" lon="9.684374">
<ele>15.868203</ele>
<time>2026-07-16T12:21:15.000Z</time>
</trkpt>
<trkpt lat="57.350273" lon="9.684396">
<ele>15.865518</ele>
<time>2026-07-16T12:21:16.000Z</time>
</trkpt>
<trkpt lat="57.350296" lon="9.684416">
<ele>15.862883</ele>
<time>2026-07-16T12:21:17.000Z</time>
</trkpt>
<trkpt lat="57.350319" lon="9.684438">
<ele>15.860198</ele>
<time>2026-07-16T12:21:18.000Z</time>
</trkpt>
<trkpt lat="57.350342" lon="9.684461">
<ele>15.857487</ele>
<time>2026-07-16T12:21:19.000Z</time>
</trkpt>
<trkpt lat="57.350365" lon="9.684484">
<ele>15.854776</ele>
<time>2026-07-16T12:21:20.000Z</time>
</trkpt>
<trkpt lat="57.350391" lon="9.684510">
<ele>15.851712</ele>
<time>2026-07-16T12:21:21.000Z</time>
</trkpt>
<trkpt lat="57.350414" lon="9.684534">
<ele>15.848974</ele>
<time>2026-07-16T12:21:22.000Z</time>
</trkpt>
<trkpt lat="57.350437" lon="9.684555">
<ele>15.846314</ele>
<time>2026-07-16T12:21:23.000Z</time>
</trkpt>
<trkpt lat="57.350460" lon="9.684576">
<ele>15.843655</ele>
<time>2026-07-16T12:21:24.000Z</time>
</trkpt>
<trkpt lat="57.350487" lon="9.684601">
<ele>15.840524</ele>
<time>2026-07-16T12:21:25.000Z</time>
</trkpt>
<trkpt lat="57.350510" lon="9.684623">
<ele>15.837839</ele>
<time>2026-07-16T12:21:26.000Z</time>
</trkpt>
<trkpt lat="57.350529" lon="9.684648">
<ele>15.835422</ele>
<time>2026-07-16T12:21:27.000Z</time>
</trkpt>
<trkpt lat="57.350552" lon="9.684670">
<ele>15.832737</ele>
<time>2026-07-16T12:21:28.000Z</time>
</trkpt>
<trkpt lat="57.350574" lon="9.684695">
<ele>15.830060</ele>
<time>2026-07-16T12:21:29.000Z</time>
</trkpt>
<trkpt lat="57.350601" lon="9.684721">
<ele>15.826904</ele>
<time>2026-07-16T12:21:30.000Z</time>
</trkpt>
<trkpt lat="57.350628" lon="9.684747">
<ele>15.823748</ele>
<time>2026-07-16T12:21:31.000Z</time>
</trkpt>
<trkpt lat="57.350651" lon="9.684775">
<ele>15.820894</ele>
<time>2026-07-16T12:21:32.000Z</time>
</trkpt>
<trkpt lat="57.350677" lon="9.684802">
<ele>15.817802</ele>
<time>2026-07-16T12:21:33.000Z</time>
</trkpt>
<trkpt lat="57.350700" lon="9.684828">
<ele>15.815008</ele>
<time>2026-07-16T12:21:34.000Z</time>
</trkpt>
<trkpt lat="57.350723" lon="9.684856">
<ele>15.812153</ele>
<time>2026-07-16T12:21:35.000Z</time>
</trkpt>
<trkpt lat="57.350746" lon="9.684886">
<ele>15.809236</ele>
<time>2026-07-16T12:21:36.000Z</time>
</trkpt>
<trkpt lat="57.350769" lon="9.684914">
<ele>15.806381</ele>
<time>2026-07-16T12:21:37.000Z</time>
</trkpt>
<trkpt lat="57.350788" lon="9.684940">
<ele>15.803932</ele>
<time>2026-07-16T12:21:38.000Z</time>
</trkpt>
<trkpt lat="57.350811" lon="9.684964">
<ele>15.801194</ele>
<time>2026-07-16T12:21:39.000Z</time>
</trkpt>
<trkpt lat="57.350834" lon="9.684981">
<ele>15.801831</ele>
<time>2026-07-16T12:21:40.000Z</time>
</trkpt>
<trkpt lat="57.350853" lon="9.684999">
<ele>15.803896</ele>
<time>2026-07-16T12:21:41.000Z</time>
</trkpt>
<trkpt lat="57.350872" lon="9.685019">
<ele>15.806010</ele>
<time>2026-07-16T12:21:42.000Z</time>
</trkpt>
<trkpt lat="57.350884" lon="9.685039">
<ele>15.807571</ele>
<time>2026-07-16T12:21:43.000Z</time>
</trkpt>
<trkpt lat="57.350895" lon="9.685055">
<ele>15.808924</ele>
<time>2026-07-16T12:21:44.000Z</time>
</trkpt>
<trkpt lat="57.350937" lon="9.685123">
<ele>15.814320</ele>
<time>2026-07-16T12:21:55.000Z</time>
</trkpt>
<trkpt lat="57.350948" lon="9.685142">
<ele>15.815775</ele>
<time>2026-07-16T12:21:56.000Z</time>
</trkpt>
<trkpt lat="57.350964" lon="9.685157">
<ele>15.817510</ele>
<time>2026-07-16T12:21:57.000Z</time>
</trkpt>
<trkpt lat="57.350975" lon="9.685170">
<ele>15.818773</ele>
<time>2026-07-16T12:21:58.000Z</time>
</trkpt>
<trkpt lat="57.350990" lon="9.685185">
<ele>15.820422</ele>
<time>2026-07-16T12:21:59.000Z</time>
</trkpt>
<trkpt lat="57.351002" lon="9.685200">
<ele>15.821822</ele>
<time>2026-07-16T12:22:00.000Z</time>
</trkpt>
<trkpt lat="57.351009" lon="9.685212">
<ele>15.822745</ele>
<time>2026-07-16T12:22:01.000Z</time>
</trkpt>
<trkpt lat="57.351021" lon="9.685224">
<ele>15.824064</ele>
<time>2026-07-16T12:22:02.000Z</time>
</trkpt>
<trkpt lat="57.351021" lon="9.685225">
<ele>15.824117</ele>
<time>2026-07-16T12:22:03.000Z</time>
</trkpt>
<trkpt lat="57.351021" lon="9.685226">
<ele>15.824169</ele>
<time>2026-07-16T12:22:04.000Z</time>
</trkpt>
<trkpt lat="57.351055" lon="9.685260">
<ele>15.827907</ele>
<time>2026-07-16T12:22:26.000Z</time>
</trkpt>
<trkpt lat="57.351078" lon="9.685277">
<ele>15.830303</ele>
<time>2026-07-16T12:22:27.000Z</time>
</trkpt>
<trkpt lat="57.351097" lon="9.685288">
<ele>15.832229</ele>
<time>2026-07-16T12:22:28.000Z</time>
</trkpt>
<trkpt lat="57.351112" lon="9.685299">
<ele>15.833790</ele>
<time>2026-07-16T12:22:29.000Z</time>
</trkpt>
<trkpt lat="57.351131" lon="9.685309">
<ele>15.835701</ele>
<time>2026-07-16T12:22:30.000Z</time>
</trkpt>
<trkpt lat="57.351147" lon="9.685326">
<ele>15.837486</ele>
<time>2026-07-16T12:22:31.000Z</time>
</trkpt>
<trkpt lat="57.351166" lon="9.685348">
<ele>15.839653</ele>
<time>2026-07-16T12:22:32.000Z</time>
</trkpt>
<trkpt lat="57.351185" lon="9.685368">
<ele>15.841768</ele>
<time>2026-07-16T12:22:33.000Z</time>
</trkpt>
<trkpt lat="57.351208" lon="9.685389">
<ele>15.844249</ele>
<time>2026-07-16T12:22:34.000Z</time>
</trkpt>
<trkpt lat="57.351223" lon="9.685412">
<ele>15.846132</ele>
<time>2026-07-16T12:22:35.000Z</time>
</trkpt>
<trkpt lat="57.351242" lon="9.685436">
<ele>15.848357</ele>
<time>2026-07-16T12:22:36.000Z</time>
</trkpt>
<trkpt lat="57.351261" lon="9.685460">
<ele>15.850582</ele>
<time>2026-07-16T12:22:37.000Z</time>
</trkpt>
<trkpt lat="57.351280" lon="9.685482">
<ele>15.852750</ele>
<time>2026-07-16T12:22:38.000Z</time>
</trkpt>
<trkpt lat="57.351299" lon="9.685506">
<ele>15.854975</ele>
<time>2026-07-16T12:22:39.000Z</time>
</trkpt>
<trkpt lat="57.351318" lon="9.685532">
<ele>15.857260</ele>
<time>2026-07-16T12:22:40.000Z</time>
</trkpt>
<trkpt lat="57.351341" lon="9.685555">
<ele>15.859789</ele>
<time>2026-07-16T12:22:41.000Z</time>
</trkpt>
<trkpt lat="57.351360" lon="9.685576">
<ele>15.861929</ele>
<time>2026-07-16T12:22:42.000Z</time>
</trkpt>
<trkpt lat="57.351379" lon="9.685602">
<ele>15.864214</ele>
<time>2026-07-16T12:22:43.000Z</time>
</trkpt>
<trkpt lat="57.351399" lon="9.685624">
<ele>15.866465</ele>
<time>2026-07-16T12:22:44.000Z</time>
</trkpt>
<trkpt lat="57.351421" lon="9.685647">
<ele>15.868909</ele>
<time>2026-07-16T12:22:45.000Z</time>
</trkpt>
<trkpt lat="57.351440" lon="9.685671">
<ele>15.871134</ele>
<time>2026-07-16T12:22:46.000Z</time>
</trkpt>
<trkpt lat="57.351460" lon="9.685696">
<ele>15.873468</ele>
<time>2026-07-16T12:22:47.000Z</time>
</trkpt>
<trkpt lat="57.351479" lon="9.685720">
<ele>15.875693</ele>
<time>2026-07-16T12:22:48.000Z</time>
</trkpt>
<trkpt lat="57.351498" lon="9.685744">
<ele>15.877917</ele>
<time>2026-07-16T12:22:49.000Z</time>
</trkpt>
<trkpt lat="57.351521" lon="9.685768">
<ele>15.880471</ele>
<time>2026-07-16T12:22:50.000Z</time>
</trkpt>
<trkpt lat="57.351540" lon="9.685794">
<ele>15.882757</ele>
<time>2026-07-16T12:22:51.000Z</time>
</trkpt>
<trkpt lat="57.351563" lon="9.685817">
<ele>15.885285</ele>
<time>2026-07-16T12:22:52.000Z</time>
</trkpt>
<trkpt lat="57.351582" lon="9.685838">
<ele>15.887426</ele>
<time>2026-07-16T12:22:53.000Z</time>
</trkpt>
<trkpt lat="57.351601" lon="9.685859">
<ele>15.889566</ele>
<time>2026-07-16T12:22:54.000Z</time>
</trkpt>
<trkpt lat="57.351624" lon="9.685881">
<ele>15.892071</ele>
<time>2026-07-16T12:22:55.000Z</time>
</trkpt>
<trkpt lat="57.351643" lon="9.685904">
<ele>15.894267</ele>
<time>2026-07-16T12:22:56.000Z</time>
</trkpt>
<trkpt lat="57.351662" lon="9.685927">
<ele>15.896462</ele>
<time>2026-07-16T12:22:57.000Z</time>
</trkpt>
<trkpt lat="57.351685" lon="9.685948">
<ele>15.898943</ele>
<time>2026-07-16T12:22:58.000Z</time>
</trkpt>
<trkpt lat="57.351704" lon="9.685973">
<ele>15.901198</ele>
<time>2026-07-16T12:22:59.000Z</time>
</trkpt>
<trkpt lat="57.351719" lon="9.685990">
<ele>15.902899</ele>
<time>2026-07-16T12:23:00.000Z</time>
</trkpt>
<trkpt lat="57.351742" lon="9.686013">
<ele>15.905428</ele>
<time>2026-07-16T12:23:01.000Z</time>
</trkpt>
<trkpt lat="57.351761" lon="9.686035">
<ele>15.907596</ele>
<time>2026-07-16T12:23:02.000Z</time>
</trkpt>
<trkpt lat="57.351780" lon="9.686055">
<ele>15.909710</ele>
<time>2026-07-16T12:23:03.000Z</time>
</trkpt>
<trkpt lat="57.351799" lon="9.686070">
<ele>15.911708</ele>
<time>2026-07-16T12:23:04.000Z</time>
</trkpt>
<trkpt lat="57.351818" lon="9.686091">
<ele>15.913849</ele>
<time>2026-07-16T12:23:05.000Z</time>
</trkpt>
<trkpt lat="57.351833" lon="9.686108">
<ele>15.915550</ele>
<time>2026-07-16T12:23:06.000Z</time>
</trkpt>
<trkpt lat="57.351849" lon="9.686121">
<ele>15.917241</ele>
<time>2026-07-16T12:23:07.000Z</time>
</trkpt>
<trkpt lat="57.351864" lon="9.686134">
<ele>15.918843</ele>
<time>2026-07-16T12:23:08.000Z</time>
</trkpt>
<trkpt lat="57.351883" lon="9.686147">
<ele>15.920803</ele>
<time>2026-07-16T12:23:09.000Z</time>
</trkpt>
<trkpt lat="57.351902" lon="9.686155">
<ele>15.922688</ele>
<time>2026-07-16T12:23:10.000Z</time>
</trkpt>
<trkpt lat="57.351921" lon="9.686167">
<ele>15.924630</ele>
<time>2026-07-16T12:23:11.000Z</time>
</trkpt>
<trkpt lat="57.351940" lon="9.686180">
<ele>15.926590</ele>
<time>2026-07-16T12:23:12.000Z</time>
</trkpt>
<trkpt lat="57.351963" lon="9.686203">
<ele>15.929119</ele>
<time>2026-07-16T12:23:13.000Z</time>
</trkpt>
<trkpt lat="57.351982" lon="9.686227">
<ele>15.931344</ele>
<time>2026-07-16T12:23:14.000Z</time>
</trkpt>
<trkpt lat="57.352001" lon="9.686252">
<ele>15.933598</ele>
<time>2026-07-16T12:23:15.000Z</time>
</trkpt>
<trkpt lat="57.352020" lon="9.686280">
<ele>15.935947</ele>
<time>2026-07-16T12:23:16.000Z</time>
</trkpt>
<trkpt lat="57.352039" lon="9.686313">
<ele>15.938466</ele>
<time>2026-07-16T12:23:17.000Z</time>
</trkpt>
<trkpt lat="57.352055" lon="9.686347">
<ele>15.940822</ele>
<time>2026-07-16T12:23:18.000Z</time>
</trkpt>
<trkpt lat="57.352074" lon="9.686380">
<ele>15.943341</ele>
<time>2026-07-16T12:23:19.000Z</time>
</trkpt>
<trkpt lat="57.352093" lon="9.686416">
<ele>15.945970</ele>
<time>2026-07-16T12:23:20.000Z</time>
</trkpt>
<trkpt lat="57.352112" lon="9.686449">
<ele>15.948489</ele>
<time>2026-07-16T12:23:21.000Z</time>
</trkpt>
<trkpt lat="57.352131" lon="9.686486">
<ele>15.951156</ele>
<time>2026-07-16T12:23:22.000Z</time>
</trkpt>
<trkpt lat="57.352139" lon="9.686520">
<ele>15.953092</ele>
<time>2026-07-16T12:23:23.000Z</time>
</trkpt>
<trkpt lat="57.352158" lon="9.686555">
<ele>15.955684</ele>
<time>2026-07-16T12:23:24.000Z</time>
</trkpt>
<trkpt lat="57.352169" lon="9.686582">
<ele>15.957451</ele>
<time>2026-07-16T12:23:25.000Z</time>
</trkpt>
<trkpt lat="57.352188" lon="9.686605">
<ele>15.959646</ele>
<time>2026-07-16T12:23:26.000Z</time>
</trkpt>
<trkpt lat="57.352211" lon="9.686628">
<ele>15.962175</ele>
<time>2026-07-16T12:23:27.000Z</time>
</trkpt>
<trkpt lat="57.352234" lon="9.686648">
<ele>15.964633</ele>
<time>2026-07-16T12:23:28.000Z</time>
</trkpt>
<trkpt lat="57.352261" lon="9.686668">
<ele>15.967447</ele>
<time>2026-07-16T12:23:29.000Z</time>
</trkpt>
<trkpt lat="57.352287" lon="9.686692">
<ele>15.970257</ele>
<time>2026-07-16T12:23:30.000Z</time>
</trkpt>
<trkpt lat="57.352310" lon="9.686720">
<ele>15.972920</ele>
<time>2026-07-16T12:23:31.000Z</time>
</trkpt>
<trkpt lat="57.352337" lon="9.686748">
<ele>15.973787</ele>
<time>2026-07-16T12:23:32.000Z</time>
</trkpt>
<trkpt lat="57.352364" lon="9.686777">
<ele>15.972759</ele>
<time>2026-07-16T12:23:33.000Z</time>
</trkpt>
<trkpt lat="57.352394" lon="9.686802">
<ele>15.971675</ele>
<time>2026-07-16T12:23:34.000Z</time>
</trkpt>
<trkpt lat="57.352421" lon="9.686824">
<ele>15.970704</ele>
<time>2026-07-16T12:23:35.000Z</time>
</trkpt>
<trkpt lat="57.352448" lon="9.686851">
<ele>15.969693</ele>
<time>2026-07-16T12:23:36.000Z</time>
</trkpt>
<trkpt lat="57.352478" lon="9.686878">
<ele>15.968594</ele>
<time>2026-07-16T12:23:37.000Z</time>
</trkpt>
<trkpt lat="57.352505" lon="9.686906">
<ele>15.967575</ele>
<time>2026-07-16T12:23:38.000Z</time>
</trkpt>
<trkpt lat="57.352531" lon="9.686931">
<ele>15.966610</ele>
<time>2026-07-16T12:23:39.000Z</time>
</trkpt>
<trkpt lat="57.352562" lon="9.686954">
<ele>15.965510</ele>
<time>2026-07-16T12:23:40.000Z</time>
</trkpt>
<trkpt lat="57.352589" lon="9.686973">
<ele>15.964559</ele>
<time>2026-07-16T12:23:41.000Z</time>
</trkpt>
<trkpt lat="57.352619" lon="9.686989">
<ele>15.963530</ele>
<time>2026-07-16T12:23:42.000Z</time>
</trkpt>
<trkpt lat="57.352650" lon="9.687006">
<ele>15.962465</ele>
<time>2026-07-16T12:23:43.000Z</time>
</trkpt>
<trkpt lat="57.352676" lon="9.687024">
<ele>15.961551</ele>
<time>2026-07-16T12:23:44.000Z</time>
</trkpt>
<trkpt lat="57.352707" lon="9.687041">
<ele>15.960486</ele>
<time>2026-07-16T12:23:45.000Z</time>
</trkpt>
<trkpt lat="57.352737" lon="9.687059">
<ele>15.959447</ele>
<time>2026-07-16T12:23:46.000Z</time>
</trkpt>
<trkpt lat="57.352764" lon="9.687078">
<ele>15.958496</ele>
<time>2026-07-16T12:23:47.000Z</time>
</trkpt>
<trkpt lat="57.352791" lon="9.687102">
<ele>15.957509</ele>
<time>2026-07-16T12:23:48.000Z</time>
</trkpt>
<trkpt lat="57.352818" lon="9.687128">
<ele>15.956507</ele>
<time>2026-07-16T12:23:49.000Z</time>
</trkpt>
<trkpt lat="57.352844" lon="9.687156">
<ele>15.955516</ele>
<time>2026-07-16T12:23:50.000Z</time>
</trkpt>
<trkpt lat="57.352867" lon="9.687186">
<ele>15.954590</ele>
<time>2026-07-16T12:23:51.000Z</time>
</trkpt>
<trkpt lat="57.352894" lon="9.687216">
<ele>15.953553</ele>
<time>2026-07-16T12:23:52.000Z</time>
</trkpt>
<trkpt lat="57.352920" lon="9.687246">
<ele>15.952544</ele>
<time>2026-07-16T12:23:53.000Z</time>
</trkpt>
<trkpt lat="57.352943" lon="9.687276">
<ele>15.951617</ele>
<time>2026-07-16T12:23:54.000Z</time>
</trkpt>
<trkpt lat="57.352966" lon="9.687304">
<ele>15.950711</ele>
<time>2026-07-16T12:23:55.000Z</time>
</trkpt>
<trkpt lat="57.352985" lon="9.687333">
<ele>15.949900</ele>
<time>2026-07-16T12:23:56.000Z</time>
</trkpt>
<trkpt lat="57.353004" lon="9.687365">
<ele>15.949054</ele>
<time>2026-07-16T12:23:57.000Z</time>
</trkpt>
<trkpt lat="57.353020" lon="9.687393">
<ele>15.948330</ele>
<time>2026-07-16T12:23:58.000Z</time>
</trkpt>
<trkpt lat="57.353039" lon="9.687421">
<ele>15.947530</ele>
<time>2026-07-16T12:23:59.000Z</time>
</trkpt>
<trkpt lat="57.353054" lon="9.687448">
<ele>15.946841</ele>
<time>2026-07-16T12:24:00.000Z</time>
</trkpt>
<trkpt lat="57.353069" lon="9.687480">
<ele>15.946088</ele>
<time>2026-07-16T12:24:01.000Z</time>
</trkpt>
<trkpt lat="57.353085" lon="9.687512">
<ele>15.945312</ele>
<time>2026-07-16T12:24:02.000Z</time>
</trkpt>
<trkpt lat="57.353096" lon="9.687542">
<ele>15.944668</ele>
<time>2026-07-16T12:24:03.000Z</time>
</trkpt>
<trkpt lat="57.353115" lon="9.687572">
<ele>15.943845</ele>
<time>2026-07-16T12:24:04.000Z</time>
</trkpt>
<trkpt lat="57.353123" lon="9.687603">
<ele>15.943235</ele>
<time>2026-07-16T12:24:05.000Z</time>
</trkpt>
<trkpt lat="57.353138" lon="9.687633">
<ele>15.942508</ele>
<time>2026-07-16T12:24:06.000Z</time>
</trkpt>
<trkpt lat="57.353153" lon="9.687663">
<ele>15.941781</ele>
<time>2026-07-16T12:24:07.000Z</time>
</trkpt>
<trkpt lat="57.353169" lon="9.687691">
<ele>15.941056</ele>
<time>2026-07-16T12:24:08.000Z</time>
</trkpt>
<trkpt lat="57.353188" lon="9.687717">
<ele>15.940278</ele>
<time>2026-07-16T12:24:09.000Z</time>
</trkpt>
<trkpt lat="57.353203" lon="9.687742">
<ele>15.939613</ele>
<time>2026-07-16T12:24:10.000Z</time>
</trkpt>
<trkpt lat="57.353222" lon="9.687759">
<ele>15.938918</ele>
<time>2026-07-16T12:24:11.000Z</time>
</trkpt>
<trkpt lat="57.353241" lon="9.687777">
<ele>15.938215</ele>
<time>2026-07-16T12:24:12.000Z</time>
</trkpt>
<trkpt lat="57.353264" lon="9.687792">
<ele>15.937412</ele>
<time>2026-07-16T12:24:13.000Z</time>
</trkpt>
<trkpt lat="57.353287" lon="9.687810">
<ele>15.936590</ele>
<time>2026-07-16T12:24:14.000Z</time>
</trkpt>
<trkpt lat="57.353306" lon="9.687827">
<ele>15.935895</ele>
<time>2026-07-16T12:24:15.000Z</time>
</trkpt>
<trkpt lat="57.353329" lon="9.687846">
<ele>15.935065</ele>
<time>2026-07-16T12:24:16.000Z</time>
</trkpt>
<trkpt lat="57.353348" lon="9.687863">
<ele>15.934370</ele>
<time>2026-07-16T12:24:17.000Z</time>
</trkpt>
<trkpt lat="57.353367" lon="9.687882">
<ele>15.933659</ele>
<time>2026-07-16T12:24:18.000Z</time>
</trkpt>
<trkpt lat="57.353390" lon="9.687898">
<ele>15.932850</ele>
<time>2026-07-16T12:24:19.000Z</time>
</trkpt>
<trkpt lat="57.353413" lon="9.687911">
<ele>15.932058</ele>
<time>2026-07-16T12:24:20.000Z</time>
</trkpt>
<trkpt lat="57.353435" lon="9.687924">
<ele>15.931297</ele>
<time>2026-07-16T12:24:21.000Z</time>
</trkpt>
<trkpt lat="57.353458" lon="9.687940">
<ele>15.930488</ele>
<time>2026-07-16T12:24:22.000Z</time>
</trkpt>
<trkpt lat="57.353481" lon="9.687957">
<ele>15.929672</ele>
<time>2026-07-16T12:24:23.000Z</time>
</trkpt>
<trkpt lat="57.353500" lon="9.687973">
<ele>15.928984</ele>
<time>2026-07-16T12:24:24.000Z</time>
</trkpt>
<trkpt lat="57.353519" lon="9.687990">
<ele>15.928289</ele>
<time>2026-07-16T12:24:25.000Z</time>
</trkpt>
<trkpt lat="57.353538" lon="9.688008">
<ele>15.927586</ele>
<time>2026-07-16T12:24:26.000Z</time>
</trkpt>
<trkpt lat="57.353561" lon="9.688031">
<ele>15.926725</ele>
<time>2026-07-16T12:24:27.000Z</time>
</trkpt>
<trkpt lat="57.353584" lon="9.688053">
<ele>15.925873</ele>
<time>2026-07-16T12:24:28.000Z</time>
</trkpt>
<trkpt lat="57.353611" lon="9.688075">
<ele>15.924901</ele>
<time>2026-07-16T12:24:29.000Z</time>
</trkpt>
<trkpt lat="57.353630" lon="9.688094">
<ele>15.924190</ele>
<time>2026-07-16T12:24:30.000Z</time>
</trkpt>
<trkpt lat="57.353653" lon="9.688119">
<ele>15.923312</ele>
<time>2026-07-16T12:24:31.000Z</time>
</trkpt>
<trkpt lat="57.353676" lon="9.688144">
<ele>15.922433</ele>
<time>2026-07-16T12:24:32.000Z</time>
</trkpt>
<trkpt lat="57.353695" lon="9.688173">
<ele>15.921622</ele>
<time>2026-07-16T12:24:33.000Z</time>
</trkpt>
<trkpt lat="57.353718" lon="9.688200">
<ele>15.920726</ele>
<time>2026-07-16T12:24:34.000Z</time>
</trkpt>
<trkpt lat="57.353737" lon="9.688230">
<ele>15.919903</ele>
<time>2026-07-16T12:24:35.000Z</time>
</trkpt>
<trkpt lat="57.353756" lon="9.688255">
<ele>15.919136</ele>
<time>2026-07-16T12:24:36.000Z</time>
</trkpt>
<trkpt lat="57.353779" lon="9.688282">
<ele>15.918239</ele>
<time>2026-07-16T12:24:37.000Z</time>
</trkpt>
<trkpt lat="57.353798" lon="9.688305">
<ele>15.917491</ele>
<time>2026-07-16T12:24:38.000Z</time>
</trkpt>
<trkpt lat="57.353817" lon="9.688330">
<ele>15.916724</ele>
<time>2026-07-16T12:24:39.000Z</time>
</trkpt>
<trkpt lat="57.353840" lon="9.688353">
<ele>15.915863</ele>
<time>2026-07-16T12:24:40.000Z</time>
</trkpt>
<trkpt lat="57.353863" lon="9.688373">
<ele>15.915021</ele>
<time>2026-07-16T12:24:41.000Z</time>
</trkpt>
<trkpt lat="57.353886" lon="9.688389">
<ele>15.914128</ele>
<time>2026-07-16T12:24:42.000Z</time>
</trkpt>
<trkpt lat="57.353909" lon="9.688407">
<ele>15.913219</ele>
<time>2026-07-16T12:24:43.000Z</time>
</trkpt>
<trkpt lat="57.353931" lon="9.688427">
<ele>15.912328</ele>
<time>2026-07-16T12:24:44.000Z</time>
</trkpt>
<trkpt lat="57.353954" lon="9.688445">
<ele>15.911420</ele>
<time>2026-07-16T12:24:45.000Z</time>
</trkpt>
<trkpt lat="57.353981" lon="9.688463">
<ele>15.910377</ele>
<time>2026-07-16T12:24:46.000Z</time>
</trkpt>
<trkpt lat="57.354004" lon="9.688484">
<ele>15.909444</ele>
<time>2026-07-16T12:24:47.000Z</time>
</trkpt>
<trkpt lat="57.354027" lon="9.688503">
<ele>15.908528</ele>
<time>2026-07-16T12:24:48.000Z</time>
</trkpt>
<trkpt lat="57.354050" lon="9.688524">
<ele>15.907596</ele>
<time>2026-07-16T12:24:49.000Z</time>
</trkpt>
<trkpt lat="57.354076" lon="9.688545">
<ele>15.906564</ele>
<time>2026-07-16T12:24:50.000Z</time>
</trkpt>
<trkpt lat="57.354099" lon="9.688566">
<ele>15.905632</ele>
<time>2026-07-16T12:24:51.000Z</time>
</trkpt>
<trkpt lat="57.354122" lon="9.688589">
<ele>15.904681</ele>
<time>2026-07-16T12:24:52.000Z</time>
</trkpt>
<trkpt lat="57.354145" lon="9.688609">
<ele>15.903757</ele>
<time>2026-07-16T12:24:53.000Z</time>
</trkpt>
<trkpt lat="57.354168" lon="9.688629">
<ele>15.902833</ele>
<time>2026-07-16T12:24:54.000Z</time>
</trkpt>
<trkpt lat="57.354191" lon="9.688648">
<ele>15.901917</ele>
<time>2026-07-16T12:24:55.000Z</time>
</trkpt>
<trkpt lat="57.354210" lon="9.688664">
<ele>15.901158</ele>
<time>2026-07-16T12:24:56.000Z</time>
</trkpt>
<trkpt lat="57.354237" lon="9.688687">
<ele>15.900078</ele>
<time>2026-07-16T12:24:57.000Z</time>
</trkpt>
<trkpt lat="57.354260" lon="9.688707">
<ele>15.899154</ele>
<time>2026-07-16T12:24:58.000Z</time>
</trkpt>
<trkpt lat="57.354282" lon="9.688725">
<ele>15.898279</ele>
<time>2026-07-16T12:24:59.000Z</time>
</trkpt>
<trkpt lat="57.354301" lon="9.688741">
<ele>15.897520</ele>
<time>2026-07-16T12:25:00.000Z</time>
</trkpt>
<trkpt lat="57.354328" lon="9.688763">
<ele>15.896447</ele>
<time>2026-07-16T12:25:01.000Z</time>
</trkpt>
<trkpt lat="57.354351" lon="9.688786">
<ele>15.895497</ele>
<time>2026-07-16T12:25:02.000Z</time>
</trkpt>
<trkpt lat="57.354374" lon="9.688808">
<ele>15.894555</ele>
<time>2026-07-16T12:25:03.000Z</time>
</trkpt>
<trkpt lat="57.354397" lon="9.688833">
<ele>15.893586</ele>
<time>2026-07-16T12:25:04.000Z</time>
</trkpt>
<trkpt lat="57.354420" lon="9.688861">
<ele>15.892585</ele>
<time>2026-07-16T12:25:05.000Z</time>
</trkpt>
<trkpt lat="57.354446" lon="9.688883">
<ele>15.891545</ele>
<time>2026-07-16T12:25:06.000Z</time>
</trkpt>
<trkpt lat="57.354469" lon="9.688910">
<ele>15.890555</ele>
<time>2026-07-16T12:25:07.000Z</time>
</trkpt>
<trkpt lat="57.354488" lon="9.688937">
<ele>15.889684</ele>
<time>2026-07-16T12:25:08.000Z</time>
</trkpt>
<trkpt lat="57.354511" lon="9.688962">
<ele>15.888715</ele>
<time>2026-07-16T12:25:09.000Z</time>
</trkpt>
<trkpt lat="57.354534" lon="9.688986">
<ele>15.887755</ele>
<time>2026-07-16T12:25:10.000Z</time>
</trkpt>
<trkpt lat="57.354557" lon="9.689012">
<ele>15.886775</ele>
<time>2026-07-16T12:25:11.000Z</time>
</trkpt>
<trkpt lat="57.354580" lon="9.689036">
<ele>15.885815</ele>
<time>2026-07-16T12:25:12.000Z</time>
</trkpt>
<trkpt lat="57.354603" lon="9.689061">
<ele>15.884845</ele>
<time>2026-07-16T12:25:13.000Z</time>
</trkpt>
<trkpt lat="57.354626" lon="9.689079">
<ele>15.883937</ele>
<time>2026-07-16T12:25:14.000Z</time>
</trkpt>
<trkpt lat="57.354652" lon="9.689096">
<ele>15.882934</ele>
<time>2026-07-16T12:25:15.000Z</time>
</trkpt>
<trkpt lat="57.354675" lon="9.689108">
<ele>15.882065</ele>
<time>2026-07-16T12:25:16.000Z</time>
</trkpt>
<trkpt lat="57.354702" lon="9.689119">
<ele>15.881060</ele>
<time>2026-07-16T12:25:17.000Z</time>
</trkpt>
<trkpt lat="57.354729" lon="9.689123">
<ele>15.880075</ele>
<time>2026-07-16T12:25:18.000Z</time>
</trkpt>
<trkpt lat="57.354755" lon="9.689123">
<ele>15.879129</ele>
<time>2026-07-16T12:25:19.000Z</time>
</trkpt>
<trkpt lat="57.354782" lon="9.689129">
<ele>15.878140</ele>
<time>2026-07-16T12:25:20.000Z</time>
</trkpt>
<trkpt lat="57.354809" lon="9.689138">
<ele>15.877142</ele>
<time>2026-07-16T12:25:21.000Z</time>
</trkpt>
<trkpt lat="57.354832" lon="9.689147">
<ele>15.876287</ele>
<time>2026-07-16T12:25:22.000Z</time>
</trkpt>
<trkpt lat="57.354862" lon="9.689158">
<ele>15.875175</ele>
<time>2026-07-16T12:25:23.000Z</time>
</trkpt>
<trkpt lat="57.354885" lon="9.689168">
<ele>15.874316</ele>
<time>2026-07-16T12:25:24.000Z</time>
</trkpt>
<trkpt lat="57.354919" lon="9.689176">
<ele>15.873069</ele>
<time>2026-07-16T12:25:25.000Z</time>
</trkpt>
<trkpt lat="57.354946" lon="9.689184">
<ele>15.872075</ele>
<time>2026-07-16T12:25:26.000Z</time>
</trkpt>
<trkpt lat="57.354973" lon="9.689194">
<ele>15.871073</ele>
<time>2026-07-16T12:25:27.000Z</time>
</trkpt>
<trkpt lat="57.354996" lon="9.689203">
<ele>15.870218</ele>
<time>2026-07-16T12:25:28.000Z</time>
</trkpt>
<trkpt lat="57.355019" lon="9.689217">
<ele>15.869338</ele>
<time>2026-07-16T12:25:29.000Z</time>
</trkpt>
<trkpt lat="57.355042" lon="9.689231">
<ele>15.868457</ele>
<time>2026-07-16T12:25:30.000Z</time>
</trkpt>
<trkpt lat="57.355064" lon="9.689248">
<ele>15.867590</ele>
<time>2026-07-16T12:25:31.000Z</time>
</trkpt>
<trkpt lat="57.355091" lon="9.689267">
<ele>15.866540</ele>
<time>2026-07-16T12:25:32.000Z</time>
</trkpt>
<trkpt lat="57.355118" lon="9.689284">
<ele>15.865503</ele>
<time>2026-07-16T12:25:33.000Z</time>
</trkpt>
<trkpt lat="57.355141" lon="9.689304">
<ele>15.864579</ele>
<time>2026-07-16T12:25:34.000Z</time>
</trkpt>
<trkpt lat="57.355164" lon="9.689327">
<ele>15.863628</ele>
<time>2026-07-16T12:25:35.000Z</time>
</trkpt>
<trkpt lat="57.355186" lon="9.689347">
<ele>15.862737</ele>
<time>2026-07-16T12:25:36.000Z</time>
</trkpt>
<trkpt lat="57.355209" lon="9.689367">
<ele>15.861813</ele>
<time>2026-07-16T12:25:37.000Z</time>
</trkpt>
<trkpt lat="57.355232" lon="9.689391">
<ele>15.860853</ele>
<time>2026-07-16T12:25:38.000Z</time>
</trkpt>
<trkpt lat="57.355251" lon="9.689415">
<ele>15.860017</ele>
<time>2026-07-16T12:25:39.000Z</time>
</trkpt>
<trkpt lat="57.355278" lon="9.689438">
<ele>15.858936</ele>
<time>2026-07-16T12:25:40.000Z</time>
</trkpt>
<trkpt lat="57.355301" lon="9.689462">
<ele>15.857976</ele>
<time>2026-07-16T12:25:41.000Z</time>
</trkpt>
<trkpt lat="57.355324" lon="9.689486">
<ele>15.857016</ele>
<time>2026-07-16T12:25:42.000Z</time>
</trkpt>
<trkpt lat="57.355347" lon="9.689509">
<ele>15.856066</ele>
<time>2026-07-16T12:25:43.000Z</time>
</trkpt>
<trkpt lat="57.355373" lon="9.689534">
<ele>15.855000</ele>
<time>2026-07-16T12:25:44.000Z</time>
</trkpt>
<trkpt lat="57.355396" lon="9.689557">
<ele>15.854050</ele>
<time>2026-07-16T12:25:45.000Z</time>
</trkpt>
<trkpt lat="57.355423" lon="9.689577">
<ele>15.852992</ele>
<time>2026-07-16T12:25:46.000Z</time>
</trkpt>
<trkpt lat="57.355446" lon="9.689593">
<ele>15.852099</ele>
<time>2026-07-16T12:25:47.000Z</time>
</trkpt>
<trkpt lat="57.355465" lon="9.689605">
<ele>15.851369</ele>
<time>2026-07-16T12:25:48.000Z</time>
</trkpt>
<trkpt lat="57.355492" lon="9.689615">
<ele>15.850367</ele>
<time>2026-07-16T12:25:49.000Z</time>
</trkpt>
<trkpt lat="57.355515" lon="9.689623">
<ele>15.850046</ele>
<time>2026-07-16T12:25:50.000Z</time>
</trkpt>
<trkpt lat="57.355541" lon="9.689631">
<ele>15.852784</ele>
<time>2026-07-16T12:25:51.000Z</time>
</trkpt>
<trkpt lat="57.355564" lon="9.689637">
<ele>15.855197</ele>
<time>2026-07-16T12:25:52.000Z</time>
</trkpt>
<trkpt lat="57.355591" lon="9.689644">
<ele>15.858029</ele>
<time>2026-07-16T12:25:53.000Z</time>
</trkpt>
<trkpt lat="57.355614" lon="9.689654">
<ele>15.860483</ele>
<time>2026-07-16T12:25:54.000Z</time>
</trkpt>
<trkpt lat="57.355637" lon="9.689667">
<ele>15.862981</ele>
<time>2026-07-16T12:25:55.000Z</time>
</trkpt>
<trkpt lat="57.355659" lon="9.689686">
<ele>15.865502</ele>
<time>2026-07-16T12:25:56.000Z</time>
</trkpt>
<trkpt lat="57.355675" lon="9.689705">
<ele>15.867476</ele>
<time>2026-07-16T12:25:57.000Z</time>
</trkpt>
<trkpt lat="57.355694" lon="9.689718">
<ele>15.869580</ele>
<time>2026-07-16T12:25:58.000Z</time>
</trkpt>
<trkpt lat="57.355713" lon="9.689731">
<ele>15.871684</ele>
<time>2026-07-16T12:25:59.000Z</time>
</trkpt>
<trkpt lat="57.355728" lon="9.689749">
<ele>15.873540</ele>
<time>2026-07-16T12:26:00.000Z</time>
</trkpt>
<trkpt lat="57.355747" lon="9.689769">
<ele>15.875810</ele>
<time>2026-07-16T12:26:01.000Z</time>
</trkpt>
<trkpt lat="57.355766" lon="9.689785">
<ele>15.877978</ele>
<time>2026-07-16T12:26:02.000Z</time>
</trkpt>
<trkpt lat="57.355785" lon="9.689799">
<ele>15.880102</ele>
<time>2026-07-16T12:26:03.000Z</time>
</trkpt>
<trkpt lat="57.355804" lon="9.689811">
<ele>15.882187</ele>
<time>2026-07-16T12:26:04.000Z</time>
</trkpt>
<trkpt lat="57.355823" lon="9.689824">
<ele>15.884291</ele>
<time>2026-07-16T12:26:05.000Z</time>
</trkpt>
<trkpt lat="57.355846" lon="9.689836">
<ele>15.886774</ele>
<time>2026-07-16T12:26:06.000Z</time>
</trkpt>
<trkpt lat="57.355862" lon="9.689848">
<ele>15.888567</ele>
<time>2026-07-16T12:26:07.000Z</time>
</trkpt>
<trkpt lat="57.355823" lon="9.689981">
<ele>15.897050</ele>
<time>2026-07-16T12:26:27.000Z</time>
</trkpt>
<trkpt lat="57.355835" lon="9.690019">
<ele>15.899517</ele>
<time>2026-07-16T12:26:29.000Z</time>
</trkpt>
<trkpt lat="57.355843" lon="9.690036">
<ele>15.900781</ele>
<time>2026-07-16T12:26:30.000Z</time>
</trkpt>
<trkpt lat="57.355850" lon="9.690053">
<ele>15.901980</ele>
<time>2026-07-16T12:26:31.000Z</time>
</trkpt>
<trkpt lat="57.355858" lon="9.690068">
<ele>15.903162</ele>
<time>2026-07-16T12:26:32.000Z</time>
</trkpt>
<trkpt lat="57.355865" lon="9.690080">
<ele>15.904152</ele>
<time>2026-07-16T12:26:33.000Z</time>
</trkpt>
<trkpt lat="57.355877" lon="9.690091">
<ele>15.905543</ele>
<time>2026-07-16T12:26:34.000Z</time>
</trkpt>
<trkpt lat="57.355885" lon="9.690104">
<ele>15.906648</ele>
<time>2026-07-16T12:26:35.000Z</time>
</trkpt>
<trkpt lat="57.355896" lon="9.690115">
<ele>15.907947</ele>
<time>2026-07-16T12:26:36.000Z</time>
</trkpt>
<trkpt lat="57.355904" lon="9.690128">
<ele>15.909052</ele>
<time>2026-07-16T12:26:37.000Z</time>
</trkpt>
<trkpt lat="57.355911" lon="9.690142">
<ele>15.910122</ele>
<time>2026-07-16T12:26:38.000Z</time>
</trkpt>
<trkpt lat="57.355923" lon="9.690152">
<ele>15.911488</ele>
<time>2026-07-16T12:26:39.000Z</time>
</trkpt>
<trkpt lat="57.355930" lon="9.690160">
<ele>15.912343</ele>
<time>2026-07-16T12:26:40.000Z</time>
</trkpt>
<trkpt lat="57.355942" lon="9.690167">
<ele>15.913650</ele>
<time>2026-07-16T12:26:41.000Z</time>
</trkpt>
<trkpt lat="57.355953" lon="9.690174">
<ele>15.914858</ele>
<time>2026-07-16T12:26:42.000Z</time>
</trkpt>
<trkpt lat="57.355965" lon="9.690179">
<ele>15.916136</ele>
<time>2026-07-16T12:26:43.000Z</time>
</trkpt>
<trkpt lat="57.355976" lon="9.690184">
<ele>15.917312</ele>
<time>2026-07-16T12:26:44.000Z</time>
</trkpt>
<trkpt lat="57.355984" lon="9.690189">
<ele>15.918189</ele>
<time>2026-07-16T12:26:45.000Z</time>
</trkpt>
<trkpt lat="57.355995" lon="9.690196">
<ele>15.919397</ele>
<time>2026-07-16T12:26:46.000Z</time>
</trkpt>
<trkpt lat="57.356007" lon="9.690204">
<ele>15.920722</ele>
<time>2026-07-16T12:26:47.000Z</time>
</trkpt>
<trkpt lat="57.356018" lon="9.690211">
<ele>15.921930</ele>
<time>2026-07-16T12:26:48.000Z</time>
</trkpt>
<trkpt lat="57.356033" lon="9.690219">
<ele>15.923552</ele>
<time>2026-07-16T12:26:49.000Z</time>
</trkpt>
<trkpt lat="57.356041" lon="9.690228">
<ele>15.924524</ele>
<time>2026-07-16T12:26:50.000Z</time>
</trkpt>
<trkpt lat="57.356056" lon="9.690237">
<ele>15.926162</ele>
<time>2026-07-16T12:26:51.000Z</time>
</trkpt>
<trkpt lat="57.356068" lon="9.690246">
<ele>15.927507</ele>
<time>2026-07-16T12:26:52.000Z</time>
</trkpt>
<trkpt lat="57.356079" lon="9.690256">
<ele>15.928779</ele>
<time>2026-07-16T12:26:53.000Z</time>
</trkpt>
<trkpt lat="57.356087" lon="9.690267">
<ele>15.929814</ele>
<time>2026-07-16T12:26:54.000Z</time>
</trkpt>
<trkpt lat="57.356094" lon="9.690278">
<ele>15.930767</ele>
<time>2026-07-16T12:26:55.000Z</time>
</trkpt>
<trkpt lat="57.356106" lon="9.690291">
<ele>15.932211</ele>
<time>2026-07-16T12:26:56.000Z</time>
</trkpt>
<trkpt lat="57.356113" lon="9.690305">
<ele>15.933281</ele>
<time>2026-07-16T12:26:57.000Z</time>
</trkpt>
<trkpt lat="57.356125" lon="9.690316">
<ele>15.934672</ele>
<time>2026-07-16T12:26:58.000Z</time>
</trkpt>
<trkpt lat="57.356133" lon="9.690328">
<ele>15.935741</ele>
<time>2026-07-16T12:26:59.000Z</time>
</trkpt>
<trkpt lat="57.356136" lon="9.690341">
<ele>15.936533</ele>
<time>2026-07-16T12:27:00.000Z</time>
</trkpt>
<trkpt lat="57.356148" lon="9.690358">
<ele>15.938102</ele>
<time>2026-07-16T12:27:01.000Z</time>
</trkpt>
<trkpt lat="57.356155" lon="9.690371">
<ele>15.939131</ele>
<time>2026-07-16T12:27:02.000Z</time>
</trkpt>
<trkpt lat="57.356163" lon="9.690381">
<ele>15.940134</ele>
<time>2026-07-16T12:27:03.000Z</time>
</trkpt>
<trkpt lat="57.356174" lon="9.690392">
<ele>15.941432</ele>
<time>2026-07-16T12:27:04.000Z</time>
</trkpt>
<trkpt lat="57.356182" lon="9.690399">
<ele>15.942351</ele>
<time>2026-07-16T12:27:05.000Z</time>
</trkpt>
<trkpt lat="57.356194" lon="9.690410">
<ele>15.943742</ele>
<time>2026-07-16T12:27:19.000Z</time>
</trkpt>
<trkpt lat="57.356224" lon="9.690439">
<ele>15.947257</ele>
<time>2026-07-16T12:27:29.000Z</time>
</trkpt>
<trkpt lat="57.356243" lon="9.690453">
<ele>15.949381</ele>
<time>2026-07-16T12:27:30.000Z</time>
</trkpt>
<trkpt lat="57.356262" lon="9.690462">
<ele>15.951418</ele>
<time>2026-07-16T12:27:31.000Z</time>
</trkpt>
<trkpt lat="57.356285" lon="9.690474">
<ele>15.953900</ele>
<time>2026-07-16T12:27:32.000Z</time>
</trkpt>
<trkpt lat="57.356308" lon="9.690486">
<ele>15.956382</ele>
<time>2026-07-16T12:27:33.000Z</time>
</trkpt>
<trkpt lat="57.356331" lon="9.690503">
<ele>15.958955</ele>
<time>2026-07-16T12:27:34.000Z</time>
</trkpt>
<trkpt lat="57.356354" lon="9.690523">
<ele>15.961594</ele>
<time>2026-07-16T12:27:35.000Z</time>
</trkpt>
<trkpt lat="57.356377" lon="9.690544">
<ele>15.964257</ele>
<time>2026-07-16T12:27:36.000Z</time>
</trkpt>
<trkpt lat="57.356400" lon="9.690565">
<ele>15.966921</ele>
<time>2026-07-16T12:27:37.000Z</time>
</trkpt>
<trkpt lat="57.356426" lon="9.690586">
<ele>15.969867</ele>
<time>2026-07-16T12:27:38.000Z</time>
</trkpt>
<trkpt lat="57.356453" lon="9.690609">
<ele>15.972954</ele>
<time>2026-07-16T12:27:39.000Z</time>
</trkpt>
<trkpt lat="57.356476" lon="9.690635">
<ele>15.975752</ele>
<time>2026-07-16T12:27:40.000Z</time>
</trkpt>
<trkpt lat="57.356499" lon="9.690661">
<ele>15.978551</ele>
<time>2026-07-16T12:27:41.000Z</time>
</trkpt>
<trkpt lat="57.356522" lon="9.690687">
<ele>15.981349</ele>
<time>2026-07-16T12:27:42.000Z</time>
</trkpt>
<trkpt lat="57.356544" lon="9.690714">
<ele>15.984090</ele>
<time>2026-07-16T12:27:43.000Z</time>
</trkpt>
<trkpt lat="57.356564" lon="9.690739">
<ele>15.986596</ele>
<time>2026-07-16T12:27:44.000Z</time>
</trkpt>
<trkpt lat="57.356583" lon="9.690762">
<ele>15.988954</ele>
<time>2026-07-16T12:27:45.000Z</time>
</trkpt>
<trkpt lat="57.356602" lon="9.690784">
<ele>15.991281</ele>
<time>2026-07-16T12:27:46.000Z</time>
</trkpt>
<trkpt lat="57.356621" lon="9.690804">
<ele>15.993551</ele>
<time>2026-07-16T12:27:47.000Z</time>
</trkpt>
<trkpt lat="57.356640" lon="9.690823">
<ele>15.995793</ele>
<time>2026-07-16T12:27:48.000Z</time>
</trkpt>
<trkpt lat="57.356663" lon="9.690845">
<ele>15.998482</ele>
<time>2026-07-16T12:27:49.000Z</time>
</trkpt>
<trkpt lat="57.356678" lon="9.690869">
<ele>16.000540</ele>
<time>2026-07-16T12:27:50.000Z</time>
</trkpt>
<trkpt lat="57.356697" lon="9.690894">
<ele>16.002961</ele>
<time>2026-07-16T12:27:51.000Z</time>
</trkpt>
<trkpt lat="57.356716" lon="9.690921">
<ele>16.005448</ele>
<time>2026-07-16T12:27:52.000Z</time>
</trkpt>
<trkpt lat="57.356735" lon="9.690945">
<ele>16.007836</ele>
<time>2026-07-16T12:27:53.000Z</time>
</trkpt>
<trkpt lat="57.356754" lon="9.690969">
<ele>16.010225</ele>
<time>2026-07-16T12:27:54.000Z</time>
</trkpt>
<trkpt lat="57.356773" lon="9.690994">
<ele>16.012645</ele>
<time>2026-07-16T12:27:55.000Z</time>
</trkpt>
<trkpt lat="57.356792" lon="9.691015">
<ele>16.014943</ele>
<time>2026-07-16T12:27:56.000Z</time>
</trkpt>
<trkpt lat="57.356812" lon="9.691038">
<ele>16.017388</ele>
<time>2026-07-16T12:27:57.000Z</time>
</trkpt>
<trkpt lat="57.356831" lon="9.691062">
<ele>16.019777</ele>
<time>2026-07-16T12:27:58.000Z</time>
</trkpt>
<trkpt lat="57.356853" lon="9.691085">
<ele>16.022400</ele>
<time>2026-07-16T12:27:59.000Z</time>
</trkpt>
<trkpt lat="57.356873" lon="9.691106">
<ele>16.024788</ele>
<time>2026-07-16T12:28:00.000Z</time>
</trkpt>
<trkpt lat="57.356895" lon="9.691125">
<ele>16.027310</ele>
<time>2026-07-16T12:28:01.000Z</time>
</trkpt>
<trkpt lat="57.356922" lon="9.691140">
<ele>16.030238</ele>
<time>2026-07-16T12:28:02.000Z</time>
</trkpt>
<trkpt lat="57.356945" lon="9.691153">
<ele>16.032736</ele>
<time>2026-07-16T12:28:03.000Z</time>
</trkpt>
<trkpt lat="57.356972" lon="9.691165">
<ele>16.035620</ele>
<time>2026-07-16T12:28:04.000Z</time>
</trkpt>
<trkpt lat="57.356995" lon="9.691178">
<ele>16.040278</ele>
<time>2026-07-16T12:28:05.000Z</time>
</trkpt>
<trkpt lat="57.357021" lon="9.691192">
<ele>16.046861</ele>
<time>2026-07-16T12:28:06.000Z</time>
</trkpt>
<trkpt lat="57.357044" lon="9.691206">
<ele>16.052747</ele>
<time>2026-07-16T12:28:07.000Z</time>
</trkpt>
<trkpt lat="57.357067" lon="9.691223">
<ele>16.058767</ele>
<time>2026-07-16T12:28:08.000Z</time>
</trkpt>
<trkpt lat="57.357090" lon="9.691238">
<ele>16.064695</ele>
<time>2026-07-16T12:28:09.000Z</time>
</trkpt>
<trkpt lat="57.357117" lon="9.691252">
<ele>16.071512</ele>
<time>2026-07-16T12:28:10.000Z</time>
</trkpt>
<trkpt lat="57.357143" lon="9.691266">
<ele>16.078095</ele>
<time>2026-07-16T12:28:11.000Z</time>
</trkpt>
<trkpt lat="57.357166" lon="9.691279">
<ele>16.083941</ele>
<time>2026-07-16T12:28:12.000Z</time>
</trkpt>
<trkpt lat="57.357193" lon="9.691297">
<ele>16.090917</ele>
<time>2026-07-16T12:28:13.000Z</time>
</trkpt>
<trkpt lat="57.357216" lon="9.691313">
<ele>16.096890</ele>
<time>2026-07-16T12:28:14.000Z</time>
</trkpt>
<trkpt lat="57.357239" lon="9.691330">
<ele>16.102911</ele>
<time>2026-07-16T12:28:15.000Z</time>
</trkpt>
<trkpt lat="57.357266" lon="9.691343">
<ele>16.109693</ele>
<time>2026-07-16T12:28:16.000Z</time>
</trkpt>
<trkpt lat="57.357288" lon="9.691357">
<ele>16.115349</ele>
<time>2026-07-16T12:28:17.000Z</time>
</trkpt>
<trkpt lat="57.357315" lon="9.691368">
<ele>16.122070</ele>
<time>2026-07-16T12:28:18.000Z</time>
</trkpt>
<trkpt lat="57.357342" lon="9.691381">
<ele>16.128853</ele>
<time>2026-07-16T12:28:19.000Z</time>
</trkpt>
<trkpt lat="57.357368" lon="9.691400">
<ele>16.135648</ele>
<time>2026-07-16T12:28:20.000Z</time>
</trkpt>
<trkpt lat="57.357395" lon="9.691418">
<ele>16.142624</ele>
<time>2026-07-16T12:28:21.000Z</time>
</trkpt>
<trkpt lat="57.357418" lon="9.691437">
<ele>16.148747</ele>
<time>2026-07-16T12:28:22.000Z</time>
</trkpt>
<trkpt lat="57.357441" lon="9.691453">
<ele>16.154720</ele>
<time>2026-07-16T12:28:23.000Z</time>
</trkpt>
<trkpt lat="57.357464" lon="9.691466">
<ele>16.160566</ele>
<time>2026-07-16T12:28:24.000Z</time>
</trkpt>
<trkpt lat="57.357487" lon="9.691479">
<ele>16.166412</ele>
<time>2026-07-16T12:28:25.000Z</time>
</trkpt>
<trkpt lat="57.357510" lon="9.691491">
<ele>16.172222</ele>
<time>2026-07-16T12:28:26.000Z</time>
</trkpt>
<trkpt lat="57.357529" lon="9.691504">
<ele>16.177146</ele>
<time>2026-07-16T12:28:27.000Z</time>
</trkpt>
<trkpt lat="57.357552" lon="9.691523">
<ele>16.183268</ele>
<time>2026-07-16T12:28:28.000Z</time>
</trkpt>
<trkpt lat="57.357571" lon="9.691542">
<ele>16.188517</ele>
<time>2026-07-16T12:28:29.000Z</time>
</trkpt>
<trkpt lat="57.357594" lon="9.691565">
<ele>16.194871</ele>
<time>2026-07-16T12:28:30.000Z</time>
</trkpt>
<trkpt lat="57.357616" lon="9.691587">
<ele>16.200949</ele>
<time>2026-07-16T12:28:31.000Z</time>
</trkpt>
<trkpt lat="57.357635" lon="9.691608">
<ele>16.206327</ele>
<time>2026-07-16T12:28:32.000Z</time>
</trkpt>
<trkpt lat="57.357655" lon="9.691632">
<ele>16.212120</ele>
<time>2026-07-16T12:28:33.000Z</time>
</trkpt>
<trkpt lat="57.357677" lon="9.691654">
<ele>16.218197</ele>
<time>2026-07-16T12:28:34.000Z</time>
</trkpt>
<trkpt lat="57.357700" lon="9.691677">
<ele>16.224551</ele>
<time>2026-07-16T12:28:35.000Z</time>
</trkpt>
<trkpt lat="57.357719" lon="9.691702">
<ele>16.230216</ele>
<time>2026-07-16T12:28:36.000Z</time>
</trkpt>
<trkpt lat="57.357742" lon="9.691726">
<ele>16.236634</ele>
<time>2026-07-16T12:28:37.000Z</time>
</trkpt>
<trkpt lat="57.357765" lon="9.691747">
<ele>16.242867</ele>
<time>2026-07-16T12:28:38.000Z</time>
</trkpt>
<trkpt lat="57.357788" lon="9.691768">
<ele>16.249101</ele>
<time>2026-07-16T12:28:39.000Z</time>
</trkpt>
<trkpt lat="57.357811" lon="9.691785">
<ele>16.255121</ele>
<time>2026-07-16T12:28:40.000Z</time>
</trkpt>
<trkpt lat="57.357834" lon="9.691798">
<ele>16.260967</ele>
<time>2026-07-16T12:28:41.000Z</time>
</trkpt>
<trkpt lat="57.357857" lon="9.691814">
<ele>16.266940</ele>
<time>2026-07-16T12:28:42.000Z</time>
</trkpt>
<trkpt lat="57.357880" lon="9.691830">
<ele>16.272913</ele>
<time>2026-07-16T12:28:43.000Z</time>
</trkpt>
<trkpt lat="57.357903" lon="9.691843">
<ele>16.278760</ele>
<time>2026-07-16T12:28:44.000Z</time>
</trkpt>
<trkpt lat="57.357929" lon="9.691860">
<ele>16.285463</ele>
<time>2026-07-16T12:28:45.000Z</time>
</trkpt>
<trkpt lat="57.357952" lon="9.691874">
<ele>16.291349</ele>
<time>2026-07-16T12:28:46.000Z</time>
</trkpt>
<trkpt lat="57.357975" lon="9.691888">
<ele>16.297235</ele>
<time>2026-07-16T12:28:47.000Z</time>
</trkpt>
<trkpt lat="57.357998" lon="9.691906">
<ele>16.303305</ele>
<time>2026-07-16T12:28:48.000Z</time>
</trkpt>
<trkpt lat="57.358021" lon="9.691925">
<ele>16.309427</ele>
<time>2026-07-16T12:28:49.000Z</time>
</trkpt>
<trkpt lat="57.358044" lon="9.691949">
<ele>16.315845</ele>
<time>2026-07-16T12:28:50.000Z</time>
</trkpt>
<trkpt lat="57.358063" lon="9.691974">
<ele>16.321509</ele>
<time>2026-07-16T12:28:51.000Z</time>
</trkpt>
<trkpt lat="57.358086" lon="9.692000">
<ele>16.328059</ele>
<time>2026-07-16T12:28:52.000Z</time>
</trkpt>
<trkpt lat="57.358105" lon="9.692025">
<ele>16.333724</ele>
<time>2026-07-16T12:28:53.000Z</time>
</trkpt>
<trkpt lat="57.358124" lon="9.692049">
<ele>16.339314</ele>
<time>2026-07-16T12:28:54.000Z</time>
</trkpt>
<trkpt lat="57.358143" lon="9.692074">
<ele>16.344979</ele>
<time>2026-07-16T12:28:55.000Z</time>
</trkpt>
<trkpt lat="57.358166" lon="9.692097">
<ele>16.351333</ele>
<time>2026-07-16T12:28:56.000Z</time>
</trkpt>
<trkpt lat="57.358185" lon="9.692122">
<ele>16.356998</ele>
<time>2026-07-16T12:28:57.000Z</time>
</trkpt>
<trkpt lat="57.358208" lon="9.692147">
<ele>16.363480</ele>
<time>2026-07-16T12:28:58.000Z</time>
</trkpt>
<trkpt lat="57.358227" lon="9.692176">
<ele>16.369464</ele>
<time>2026-07-16T12:28:59.000Z</time>
</trkpt>
<trkpt lat="57.358238" lon="9.692208">
<ele>16.374441</ele>
<time>2026-07-16T12:29:00.000Z</time>
</trkpt>
<trkpt lat="57.358246" lon="9.692246">
<ele>16.379791</ele>
<time>2026-07-16T12:29:01.000Z</time>
</trkpt>
<trkpt lat="57.358253" lon="9.692283">
<ele>16.384933</ele>
<time>2026-07-16T12:29:02.000Z</time>
</trkpt>
<trkpt lat="57.358261" lon="9.692320">
<ele>16.390161</ele>
<time>2026-07-16T12:29:03.000Z</time>
</trkpt>
<trkpt lat="57.358265" lon="9.692357">
<ele>16.395109</ele>
<time>2026-07-16T12:29:04.000Z</time>
</trkpt>
<trkpt lat="57.358269" lon="9.692392">
<ele>16.399802</ele>
<time>2026-07-16T12:29:05.000Z</time>
</trkpt>
<trkpt lat="57.358269" lon="9.692426">
<ele>16.404260</ele>
<time>2026-07-16T12:29:06.000Z</time>
</trkpt>
<trkpt lat="57.358269" lon="9.692454">
<ele>16.407933</ele>
<time>2026-07-16T12:29:07.000Z</time>
</trkpt>
<trkpt lat="57.358273" lon="9.692483">
<ele>16.411858</ele>
<time>2026-07-16T12:29:08.000Z</time>
</trkpt>
<trkpt lat="57.358269" lon="9.692514">
<ele>16.416038</ele>
<time>2026-07-16T12:29:09.000Z</time>
</trkpt>
<trkpt lat="57.358265" lon="9.692545">
<ele>16.420219</ele>
<time>2026-07-16T12:29:10.000Z</time>
</trkpt>
<trkpt lat="57.358257" lon="9.692574">
<ele>16.424491</ele>
<time>2026-07-16T12:29:11.000Z</time>
</trkpt>
<trkpt lat="57.358250" lon="9.692604">
<ele>16.428777</ele>
<time>2026-07-16T12:29:12.000Z</time>
</trkpt>
<trkpt lat="57.358242" lon="9.692633">
<ele>16.433049</ele>
<time>2026-07-16T12:29:13.000Z</time>
</trkpt>
<trkpt lat="57.358238" lon="9.692663">
<ele>16.437102</ele>
<time>2026-07-16T12:29:14.000Z</time>
</trkpt>
<trkpt lat="57.358234" lon="9.692693">
<ele>16.441155</ele>
<time>2026-07-16T12:29:15.000Z</time>
</trkpt>
<trkpt lat="57.358231" lon="9.692723">
<ele>16.445156</ele>
<time>2026-07-16T12:29:16.000Z</time>
</trkpt>
<trkpt lat="57.358227" lon="9.692750">
<ele>16.448828</ele>
<time>2026-07-16T12:29:17.000Z</time>
</trkpt>
<trkpt lat="57.358227" lon="9.692777">
<ele>16.452369</ele>
<time>2026-07-16T12:29:18.000Z</time>
</trkpt>
<trkpt lat="57.358223" lon="9.692802">
<ele>16.455789</ele>
<time>2026-07-16T12:29:19.000Z</time>
</trkpt>
<trkpt lat="57.358219" lon="9.692827">
<ele>16.459209</ele>
<time>2026-07-16T12:29:20.000Z</time>
</trkpt>
<trkpt lat="57.358219" lon="9.692854">
<ele>16.462750</ele>
<time>2026-07-16T12:29:21.000Z</time>
</trkpt>
<trkpt lat="57.358215" lon="9.692884">
<ele>16.466803</ele>
<time>2026-07-16T12:29:22.000Z</time>
</trkpt>
<trkpt lat="57.358219" lon="9.692916">
<ele>16.471111</ele>
<time>2026-07-16T12:29:23.000Z</time>
</trkpt>
<trkpt lat="57.358227" lon="9.692946">
<ele>16.475021</ele>
<time>2026-07-16T12:29:24.000Z</time>
</trkpt>
<trkpt lat="57.358238" lon="9.692978">
<ele>16.478569</ele>
<time>2026-07-16T12:29:25.000Z</time>
</trkpt>
<trkpt lat="57.358253" lon="9.693003">
<ele>16.482065</ele>
<time>2026-07-16T12:29:26.000Z</time>
</trkpt>
<trkpt lat="57.358276" lon="9.693026">
<ele>16.486595</ele>
<time>2026-07-16T12:29:27.000Z</time>
</trkpt>
<trkpt lat="57.358303" lon="9.693045">
<ele>16.491601</ele>
<time>2026-07-16T12:29:28.000Z</time>
</trkpt>
<trkpt lat="57.358330" lon="9.693062">
<ele>16.496544</ele>
<time>2026-07-16T12:29:29.000Z</time>
</trkpt>
<trkpt lat="57.358356" lon="9.693079">
<ele>16.501323</ele>
<time>2026-07-16T12:29:30.000Z</time>
</trkpt>
<trkpt lat="57.358383" lon="9.693105">
<ele>16.506597</ele>
<time>2026-07-16T12:29:31.000Z</time>
</trkpt>
<trkpt lat="57.358406" lon="9.693138">
<ele>16.511639</ele>
<time>2026-07-16T12:29:32.000Z</time>
</trkpt>
<trkpt lat="57.358433" lon="9.693173">
<ele>16.517350</ele>
<time>2026-07-16T12:29:33.000Z</time>
</trkpt>
<trkpt lat="57.358452" lon="9.693211">
<ele>16.522194</ele>
<time>2026-07-16T12:29:34.000Z</time>
</trkpt>
<trkpt lat="57.358475" lon="9.693248">
<ele>16.527473</ele>
<time>2026-07-16T12:29:35.000Z</time>
</trkpt>
<trkpt lat="57.358498" lon="9.693281">
<ele>16.532515</ele>
<time>2026-07-16T12:29:36.000Z</time>
</trkpt>
<trkpt lat="57.358521" lon="9.693318">
<ele>16.537793</ele>
<time>2026-07-16T12:29:37.000Z</time>
</trkpt>
<trkpt lat="57.358547" lon="9.693352">
<ele>16.543308</ele>
<time>2026-07-16T12:29:38.000Z</time>
</trkpt>
<trkpt lat="57.358570" lon="9.693386">
<ele>16.548408</ele>
<time>2026-07-16T12:29:39.000Z</time>
</trkpt>
<trkpt lat="57.358597" lon="9.693417">
<ele>16.553913</ele>
<time>2026-07-16T12:29:40.000Z</time>
</trkpt>
<trkpt lat="57.358620" lon="9.693446">
<ele>16.558734</ele>
<time>2026-07-16T12:29:41.000Z</time>
</trkpt>
<trkpt lat="57.358643" lon="9.693476">
<ele>16.563609</ele>
<time>2026-07-16T12:29:42.000Z</time>
</trkpt>
<trkpt lat="57.358662" lon="9.693506">
<ele>16.567935</ele>
<time>2026-07-16T12:29:43.000Z</time>
</trkpt>
<trkpt lat="57.358685" lon="9.693534">
<ele>16.572705</ele>
<time>2026-07-16T12:29:44.000Z</time>
</trkpt>
<trkpt lat="57.358704" lon="9.693554">
<ele>16.576493</ele>
<time>2026-07-16T12:29:45.000Z</time>
</trkpt>
<trkpt lat="57.358723" lon="9.693573">
<ele>16.580235</ele>
<time>2026-07-16T12:29:46.000Z</time>
</trkpt>
<trkpt lat="57.358738" lon="9.693586">
<ele>16.583105</ele>
<time>2026-07-16T12:29:47.000Z</time>
</trkpt>
<trkpt lat="57.358757" lon="9.693596">
<ele>16.586529</ele>
<time>2026-07-16T12:29:48.000Z</time>
</trkpt>
<trkpt lat="57.358780" lon="9.693605">
<ele>16.590603</ele>
<time>2026-07-16T12:29:49.000Z</time>
</trkpt>
<trkpt lat="57.358803" lon="9.693622">
<ele>16.594896</ele>
<time>2026-07-16T12:29:50.000Z</time>
</trkpt>
<trkpt lat="57.358829" lon="9.693638">
<ele>16.599644</ele>
<time>2026-07-16T12:29:51.000Z</time>
</trkpt>
<trkpt lat="57.358852" lon="9.693656">
<ele>16.603972</ele>
<time>2026-07-16T12:29:52.000Z</time>
</trkpt>
<trkpt lat="57.358875" lon="9.693671">
<ele>16.608198</ele>
<time>2026-07-16T12:29:53.000Z</time>
</trkpt>
<trkpt lat="57.358898" lon="9.693688">
<ele>16.612491</ele>
<time>2026-07-16T12:29:54.000Z</time>
</trkpt>
<trkpt lat="57.358921" lon="9.693704">
<ele>16.616749</ele>
<time>2026-07-16T12:29:55.000Z</time>
</trkpt>
<trkpt lat="57.358944" lon="9.693726">
<ele>16.621235</ele>
<time>2026-07-16T12:29:56.000Z</time>
</trkpt>
<trkpt lat="57.358967" lon="9.693747">
<ele>16.625679</ele>
<time>2026-07-16T12:29:57.000Z</time>
</trkpt>
<trkpt lat="57.358990" lon="9.693770">
<ele>16.630209</ele>
<time>2026-07-16T12:29:58.000Z</time>
</trkpt>
<trkpt lat="57.359016" lon="9.693795">
<ele>16.635286</ele>
<time>2026-07-16T12:29:59.000Z</time>
</trkpt>
<trkpt lat="57.359047" lon="9.693822">
<ele>16.641224</ele>
<time>2026-07-16T12:30:00.000Z</time>
</trkpt>
<trkpt lat="57.359077" lon="9.693848">
<ele>16.646964</ele>
<time>2026-07-16T12:30:01.000Z</time>
</trkpt>
<trkpt lat="57.359108" lon="9.693873">
<ele>16.652824</ele>
<time>2026-07-16T12:30:02.000Z</time>
</trkpt>
<trkpt lat="57.359135" lon="9.693900">
<ele>16.658142</ele>
<time>2026-07-16T12:30:03.000Z</time>
</trkpt>
<trkpt lat="57.359165" lon="9.693930">
<ele>16.664051</ele>
<time>2026-07-16T12:30:04.000Z</time>
</trkpt>
<trkpt lat="57.359192" lon="9.693957">
<ele>16.669368</ele>
<time>2026-07-16T12:30:05.000Z</time>
</trkpt>
<trkpt lat="57.359222" lon="9.693982">
<ele>16.675070</ele>
<time>2026-07-16T12:30:06.000Z</time>
</trkpt>
<trkpt lat="57.359253" lon="9.694007">
<ele>16.680930</ele>
<time>2026-07-16T12:30:07.000Z</time>
</trkpt>
<trkpt lat="57.359283" lon="9.694031">
<ele>16.686594</ele>
<time>2026-07-16T12:30:08.000Z</time>
</trkpt>
<trkpt lat="57.359314" lon="9.694052">
<ele>16.692315</ele>
<time>2026-07-16T12:30:09.000Z</time>
</trkpt>
<trkpt lat="57.359344" lon="9.694076">
<ele>16.697979</ele>
<time>2026-07-16T12:30:10.000Z</time>
</trkpt>
<trkpt lat="57.359375" lon="9.694100">
<ele>16.703802</ele>
<time>2026-07-16T12:30:11.000Z</time>
</trkpt>
<trkpt lat="57.359409" lon="9.694125">
<ele>16.710143</ele>
<time>2026-07-16T12:30:12.000Z</time>
</trkpt>
<trkpt lat="57.359436" lon="9.694151">
<ele>16.715417</ele>
<time>2026-07-16T12:30:13.000Z</time>
</trkpt>
<trkpt lat="57.359467" lon="9.694176">
<ele>16.721277</ele>
<time>2026-07-16T12:30:14.000Z</time>
</trkpt>
<trkpt lat="57.359497" lon="9.694201">
<ele>16.726978</ele>
<time>2026-07-16T12:30:15.000Z</time>
</trkpt>
<trkpt lat="57.359528" lon="9.694228">
<ele>16.732916</ele>
<time>2026-07-16T12:30:16.000Z</time>
</trkpt>
<trkpt lat="57.359558" lon="9.694254">
<ele>16.738656</ele>
<time>2026-07-16T12:30:17.000Z</time>
</trkpt>
<trkpt lat="57.359589" lon="9.694277">
<ele>16.744444</ele>
<time>2026-07-16T12:30:18.000Z</time>
</trkpt>
<trkpt lat="57.359619" lon="9.694303">
<ele>16.750185</ele>
<time>2026-07-16T12:30:19.000Z</time>
</trkpt>
<trkpt lat="57.359646" lon="9.694331">
<ele>16.755547</ele>
<time>2026-07-16T12:30:20.000Z</time>
</trkpt>
<trkpt lat="57.359676" lon="9.694361">
<ele>16.761456</ele>
<time>2026-07-16T12:30:21.000Z</time>
</trkpt>
<trkpt lat="57.359707" lon="9.694388">
<ele>16.767393</ele>
<time>2026-07-16T12:30:22.000Z</time>
</trkpt>
<trkpt lat="57.359741" lon="9.694414">
<ele>16.773768</ele>
<time>2026-07-16T12:30:23.000Z</time>
</trkpt>
<trkpt lat="57.359772" lon="9.694443">
<ele>16.779787</ele>
<time>2026-07-16T12:30:24.000Z</time>
</trkpt>
<trkpt lat="57.359802" lon="9.694473">
<ele>16.785628</ele>
<time>2026-07-16T12:30:25.000Z</time>
</trkpt>
<trkpt lat="57.359833" lon="9.694499">
<ele>16.786296</ele>
<time>2026-07-16T12:30:26.000Z</time>
</trkpt>
<trkpt lat="57.359863" lon="9.694526">
<ele>16.786951</ele>
<time>2026-07-16T12:30:27.000Z</time>
</trkpt>
<trkpt lat="57.359894" lon="9.694552">
<ele>16.787620</ele>
<time>2026-07-16T12:30:28.000Z</time>
</trkpt>
<trkpt lat="57.359924" lon="9.694581">
<ele>16.788284</ele>
<time>2026-07-16T12:30:29.000Z</time>
</trkpt>
<trkpt lat="57.359951" lon="9.694610">
<ele>16.788897</ele>
<time>2026-07-16T12:30:30.000Z</time>
</trkpt>
<trkpt lat="57.359982" lon="9.694636">
<ele>16.789565</ele>
<time>2026-07-16T12:30:31.000Z</time>
</trkpt>
<trkpt lat="57.360012" lon="9.694657">
<ele>16.790195</ele>
<time>2026-07-16T12:30:32.000Z</time>
</trkpt>
<trkpt lat="57.360043" lon="9.694677">
<ele>16.790840</ele>
<time>2026-07-16T12:30:33.000Z</time>
</trkpt>
<trkpt lat="57.360073" lon="9.694697">
<ele>16.791466</ele>
<time>2026-07-16T12:30:34.000Z</time>
</trkpt>
<trkpt lat="57.360100" lon="9.694717">
<ele>16.792037</ele>
<time>2026-07-16T12:30:35.000Z</time>
</trkpt>
<trkpt lat="57.360126" lon="9.694737">
<ele>16.792590</ele>
<time>2026-07-16T12:30:36.000Z</time>
</trkpt>
<trkpt lat="57.360153" lon="9.694760">
<ele>16.793174</ele>
<time>2026-07-16T12:30:37.000Z</time>
</trkpt>
<trkpt lat="57.360172" lon="9.694779">
<ele>16.793598</ele>
<time>2026-07-16T12:30:38.000Z</time>
</trkpt>
<trkpt lat="57.360188" lon="9.694792">
<ele>16.793941</ele>
<time>2026-07-16T12:30:39.000Z</time>
</trkpt>
<trkpt lat="57.360195" lon="9.694804">
<ele>16.794128</ele>
<time>2026-07-16T12:30:40.000Z</time>
</trkpt>
<trkpt lat="57.360207" lon="9.694817">
<ele>16.794401</ele>
<time>2026-07-16T12:30:41.000Z</time>
</trkpt>
<trkpt lat="57.360222" lon="9.694836">
<ele>16.794758</ele>
<time>2026-07-16T12:30:42.000Z</time>
</trkpt>
<trkpt lat="57.360245" lon="9.694860">
<ele>16.795276</ele>
<time>2026-07-16T12:30:43.000Z</time>
</trkpt>
<trkpt lat="57.360268" lon="9.694883">
<ele>16.795790</ele>
<time>2026-07-16T12:30:44.000Z</time>
</trkpt>
<trkpt lat="57.360294" lon="9.694907">
<ele>16.796360</ele>
<time>2026-07-16T12:30:45.000Z</time>
</trkpt>
<trkpt lat="57.360321" lon="9.694929">
<ele>16.796939</ele>
<time>2026-07-16T12:30:46.000Z</time>
</trkpt>
<trkpt lat="57.360355" lon="9.694950">
<ele>16.797643</ele>
<time>2026-07-16T12:30:47.000Z</time>
</trkpt>
<trkpt lat="57.360386" lon="9.694969">
<ele>16.798284</ele>
<time>2026-07-16T12:30:48.000Z</time>
</trkpt>
<trkpt lat="57.360416" lon="9.694986">
<ele>16.798901</ele>
<time>2026-07-16T12:30:49.000Z</time>
</trkpt>
<trkpt lat="57.360447" lon="9.695004">
<ele>16.799539</ele>
<time>2026-07-16T12:30:50.000Z</time>
</trkpt>
<trkpt lat="57.360474" lon="9.695027">
<ele>16.800122</ele>
<time>2026-07-16T12:30:51.000Z</time>
</trkpt>
<trkpt lat="57.360500" lon="9.695055">
<ele>16.800713</ele>
<time>2026-07-16T12:30:52.000Z</time>
</trkpt>
<trkpt lat="57.360531" lon="9.695083">
<ele>16.801390</ele>
<time>2026-07-16T12:30:53.000Z</time>
</trkpt>
<trkpt lat="57.360561" lon="9.695111">
<ele>16.802050</ele>
<time>2026-07-16T12:30:54.000Z</time>
</trkpt>
<trkpt lat="57.360592" lon="9.695134">
<ele>16.802706</ele>
<time>2026-07-16T12:30:55.000Z</time>
</trkpt>
<trkpt lat="57.360622" lon="9.695155">
<ele>16.803335</ele>
<time>2026-07-16T12:30:56.000Z</time>
</trkpt>
<trkpt lat="57.360653" lon="9.695179">
<ele>16.803995</ele>
<time>2026-07-16T12:30:57.000Z</time>
</trkpt>
<trkpt lat="57.360680" lon="9.695202">
<ele>16.804579</ele>
<time>2026-07-16T12:30:58.000Z</time>
</trkpt>
<trkpt lat="57.360706" lon="9.695227">
<ele>16.805154</ele>
<time>2026-07-16T12:30:59.000Z</time>
</trkpt>
<trkpt lat="57.360733" lon="9.695247">
<ele>16.805725</ele>
<time>2026-07-16T12:31:00.000Z</time>
</trkpt>
<trkpt lat="57.360764" lon="9.695267">
<ele>16.806370</ele>
<time>2026-07-16T12:31:01.000Z</time>
</trkpt>
<trkpt lat="57.360794" lon="9.695283">
<ele>16.806983</ele>
<time>2026-07-16T12:31:02.000Z</time>
</trkpt>
<trkpt lat="57.360821" lon="9.695300">
<ele>16.807543</ele>
<time>2026-07-16T12:31:03.000Z</time>
</trkpt>
<trkpt lat="57.360851" lon="9.695320">
<ele>16.808169</ele>
<time>2026-07-16T12:31:04.000Z</time>
</trkpt>
<trkpt lat="57.360878" lon="9.695342">
<ele>16.808749</ele>
<time>2026-07-16T12:31:05.000Z</time>
</trkpt>
<trkpt lat="57.360909" lon="9.695364">
<ele>16.809401</ele>
<time>2026-07-16T12:31:06.000Z</time>
</trkpt>
<trkpt lat="57.360935" lon="9.695386">
<ele>16.809962</ele>
<time>2026-07-16T12:31:07.000Z</time>
</trkpt>
<trkpt lat="57.360962" lon="9.695406">
<ele>16.810533</ele>
<time>2026-07-16T12:31:08.000Z</time>
</trkpt>
<trkpt lat="57.360989" lon="9.695423">
<ele>16.811093</ele>
<time>2026-07-16T12:31:09.000Z</time>
</trkpt>
<trkpt lat="57.361019" lon="9.695441">
<ele>16.811712</ele>
<time>2026-07-16T12:31:10.000Z</time>
</trkpt>
<trkpt lat="57.361050" lon="9.695462">
<ele>16.812361</ele>
<time>2026-07-16T12:31:11.000Z</time>
</trkpt>
<trkpt lat="57.361080" lon="9.695481">
<ele>16.812983</ele>
<time>2026-07-16T12:31:12.000Z</time>
</trkpt>
<trkpt lat="57.361114" lon="9.695497">
<ele>16.813672</ele>
<time>2026-07-16T12:31:13.000Z</time>
</trkpt>
<trkpt lat="57.361145" lon="9.695509">
<ele>16.814294</ele>
<time>2026-07-16T12:31:14.000Z</time>
</trkpt>
<trkpt lat="57.361179" lon="9.695519">
<ele>16.814970</ele>
<time>2026-07-16T12:31:15.000Z</time>
</trkpt>
<trkpt lat="57.361217" lon="9.695529">
<ele>16.815724</ele>
<time>2026-07-16T12:31:16.000Z</time>
</trkpt>
<trkpt lat="57.361256" lon="9.695540">
<ele>16.816499</ele>
<time>2026-07-16T12:31:17.000Z</time>
</trkpt>
<trkpt lat="57.361290" lon="9.695553">
<ele>16.817181</ele>
<time>2026-07-16T12:31:18.000Z</time>
</trkpt>
<trkpt lat="57.361320" lon="9.695572">
<ele>16.817804</ele>
<time>2026-07-16T12:31:19.000Z</time>
</trkpt>
<trkpt lat="57.361355" lon="9.695600">
<ele>16.818552</ele>
<time>2026-07-16T12:31:20.000Z</time>
</trkpt>
<trkpt lat="57.361385" lon="9.695629">
<ele>16.819217</ele>
<time>2026-07-16T12:31:21.000Z</time>
</trkpt>
<trkpt lat="57.361412" lon="9.695660">
<ele>16.819841</ele>
<time>2026-07-16T12:31:22.000Z</time>
</trkpt>
<trkpt lat="57.361443" lon="9.695694">
<ele>16.820548</ele>
<time>2026-07-16T12:31:23.000Z</time>
</trkpt>
<trkpt lat="57.361465" lon="9.695729">
<ele>16.823587</ele>
<time>2026-07-16T12:31:24.000Z</time>
</trkpt>
<trkpt lat="57.361488" lon="9.695761">
<ele>16.832350</ele>
<time>2026-07-16T12:31:25.000Z</time>
</trkpt>
<trkpt lat="57.361511" lon="9.695796">
<ele>16.841419</ele>
<time>2026-07-16T12:31:26.000Z</time>
</trkpt>
<trkpt lat="57.361538" lon="9.695829">
<ele>16.851275</ele>
<time>2026-07-16T12:31:27.000Z</time>
</trkpt>
<trkpt lat="57.361565" lon="9.695861">
<ele>16.861041</ele>
<time>2026-07-16T12:31:28.000Z</time>
</trkpt>
<trkpt lat="57.361595" lon="9.695889">
<ele>16.871278</ele>
<time>2026-07-16T12:31:29.000Z</time>
</trkpt>
<trkpt lat="57.361629" lon="9.695914">
<ele>16.882425</ele>
<time>2026-07-16T12:31:30.000Z</time>
</trkpt>
<trkpt lat="57.361660" lon="9.695939">
<ele>16.892728</ele>
<time>2026-07-16T12:31:31.000Z</time>
</trkpt>
<trkpt lat="57.361694" lon="9.695964">
<ele>16.903876</ele>
<time>2026-07-16T12:31:32.000Z</time>
</trkpt>
<trkpt lat="57.361725" lon="9.695991">
<ele>16.914314</ele>
<time>2026-07-16T12:31:33.000Z</time>
</trkpt>
<trkpt lat="57.361759" lon="9.696016">
<ele>16.925462</ele>
<time>2026-07-16T12:31:34.000Z</time>
</trkpt>
<trkpt lat="57.361790" lon="9.696042">
<ele>16.935832</ele>
<time>2026-07-16T12:31:35.000Z</time>
</trkpt>
<trkpt lat="57.361820" lon="9.696063">
<ele>16.945605</ele>
<time>2026-07-16T12:31:36.000Z</time>
</trkpt>
<trkpt lat="57.361855" lon="9.696087">
<ele>16.956978</ele>
<time>2026-07-16T12:31:37.000Z</time>
</trkpt>
<trkpt lat="57.361885" lon="9.696114">
<ele>16.967141</ele>
<time>2026-07-16T12:31:38.000Z</time>
</trkpt>
<trkpt lat="57.361919" lon="9.696141">
<ele>16.978414</ele>
<time>2026-07-16T12:31:39.000Z</time>
</trkpt>
<trkpt lat="57.361954" lon="9.696168">
<ele>16.989968</ele>
<time>2026-07-16T12:31:40.000Z</time>
</trkpt>
<trkpt lat="57.361988" lon="9.696196">
<ele>17.001306</ele>
<time>2026-07-16T12:31:41.000Z</time>
</trkpt>
<trkpt lat="57.362026" lon="9.696222">
<ele>17.013651</ele>
<time>2026-07-16T12:31:42.000Z</time>
</trkpt>
<trkpt lat="57.362064" lon="9.696248">
<ele>17.025996</ele>
<time>2026-07-16T12:31:43.000Z</time>
</trkpt>
<trkpt lat="57.362099" lon="9.696275">
<ele>17.037550</ele>
<time>2026-07-16T12:31:44.000Z</time>
</trkpt>
<trkpt lat="57.362133" lon="9.696302">
<ele>17.048823</ele>
<time>2026-07-16T12:31:45.000Z</time>
</trkpt>
<trkpt lat="57.362171" lon="9.696331">
<ele>17.061347</ele>
<time>2026-07-16T12:31:46.000Z</time>
</trkpt>
<trkpt lat="57.362206" lon="9.696356">
<ele>17.072778</ele>
<time>2026-07-16T12:31:47.000Z</time>
</trkpt>
<trkpt lat="57.362240" lon="9.696377">
<ele>17.083700</ele>
<time>2026-07-16T12:31:48.000Z</time>
</trkpt>
<trkpt lat="57.362278" lon="9.696397">
<ele>17.095739</ele>
<time>2026-07-16T12:31:49.000Z</time>
</trkpt>
<trkpt lat="57.362312" lon="9.696419">
<ele>17.106715</ele>
<time>2026-07-16T12:31:50.000Z</time>
</trkpt>
<trkpt lat="57.362343" lon="9.696438">
<ele>17.116665</ele>
<time>2026-07-16T12:31:51.000Z</time>
</trkpt>
<trkpt lat="57.362377" lon="9.696457">
<ele>17.127488</ele>
<time>2026-07-16T12:31:52.000Z</time>
</trkpt>
<trkpt lat="57.362408" lon="9.696479">
<ele>17.137605</ele>
<time>2026-07-16T12:31:53.000Z</time>
</trkpt>
<trkpt lat="57.362434" lon="9.696501">
<ele>17.146315</ele>
<time>2026-07-16T12:31:54.000Z</time>
</trkpt>
<trkpt lat="57.362461" lon="9.696521">
<ele>17.155176</ele>
<time>2026-07-16T12:31:55.000Z</time>
</trkpt>
<trkpt lat="57.362484" lon="9.696538">
<ele>17.162723</ele>
<time>2026-07-16T12:31:56.000Z</time>
</trkpt>
<trkpt lat="57.362511" lon="9.696550">
<ele>17.171185</ele>
<time>2026-07-16T12:31:57.000Z</time>
</trkpt>
<trkpt lat="57.362537" lon="9.696561">
<ele>17.179312</ele>
<time>2026-07-16T12:31:58.000Z</time>
</trkpt>
<trkpt lat="57.362560" lon="9.696569">
<ele>17.186445</ele>
<time>2026-07-16T12:31:59.000Z</time>
</trkpt>
<trkpt lat="57.362579" lon="9.696575">
<ele>17.192319</ele>
<time>2026-07-16T12:32:00.000Z</time>
</trkpt>
<trkpt lat="57.362602" lon="9.696583">
<ele>17.199451</ele>
<time>2026-07-16T12:32:01.000Z</time>
</trkpt>
<trkpt lat="57.362621" lon="9.696589">
<ele>17.205325</ele>
<time>2026-07-16T12:32:02.000Z</time>
</trkpt>
<trkpt lat="57.362637" lon="9.696597">
<ele>17.210376</ele>
<time>2026-07-16T12:32:03.000Z</time>
</trkpt>
<trkpt lat="57.362652" lon="9.696604">
<ele>17.215090</ele>
<time>2026-07-16T12:32:04.000Z</time>
</trkpt>
<trkpt lat="57.362671" lon="9.696610">
<ele>17.220964</ele>
<time>2026-07-16T12:32:05.000Z</time>
</trkpt>
<trkpt lat="57.362682" lon="9.696618">
<ele>17.224565</ele>
<time>2026-07-16T12:32:06.000Z</time>
</trkpt>
<trkpt lat="57.362698" lon="9.696628">
<ele>17.229711</ele>
<time>2026-07-16T12:32:07.000Z</time>
</trkpt>
<trkpt lat="57.362713" lon="9.696634">
<ele>17.234388</ele>
<time>2026-07-16T12:32:08.000Z</time>
</trkpt>
<trkpt lat="57.362728" lon="9.696645">
<ele>17.239304</ele>
<time>2026-07-16T12:32:09.000Z</time>
</trkpt>
<trkpt lat="57.362747" lon="9.696660">
<ele>17.245598</ele>
<time>2026-07-16T12:32:10.000Z</time>
</trkpt>
<trkpt lat="57.362766" lon="9.696676">
<ele>17.251958</ele>
<time>2026-07-16T12:32:11.000Z</time>
</trkpt>
<trkpt lat="57.362782" lon="9.696693">
<ele>17.257578</ele>
<time>2026-07-16T12:32:12.000Z</time>
</trkpt>
<trkpt lat="57.362801" lon="9.696713">
<ele>17.264237</ele>
<time>2026-07-16T12:32:13.000Z</time>
</trkpt>
<trkpt lat="57.362820" lon="9.696733">
<ele>17.270896</ele>
<time>2026-07-16T12:32:14.000Z</time>
</trkpt>
<trkpt lat="57.362839" lon="9.696753">
<ele>17.277555</ele>
<time>2026-07-16T12:32:15.000Z</time>
</trkpt>
<trkpt lat="57.362850" lon="9.696780">
<ele>17.283117</ele>
<time>2026-07-16T12:32:16.000Z</time>
</trkpt>
<trkpt lat="57.362862" lon="9.696814">
<ele>17.289796</ele>
<time>2026-07-16T12:32:17.000Z</time>
</trkpt>
<trkpt lat="57.362865" lon="9.696849">
<ele>17.295621</ele>
<time>2026-07-16T12:32:18.000Z</time>
</trkpt>
<trkpt lat="57.362869" lon="9.696883">
<ele>17.301341</ele>
<time>2026-07-16T12:32:19.000Z</time>
</trkpt>
<trkpt lat="57.362865" lon="9.696917">
<ele>17.307061</ele>
<time>2026-07-16T12:32:20.000Z</time>
</trkpt>
<trkpt lat="57.362862" lon="9.696942">
<ele>17.311271</ele>
<time>2026-07-16T12:32:21.000Z</time>
</trkpt>
<trkpt lat="57.362896" lon="9.697158">
<ele>17.348256</ele>
<time>2026-07-16T12:32:39.000Z</time>
</trkpt>
<trkpt lat="57.362900" lon="9.697175">
<ele>17.351305</ele>
<time>2026-07-16T12:32:40.000Z</time>
</trkpt>
<trkpt lat="57.362904" lon="9.697197">
<ele>17.355121</ele>
<time>2026-07-16T12:32:41.000Z</time>
</trkpt>
<trkpt lat="57.362911" lon="9.697219">
<ele>17.359319</ele>
<time>2026-07-16T12:32:42.000Z</time>
</trkpt>
<trkpt lat="57.362915" lon="9.697237">
<ele>17.362519</ele>
<time>2026-07-16T12:32:43.000Z</time>
</trkpt>
<trkpt lat="57.362915" lon="9.697261">
<ele>17.366464</ele>
<time>2026-07-16T12:32:44.000Z</time>
</trkpt>
<trkpt lat="57.362919" lon="9.697282">
<ele>17.373355</ele>
<time>2026-07-16T12:32:45.000Z</time>
</trkpt>
<trkpt lat="57.362919" lon="9.697289">
<ele>17.378244</ele>
<time>2026-07-16T12:32:46.000Z</time>
</trkpt>
<trkpt lat="57.362919" lon="9.697291">
<ele>17.379641</ele>
<time>2026-07-16T12:32:47.000Z</time>
</trkpt>
<trkpt lat="57.362919" lon="9.697291">
<ele>17.379641</ele>
<time>2026-07-16T12:32:50.000Z</time>
</trkpt>
<trkpt lat="57.362926" lon="9.697348">
<ele>17.420473</ele>
<time>2026-07-16T12:32:51.000Z</time>
</trkpt>
<trkpt lat="57.362923" lon="9.697386">
<ele>17.447298</ele>
<time>2026-07-16T12:32:52.000Z</time>
</trkpt>
<trkpt lat="57.362919" lon="9.697426">
<ele>17.475713</ele>
<time>2026-07-16T12:32:53.000Z</time>
</trkpt>
<trkpt lat="57.362911" lon="9.697470">
<ele>17.508145</ele>
<time>2026-07-16T12:32:54.000Z</time>
</trkpt>
<trkpt lat="57.362900" lon="9.697517">
<ele>17.543931</ele>
<time>2026-07-16T12:32:55.000Z</time>
</trkpt>
<trkpt lat="57.362892" lon="9.697566">
<ele>17.579690</ele>
<time>2026-07-16T12:32:56.000Z</time>
</trkpt>
<trkpt lat="57.362885" lon="9.697616">
<ele>17.615772</ele>
<time>2026-07-16T12:32:57.000Z</time>
</trkpt>
<trkpt lat="57.362877" lon="9.697665">
<ele>17.651531</ele>
<time>2026-07-16T12:32:58.000Z</time>
</trkpt>
<trkpt lat="57.362862" lon="9.697717">
<ele>17.692720</ele>
<time>2026-07-16T12:32:59.000Z</time>
</trkpt>
<trkpt lat="57.362854" lon="9.697767">
<ele>17.729149</ele>
<time>2026-07-16T12:33:00.000Z</time>
</trkpt>
<trkpt lat="57.362843" lon="9.697822">
<ele>17.770121</ele>
<time>2026-07-16T12:33:01.000Z</time>
</trkpt>
<trkpt lat="57.362831" lon="9.697875">
<ele>17.810270</ele>
<time>2026-07-16T12:33:02.000Z</time>
</trkpt>
<trkpt lat="57.362823" lon="9.697928">
<ele>17.848712</ele>
<time>2026-07-16T12:33:03.000Z</time>
</trkpt>
<trkpt lat="57.362812" lon="9.697984">
<ele>17.890340</ele>
<time>2026-07-16T12:33:04.000Z</time>
</trkpt>
<trkpt lat="57.362804" lon="9.698040">
<ele>17.930804</ele>
<time>2026-07-16T12:33:05.000Z</time>
</trkpt>
<trkpt lat="57.362797" lon="9.698095">
<ele>17.970275</ele>
<time>2026-07-16T12:33:06.000Z</time>
</trkpt>
<trkpt lat="57.362785" lon="9.698149">
<ele>18.011069</ele>
<time>2026-07-16T12:33:07.000Z</time>
</trkpt>
<trkpt lat="57.362778" lon="9.698200">
<ele>18.047827</ele>
<time>2026-07-16T12:33:08.000Z</time>
</trkpt>
<trkpt lat="57.362770" lon="9.698255">
<ele>18.087616</ele>
<time>2026-07-16T12:33:09.000Z</time>
</trkpt>
<trkpt lat="57.362759" lon="9.698309">
<ele>18.127934</ele>
<time>2026-07-16T12:33:10.000Z</time>
</trkpt>
<trkpt lat="57.362755" lon="9.698367">
<ele>18.168776</ele>
<time>2026-07-16T12:33:11.000Z</time>
</trkpt>
<trkpt lat="57.362743" lon="9.698421">
<ele>18.209570</ele>
<time>2026-07-16T12:33:12.000Z</time>
</trkpt>
<trkpt lat="57.362732" lon="9.698479">
<ele>18.252513</ele>
<time>2026-07-16T12:33:13.000Z</time>
</trkpt>
<trkpt lat="57.362724" lon="9.698538">
<ele>18.295006</ele>
<time>2026-07-16T12:33:14.000Z</time>
</trkpt>
<trkpt lat="57.362717" lon="9.698596">
<ele>18.336519</ele>
<time>2026-07-16T12:33:15.000Z</time>
</trkpt>
<trkpt lat="57.362709" lon="9.698653">
<ele>18.377659</ele>
<time>2026-07-16T12:33:16.000Z</time>
</trkpt>
<trkpt lat="57.362705" lon="9.698712">
<ele>18.419193</ele>
<time>2026-07-16T12:33:17.000Z</time>
</trkpt>
<trkpt lat="57.362698" lon="9.698773">
<ele>18.462754</ele>
<time>2026-07-16T12:33:18.000Z</time>
</trkpt>
<trkpt lat="57.362690" lon="9.698830">
<ele>18.503893</ele>
<time>2026-07-16T12:33:19.000Z</time>
</trkpt>
<trkpt lat="57.362682" lon="9.698889">
<ele>18.546386</ele>
<time>2026-07-16T12:33:20.000Z</time>
</trkpt>
<trkpt lat="57.362675" lon="9.698947">
<ele>18.587900</ele>
<time>2026-07-16T12:33:21.000Z</time>
</trkpt>
<trkpt lat="57.362663" lon="9.699005">
<ele>18.631290</ele>
<time>2026-07-16T12:33:22.000Z</time>
</trkpt>
<trkpt lat="57.362656" lon="9.699064">
<ele>18.673486</ele>
<time>2026-07-16T12:33:23.000Z</time>
</trkpt>
<trkpt lat="57.362648" lon="9.699122">
<ele>18.715301</ele>
<time>2026-07-16T12:33:24.000Z</time>
</trkpt>
<trkpt lat="57.362640" lon="9.699185">
<ele>18.760509</ele>
<time>2026-07-16T12:33:25.000Z</time>
</trkpt>
<trkpt lat="57.362633" lon="9.699247">
<ele>18.804753</ele>
<time>2026-07-16T12:33:26.000Z</time>
</trkpt>
<trkpt lat="57.362625" lon="9.699309">
<ele>18.849281</ele>
<time>2026-07-16T12:33:27.000Z</time>
</trkpt>
<trkpt lat="57.362621" lon="9.699370">
<ele>18.892202</ele>
<time>2026-07-16T12:33:28.000Z</time>
</trkpt>
<trkpt lat="57.362614" lon="9.699430">
<ele>18.935080</ele>
<time>2026-07-16T12:33:29.000Z</time>
</trkpt>
<trkpt lat="57.362610" lon="9.699491">
<ele>18.978001</ele>
<time>2026-07-16T12:33:30.000Z</time>
</trkpt>
<trkpt lat="57.362606" lon="9.699553">
<ele>19.021615</ele>
<time>2026-07-16T12:33:31.000Z</time>
</trkpt>
<trkpt lat="57.362598" lon="9.699614">
<ele>19.065464</ele>
<time>2026-07-16T12:33:32.000Z</time>
</trkpt>
<trkpt lat="57.362595" lon="9.699676">
<ele>19.108944</ele>
<time>2026-07-16T12:33:33.000Z</time>
</trkpt>
<trkpt lat="57.362587" lon="9.699733">
<ele>19.150083</ele>
<time>2026-07-16T12:33:34.000Z</time>
</trkpt>
<trkpt lat="57.362579" lon="9.699793">
<ele>19.193254</ele>
<time>2026-07-16T12:33:35.000Z</time>
</trkpt>
<trkpt lat="57.362572" lon="9.699848">
<ele>19.232725</ele>
<time>2026-07-16T12:33:36.000Z</time>
</trkpt>
<trkpt lat="57.362560" lon="9.699898">
<ele>19.270951</ele>
<time>2026-07-16T12:33:37.000Z</time>
</trkpt>
<trkpt lat="57.362556" lon="9.699947">
<ele>19.305567</ele>
<time>2026-07-16T12:33:38.000Z</time>
</trkpt>
<trkpt lat="57.362560" lon="9.699986">
<ele>19.333296</ele>
<time>2026-07-16T12:33:39.000Z</time>
</trkpt>
<trkpt lat="57.362576" lon="9.700005">
<ele>19.357903</ele>
<time>2026-07-16T12:33:40.000Z</time>
</trkpt>
<trkpt lat="57.362591" lon="9.700004">
<ele>19.377342</ele>
<time>2026-07-16T12:33:41.000Z</time>
</trkpt>
<trkpt lat="57.362610" lon="9.699981">
<ele>19.406729</ele>
<time>2026-07-16T12:33:42.000Z</time>
</trkpt>
<trkpt lat="57.362618" lon="9.699938">
<ele>19.438500</ele>
<time>2026-07-16T12:33:43.000Z</time>
</trkpt>
<trkpt lat="57.362625" lon="9.699889">
<ele>19.473906</ele>
<time>2026-07-16T12:33:44.000Z</time>
</trkpt>
<trkpt lat="57.362625" lon="9.699841">
<ele>19.507433</ele>
<time>2026-07-16T12:33:45.000Z</time>
</trkpt>
<trkpt lat="57.362637" lon="9.699790">
<ele>19.546298</ele>
<time>2026-07-16T12:33:46.000Z</time>
</trkpt>
<trkpt lat="57.362644" lon="9.699735">
<ele>19.585770</ele>
<time>2026-07-16T12:33:47.000Z</time>
</trkpt>
<trkpt lat="57.362652" lon="9.699675">
<ele>19.628940</ele>
<time>2026-07-16T12:33:48.000Z</time>
</trkpt>
<trkpt lat="57.362652" lon="9.699611">
<ele>19.673643</ele>
<time>2026-07-16T12:33:49.000Z</time>
</trkpt>
<trkpt lat="57.362656" lon="9.699549">
<ele>19.709757</ele>
<time>2026-07-16T12:33:50.000Z</time>
</trkpt>
<trkpt lat="57.362659" lon="9.699480">
<ele>19.738702</ele>
<time>2026-07-16T12:33:51.000Z</time>
</trkpt>
<trkpt lat="57.362663" lon="9.699412">
<ele>19.767303</ele>
<time>2026-07-16T12:33:52.000Z</time>
</trkpt>
<trkpt lat="57.362671" lon="9.699339">
<ele>19.798451</ele>
<time>2026-07-16T12:33:53.000Z</time>
</trkpt>
<trkpt lat="57.362679" lon="9.699267">
<ele>19.829188</ele>
<time>2026-07-16T12:33:54.000Z</time>
</trkpt>
<trkpt lat="57.362682" lon="9.699197">
<ele>19.858550</ele>
<time>2026-07-16T12:33:55.000Z</time>
</trkpt>
<trkpt lat="57.362690" lon="9.699123">
<ele>19.890107</ele>
<time>2026-07-16T12:33:56.000Z</time>
</trkpt>
<trkpt lat="57.362701" lon="9.699050">
<ele>19.921800</ele>
<time>2026-07-16T12:33:57.000Z</time>
</trkpt>
<trkpt lat="57.362709" lon="9.698982">
<ele>19.950901</ele>
<time>2026-07-16T12:33:58.000Z</time>
</trkpt>
<trkpt lat="57.362721" lon="9.698908">
<ele>19.983212</ele>
<time>2026-07-16T12:33:59.000Z</time>
</trkpt>
<trkpt lat="57.362736" lon="9.698843">
<ele>20.012774</ele>
<time>2026-07-16T12:34:00.000Z</time>
</trkpt>
<trkpt lat="57.362747" lon="9.698787">
<ele>20.037694</ele>
<time>2026-07-16T12:34:01.000Z</time>
</trkpt>
<trkpt lat="57.362755" lon="9.698737">
<ele>20.059501</ele>
<time>2026-07-16T12:34:02.000Z</time>
</trkpt>
<trkpt lat="57.362762" lon="9.698689">
<ele>20.080292</ele>
<time>2026-07-16T12:34:03.000Z</time>
</trkpt>
<trkpt lat="57.362770" lon="9.698651">
<ele>20.097349</ele>
<time>2026-07-16T12:34:04.000Z</time>
</trkpt>
<trkpt lat="57.362770" lon="9.698633">
<ele>20.104875</ele>
<time>2026-07-16T12:35:40.000Z</time>
</trkpt>
<trkpt lat="57.362759" lon="9.698622">
<ele>20.114564</ele>
<time>2026-07-16T12:35:41.000Z</time>
</trkpt>
<trkpt lat="57.362743" lon="9.698634">
<ele>20.127946</ele>
<time>2026-07-16T12:35:42.000Z</time>
</trkpt>
<trkpt lat="57.362732" lon="9.698656">
<ele>20.140490</ele>
<time>2026-07-16T12:35:43.000Z</time>
</trkpt>
<trkpt lat="57.362724" lon="9.698689">
<ele>20.155618</ele>
<time>2026-07-16T12:35:44.000Z</time>
</trkpt>
<trkpt lat="57.362717" lon="9.698726">
<ele>20.172013</ele>
<time>2026-07-16T12:35:45.000Z</time>
</trkpt>
<trkpt lat="57.362709" lon="9.698770">
<ele>20.191428</ele>
<time>2026-07-16T12:35:46.000Z</time>
</trkpt>
<trkpt lat="57.362705" lon="9.698823">
<ele>20.213805</ele>
<time>2026-07-16T12:35:47.000Z</time>
</trkpt>
<trkpt lat="57.362698" lon="9.698886">
<ele>20.240700</ele>
<time>2026-07-16T12:35:48.000Z</time>
</trkpt>
<trkpt lat="57.362682" lon="9.698951">
<ele>20.270576</ele>
<time>2026-07-16T12:35:49.000Z</time>
</trkpt>
<trkpt lat="57.362667" lon="9.699014">
<ele>20.299371</ele>
<time>2026-07-16T12:35:50.000Z</time>
</trkpt>
<trkpt lat="57.362652" lon="9.699078">
<ele>20.328549</ele>
<time>2026-07-16T12:35:51.000Z</time>
</trkpt>
<trkpt lat="57.362640" lon="9.699144">
<ele>20.357672</ele>
<time>2026-07-16T12:35:52.000Z</time>
</trkpt>
<trkpt lat="57.362633" lon="9.699219">
<ele>20.389498</ele>
<time>2026-07-16T12:35:53.000Z</time>
</trkpt>
<trkpt lat="57.362621" lon="9.699296">
<ele>20.423012</ele>
<time>2026-07-16T12:35:54.000Z</time>
</trkpt>
<trkpt lat="57.362610" lon="9.699374">
<ele>20.456723</ele>
<time>2026-07-16T12:35:55.000Z</time>
</trkpt>
<trkpt lat="57.362602" lon="9.699450">
<ele>20.489100</ele>
<time>2026-07-16T12:35:56.000Z</time>
</trkpt>
<trkpt lat="57.362595" lon="9.699525">
<ele>20.520926</ele>
<time>2026-07-16T12:35:57.000Z</time>
</trkpt>
<trkpt lat="57.362587" lon="9.699600">
<ele>20.552894</ele>
<time>2026-07-16T12:35:58.000Z</time>
</trkpt>
<trkpt lat="57.362576" lon="9.699678">
<ele>20.586605</ele>
<time>2026-07-16T12:35:59.000Z</time>
</trkpt>
<trkpt lat="57.362568" lon="9.699755">
<ele>20.619393</ele>
<time>2026-07-16T12:36:00.000Z</time>
</trkpt>
<trkpt lat="57.362560" lon="9.699836">
<ele>20.653825</ele>
<time>2026-07-16T12:36:01.000Z</time>
</trkpt>
<trkpt lat="57.362556" lon="9.699920">
<ele>20.689085</ele>
<time>2026-07-16T12:36:02.000Z</time>
</trkpt>
<trkpt lat="57.362553" lon="9.700001">
<ele>20.723034</ele>
<time>2026-07-16T12:36:03.000Z</time>
</trkpt>
<trkpt lat="57.362549" lon="9.700085">
<ele>20.758293</ele>
<time>2026-07-16T12:36:04.000Z</time>
</trkpt>
<trkpt lat="57.362545" lon="9.700167">
<ele>20.792720</ele>
<time>2026-07-16T12:36:05.000Z</time>
</trkpt>
<trkpt lat="57.362537" lon="9.700251">
<ele>20.828387</ele>
<time>2026-07-16T12:36:06.000Z</time>
</trkpt>
<trkpt lat="57.362530" lon="9.700335">
<ele>20.863927</ele>
<time>2026-07-16T12:36:07.000Z</time>
</trkpt>
<trkpt lat="57.362518" lon="9.700419">
<ele>20.900261</ele>
<time>2026-07-16T12:36:08.000Z</time>
</trkpt>
<trkpt lat="57.362515" lon="9.700504">
<ele>20.935879</ele>
<time>2026-07-16T12:36:09.000Z</time>
</trkpt>
<trkpt lat="57.362511" lon="9.700588">
<ele>20.971139</ele>
<time>2026-07-16T12:36:10.000Z</time>
</trkpt>
<trkpt lat="57.362507" lon="9.700674">
<ele>21.007232</ele>
<time>2026-07-16T12:36:11.000Z</time>
</trkpt>
<trkpt lat="57.362511" lon="9.700759">
<ele>21.042908</ele>
<time>2026-07-16T12:36:12.000Z</time>
</trkpt>
<trkpt lat="57.362507" lon="9.700840">
<ele>21.076919</ele>
<time>2026-07-16T12:36:13.000Z</time>
</trkpt>
<trkpt lat="57.362507" lon="9.700924">
<ele>21.093388</ele>
<time>2026-07-16T12:36:14.000Z</time>
</trkpt>
<trkpt lat="57.362503" lon="9.701011">
<ele>21.094037</ele>
<time>2026-07-16T12:36:15.000Z</time>
</trkpt>
<trkpt lat="57.362503" lon="9.701097">
<ele>21.094676</ele>
<time>2026-07-16T12:36:16.000Z</time>
</trkpt>
<trkpt lat="57.362503" lon="9.701188">
<ele>21.095352</ele>
<time>2026-07-16T12:36:17.000Z</time>
</trkpt>
<trkpt lat="57.362503" lon="9.701278">
<ele>21.096021</ele>
<time>2026-07-16T12:36:18.000Z</time>
</trkpt>
<trkpt lat="57.362507" lon="9.701365">
<ele>21.096670</ele>
<time>2026-07-16T12:36:19.000Z</time>
</trkpt>
<trkpt lat="57.362507" lon="9.701448">
<ele>21.097286</ele>
<time>2026-07-16T12:36:20.000Z</time>
</trkpt>
<trkpt lat="57.362507" lon="9.701532">
<ele>21.097910</ele>
<time>2026-07-16T12:36:21.000Z</time>
</trkpt>
<trkpt lat="57.362507" lon="9.701612">
<ele>21.098505</ele>
<time>2026-07-16T12:36:22.000Z</time>
</trkpt>
<trkpt lat="57.362507" lon="9.701699">
<ele>21.099151</ele>
<time>2026-07-16T12:36:23.000Z</time>
</trkpt>
<trkpt lat="57.362511" lon="9.701784">
<ele>21.099785</ele>
<time>2026-07-16T12:36:24.000Z</time>
</trkpt>
<trkpt lat="57.362515" lon="9.701875">
<ele>21.100464</ele>
<time>2026-07-16T12:36:25.000Z</time>
</trkpt>
<trkpt lat="57.362518" lon="9.701962">
<ele>21.101111</ele>
<time>2026-07-16T12:36:26.000Z</time>
</trkpt>
<trkpt lat="57.362518" lon="9.702047">
<ele>21.101743</ele>
<time>2026-07-16T12:36:27.000Z</time>
</trkpt>
<trkpt lat="57.362526" lon="9.702140">
<ele>21.102443</ele>
<time>2026-07-16T12:36:28.000Z</time>
</trkpt>
<trkpt lat="57.362534" lon="9.702227">
<ele>21.103099</ele>
<time>2026-07-16T12:36:29.000Z</time>
</trkpt>
<trkpt lat="57.362534" lon="9.702318">
<ele>21.103775</ele>
<time>2026-07-16T12:36:30.000Z</time>
</trkpt>
<trkpt lat="57.362534" lon="9.702414">
<ele>21.104488</ele>
<time>2026-07-16T12:36:31.000Z</time>
</trkpt>
<trkpt lat="57.362537" lon="9.702516">
<ele>21.105247</ele>
<time>2026-07-16T12:36:32.000Z</time>
</trkpt>
<trkpt lat="57.362541" lon="9.702616">
<ele>21.105992</ele>
<time>2026-07-16T12:36:33.000Z</time>
</trkpt>
<trkpt lat="57.362541" lon="9.702720">
<ele>21.106765</ele>
<time>2026-07-16T12:36:34.000Z</time>
</trkpt>
<trkpt lat="57.362545" lon="9.702823">
<ele>21.107532</ele>
<time>2026-07-16T12:36:35.000Z</time>
</trkpt>
<trkpt lat="57.362545" lon="9.702928">
<ele>21.108312</ele>
<time>2026-07-16T12:36:36.000Z</time>
</trkpt>
<trkpt lat="57.362545" lon="9.703034">
<ele>21.109100</ele>
<time>2026-07-16T12:36:37.000Z</time>
</trkpt>
<trkpt lat="57.362549" lon="9.703137">
<ele>21.109867</ele>
<time>2026-07-16T12:36:38.000Z</time>
</trkpt>
<trkpt lat="57.362549" lon="9.703239">
<ele>21.110625</ele>
<time>2026-07-16T12:36:39.000Z</time>
</trkpt>
<trkpt lat="57.362549" lon="9.703343">
<ele>21.111398</ele>
<time>2026-07-16T12:36:40.000Z</time>
</trkpt>
<trkpt lat="57.362553" lon="9.703444">
<ele>21.112150</ele>
<time>2026-07-16T12:36:41.000Z</time>
</trkpt>
<trkpt lat="57.362556" lon="9.703549">
<ele>21.112932</ele>
<time>2026-07-16T12:36:42.000Z</time>
</trkpt>
<trkpt lat="57.362556" lon="9.703656">
<ele>21.113727</ele>
<time>2026-07-16T12:36:43.000Z</time>
</trkpt>
<trkpt lat="57.362560" lon="9.703761">
<ele>21.114509</ele>
<time>2026-07-16T12:36:44.000Z</time>
</trkpt>
<trkpt lat="57.362564" lon="9.703864">
<ele>21.115276</ele>
<time>2026-07-16T12:36:45.000Z</time>
</trkpt>
<trkpt lat="57.362568" lon="9.703964">
<ele>21.116021</ele>
<time>2026-07-16T12:36:46.000Z</time>
</trkpt>
<trkpt lat="57.362572" lon="9.704062">
<ele>21.116751</ele>
<time>2026-07-16T12:36:47.000Z</time>
</trkpt>
<trkpt lat="57.362579" lon="9.704164">
<ele>21.117515</ele>
<time>2026-07-16T12:36:48.000Z</time>
</trkpt>
<trkpt lat="57.362583" lon="9.704264">
<ele>21.134255</ele>
<time>2026-07-16T12:36:49.000Z</time>
</trkpt>
<trkpt lat="57.362583" lon="9.704364">
<ele>21.162656</ele>
<time>2026-07-16T12:36:50.000Z</time>
</trkpt>
<trkpt lat="57.362583" lon="9.704464">
<ele>21.191057</ele>
<time>2026-07-16T12:36:51.000Z</time>
</trkpt>
<trkpt lat="57.362583" lon="9.704564">
<ele>21.219457</ele>
<time>2026-07-16T12:36:52.000Z</time>
</trkpt>
<trkpt lat="57.362583" lon="9.704663">
<ele>21.247574</ele>
<time>2026-07-16T12:36:53.000Z</time>
</trkpt>
<trkpt lat="57.362587" lon="9.704762">
<ele>21.275769</ele>
<time>2026-07-16T12:36:54.000Z</time>
</trkpt>
<trkpt lat="57.362587" lon="9.704861">
<ele>21.303886</ele>
<time>2026-07-16T12:36:55.000Z</time>
</trkpt>
<trkpt lat="57.362591" lon="9.704958">
<ele>21.331514</ele>
<time>2026-07-16T12:36:56.000Z</time>
</trkpt>
<trkpt lat="57.362591" lon="9.705057">
<ele>21.359631</ele>
<time>2026-07-16T12:36:57.000Z</time>
</trkpt>
<trkpt lat="57.362591" lon="9.705156">
<ele>21.387748</ele>
<time>2026-07-16T12:36:58.000Z</time>
</trkpt>
<trkpt lat="57.362595" lon="9.705255">
<ele>21.415943</ele>
<time>2026-07-16T12:36:59.000Z</time>
</trkpt>
<trkpt lat="57.362598" lon="9.705353">
<ele>21.443820</ele>
<time>2026-07-16T12:37:00.000Z</time>
</trkpt>
<trkpt lat="57.362598" lon="9.705450">
<ele>21.471369</ele>
<time>2026-07-16T12:37:01.000Z</time>
</trkpt>
<trkpt lat="57.362602" lon="9.705547">
<ele>21.498998</ele>
<time>2026-07-16T12:37:02.000Z</time>
</trkpt>
<trkpt lat="57.362606" lon="9.705645">
<ele>21.526910</ele>
<time>2026-07-16T12:37:03.000Z</time>
</trkpt>
<trkpt lat="57.362610" lon="9.705742">
<ele>21.554539</ele>
<time>2026-07-16T12:37:04.000Z</time>
</trkpt>
<trkpt lat="57.362610" lon="9.705840">
<ele>21.582371</ele>
<time>2026-07-16T12:37:05.000Z</time>
</trkpt>
<trkpt lat="57.362610" lon="9.705938">
<ele>21.610204</ele>
<time>2026-07-16T12:37:06.000Z</time>
</trkpt>
<trkpt lat="57.362614" lon="9.706036">
<ele>21.638116</ele>
<time>2026-07-16T12:37:07.000Z</time>
</trkpt>
<trkpt lat="57.362618" lon="9.706136">
<ele>21.666595</ele>
<time>2026-07-16T12:37:08.000Z</time>
</trkpt>
<trkpt lat="57.362621" lon="9.706236">
<ele>21.695039</ele>
<time>2026-07-16T12:37:09.000Z</time>
</trkpt>
<trkpt lat="57.362625" lon="9.706335">
<ele>21.723234</ele>
<time>2026-07-16T12:37:10.000Z</time>
</trkpt>
<trkpt lat="57.362625" lon="9.706432">
<ele>21.750783</ele>
<time>2026-07-16T12:37:11.000Z</time>
</trkpt>
<trkpt lat="57.362629" lon="9.706525">
<ele>21.777279</ele>
<time>2026-07-16T12:37:12.000Z</time>
</trkpt>
<trkpt lat="57.362629" lon="9.706617">
<ele>21.803408</ele>
<time>2026-07-16T12:37:13.000Z</time>
</trkpt>
<trkpt lat="57.362629" lon="9.706708">
<ele>21.829252</ele>
<time>2026-07-16T12:37:14.000Z</time>
</trkpt>
<trkpt lat="57.362629" lon="9.706797">
<ele>21.854529</ele>
<time>2026-07-16T12:37:15.000Z</time>
</trkpt>
<trkpt lat="57.362633" lon="9.706882">
<ele>21.878761</ele>
<time>2026-07-16T12:37:16.000Z</time>
</trkpt>
<trkpt lat="57.362637" lon="9.706964">
<ele>21.902144</ele>
<time>2026-07-16T12:37:17.000Z</time>
</trkpt>
<trkpt lat="57.362637" lon="9.707047">
<ele>21.925717</ele>
<time>2026-07-16T12:37:18.000Z</time>
</trkpt>
<trkpt lat="57.362637" lon="9.707134">
<ele>21.950425</ele>
<time>2026-07-16T12:37:19.000Z</time>
</trkpt>
<trkpt lat="57.362637" lon="9.707220">
<ele>21.974850</ele>
<time>2026-07-16T12:37:20.000Z</time>
</trkpt>
<trkpt lat="57.362637" lon="9.707306">
<ele>21.999274</ele>
<time>2026-07-16T12:37:21.000Z</time>
</trkpt>
<trkpt lat="57.362637" lon="9.707386">
<ele>22.021994</ele>
<time>2026-07-16T12:37:22.000Z</time>
</trkpt>
<trkpt lat="57.362633" lon="9.707465">
<ele>22.044530</ele>
<time>2026-07-16T12:37:23.000Z</time>
</trkpt>
<trkpt lat="57.362633" lon="9.707545">
<ele>22.064909</ele>
<time>2026-07-16T12:37:24.000Z</time>
</trkpt>
<trkpt lat="57.362633" lon="9.707622">
<ele>22.064081</ele>
<time>2026-07-16T12:37:25.000Z</time>
</trkpt>
<trkpt lat="57.362637" lon="9.707687">
<ele>22.063378</ele>
<time>2026-07-16T12:37:26.000Z</time>
</trkpt>
<trkpt lat="57.362644" lon="9.707751">
<ele>22.062676</ele>
<time>2026-07-16T12:37:27.000Z</time>
</trkpt>
<trkpt lat="57.362652" lon="9.707807">
<ele>22.062053</ele>
<time>2026-07-16T12:37:28.000Z</time>
</trkpt>
<trkpt lat="57.362659" lon="9.707870">
<ele>22.061362</ele>
<time>2026-07-16T12:37:29.000Z</time>
</trkpt>
<trkpt lat="57.362667" lon="9.707925">
<ele>22.060750</ele>
<time>2026-07-16T12:37:30.000Z</time>
</trkpt>
<trkpt lat="57.362679" lon="9.707976">
<ele>22.060152</ele>
<time>2026-07-16T12:37:31.000Z</time>
</trkpt>
<trkpt lat="57.362686" lon="9.708034">
<ele>22.059513</ele>
<time>2026-07-16T12:37:32.000Z</time>
</trkpt>
<trkpt lat="57.362690" lon="9.708097">
<ele>22.058831</ele>
<time>2026-07-16T12:37:33.000Z</time>
</trkpt>
<trkpt lat="57.362690" lon="9.708165">
<ele>22.058100</ele>
<time>2026-07-16T12:37:34.000Z</time>
</trkpt>
<trkpt lat="57.362690" lon="9.708237">
<ele>22.057327</ele>
<time>2026-07-16T12:37:35.000Z</time>
</trkpt>
<trkpt lat="57.362690" lon="9.708310">
<ele>22.056542</ele>
<time>2026-07-16T12:37:36.000Z</time>
</trkpt>
<trkpt lat="57.362690" lon="9.708378">
<ele>22.055811</ele>
<time>2026-07-16T12:37:37.000Z</time>
</trkpt>
<trkpt lat="57.362698" lon="9.708437">
<ele>22.055157</ele>
<time>2026-07-16T12:37:38.000Z</time>
</trkpt>
<trkpt lat="57.362705" lon="9.708490">
<ele>22.054571</ele>
<time>2026-07-16T12:37:39.000Z</time>
</trkpt>
<trkpt lat="57.362717" lon="9.708541">
<ele>22.053973</ele>
<time>2026-07-16T12:37:40.000Z</time>
</trkpt>
<trkpt lat="57.362736" lon="9.708590">
<ele>22.053324</ele>
<time>2026-07-16T12:37:41.000Z</time>
</trkpt>
<trkpt lat="57.362759" lon="9.708620">
<ele>22.052764</ele>
<time>2026-07-16T12:37:42.000Z</time>
</trkpt>
<trkpt lat="57.362789" lon="9.708649">
<ele>22.052090</ele>
<time>2026-07-16T12:37:43.000Z</time>
</trkpt>
<trkpt lat="57.362820" lon="9.708668">
<ele>22.051439</ele>
<time>2026-07-16T12:37:44.000Z</time>
</trkpt>
<trkpt lat="57.362854" lon="9.708684">
<ele>22.050740</ele>
<time>2026-07-16T12:37:45.000Z</time>
</trkpt>
<trkpt lat="57.362885" lon="9.708703">
<ele>22.050089</ele>
<time>2026-07-16T12:37:46.000Z</time>
</trkpt>
<trkpt lat="57.362919" lon="9.708721">
<ele>22.049385</ele>
<time>2026-07-16T12:37:47.000Z</time>
</trkpt>
<trkpt lat="57.362949" lon="9.708734">
<ele>22.048771</ele>
<time>2026-07-16T12:37:48.000Z</time>
</trkpt>
<trkpt lat="57.362984" lon="9.708748">
<ele>22.048057</ele>
<time>2026-07-16T12:37:49.000Z</time>
</trkpt>
<trkpt lat="57.363018" lon="9.708763">
<ele>22.047361</ele>
<time>2026-07-16T12:37:50.000Z</time>
</trkpt>
<trkpt lat="57.363052" lon="9.708779">
<ele>22.046662</ele>
<time>2026-07-16T12:37:51.000Z</time>
</trkpt>
<trkpt lat="57.363083" lon="9.708793">
<ele>22.046026</ele>
<time>2026-07-16T12:37:52.000Z</time>
</trkpt>
<trkpt lat="57.363113" lon="9.708806">
<ele>22.045412</ele>
<time>2026-07-16T12:37:53.000Z</time>
</trkpt>
<trkpt lat="57.363144" lon="9.708818">
<ele>22.044781</ele>
<time>2026-07-16T12:37:54.000Z</time>
</trkpt>
<trkpt lat="57.363174" lon="9.708829">
<ele>22.044171</ele>
<time>2026-07-16T12:37:55.000Z</time>
</trkpt>
<trkpt lat="57.363205" lon="9.708839">
<ele>22.043544</ele>
<time>2026-07-16T12:37:56.000Z</time>
</trkpt>
<trkpt lat="57.363232" lon="9.708849">
<ele>22.042996</ele>
<time>2026-07-16T12:37:57.000Z</time>
</trkpt>
<trkpt lat="57.363255" lon="9.708859">
<ele>22.042525</ele>
<time>2026-07-16T12:37:58.000Z</time>
</trkpt>
<trkpt lat="57.363285" lon="9.708868">
<ele>22.041919</ele>
<time>2026-07-16T12:37:59.000Z</time>
</trkpt>
<trkpt lat="57.363312" lon="9.708879">
<ele>22.041368</ele>
<time>2026-07-16T12:38:00.000Z</time>
</trkpt>
<trkpt lat="57.363335" lon="9.708891">
<ele>22.040892</ele>
<time>2026-07-16T12:38:01.000Z</time>
</trkpt>
<trkpt lat="57.363361" lon="9.708903">
<ele>22.040358</ele>
<time>2026-07-16T12:38:02.000Z</time>
</trkpt>
<trkpt lat="57.363384" lon="9.708918">
<ele>22.039872</ele>
<time>2026-07-16T12:38:03.000Z</time>
</trkpt>
<trkpt lat="57.363407" lon="9.708929">
<ele>22.039399</ele>
<time>2026-07-16T12:38:04.000Z</time>
</trkpt>
<trkpt lat="57.363430" lon="9.708940">
<ele>22.038926</ele>
<time>2026-07-16T12:38:05.000Z</time>
</trkpt>
<trkpt lat="57.363445" lon="9.708951">
<ele>22.038604</ele>
<time>2026-07-16T12:38:06.000Z</time>
</trkpt>
<trkpt lat="57.363457" lon="9.708957">
<ele>22.038357</ele>
<time>2026-07-16T12:39:31.000Z</time>
</trkpt>
<trkpt lat="57.363476" lon="9.708954">
<ele>22.037977</ele>
<time>2026-07-16T12:39:32.000Z</time>
</trkpt>
<trkpt lat="57.363502" lon="9.708961">
<ele>22.037453</ele>
<time>2026-07-16T12:39:33.000Z</time>
</trkpt>
<trkpt lat="57.363522" lon="9.708973">
<ele>22.037034</ele>
<time>2026-07-16T12:39:34.000Z</time>
</trkpt>
<trkpt lat="57.363556" lon="9.708989">
<ele>22.036335</ele>
<time>2026-07-16T12:39:35.000Z</time>
</trkpt>
<trkpt lat="57.363590" lon="9.709002">
<ele>22.035643</ele>
<time>2026-07-16T12:39:36.000Z</time>
</trkpt>
<trkpt lat="57.363621" lon="9.709015">
<ele>22.035010</ele>
<time>2026-07-16T12:39:37.000Z</time>
</trkpt>
<trkpt lat="57.363655" lon="9.709028">
<ele>22.034318</ele>
<time>2026-07-16T12:39:38.000Z</time>
</trkpt>
<trkpt lat="57.363686" lon="9.709041">
<ele>22.033685</ele>
<time>2026-07-16T12:39:39.000Z</time>
</trkpt>
<trkpt lat="57.363716" lon="9.709047">
<ele>22.033083</ele>
<time>2026-07-16T12:39:40.000Z</time>
</trkpt>
<trkpt lat="57.363747" lon="9.709054">
<ele>22.032461</ele>
<time>2026-07-16T12:39:41.000Z</time>
</trkpt>
<trkpt lat="57.363781" lon="9.709059">
<ele>22.031781</ele>
<time>2026-07-16T12:39:42.000Z</time>
</trkpt>
<trkpt lat="57.363812" lon="9.709064">
<ele>22.031161</ele>
<time>2026-07-16T12:39:43.000Z</time>
</trkpt>
<trkpt lat="57.363850" lon="9.709066">
<ele>22.030404</ele>
<time>2026-07-16T12:39:44.000Z</time>
</trkpt>
<trkpt lat="57.363888" lon="9.709074">
<ele>22.029642</ele>
<time>2026-07-16T12:39:45.000Z</time>
</trkpt>
<trkpt lat="57.363926" lon="9.709086">
<ele>22.025161</ele>
<time>2026-07-16T12:39:46.000Z</time>
</trkpt>
<trkpt lat="57.363964" lon="9.709098">
<ele>22.014098</ele>
<time>2026-07-16T12:39:47.000Z</time>
</trkpt>
<trkpt lat="57.364002" lon="9.709113">
<ele>22.002947</ele>
<time>2026-07-16T12:39:48.000Z</time>
</trkpt>
<trkpt lat="57.364040" lon="9.709125">
<ele>21.991884</ele>
<time>2026-07-16T12:39:49.000Z</time>
</trkpt>
<trkpt lat="57.364078" lon="9.709138">
<ele>21.980794</ele>
<time>2026-07-16T12:39:50.000Z</time>
</trkpt>
<trkpt lat="57.364117" lon="9.709151">
<ele>21.969421</ele>
<time>2026-07-16T12:39:51.000Z</time>
</trkpt>
<trkpt lat="57.364159" lon="9.709165">
<ele>21.957174</ele>
<time>2026-07-16T12:39:52.000Z</time>
</trkpt>
<trkpt lat="57.364204" lon="9.709178">
<ele>21.944103</ele>
<time>2026-07-16T12:39:53.000Z</time>
</trkpt>
<trkpt lat="57.364246" lon="9.709193">
<ele>21.931827</ele>
<time>2026-07-16T12:39:54.000Z</time>
</trkpt>
<trkpt lat="57.364285" lon="9.709208">
<ele>21.920396</ele>
<time>2026-07-16T12:39:55.000Z</time>
</trkpt>
<trkpt lat="57.364323" lon="9.709223">
<ele>21.909245</ele>
<time>2026-07-16T12:39:56.000Z</time>
</trkpt>
<trkpt lat="57.364368" lon="9.709236">
<ele>21.896174</ele>
<time>2026-07-16T12:39:57.000Z</time>
</trkpt>
<trkpt lat="57.364410" lon="9.709252">
<ele>21.883868</ele>
<time>2026-07-16T12:39:58.000Z</time>
</trkpt>
<trkpt lat="57.364456" lon="9.709275">
<ele>21.870194</ele>
<time>2026-07-16T12:39:59.000Z</time>
</trkpt>
<trkpt lat="57.364502" lon="9.709298">
<ele>21.856521</ele>
<time>2026-07-16T12:40:00.000Z</time>
</trkpt>
<trkpt lat="57.364552" lon="9.709324">
<ele>21.841617</ele>
<time>2026-07-16T12:40:01.000Z</time>
</trkpt>
<trkpt lat="57.364597" lon="9.709352">
<ele>21.827994</ele>
<time>2026-07-16T12:40:02.000Z</time>
</trkpt>
<trkpt lat="57.364643" lon="9.709379">
<ele>21.814146</ele>
<time>2026-07-16T12:40:03.000Z</time>
</trkpt>
<trkpt lat="57.364685" lon="9.709399">
<ele>21.801701</ele>
<time>2026-07-16T12:40:04.000Z</time>
</trkpt>
<trkpt lat="57.364742" lon="9.709424">
<ele>21.784890</ele>
<time>2026-07-16T12:40:05.000Z</time>
</trkpt>
<trkpt lat="57.364796" lon="9.709441">
<ele>21.769170</ele>
<time>2026-07-16T12:40:06.000Z</time>
</trkpt>
<trkpt lat="57.364845" lon="9.709458">
<ele>21.754863</ele>
<time>2026-07-16T12:40:07.000Z</time>
</trkpt>
<trkpt lat="57.364899" lon="9.709480">
<ele>21.738995</ele>
<time>2026-07-16T12:40:08.000Z</time>
</trkpt>
<trkpt lat="57.364948" lon="9.709499">
<ele>21.724627</ele>
<time>2026-07-16T12:40:09.000Z</time>
</trkpt>
<trkpt lat="57.365006" lon="9.709518">
<ele>21.707723</ele>
<time>2026-07-16T12:40:10.000Z</time>
</trkpt>
<trkpt lat="57.365059" lon="9.709533">
<ele>21.692336</ele>
<time>2026-07-16T12:40:11.000Z</time>
</trkpt>
<trkpt lat="57.365108" lon="9.709543">
<ele>21.678188</ele>
<time>2026-07-16T12:40:12.000Z</time>
</trkpt>
<trkpt lat="57.365162" lon="9.709557">
<ele>21.662539</ele>
<time>2026-07-16T12:40:13.000Z</time>
</trkpt>
<trkpt lat="57.365215" lon="9.709570">
<ele>21.647195</ele>
<time>2026-07-16T12:40:14.000Z</time>
</trkpt>
<trkpt lat="57.365269" lon="9.709586">
<ele>21.631500</ele>
<time>2026-07-16T12:40:15.000Z</time>
</trkpt>
<trkpt lat="57.365318" lon="9.709602">
<ele>21.617221</ele>
<time>2026-07-16T12:40:16.000Z</time>
</trkpt>
<trkpt lat="57.365372" lon="9.709623">
<ele>21.601385</ele>
<time>2026-07-16T12:40:17.000Z</time>
</trkpt>
<trkpt lat="57.365421" lon="9.709643">
<ele>21.586985</ele>
<time>2026-07-16T12:40:18.000Z</time>
</trkpt>
<trkpt lat="57.365475" lon="9.709658">
<ele>21.571314</ele>
<time>2026-07-16T12:40:19.000Z</time>
</trkpt>
<trkpt lat="57.365528" lon="9.709671">
<ele>21.555970</ele>
<time>2026-07-16T12:40:20.000Z</time>
</trkpt>
<trkpt lat="57.365582" lon="9.709688">
<ele>21.540250</ele>
<time>2026-07-16T12:40:21.000Z</time>
</trkpt>
<trkpt lat="57.365631" lon="9.709709">
<ele>21.525816</ele>
<time>2026-07-16T12:40:22.000Z</time>
</trkpt>
<trkpt lat="57.365681" lon="9.709732">
<ele>21.516610</ele>
<time>2026-07-16T12:40:23.000Z</time>
</trkpt>
<trkpt lat="57.365730" lon="9.709756">
<ele>21.544773</ele>
<time>2026-07-16T12:40:24.000Z</time>
</trkpt>
<trkpt lat="57.365780" lon="9.709777">
<ele>21.573261</ele>
<time>2026-07-16T12:40:25.000Z</time>
</trkpt>
<trkpt lat="57.365829" lon="9.709796">
<ele>21.601078</ele>
<time>2026-07-16T12:40:26.000Z</time>
</trkpt>
<trkpt lat="57.365875" lon="9.709815">
<ele>21.627266</ele>
<time>2026-07-16T12:40:27.000Z</time>
</trkpt>
<trkpt lat="57.365921" lon="9.709834">
<ele>21.653453</ele>
<time>2026-07-16T12:40:28.000Z</time>
</trkpt>
<trkpt lat="57.365967" lon="9.709853">
<ele>21.679641</ele>
<time>2026-07-16T12:40:29.000Z</time>
</trkpt>
<trkpt lat="57.366013" lon="9.709868">
<ele>21.705595</ele>
<time>2026-07-16T12:40:30.000Z</time>
</trkpt>
<trkpt lat="57.366058" lon="9.709882">
<ele>21.730950</ele>
<time>2026-07-16T12:40:31.000Z</time>
</trkpt>
<trkpt lat="57.366108" lon="9.709899">
<ele>21.759197</ele>
<time>2026-07-16T12:40:32.000Z</time>
</trkpt>
<trkpt lat="57.366158" lon="9.709917">
<ele>21.787500</ele>
<time>2026-07-16T12:40:33.000Z</time>
</trkpt>
<trkpt lat="57.366203" lon="9.709939">
<ele>21.813360</ele>
<time>2026-07-16T12:40:34.000Z</time>
</trkpt>
<trkpt lat="57.366249" lon="9.709961">
<ele>21.839758</ele>
<time>2026-07-16T12:40:35.000Z</time>
</trkpt>
<trkpt lat="57.366302" lon="9.709985">
<ele>21.870075</ele>
<time>2026-07-16T12:40:36.000Z</time>
</trkpt>
<trkpt lat="57.366356" lon="9.710011">
<ele>21.901076</ele>
<time>2026-07-16T12:40:37.000Z</time>
</trkpt>
<trkpt lat="57.366402" lon="9.710032">
<ele>21.927401</ele>
<time>2026-07-16T12:40:38.000Z</time>
</trkpt>
<trkpt lat="57.366451" lon="9.710053">
<ele>21.955347</ele>
<time>2026-07-16T12:40:39.000Z</time>
</trkpt>
<trkpt lat="57.366497" lon="9.710075">
<ele>21.981745</ele>
<time>2026-07-16T12:40:40.000Z</time>
</trkpt>
<trkpt lat="57.366547" lon="9.710102">
<ele>22.010683</ele>
<time>2026-07-16T12:40:41.000Z</time>
</trkpt>
<trkpt lat="57.366592" lon="9.710128">
<ele>22.036874</ele>
<time>2026-07-16T12:40:42.000Z</time>
</trkpt>
<trkpt lat="57.366638" lon="9.710151">
<ele>22.063349</ele>
<time>2026-07-16T12:40:43.000Z</time>
</trkpt>
<trkpt lat="57.366684" lon="9.710174">
<ele>22.089823</ele>
<time>2026-07-16T12:40:44.000Z</time>
</trkpt>
<trkpt lat="57.366734" lon="9.710199">
<ele>22.118599</ele>
<time>2026-07-16T12:40:45.000Z</time>
</trkpt>
<trkpt lat="57.366779" lon="9.710220">
<ele>22.144384</ele>
<time>2026-07-16T12:40:46.000Z</time>
</trkpt>
<trkpt lat="57.366829" lon="9.710238">
<ele>22.172687</ele>
<time>2026-07-16T12:40:47.000Z</time>
</trkpt>
<trkpt lat="57.366871" lon="9.710253">
<ele>22.196455</ele>
<time>2026-07-16T12:40:48.000Z</time>
</trkpt>
<trkpt lat="57.366913" lon="9.710269">
<ele>22.220281</ele>
<time>2026-07-16T12:40:49.000Z</time>
</trkpt>
<trkpt lat="57.366955" lon="9.710285">
<ele>22.244107</ele>
<time>2026-07-16T12:40:50.000Z</time>
</trkpt>
<trkpt lat="57.366997" lon="9.710299">
<ele>22.267819</ele>
<time>2026-07-16T12:40:51.000Z</time>
</trkpt>
<trkpt lat="57.367035" lon="9.710307">
<ele>22.289071</ele>
<time>2026-07-16T12:40:52.000Z</time>
</trkpt>
<trkpt lat="57.367069" lon="9.710317">
<ele>22.308200</ele>
<time>2026-07-16T12:40:53.000Z</time>
</trkpt>
<trkpt lat="57.367100" lon="9.710327">
<ele>22.325685</ele>
<time>2026-07-16T12:40:54.000Z</time>
</trkpt>
<trkpt lat="57.367138" lon="9.710340">
<ele>22.347157</ele>
<time>2026-07-16T12:40:55.000Z</time>
</trkpt>
<trkpt lat="57.367168" lon="9.710351">
<ele>22.364151</ele>
<time>2026-07-16T12:40:56.000Z</time>
</trkpt>
<trkpt lat="57.367203" lon="9.710364">
<ele>22.383986</ele>
<time>2026-07-16T12:40:57.000Z</time>
</trkpt>
<trkpt lat="57.367233" lon="9.710378">
<ele>22.401176</ele>
<time>2026-07-16T12:40:58.000Z</time>
</trkpt>
<trkpt lat="57.367264" lon="9.710393">
<ele>22.418979</ele>
<time>2026-07-16T12:40:59.000Z</time>
</trkpt>
<trkpt lat="57.367291" lon="9.710406">
<ele>22.434480</ele>
<time>2026-07-16T12:41:00.000Z</time>
</trkpt>
<trkpt lat="57.367317" lon="9.710418">
<ele>22.449368</ele>
<time>2026-07-16T12:41:01.000Z</time>
</trkpt>
<trkpt lat="57.367336" lon="9.710431">
<ele>22.460622</ele>
<time>2026-07-16T12:41:02.000Z</time>
</trkpt>
<trkpt lat="57.367355" lon="9.710443">
<ele>22.471775</ele>
<time>2026-07-16T12:41:03.000Z</time>
</trkpt>
<trkpt lat="57.367371" lon="9.710453">
<ele>22.481158</ele>
<time>2026-07-16T12:41:04.000Z</time>
</trkpt>
<trkpt lat="57.367378" lon="9.710458">
<ele>22.485326</ele>
<time>2026-07-16T12:41:05.000Z</time>
</trkpt>
<trkpt lat="57.367455" lon="9.710464">
<ele>22.496630</ele>
<time>2026-07-16T12:41:13.000Z</time>
</trkpt>
<trkpt lat="57.367489" lon="9.710474">
<ele>22.477467</ele>
<time>2026-07-16T12:41:14.000Z</time>
</trkpt>
<trkpt lat="57.367519" lon="9.710484">
<ele>22.460500</ele>
<time>2026-07-16T12:41:15.000Z</time>
</trkpt>
<trkpt lat="57.367546" lon="9.710497">
<ele>22.444972</ele>
<time>2026-07-16T12:41:16.000Z</time>
</trkpt>
<trkpt lat="57.367580" lon="9.710511">
<ele>22.425584</ele>
<time>2026-07-16T12:41:17.000Z</time>
</trkpt>
<trkpt lat="57.367611" lon="9.710523">
<ele>22.407956</ele>
<time>2026-07-16T12:41:18.000Z</time>
</trkpt>
<trkpt lat="57.367645" lon="9.710535">
<ele>22.388689</ele>
<time>2026-07-16T12:41:19.000Z</time>
</trkpt>
<trkpt lat="57.367687" lon="9.710552">
<ele>22.364759</ele>
<time>2026-07-16T12:41:20.000Z</time>
</trkpt>
<trkpt lat="57.367722" lon="9.710569">
<ele>22.344619</ele>
<time>2026-07-16T12:41:21.000Z</time>
</trkpt>
<trkpt lat="57.367760" lon="9.710583">
<ele>22.323052</ele>
<time>2026-07-16T12:41:22.000Z</time>
</trkpt>
<trkpt lat="57.367794" lon="9.710595">
<ele>22.303786</ele>
<time>2026-07-16T12:41:23.000Z</time>
</trkpt>
<trkpt lat="57.367832" lon="9.710604">
<ele>22.282461</ele>
<time>2026-07-16T12:41:24.000Z</time>
</trkpt>
<trkpt lat="57.367863" lon="9.710612">
<ele>22.265038</ele>
<time>2026-07-16T12:41:25.000Z</time>
</trkpt>
<trkpt lat="57.367893" lon="9.710621">
<ele>22.248121</ele>
<time>2026-07-16T12:41:26.000Z</time>
</trkpt>
<trkpt lat="57.367924" lon="9.710629">
<ele>22.230698</ele>
<time>2026-07-16T12:41:27.000Z</time>
</trkpt>
<trkpt lat="57.367950" lon="9.710641">
<ele>22.215783</ele>
<time>2026-07-16T12:41:28.000Z</time>
</trkpt>
<trkpt lat="57.367977" lon="9.710654">
<ele>22.200255</ele>
<time>2026-07-16T12:41:29.000Z</time>
</trkpt>
<trkpt lat="57.368004" lon="9.710670">
<ele>22.184476</ele>
<time>2026-07-16T12:41:30.000Z</time>
</trkpt>
<trkpt lat="57.368027" lon="9.710686">
<ele>22.170802</ele>
<time>2026-07-16T12:41:31.000Z</time>
</trkpt>
<trkpt lat="57.368053" lon="9.710717">
<ele>22.153595</ele>
<time>2026-07-16T12:41:32.000Z</time>
</trkpt>
<trkpt lat="57.368076" lon="9.710751">
<ele>22.137222</ele>
<time>2026-07-16T12:41:33.000Z</time>
</trkpt>
<trkpt lat="57.368092" lon="9.710798">
<ele>22.120537</ele>
<time>2026-07-16T12:41:34.000Z</time>
</trkpt>
<trkpt lat="57.368103" lon="9.710848">
<ele>22.104328</ele>
<time>2026-07-16T12:41:35.000Z</time>
</trkpt>
<trkpt lat="57.368103" lon="9.710898">
<ele>22.089319</ele>
<time>2026-07-16T12:41:36.000Z</time>
</trkpt>
<trkpt lat="57.368099" lon="9.710955">
<ele>22.072065</ele>
<time>2026-07-16T12:41:37.000Z</time>
</trkpt>
<trkpt lat="57.368099" lon="9.711011">
<ele>22.055255</ele>
<time>2026-07-16T12:41:38.000Z</time>
</trkpt>
<trkpt lat="57.368092" lon="9.711064">
<ele>22.038875</ele>
<time>2026-07-16T12:41:39.000Z</time>
</trkpt>
<trkpt lat="57.368092" lon="9.711111">
<ele>22.024767</ele>
<time>2026-07-16T12:41:40.000Z</time>
</trkpt>
<trkpt lat="57.368095" lon="9.711158">
<ele>22.010560</ele>
<time>2026-07-16T12:41:41.000Z</time>
</trkpt>
<trkpt lat="57.368095" lon="9.711205">
<ele>21.996452</ele>
<time>2026-07-16T12:41:42.000Z</time>
</trkpt>
<trkpt lat="57.368099" lon="9.711251">
<ele>21.982466</ele>
<time>2026-07-16T12:41:43.000Z</time>
</trkpt>
<trkpt lat="57.368107" lon="9.711304">
<ele>21.965945</ele>
<time>2026-07-16T12:41:44.000Z</time>
</trkpt>
<trkpt lat="57.368118" lon="9.711362">
<ele>21.947489</ele>
<time>2026-07-16T12:41:45.000Z</time>
</trkpt>
<trkpt lat="57.368134" lon="9.711411">
<ele>21.930294</ele>
<time>2026-07-16T12:41:46.000Z</time>
</trkpt>
<trkpt lat="57.368153" lon="9.711460">
<ele>21.912178</ele>
<time>2026-07-16T12:41:47.000Z</time>
</trkpt>
<trkpt lat="57.368179" lon="9.711502">
<ele>21.892984</ele>
<time>2026-07-16T12:41:48.000Z</time>
</trkpt>
<trkpt lat="57.368210" lon="9.711535">
<ele>21.873086</ele>
<time>2026-07-16T12:41:49.000Z</time>
</trkpt>
<trkpt lat="57.368244" lon="9.711563">
<ele>21.852377</ele>
<time>2026-07-16T12:41:50.000Z</time>
</trkpt>
<trkpt lat="57.368271" lon="9.711588">
<ele>21.835578</ele>
<time>2026-07-16T12:41:51.000Z</time>
</trkpt>
<trkpt lat="57.368301" lon="9.711623">
<ele>21.815848</ele>
<time>2026-07-16T12:41:52.000Z</time>
</trkpt>
<trkpt lat="57.368332" lon="9.711661">
<ele>21.795162</ele>
<time>2026-07-16T12:41:53.000Z</time>
</trkpt>
<trkpt lat="57.368362" lon="9.711696">
<ele>21.775433</ele>
<time>2026-07-16T12:41:54.000Z</time>
</trkpt>
<trkpt lat="57.368385" lon="9.711724">
<ele>21.760117</ele>
<time>2026-07-16T12:41:55.000Z</time>
</trkpt>
<trkpt lat="57.368408" lon="9.711753">
<ele>21.744635</ele>
<time>2026-07-16T12:41:56.000Z</time>
</trkpt>
<trkpt lat="57.368427" lon="9.711776">
<ele>21.732004</ele>
<time>2026-07-16T12:41:57.000Z</time>
</trkpt>
<trkpt lat="57.368446" lon="9.711796">
<ele>21.719843</ele>
<time>2026-07-16T12:41:58.000Z</time>
</trkpt>
<trkpt lat="57.368462" lon="9.711817">
<ele>21.708931</ele>
<time>2026-07-16T12:41:59.000Z</time>
</trkpt>
<trkpt lat="57.368473" lon="9.711838">
<ele>21.700143</ele>
<time>2026-07-16T12:42:00.000Z</time>
</trkpt>
<trkpt lat="57.368492" lon="9.711865">
<ele>21.686818</ele>
<time>2026-07-16T12:42:01.000Z</time>
</trkpt>
<trkpt lat="57.368526" lon="9.711899">
<ele>21.665315</ele>
<time>2026-07-16T12:42:02.000Z</time>
</trkpt>
<trkpt lat="57.368568" lon="9.711932">
<ele>21.639924</ele>
<time>2026-07-16T12:42:03.000Z</time>
</trkpt>
<trkpt lat="57.368595" lon="9.711963">
<ele>21.622246</ele>
<time>2026-07-16T12:42:04.000Z</time>
</trkpt>
<trkpt lat="57.368599" lon="9.711979">
<ele>21.616953</ele>
<time>2026-07-16T12:42:05.000Z</time>
</trkpt>
<trkpt lat="57.368622" lon="9.711990">
<ele>21.603730</ele>
<time>2026-07-16T12:42:06.000Z</time>
</trkpt>
<trkpt lat="57.368637" lon="9.712008">
<ele>21.593785</ele>
<time>2026-07-16T12:42:07.000Z</time>
</trkpt>
<trkpt lat="57.368652" lon="9.712029">
<ele>21.583323</ele>
<time>2026-07-16T12:42:08.000Z</time>
</trkpt>
<trkpt lat="57.368664" lon="9.712054">
<ele>21.573276</ele>
<time>2026-07-16T12:42:09.000Z</time>
</trkpt>
<trkpt lat="57.368679" lon="9.712083">
<ele>21.561214</ele>
<time>2026-07-16T12:42:10.000Z</time>
</trkpt>
<trkpt lat="57.368694" lon="9.712106">
<ele>21.550379</ele>
<time>2026-07-16T12:42:11.000Z</time>
</trkpt>
<trkpt lat="57.368713" lon="9.712132">
<ele>21.537235</ele>
<time>2026-07-16T12:42:12.000Z</time>
</trkpt>
<trkpt lat="57.368725" lon="9.712155">
<ele>21.527628</ele>
<time>2026-07-16T12:42:13.000Z</time>
</trkpt>
<trkpt lat="57.368725" lon="9.712162">
<ele>21.525527</ele>
<time>2026-07-16T12:42:14.000Z</time>
</trkpt>
<trkpt lat="57.368721" lon="9.712165">
<ele>21.523125</ele>
<time>2026-07-16T12:42:15.000Z</time>
</trkpt>
<trkpt lat="57.368725" lon="9.712165">
<ele>21.520899</ele>
<time>2026-07-16T12:42:16.000Z</time>
</trkpt>
<trkpt lat="57.368721" lon="9.712168">
<ele>21.518497</ele>
<time>2026-07-16T12:42:17.000Z</time>
</trkpt>
<trkpt lat="57.368717" lon="9.712167">
<ele>21.516250</ele>
<time>2026-07-16T12:42:18.000Z</time>
</trkpt>
<trkpt lat="57.368717" lon="9.712164">
<ele>21.515350</ele>
<time>2026-07-16T12:42:19.000Z</time>
</trkpt>
<trkpt lat="57.368744" lon="9.712194">
<ele>21.305201</ele>
<time>2026-07-16T12:42:26.000Z</time>
</trkpt>
<trkpt lat="57.368752" lon="9.712213">
<ele>21.193460</ele>
<time>2026-07-16T12:42:27.000Z</time>
</trkpt>
<trkpt lat="57.368767" lon="9.712228">
<ele>21.046964</ele>
<time>2026-07-16T12:42:28.000Z</time>
</trkpt>
<trkpt lat="57.368774" lon="9.712243">
<ele>20.955010</ele>
<time>2026-07-16T12:42:29.000Z</time>
</trkpt>
<trkpt lat="57.368790" lon="9.712260">
<ele>20.796495</ele>
<time>2026-07-16T12:42:30.000Z</time>
</trkpt>
<trkpt lat="57.368801" lon="9.712277">
<ele>20.673405</ele>
<time>2026-07-16T12:42:31.000Z</time>
</trkpt>
<trkpt lat="57.368809" lon="9.712297">
<ele>20.557976</ele>
<time>2026-07-16T12:42:32.000Z</time>
</trkpt>
<trkpt lat="57.368816" lon="9.712315">
<ele>20.455104</ele>
<time>2026-07-16T12:42:33.000Z</time>
</trkpt>
<trkpt lat="57.368820" lon="9.712330">
<ele>20.377536</ele>
<time>2026-07-16T12:42:34.000Z</time>
</trkpt>
<trkpt lat="57.368824" lon="9.712341">
<ele>20.316036</ele>
<time>2026-07-16T12:42:35.000Z</time>
</trkpt>
<trkpt lat="57.368820" lon="9.712353">
<ele>20.250642</ele>
<time>2026-07-16T12:42:36.000Z</time>
</trkpt>
<trkpt lat="57.368824" lon="9.712363">
<ele>20.192927</ele>
<time>2026-07-16T12:42:37.000Z</time>
</trkpt>
<trkpt lat="57.368828" lon="9.712377">
<ele>20.119485</ele>
<time>2026-07-16T12:42:38.000Z</time>
</trkpt>
<trkpt lat="57.368832" lon="9.712388">
<ele>20.057985</ele>
<time>2026-07-16T12:42:39.000Z</time>
</trkpt>
<trkpt lat="57.368839" lon="9.712399">
<ele>19.979113</ele>
<time>2026-07-16T12:42:40.000Z</time>
</trkpt>
<trkpt lat="57.368847" lon="9.712410">
<ele>19.893502</ele>
<time>2026-07-16T12:42:41.000Z</time>
</trkpt>
<trkpt lat="57.368858" lon="9.712423">
<ele>19.781374</ele>
<time>2026-07-16T12:42:42.000Z</time>
</trkpt>
<trkpt lat="57.368870" lon="9.712441">
<ele>19.648699</ele>
<time>2026-07-16T12:42:43.000Z</time>
</trkpt>
<trkpt lat="57.368877" lon="9.712459">
<ele>19.545828</ele>
<time>2026-07-16T12:42:44.000Z</time>
</trkpt>
<trkpt lat="57.368881" lon="9.712479">
<ele>19.446949</ele>
<time>2026-07-16T12:42:45.000Z</time>
</trkpt>
<trkpt lat="57.368885" lon="9.712495">
<ele>19.365200</ele>
<time>2026-07-16T12:42:46.000Z</time>
</trkpt>
<trkpt lat="57.368889" lon="9.712506">
<ele>19.303700</ele>
<time>2026-07-16T12:42:47.000Z</time>
</trkpt>
<trkpt lat="57.368893" lon="9.712518">
<ele>19.238306</ele>
<time>2026-07-16T12:42:48.000Z</time>
</trkpt>
<trkpt lat="57.368893" lon="9.712533">
<ele>19.168776</ele>
<time>2026-07-16T12:42:49.000Z</time>
</trkpt>
<trkpt lat="57.368896" lon="9.712550">
<ele>19.085862</ele>
<time>2026-07-16T12:42:50.000Z</time>
</trkpt>
<trkpt lat="57.368896" lon="9.712565">
<ele>19.016332</ele>
<time>2026-07-16T12:42:51.000Z</time>
</trkpt>
<trkpt lat="57.368900" lon="9.712582">
<ele>18.930355</ele>
<time>2026-07-16T12:42:52.000Z</time>
</trkpt>
<trkpt lat="57.368904" lon="9.712597">
<ele>18.852787</ele>
<time>2026-07-16T12:42:53.000Z</time>
</trkpt>
<trkpt lat="57.368912" lon="9.712607">
<ele>18.769853</ele>
<time>2026-07-16T12:42:54.000Z</time>
</trkpt>
<trkpt lat="57.368912" lon="9.712617">
<ele>18.723500</ele>
<time>2026-07-16T12:42:55.000Z</time>
</trkpt>
<trkpt lat="57.368912" lon="9.712627">
<ele>18.677146</ele>
<time>2026-07-16T12:42:56.000Z</time>
</trkpt>
<trkpt lat="57.368912" lon="9.712630">
<ele>18.663240</ele>
<time>2026-07-16T12:42:57.000Z</time>
</trkpt>
<trkpt lat="57.368908" lon="9.712636">
<ele>18.619015</ele>
<time>2026-07-16T12:42:58.000Z</time>
</trkpt>
<trkpt lat="57.368904" lon="9.712638">
<ele>18.583402</ele>
<time>2026-07-16T12:42:59.000Z</time>
</trkpt>
<trkpt lat="57.369817" lon="9.715259">
<ele>5.495513</ele>
<time>2026-07-16T13:30:25.000Z</time>
</trkpt>
<trkpt lat="57.369824" lon="9.715268">
<ele>5.474493</ele>
<time>2026-07-16T13:30:26.000Z</time>
</trkpt>
<trkpt lat="57.369836" lon="9.715287">
<ele>5.435555</ele>
<time>2026-07-16T13:30:27.000Z</time>
</trkpt>
<trkpt lat="57.369845" lon="9.715299">
<ele>5.408201</ele>
<time>2026-07-16T13:30:28.000Z</time>
</trkpt>
<trkpt lat="57.369857" lon="9.715312">
<ele>5.373905</ele>
<time>2026-07-16T13:30:29.000Z</time>
</trkpt>
<trkpt lat="57.369867" lon="9.715323">
<ele>5.345213</ele>
<time>2026-07-16T13:30:30.000Z</time>
</trkpt>
<trkpt lat="57.369873" lon="9.715329">
<ele>5.328391</ele>
<time>2026-07-16T13:30:31.000Z</time>
</trkpt>
<trkpt lat="57.369878" lon="9.715337">
<ele>5.312094</ele>
<time>2026-07-16T13:30:32.000Z</time>
</trkpt>
<trkpt lat="57.369883" lon="9.715352">
<ele>5.288628</ele>
<time>2026-07-16T13:30:33.000Z</time>
</trkpt>
<trkpt lat="57.369890" lon="9.715361">
<ele>5.267609</ele>
<time>2026-07-16T13:30:34.000Z</time>
</trkpt>
<trkpt lat="57.369897" lon="9.715368">
<ele>5.247983</ele>
<time>2026-07-16T13:30:35.000Z</time>
</trkpt>
<trkpt lat="57.369902" lon="9.715374">
<ele>5.233286</ele>
<time>2026-07-16T13:30:36.000Z</time>
</trkpt>
<trkpt lat="57.369920" lon="9.715395">
<ele>5.180808</ele>
<time>2026-07-16T13:30:37.000Z</time>
</trkpt>
<trkpt lat="57.369926" lon="9.715406">
<ele>5.159987</ele>
<time>2026-07-16T13:30:38.000Z</time>
</trkpt>
<trkpt lat="57.369932" lon="9.715417">
<ele>5.139167</ele>
<time>2026-07-16T13:30:39.000Z</time>
</trkpt>
<trkpt lat="57.369946" lon="9.715436">
<ele>5.096355</ele>
<time>2026-07-16T13:30:40.000Z</time>
</trkpt>
<trkpt lat="57.369954" lon="9.715445">
<ele>5.073265</ele>
<time>2026-07-16T13:30:41.000Z</time>
</trkpt>
<trkpt lat="57.369961" lon="9.715451">
<ele>5.054234</ele>
<time>2026-07-16T13:30:42.000Z</time>
</trkpt>
<trkpt lat="57.369977" lon="9.715475">
<ele>5.003451</ele>
<time>2026-07-16T13:30:43.000Z</time>
</trkpt>
<trkpt lat="57.369984" lon="9.715485">
<ele>4.981646</ele>
<time>2026-07-16T13:30:44.000Z</time>
</trkpt>
<trkpt lat="57.369991" lon="9.715493">
<ele>4.961355</ele>
<time>2026-07-16T13:30:45.000Z</time>
</trkpt>
<trkpt lat="57.370003" lon="9.715514">
<ele>4.920639</ele>
<time>2026-07-16T13:30:46.000Z</time>
</trkpt>
<trkpt lat="57.370012" lon="9.715531">
<ele>4.888937</ele>
<time>2026-07-16T13:30:47.000Z</time>
</trkpt>
<trkpt lat="57.370020" lon="9.715545">
<ele>4.861793</ele>
<time>2026-07-16T13:30:48.000Z</time>
</trkpt>
<trkpt lat="57.370030" lon="9.715559">
<ele>4.830873</ele>
<time>2026-07-16T13:30:49.000Z</time>
</trkpt>
<trkpt lat="57.370038" lon="9.715572">
<ele>4.804624</ele>
<time>2026-07-16T13:30:50.000Z</time>
</trkpt>
<trkpt lat="57.370046" lon="9.715585">
<ele>4.778376</ele>
<time>2026-07-16T13:30:51.000Z</time>
</trkpt>
<trkpt lat="57.370054" lon="9.715595">
<ele>4.754568</ele>
<time>2026-07-16T13:30:52.000Z</time>
</trkpt>
<trkpt lat="57.370061" lon="9.715607">
<ele>4.731044</ele>
<time>2026-07-16T13:30:53.000Z</time>
</trkpt>
<trkpt lat="57.370069" lon="9.715620">
<ele>4.704795</ele>
<time>2026-07-16T13:30:54.000Z</time>
</trkpt>
<trkpt lat="57.370077" lon="9.715634">
<ele>4.677651</ele>
<time>2026-07-16T13:30:55.000Z</time>
</trkpt>
<trkpt lat="57.370084" lon="9.715647">
<ele>4.653204</ele>
<time>2026-07-16T13:30:56.000Z</time>
</trkpt>
<trkpt lat="57.370092" lon="9.715661">
<ele>4.626060</ele>
<time>2026-07-16T13:30:57.000Z</time>
</trkpt>
<trkpt lat="57.370097" lon="9.715676">
<ele>4.602594</ele>
<time>2026-07-16T13:30:58.000Z</time>
</trkpt>
<trkpt lat="57.370103" lon="9.715688">
<ele>4.580818</ele>
<time>2026-07-16T13:30:59.000Z</time>
</trkpt>
<trkpt lat="57.370111" lon="9.715701">
<ele>4.554569</ele>
<time>2026-07-16T13:31:00.000Z</time>
</trkpt>
<trkpt lat="57.370119" lon="9.715715">
<ele>4.527425</ele>
<time>2026-07-16T13:31:01.000Z</time>
</trkpt>
<trkpt lat="57.370126" lon="9.715727">
<ele>4.503901</ele>
<time>2026-07-16T13:31:02.000Z</time>
</trkpt>
<trkpt lat="57.370136" lon="9.715739">
<ele>4.474508</ele>
<time>2026-07-16T13:31:03.000Z</time>
</trkpt>
<trkpt lat="57.370145" lon="9.715750">
<ele>4.447908</ele>
<time>2026-07-16T13:31:04.000Z</time>
</trkpt>
<trkpt lat="57.370150" lon="9.715760">
<ele>4.429761</ele>
<time>2026-07-16T13:31:05.000Z</time>
</trkpt>
<trkpt lat="57.370157" lon="9.715764">
<ele>4.411685</ele>
<time>2026-07-16T13:31:06.000Z</time>
</trkpt>
<trkpt lat="57.370164" lon="9.715765">
<ele>4.394360</ele>
<time>2026-07-16T13:31:07.000Z</time>
</trkpt>
<trkpt lat="57.370167" lon="9.715767">
<ele>4.386493</ele>
<time>2026-07-16T13:31:08.000Z</time>
</trkpt>
<trkpt lat="57.370167" lon="9.715771">
<ele>4.381170</ele>
<time>2026-07-16T13:31:09.000Z</time>
</trkpt>
<trkpt lat="57.370167" lon="9.715772">
<ele>4.379839</ele>
<time>2026-07-16T13:31:10.000Z</time>
</trkpt>
<trkpt lat="57.370198" lon="9.715788">
<ele>4.300431</ele>
<time>2026-07-16T13:32:00.000Z</time>
</trkpt>
<trkpt lat="57.370204" lon="9.715782">
<ele>4.283609</ele>
<time>2026-07-16T13:32:01.000Z</time>
</trkpt>
<trkpt lat="57.370210" lon="9.715776">
<ele>4.266787</ele>
<time>2026-07-16T13:32:02.000Z</time>
</trkpt>
<trkpt lat="57.370218" lon="9.715769">
<ele>4.244958</ele>
<time>2026-07-16T13:32:03.000Z</time>
</trkpt>
<trkpt lat="57.370228" lon="9.715768">
<ele>4.220244</ele>
<time>2026-07-16T13:32:04.000Z</time>
</trkpt>
<trkpt lat="57.370237" lon="9.715769">
<ele>4.197994</ele>
<time>2026-07-16T13:32:05.000Z</time>
</trkpt>
<trkpt lat="57.370247" lon="9.715776">
<ele>4.171617</ele>
<time>2026-07-16T13:32:06.000Z</time>
</trkpt>
<trkpt lat="57.370259" lon="9.715790">
<ele>4.136631</ele>
<time>2026-07-16T13:32:07.000Z</time>
</trkpt>
<trkpt lat="57.370273" lon="9.715809">
<ele>4.093820</ele>
<time>2026-07-16T13:32:08.000Z</time>
</trkpt>
<trkpt lat="57.370291" lon="9.715834">
<ele>4.038324</ele>
<time>2026-07-16T13:32:09.000Z</time>
</trkpt>
<trkpt lat="57.370308" lon="9.715866">
<ele>3.978549</ele>
<time>2026-07-16T13:32:10.000Z</time>
</trkpt>
<trkpt lat="57.370329" lon="9.715901">
<ele>3.908873</ele>
<time>2026-07-16T13:32:11.000Z</time>
</trkpt>
<trkpt lat="57.370349" lon="9.715938">
<ele>3.839160</ele>
<time>2026-07-16T13:32:12.000Z</time>
</trkpt>
<trkpt lat="57.370370" lon="9.715976">
<ele>3.766755</ele>
<time>2026-07-16T13:32:13.000Z</time>
</trkpt>
<trkpt lat="57.370393" lon="9.716019">
<ele>3.686161</ele>
<time>2026-07-16T13:32:14.000Z</time>
</trkpt>
<trkpt lat="57.370416" lon="9.716061">
<ele>3.606506</ele>
<time>2026-07-16T13:32:15.000Z</time>
</trkpt>
<trkpt lat="57.370439" lon="9.716105">
<ele>3.524961</ele>
<time>2026-07-16T13:32:16.000Z</time>
</trkpt>
<trkpt lat="57.370459" lon="9.716148">
<ele>3.449398</ele>
<time>2026-07-16T13:32:17.000Z</time>
</trkpt>
<trkpt lat="57.370481" lon="9.716189">
<ele>3.372431</ele>
<time>2026-07-16T13:32:18.000Z</time>
</trkpt>
<trkpt lat="57.370504" lon="9.716232">
<ele>3.291837</ele>
<time>2026-07-16T13:32:19.000Z</time>
</trkpt>
<trkpt lat="57.370527" lon="9.716275">
<ele>3.211243</ele>
<time>2026-07-16T13:32:20.000Z</time>
</trkpt>
<trkpt lat="57.370550" lon="9.716318">
<ele>3.130649</ele>
<time>2026-07-16T13:32:21.000Z</time>
</trkpt>
<trkpt lat="57.370572" lon="9.716362">
<ele>3.050803</ele>
<time>2026-07-16T13:32:22.000Z</time>
</trkpt>
<trkpt lat="57.370595" lon="9.716410">
<ele>2.965357</ele>
<time>2026-07-16T13:32:23.000Z</time>
</trkpt>
<trkpt lat="57.370619" lon="9.716459">
<ele>2.877272</ele>
<time>2026-07-16T13:32:24.000Z</time>
</trkpt>
<trkpt lat="57.370644" lon="9.716508">
<ele>2.787509</ele>
<time>2026-07-16T13:32:25.000Z</time>
</trkpt>
<trkpt lat="57.370668" lon="9.716555">
<ele>2.701375</ele>
<time>2026-07-16T13:32:26.000Z</time>
</trkpt>
<trkpt lat="57.370691" lon="9.716598">
<ele>2.620781</ele>
<time>2026-07-16T13:32:27.000Z</time>
</trkpt>
<trkpt lat="57.370714" lon="9.716641">
<ele>2.540187</ele>
<time>2026-07-16T13:32:28.000Z</time>
</trkpt>
<trkpt lat="57.370740" lon="9.716687">
<ele>2.451511</ele>
<time>2026-07-16T13:32:29.000Z</time>
</trkpt>
<trkpt lat="57.370763" lon="9.716730">
<ele>2.370918</ele>
<time>2026-07-16T13:32:30.000Z</time>
</trkpt>
<trkpt lat="57.370789" lon="9.716769">
<ele>2.288396</ele>
<time>2026-07-16T13:32:31.000Z</time>
</trkpt>
<trkpt lat="57.370819" lon="9.716803">
<ele>2.201633</ele>
<time>2026-07-16T13:32:32.000Z</time>
</trkpt>
<trkpt lat="57.370851" lon="9.716833">
<ele>2.113148</ele>
<time>2026-07-16T13:32:33.000Z</time>
</trkpt>
<trkpt lat="57.370888" lon="9.716857">
<ele>2.016417</ele>
<time>2026-07-16T13:32:34.000Z</time>
</trkpt>
<trkpt lat="57.370923" lon="9.716877">
<ele>1.926038</ele>
<time>2026-07-16T13:32:35.000Z</time>
</trkpt>
<trkpt lat="57.370961" lon="9.716901">
<ele>1.826973</ele>
<time>2026-07-16T13:32:36.000Z</time>
</trkpt>
<trkpt lat="57.370997" lon="9.716918">
<ele>1.735299</ele>
<time>2026-07-16T13:32:37.000Z</time>
</trkpt>
<trkpt lat="57.371034" lon="9.716927">
<ele>1.643209</ele>
<time>2026-07-16T13:32:38.000Z</time>
</trkpt>
<trkpt lat="57.371069" lon="9.716931">
<ele>1.610114</ele>
<time>2026-07-16T13:32:39.000Z</time>
</trkpt>
<trkpt lat="57.371106" lon="9.716931">
<ele>1.608862</ele>
<time>2026-07-16T13:32:40.000Z</time>
</trkpt>
<trkpt lat="57.371144" lon="9.716929">
<ele>1.607575</ele>
<time>2026-07-16T13:32:41.000Z</time>
</trkpt>
<trkpt lat="57.371185" lon="9.716930">
<ele>1.606187</ele>
<time>2026-07-16T13:32:42.000Z</time>
</trkpt>
<trkpt lat="57.371225" lon="9.716931">
<ele>1.604833</ele>
<time>2026-07-16T13:32:43.000Z</time>
</trkpt>
<trkpt lat="57.371263" lon="9.716933">
<ele>1.603546</ele>
<time>2026-07-16T13:32:44.000Z</time>
</trkpt>
<trkpt lat="57.371301" lon="9.716930">
<ele>1.602259</ele>
<time>2026-07-16T13:32:45.000Z</time>
</trkpt>
<trkpt lat="57.371339" lon="9.716927">
<ele>1.600972</ele>
<time>2026-07-16T13:32:46.000Z</time>
</trkpt>
<trkpt lat="57.371382" lon="9.716929">
<ele>1.599516</ele>
<time>2026-07-16T13:32:47.000Z</time>
</trkpt>
<trkpt lat="57.371426" lon="9.716932">
<ele>1.598026</ele>
<time>2026-07-16T13:32:48.000Z</time>
</trkpt>
<trkpt lat="57.371468" lon="9.716935">
<ele>1.596603</ele>
<time>2026-07-16T13:32:49.000Z</time>
</trkpt>
<trkpt lat="57.371507" lon="9.716939">
<ele>1.595281</ele>
<time>2026-07-16T13:32:50.000Z</time>
</trkpt>
<trkpt lat="57.371548" lon="9.716940">
<ele>1.593893</ele>
<time>2026-07-16T13:32:51.000Z</time>
</trkpt>
<trkpt lat="57.371590" lon="9.716940">
<ele>1.592472</ele>
<time>2026-07-16T13:32:52.000Z</time>
</trkpt>
<trkpt lat="57.371635" lon="9.716936">
<ele>1.590947</ele>
<time>2026-07-16T13:32:53.000Z</time>
</trkpt>
<trkpt lat="57.371681" lon="9.716935">
<ele>1.589390</ele>
<time>2026-07-16T13:32:54.000Z</time>
</trkpt>
<trkpt lat="57.371729" lon="9.716934">
<ele>1.587765</ele>
<time>2026-07-16T13:32:55.000Z</time>
</trkpt>
<trkpt lat="57.371779" lon="9.716932">
<ele>1.586072</ele>
<time>2026-07-16T13:32:56.000Z</time>
</trkpt>
<trkpt lat="57.371828" lon="9.716931">
<ele>1.584414</ele>
<time>2026-07-16T13:32:57.000Z</time>
</trkpt>
<trkpt lat="57.371875" lon="9.716929">
<ele>1.582822</ele>
<time>2026-07-16T13:32:58.000Z</time>
</trkpt>
<trkpt lat="57.371924" lon="9.716922">
<ele>1.581159</ele>
<time>2026-07-16T13:32:59.000Z</time>
</trkpt>
<trkpt lat="57.371976" lon="9.716918">
<ele>1.579397</ele>
<time>2026-07-16T13:33:00.000Z</time>
</trkpt>
<trkpt lat="57.372024" lon="9.716914">
<ele>1.577771</ele>
<time>2026-07-16T13:33:01.000Z</time>
</trkpt>
<trkpt lat="57.372070" lon="9.716913">
<ele>1.576214</ele>
<time>2026-07-16T13:33:02.000Z</time>
</trkpt>
<trkpt lat="57.372118" lon="9.716911">
<ele>1.574589</ele>
<time>2026-07-16T13:33:03.000Z</time>
</trkpt>
<trkpt lat="57.372171" lon="9.716910">
<ele>1.572795</ele>
<time>2026-07-16T13:33:04.000Z</time>
</trkpt>
<trkpt lat="57.372221" lon="9.716906">
<ele>1.571101</ele>
<time>2026-07-16T13:33:05.000Z</time>
</trkpt>
<trkpt lat="57.372268" lon="9.716903">
<ele>1.569509</ele>
<time>2026-07-16T13:33:06.000Z</time>
</trkpt>
<trkpt lat="57.372317" lon="9.716900">
<ele>1.567850</ele>
<time>2026-07-16T13:33:07.000Z</time>
</trkpt>
<trkpt lat="57.372366" lon="9.716901">
<ele>1.566191</ele>
<time>2026-07-16T13:33:08.000Z</time>
</trkpt>
<trkpt lat="57.372415" lon="9.716902">
<ele>1.564533</ele>
<time>2026-07-16T13:33:09.000Z</time>
</trkpt>
<trkpt lat="57.372465" lon="9.716900">
<ele>1.562840</ele>
<time>2026-07-16T13:33:10.000Z</time>
</trkpt>
<trkpt lat="57.372517" lon="9.716896">
<ele>1.561078</ele>
<time>2026-07-16T13:33:11.000Z</time>
</trkpt>
<trkpt lat="57.372568" lon="9.716892">
<ele>1.559351</ele>
<time>2026-07-16T13:33:12.000Z</time>
</trkpt>
<trkpt lat="57.372623" lon="9.716888">
<ele>1.557488</ele>
<time>2026-07-16T13:33:13.000Z</time>
</trkpt>
<trkpt lat="57.372675" lon="9.716884">
<ele>1.555726</ele>
<time>2026-07-16T13:33:14.000Z</time>
</trkpt>
<trkpt lat="57.372725" lon="9.716884">
<ele>1.554034</ele>
<time>2026-07-16T13:33:15.000Z</time>
</trkpt>
<trkpt lat="57.372772" lon="9.716884">
<ele>1.552443</ele>
<time>2026-07-16T13:33:16.000Z</time>
</trkpt>
<trkpt lat="57.372820" lon="9.716887">
<ele>1.550817</ele>
<time>2026-07-16T13:33:17.000Z</time>
</trkpt>
<trkpt lat="57.372867" lon="9.716895">
<ele>1.563431</ele>
<time>2026-07-16T13:33:18.000Z</time>
</trkpt>
<trkpt lat="57.372906" lon="9.716910">
<ele>1.587329</ele>
<time>2026-07-16T13:33:19.000Z</time>
</trkpt>
<trkpt lat="57.372945" lon="9.716933">
<ele>1.611883</ele>
<time>2026-07-16T13:33:20.000Z</time>
</trkpt>
<trkpt lat="57.372980" lon="9.716962">
<ele>1.634884</ele>
<time>2026-07-16T13:33:21.000Z</time>
</trkpt>
<trkpt lat="57.373015" lon="9.717000">
<ele>1.659218</ele>
<time>2026-07-16T13:33:22.000Z</time>
</trkpt>
<trkpt lat="57.373045" lon="9.717041">
<ele>1.681577</ele>
<time>2026-07-16T13:33:23.000Z</time>
</trkpt>
<trkpt lat="57.373077" lon="9.717087">
<ele>1.705869</ele>
<time>2026-07-16T13:33:24.000Z</time>
</trkpt>
<trkpt lat="57.373107" lon="9.717138">
<ele>1.730286</ele>
<time>2026-07-16T13:33:25.000Z</time>
</trkpt>
<trkpt lat="57.373135" lon="9.717189">
<ele>1.753833</ele>
<time>2026-07-16T13:33:26.000Z</time>
</trkpt>
<trkpt lat="57.373159" lon="9.717244">
<ele>1.776723</ele>
<time>2026-07-16T13:33:27.000Z</time>
</trkpt>
<trkpt lat="57.373179" lon="9.717303">
<ele>1.799269</ele>
<time>2026-07-16T13:33:28.000Z</time>
</trkpt>
<trkpt lat="57.373198" lon="9.717366">
<ele>1.822621</ele>
<time>2026-07-16T13:33:29.000Z</time>
</trkpt>
<trkpt lat="57.373212" lon="9.717434">
<ele>1.846168</ele>
<time>2026-07-16T13:33:30.000Z</time>
</trkpt>
<trkpt lat="57.373220" lon="9.717505">
<ele>1.869633</ele>
<time>2026-07-16T13:33:31.000Z</time>
</trkpt>
<trkpt lat="57.373225" lon="9.717580">
<ele>1.894081</ele>
<time>2026-07-16T13:33:32.000Z</time>
</trkpt>
<trkpt lat="57.373229" lon="9.717658">
<ele>1.919428</ele>
<time>2026-07-16T13:33:33.000Z</time>
</trkpt>
<trkpt lat="57.373235" lon="9.717736">
<ele>1.944917</ele>
<time>2026-07-16T13:33:34.000Z</time>
</trkpt>
<trkpt lat="57.373240" lon="9.717816">
<ele>1.970970</ele>
<time>2026-07-16T13:33:35.000Z</time>
</trkpt>
<trkpt lat="57.373241" lon="9.717895">
<ele>1.996534</ele>
<time>2026-07-16T13:33:36.000Z</time>
</trkpt>
<trkpt lat="57.373244" lon="9.717972">
<ele>2.021508</ele>
<time>2026-07-16T13:33:37.000Z</time>
</trkpt>
<trkpt lat="57.373245" lon="9.718049">
<ele>2.046425</ele>
<time>2026-07-16T13:33:38.000Z</time>
</trkpt>
<trkpt lat="57.373248" lon="9.718130">
<ele>2.072691</ele>
<time>2026-07-16T13:33:39.000Z</time>
</trkpt>
<trkpt lat="57.373249" lon="9.718214">
<ele>2.099871</ele>
<time>2026-07-16T13:33:40.000Z</time>
</trkpt>
<trkpt lat="57.373249" lon="9.718296">
<ele>2.126399</ele>
<time>2026-07-16T13:33:41.000Z</time>
</trkpt>
<trkpt lat="57.373252" lon="9.718378">
<ele>2.152987</ele>
<time>2026-07-16T13:33:42.000Z</time>
</trkpt>
<trkpt lat="57.373256" lon="9.718457">
<ele>2.178656</ele>
<time>2026-07-16T13:33:43.000Z</time>
</trkpt>
<trkpt lat="57.373257" lon="9.718537">
<ele>2.204543</ele>
<time>2026-07-16T13:33:44.000Z</time>
</trkpt>
<trkpt lat="57.373259" lon="9.718619">
<ele>2.231097</ele>
<time>2026-07-16T13:33:45.000Z</time>
</trkpt>
<trkpt lat="57.373261" lon="9.718701">
<ele>2.257652</ele>
<time>2026-07-16T13:33:46.000Z</time>
</trkpt>
<trkpt lat="57.373266" lon="9.718782">
<ele>2.284026</ele>
<time>2026-07-16T13:33:47.000Z</time>
</trkpt>
<trkpt lat="57.373268" lon="9.718863">
<ele>2.310258</ele>
<time>2026-07-16T13:33:48.000Z</time>
</trkpt>
<trkpt lat="57.373271" lon="9.718942">
<ele>2.335878</ele>
<time>2026-07-16T13:33:49.000Z</time>
</trkpt>
<trkpt lat="57.373272" lon="9.719026">
<ele>2.363058</ele>
<time>2026-07-16T13:33:50.000Z</time>
</trkpt>
<trkpt lat="57.373275" lon="9.719111">
<ele>2.390615</ele>
<time>2026-07-16T13:33:51.000Z</time>
</trkpt>
<trkpt lat="57.373276" lon="9.719195">
<ele>2.417796</ele>
<time>2026-07-16T13:33:52.000Z</time>
</trkpt>
<trkpt lat="57.373276" lon="9.719284">
<ele>2.446587</ele>
<time>2026-07-16T13:33:53.000Z</time>
</trkpt>
<trkpt lat="57.373279" lon="9.719370">
<ele>2.474467</ele>
<time>2026-07-16T13:33:54.000Z</time>
</trkpt>
<trkpt lat="57.373280" lon="9.719456">
<ele>2.502294</ele>
<time>2026-07-16T13:33:55.000Z</time>
</trkpt>
<trkpt lat="57.373285" lon="9.719541">
<ele>2.529955</ele>
<time>2026-07-16T13:33:56.000Z</time>
</trkpt>
<trkpt lat="57.373290" lon="9.719629">
<ele>2.558581</ele>
<time>2026-07-16T13:33:57.000Z</time>
</trkpt>
<trkpt lat="57.373291" lon="9.719719">
<ele>2.587702</ele>
<time>2026-07-16T13:33:58.000Z</time>
</trkpt>
<trkpt lat="57.373294" lon="9.719810">
<ele>2.617196</ele>
<time>2026-07-16T13:33:59.000Z</time>
</trkpt>
<trkpt lat="57.373295" lon="9.719904">
<ele>2.616706</ele>
<time>2026-07-16T13:34:00.000Z</time>
</trkpt>
<trkpt lat="57.373298" lon="9.719998">
<ele>2.596096</ele>
<time>2026-07-16T13:34:01.000Z</time>
</trkpt>
<trkpt lat="57.373299" lon="9.720093">
<ele>2.575300</ele>
<time>2026-07-16T13:34:02.000Z</time>
</trkpt>
<trkpt lat="57.373301" lon="9.720189">
<ele>2.554273</ele>
<time>2026-07-16T13:34:03.000Z</time>
</trkpt>
<trkpt lat="57.373302" lon="9.720285">
<ele>2.533259</ele>
<time>2026-07-16T13:34:04.000Z</time>
</trkpt>
<trkpt lat="57.373305" lon="9.720381">
<ele>2.512212</ele>
<time>2026-07-16T13:34:05.000Z</time>
</trkpt>
<trkpt lat="57.373309" lon="9.720474">
<ele>2.491793</ele>
<time>2026-07-16T13:34:06.000Z</time>
</trkpt>
<trkpt lat="57.373310" lon="9.720568">
<ele>2.471216</ele>
<time>2026-07-16T13:34:07.000Z</time>
</trkpt>
<trkpt lat="57.373313" lon="9.720659">
<ele>2.451262</ele>
<time>2026-07-16T13:34:08.000Z</time>
</trkpt>
<trkpt lat="57.373317" lon="9.720754">
<ele>2.430406</ele>
<time>2026-07-16T13:34:09.000Z</time>
</trkpt>
<trkpt lat="57.373321" lon="9.720851">
<ele>2.409115</ele>
<time>2026-07-16T13:34:10.000Z</time>
</trkpt>
<trkpt lat="57.373322" lon="9.720949">
<ele>2.387662</ele>
<time>2026-07-16T13:34:11.000Z</time>
</trkpt>
<trkpt lat="57.373322" lon="9.721045">
<ele>2.366651</ele>
<time>2026-07-16T13:34:12.000Z</time>
</trkpt>
<trkpt lat="57.373324" lon="9.721142">
<ele>2.345406</ele>
<time>2026-07-16T13:34:13.000Z</time>
</trkpt>
<trkpt lat="57.373331" lon="9.721240">
<ele>2.323769</ele>
<time>2026-07-16T13:34:14.000Z</time>
</trkpt>
<trkpt lat="57.373336" lon="9.721335">
<ele>2.302878</ele>
<time>2026-07-16T13:34:15.000Z</time>
</trkpt>
<trkpt lat="57.373340" lon="9.721429">
<ele>2.282241</ele>
<time>2026-07-16T13:34:16.000Z</time>
</trkpt>
<trkpt lat="57.373346" lon="9.721523">
<ele>2.261524</ele>
<time>2026-07-16T13:34:17.000Z</time>
</trkpt>
<trkpt lat="57.373351" lon="9.721618">
<ele>2.240633</ele>
<time>2026-07-16T13:34:18.000Z</time>
</trkpt>
<trkpt lat="57.373358" lon="9.721716">
<ele>2.218997</ele>
<time>2026-07-16T13:34:19.000Z</time>
</trkpt>
<trkpt lat="57.373365" lon="9.721812">
<ele>2.197795</ele>
<time>2026-07-16T13:34:20.000Z</time>
</trkpt>
<trkpt lat="57.373373" lon="9.721908">
<ele>2.176534</ele>
<time>2026-07-16T13:34:21.000Z</time>
</trkpt>
<trkpt lat="57.373383" lon="9.722004">
<ele>2.155135</ele>
<time>2026-07-16T13:34:22.000Z</time>
</trkpt>
<trkpt lat="57.373395" lon="9.722100">
<ele>2.133566</ele>
<time>2026-07-16T13:34:23.000Z</time>
</trkpt>
<trkpt lat="57.373403" lon="9.722198">
<ele>2.111873</ele>
<time>2026-07-16T13:34:24.000Z</time>
</trkpt>
<trkpt lat="57.373414" lon="9.722297">
<ele>2.089750</ele>
<time>2026-07-16T13:34:25.000Z</time>
</trkpt>
<trkpt lat="57.373425" lon="9.722398">
<ele>2.067199</ele>
<time>2026-07-16T13:34:26.000Z</time>
</trkpt>
<trkpt lat="57.373437" lon="9.722498">
<ele>2.044777</ele>
<time>2026-07-16T13:34:27.000Z</time>
</trkpt>
<trkpt lat="57.373451" lon="9.722601">
<ele>2.021528</ele>
<time>2026-07-16T13:34:28.000Z</time>
</trkpt>
<trkpt lat="57.373463" lon="9.722708">
<ele>1.997609</ele>
<time>2026-07-16T13:34:29.000Z</time>
</trkpt>
<trkpt lat="57.373478" lon="9.722813">
<ele>1.973835</ele>
<time>2026-07-16T13:34:30.000Z</time>
</trkpt>
<trkpt lat="57.373490" lon="9.722917">
<ele>1.950558</ele>
<time>2026-07-16T13:34:31.000Z</time>
</trkpt>
<trkpt lat="57.373504" lon="9.723020">
<ele>1.927309</ele>
<time>2026-07-16T13:34:32.000Z</time>
</trkpt>
<trkpt lat="57.373517" lon="9.723123">
<ele>1.904157</ele>
<time>2026-07-16T13:34:33.000Z</time>
</trkpt>
<trkpt lat="57.373531" lon="9.723226">
<ele>1.892192</ele>
<time>2026-07-16T13:34:34.000Z</time>
</trkpt>
<trkpt lat="57.373544" lon="9.723330">
<ele>1.883362</ele>
<time>2026-07-16T13:34:35.000Z</time>
</trkpt>
<trkpt lat="57.373555" lon="9.723432">
<ele>1.874758</ele>
<time>2026-07-16T13:34:36.000Z</time>
</trkpt>
<trkpt lat="57.373566" lon="9.723536">
<ele>1.865993</ele>
<time>2026-07-16T13:34:37.000Z</time>
</trkpt>
<trkpt lat="57.373581" lon="9.723639">
<ele>1.857168</ele>
<time>2026-07-16T13:34:38.000Z</time>
</trkpt>
<trkpt lat="57.373593" lon="9.723743">
<ele>1.848372</ele>
<time>2026-07-16T13:34:39.000Z</time>
</trkpt>
<trkpt lat="57.373605" lon="9.723845">
<ele>1.839737</ele>
<time>2026-07-16T13:34:40.000Z</time>
</trkpt>
<trkpt lat="57.373619" lon="9.723950">
<ele>1.830791</ele>
<time>2026-07-16T13:34:41.000Z</time>
</trkpt>
<trkpt lat="57.373631" lon="9.724054">
<ele>1.821994</ele>
<time>2026-07-16T13:34:42.000Z</time>
</trkpt>
<trkpt lat="57.373646" lon="9.724159">
<ele>1.813010</ele>
<time>2026-07-16T13:34:43.000Z</time>
</trkpt>
<trkpt lat="57.373658" lon="9.724262">
<ele>1.804294</ele>
<time>2026-07-16T13:34:44.000Z</time>
</trkpt>
<trkpt lat="57.373672" lon="9.724365">
<ele>1.795509</ele>
<time>2026-07-16T13:34:45.000Z</time>
</trkpt>
<trkpt lat="57.373687" lon="9.724465">
<ele>1.786924</ele>
<time>2026-07-16T13:34:46.000Z</time>
</trkpt>
<trkpt lat="57.373706" lon="9.724565">
<ele>1.778154</ele>
<time>2026-07-16T13:34:47.000Z</time>
</trkpt>
<trkpt lat="57.373725" lon="9.724663">
<ele>1.769541</ele>
<time>2026-07-16T13:34:48.000Z</time>
</trkpt>
<trkpt lat="57.373747" lon="9.724757">
<ele>1.761065</ele>
<time>2026-07-16T13:34:49.000Z</time>
</trkpt>
<trkpt lat="57.373769" lon="9.724850">
<ele>1.752665</ele>
<time>2026-07-16T13:34:50.000Z</time>
</trkpt>
<trkpt lat="57.373792" lon="9.724944">
<ele>1.744128</ele>
<time>2026-07-16T13:34:51.000Z</time>
</trkpt>
<trkpt lat="57.373818" lon="9.725035">
<ele>1.735610</ele>
<time>2026-07-16T13:34:52.000Z</time>
</trkpt>
<trkpt lat="57.373844" lon="9.725125">
<ele>1.727165</ele>
<time>2026-07-16T13:34:53.000Z</time>
</trkpt>
<trkpt lat="57.373871" lon="9.725215">
<ele>1.718646</ele>
<time>2026-07-16T13:34:54.000Z</time>
</trkpt>
<trkpt lat="57.373898" lon="9.725305">
<ele>1.710128</ele>
<time>2026-07-16T13:34:55.000Z</time>
</trkpt>
<trkpt lat="57.373928" lon="9.725394">
<ele>1.701446</ele>
<time>2026-07-16T13:34:56.000Z</time>
</trkpt>
<trkpt lat="57.373955" lon="9.725486">
<ele>1.692783</ele>
<time>2026-07-16T13:34:57.000Z</time>
</trkpt>
<trkpt lat="57.373982" lon="9.725579">
<ele>1.684047</ele>
<time>2026-07-16T13:34:58.000Z</time>
</trkpt>
<trkpt lat="57.374011" lon="9.725673">
<ele>1.675089</ele>
<time>2026-07-16T13:34:59.000Z</time>
</trkpt>
<trkpt lat="57.374039" lon="9.725768">
<ele>1.666135</ele>
<time>2026-07-16T13:35:00.000Z</time>
</trkpt>
<trkpt lat="57.374066" lon="9.725861">
<ele>1.657399</ele>
<time>2026-07-16T13:35:01.000Z</time>
</trkpt>
<trkpt lat="57.374093" lon="9.725956">
<ele>1.648516</ele>
<time>2026-07-16T13:35:02.000Z</time>
</trkpt>
<trkpt lat="57.374116" lon="9.726055">
<ele>1.639600</ele>
<time>2026-07-16T13:35:03.000Z</time>
</trkpt>
<trkpt lat="57.374136" lon="9.726154">
<ele>1.630856</ele>
<time>2026-07-16T13:35:04.000Z</time>
</trkpt>
<trkpt lat="57.374150" lon="9.726254">
<ele>1.622857</ele>
<time>2026-07-16T13:35:05.000Z</time>
</trkpt>
<trkpt lat="57.374159" lon="9.726351">
<ele>1.620170</ele>
<time>2026-07-16T13:35:06.000Z</time>
</trkpt>
<trkpt lat="57.374166" lon="9.726439">
<ele>1.617741</ele>
<time>2026-07-16T13:35:07.000Z</time>
</trkpt>
<trkpt lat="57.374171" lon="9.726522">
<ele>1.615460</ele>
<time>2026-07-16T13:35:08.000Z</time>
</trkpt>
<trkpt lat="57.374169" lon="9.726599">
<ele>1.613355</ele>
<time>2026-07-16T13:35:09.000Z</time>
</trkpt>
<trkpt lat="57.374168" lon="9.726670">
<ele>1.611416</ele>
<time>2026-07-16T13:35:10.000Z</time>
</trkpt>
<trkpt lat="57.374174" lon="9.726734">
<ele>1.609642</ele>
<time>2026-07-16T13:35:11.000Z</time>
</trkpt>
<trkpt lat="57.374184" lon="9.726794">
<ele>1.607927</ele>
<time>2026-07-16T13:35:12.000Z</time>
</trkpt>
<trkpt lat="57.374201" lon="9.726844">
<ele>1.606313</ele>
<time>2026-07-16T13:35:13.000Z</time>
</trkpt>
<trkpt lat="57.374225" lon="9.726873">
<ele>1.604862</ele>
<time>2026-07-16T13:35:14.000Z</time>
</trkpt>
<trkpt lat="57.374255" lon="9.726887">
<ele>1.603296</ele>
<time>2026-07-16T13:35:15.000Z</time>
</trkpt>
<trkpt lat="57.374289" lon="9.726896">
<ele>1.601556</ele>
<time>2026-07-16T13:35:16.000Z</time>
</trkpt>
<trkpt lat="57.374326" lon="9.726906">
<ele>1.599663</ele>
<time>2026-07-16T13:35:17.000Z</time>
</trkpt>
<trkpt lat="57.374360" lon="9.726912">
<ele>1.597933</ele>
<time>2026-07-16T13:35:18.000Z</time>
</trkpt>
<trkpt lat="57.374403" lon="9.726917">
<ele>1.595751</ele>
<time>2026-07-16T13:35:19.000Z</time>
</trkpt>
<trkpt lat="57.374447" lon="9.726922">
<ele>1.593518</ele>
<time>2026-07-16T13:35:20.000Z</time>
</trkpt>
<trkpt lat="57.374486" lon="9.726926">
<ele>1.591540</ele>
<time>2026-07-16T13:35:21.000Z</time>
</trkpt>
<trkpt lat="57.374530" lon="9.726930">
<ele>1.589309</ele>
<time>2026-07-16T13:35:22.000Z</time>
</trkpt>
<trkpt lat="57.374578" lon="9.726934">
<ele>1.586875</ele>
<time>2026-07-16T13:35:23.000Z</time>
</trkpt>
<trkpt lat="57.374625" lon="9.726936">
<ele>1.584494</ele>
<time>2026-07-16T13:35:24.000Z</time>
</trkpt>
<trkpt lat="57.374674" lon="9.726939">
<ele>1.582011</ele>
<time>2026-07-16T13:35:25.000Z</time>
</trkpt>
<trkpt lat="57.374725" lon="9.726942">
<ele>1.579427</ele>
<time>2026-07-16T13:35:26.000Z</time>
</trkpt>
<trkpt lat="57.374777" lon="9.726943">
<ele>1.576793</ele>
<time>2026-07-16T13:35:27.000Z</time>
</trkpt>
<trkpt lat="57.374830" lon="9.726939">
<ele>1.574107</ele>
<time>2026-07-16T13:35:28.000Z</time>
</trkpt>
<trkpt lat="57.374883" lon="9.726933">
<ele>1.571417</ele>
<time>2026-07-16T13:35:29.000Z</time>
</trkpt>
<trkpt lat="57.374936" lon="9.726925">
<ele>1.568724</ele>
<time>2026-07-16T13:35:30.000Z</time>
</trkpt>
<trkpt lat="57.374989" lon="9.726916">
<ele>1.566029</ele>
<time>2026-07-16T13:35:31.000Z</time>
</trkpt>
<trkpt lat="57.375043" lon="9.726909">
<ele>1.563287</ele>
<time>2026-07-16T13:35:32.000Z</time>
</trkpt>
<trkpt lat="57.375097" lon="9.726902">
<ele>1.560546</ele>
<time>2026-07-16T13:35:33.000Z</time>
</trkpt>
<trkpt lat="57.375153" lon="9.726897">
<ele>1.557706</ele>
<time>2026-07-16T13:35:34.000Z</time>
</trkpt>
<trkpt lat="57.375204" lon="9.726891">
<ele>1.555118</ele>
<time>2026-07-16T13:35:35.000Z</time>
</trkpt>
<trkpt lat="57.375257" lon="9.726884">
<ele>1.552427</ele>
<time>2026-07-16T13:35:36.000Z</time>
</trkpt>
<trkpt lat="57.375307" lon="9.726876">
<ele>1.549885</ele>
<time>2026-07-16T13:35:37.000Z</time>
</trkpt>
<trkpt lat="57.375356" lon="9.726869">
<ele>1.547396</ele>
<time>2026-07-16T13:35:38.000Z</time>
</trkpt>
<trkpt lat="57.375406" lon="9.726863">
<ele>1.544859</ele>
<time>2026-07-16T13:35:39.000Z</time>
</trkpt>
<trkpt lat="57.375453" lon="9.726857">
<ele>1.542473</ele>
<time>2026-07-16T13:35:40.000Z</time>
</trkpt>
<trkpt lat="57.375502" lon="9.726849">
<ele>1.539981</ele>
<time>2026-07-16T13:35:41.000Z</time>
</trkpt>
<trkpt lat="57.375551" lon="9.726839">
<ele>1.537485</ele>
<time>2026-07-16T13:35:42.000Z</time>
</trkpt>
<trkpt lat="57.375601" lon="9.726829">
<ele>1.534938</ele>
<time>2026-07-16T13:35:43.000Z</time>
</trkpt>
<trkpt lat="57.375650" lon="9.726820">
<ele>1.532444</ele>
<time>2026-07-16T13:35:44.000Z</time>
</trkpt>
<trkpt lat="57.375700" lon="9.726813">
<ele>1.563911</ele>
<time>2026-07-16T13:35:45.000Z</time>
</trkpt>
<trkpt lat="57.375749" lon="9.726806">
<ele>1.601212</ele>
<time>2026-07-16T13:35:46.000Z</time>
</trkpt>
<trkpt lat="57.375799" lon="9.726796">
<ele>1.639382</ele>
<time>2026-07-16T13:35:47.000Z</time>
</trkpt>
<trkpt lat="57.375849" lon="9.726787">
<ele>1.677510</ele>
<time>2026-07-16T13:35:48.000Z</time>
</trkpt>
<trkpt lat="57.375898" lon="9.726780">
<ele>1.714811</ele>
<time>2026-07-16T13:35:49.000Z</time>
</trkpt>
<trkpt lat="57.375951" lon="9.726773">
<ele>1.755140</ele>
<time>2026-07-16T13:35:50.000Z</time>
</trkpt>
<trkpt lat="57.376004" lon="9.726768">
<ele>1.795418</ele>
<time>2026-07-16T13:35:51.000Z</time>
</trkpt>
<trkpt lat="57.376055" lon="9.726763">
<ele>1.834181</ele>
<time>2026-07-16T13:35:52.000Z</time>
</trkpt>
<trkpt lat="57.376105" lon="9.726758">
<ele>1.872186</ele>
<time>2026-07-16T13:35:53.000Z</time>
</trkpt>
<trkpt lat="57.376154" lon="9.726752">
<ele>1.909458</ele>
<time>2026-07-16T13:35:54.000Z</time>
</trkpt>
<trkpt lat="57.376206" lon="9.726744">
<ele>1.949061</ele>
<time>2026-07-16T13:35:55.000Z</time>
</trkpt>
<trkpt lat="57.376257" lon="9.726738">
<ele>1.987848</ele>
<time>2026-07-16T13:35:56.000Z</time>
</trkpt>
<trkpt lat="57.376310" lon="9.726732">
<ele>2.028150</ele>
<time>2026-07-16T13:35:57.000Z</time>
</trkpt>
<trkpt lat="57.376360" lon="9.726724">
<ele>2.066240</ele>
<time>2026-07-16T13:35:58.000Z</time>
</trkpt>
<trkpt lat="57.376413" lon="9.726715">
<ele>2.106636</ele>
<time>2026-07-16T13:35:59.000Z</time>
</trkpt>
<trkpt lat="57.376463" lon="9.726708">
<ele>2.144693</ele>
<time>2026-07-16T13:36:00.000Z</time>
</trkpt>
<trkpt lat="57.376513" lon="9.726700">
<ele>2.182784</ele>
<time>2026-07-16T13:36:01.000Z</time>
</trkpt>
<trkpt lat="57.376565" lon="9.726693">
<ele>2.222356</ele>
<time>2026-07-16T13:36:02.000Z</time>
</trkpt>
<trkpt lat="57.376616" lon="9.726686">
<ele>2.261170</ele>
<time>2026-07-16T13:36:03.000Z</time>
</trkpt>
<trkpt lat="57.376668" lon="9.726678">
<ele>2.300774</ele>
<time>2026-07-16T13:36:04.000Z</time>
</trkpt>
<trkpt lat="57.376719" lon="9.726669">
<ele>2.339657</ele>
<time>2026-07-16T13:36:05.000Z</time>
</trkpt>
<trkpt lat="57.376768" lon="9.726658">
<ele>2.377120</ele>
<time>2026-07-16T13:36:06.000Z</time>
</trkpt>
<trkpt lat="57.376821" lon="9.726649">
<ele>2.417515</ele>
<time>2026-07-16T13:36:07.000Z</time>
</trkpt>
<trkpt lat="57.376871" lon="9.726641">
<ele>2.455606</ele>
<time>2026-07-16T13:36:08.000Z</time>
</trkpt>
<trkpt lat="57.376921" lon="9.726635">
<ele>2.493635</ele>
<time>2026-07-16T13:36:09.000Z</time>
</trkpt>
<trkpt lat="57.376971" lon="9.726627">
<ele>2.531725</ele>
<time>2026-07-16T13:36:10.000Z</time>
</trkpt>
<trkpt lat="57.377023" lon="9.726619">
<ele>2.571329</ele>
<time>2026-07-16T13:36:11.000Z</time>
</trkpt>
<trkpt lat="57.377074" lon="9.726611">
<ele>2.610176</ele>
<time>2026-07-16T13:36:12.000Z</time>
</trkpt>
<trkpt lat="57.377123" lon="9.726601">
<ele>2.647591</ele>
<time>2026-07-16T13:36:13.000Z</time>
</trkpt>
<trkpt lat="57.377176" lon="9.726591">
<ele>2.688026</ele>
<time>2026-07-16T13:36:14.000Z</time>
</trkpt>
<trkpt lat="57.377226" lon="9.726583">
<ele>2.726116</ele>
<time>2026-07-16T13:36:15.000Z</time>
</trkpt>
<trkpt lat="57.377276" lon="9.726580">
<ele>2.764086</ele>
<time>2026-07-16T13:36:16.000Z</time>
</trkpt>
<trkpt lat="57.377325" lon="9.726578">
<ele>2.801286</ele>
<time>2026-07-16T13:36:17.000Z</time>
</trkpt>
<trkpt lat="57.377377" lon="9.726572">
<ele>2.840830</ele>
<time>2026-07-16T13:36:18.000Z</time>
</trkpt>
<trkpt lat="57.377428" lon="9.726565">
<ele>2.879645</ele>
<time>2026-07-16T13:36:19.000Z</time>
</trkpt>
<trkpt lat="57.377478" lon="9.726557">
<ele>2.905877</ele>
<time>2026-07-16T13:36:20.000Z</time>
</trkpt>
<trkpt lat="57.377526" lon="9.726549">
<ele>2.921336</ele>
<time>2026-07-16T13:36:21.000Z</time>
</trkpt>
<trkpt lat="57.377577" lon="9.726541">
<ele>2.937754</ele>
<time>2026-07-16T13:36:22.000Z</time>
</trkpt>
<trkpt lat="57.377627" lon="9.726535">
<ele>2.953826</ele>
<time>2026-07-16T13:36:23.000Z</time>
</trkpt>
<trkpt lat="57.377679" lon="9.726529">
<ele>2.970538</ele>
<time>2026-07-16T13:36:24.000Z</time>
</trkpt>
<trkpt lat="57.377729" lon="9.726525">
<ele>2.986592</ele>
<time>2026-07-16T13:36:25.000Z</time>
</trkpt>
<trkpt lat="57.377779" lon="9.726517">
<ele>3.002690</ele>
<time>2026-07-16T13:36:26.000Z</time>
</trkpt>
<trkpt lat="57.377829" lon="9.726510">
<ele>3.018775</ele>
<time>2026-07-16T13:36:27.000Z</time>
</trkpt>
<trkpt lat="57.377878" lon="9.726503">
<ele>3.034539</ele>
<time>2026-07-16T13:36:28.000Z</time>
</trkpt>
<trkpt lat="57.377931" lon="9.726499">
<ele>3.051554</ele>
<time>2026-07-16T13:36:29.000Z</time>
</trkpt>
<trkpt lat="57.377984" lon="9.726494">
<ele>3.068577</ele>
<time>2026-07-16T13:36:30.000Z</time>
</trkpt>
<trkpt lat="57.378035" lon="9.726487">
<ele>3.084981</ele>
<time>2026-07-16T13:36:31.000Z</time>
</trkpt>
<trkpt lat="57.378087" lon="9.726478">
<ele>3.101734</ele>
<time>2026-07-16T13:36:32.000Z</time>
</trkpt>
<trkpt lat="57.378138" lon="9.726471">
<ele>3.118138</ele>
<time>2026-07-16T13:36:33.000Z</time>
</trkpt>
<trkpt lat="57.378190" lon="9.726466">
<ele>3.134841</ele>
<time>2026-07-16T13:36:34.000Z</time>
</trkpt>
<trkpt lat="57.378240" lon="9.726459">
<ele>3.150925</ele>
<time>2026-07-16T13:36:35.000Z</time>
</trkpt>
<trkpt lat="57.378293" lon="9.726450">
<ele>3.167997</ele>
<time>2026-07-16T13:36:36.000Z</time>
</trkpt>
<trkpt lat="57.378344" lon="9.726442">
<ele>3.184415</ele>
<time>2026-07-16T13:36:37.000Z</time>
</trkpt>
<trkpt lat="57.378396" lon="9.726436">
<ele>3.201127</ele>
<time>2026-07-16T13:36:38.000Z</time>
</trkpt>
<trkpt lat="57.378446" lon="9.726429">
<ele>3.217211</ele>
<time>2026-07-16T13:36:39.000Z</time>
</trkpt>
<trkpt lat="57.378499" lon="9.726419">
<ele>3.234300</ele>
<time>2026-07-16T13:36:40.000Z</time>
</trkpt>
<trkpt lat="57.378552" lon="9.726410">
<ele>3.251372</ele>
<time>2026-07-16T13:36:41.000Z</time>
</trkpt>
<trkpt lat="57.378606" lon="9.726398">
<ele>3.268818</ele>
<time>2026-07-16T13:36:42.000Z</time>
</trkpt>
<trkpt lat="57.378662" lon="9.726390">
<ele>3.286834</ele>
<time>2026-07-16T13:36:43.000Z</time>
</trkpt>
<trkpt lat="57.378716" lon="9.726383">
<ele>3.304198</ele>
<time>2026-07-16T13:36:44.000Z</time>
</trkpt>
<trkpt lat="57.378773" lon="9.726376">
<ele>3.322522</ele>
<time>2026-07-16T13:36:45.000Z</time>
</trkpt>
<trkpt lat="57.378830" lon="9.726371">
<ele>3.340827</ele>
<time>2026-07-16T13:36:46.000Z</time>
</trkpt>
<trkpt lat="57.378884" lon="9.726366">
<ele>3.358170</ele>
<time>2026-07-16T13:36:47.000Z</time>
</trkpt>
<trkpt lat="57.378941" lon="9.726360">
<ele>3.376484</ele>
<time>2026-07-16T13:36:48.000Z</time>
</trkpt>
<trkpt lat="57.378998" lon="9.726351">
<ele>3.394834</ele>
<time>2026-07-16T13:36:49.000Z</time>
</trkpt>
<trkpt lat="57.379052" lon="9.726339">
<ele>3.412280</ele>
<time>2026-07-16T13:36:50.000Z</time>
</trkpt>
<trkpt lat="57.379108" lon="9.726327">
<ele>3.430362</ele>
<time>2026-07-16T13:36:51.000Z</time>
</trkpt>
<trkpt lat="57.379165" lon="9.726315">
<ele>3.448764</ele>
<time>2026-07-16T13:36:52.000Z</time>
</trkpt>
<trkpt lat="57.379223" lon="9.726304">
<ele>3.467466</ele>
<time>2026-07-16T13:36:53.000Z</time>
</trkpt>
<trkpt lat="57.379277" lon="9.726293">
<ele>3.480840</ele>
<time>2026-07-16T13:36:54.000Z</time>
</trkpt>
<trkpt lat="57.379333" lon="9.726280">
<ele>3.492114</ele>
<time>2026-07-16T13:36:55.000Z</time>
</trkpt>
<trkpt lat="57.379391" lon="9.726268">
<ele>3.503772</ele>
<time>2026-07-16T13:36:56.000Z</time>
</trkpt>
<trkpt lat="57.379445" lon="9.726257">
<ele>3.514624</ele>
<time>2026-07-16T13:36:57.000Z</time>
</trkpt>
<trkpt lat="57.379499" lon="9.726239">
<ele>3.525583</ele>
<time>2026-07-16T13:36:58.000Z</time>
</trkpt>
<trkpt lat="57.379555" lon="9.726220">
<ele>3.536956</ele>
<time>2026-07-16T13:36:59.000Z</time>
</trkpt>
<trkpt lat="57.379609" lon="9.726204">
<ele>3.547879</ele>
<time>2026-07-16T13:37:00.000Z</time>
</trkpt>
<trkpt lat="57.379663" lon="9.726187">
<ele>3.558820</ele>
<time>2026-07-16T13:37:01.000Z</time>
</trkpt>
<trkpt lat="57.379722" lon="9.726168">
<ele>3.570782</ele>
<time>2026-07-16T13:37:02.000Z</time>
</trkpt>
<trkpt lat="57.379780" lon="9.726148">
<ele>3.582567</ele>
<time>2026-07-16T13:37:03.000Z</time>
</trkpt>
<trkpt lat="57.379834" lon="9.726126">
<ele>3.593611</ele>
<time>2026-07-16T13:37:04.000Z</time>
</trkpt>
<trkpt lat="57.379888" lon="9.726107">
<ele>3.604590</ele>
<time>2026-07-16T13:37:05.000Z</time>
</trkpt>
<trkpt lat="57.379947" lon="9.726091">
<ele>3.616501</ele>
<time>2026-07-16T13:37:06.000Z</time>
</trkpt>
<trkpt lat="57.380005" lon="9.726075">
<ele>3.628215</ele>
<time>2026-07-16T13:37:07.000Z</time>
</trkpt>
<trkpt lat="57.380062" lon="9.726057">
<ele>3.639765</ele>
<time>2026-07-16T13:37:08.000Z</time>
</trkpt>
<trkpt lat="57.380119" lon="9.726035">
<ele>3.651395</ele>
<time>2026-07-16T13:37:09.000Z</time>
</trkpt>
<trkpt lat="57.380177" lon="9.726010">
<ele>3.663289</ele>
<time>2026-07-16T13:37:10.000Z</time>
</trkpt>
<trkpt lat="57.380234" lon="9.725985">
<ele>3.674990</ele>
<time>2026-07-16T13:37:11.000Z</time>
</trkpt>
<trkpt lat="57.380291" lon="9.725960">
<ele>3.686690</ele>
<time>2026-07-16T13:37:12.000Z</time>
</trkpt>
<trkpt lat="57.380348" lon="9.725938">
<ele>3.698320</ele>
<time>2026-07-16T13:37:13.000Z</time>
</trkpt>
<trkpt lat="57.380403" lon="9.725916">
<ele>3.709559</ele>
<time>2026-07-16T13:37:14.000Z</time>
</trkpt>
<trkpt lat="57.380459" lon="9.725893">
<ele>3.721016</ele>
<time>2026-07-16T13:37:15.000Z</time>
</trkpt>
<trkpt lat="57.380513" lon="9.725871">
<ele>3.732060</ele>
<time>2026-07-16T13:37:16.000Z</time>
</trkpt>
<trkpt lat="57.380567" lon="9.725851">
<ele>3.743060</ele>
<time>2026-07-16T13:37:17.000Z</time>
</trkpt>
<trkpt lat="57.380620" lon="9.725831">
<ele>3.753864</ele>
<time>2026-07-16T13:37:18.000Z</time>
</trkpt>
<trkpt lat="57.380673" lon="9.725808">
<ele>3.764737</ele>
<time>2026-07-16T13:37:19.000Z</time>
</trkpt>
<trkpt lat="57.380727" lon="9.725785">
<ele>3.775805</ele>
<time>2026-07-16T13:37:20.000Z</time>
</trkpt>
<trkpt lat="57.380777" lon="9.725764">
<ele>3.786046</ele>
<time>2026-07-16T13:37:21.000Z</time>
</trkpt>
<trkpt lat="57.380824" lon="9.725744">
<ele>3.795678</ele>
<time>2026-07-16T13:37:22.000Z</time>
</trkpt>
<trkpt lat="57.380867" lon="9.725726">
<ele>3.804484</ele>
<time>2026-07-16T13:37:23.000Z</time>
</trkpt>
<trkpt lat="57.380906" lon="9.725716">
<ele>3.812348</ele>
<time>2026-07-16T13:37:24.000Z</time>
</trkpt>
<trkpt lat="57.380942" lon="9.725722">
<ele>3.819569</ele>
<time>2026-07-16T13:37:25.000Z</time>
</trkpt>
<trkpt lat="57.380965" lon="9.725751">
<ele>3.825124</ele>
<time>2026-07-16T13:37:26.000Z</time>
</trkpt>
<trkpt lat="57.380981" lon="9.725800">
<ele>3.831293</ele>
<time>2026-07-16T13:37:27.000Z</time>
</trkpt>
<trkpt lat="57.380990" lon="9.725862">
<ele>3.836270</ele>
<time>2026-07-16T13:37:28.000Z</time>
</trkpt>
<trkpt lat="57.380993" lon="9.725935">
<ele>3.840945</ele>
<time>2026-07-16T13:37:29.000Z</time>
</trkpt>
<trkpt lat="57.380996" lon="9.726017">
<ele>3.846193</ele>
<time>2026-07-16T13:37:30.000Z</time>
</trkpt>
<trkpt lat="57.380994" lon="9.726101">
<ele>3.851562</ele>
<time>2026-07-16T13:37:31.000Z</time>
</trkpt>
<trkpt lat="57.380990" lon="9.726185">
<ele>3.856947</ele>
<time>2026-07-16T13:37:32.000Z</time>
</trkpt>
<trkpt lat="57.380984" lon="9.726272">
<ele>3.862547</ele>
<time>2026-07-16T13:37:33.000Z</time>
</trkpt>
<trkpt lat="57.380979" lon="9.726364">
<ele>3.868452</ele>
<time>2026-07-16T13:37:34.000Z</time>
</trkpt>
<trkpt lat="57.380972" lon="9.726458">
<ele>3.874511</ele>
<time>2026-07-16T13:37:35.000Z</time>
</trkpt>
<trkpt lat="57.380964" lon="9.726556">
<ele>3.880841</ele>
<time>2026-07-16T13:37:36.000Z</time>
</trkpt>
<trkpt lat="57.380960" lon="9.726651">
<ele>3.886925</ele>
<time>2026-07-16T13:37:37.000Z</time>
</trkpt>
<trkpt lat="57.380959" lon="9.726747">
<ele>3.893057</ele>
<time>2026-07-16T13:37:38.000Z</time>
</trkpt>
<trkpt lat="57.380956" lon="9.726843">
<ele>3.899197</ele>
<time>2026-07-16T13:37:39.000Z</time>
</trkpt>
<trkpt lat="57.380952" lon="9.726935">
<ele>3.905091</ele>
<time>2026-07-16T13:37:40.000Z</time>
</trkpt>
<trkpt lat="57.380945" lon="9.727024">
<ele>3.910834</ele>
<time>2026-07-16T13:37:41.000Z</time>
</trkpt>
<trkpt lat="57.380938" lon="9.727115">
<ele>3.916704</ele>
<time>2026-07-16T13:37:42.000Z</time>
</trkpt>
<trkpt lat="57.380930" lon="9.727205">
<ele>3.922529</ele>
<time>2026-07-16T13:37:43.000Z</time>
</trkpt>
<trkpt lat="57.380920" lon="9.727291">
<ele>3.928146</ele>
<time>2026-07-16T13:37:44.000Z</time>
</trkpt>
<trkpt lat="57.380914" lon="9.727368">
<ele>3.933114</ele>
<time>2026-07-16T13:37:45.000Z</time>
</trkpt>
<trkpt lat="57.380904" lon="9.727433">
<ele>3.937431</ele>
<time>2026-07-16T13:37:46.000Z</time>
</trkpt>
<trkpt lat="57.380893" lon="9.727480">
<ele>3.940703</ele>
<time>2026-07-16T13:37:47.000Z</time>
</trkpt>
<trkpt lat="57.380879" lon="9.727516">
<ele>3.943537</ele>
<time>2026-07-16T13:37:48.000Z</time>
</trkpt>
<trkpt lat="57.380869" lon="9.727548">
<ele>3.945899</ele>
<time>2026-07-16T13:37:49.000Z</time>
</trkpt>
<trkpt lat="57.380870" lon="9.727580">
<ele>3.947946</ele>
<time>2026-07-16T13:37:50.000Z</time>
</trkpt>
<trkpt lat="57.380879" lon="9.727604">
<ele>3.949813</ele>
<time>2026-07-16T13:37:51.000Z</time>
</trkpt>
<trkpt lat="57.380891" lon="9.727605">
<ele>3.951236</ele>
<time>2026-07-16T13:37:52.000Z</time>
</trkpt>
<trkpt lat="57.380897" lon="9.727585">
<ele>3.952697</ele>
<time>2026-07-16T13:37:53.000Z</time>
</trkpt>
<trkpt lat="57.380898" lon="9.727548">
<ele>3.955063</ele>
<time>2026-07-16T13:37:54.000Z</time>
</trkpt>
<trkpt lat="57.380898" lon="9.727501">
<ele>3.958064</ele>
<time>2026-07-16T13:37:55.000Z</time>
</trkpt>
<trkpt lat="57.380900" lon="9.727445">
<ele>3.961648</ele>
<time>2026-07-16T13:37:56.000Z</time>
</trkpt>
<trkpt lat="57.380904" lon="9.727386">
<ele>3.965445</ele>
<time>2026-07-16T13:37:57.000Z</time>
</trkpt>
<trkpt lat="57.380911" lon="9.727327">
<ele>3.969303</ele>
<time>2026-07-16T13:37:58.000Z</time>
</trkpt>
<trkpt lat="57.380921" lon="9.727268">
<ele>3.973252</ele>
<time>2026-07-16T13:37:59.000Z</time>
</trkpt>
<trkpt lat="57.380930" lon="9.727206">
<ele>3.977352</ele>
<time>2026-07-16T13:38:00.000Z</time>
</trkpt>
<trkpt lat="57.380938" lon="9.727142">
<ele>3.981547</ele>
<time>2026-07-16T13:38:01.000Z</time>
</trkpt>
<trkpt lat="57.380942" lon="9.727080">
<ele>3.985535</ele>
<time>2026-07-16T13:38:02.000Z</time>
</trkpt>
<trkpt lat="57.380949" lon="9.727017">
<ele>3.989642</ele>
<time>2026-07-16T13:38:03.000Z</time>
</trkpt>
<trkpt lat="57.380957" lon="9.726956">
<ele>3.993651</ele>
<time>2026-07-16T13:38:04.000Z</time>
</trkpt>
<trkpt lat="57.380959" lon="9.726895">
<ele>3.997553</ele>
<time>2026-07-16T13:38:05.000Z</time>
</trkpt>
<trkpt lat="57.380961" lon="9.726833">
<ele>4.001519</ele>
<time>2026-07-16T13:38:06.000Z</time>
</trkpt>
<trkpt lat="57.380965" lon="9.726773">
<ele>4.005380</ele>
<time>2026-07-16T13:38:07.000Z</time>
</trkpt>
<trkpt lat="57.380969" lon="9.726714">
<ele>4.009177</ele>
<time>2026-07-16T13:38:08.000Z</time>
</trkpt>
<trkpt lat="57.380970" lon="9.726663">
<ele>4.012436</ele>
<time>2026-07-16T13:38:09.000Z</time>
</trkpt>
<trkpt lat="57.380962" lon="9.726629">
<ele>4.014805</ele>
<time>2026-07-16T13:38:10.000Z</time>
</trkpt>
<trkpt lat="57.380950" lon="9.726620">
<ele>4.016338</ele>
<time>2026-07-16T13:38:11.000Z</time>
</trkpt>
<trkpt lat="57.380942" lon="9.726624">
<ele>4.017320</ele>
<time>2026-07-16T13:38:12.000Z</time>
</trkpt>
<trkpt lat="57.380940" lon="9.726626">
<ele>4.017589</ele>
<time>2026-07-16T13:38:13.000Z</time>
</trkpt>
<trkpt lat="57.380937" lon="9.726629">
<ele>4.017993</ele>
<time>2026-07-16T13:38:15.000Z</time>
</trkpt>
<trkpt lat="57.380936" lon="9.726630">
<ele>4.018127</ele>
<time>2026-07-16T13:38:16.000Z</time>
</trkpt>
<trkpt lat="57.380933" lon="9.726653">
<ele>4.019638</ele>
<time>2026-07-16T13:38:32.000Z</time>
</trkpt>
<trkpt lat="57.380932" lon="9.726658">
<ele>4.019979</ele>
<time>2026-07-16T13:38:33.000Z</time>
</trkpt>
<trkpt lat="57.380932" lon="9.726661">
<ele>4.020170</ele>
<time>2026-07-16T13:38:34.000Z</time>
</trkpt>
<trkpt lat="57.380932" lon="9.726663">
<ele>4.020298</ele>
<time>2026-07-16T13:38:35.000Z</time>
</trkpt>
<trkpt lat="57.380932" lon="9.726664">
<ele>4.020362</ele>
<time>2026-07-16T13:38:36.000Z</time>
</trkpt>
<trkpt lat="57.380940" lon="9.726740">
<ele>4.025307</ele>
<time>2026-07-16T13:39:01.000Z</time>
</trkpt>
<trkpt lat="57.380942" lon="9.726781">
<ele>4.027935</ele>
<time>2026-07-16T13:39:02.000Z</time>
</trkpt>
<trkpt lat="57.380943" lon="9.726824">
<ele>4.030684</ele>
<time>2026-07-16T13:39:03.000Z</time>
</trkpt>
<trkpt lat="57.380946" lon="9.726876">
<ele>4.034023</ele>
<time>2026-07-16T13:39:04.000Z</time>
</trkpt>
<trkpt lat="57.380947" lon="9.726930">
<ele>4.037473</ele>
<time>2026-07-16T13:39:05.000Z</time>
</trkpt>
<trkpt lat="57.380945" lon="9.726987">
<ele>4.041121</ele>
<time>2026-07-16T13:39:06.000Z</time>
</trkpt>
<trkpt lat="57.380943" lon="9.727054">
<ele>4.045406</ele>
<time>2026-07-16T13:39:07.000Z</time>
</trkpt>
<trkpt lat="57.380941" lon="9.727119">
<ele>4.033119</ele>
<time>2026-07-16T13:39:08.000Z</time>
</trkpt>
<trkpt lat="57.380937" lon="9.727187">
<ele>4.013934</ele>
<time>2026-07-16T13:39:09.000Z</time>
</trkpt>
<trkpt lat="57.380933" lon="9.727257">
<ele>3.994192</ele>
<time>2026-07-16T13:39:10.000Z</time>
</trkpt>
<trkpt lat="57.380923" lon="9.727328">
<ele>3.973610</ele>
<time>2026-07-16T13:39:11.000Z</time>
</trkpt>
<trkpt lat="57.380915" lon="9.727402">
<ele>3.952442</ele>
<time>2026-07-16T13:39:12.000Z</time>
</trkpt>
<trkpt lat="57.380907" lon="9.727475">
<ele>3.931550</ele>
<time>2026-07-16T13:39:13.000Z</time>
</trkpt>
<trkpt lat="57.380894" lon="9.727550">
<ele>3.909454</ele>
<time>2026-07-16T13:39:14.000Z</time>
</trkpt>
<trkpt lat="57.380882" lon="9.727624">
<ele>3.887781</ele>
<time>2026-07-16T13:39:15.000Z</time>
</trkpt>
<trkpt lat="57.380865" lon="9.727696">
<ele>3.865735</ele>
<time>2026-07-16T13:39:16.000Z</time>
</trkpt>
<trkpt lat="57.380848" lon="9.727770">
<ele>3.843174</ele>
<time>2026-07-16T13:39:17.000Z</time>
</trkpt>
<trkpt lat="57.380830" lon="9.727847">
<ele>3.819635</ele>
<time>2026-07-16T13:39:18.000Z</time>
</trkpt>
<trkpt lat="57.380814" lon="9.727923">
<ele>3.796751</ele>
<time>2026-07-16T13:39:19.000Z</time>
</trkpt>
<trkpt lat="57.380801" lon="9.728003">
<ele>3.773317</ele>
<time>2026-07-16T13:39:20.000Z</time>
</trkpt>
<trkpt lat="57.380787" lon="9.728079">
<ele>3.750791</ele>
<time>2026-07-16T13:39:21.000Z</time>
</trkpt>
<trkpt lat="57.380769" lon="9.728157">
<ele>3.726994</ele>
<time>2026-07-16T13:39:22.000Z</time>
</trkpt>
<trkpt lat="57.380753" lon="9.728237">
<ele>3.703062</ele>
<time>2026-07-16T13:39:23.000Z</time>
</trkpt>
<trkpt lat="57.380738" lon="9.728317">
<ele>3.679306</ele>
<time>2026-07-16T13:39:24.000Z</time>
</trkpt>
<trkpt lat="57.380723" lon="9.728395">
<ele>3.656079</ele>
<time>2026-07-16T13:39:25.000Z</time>
</trkpt>
<trkpt lat="57.380707" lon="9.728479">
<ele>3.631092</ele>
<time>2026-07-16T13:39:26.000Z</time>
</trkpt>
<trkpt lat="57.380692" lon="9.728560">
<ele>3.607071</ele>
<time>2026-07-16T13:39:27.000Z</time>
</trkpt>
<trkpt lat="57.380674" lon="9.728637">
<ele>3.583532</ele>
<time>2026-07-16T13:39:28.000Z</time>
</trkpt>
<trkpt lat="57.380652" lon="9.728719">
<ele>3.557843</ele>
<time>2026-07-16T13:39:29.000Z</time>
</trkpt>
<trkpt lat="57.380626" lon="9.728802">
<ele>3.530918</ele>
<time>2026-07-16T13:39:30.000Z</time>
</trkpt>
<trkpt lat="57.380599" lon="9.728881">
<ele>3.504683</ele>
<time>2026-07-16T13:39:31.000Z</time>
</trkpt>
<trkpt lat="57.380570" lon="9.728960">
<ele>3.477877</ele>
<time>2026-07-16T13:39:32.000Z</time>
</trkpt>
<trkpt lat="57.380534" lon="9.729036">
<ele>3.449501</ele>
<time>2026-07-16T13:39:33.000Z</time>
</trkpt>
<trkpt lat="57.380496" lon="9.729109">
<ele>3.421038</ele>
<time>2026-07-16T13:39:34.000Z</time>
</trkpt>
<trkpt lat="57.380455" lon="9.729179">
<ele>3.392047</ele>
<time>2026-07-16T13:39:35.000Z</time>
</trkpt>
<trkpt lat="57.380416" lon="9.729249">
<ele>3.363812</ele>
<time>2026-07-16T13:39:36.000Z</time>
</trkpt>
<trkpt lat="57.380378" lon="9.729320">
<ele>3.335751</ele>
<time>2026-07-16T13:39:37.000Z</time>
</trkpt>
<trkpt lat="57.380337" lon="9.729387">
<ele>3.307322</ele>
<time>2026-07-16T13:39:38.000Z</time>
</trkpt>
<trkpt lat="57.380294" lon="9.729458">
<ele>3.277371</ele>
<time>2026-07-16T13:39:39.000Z</time>
</trkpt>
<trkpt lat="57.380250" lon="9.729532">
<ele>3.246470</ele>
<time>2026-07-16T13:39:40.000Z</time>
</trkpt>
<trkpt lat="57.380210" lon="9.729609">
<ele>3.216478</ele>
<time>2026-07-16T13:39:41.000Z</time>
</trkpt>
<trkpt lat="57.380177" lon="9.729689">
<ele>3.188224</ele>
<time>2026-07-16T13:39:42.000Z</time>
</trkpt>
<trkpt lat="57.380150" lon="9.729767">
<ele>3.162226</ele>
<time>2026-07-16T13:39:43.000Z</time>
</trkpt>
<trkpt lat="57.380128" lon="9.729852">
<ele>3.135780</ele>
<time>2026-07-16T13:39:44.000Z</time>
</trkpt>
<trkpt lat="57.380109" lon="9.729939">
<ele>3.110665</ele>
<time>2026-07-16T13:39:45.000Z</time>
</trkpt>
<trkpt lat="57.380093" lon="9.730028">
<ele>3.110199</ele>
<time>2026-07-16T13:39:46.000Z</time>
</trkpt>
<trkpt lat="57.380080" lon="9.730119">
<ele>3.109733</ele>
<time>2026-07-16T13:39:47.000Z</time>
</trkpt>
<trkpt lat="57.380072" lon="9.730213">
<ele>3.109261</ele>
<time>2026-07-16T13:39:48.000Z</time>
</trkpt>
<trkpt lat="57.380064" lon="9.730308">
<ele>3.108784</ele>
<time>2026-07-16T13:39:49.000Z</time>
</trkpt>
<trkpt lat="57.380056" lon="9.730402">
<ele>3.108313</ele>
<time>2026-07-16T13:39:50.000Z</time>
</trkpt>
<trkpt lat="57.380049" lon="9.730496">
<ele>3.107842</ele>
<time>2026-07-16T13:39:51.000Z</time>
</trkpt>
<trkpt lat="57.380038" lon="9.730589">
<ele>3.107370</ele>
<time>2026-07-16T13:39:52.000Z</time>
</trkpt>
<trkpt lat="57.380027" lon="9.730681">
<ele>3.106903</ele>
<time>2026-07-16T13:39:53.000Z</time>
</trkpt>
<trkpt lat="57.380018" lon="9.730773">
<ele>3.106440</ele>
<time>2026-07-16T13:39:54.000Z</time>
</trkpt>
<trkpt lat="57.380011" lon="9.730862">
<ele>3.105994</ele>
<time>2026-07-16T13:39:55.000Z</time>
</trkpt>
<trkpt lat="57.380003" lon="9.730958">
<ele>3.105512</ele>
<time>2026-07-16T13:39:56.000Z</time>
</trkpt>
<trkpt lat="57.379995" lon="9.731052">
<ele>3.105041</ele>
<time>2026-07-16T13:39:57.000Z</time>
</trkpt>
<trkpt lat="57.379985" lon="9.731145">
<ele>3.104570</ele>
<time>2026-07-16T13:39:58.000Z</time>
</trkpt>
<trkpt lat="57.379977" lon="9.731242">
<ele>3.104084</ele>
<time>2026-07-16T13:39:59.000Z</time>
</trkpt>
<trkpt lat="57.379969" lon="9.731338">
<ele>3.103602</ele>
<time>2026-07-16T13:40:00.000Z</time>
</trkpt>
<trkpt lat="57.379959" lon="9.731429">
<ele>3.103142</ele>
<time>2026-07-16T13:40:01.000Z</time>
</trkpt>
<trkpt lat="57.379950" lon="9.731523">
<ele>3.102669</ele>
<time>2026-07-16T13:40:02.000Z</time>
</trkpt>
<trkpt lat="57.379939" lon="9.731613">
<ele>3.102211</ele>
<time>2026-07-16T13:40:03.000Z</time>
</trkpt>
<trkpt lat="57.379925" lon="9.731705">
<ele>3.101738</ele>
<time>2026-07-16T13:40:04.000Z</time>
</trkpt>
<trkpt lat="57.379910" lon="9.731797">
<ele>3.101261</ele>
<time>2026-07-16T13:40:05.000Z</time>
</trkpt>
<trkpt lat="57.379894" lon="9.731886">
<ele>3.100796</ele>
<time>2026-07-16T13:40:06.000Z</time>
</trkpt>
<trkpt lat="57.379882" lon="9.731974">
<ele>3.100346</ele>
<time>2026-07-16T13:40:07.000Z</time>
</trkpt>
<trkpt lat="57.379868" lon="9.732064">
<ele>3.099882</ele>
<time>2026-07-16T13:40:08.000Z</time>
</trkpt>
<trkpt lat="57.379852" lon="9.732150">
<ele>3.099431</ele>
<time>2026-07-16T13:40:09.000Z</time>
</trkpt>
<trkpt lat="57.379840" lon="9.732237">
<ele>3.098986</ele>
<time>2026-07-16T13:40:10.000Z</time>
</trkpt>
<trkpt lat="57.379826" lon="9.732323">
<ele>3.098540</ele>
<time>2026-07-16T13:40:11.000Z</time>
</trkpt>
<trkpt lat="57.379811" lon="9.732413">
<ele>3.098073</ele>
<time>2026-07-16T13:40:12.000Z</time>
</trkpt>
<trkpt lat="57.379795" lon="9.732502">
<ele>3.097608</ele>
<time>2026-07-16T13:40:13.000Z</time>
</trkpt>
<trkpt lat="57.379780" lon="9.732590">
<ele>3.097151</ele>
<time>2026-07-16T13:40:14.000Z</time>
</trkpt>
<trkpt lat="57.379762" lon="9.732677">
<ele>3.096689</ele>
<time>2026-07-16T13:40:15.000Z</time>
</trkpt>
<trkpt lat="57.379746" lon="9.732765">
<ele>3.096228</ele>
<time>2026-07-16T13:40:16.000Z</time>
</trkpt>
<trkpt lat="57.379728" lon="9.732851">
<ele>3.095771</ele>
<time>2026-07-16T13:40:17.000Z</time>
</trkpt>
<trkpt lat="57.379709" lon="9.732937">
<ele>3.095310</ele>
<time>2026-07-16T13:40:18.000Z</time>
</trkpt>
<trkpt lat="57.379692" lon="9.733026">
<ele>3.094842</ele>
<time>2026-07-16T13:40:19.000Z</time>
</trkpt>
<trkpt lat="57.379674" lon="9.733113">
<ele>3.094380</ele>
<time>2026-07-16T13:40:20.000Z</time>
</trkpt>
<trkpt lat="57.379655" lon="9.733199">
<ele>3.099695</ele>
<time>2026-07-16T13:40:21.000Z</time>
</trkpt>
<trkpt lat="57.379633" lon="9.733284">
<ele>3.111124</ele>
<time>2026-07-16T13:40:22.000Z</time>
</trkpt>
<trkpt lat="57.379613" lon="9.733371">
<ele>3.122587</ele>
<time>2026-07-16T13:40:23.000Z</time>
</trkpt>
<trkpt lat="57.379594" lon="9.733458">
<ele>3.133964</ele>
<time>2026-07-16T13:40:24.000Z</time>
</trkpt>
<trkpt lat="57.379578" lon="9.733544">
<ele>3.144991</ele>
<time>2026-07-16T13:40:25.000Z</time>
</trkpt>
<trkpt lat="57.379561" lon="9.733627">
<ele>3.155752</ele>
<time>2026-07-16T13:40:26.000Z</time>
</trkpt>
<trkpt lat="57.379541" lon="9.733716">
<ele>3.167439</ele>
<time>2026-07-16T13:40:27.000Z</time>
</trkpt>
<trkpt lat="57.379522" lon="9.733801">
<ele>3.178592</ele>
<time>2026-07-16T13:40:28.000Z</time>
</trkpt>
<trkpt lat="57.379503" lon="9.733889">
<ele>3.190081</ele>
<time>2026-07-16T13:40:29.000Z</time>
</trkpt>
<trkpt lat="57.379484" lon="9.733976">
<ele>3.201459</ele>
<time>2026-07-16T13:40:30.000Z</time>
</trkpt>
<trkpt lat="57.379465" lon="9.734064">
<ele>3.212948</ele>
<time>2026-07-16T13:40:31.000Z</time>
</trkpt>
<trkpt lat="57.379445" lon="9.734154">
<ele>3.224747</ele>
<time>2026-07-16T13:40:32.000Z</time>
</trkpt>
<trkpt lat="57.379429" lon="9.734245">
<ele>3.236348</ele>
<time>2026-07-16T13:40:33.000Z</time>
</trkpt>
<trkpt lat="57.379414" lon="9.734335">
<ele>3.247766</ele>
<time>2026-07-16T13:40:34.000Z</time>
</trkpt>
<trkpt lat="57.379396" lon="9.734427">
<ele>3.259628</ele>
<time>2026-07-16T13:40:35.000Z</time>
</trkpt>
<trkpt lat="57.379377" lon="9.734516">
<ele>3.271231</ele>
<time>2026-07-16T13:40:36.000Z</time>
</trkpt>
<trkpt lat="57.379361" lon="9.734608">
<ele>3.282947</ele>
<time>2026-07-16T13:40:37.000Z</time>
</trkpt>
<trkpt lat="57.379340" lon="9.734702">
<ele>3.295280</ele>
<time>2026-07-16T13:40:38.000Z</time>
</trkpt>
<trkpt lat="57.379320" lon="9.734795">
<ele>3.307416</ele>
<time>2026-07-16T13:40:39.000Z</time>
</trkpt>
<trkpt lat="57.379300" lon="9.734889">
<ele>3.319664</ele>
<time>2026-07-16T13:40:40.000Z</time>
</trkpt>
<trkpt lat="57.379282" lon="9.734978">
<ele>3.331186</ele>
<time>2026-07-16T13:40:41.000Z</time>
</trkpt>
<trkpt lat="57.379260" lon="9.735068">
<ele>3.343163</ele>
<time>2026-07-16T13:40:42.000Z</time>
</trkpt>
<trkpt lat="57.379237" lon="9.735157">
<ele>3.355126</ele>
<time>2026-07-16T13:40:43.000Z</time>
</trkpt>
<trkpt lat="57.379216" lon="9.735244">
<ele>3.366679</ele>
<time>2026-07-16T13:40:44.000Z</time>
</trkpt>
<trkpt lat="57.379195" lon="9.735329">
<ele>3.378012</ele>
<time>2026-07-16T13:40:45.000Z</time>
</trkpt>
<trkpt lat="57.379175" lon="9.735417">
<ele>3.389587</ele>
<time>2026-07-16T13:40:46.000Z</time>
</trkpt>
<trkpt lat="57.379155" lon="9.735504">
<ele>3.401051</ele>
<time>2026-07-16T13:40:47.000Z</time>
</trkpt>
<trkpt lat="57.379134" lon="9.735586">
<ele>3.412054</ele>
<time>2026-07-16T13:40:48.000Z</time>
</trkpt>
<trkpt lat="57.379114" lon="9.735673">
<ele>3.423517</ele>
<time>2026-07-16T13:40:49.000Z</time>
</trkpt>
<trkpt lat="57.379092" lon="9.735759">
<ele>3.435055</ele>
<time>2026-07-16T13:40:50.000Z</time>
</trkpt>
<trkpt lat="57.379066" lon="9.735846">
<ele>3.447112</ele>
<time>2026-07-16T13:40:51.000Z</time>
</trkpt>
<trkpt lat="57.379042" lon="9.735928">
<ele>3.458421</ele>
<time>2026-07-16T13:40:52.000Z</time>
</trkpt>
<trkpt lat="57.379016" lon="9.736010">
<ele>3.469951</ele>
<time>2026-07-16T13:40:53.000Z</time>
</trkpt>
<trkpt lat="57.378992" lon="9.736094">
<ele>3.481474</ele>
<time>2026-07-16T13:40:54.000Z</time>
</trkpt>
<trkpt lat="57.378969" lon="9.736179">
<ele>3.493002</ele>
<time>2026-07-16T13:40:55.000Z</time>
</trkpt>
<trkpt lat="57.378947" lon="9.736264">
<ele>3.515194</ele>
<time>2026-07-16T13:40:56.000Z</time>
</trkpt>
<trkpt lat="57.378927" lon="9.736353">
<ele>3.548263</ele>
<time>2026-07-16T13:40:57.000Z</time>
</trkpt>
<trkpt lat="57.378905" lon="9.736439">
<ele>3.580911</ele>
<time>2026-07-16T13:40:58.000Z</time>
</trkpt>
<trkpt lat="57.378885" lon="9.736526">
<ele>3.613348</ele>
<time>2026-07-16T13:40:59.000Z</time>
</trkpt>
<trkpt lat="57.378862" lon="9.736615">
<ele>3.647198</ele>
<time>2026-07-16T13:41:00.000Z</time>
</trkpt>
<trkpt lat="57.378843" lon="9.736703">
<ele>3.679710</ele>
<time>2026-07-16T13:41:01.000Z</time>
</trkpt>
<trkpt lat="57.378824" lon="9.736791">
<ele>3.712222</ele>
<time>2026-07-16T13:41:02.000Z</time>
</trkpt>
<trkpt lat="57.378804" lon="9.736882">
<ele>3.745926</ele>
<time>2026-07-16T13:41:03.000Z</time>
</trkpt>
<trkpt lat="57.378786" lon="9.736973">
<ele>3.779170</ele>
<time>2026-07-16T13:41:04.000Z</time>
</trkpt>
<trkpt lat="57.378769" lon="9.737066">
<ele>3.812850</ele>
<time>2026-07-16T13:41:05.000Z</time>
</trkpt>
<trkpt lat="57.378751" lon="9.737158">
<ele>3.846416</ele>
<time>2026-07-16T13:41:06.000Z</time>
</trkpt>
<trkpt lat="57.378732" lon="9.737249">
<ele>3.879885</ele>
<time>2026-07-16T13:41:07.000Z</time>
</trkpt>
<trkpt lat="57.378716" lon="9.737342">
<ele>3.913366</ele>
<time>2026-07-16T13:41:08.000Z</time>
</trkpt>
<trkpt lat="57.378701" lon="9.737439">
<ele>3.947976</ele>
<time>2026-07-16T13:41:09.000Z</time>
</trkpt>
<trkpt lat="57.378685" lon="9.737534">
<ele>3.982111</ele>
<time>2026-07-16T13:41:10.000Z</time>
</trkpt>
<trkpt lat="57.378676" lon="9.737624">
<ele>4.013504</ele>
<time>2026-07-16T13:41:11.000Z</time>
</trkpt>
<trkpt lat="57.378665" lon="9.737710">
<ele>4.043818</ele>
<time>2026-07-16T13:41:12.000Z</time>
</trkpt>
<trkpt lat="57.378654" lon="9.737796">
<ele>4.074132</ele>
<time>2026-07-16T13:41:13.000Z</time>
</trkpt>
<trkpt lat="57.378645" lon="9.737882">
<ele>4.104178</ele>
<time>2026-07-16T13:41:14.000Z</time>
</trkpt>
<trkpt lat="57.378638" lon="9.737970">
<ele>4.134686</ele>
<time>2026-07-16T13:41:15.000Z</time>
</trkpt>
<trkpt lat="57.378630" lon="9.738062">
<ele>4.166647</ele>
<time>2026-07-16T13:41:16.000Z</time>
</trkpt>
<trkpt lat="57.378625" lon="9.738156">
<ele>4.199042</ele>
<time>2026-07-16T13:41:17.000Z</time>
</trkpt>
<trkpt lat="57.378621" lon="9.738250">
<ele>4.231382</ele>
<time>2026-07-16T13:41:18.000Z</time>
</trkpt>
<trkpt lat="57.378617" lon="9.738343">
<ele>4.263379</ele>
<time>2026-07-16T13:41:19.000Z</time>
</trkpt>
<trkpt lat="57.378614" lon="9.738441">
<ele>4.297044</ele>
<time>2026-07-16T13:41:20.000Z</time>
</trkpt>
<trkpt lat="57.378607" lon="9.738537">
<ele>4.330269</ele>
<time>2026-07-16T13:41:21.000Z</time>
</trkpt>
<trkpt lat="57.378602" lon="9.738632">
<ele>4.363005</ele>
<time>2026-07-16T13:41:22.000Z</time>
</trkpt>
<trkpt lat="57.378598" lon="9.738723">
<ele>4.394319</ele>
<time>2026-07-16T13:41:23.000Z</time>
</trkpt>
<trkpt lat="57.378595" lon="9.738814">
<ele>4.425587</ele>
<time>2026-07-16T13:41:24.000Z</time>
</trkpt>
<trkpt lat="57.378588" lon="9.738902">
<ele>4.456095</ele>
<time>2026-07-16T13:41:25.000Z</time>
</trkpt>
<trkpt lat="57.378586" lon="9.738990">
<ele>4.486303</ele>
<time>2026-07-16T13:41:26.000Z</time>
</trkpt>
<trkpt lat="57.378583" lon="9.739077">
<ele>4.516202</ele>
<time>2026-07-16T13:41:27.000Z</time>
</trkpt>
<trkpt lat="57.378576" lon="9.739158">
<ele>4.544338</ele>
<time>2026-07-16T13:41:28.000Z</time>
</trkpt>
<trkpt lat="57.378569" lon="9.739234">
<ele>4.570781</ele>
<time>2026-07-16T13:41:29.000Z</time>
</trkpt>
<trkpt lat="57.378558" lon="9.739300">
<ele>4.594474</ele>
<time>2026-07-16T13:41:30.000Z</time>
</trkpt>
<trkpt lat="57.378547" lon="9.739357">
<ele>4.615238</ele>
<time>2026-07-16T13:41:31.000Z</time>
</trkpt>
<trkpt lat="57.378535" lon="9.739406">
<ele>4.633696</ele>
<time>2026-07-16T13:41:32.000Z</time>
</trkpt>
<trkpt lat="57.378521" lon="9.739446">
<ele>4.645423</ele>
<time>2026-07-16T13:41:33.000Z</time>
</trkpt>
<trkpt lat="57.378503" lon="9.739480">
<ele>4.651262</ele>
<time>2026-07-16T13:41:34.000Z</time>
</trkpt>
<trkpt lat="57.378487" lon="9.739517">
<ele>4.657075</ele>
<time>2026-07-16T13:41:35.000Z</time>
</trkpt>
<trkpt lat="57.378472" lon="9.739549">
<ele>4.662271</ele>
<time>2026-07-16T13:41:36.000Z</time>
</trkpt>
<trkpt lat="57.378456" lon="9.739574">
<ele>4.667027</ele>
<time>2026-07-16T13:41:37.000Z</time>
</trkpt>
<trkpt lat="57.378442" lon="9.739589">
<ele>4.670702</ele>
<time>2026-07-16T13:41:38.000Z</time>
</trkpt>
<trkpt lat="57.378426" lon="9.739600">
<ele>4.674581</ele>
<time>2026-07-16T13:41:39.000Z</time>
</trkpt>
<trkpt lat="57.378411" lon="9.739607">
<ele>4.678097</ele>
<time>2026-07-16T13:41:40.000Z</time>
</trkpt>
<trkpt lat="57.378407" lon="9.739609">
<ele>4.679038</ele>
<time>2026-07-16T13:41:41.000Z</time>
</trkpt>
<trkpt lat="57.378378" lon="9.739640">
<ele>4.686647</ele>
<time>2026-07-16T13:41:54.000Z</time>
</trkpt>
<trkpt lat="57.378373" lon="9.739647">
<ele>4.688071</ele>
<time>2026-07-16T13:41:55.000Z</time>
</trkpt>
<trkpt lat="57.378372" lon="9.739651">
<ele>4.688611</ele>
<time>2026-07-16T13:41:56.000Z</time>
</trkpt>
<trkpt lat="57.378369" lon="9.739655">
<ele>4.689451</ele>
<time>2026-07-16T13:41:57.000Z</time>
</trkpt>
<trkpt lat="57.378368" lon="9.739655">
<ele>4.689678</ele>
<time>2026-07-16T13:41:58.000Z</time>
</trkpt>
<trkpt lat="57.378368" lon="9.739655">
<ele>4.689678</ele>
<time>2026-07-16T13:41:59.000Z</time>
</trkpt>
<trkpt lat="57.378368" lon="9.739655">
<ele>4.689678</ele>
<time>2026-07-16T13:42:00.000Z</time>
</trkpt>
<trkpt lat="57.378357" lon="9.739670">
<ele>4.692782</ele>
<time>2026-07-16T13:42:07.000Z</time>
</trkpt>
<trkpt lat="57.378345" lon="9.739691">
<ele>4.696532</ele>
<time>2026-07-16T13:42:08.000Z</time>
</trkpt>
<trkpt lat="57.378333" lon="9.739724">
<ele>4.701410</ele>
<time>2026-07-16T13:42:09.000Z</time>
</trkpt>
<trkpt lat="57.378325" lon="9.739764">
<ele>4.706638</ele>
<time>2026-07-16T13:42:10.000Z</time>
</trkpt>
<trkpt lat="57.378320" lon="9.739817">
<ele>4.713231</ele>
<time>2026-07-16T13:42:11.000Z</time>
</trkpt>
<trkpt lat="57.378322" lon="9.739876">
<ele>4.720476</ele>
<time>2026-07-16T13:42:12.000Z</time>
</trkpt>
<trkpt lat="57.378328" lon="9.739936">
<ele>4.727954</ele>
<time>2026-07-16T13:42:13.000Z</time>
</trkpt>
<trkpt lat="57.378342" lon="9.739996">
<ele>4.735966</ele>
<time>2026-07-16T13:42:14.000Z</time>
</trkpt>
<trkpt lat="57.378363" lon="9.740065">
<ele>4.745676</ele>
<time>2026-07-16T13:42:15.000Z</time>
</trkpt>
<trkpt lat="57.378384" lon="9.740127">
<ele>4.754649</ele>
<time>2026-07-16T13:42:16.000Z</time>
</trkpt>
<trkpt lat="57.378402" lon="9.740191">
<ele>4.763494</ele>
<time>2026-07-16T13:42:17.000Z</time>
</trkpt>
<trkpt lat="57.378417" lon="9.740254">
<ele>4.771934</ele>
<time>2026-07-16T13:42:18.000Z</time>
</trkpt>
<trkpt lat="57.378433" lon="9.740323">
<ele>4.781139</ele>
<time>2026-07-16T13:42:19.000Z</time>
</trkpt>
<trkpt lat="57.378451" lon="9.740389">
<ele>4.790203</ele>
<time>2026-07-16T13:42:20.000Z</time>
</trkpt>
<trkpt lat="57.378470" lon="9.740456">
<ele>4.799480</ele>
<time>2026-07-16T13:42:21.000Z</time>
</trkpt>
<trkpt lat="57.378492" lon="9.740526">
<ele>4.809409</ele>
<time>2026-07-16T13:42:22.000Z</time>
</trkpt>
<trkpt lat="57.378509" lon="9.740599">
<ele>4.819154</ele>
<time>2026-07-16T13:42:23.000Z</time>
</trkpt>
<trkpt lat="57.378524" lon="9.740671">
<ele>4.828613</ele>
<time>2026-07-16T13:42:24.000Z</time>
</trkpt>
<trkpt lat="57.378541" lon="9.740739">
<ele>4.837798</ele>
<time>2026-07-16T13:42:25.000Z</time>
</trkpt>
<trkpt lat="57.378561" lon="9.740815">
<ele>4.848162</ele>
<time>2026-07-16T13:42:26.000Z</time>
</trkpt>
<trkpt lat="57.378578" lon="9.740891">
<ele>4.858245</ele>
<time>2026-07-16T13:42:27.000Z</time>
</trkpt>
<trkpt lat="57.378595" lon="9.740963">
<ele>4.867877</ele>
<time>2026-07-16T13:42:28.000Z</time>
</trkpt>
<trkpt lat="57.378614" lon="9.741038">
<ele>4.878032</ele>
<time>2026-07-16T13:42:29.000Z</time>
</trkpt>
<trkpt lat="57.378634" lon="9.741118">
<ele>4.888839</ele>
<time>2026-07-16T13:42:30.000Z</time>
</trkpt>
<trkpt lat="57.378653" lon="9.741193">
<ele>4.898993</ele>
<time>2026-07-16T13:42:31.000Z</time>
</trkpt>
<trkpt lat="57.378674" lon="9.741265">
<ele>4.909025</ele>
<time>2026-07-16T13:42:32.000Z</time>
</trkpt>
<trkpt lat="57.378694" lon="9.741342">
<ele>4.919499</ele>
<time>2026-07-16T13:42:33.000Z</time>
</trkpt>
<trkpt lat="57.378714" lon="9.741415">
<ele>4.929534</ele>
<time>2026-07-16T13:42:34.000Z</time>
</trkpt>
<trkpt lat="57.378731" lon="9.741482">
<ele>4.938608</ele>
<time>2026-07-16T13:42:35.000Z</time>
</trkpt>
<trkpt lat="57.378751" lon="9.741552">
<ele>4.948316</ele>
<time>2026-07-16T13:42:36.000Z</time>
</trkpt>
<trkpt lat="57.378771" lon="9.741624">
<ele>4.958242</ele>
<time>2026-07-16T13:42:37.000Z</time>
</trkpt>
<trkpt lat="57.378792" lon="9.741688">
<ele>4.967423</ele>
<time>2026-07-16T13:42:38.000Z</time>
</trkpt>
<trkpt lat="57.378813" lon="9.741755">
<ele>4.976920</ele>
<time>2026-07-16T13:42:39.000Z</time>
</trkpt>
<trkpt lat="57.378833" lon="9.741816">
<ele>4.985669</ele>
<time>2026-07-16T13:42:40.000Z</time>
</trkpt>
<trkpt lat="57.378854" lon="9.741884">
<ele>4.995272</ele>
<time>2026-07-16T13:42:41.000Z</time>
</trkpt>
<trkpt lat="57.378876" lon="9.741950">
<ele>5.004782</ele>
<time>2026-07-16T13:42:42.000Z</time>
</trkpt>
<trkpt lat="57.378902" lon="9.742011">
<ele>5.014311</ele>
<time>2026-07-16T13:42:43.000Z</time>
</trkpt>
<trkpt lat="57.378925" lon="9.742068">
<ele>5.023036</ele>
<time>2026-07-16T13:42:44.000Z</time>
</trkpt>
<trkpt lat="57.378946" lon="9.742129">
<ele>5.031905</ele>
<time>2026-07-16T13:42:45.000Z</time>
</trkpt>
<trkpt lat="57.378965" lon="9.742187">
<ele>5.040222</ele>
<time>2026-07-16T13:42:46.000Z</time>
</trkpt>
<trkpt lat="57.378978" lon="9.742234">
<ele>5.046695</ele>
<time>2026-07-16T13:42:47.000Z</time>
</trkpt>
<trkpt lat="57.378985" lon="9.742282">
<ele>5.049640</ele>
<time>2026-07-16T13:42:48.000Z</time>
</trkpt>
<trkpt lat="57.378989" lon="9.742330">
<ele>5.038225</ele>
<time>2026-07-16T13:42:49.000Z</time>
</trkpt>
<trkpt lat="57.378996" lon="9.742368">
<ele>5.028788</ele>
<time>2026-07-16T13:42:50.000Z</time>
</trkpt>
<trkpt lat="57.379009" lon="9.742394">
<ele>5.020455</ele>
<time>2026-07-16T13:42:51.000Z</time>
</trkpt>
<trkpt lat="57.379024" lon="9.742408">
<ele>5.013135</ele>
<time>2026-07-16T13:42:52.000Z</time>
</trkpt>
<trkpt lat="57.379034" lon="9.742414">
<ele>5.008553</ele>
<time>2026-07-16T13:42:53.000Z</time>
</trkpt>
<trkpt lat="57.379039" lon="9.742415">
<ele>5.006361</ele>
<time>2026-07-16T13:42:54.000Z</time>
</trkpt>
<trkpt lat="57.379067" lon="9.742418">
<ele>4.994134</ele>
<time>2026-07-16T13:42:58.000Z</time>
</trkpt>
<trkpt lat="57.379084" lon="9.742408">
<ele>4.986360</ele>
<time>2026-07-16T13:42:59.000Z</time>
</trkpt>
<trkpt lat="57.379103" lon="9.742379">
<ele>4.975634</ele>
<time>2026-07-16T13:43:00.000Z</time>
</trkpt>
<trkpt lat="57.379118" lon="9.742340">
<ele>4.964375</ele>
<time>2026-07-16T13:43:01.000Z</time>
</trkpt>
<trkpt lat="57.379138" lon="9.742286">
<ele>4.948979</ele>
<time>2026-07-16T13:43:02.000Z</time>
</trkpt>
<trkpt lat="57.379159" lon="9.742230">
<ele>4.932948</ele>
<time>2026-07-16T13:43:03.000Z</time>
</trkpt>
<trkpt lat="57.379181" lon="9.742170">
<ele>4.915895</ele>
<time>2026-07-16T13:43:04.000Z</time>
</trkpt>
<trkpt lat="57.379210" lon="9.742116">
<ele>4.897983</ele>
<time>2026-07-16T13:43:05.000Z</time>
</trkpt>
<trkpt lat="57.379240" lon="9.742079">
<ele>4.882278</ele>
<time>2026-07-16T13:43:06.000Z</time>
</trkpt>
<trkpt lat="57.379280" lon="9.742051">
<ele>4.863640</ele>
<time>2026-07-16T13:43:07.000Z</time>
</trkpt>
<trkpt lat="57.379323" lon="9.742032">
<ele>4.844371</ele>
<time>2026-07-16T13:43:08.000Z</time>
</trkpt>
<trkpt lat="57.379366" lon="9.742016">
<ele>4.825252</ele>
<time>2026-07-16T13:43:09.000Z</time>
</trkpt>
<trkpt lat="57.379410" lon="9.742003">
<ele>4.805830</ele>
<time>2026-07-16T13:43:10.000Z</time>
</trkpt>
<trkpt lat="57.379454" lon="9.741994">
<ele>4.786532</ele>
<time>2026-07-16T13:43:11.000Z</time>
</trkpt>
<trkpt lat="57.379502" lon="9.741991">
<ele>4.765596</ele>
<time>2026-07-16T13:43:12.000Z</time>
</trkpt>
<trkpt lat="57.379553" lon="9.741989">
<ele>4.743358</ele>
<time>2026-07-16T13:43:13.000Z</time>
</trkpt>
<trkpt lat="57.379604" lon="9.741985">
<ele>4.721106</ele>
<time>2026-07-16T13:43:14.000Z</time>
</trkpt>
<trkpt lat="57.379654" lon="9.741981">
<ele>4.699289</ele>
<time>2026-07-16T13:43:15.000Z</time>
</trkpt>
<trkpt lat="57.379708" lon="9.741979">
<ele>4.675744</ele>
<time>2026-07-16T13:43:16.000Z</time>
</trkpt>
<trkpt lat="57.379762" lon="9.741975">
<ele>4.652185</ele>
<time>2026-07-16T13:43:17.000Z</time>
</trkpt>
<trkpt lat="57.379814" lon="9.741968">
<ele>4.629457</ele>
<time>2026-07-16T13:43:18.000Z</time>
</trkpt>
<trkpt lat="57.379875" lon="9.741961">
<ele>4.602814</ele>
<time>2026-07-16T13:43:19.000Z</time>
</trkpt>
<trkpt lat="57.379936" lon="9.741955">
<ele>4.576185</ele>
<time>2026-07-16T13:43:20.000Z</time>
</trkpt>
<trkpt lat="57.379993" lon="9.741951">
<ele>4.551319</ele>
<time>2026-07-16T13:43:21.000Z</time>
</trkpt>
<trkpt lat="57.380052" lon="9.741947">
<ele>4.525582</ele>
<time>2026-07-16T13:43:22.000Z</time>
</trkpt>
<trkpt lat="57.380113" lon="9.741941">
<ele>4.498953</ele>
<time>2026-07-16T13:43:23.000Z</time>
</trkpt>
<trkpt lat="57.380172" lon="9.741935">
<ele>4.473194</ele>
<time>2026-07-16T13:43:24.000Z</time>
</trkpt>
<trkpt lat="57.380230" lon="9.741930">
<ele>4.447883</ele>
<time>2026-07-16T13:43:25.000Z</time>
</trkpt>
<trkpt lat="57.380293" lon="9.741925">
<ele>4.420394</ele>
<time>2026-07-16T13:43:26.000Z</time>
</trkpt>
<trkpt lat="57.380352" lon="9.741919">
<ele>4.394635</ele>
<time>2026-07-16T13:43:27.000Z</time>
</trkpt>
<trkpt lat="57.380409" lon="9.741911">
<ele>4.369716</ele>
<time>2026-07-16T13:43:28.000Z</time>
</trkpt>
<trkpt lat="57.380472" lon="9.741902">
<ele>4.342171</ele>
<time>2026-07-16T13:43:29.000Z</time>
</trkpt>
<trkpt lat="57.380532" lon="9.741894">
<ele>4.315948</ele>
<time>2026-07-16T13:43:30.000Z</time>
</trkpt>
<trkpt lat="57.380592" lon="9.741885">
<ele>4.289706</ele>
<time>2026-07-16T13:43:31.000Z</time>
</trkpt>
<trkpt lat="57.380653" lon="9.741875">
<ele>4.269912</ele>
<time>2026-07-16T13:43:32.000Z</time>
</trkpt>
<trkpt lat="57.380717" lon="9.741869">
<ele>4.283773</ele>
<time>2026-07-16T13:43:33.000Z</time>
</trkpt>
<trkpt lat="57.380782" lon="9.741865">
<ele>4.297841</ele>
<time>2026-07-16T13:43:34.000Z</time>
</trkpt>
<trkpt lat="57.380845" lon="9.741861">
<ele>4.311477</ele>
<time>2026-07-16T13:43:35.000Z</time>
</trkpt>
<trkpt lat="57.380908" lon="9.741857">
<ele>4.325113</ele>
<time>2026-07-16T13:43:36.000Z</time>
</trkpt>
<trkpt lat="57.380972" lon="9.741850">
<ele>4.338981</ele>
<time>2026-07-16T13:43:37.000Z</time>
</trkpt>
<trkpt lat="57.381033" lon="9.741845">
<ele>4.352189</ele>
<time>2026-07-16T13:43:38.000Z</time>
</trkpt>
<trkpt lat="57.381097" lon="9.741841">
<ele>4.366041</ele>
<time>2026-07-16T13:43:39.000Z</time>
</trkpt>
<trkpt lat="57.381156" lon="9.741839">
<ele>4.378806</ele>
<time>2026-07-16T13:43:40.000Z</time>
</trkpt>
<trkpt lat="57.381221" lon="9.741835">
<ele>4.392874</ele>
<time>2026-07-16T13:43:41.000Z</time>
</trkpt>
<trkpt lat="57.381285" lon="9.741829">
<ele>4.406735</ele>
<time>2026-07-16T13:43:42.000Z</time>
</trkpt>
<trkpt lat="57.381345" lon="9.741823">
<ele>4.419733</ele>
<time>2026-07-16T13:43:43.000Z</time>
</trkpt>
<trkpt lat="57.381409" lon="9.741816">
<ele>4.433601</ele>
<time>2026-07-16T13:43:44.000Z</time>
</trkpt>
<trkpt lat="57.381470" lon="9.741809">
<ele>4.446822</ele>
<time>2026-07-16T13:43:45.000Z</time>
</trkpt>
<trkpt lat="57.381530" lon="9.741801">
<ele>4.459834</ele>
<time>2026-07-16T13:43:46.000Z</time>
</trkpt>
<trkpt lat="57.381588" lon="9.741794">
<ele>4.472407</ele>
<time>2026-07-16T13:43:47.000Z</time>
</trkpt>
<trkpt lat="57.381647" lon="9.741788">
<ele>4.485188</ele>
<time>2026-07-16T13:43:48.000Z</time>
</trkpt>
<trkpt lat="57.381710" lon="9.741782">
<ele>4.498834</ele>
<time>2026-07-16T13:43:49.000Z</time>
</trkpt>
<trkpt lat="57.381774" lon="9.741776">
<ele>4.512696</ele>
<time>2026-07-16T13:43:50.000Z</time>
</trkpt>
<trkpt lat="57.381837" lon="9.741769">
<ele>4.526348</ele>
<time>2026-07-16T13:43:51.000Z</time>
</trkpt>
<trkpt lat="57.381898" lon="9.741763">
<ele>4.539562</ele>
<time>2026-07-16T13:43:52.000Z</time>
</trkpt>
<trkpt lat="57.381961" lon="9.741756">
<ele>4.553214</ele>
<time>2026-07-16T13:43:53.000Z</time>
</trkpt>
<trkpt lat="57.382016" lon="9.741751">
<ele>4.565125</ele>
<time>2026-07-16T13:43:54.000Z</time>
</trkpt>
<trkpt lat="57.382073" lon="9.741745">
<ele>4.577475</ele>
<time>2026-07-16T13:43:55.000Z</time>
</trkpt>
<trkpt lat="57.382138" lon="9.741737">
<ele>4.591566</ele>
<time>2026-07-16T13:43:56.000Z</time>
</trkpt>
<trkpt lat="57.382203" lon="9.741731">
<ele>4.605644</ele>
<time>2026-07-16T13:43:57.000Z</time>
</trkpt>
<trkpt lat="57.382265" lon="9.741726">
<ele>4.619068</ele>
<time>2026-07-16T13:43:58.000Z</time>
</trkpt>
<trkpt lat="57.382326" lon="9.741723">
<ele>4.632268</ele>
<time>2026-07-16T13:43:59.000Z</time>
</trkpt>
<trkpt lat="57.382378" lon="9.741722">
<ele>4.643517</ele>
<time>2026-07-16T13:44:00.000Z</time>
</trkpt>
<trkpt lat="57.382441" lon="9.741722">
<ele>4.657679</ele>
<time>2026-07-16T13:44:01.000Z</time>
</trkpt>
<trkpt lat="57.382512" lon="9.741724">
<ele>4.691258</ele>
<time>2026-07-16T13:44:02.000Z</time>
</trkpt>
<trkpt lat="57.382571" lon="9.741728">
<ele>4.719178</ele>
<time>2026-07-16T13:44:03.000Z</time>
</trkpt>
<trkpt lat="57.382632" lon="9.741733">
<ele>4.748053</ele>
<time>2026-07-16T13:44:04.000Z</time>
</trkpt>
<trkpt lat="57.382692" lon="9.741740">
<ele>4.776483</ele>
<time>2026-07-16T13:44:05.000Z</time>
</trkpt>
<trkpt lat="57.382752" lon="9.741746">
<ele>4.804898</ele>
<time>2026-07-16T13:44:06.000Z</time>
</trkpt>
<trkpt lat="57.382809" lon="9.741752">
<ele>4.831896</ele>
<time>2026-07-16T13:44:07.000Z</time>
</trkpt>
<trkpt lat="57.382865" lon="9.741753">
<ele>4.858379</ele>
<time>2026-07-16T13:44:08.000Z</time>
</trkpt>
<trkpt lat="57.382922" lon="9.741753">
<ele>4.885335</ele>
<time>2026-07-16T13:44:09.000Z</time>
</trkpt>
<trkpt lat="57.382978" lon="9.741757">
<ele>4.911836</ele>
<time>2026-07-16T13:44:10.000Z</time>
</trkpt>
<trkpt lat="57.383031" lon="9.741760">
<ele>4.936912</ele>
<time>2026-07-16T13:44:11.000Z</time>
</trkpt>
<trkpt lat="57.383088" lon="9.741763">
<ele>4.963878</ele>
<time>2026-07-16T13:44:12.000Z</time>
</trkpt>
<trkpt lat="57.383143" lon="9.741770">
<ele>4.989948</ele>
<time>2026-07-16T13:44:13.000Z</time>
</trkpt>
<trkpt lat="57.383198" lon="9.741778">
<ele>5.016037</ele>
<time>2026-07-16T13:44:14.000Z</time>
</trkpt>
<trkpt lat="57.383256" lon="9.741785">
<ele>5.043523</ele>
<time>2026-07-16T13:44:15.000Z</time>
</trkpt>
<trkpt lat="57.383314" lon="9.741792">
<ele>5.071009</ele>
<time>2026-07-16T13:44:16.000Z</time>
</trkpt>
<trkpt lat="57.383371" lon="9.741802">
<ele>5.098084</ele>
<time>2026-07-16T13:44:17.000Z</time>
</trkpt>
<trkpt lat="57.383423" lon="9.741812">
<ele>5.122807</ele>
<time>2026-07-16T13:44:18.000Z</time>
</trkpt>
<trkpt lat="57.383480" lon="9.741821">
<ele>5.149859</ele>
<time>2026-07-16T13:44:19.000Z</time>
</trkpt>
<trkpt lat="57.383546" lon="9.741829">
<ele>5.181137</ele>
<time>2026-07-16T13:44:20.000Z</time>
</trkpt>
<trkpt lat="57.383609" lon="9.741835">
<ele>5.210969</ele>
<time>2026-07-16T13:44:21.000Z</time>
</trkpt>
<trkpt lat="57.383670" lon="9.741841">
<ele>5.239856</ele>
<time>2026-07-16T13:44:22.000Z</time>
</trkpt>
<trkpt lat="57.383728" lon="9.741848">
<ele>5.267342</ele>
<time>2026-07-16T13:44:23.000Z</time>
</trkpt>
<trkpt lat="57.383788" lon="9.741855">
<ele>5.295772</ele>
<time>2026-07-16T13:44:24.000Z</time>
</trkpt>
<trkpt lat="57.383847" lon="9.741863">
<ele>5.323747</ele>
<time>2026-07-16T13:44:25.000Z</time>
</trkpt>
<trkpt lat="57.383907" lon="9.741871">
<ele>5.352194</ele>
<time>2026-07-16T13:44:26.000Z</time>
</trkpt>
<trkpt lat="57.383965" lon="9.741879">
<ele>5.379698</ele>
<time>2026-07-16T13:44:27.000Z</time>
</trkpt>
<trkpt lat="57.384022" lon="9.741888">
<ele>5.406750</ele>
<time>2026-07-16T13:44:28.000Z</time>
</trkpt>
<trkpt lat="57.384082" lon="9.741895">
<ele>5.435180</ele>
<time>2026-07-16T13:44:29.000Z</time>
</trkpt>
<trkpt lat="57.384140" lon="9.741900">
<ele>5.462638</ele>
<time>2026-07-16T13:44:30.000Z</time>
</trkpt>
<trkpt lat="57.384200" lon="9.741906">
<ele>5.491053</ele>
<time>2026-07-16T13:44:31.000Z</time>
</trkpt>
<trkpt lat="57.384261" lon="9.741913">
<ele>5.573854</ele>
<time>2026-07-16T13:44:32.000Z</time>
</trkpt>
<trkpt lat="57.384322" lon="9.741920">
<ele>5.725529</ele>
<time>2026-07-16T13:44:33.000Z</time>
</trkpt>
<trkpt lat="57.384383" lon="9.741926">
<ele>5.877127</ele>
<time>2026-07-16T13:44:34.000Z</time>
</trkpt>
<trkpt lat="57.384444" lon="9.741933">
<ele>6.028802</ele>
<time>2026-07-16T13:44:35.000Z</time>
</trkpt>
<trkpt lat="57.384505" lon="9.741938">
<ele>6.180336</ele>
<time>2026-07-16T13:44:36.000Z</time>
</trkpt>
<trkpt lat="57.384567" lon="9.741942">
<ele>6.334297</ele>
<time>2026-07-16T13:44:37.000Z</time>
</trkpt>
<trkpt lat="57.384631" lon="9.741947">
<ele>6.493268</ele>
<time>2026-07-16T13:44:38.000Z</time>
</trkpt>
<trkpt lat="57.384692" lon="9.741956">
<ele>6.645132</ele>
<time>2026-07-16T13:44:39.000Z</time>
</trkpt>
<trkpt lat="57.384753" lon="9.741964">
<ele>6.796896</ele>
<time>2026-07-16T13:44:40.000Z</time>
</trkpt>
<trkpt lat="57.384814" lon="9.741971">
<ele>6.948571</ele>
<time>2026-07-16T13:44:41.000Z</time>
</trkpt>
<trkpt lat="57.384875" lon="9.741976">
<ele>7.100104</ele>
<time>2026-07-16T13:44:42.000Z</time>
</trkpt>
<trkpt lat="57.384935" lon="9.741982">
<ele>7.249224</ele>
<time>2026-07-16T13:44:43.000Z</time>
</trkpt>
<trkpt lat="57.384994" lon="9.741988">
<ele>7.395866</ele>
<time>2026-07-16T13:44:44.000Z</time>
</trkpt>
<trkpt lat="57.385051" lon="9.741996">
<ele>7.537729</ele>
<time>2026-07-16T13:44:45.000Z</time>
</trkpt>
<trkpt lat="57.385109" lon="9.742004">
<ele>7.682067</ele>
<time>2026-07-16T13:44:46.000Z</time>
</trkpt>
<trkpt lat="57.385165" lon="9.742010">
<ele>7.821276</ele>
<time>2026-07-16T13:44:47.000Z</time>
</trkpt>
<trkpt lat="57.385220" lon="9.742015">
<ele>7.957935</ele>
<time>2026-07-16T13:44:48.000Z</time>
</trkpt>
<trkpt lat="57.385277" lon="9.742020">
<ele>8.099552</ele>
<time>2026-07-16T13:44:49.000Z</time>
</trkpt>
<trkpt lat="57.385331" lon="9.742025">
<ele>8.233732</ele>
<time>2026-07-16T13:44:50.000Z</time>
</trkpt>
<trkpt lat="57.385387" lon="9.742031">
<ele>8.372941</ele>
<time>2026-07-16T13:44:51.000Z</time>
</trkpt>
<trkpt lat="57.385442" lon="9.742034">
<ele>8.509496</ele>
<time>2026-07-16T13:44:52.000Z</time>
</trkpt>
<trkpt lat="57.385495" lon="9.742036">
<ele>8.641055</ele>
<time>2026-07-16T13:44:53.000Z</time>
</trkpt>
<trkpt lat="57.385548" lon="9.742038">
<ele>8.772614</ele>
<time>2026-07-16T13:44:54.000Z</time>
</trkpt>
<trkpt lat="57.385602" lon="9.742042">
<ele>8.906734</ele>
<time>2026-07-16T13:44:55.000Z</time>
</trkpt>
<trkpt lat="57.385652" lon="9.742047">
<ele>9.031001</ele>
<time>2026-07-16T13:44:56.000Z</time>
</trkpt>
<trkpt lat="57.385704" lon="9.742052">
<ele>9.160224</ele>
<time>2026-07-16T13:44:57.000Z</time>
</trkpt>
<trkpt lat="57.385755" lon="9.742059">
<ele>9.287139</ele>
<time>2026-07-16T13:44:58.000Z</time>
</trkpt>
<trkpt lat="57.385808" lon="9.742068">
<ele>9.419220</ele>
<time>2026-07-16T13:44:59.000Z</time>
</trkpt>
<trkpt lat="57.385862" lon="9.742074">
<ele>9.553474</ele>
<time>2026-07-16T13:45:00.000Z</time>
</trkpt>
<trkpt lat="57.385915" lon="9.742080">
<ele>9.685251</ele>
<time>2026-07-16T13:45:01.000Z</time>
</trkpt>
<trkpt lat="57.385968" lon="9.742085">
<ele>9.816953</ele>
<time>2026-07-16T13:45:02.000Z</time>
</trkpt>
<trkpt lat="57.386021" lon="9.742091">
<ele>9.948729</ele>
<time>2026-07-16T13:45:03.000Z</time>
</trkpt>
<trkpt lat="57.386075" lon="9.742097">
<ele>9.902737</ele>
<time>2026-07-16T13:45:04.000Z</time>
</trkpt>
<trkpt lat="57.386130" lon="9.742103">
<ele>9.819348</ele>
<time>2026-07-16T13:45:05.000Z</time>
</trkpt>
<trkpt lat="57.386185" lon="9.742109">
<ele>9.735958</ele>
<time>2026-07-16T13:45:06.000Z</time>
</trkpt>
<trkpt lat="57.386241" lon="9.742117">
<ele>9.650947</ele>
<time>2026-07-16T13:45:07.000Z</time>
</trkpt>
<trkpt lat="57.386298" lon="9.742124">
<ele>9.564485</ele>
<time>2026-07-16T13:45:08.000Z</time>
</trkpt>
<trkpt lat="57.386356" lon="9.742130">
<ele>9.476562</ele>
<time>2026-07-16T13:45:09.000Z</time>
</trkpt>
<trkpt lat="57.386417" lon="9.742136">
<ele>9.384104</ele>
<time>2026-07-16T13:45:10.000Z</time>
</trkpt>
<trkpt lat="57.386480" lon="9.742142">
<ele>9.288624</ele>
<time>2026-07-16T13:45:11.000Z</time>
</trkpt>
<trkpt lat="57.386544" lon="9.742149">
<ele>9.191588</ele>
<time>2026-07-16T13:45:12.000Z</time>
</trkpt>
<trkpt lat="57.386613" lon="9.742154">
<ele>9.087072</ele>
<time>2026-07-16T13:45:13.000Z</time>
</trkpt>
<trkpt lat="57.386685" lon="9.742159">
<ele>8.978019</ele>
<time>2026-07-16T13:45:14.000Z</time>
</trkpt>
<trkpt lat="57.386756" lon="9.742165">
<ele>8.870444</ele>
<time>2026-07-16T13:45:15.000Z</time>
</trkpt>
<trkpt lat="57.386829" lon="9.742171">
<ele>8.759845</ele>
<time>2026-07-16T13:45:16.000Z</time>
</trkpt>
<trkpt lat="57.386904" lon="9.742181">
<ele>8.646035</ele>
<time>2026-07-16T13:45:17.000Z</time>
</trkpt>
<trkpt lat="57.386983" lon="9.742193">
<ele>8.526063</ele>
<time>2026-07-16T13:45:18.000Z</time>
</trkpt>
<trkpt lat="57.387063" lon="9.742205">
<ele>8.404583</ele>
<time>2026-07-16T13:45:19.000Z</time>
</trkpt>
<trkpt lat="57.387144" lon="9.742220">
<ele>8.281375</ele>
<time>2026-07-16T13:45:20.000Z</time>
</trkpt>
<trkpt lat="57.387227" lon="9.742237">
<ele>8.154986</ele>
<time>2026-07-16T13:45:21.000Z</time>
</trkpt>
<trkpt lat="57.387315" lon="9.742256">
<ele>8.020893</ele>
<time>2026-07-16T13:45:22.000Z</time>
</trkpt>
<trkpt lat="57.387405" lon="9.742277">
<ele>7.883599</ele>
<time>2026-07-16T13:45:23.000Z</time>
</trkpt>
<trkpt lat="57.387496" lon="9.742301">
<ele>7.744480</ele>
<time>2026-07-16T13:45:24.000Z</time>
</trkpt>
<trkpt lat="57.387590" lon="9.742329">
<ele>7.600383</ele>
<time>2026-07-16T13:45:25.000Z</time>
</trkpt>
<trkpt lat="57.387682" lon="9.742356">
<ele>7.459404</ele>
<time>2026-07-16T13:45:26.000Z</time>
</trkpt>
<trkpt lat="57.387773" lon="9.742382">
<ele>7.320046</ele>
<time>2026-07-16T13:45:27.000Z</time>
</trkpt>
<trkpt lat="57.387856" lon="9.742406">
<ele>7.327065</ele>
<time>2026-07-16T13:45:28.000Z</time>
</trkpt>
<trkpt lat="57.387942" lon="9.742428">
<ele>7.511869</ele>
<time>2026-07-16T13:45:29.000Z</time>
</trkpt>
<trkpt lat="57.388025" lon="9.742448">
<ele>7.690039</ele>
<time>2026-07-16T13:45:30.000Z</time>
</trkpt>
<trkpt lat="57.388099" lon="9.742467">
<ele>7.849067</ele>
<time>2026-07-16T13:45:31.000Z</time>
</trkpt>
<trkpt lat="57.388175" lon="9.742488">
<ele>8.012636</ele>
<time>2026-07-16T13:45:32.000Z</time>
</trkpt>
<trkpt lat="57.388244" lon="9.742508">
<ele>8.161301</ele>
<time>2026-07-16T13:45:33.000Z</time>
</trkpt>
<trkpt lat="57.388314" lon="9.742525">
<ele>8.311585</ele>
<time>2026-07-16T13:45:34.000Z</time>
</trkpt>
<trkpt lat="57.388383" lon="9.742543">
<ele>8.459913</ele>
<time>2026-07-16T13:45:35.000Z</time>
</trkpt>
<trkpt lat="57.388448" lon="9.742559">
<ele>8.599494</ele>
<time>2026-07-16T13:45:36.000Z</time>
</trkpt>
<trkpt lat="57.388513" lon="9.742576">
<ele>8.739230</ele>
<time>2026-07-16T13:45:37.000Z</time>
</trkpt>
<trkpt lat="57.388569" lon="9.742590">
<ele>8.859517</ele>
<time>2026-07-16T13:45:38.000Z</time>
</trkpt>
<trkpt lat="57.388634" lon="9.742605">
<ele>8.998952</ele>
<time>2026-07-16T13:45:39.000Z</time>
</trkpt>
<trkpt lat="57.388698" lon="9.742622">
<ele>9.136581</ele>
<time>2026-07-16T13:45:40.000Z</time>
</trkpt>
<trkpt lat="57.388756" lon="9.742639">
<ele>9.261579</ele>
<time>2026-07-16T13:45:41.000Z</time>
</trkpt>
<trkpt lat="57.388816" lon="9.742655">
<ele>9.390616</ele>
<time>2026-07-16T13:45:42.000Z</time>
</trkpt>
<trkpt lat="57.388872" lon="9.742669">
<ele>9.510903</ele>
<time>2026-07-16T13:45:43.000Z</time>
</trkpt>
<trkpt lat="57.388930" lon="9.742683">
<ele>9.635411</ele>
<time>2026-07-16T13:45:44.000Z</time>
</trkpt>
<trkpt lat="57.388988" lon="9.742697">
<ele>9.759919</ele>
<time>2026-07-16T13:45:45.000Z</time>
</trkpt>
<trkpt lat="57.389042" lon="9.742711">
<ele>9.875988</ele>
<time>2026-07-16T13:45:46.000Z</time>
</trkpt>
<trkpt lat="57.389098" lon="9.742723">
<ele>9.995990</ele>
<time>2026-07-16T13:45:47.000Z</time>
</trkpt>
<trkpt lat="57.389152" lon="9.742734">
<ele>10.111633</ele>
<time>2026-07-16T13:45:48.000Z</time>
</trkpt>
<trkpt lat="57.389203" lon="9.742740">
<ele>10.220418</ele>
<time>2026-07-16T13:45:49.000Z</time>
</trkpt>
<trkpt lat="57.389257" lon="9.742742">
<ele>10.335393</ele>
<time>2026-07-16T13:45:50.000Z</time>
</trkpt>
<trkpt lat="57.389310" lon="9.742737">
<ele>10.448362</ele>
<time>2026-07-16T13:45:51.000Z</time>
</trkpt>
<trkpt lat="57.389360" lon="9.742729">
<ele>10.555195</ele>
<time>2026-07-16T13:45:52.000Z</time>
</trkpt>
<trkpt lat="57.389411" lon="9.742718">
<ele>10.664492</ele>
<time>2026-07-16T13:45:53.000Z</time>
</trkpt>
<trkpt lat="57.389463" lon="9.742704">
<ele>10.776346</ele>
<time>2026-07-16T13:45:54.000Z</time>
</trkpt>
<trkpt lat="57.389516" lon="9.742684">
<ele>10.891479</ele>
<time>2026-07-16T13:45:55.000Z</time>
</trkpt>
<trkpt lat="57.389567" lon="9.742660">
<ele>11.003482</ele>
<time>2026-07-16T13:45:56.000Z</time>
</trkpt>
<trkpt lat="57.389619" lon="9.742633">
<ele>11.100501</ele>
<time>2026-07-16T13:45:57.000Z</time>
</trkpt>
<trkpt lat="57.389667" lon="9.742606">
<ele>11.160489</ele>
<time>2026-07-16T13:45:58.000Z</time>
</trkpt>
<trkpt lat="57.389720" lon="9.742576">
<ele>11.226761</ele>
<time>2026-07-16T13:45:59.000Z</time>
</trkpt>
<trkpt lat="57.389775" lon="9.742546">
<ele>11.295325</ele>
<time>2026-07-16T13:46:00.000Z</time>
</trkpt>
<trkpt lat="57.389825" lon="9.742521">
<ele>11.357258</ele>
<time>2026-07-16T13:46:01.000Z</time>
</trkpt>
<trkpt lat="57.389878" lon="9.742494">
<ele>11.422992</ele>
<time>2026-07-16T13:46:02.000Z</time>
</trkpt>
<trkpt lat="57.389928" lon="9.742465">
<ele>11.485645</ele>
<time>2026-07-16T13:46:03.000Z</time>
</trkpt>
<trkpt lat="57.389977" lon="9.742436">
<ele>11.547158</ele>
<time>2026-07-16T13:46:04.000Z</time>
</trkpt>
<trkpt lat="57.390026" lon="9.742407">
<ele>11.608671</ele>
<time>2026-07-16T13:46:05.000Z</time>
</trkpt>
<trkpt lat="57.390076" lon="9.742380">
<ele>11.670952</ele>
<time>2026-07-16T13:46:06.000Z</time>
</trkpt>
<trkpt lat="57.390127" lon="9.742352">
<ele>11.734562</ele>
<time>2026-07-16T13:46:07.000Z</time>
</trkpt>
<trkpt lat="57.390176" lon="9.742325">
<ele>11.795696</ele>
<time>2026-07-16T13:46:08.000Z</time>
</trkpt>
<trkpt lat="57.390229" lon="9.742296">
<ele>11.861782</ele>
<time>2026-07-16T13:46:09.000Z</time>
</trkpt>
<trkpt lat="57.390280" lon="9.742268">
<ele>11.925392</ele>
<time>2026-07-16T13:46:10.000Z</time>
</trkpt>
<trkpt lat="57.390332" lon="9.742240">
<ele>11.990150</ele>
<time>2026-07-16T13:46:11.000Z</time>
</trkpt>
<trkpt lat="57.390386" lon="9.742212">
<ele>12.057208</ele>
<time>2026-07-16T13:46:12.000Z</time>
</trkpt>
<trkpt lat="57.390438" lon="9.742183">
<ele>12.122149</ele>
<time>2026-07-16T13:46:13.000Z</time>
</trkpt>
<trkpt lat="57.390492" lon="9.742154">
<ele>12.189383</ele>
<time>2026-07-16T13:46:14.000Z</time>
</trkpt>
<trkpt lat="57.390544" lon="9.742126">
<ele>12.254141</ele>
<time>2026-07-16T13:46:15.000Z</time>
</trkpt>
<trkpt lat="57.390601" lon="9.742098">
<ele>12.324662</ele>
<time>2026-07-16T13:46:16.000Z</time>
</trkpt>
<trkpt lat="57.390656" lon="9.742069">
<ele>12.393046</ele>
<time>2026-07-16T13:46:17.000Z</time>
</trkpt>
<trkpt lat="57.390709" lon="9.742041">
<ele>12.458953</ele>
<time>2026-07-16T13:46:18.000Z</time>
</trkpt>
<trkpt lat="57.390763" lon="9.742014">
<ele>12.525841</ele>
<time>2026-07-16T13:46:19.000Z</time>
</trkpt>
<trkpt lat="57.390816" lon="9.741986">
<ele>12.591748</ele>
<time>2026-07-16T13:46:20.000Z</time>
</trkpt>
<trkpt lat="57.390870" lon="9.741958">
<ele>12.658806</ele>
<time>2026-07-16T13:46:21.000Z</time>
</trkpt>
<trkpt lat="57.390923" lon="9.741929">
<ele>12.724893</ele>
<time>2026-07-16T13:46:22.000Z</time>
</trkpt>
<trkpt lat="57.390977" lon="9.741901">
<ele>12.791951</ele>
<time>2026-07-16T13:46:23.000Z</time>
</trkpt>
<trkpt lat="57.391030" lon="9.741871">
<ele>12.858223</ele>
<time>2026-07-16T13:46:24.000Z</time>
</trkpt>
<trkpt lat="57.391086" lon="9.741842">
<ele>12.927759</ele>
<time>2026-07-16T13:46:25.000Z</time>
</trkpt>
<trkpt lat="57.391141" lon="9.741811">
<ele>12.996506</ele>
<time>2026-07-16T13:46:26.000Z</time>
</trkpt>
<trkpt lat="57.391197" lon="9.741782">
<ele>13.066042</ele>
<time>2026-07-16T13:46:27.000Z</time>
</trkpt>
<trkpt lat="57.391251" lon="9.741754">
<ele>13.133100</ele>
<time>2026-07-16T13:46:28.000Z</time>
</trkpt>
<trkpt lat="57.391306" lon="9.741725">
<ele>13.201484</ele>
<time>2026-07-16T13:46:29.000Z</time>
</trkpt>
<trkpt lat="57.391365" lon="9.741694">
<ele>13.231539</ele>
<time>2026-07-16T13:46:30.000Z</time>
</trkpt>
<trkpt lat="57.391422" lon="9.741663">
<ele>13.235914</ele>
<time>2026-07-16T13:46:31.000Z</time>
</trkpt>
<trkpt lat="57.391477" lon="9.741634">
<ele>13.240126</ele>
<time>2026-07-16T13:46:32.000Z</time>
</trkpt>
<trkpt lat="57.391533" lon="9.741604">
<ele>13.244419</ele>
<time>2026-07-16T13:46:33.000Z</time>
</trkpt>
<trkpt lat="57.391590" lon="9.741575">
<ele>13.248772</ele>
<time>2026-07-16T13:46:34.000Z</time>
</trkpt>
<trkpt lat="57.391644" lon="9.741545">
<ele>13.252925</ele>
<time>2026-07-16T13:46:35.000Z</time>
</trkpt>
<trkpt lat="57.391700" lon="9.741515">
<ele>13.257218</ele>
<time>2026-07-16T13:46:36.000Z</time>
</trkpt>
<trkpt lat="57.391754" lon="9.741485">
<ele>13.261370</ele>
<time>2026-07-16T13:46:37.000Z</time>
</trkpt>
<trkpt lat="57.391811" lon="9.741455">
<ele>13.265734</ele>
<time>2026-07-16T13:46:38.000Z</time>
</trkpt>
<trkpt lat="57.391865" lon="9.741426">
<ele>13.269875</ele>
<time>2026-07-16T13:46:39.000Z</time>
</trkpt>
<trkpt lat="57.391922" lon="9.741398">
<ele>13.274218</ele>
<time>2026-07-16T13:46:40.000Z</time>
</trkpt>
<trkpt lat="57.391979" lon="9.741367">
<ele>13.278593</ele>
<time>2026-07-16T13:46:41.000Z</time>
</trkpt>
<trkpt lat="57.392033" lon="9.741336">
<ele>13.282757</ele>
<time>2026-07-16T13:46:42.000Z</time>
</trkpt>
<trkpt lat="57.392090" lon="9.741307">
<ele>13.287110</ele>
<time>2026-07-16T13:46:43.000Z</time>
</trkpt>
<trkpt lat="57.392144" lon="9.741277">
<ele>13.291262</ele>
<time>2026-07-16T13:46:44.000Z</time>
</trkpt>
<trkpt lat="57.392200" lon="9.741247">
<ele>13.295556</ele>
<time>2026-07-16T13:46:45.000Z</time>
</trkpt>
<trkpt lat="57.392258" lon="9.741216">
<ele>13.300002</ele>
<time>2026-07-16T13:46:46.000Z</time>
</trkpt>
<trkpt lat="57.392313" lon="9.741187">
<ele>13.304213</ele>
<time>2026-07-16T13:46:47.000Z</time>
</trkpt>
<trkpt lat="57.392371" lon="9.741158">
<ele>13.308638</ele>
<time>2026-07-16T13:46:48.000Z</time>
</trkpt>
<trkpt lat="57.392432" lon="9.741124">
<ele>13.313329</ele>
<time>2026-07-16T13:46:49.000Z</time>
</trkpt>
<trkpt lat="57.392493" lon="9.741090">
<ele>13.318021</ele>
<time>2026-07-16T13:46:50.000Z</time>
</trkpt>
<trkpt lat="57.392550" lon="9.741060">
<ele>13.322385</ele>
<time>2026-07-16T13:46:51.000Z</time>
</trkpt>
<trkpt lat="57.392614" lon="9.741029">
<ele>13.327257</ele>
<time>2026-07-16T13:46:52.000Z</time>
</trkpt>
<trkpt lat="57.392672" lon="9.740998">
<ele>13.331703</ele>
<time>2026-07-16T13:46:53.000Z</time>
</trkpt>
<trkpt lat="57.392733" lon="9.740965">
<ele>13.336383</ele>
<time>2026-07-16T13:46:54.000Z</time>
</trkpt>
<trkpt lat="57.392794" lon="9.740932">
<ele>13.341063</ele>
<time>2026-07-16T13:46:55.000Z</time>
</trkpt>
<trkpt lat="57.392855" lon="9.740901">
<ele>13.345722</ele>
<time>2026-07-16T13:46:56.000Z</time>
</trkpt>
<trkpt lat="57.392916" lon="9.740870">
<ele>13.350381</ele>
<time>2026-07-16T13:46:57.000Z</time>
</trkpt>
<trkpt lat="57.392975" lon="9.740840">
<ele>13.354887</ele>
<time>2026-07-16T13:46:58.000Z</time>
</trkpt>
<trkpt lat="57.393037" lon="9.740807">
<ele>13.359638</ele>
<time>2026-07-16T13:46:59.000Z</time>
</trkpt>
<trkpt lat="57.393097" lon="9.740773">
<ele>13.379187</ele>
<time>2026-07-16T13:47:00.000Z</time>
</trkpt>
<trkpt lat="57.393157" lon="9.740742">
<ele>13.406051</ele>
<time>2026-07-16T13:47:01.000Z</time>
</trkpt>
<trkpt lat="57.393215" lon="9.740712">
<ele>13.432022</ele>
<time>2026-07-16T13:47:02.000Z</time>
</trkpt>
<trkpt lat="57.393275" lon="9.740681">
<ele>13.458886</ele>
<time>2026-07-16T13:47:03.000Z</time>
</trkpt>
<trkpt lat="57.393333" lon="9.740648">
<ele>13.485052</ele>
<time>2026-07-16T13:47:04.000Z</time>
</trkpt>
<trkpt lat="57.393393" lon="9.740618">
<ele>13.511855</ele>
<time>2026-07-16T13:47:05.000Z</time>
</trkpt>
<trkpt lat="57.393451" lon="9.740587">
<ele>13.537889</ele>
<time>2026-07-16T13:47:06.000Z</time>
</trkpt>
<trkpt lat="57.393508" lon="9.740555">
<ele>13.563575</ele>
<time>2026-07-16T13:47:07.000Z</time>
</trkpt>
<trkpt lat="57.393567" lon="9.740526">
<ele>13.589901</ele>
<time>2026-07-16T13:47:08.000Z</time>
</trkpt>
<trkpt lat="57.393626" lon="9.740494">
<ele>13.616414</ele>
<time>2026-07-16T13:47:09.000Z</time>
</trkpt>
<trkpt lat="57.393687" lon="9.740462">
<ele>13.643756</ele>
<time>2026-07-16T13:47:10.000Z</time>
</trkpt>
<trkpt lat="57.393745" lon="9.740430">
<ele>13.669855</ele>
<time>2026-07-16T13:47:11.000Z</time>
</trkpt>
<trkpt lat="57.393805" lon="9.740398">
<ele>13.696783</ele>
<time>2026-07-16T13:47:12.000Z</time>
</trkpt>
<trkpt lat="57.393864" lon="9.740367">
<ele>13.723231</ele>
<time>2026-07-16T13:47:13.000Z</time>
</trkpt>
<trkpt lat="57.393923" lon="9.740337">
<ele>13.749618</ele>
<time>2026-07-16T13:47:14.000Z</time>
</trkpt>
<trkpt lat="57.393982" lon="9.740306">
<ele>13.776066</ele>
<time>2026-07-16T13:47:15.000Z</time>
</trkpt>
<trkpt lat="57.394042" lon="9.740276">
<ele>13.802869</ele>
<time>2026-07-16T13:47:16.000Z</time>
</trkpt>
<trkpt lat="57.394100" lon="9.740246">
<ele>13.828840</ele>
<time>2026-07-16T13:47:17.000Z</time>
</trkpt>
<trkpt lat="57.394157" lon="9.740214">
<ele>13.854526</ele>
<time>2026-07-16T13:47:18.000Z</time>
</trkpt>
<trkpt lat="57.394211" lon="9.740184">
<ele>13.878839</ele>
<time>2026-07-16T13:47:19.000Z</time>
</trkpt>
<trkpt lat="57.394269" lon="9.740153">
<ele>13.904873</ele>
<time>2026-07-16T13:47:20.000Z</time>
</trkpt>
<trkpt lat="57.394330" lon="9.740122">
<ele>13.932152</ele>
<time>2026-07-16T13:47:21.000Z</time>
</trkpt>
<trkpt lat="57.394389" lon="9.740093">
<ele>13.958478</ele>
<time>2026-07-16T13:47:22.000Z</time>
</trkpt>
<trkpt lat="57.394447" lon="9.740063">
<ele>13.984449</ele>
<time>2026-07-16T13:47:23.000Z</time>
</trkpt>
<trkpt lat="57.394505" lon="9.740034">
<ele>14.010358</ele>
<time>2026-07-16T13:47:24.000Z</time>
</trkpt>
<trkpt lat="57.394562" lon="9.740005">
<ele>14.035851</ele>
<time>2026-07-16T13:47:25.000Z</time>
</trkpt>
<trkpt lat="57.394619" lon="9.739974">
<ele>14.061471</ele>
<time>2026-07-16T13:47:26.000Z</time>
</trkpt>
<trkpt lat="57.394673" lon="9.739942">
<ele>14.085921</ele>
<time>2026-07-16T13:47:27.000Z</time>
</trkpt>
<trkpt lat="57.394729" lon="9.739910">
<ele>14.111194</ele>
<time>2026-07-16T13:47:28.000Z</time>
</trkpt>
<trkpt lat="57.394787" lon="9.739879">
<ele>14.137059</ele>
<time>2026-07-16T13:47:29.000Z</time>
</trkpt>
<trkpt lat="57.394844" lon="9.739849">
<ele>14.144391</ele>
<time>2026-07-16T13:47:30.000Z</time>
</trkpt>
<trkpt lat="57.394901" lon="9.739820">
<ele>14.151706</ele>
<time>2026-07-16T13:47:31.000Z</time>
</trkpt>
<trkpt lat="57.394957" lon="9.739791">
<ele>14.158901</ele>
<time>2026-07-16T13:47:32.000Z</time>
</trkpt>
<trkpt lat="57.395017" lon="9.739762">
<ele>14.166574</ele>
<time>2026-07-16T13:47:33.000Z</time>
</trkpt>
<trkpt lat="57.395076" lon="9.739734">
<ele>14.174111</ele>
<time>2026-07-16T13:47:34.000Z</time>
</trkpt>
<trkpt lat="57.395137" lon="9.739708">
<ele>14.181857</ele>
<time>2026-07-16T13:47:35.000Z</time>
</trkpt>
<trkpt lat="57.395195" lon="9.739687">
<ele>14.189170</ele>
<time>2026-07-16T13:47:36.000Z</time>
</trkpt>
<trkpt lat="57.395256" lon="9.739671">
<ele>14.196795</ele>
<time>2026-07-16T13:47:37.000Z</time>
</trkpt>
<trkpt lat="57.395321" lon="9.739662">
<ele>14.204861</ele>
<time>2026-07-16T13:47:38.000Z</time>
</trkpt>
<trkpt lat="57.395387" lon="9.739656">
<ele>14.213039</ele>
<time>2026-07-16T13:47:39.000Z</time>
</trkpt>
<trkpt lat="57.395449" lon="9.739654">
<ele>14.220713</ele>
<time>2026-07-16T13:47:40.000Z</time>
</trkpt>
<trkpt lat="57.395513" lon="9.739654">
<ele>14.228634</ele>
<time>2026-07-16T13:47:41.000Z</time>
</trkpt>
<trkpt lat="57.395575" lon="9.739657">
<ele>14.236310</ele>
<time>2026-07-16T13:47:42.000Z</time>
</trkpt>
<trkpt lat="57.395639" lon="9.739665">
<ele>14.244248</ele>
<time>2026-07-16T13:47:43.000Z</time>
</trkpt>
<trkpt lat="57.395699" lon="9.739677">
<ele>14.251717</ele>
<time>2026-07-16T13:47:44.000Z</time>
</trkpt>
<trkpt lat="57.395761" lon="9.739691">
<ele>14.259446</ele>
<time>2026-07-16T13:47:45.000Z</time>
</trkpt>
<trkpt lat="57.395822" lon="9.739704">
<ele>14.267045</ele>
<time>2026-07-16T13:47:46.000Z</time>
</trkpt>
<trkpt lat="57.395884" lon="9.739719">
<ele>14.274783</ele>
<time>2026-07-16T13:47:47.000Z</time>
</trkpt>
<trkpt lat="57.395945" lon="9.739741">
<ele>14.282474</ele>
<time>2026-07-16T13:47:48.000Z</time>
</trkpt>
<trkpt lat="57.396006" lon="9.739762">
<ele>14.290152</ele>
<time>2026-07-16T13:47:49.000Z</time>
</trkpt>
<trkpt lat="57.396065" lon="9.739783">
<ele>14.297587</ele>
<time>2026-07-16T13:47:50.000Z</time>
</trkpt>
<trkpt lat="57.396128" lon="9.739806">
<ele>14.305533</ele>
<time>2026-07-16T13:47:51.000Z</time>
</trkpt>
<trkpt lat="57.396188" lon="9.739828">
<ele>14.313102</ele>
<time>2026-07-16T13:47:52.000Z</time>
</trkpt>
<trkpt lat="57.396250" lon="9.739852">
<ele>14.320940</ele>
<time>2026-07-16T13:47:53.000Z</time>
</trkpt>
<trkpt lat="57.396311" lon="9.739878">
<ele>14.328686</ele>
<time>2026-07-16T13:47:54.000Z</time>
</trkpt>
<trkpt lat="57.396372" lon="9.739905">
<ele>14.336447</ele>
<time>2026-07-16T13:47:55.000Z</time>
</trkpt>
<trkpt lat="57.396433" lon="9.739932">
<ele>14.344208</ele>
<time>2026-07-16T13:47:56.000Z</time>
</trkpt>
<trkpt lat="57.396495" lon="9.739959">
<ele>14.352090</ele>
<time>2026-07-16T13:47:57.000Z</time>
</trkpt>
<trkpt lat="57.396552" lon="9.739987">
<ele>14.359387</ele>
<time>2026-07-16T13:47:58.000Z</time>
</trkpt>
<trkpt lat="57.396613" lon="9.740016">
<ele>14.359668</ele>
<time>2026-07-16T13:47:59.000Z</time>
</trkpt>
<trkpt lat="57.396672" lon="9.740044">
<ele>14.359747</ele>
<time>2026-07-16T13:48:00.000Z</time>
</trkpt>
<trkpt lat="57.396731" lon="9.740072">
<ele>14.359826</ele>
<time>2026-07-16T13:48:01.000Z</time>
</trkpt>
<trkpt lat="57.396792" lon="9.740101">
<ele>14.359908</ele>
<time>2026-07-16T13:48:02.000Z</time>
</trkpt>
<trkpt lat="57.396852" lon="9.740129">
<ele>14.359988</ele>
<time>2026-07-16T13:48:03.000Z</time>
</trkpt>
<trkpt lat="57.396913" lon="9.740161">
<ele>14.360070</ele>
<time>2026-07-16T13:48:04.000Z</time>
</trkpt>
<trkpt lat="57.396975" lon="9.740193">
<ele>14.360153</ele>
<time>2026-07-16T13:48:05.000Z</time>
</trkpt>
<trkpt lat="57.397034" lon="9.740225">
<ele>14.360233</ele>
<time>2026-07-16T13:48:06.000Z</time>
</trkpt>
<trkpt lat="57.397089" lon="9.740255">
<ele>14.360307</ele>
<time>2026-07-16T13:48:07.000Z</time>
</trkpt>
<trkpt lat="57.397140" lon="9.740286">
<ele>14.360376</ele>
<time>2026-07-16T13:48:08.000Z</time>
</trkpt>
<trkpt lat="57.397205" lon="9.740328">
<ele>14.360465</ele>
<time>2026-07-16T13:48:09.000Z</time>
</trkpt>
<trkpt lat="57.397270" lon="9.740372">
<ele>14.360555</ele>
<time>2026-07-16T13:48:10.000Z</time>
</trkpt>
<trkpt lat="57.397330" lon="9.740411">
<ele>14.360637</ele>
<time>2026-07-16T13:48:11.000Z</time>
</trkpt>
<trkpt lat="57.397388" lon="9.740451">
<ele>14.360717</ele>
<time>2026-07-16T13:48:12.000Z</time>
</trkpt>
<trkpt lat="57.397445" lon="9.740489">
<ele>14.360796</ele>
<time>2026-07-16T13:48:13.000Z</time>
</trkpt>
<trkpt lat="57.397503" lon="9.740529">
<ele>14.360876</ele>
<time>2026-07-16T13:48:14.000Z</time>
</trkpt>
<trkpt lat="57.397560" lon="9.740569">
<ele>14.360955</ele>
<time>2026-07-16T13:48:15.000Z</time>
</trkpt>
<trkpt lat="57.397620" lon="9.740609">
<ele>14.361037</ele>
<time>2026-07-16T13:48:16.000Z</time>
</trkpt>
<trkpt lat="57.397678" lon="9.740649">
<ele>14.361117</ele>
<time>2026-07-16T13:48:17.000Z</time>
</trkpt>
<trkpt lat="57.397735" lon="9.740688">
<ele>14.361196</ele>
<time>2026-07-16T13:48:18.000Z</time>
</trkpt>
<trkpt lat="57.397793" lon="9.740725">
<ele>14.361275</ele>
<time>2026-07-16T13:48:19.000Z</time>
</trkpt>
<trkpt lat="57.397846" lon="9.740760">
<ele>14.361348</ele>
<time>2026-07-16T13:48:20.000Z</time>
</trkpt>
<trkpt lat="57.397903" lon="9.740797">
<ele>14.361426</ele>
<time>2026-07-16T13:48:21.000Z</time>
</trkpt>
<trkpt lat="57.397963" lon="9.740834">
<ele>14.361508</ele>
<time>2026-07-16T13:48:22.000Z</time>
</trkpt>
<trkpt lat="57.398020" lon="9.740871">
<ele>14.361586</ele>
<time>2026-07-16T13:48:23.000Z</time>
</trkpt>
<trkpt lat="57.398078" lon="9.740909">
<ele>14.361666</ele>
<time>2026-07-16T13:48:24.000Z</time>
</trkpt>
<trkpt lat="57.398136" lon="9.740948">
<ele>14.361746</ele>
<time>2026-07-16T13:48:25.000Z</time>
</trkpt>
<trkpt lat="57.398193" lon="9.740985">
<ele>14.361824</ele>
<time>2026-07-16T13:48:26.000Z</time>
</trkpt>
<trkpt lat="57.398253" lon="9.741020">
<ele>14.361905</ele>
<time>2026-07-16T13:48:27.000Z</time>
</trkpt>
<trkpt lat="57.398312" lon="9.741054">
<ele>14.379301</ele>
<time>2026-07-16T13:48:28.000Z</time>
</trkpt>
<trkpt lat="57.398368" lon="9.741090">
<ele>14.398890</ele>
<time>2026-07-16T13:48:29.000Z</time>
</trkpt>
<trkpt lat="57.398426" lon="9.741129">
<ele>14.419282</ele>
<time>2026-07-16T13:48:30.000Z</time>
</trkpt>
<trkpt lat="57.398483" lon="9.741170">
<ele>14.439489</ele>
<time>2026-07-16T13:48:31.000Z</time>
</trkpt>
<trkpt lat="57.398544" lon="9.741212">
<ele>14.460995</ele>
<time>2026-07-16T13:48:32.000Z</time>
</trkpt>
<trkpt lat="57.398599" lon="9.741254">
<ele>14.480654</ele>
<time>2026-07-16T13:48:33.000Z</time>
</trkpt>
<trkpt lat="57.398660" lon="9.741303">
<ele>14.502626</ele>
<time>2026-07-16T13:48:34.000Z</time>
</trkpt>
<trkpt lat="57.398722" lon="9.741350">
<ele>14.524763</ele>
<time>2026-07-16T13:48:35.000Z</time>
</trkpt>
<trkpt lat="57.398782" lon="9.741397">
<ele>14.546290</ele>
<time>2026-07-16T13:48:36.000Z</time>
</trkpt>
<trkpt lat="57.398847" lon="9.741446">
<ele>14.569481</ele>
<time>2026-07-16T13:48:37.000Z</time>
</trkpt>
<trkpt lat="57.398909" lon="9.741497">
<ele>14.591898</ele>
<time>2026-07-16T13:48:38.000Z</time>
</trkpt>
<trkpt lat="57.398970" lon="9.741549">
<ele>14.614087</ele>
<time>2026-07-16T13:48:39.000Z</time>
</trkpt>
<trkpt lat="57.399031" lon="9.741602">
<ele>14.636350</ele>
<time>2026-07-16T13:48:40.000Z</time>
</trkpt>
<trkpt lat="57.399092" lon="9.741656">
<ele>14.658690</ele>
<time>2026-07-16T13:48:41.000Z</time>
</trkpt>
<trkpt lat="57.399150" lon="9.741709">
<ele>14.680060</ele>
<time>2026-07-16T13:48:42.000Z</time>
</trkpt>
<trkpt lat="57.399208" lon="9.741758">
<ele>14.701124</ele>
<time>2026-07-16T13:48:43.000Z</time>
</trkpt>
<trkpt lat="57.399263" lon="9.741806">
<ele>14.721214</ele>
<time>2026-07-16T13:48:44.000Z</time>
</trkpt>
<trkpt lat="57.399316" lon="9.741852">
<ele>14.740554</ele>
<time>2026-07-16T13:48:45.000Z</time>
</trkpt>
<trkpt lat="57.399368" lon="9.741894">
<ele>14.759300</ele>
<time>2026-07-16T13:48:46.000Z</time>
</trkpt>
<trkpt lat="57.399420" lon="9.741937">
<ele>14.778118</ele>
<time>2026-07-16T13:48:47.000Z</time>
</trkpt>
<trkpt lat="57.399467" lon="9.741979">
<ele>14.795360</ele>
<time>2026-07-16T13:48:48.000Z</time>
</trkpt>
<trkpt lat="57.399515" lon="9.742018">
<ele>14.812681</ele>
<time>2026-07-16T13:48:49.000Z</time>
</trkpt>
<trkpt lat="57.399565" lon="9.742055">
<ele>14.830473</ele>
<time>2026-07-16T13:48:50.000Z</time>
</trkpt>
<trkpt lat="57.399614" lon="9.742090">
<ele>14.847828</ele>
<time>2026-07-16T13:48:51.000Z</time>
</trkpt>
<trkpt lat="57.399663" lon="9.742122">
<ele>14.864999</ele>
<time>2026-07-16T13:48:52.000Z</time>
</trkpt>
<trkpt lat="57.399713" lon="9.742153">
<ele>14.882424</ele>
<time>2026-07-16T13:48:53.000Z</time>
</trkpt>
<trkpt lat="57.399766" lon="9.742183">
<ele>14.900740</ele>
<time>2026-07-16T13:48:54.000Z</time>
</trkpt>
<trkpt lat="57.399816" lon="9.742214">
<ele>14.918165</ele>
<time>2026-07-16T13:48:55.000Z</time>
</trkpt>
<trkpt lat="57.399870" lon="9.742242">
<ele>14.936699</ele>
<time>2026-07-16T13:48:56.000Z</time>
</trkpt>
<trkpt lat="57.399925" lon="9.742268">
<ele>14.955459</ele>
<time>2026-07-16T13:48:57.000Z</time>
</trkpt>
<trkpt lat="57.399982" lon="9.742295">
<ele>14.959038</ele>
<time>2026-07-16T13:48:58.000Z</time>
</trkpt>
<trkpt lat="57.400037" lon="9.742322">
<ele>14.961664</ele>
<time>2026-07-16T13:48:59.000Z</time>
</trkpt>
<trkpt lat="57.400090" lon="9.742349">
<ele>14.964200</ele>
<time>2026-07-16T13:49:00.000Z</time>
</trkpt>
<trkpt lat="57.400144" lon="9.742376">
<ele>14.966782</ele>
<time>2026-07-16T13:49:01.000Z</time>
</trkpt>
<trkpt lat="57.400199" lon="9.742400">
<ele>14.969389</ele>
<time>2026-07-16T13:49:02.000Z</time>
</trkpt>
<trkpt lat="57.400253" lon="9.742423">
<ele>14.971947</ele>
<time>2026-07-16T13:49:03.000Z</time>
</trkpt>
<trkpt lat="57.400307" lon="9.742447">
<ele>14.974509</ele>
<time>2026-07-16T13:49:04.000Z</time>
</trkpt>
<trkpt lat="57.400360" lon="9.742469">
<ele>14.977016</ele>
<time>2026-07-16T13:49:05.000Z</time>
</trkpt>
<trkpt lat="57.400414" lon="9.742492">
<ele>14.979573</ele>
<time>2026-07-16T13:49:06.000Z</time>
</trkpt>
<trkpt lat="57.400467" lon="9.742513">
<ele>14.982075</ele>
<time>2026-07-16T13:49:07.000Z</time>
</trkpt>
<trkpt lat="57.400522" lon="9.742534">
<ele>14.984666</ele>
<time>2026-07-16T13:49:08.000Z</time>
</trkpt>
<trkpt lat="57.400577" lon="9.742557">
<ele>14.987269</ele>
<time>2026-07-16T13:49:09.000Z</time>
</trkpt>
<trkpt lat="57.400634" lon="9.742581">
<ele>14.989966</ele>
<time>2026-07-16T13:49:10.000Z</time>
</trkpt>
<trkpt lat="57.400688" lon="9.742602">
<ele>14.992513</ele>
<time>2026-07-16T13:49:11.000Z</time>
</trkpt>
<trkpt lat="57.400745" lon="9.742621">
<ele>14.995186</ele>
<time>2026-07-16T13:49:12.000Z</time>
</trkpt>
<trkpt lat="57.400801" lon="9.742643">
<ele>14.997828</ele>
<time>2026-07-16T13:49:13.000Z</time>
</trkpt>
<trkpt lat="57.400859" lon="9.742664">
<ele>15.000555</ele>
<time>2026-07-16T13:49:14.000Z</time>
</trkpt>
<trkpt lat="57.400916" lon="9.742685">
<ele>15.003238</ele>
<time>2026-07-16T13:49:15.000Z</time>
</trkpt>
<trkpt lat="57.400974" lon="9.742705">
<ele>15.005961</ele>
<time>2026-07-16T13:49:16.000Z</time>
</trkpt>
<trkpt lat="57.401031" lon="9.742722">
<ele>15.008625</ele>
<time>2026-07-16T13:49:17.000Z</time>
</trkpt>
<trkpt lat="57.401086" lon="9.742737">
<ele>15.011191</ele>
<time>2026-07-16T13:49:18.000Z</time>
</trkpt>
<trkpt lat="57.401142" lon="9.742754">
<ele>15.013810</ele>
<time>2026-07-16T13:49:19.000Z</time>
</trkpt>
<trkpt lat="57.401199" lon="9.742772">
<ele>15.016479</ele>
<time>2026-07-16T13:49:20.000Z</time>
</trkpt>
<trkpt lat="57.401258" lon="9.742791">
<ele>15.019243</ele>
<time>2026-07-16T13:49:21.000Z</time>
</trkpt>
<trkpt lat="57.401318" lon="9.742810">
<ele>15.022052</ele>
<time>2026-07-16T13:49:22.000Z</time>
</trkpt>
<trkpt lat="57.401380" lon="9.742827">
<ele>15.024945</ele>
<time>2026-07-16T13:49:23.000Z</time>
</trkpt>
<trkpt lat="57.401438" lon="9.742841">
<ele>15.027644</ele>
<time>2026-07-16T13:49:24.000Z</time>
</trkpt>
<trkpt lat="57.401495" lon="9.742849">
<ele>15.030283</ele>
<time>2026-07-16T13:49:25.000Z</time>
</trkpt>
<trkpt lat="57.401554" lon="9.742854">
<ele>15.033009</ele>
<time>2026-07-16T13:49:26.000Z</time>
</trkpt>
<trkpt lat="57.401608" lon="9.742854">
<ele>15.035501</ele>
<time>2026-07-16T13:49:27.000Z</time>
</trkpt>
<trkpt lat="57.401661" lon="9.742852">
<ele>15.037948</ele>
<time>2026-07-16T13:49:28.000Z</time>
</trkpt>
<trkpt lat="57.401713" lon="9.742851">
<ele>15.027973</ele>
<time>2026-07-16T13:49:29.000Z</time>
</trkpt>
<trkpt lat="57.401773" lon="9.742850">
<ele>14.991234</ele>
<time>2026-07-16T13:49:30.000Z</time>
</trkpt>
<trkpt lat="57.401835" lon="9.742850">
<ele>14.953273</ele>
<time>2026-07-16T13:49:31.000Z</time>
</trkpt>
<trkpt lat="57.401896" lon="9.742849">
<ele>14.915922</ele>
<time>2026-07-16T13:49:32.000Z</time>
</trkpt>
<trkpt lat="57.401957" lon="9.742848">
<ele>14.878571</ele>
<time>2026-07-16T13:49:33.000Z</time>
</trkpt>
<trkpt lat="57.402023" lon="9.742848">
<ele>14.838160</ele>
<time>2026-07-16T13:49:34.000Z</time>
</trkpt>
<trkpt lat="57.402086" lon="9.742847">
<ele>14.799584</ele>
<time>2026-07-16T13:49:35.000Z</time>
</trkpt>
<trkpt lat="57.402150" lon="9.742844">
<ele>14.760386</ele>
<time>2026-07-16T13:49:36.000Z</time>
</trkpt>
<trkpt lat="57.402216" lon="9.742841">
<ele>14.719963</ele>
<time>2026-07-16T13:49:37.000Z</time>
</trkpt>
<trkpt lat="57.402281" lon="9.742838">
<ele>14.680152</ele>
<time>2026-07-16T13:49:38.000Z</time>
</trkpt>
<trkpt lat="57.402341" lon="9.742836">
<ele>14.643409</ele>
<time>2026-07-16T13:49:39.000Z</time>
</trkpt>
<trkpt lat="57.402406" lon="9.742834">
<ele>14.603604</ele>
<time>2026-07-16T13:49:40.000Z</time>
</trkpt>
<trkpt lat="57.402469" lon="9.742833">
<ele>14.565029</ele>
<time>2026-07-16T13:49:41.000Z</time>
</trkpt>
<trkpt lat="57.402530" lon="9.742832">
<ele>14.527678</ele>
<time>2026-07-16T13:49:42.000Z</time>
</trkpt>
<trkpt lat="57.402593" lon="9.742831">
<ele>14.489103</ele>
<time>2026-07-16T13:49:43.000Z</time>
</trkpt>
<trkpt lat="57.402655" lon="9.742829">
<ele>14.451135</ele>
<time>2026-07-16T13:49:44.000Z</time>
</trkpt>
<trkpt lat="57.402716" lon="9.742826">
<ele>14.413773</ele>
<time>2026-07-16T13:49:45.000Z</time>
</trkpt>
<trkpt lat="57.402773" lon="9.742823">
<ele>14.378858</ele>
<time>2026-07-16T13:49:46.000Z</time>
</trkpt>
<trkpt lat="57.402837" lon="9.742823">
<ele>14.339672</ele>
<time>2026-07-16T13:49:47.000Z</time>
</trkpt>
<trkpt lat="57.402900" lon="9.742824">
<ele>14.301096</ele>
<time>2026-07-16T13:49:48.000Z</time>
</trkpt>
<trkpt lat="57.402963" lon="9.742827">
<ele>14.262510</ele>
<time>2026-07-16T13:49:49.000Z</time>
</trkpt>
<trkpt lat="57.403022" lon="9.742835">
<ele>14.226289</ele>
<time>2026-07-16T13:49:50.000Z</time>
</trkpt>
<trkpt lat="57.403079" lon="9.742845">
<ele>14.191233</ele>
<time>2026-07-16T13:49:51.000Z</time>
</trkpt>
<trkpt lat="57.403137" lon="9.742857">
<ele>14.155500</ele>
<time>2026-07-16T13:49:52.000Z</time>
</trkpt>
<trkpt lat="57.403197" lon="9.742873">
<ele>14.118386</ele>
<time>2026-07-16T13:49:53.000Z</time>
</trkpt>
<trkpt lat="57.403252" lon="9.742890">
<ele>14.084246</ele>
<time>2026-07-16T13:49:54.000Z</time>
</trkpt>
<trkpt lat="57.403307" lon="9.742910">
<ele>14.049930</ele>
<time>2026-07-16T13:49:55.000Z</time>
</trkpt>
<trkpt lat="57.403371" lon="9.742931">
<ele>14.010137</ele>
<time>2026-07-16T13:49:56.000Z</time>
</trkpt>
<trkpt lat="57.403431" lon="9.742954">
<ele>13.972624</ele>
<time>2026-07-16T13:49:57.000Z</time>
</trkpt>
<trkpt lat="57.403487" lon="9.742974">
<ele>13.939057</ele>
<time>2026-07-16T13:49:58.000Z</time>
</trkpt>
<trkpt lat="57.403544" lon="9.742995">
<ele>14.001808</ele>
<time>2026-07-16T13:49:59.000Z</time>
</trkpt>
<trkpt lat="57.403610" lon="9.743020">
<ele>14.074546</ele>
<time>2026-07-16T13:50:00.000Z</time>
</trkpt>
<trkpt lat="57.403674" lon="9.743045">
<ele>14.145169</ele>
<time>2026-07-16T13:50:01.000Z</time>
</trkpt>
<trkpt lat="57.403735" lon="9.743070">
<ele>14.212625</ele>
<time>2026-07-16T13:50:02.000Z</time>
</trkpt>
<trkpt lat="57.403795" lon="9.743090">
<ele>14.278451</ele>
<time>2026-07-16T13:50:03.000Z</time>
</trkpt>
<trkpt lat="57.403857" lon="9.743110">
<ele>14.346405</ele>
<time>2026-07-16T13:50:04.000Z</time>
</trkpt>
<trkpt lat="57.403919" lon="9.743134">
<ele>14.414794</ele>
<time>2026-07-16T13:50:05.000Z</time>
</trkpt>
<trkpt lat="57.403977" lon="9.743160">
<ele>14.479225</ele>
<time>2026-07-16T13:50:06.000Z</time>
</trkpt>
<trkpt lat="57.404033" lon="9.743186">
<ele>14.541559</ele>
<time>2026-07-16T13:50:07.000Z</time>
</trkpt>
<trkpt lat="57.404088" lon="9.743210">
<ele>14.602568</ele>
<time>2026-07-16T13:50:08.000Z</time>
</trkpt>
<trkpt lat="57.404141" lon="9.743230">
<ele>14.660970</ele>
<time>2026-07-16T13:50:09.000Z</time>
</trkpt>
<trkpt lat="57.404189" lon="9.743247">
<ele>14.713737</ele>
<time>2026-07-16T13:50:10.000Z</time>
</trkpt>
<trkpt lat="57.404240" lon="9.743266">
<ele>14.769907</ele>
<time>2026-07-16T13:50:11.000Z</time>
</trkpt>
<trkpt lat="57.404285" lon="9.743286">
<ele>14.819872</ele>
<time>2026-07-16T13:50:12.000Z</time>
</trkpt>
<trkpt lat="57.404330" lon="9.743303">
<ele>14.869461</ele>
<time>2026-07-16T13:50:13.000Z</time>
</trkpt>
<trkpt lat="57.404376" lon="9.743319">
<ele>14.919998</ele>
<time>2026-07-16T13:50:14.000Z</time>
</trkpt>
<trkpt lat="57.404416" lon="9.743335">
<ele>14.964182</ele>
<time>2026-07-16T13:50:15.000Z</time>
</trkpt>
<trkpt lat="57.404453" lon="9.743351">
<ele>15.005206</ele>
<time>2026-07-16T13:50:16.000Z</time>
</trkpt>
<trkpt lat="57.404481" lon="9.743363">
<ele>15.036237</ele>
<time>2026-07-16T13:50:17.000Z</time>
</trkpt>
<trkpt lat="57.404507" lon="9.743372">
<ele>15.064796</ele>
<time>2026-07-16T13:50:36.000Z</time>
</trkpt>
<trkpt lat="57.404537" lon="9.743383">
<ele>15.097817</ele>
<time>2026-07-16T13:50:37.000Z</time>
</trkpt>
<trkpt lat="57.404564" lon="9.743396">
<ele>15.127938</ele>
<time>2026-07-16T13:50:38.000Z</time>
</trkpt>
<trkpt lat="57.404597" lon="9.743412">
<ele>15.164767</ele>
<time>2026-07-16T13:50:39.000Z</time>
</trkpt>
<trkpt lat="57.404628" lon="9.743428">
<ele>15.199512</ele>
<time>2026-07-16T13:50:40.000Z</time>
</trkpt>
<trkpt lat="57.404659" lon="9.743440">
<ele>15.233707</ele>
<time>2026-07-16T13:50:41.000Z</time>
</trkpt>
<trkpt lat="57.404692" lon="9.743452">
<ele>15.270019</ele>
<time>2026-07-16T13:50:42.000Z</time>
</trkpt>
<trkpt lat="57.404727" lon="9.743465">
<ele>15.308562</ele>
<time>2026-07-16T13:50:43.000Z</time>
</trkpt>
<trkpt lat="57.404767" lon="9.743485">
<ele>15.353295</ele>
<time>2026-07-16T13:50:44.000Z</time>
</trkpt>
<trkpt lat="57.404803" lon="9.743504">
<ele>15.393709</ele>
<time>2026-07-16T13:50:45.000Z</time>
</trkpt>
<trkpt lat="57.404845" lon="9.743524">
<ele>15.440531</ele>
<time>2026-07-16T13:50:46.000Z</time>
</trkpt>
<trkpt lat="57.404890" lon="9.743543">
<ele>15.490364</ele>
<time>2026-07-16T13:50:47.000Z</time>
</trkpt>
<trkpt lat="57.404934" lon="9.743562">
<ele>15.539146</ele>
<time>2026-07-16T13:50:48.000Z</time>
</trkpt>
<trkpt lat="57.404978" lon="9.743579">
<ele>15.587677</ele>
<time>2026-07-16T13:50:49.000Z</time>
</trkpt>
<trkpt lat="57.405024" lon="9.743596">
<ele>15.638324</ele>
<time>2026-07-16T13:50:50.000Z</time>
</trkpt>
<trkpt lat="57.405073" lon="9.743611">
<ele>15.691950</ele>
<time>2026-07-16T13:50:51.000Z</time>
</trkpt>
<trkpt lat="57.405120" lon="9.743625">
<ele>15.743351</ele>
<time>2026-07-16T13:50:52.000Z</time>
</trkpt>
<trkpt lat="57.405167" lon="9.743639">
<ele>15.794753</ele>
<time>2026-07-16T13:50:53.000Z</time>
</trkpt>
<trkpt lat="57.405218" lon="9.743655">
<ele>15.850605</ele>
<time>2026-07-16T13:50:54.000Z</time>
</trkpt>
<trkpt lat="57.405264" lon="9.743676">
<ele>15.854203</ele>
<time>2026-07-16T13:50:55.000Z</time>
</trkpt>
<trkpt lat="57.405312" lon="9.743698">
<ele>15.788549</ele>
<time>2026-07-16T13:50:56.000Z</time>
</trkpt>
<trkpt lat="57.405363" lon="9.743719">
<ele>15.719180</ele>
<time>2026-07-16T13:50:57.000Z</time>
</trkpt>
<trkpt lat="57.405415" lon="9.743738">
<ele>15.648804</ele>
<time>2026-07-16T13:50:58.000Z</time>
</trkpt>
<trkpt lat="57.405467" lon="9.743757">
<ele>15.578428</ele>
<time>2026-07-16T13:50:59.000Z</time>
</trkpt>
<trkpt lat="57.405521" lon="9.743779">
<ele>15.505014</ele>
<time>2026-07-16T13:51:00.000Z</time>
</trkpt>
<trkpt lat="57.405580" lon="9.743805">
<ele>15.424490</ele>
<time>2026-07-16T13:51:01.000Z</time>
</trkpt>
<trkpt lat="57.405642" lon="9.743833">
<ele>15.339758</ele>
<time>2026-07-16T13:51:02.000Z</time>
</trkpt>
<trkpt lat="57.405700" lon="9.743858">
<ele>15.260691</ele>
<time>2026-07-16T13:51:03.000Z</time>
</trkpt>
<trkpt lat="57.405762" lon="9.743881">
<ele>15.176732</ele>
<time>2026-07-16T13:51:04.000Z</time>
</trkpt>
<trkpt lat="57.405825" lon="9.743905">
<ele>15.091331</ele>
<time>2026-07-16T13:51:05.000Z</time>
</trkpt>
<trkpt lat="57.405889" lon="9.743928">
<ele>15.004767</ele>
<time>2026-07-16T13:51:06.000Z</time>
</trkpt>
<trkpt lat="57.405956" lon="9.743955">
<ele>14.913725</ele>
<time>2026-07-16T13:51:07.000Z</time>
</trkpt>
<trkpt lat="57.406014" lon="9.743979">
<ele>14.834816</ele>
<time>2026-07-16T13:51:08.000Z</time>
</trkpt>
<trkpt lat="57.406085" lon="9.744008">
<ele>14.738279</ele>
<time>2026-07-16T13:51:09.000Z</time>
</trkpt>
<trkpt lat="57.406158" lon="9.744038">
<ele>14.638995</ele>
<time>2026-07-16T13:51:10.000Z</time>
</trkpt>
<trkpt lat="57.406227" lon="9.744065">
<ele>14.545355</ele>
<time>2026-07-16T13:51:11.000Z</time>
</trkpt>
<trkpt lat="57.406294" lon="9.744091">
<ele>14.454462</ele>
<time>2026-07-16T13:51:12.000Z</time>
</trkpt>
<trkpt lat="57.406348" lon="9.744112">
<ele>14.381199</ele>
<time>2026-07-16T13:51:13.000Z</time>
</trkpt>
<trkpt lat="57.406411" lon="9.744140">
<ele>14.295176</ele>
<time>2026-07-16T13:51:14.000Z</time>
</trkpt>
<trkpt lat="57.406480" lon="9.744168">
<ele>14.201387</ele>
<time>2026-07-16T13:51:15.000Z</time>
</trkpt>
<trkpt lat="57.406543" lon="9.744192">
<ele>14.115985</ele>
<time>2026-07-16T13:51:16.000Z</time>
</trkpt>
<trkpt lat="57.406599" lon="9.744212">
<ele>14.040259</ele>
<time>2026-07-16T13:51:17.000Z</time>
</trkpt>
<trkpt lat="57.406660" lon="9.744232">
<ele>13.958003</ele>
<time>2026-07-16T13:51:18.000Z</time>
</trkpt>
<trkpt lat="57.406722" lon="9.744252">
<ele>13.874439</ele>
<time>2026-07-16T13:51:19.000Z</time>
</trkpt>
<trkpt lat="57.406783" lon="9.744272">
<ele>13.792182</ele>
<time>2026-07-16T13:51:20.000Z</time>
</trkpt>
<trkpt lat="57.406844" lon="9.744297">
<ele>13.709230</ele>
<time>2026-07-16T13:51:21.000Z</time>
</trkpt>
<trkpt lat="57.406907" lon="9.744320">
<ele>13.623969</ele>
<time>2026-07-16T13:51:22.000Z</time>
</trkpt>
<trkpt lat="57.406969" lon="9.744342">
<ele>13.540148</ele>
<time>2026-07-16T13:51:23.000Z</time>
</trkpt>
<trkpt lat="57.407029" lon="9.744363">
<ele>13.480575</ele>
<time>2026-07-16T13:51:24.000Z</time>
</trkpt>
<trkpt lat="57.407093" lon="9.744383">
<ele>13.450682</ele>
<time>2026-07-16T13:51:25.000Z</time>
</trkpt>
<trkpt lat="57.407156" lon="9.744405">
<ele>13.421156</ele>
<time>2026-07-16T13:51:26.000Z</time>
</trkpt>
<trkpt lat="57.407215" lon="9.744429">
<ele>13.393336</ele>
<time>2026-07-16T13:51:27.000Z</time>
</trkpt>
<trkpt lat="57.407278" lon="9.744452">
<ele>13.363763</ele>
<time>2026-07-16T13:51:28.000Z</time>
</trkpt>
<trkpt lat="57.407338" lon="9.744475">
<ele>13.335544</ele>
<time>2026-07-16T13:51:29.000Z</time>
</trkpt>
<trkpt lat="57.407403" lon="9.744500">
<ele>13.304970</ele>
<time>2026-07-16T13:51:30.000Z</time>
</trkpt>
<trkpt lat="57.407468" lon="9.744526">
<ele>13.274345</ele>
<time>2026-07-16T13:51:31.000Z</time>
</trkpt>
<trkpt lat="57.407529" lon="9.744551">
<ele>13.245572</ele>
<time>2026-07-16T13:51:32.000Z</time>
</trkpt>
<trkpt lat="57.407595" lon="9.744576">
<ele>13.214547</ele>
<time>2026-07-16T13:51:33.000Z</time>
</trkpt>
<trkpt lat="57.407655" lon="9.744599">
<ele>13.186328</ele>
<time>2026-07-16T13:51:34.000Z</time>
</trkpt>
<trkpt lat="57.407721" lon="9.744626">
<ele>13.155200</ele>
<time>2026-07-16T13:51:35.000Z</time>
</trkpt>
<trkpt lat="57.407786" lon="9.744652">
<ele>13.124574</ele>
<time>2026-07-16T13:51:36.000Z</time>
</trkpt>
<trkpt lat="57.407846" lon="9.744674">
<ele>13.096405</ele>
<time>2026-07-16T13:51:37.000Z</time>
</trkpt>
<trkpt lat="57.407905" lon="9.744694">
<ele>13.068781</ele>
<time>2026-07-16T13:51:38.000Z</time>
</trkpt>
<trkpt lat="57.407960" lon="9.744713">
<ele>13.043013</ele>
<time>2026-07-16T13:51:39.000Z</time>
</trkpt>
<trkpt lat="57.408026" lon="9.744738">
<ele>13.011988</ele>
<time>2026-07-16T13:51:40.000Z</time>
</trkpt>
<trkpt lat="57.408091" lon="9.744763">
<ele>12.981414</ele>
<time>2026-07-16T13:51:41.000Z</time>
</trkpt>
<trkpt lat="57.408151" lon="9.744786">
<ele>12.953195</ele>
<time>2026-07-16T13:51:42.000Z</time>
</trkpt>
<trkpt lat="57.408213" lon="9.744810">
<ele>12.924024</ele>
<time>2026-07-16T13:51:43.000Z</time>
</trkpt>
<trkpt lat="57.408271" lon="9.744835">
<ele>12.896599</ele>
<time>2026-07-16T13:51:44.000Z</time>
</trkpt>
<trkpt lat="57.408331" lon="9.744859">
<ele>12.868330</ele>
<time>2026-07-16T13:51:45.000Z</time>
</trkpt>
<trkpt lat="57.408390" lon="9.744881">
<ele>12.840612</ele>
<time>2026-07-16T13:51:46.000Z</time>
</trkpt>
<trkpt lat="57.408449" lon="9.744900">
<ele>12.813031</ele>
<time>2026-07-16T13:51:47.000Z</time>
</trkpt>
<trkpt lat="57.408507" lon="9.744919">
<ele>12.785904</ele>
<time>2026-07-16T13:51:48.000Z</time>
</trkpt>
<trkpt lat="57.408562" lon="9.744941">
<ele>12.759990</ele>
<time>2026-07-16T13:51:49.000Z</time>
</trkpt>
<trkpt lat="57.408626" lon="9.744965">
<ele>12.729917</ele>
<time>2026-07-16T13:51:50.000Z</time>
</trkpt>
<trkpt lat="57.408690" lon="9.744994">
<ele>12.699574</ele>
<time>2026-07-16T13:51:51.000Z</time>
</trkpt>
<trkpt lat="57.408754" lon="9.745021">
<ele>12.669345</ele>
<time>2026-07-16T13:51:52.000Z</time>
</trkpt>
<trkpt lat="57.408816" lon="9.745047">
<ele>12.668625</ele>
<time>2026-07-16T13:51:53.000Z</time>
</trkpt>
<trkpt lat="57.408876" lon="9.745070">
<ele>12.674718</ele>
<time>2026-07-16T13:51:54.000Z</time>
</trkpt>
<trkpt lat="57.408940" lon="9.745095">
<ele>12.681221</ele>
<time>2026-07-16T13:51:55.000Z</time>
</trkpt>
<trkpt lat="57.409003" lon="9.745121">
<ele>12.687640</ele>
<time>2026-07-16T13:51:56.000Z</time>
</trkpt>
<trkpt lat="57.409066" lon="9.745144">
<ele>12.694025</ele>
<time>2026-07-16T13:51:57.000Z</time>
</trkpt>
<trkpt lat="57.409128" lon="9.745165">
<ele>12.700292</ele>
<time>2026-07-16T13:51:58.000Z</time>
</trkpt>
<trkpt lat="57.409181" lon="9.745185">
<ele>12.705671</ele>
<time>2026-07-16T13:51:59.000Z</time>
</trkpt>
<trkpt lat="57.409244" lon="9.745210">
<ele>12.712077</ele>
<time>2026-07-16T13:52:00.000Z</time>
</trkpt>
<trkpt lat="57.409307" lon="9.745236">
<ele>12.718495</ele>
<time>2026-07-16T13:52:01.000Z</time>
</trkpt>
<trkpt lat="57.409369" lon="9.745260">
<ele>12.724793</ele>
<time>2026-07-16T13:52:02.000Z</time>
</trkpt>
<trkpt lat="57.409428" lon="9.745281">
<ele>12.730768</ele>
<time>2026-07-16T13:52:03.000Z</time>
</trkpt>
<trkpt lat="57.409486" lon="9.745306">
<ele>12.736689</ele>
<time>2026-07-16T13:52:04.000Z</time>
</trkpt>
<trkpt lat="57.409537" lon="9.745327">
<ele>12.741884</ele>
<time>2026-07-16T13:52:05.000Z</time>
</trkpt>
<trkpt lat="57.409598" lon="9.745352">
<ele>12.748096</ele>
<time>2026-07-16T13:52:06.000Z</time>
</trkpt>
<trkpt lat="57.409657" lon="9.745377">
<ele>12.754114</ele>
<time>2026-07-16T13:52:07.000Z</time>
</trkpt>
<trkpt lat="57.409710" lon="9.745403">
<ele>12.759566</ele>
<time>2026-07-16T13:52:08.000Z</time>
</trkpt>
<trkpt lat="57.409759" lon="9.745430">
<ele>12.764649</ele>
<time>2026-07-16T13:52:09.000Z</time>
</trkpt>
<trkpt lat="57.409812" lon="9.745460">
<ele>12.770159</ele>
<time>2026-07-16T13:52:10.000Z</time>
</trkpt>
<trkpt lat="57.409865" lon="9.745489">
<ele>12.775654</ele>
<time>2026-07-16T13:52:11.000Z</time>
</trkpt>
<trkpt lat="57.409917" lon="9.745523">
<ele>12.781137</ele>
<time>2026-07-16T13:52:12.000Z</time>
</trkpt>
<trkpt lat="57.409960" lon="9.745560">
<ele>12.785850</ele>
<time>2026-07-16T13:52:13.000Z</time>
</trkpt>
<trkpt lat="57.410003" lon="9.745609">
<ele>12.790867</ele>
<time>2026-07-16T13:52:14.000Z</time>
</trkpt>
<trkpt lat="57.410039" lon="9.745663">
<ele>12.795470</ele>
<time>2026-07-16T13:52:15.000Z</time>
</trkpt>
<trkpt lat="57.410069" lon="9.745721">
<ele>12.799777</ele>
<time>2026-07-16T13:52:16.000Z</time>
</trkpt>
<trkpt lat="57.410095" lon="9.745775">
<ele>12.803657</ele>
<time>2026-07-16T13:52:17.000Z</time>
</trkpt>
<trkpt lat="57.410117" lon="9.745825">
<ele>12.807115</ele>
<time>2026-07-16T13:52:18.000Z</time>
</trkpt>
<trkpt lat="57.410133" lon="9.745869">
<ele>12.809958</ele>
<time>2026-07-16T13:52:19.000Z</time>
</trkpt>
<trkpt lat="57.410145" lon="9.745906">
<ele>12.812272</ele>
<time>2026-07-16T13:52:20.000Z</time>
</trkpt>
<trkpt lat="57.410161" lon="9.745972">
<ele>12.816149</ele>
<time>2026-07-16T13:52:25.000Z</time>
</trkpt>
<trkpt lat="57.410178" lon="9.745996">
<ele>12.818272</ele>
<time>2026-07-16T13:52:26.000Z</time>
</trkpt>
<trkpt lat="57.410205" lon="9.746001">
<ele>12.820971</ele>
<time>2026-07-16T13:52:27.000Z</time>
</trkpt>
<trkpt lat="57.410238" lon="9.745987">
<ele>12.824337</ele>
<time>2026-07-16T13:52:28.000Z</time>
</trkpt>
<trkpt lat="57.410275" lon="9.745964">
<ele>12.828217</ele>
<time>2026-07-16T13:52:29.000Z</time>
</trkpt>
<trkpt lat="57.410319" lon="9.745943">
<ele>12.832735</ele>
<time>2026-07-16T13:52:30.000Z</time>
</trkpt>
<trkpt lat="57.410365" lon="9.745929">
<ele>12.837371</ele>
<time>2026-07-16T13:52:31.000Z</time>
</trkpt>
<trkpt lat="57.410416" lon="9.745914">
<ele>12.842039</ele>
<time>2026-07-16T13:52:32.000Z</time>
</trkpt>
<trkpt lat="57.410467" lon="9.745899">
<ele>12.818383</ele>
<time>2026-07-16T13:52:33.000Z</time>
</trkpt>
<trkpt lat="57.410520" lon="9.745884">
<ele>12.793822</ele>
<time>2026-07-16T13:52:34.000Z</time>
</trkpt>
<trkpt lat="57.410572" lon="9.745873">
<ele>12.769845</ele>
<time>2026-07-16T13:52:35.000Z</time>
</trkpt>
<trkpt lat="57.410626" lon="9.745863">
<ele>12.744983</ele>
<time>2026-07-16T13:52:36.000Z</time>
</trkpt>
<trkpt lat="57.410680" lon="9.745855">
<ele>12.720166</ele>
<time>2026-07-16T13:52:37.000Z</time>
</trkpt>
<trkpt lat="57.410736" lon="9.745855">
<ele>12.694510</ele>
<time>2026-07-16T13:52:38.000Z</time>
</trkpt>
<trkpt lat="57.410793" lon="9.745860">
<ele>12.668368</ele>
<time>2026-07-16T13:52:39.000Z</time>
</trkpt>
<trkpt lat="57.410851" lon="9.745869">
<ele>12.641703</ele>
<time>2026-07-16T13:52:40.000Z</time>
</trkpt>
<trkpt lat="57.410911" lon="9.745876">
<ele>12.614161</ele>
<time>2026-07-16T13:52:41.000Z</time>
</trkpt>
<trkpt lat="57.410969" lon="9.745883">
<ele>12.587534</ele>
<time>2026-07-16T13:52:42.000Z</time>
</trkpt>
<trkpt lat="57.411029" lon="9.745895">
<ele>12.559887</ele>
<time>2026-07-16T13:52:43.000Z</time>
</trkpt>
<trkpt lat="57.411090" lon="9.745911">
<ele>12.531663</ele>
<time>2026-07-16T13:52:44.000Z</time>
</trkpt>
<trkpt lat="57.411151" lon="9.745935">
<ele>12.503097</ele>
<time>2026-07-16T13:52:45.000Z</time>
</trkpt>
<trkpt lat="57.411206" lon="9.745967">
<ele>12.476691</ele>
<time>2026-07-16T13:52:46.000Z</time>
</trkpt>
<trkpt lat="57.411262" lon="9.746009">
<ele>12.449022</ele>
<time>2026-07-16T13:52:47.000Z</time>
</trkpt>
<trkpt lat="57.411314" lon="9.746054">
<ele>12.422739</ele>
<time>2026-07-16T13:52:48.000Z</time>
</trkpt>
<trkpt lat="57.411359" lon="9.746098">
<ele>12.399439</ele>
<time>2026-07-16T13:52:49.000Z</time>
</trkpt>
<trkpt lat="57.411413" lon="9.746149">
<ele>12.371683</ele>
<time>2026-07-16T13:52:50.000Z</time>
</trkpt>
<trkpt lat="57.411469" lon="9.746201">
<ele>12.342998</ele>
<time>2026-07-16T13:52:51.000Z</time>
</trkpt>
<trkpt lat="57.411520" lon="9.746253">
<ele>12.316342</ele>
<time>2026-07-16T13:52:52.000Z</time>
</trkpt>
<trkpt lat="57.411567" lon="9.746307">
<ele>12.291020</ele>
<time>2026-07-16T13:52:53.000Z</time>
</trkpt>
<trkpt lat="57.411613" lon="9.746363">
<ele>12.265820</ele>
<time>2026-07-16T13:52:54.000Z</time>
</trkpt>
<trkpt lat="57.411661" lon="9.746421">
<ele>12.239583</ele>
<time>2026-07-16T13:52:55.000Z</time>
</trkpt>
<trkpt lat="57.411708" lon="9.746481">
<ele>12.213452</ele>
<time>2026-07-16T13:52:56.000Z</time>
</trkpt>
<trkpt lat="57.411751" lon="9.746541">
<ele>12.188809</ele>
<time>2026-07-16T13:52:57.000Z</time>
</trkpt>
<trkpt lat="57.411796" lon="9.746604">
<ele>12.162990</ele>
<time>2026-07-16T13:52:58.000Z</time>
</trkpt>
<trkpt lat="57.411839" lon="9.746663">
<ele>12.138494</ele>
<time>2026-07-16T13:52:59.000Z</time>
</trkpt>
<trkpt lat="57.411884" lon="9.746721">
<ele>12.113398</ele>
<time>2026-07-16T13:53:00.000Z</time>
</trkpt>
<trkpt lat="57.411929" lon="9.746779">
<ele>12.088302</ele>
<time>2026-07-16T13:53:01.000Z</time>
</trkpt>
<trkpt lat="57.411972" lon="9.746838">
<ele>12.063807</ele>
<time>2026-07-16T13:53:02.000Z</time>
</trkpt>
<trkpt lat="57.412008" lon="9.746903">
<ele>12.040801</ele>
<time>2026-07-16T13:53:03.000Z</time>
</trkpt>
<trkpt lat="57.412046" lon="9.746973">
<ele>12.024450</ele>
<time>2026-07-16T13:53:04.000Z</time>
</trkpt>
<trkpt lat="57.412078" lon="9.747046">
<ele>12.090264</ele>
<time>2026-07-16T13:53:05.000Z</time>
</trkpt>
<trkpt lat="57.412106" lon="9.747120">
<ele>12.153500</ele>
<time>2026-07-16T13:53:06.000Z</time>
</trkpt>
<trkpt lat="57.412133" lon="9.747201">
<ele>12.220108</ele>
<time>2026-07-16T13:53:07.000Z</time>
</trkpt>
<trkpt lat="57.412156" lon="9.747284">
<ele>12.285376</ele>
<time>2026-07-16T13:53:08.000Z</time>
</trkpt>
<trkpt lat="57.412176" lon="9.747375">
<ele>12.354100</ele>
<time>2026-07-16T13:53:09.000Z</time>
</trkpt>
<trkpt lat="57.412193" lon="9.747468">
<ele>12.422772</ele>
<time>2026-07-16T13:53:10.000Z</time>
</trkpt>
<trkpt lat="57.412206" lon="9.747563">
<ele>12.491310</ele>
<time>2026-07-16T13:53:11.000Z</time>
</trkpt>
<trkpt lat="57.412214" lon="9.747660">
<ele>12.559926</ele>
<time>2026-07-16T13:53:12.000Z</time>
</trkpt>
<trkpt lat="57.412218" lon="9.747742">
<ele>12.617498</ele>
<time>2026-07-16T13:53:13.000Z</time>
</trkpt>
<trkpt lat="57.412225" lon="9.747843">
<ele>12.688703</ele>
<time>2026-07-16T13:53:14.000Z</time>
</trkpt>
<trkpt lat="57.412230" lon="9.747949">
<ele>12.763106</ele>
<time>2026-07-16T13:53:15.000Z</time>
</trkpt>
<trkpt lat="57.412234" lon="9.748044">
<ele>12.829736</ele>
<time>2026-07-16T13:53:16.000Z</time>
</trkpt>
<trkpt lat="57.412238" lon="9.748143">
<ele>12.899154</ele>
<time>2026-07-16T13:53:17.000Z</time>
</trkpt>
<trkpt lat="57.412239" lon="9.748243">
<ele>12.969090</ele>
<time>2026-07-16T13:53:18.000Z</time>
</trkpt>
<trkpt lat="57.412239" lon="9.748344">
<ele>13.039713</ele>
<time>2026-07-16T13:53:19.000Z</time>
</trkpt>
<trkpt lat="57.412242" lon="9.748446">
<ele>13.111141</ele>
<time>2026-07-16T13:53:20.000Z</time>
</trkpt>
<trkpt lat="57.412243" lon="9.748549">
<ele>13.183174</ele>
<time>2026-07-16T13:53:21.000Z</time>
</trkpt>
<trkpt lat="57.412246" lon="9.748654">
<ele>13.256696</ele>
<time>2026-07-16T13:53:22.000Z</time>
</trkpt>
<trkpt lat="57.412249" lon="9.748754">
<ele>13.326728</ele>
<time>2026-07-16T13:53:23.000Z</time>
</trkpt>
<trkpt lat="57.412253" lon="9.748858">
<ele>13.399634</ele>
<time>2026-07-16T13:53:24.000Z</time>
</trkpt>
<trkpt lat="57.412260" lon="9.748959">
<ele>13.470839</ele>
<time>2026-07-16T13:53:25.000Z</time>
</trkpt>
<trkpt lat="57.412267" lon="9.749062">
<ele>13.543431</ele>
<time>2026-07-16T13:53:26.000Z</time>
</trkpt>
<trkpt lat="57.412275" lon="9.749163">
<ele>13.614813</ele>
<time>2026-07-16T13:53:27.000Z</time>
</trkpt>
<trkpt lat="57.412285" lon="9.749261">
<ele>13.684557</ele>
<time>2026-07-16T13:53:28.000Z</time>
</trkpt>
<trkpt lat="57.412297" lon="9.749359">
<ele>13.754831</ele>
<time>2026-07-16T13:53:29.000Z</time>
</trkpt>
<trkpt lat="57.412311" lon="9.749458">
<ele>13.826401</ele>
<time>2026-07-16T13:53:30.000Z</time>
</trkpt>
<trkpt lat="57.412324" lon="9.749561">
<ele>13.900373</ele>
<time>2026-07-16T13:53:31.000Z</time>
</trkpt>
<trkpt lat="57.412335" lon="9.749662">
<ele>13.972425</ele>
<time>2026-07-16T13:53:32.000Z</time>
</trkpt>
<trkpt lat="57.412346" lon="9.749756">
<ele>14.039686</ele>
<time>2026-07-16T13:53:33.000Z</time>
</trkpt>
<trkpt lat="57.412359" lon="9.749853">
<ele>14.109580</ele>
<time>2026-07-16T13:53:34.000Z</time>
</trkpt>
<trkpt lat="57.412373" lon="9.749962">
<ele>14.187934</ele>
<time>2026-07-16T13:53:35.000Z</time>
</trkpt>
<trkpt lat="57.412387" lon="9.750067">
<ele>14.263570</ele>
<time>2026-07-16T13:53:36.000Z</time>
</trkpt>
<trkpt lat="57.412400" lon="9.750166">
<ele>14.334821</ele>
<time>2026-07-16T13:53:37.000Z</time>
</trkpt>
<trkpt lat="57.412414" lon="9.750267">
<ele>14.375535</ele>
<time>2026-07-16T13:53:38.000Z</time>
</trkpt>
<trkpt lat="57.412432" lon="9.750368">
<ele>14.405729</ele>
<time>2026-07-16T13:53:39.000Z</time>
</trkpt>
<trkpt lat="57.412451" lon="9.750466">
<ele>14.435291</ele>
<time>2026-07-16T13:53:40.000Z</time>
</trkpt>
<trkpt lat="57.412470" lon="9.750564">
<ele>14.464853</ele>
<time>2026-07-16T13:53:41.000Z</time>
</trkpt>
<trkpt lat="57.412490" lon="9.750661">
<ele>14.494332</ele>
<time>2026-07-16T13:53:42.000Z</time>
</trkpt>
<trkpt lat="57.412511" lon="9.750757">
<ele>14.523741</ele>
<time>2026-07-16T13:53:43.000Z</time>
</trkpt>
<trkpt lat="57.412533" lon="9.750850">
<ele>14.552570</ele>
<time>2026-07-16T13:53:44.000Z</time>
</trkpt>
<trkpt lat="57.412557" lon="9.750948">
<ele>14.583125</ele>
<time>2026-07-16T13:53:45.000Z</time>
</trkpt>
<trkpt lat="57.412583" lon="9.751044">
<ele>14.613623</ele>
<time>2026-07-16T13:53:46.000Z</time>
</trkpt>
<trkpt lat="57.412610" lon="9.751138">
<ele>14.643859</ele>
<time>2026-07-16T13:53:47.000Z</time>
</trkpt>
<trkpt lat="57.412636" lon="9.751225">
<ele>14.672098</ele>
<time>2026-07-16T13:53:48.000Z</time>
</trkpt>
<trkpt lat="57.412663" lon="9.751312">
<ele>14.700597</ele>
<time>2026-07-16T13:53:49.000Z</time>
</trkpt>
<trkpt lat="57.412692" lon="9.751397">
<ele>14.729155</ele>
<time>2026-07-16T13:53:50.000Z</time>
</trkpt>
<trkpt lat="57.412723" lon="9.751481">
<ele>14.758055</ele>
<time>2026-07-16T13:53:51.000Z</time>
</trkpt>
<trkpt lat="57.412754" lon="9.751560">
<ele>14.785797</ele>
<time>2026-07-16T13:53:52.000Z</time>
</trkpt>
<trkpt lat="57.412787" lon="9.751636">
<ele>14.813505</ele>
<time>2026-07-16T13:53:53.000Z</time>
</trkpt>
<trkpt lat="57.412818" lon="9.751712">
<ele>14.840563</ele>
<time>2026-07-16T13:53:54.000Z</time>
</trkpt>
<trkpt lat="57.412854" lon="9.751786">
<ele>14.868865</ele>
<time>2026-07-16T13:53:55.000Z</time>
</trkpt>
<trkpt lat="57.412890" lon="9.751861">
<ele>14.897379</ele>
<time>2026-07-16T13:53:56.000Z</time>
</trkpt>
<trkpt lat="57.412927" lon="9.751932">
<ele>14.925419</ele>
<time>2026-07-16T13:53:57.000Z</time>
</trkpt>
<trkpt lat="57.412962" lon="9.751999">
<ele>14.951910</ele>
<time>2026-07-16T13:53:58.000Z</time>
</trkpt>
<trkpt lat="57.413002" lon="9.752066">
<ele>14.980299</ele>
<time>2026-07-16T13:53:59.000Z</time>
</trkpt>
<trkpt lat="57.413044" lon="9.752130">
<ele>15.008931</ele>
<time>2026-07-16T13:54:00.000Z</time>
</trkpt>
<trkpt lat="57.413086" lon="9.752193">
<ele>15.037384</ele>
<time>2026-07-16T13:54:01.000Z</time>
</trkpt>
<trkpt lat="57.413128" lon="9.752257">
<ele>15.066017</ele>
<time>2026-07-16T13:54:02.000Z</time>
</trkpt>
<trkpt lat="57.413173" lon="9.752320">
<ele>15.095716</ele>
<time>2026-07-16T13:54:03.000Z</time>
</trkpt>
<trkpt lat="57.413216" lon="9.752379">
<ele>15.123892</ele>
<time>2026-07-16T13:54:04.000Z</time>
</trkpt>
<trkpt lat="57.413253" lon="9.752422">
<ele>15.146895</ele>
<time>2026-07-16T13:54:05.000Z</time>
</trkpt>
<trkpt lat="57.413300" lon="9.752478">
<ele>15.176323</ele>
<time>2026-07-16T13:54:06.000Z</time>
</trkpt>
<trkpt lat="57.413354" lon="9.752538">
<ele>15.209486</ele>
<time>2026-07-16T13:54:07.000Z</time>
</trkpt>
<trkpt lat="57.413404" lon="9.752591">
<ele>15.239826</ele>
<time>2026-07-16T13:54:08.000Z</time>
</trkpt>
<trkpt lat="57.413451" lon="9.752641">
<ele>15.268372</ele>
<time>2026-07-16T13:54:09.000Z</time>
</trkpt>
<trkpt lat="57.413503" lon="9.752686">
<ele>15.298604</ele>
<time>2026-07-16T13:54:10.000Z</time>
</trkpt>
<trkpt lat="57.413556" lon="9.752727">
<ele>15.254330</ele>
<time>2026-07-16T13:54:11.000Z</time>
</trkpt>
<trkpt lat="57.413607" lon="9.752767">
<ele>15.204412</ele>
<time>2026-07-16T13:54:12.000Z</time>
</trkpt>
<trkpt lat="57.413659" lon="9.752804">
<ele>15.154202</ele>
<time>2026-07-16T13:54:13.000Z</time>
</trkpt>
<trkpt lat="57.413712" lon="9.752840">
<ele>15.103319</ele>
<time>2026-07-16T13:54:14.000Z</time>
</trkpt>
<trkpt lat="57.413765" lon="9.752874">
<ele>15.052760</ele>
<time>2026-07-16T13:54:15.000Z</time>
</trkpt>
<trkpt lat="57.413822" lon="9.752905">
<ele>14.999208</ele>
<time>2026-07-16T13:54:16.000Z</time>
</trkpt>
<trkpt lat="57.413876" lon="9.752933">
<ele>14.948657</ele>
<time>2026-07-16T13:54:17.000Z</time>
</trkpt>
<trkpt lat="57.413932" lon="9.752957">
<ele>14.896838</ele>
<time>2026-07-16T13:54:18.000Z</time>
</trkpt>
<trkpt lat="57.413989" lon="9.752975">
<ele>14.844706</ele>
<time>2026-07-16T13:54:19.000Z</time>
</trkpt>
<trkpt lat="57.414044" lon="9.752987">
<ele>14.794775</ele>
<time>2026-07-16T13:54:20.000Z</time>
</trkpt>
<trkpt lat="57.414097" lon="9.753001">
<ele>14.746508</ele>
<time>2026-07-16T13:54:21.000Z</time>
</trkpt>
<trkpt lat="57.414147" lon="9.753016">
<ele>14.700841</ele>
<time>2026-07-16T13:54:22.000Z</time>
</trkpt>
<trkpt lat="57.414199" lon="9.753035">
<ele>14.653057</ele>
<time>2026-07-16T13:54:23.000Z</time>
</trkpt>
<trkpt lat="57.414256" lon="9.753052">
<ele>14.601005</ele>
<time>2026-07-16T13:54:24.000Z</time>
</trkpt>
<trkpt lat="57.414310" lon="9.753067">
<ele>14.551775</ele>
<time>2026-07-16T13:54:25.000Z</time>
</trkpt>
<trkpt lat="57.414365" lon="9.753083">
<ele>14.501580</ele>
<time>2026-07-16T13:54:26.000Z</time>
</trkpt>
<trkpt lat="57.414417" lon="9.753094">
<ele>14.454392</ele>
<time>2026-07-16T13:54:27.000Z</time>
</trkpt>
<trkpt lat="57.414474" lon="9.753104">
<ele>14.402770</ele>
<time>2026-07-16T13:54:28.000Z</time>
</trkpt>
<trkpt lat="57.414525" lon="9.753116">
<ele>14.356419</ele>
<time>2026-07-16T13:54:29.000Z</time>
</trkpt>
<trkpt lat="57.414583" lon="9.753130">
<ele>14.303684</ele>
<time>2026-07-16T13:54:30.000Z</time>
</trkpt>
<trkpt lat="57.414642" lon="9.753144">
<ele>14.250055</ele>
<time>2026-07-16T13:54:31.000Z</time>
</trkpt>
<trkpt lat="57.414698" lon="9.753157">
<ele>14.199170</ele>
<time>2026-07-16T13:54:32.000Z</time>
</trkpt>
<trkpt lat="57.414755" lon="9.753174">
<ele>14.147118</ele>
<time>2026-07-16T13:54:33.000Z</time>
</trkpt>
<trkpt lat="57.414816" lon="9.753193">
<ele>14.091350</ele>
<time>2026-07-16T13:54:34.000Z</time>
</trkpt>
<trkpt lat="57.414877" lon="9.753210">
<ele>14.035734</ele>
<time>2026-07-16T13:54:35.000Z</time>
</trkpt>
<trkpt lat="57.414939" lon="9.753226">
<ele>13.979296</ele>
<time>2026-07-16T13:54:36.000Z</time>
</trkpt>
<trkpt lat="57.414992" lon="9.753238">
<ele>13.931155</ele>
<time>2026-07-16T13:54:37.000Z</time>
</trkpt>
<trkpt lat="57.415060" lon="9.753253">
<ele>13.869413</ele>
<time>2026-07-16T13:54:38.000Z</time>
</trkpt>
<trkpt lat="57.415135" lon="9.753270">
<ele>13.801288</ele>
<time>2026-07-16T13:54:39.000Z</time>
</trkpt>
<trkpt lat="57.415204" lon="9.753290">
<ele>13.738322</ele>
<time>2026-07-16T13:54:40.000Z</time>
</trkpt>
<trkpt lat="57.415273" lon="9.753308">
<ele>13.674144</ele>
<time>2026-07-16T13:54:41.000Z</time>
</trkpt>
<trkpt lat="57.415343" lon="9.753327">
<ele>13.589555</ele>
<time>2026-07-16T13:54:42.000Z</time>
</trkpt>
<trkpt lat="57.415412" lon="9.753345">
<ele>13.506241</ele>
<time>2026-07-16T13:54:43.000Z</time>
</trkpt>
<trkpt lat="57.415487" lon="9.753363">
<ele>13.415817</ele>
<time>2026-07-16T13:54:44.000Z</time>
</trkpt>
<trkpt lat="57.415559" lon="9.753383">
<ele>13.328768</ele>
<time>2026-07-16T13:54:45.000Z</time>
</trkpt>
<trkpt lat="57.415630" lon="9.753400">
<ele>13.243170</ele>
<time>2026-07-16T13:54:46.000Z</time>
</trkpt>
<trkpt lat="57.415700" lon="9.753417">
<ele>13.158758</ele>
<time>2026-07-16T13:54:47.000Z</time>
</trkpt>
<trkpt lat="57.415774" lon="9.753435">
<ele>13.069520</ele>
<time>2026-07-16T13:54:48.000Z</time>
</trkpt>
<trkpt lat="57.415845" lon="9.753453">
<ele>12.983837</ele>
<time>2026-07-16T13:54:49.000Z</time>
</trkpt>
<trkpt lat="57.415916" lon="9.753471">
<ele>12.898154</ele>
<time>2026-07-16T13:54:50.000Z</time>
</trkpt>
<trkpt lat="57.415991" lon="9.753487">
<ele>12.807886</ele>
<time>2026-07-16T13:54:51.000Z</time>
</trkpt>
<trkpt lat="57.416063" lon="9.753505">
<ele>12.721019</ele>
<time>2026-07-16T13:54:52.000Z</time>
</trkpt>
<trkpt lat="57.416133" lon="9.753523">
<ele>12.636520</ele>
<time>2026-07-16T13:54:53.000Z</time>
</trkpt>
<trkpt lat="57.416207" lon="9.753541">
<ele>12.547282</ele>
<time>2026-07-16T13:54:54.000Z</time>
</trkpt>
<trkpt lat="57.416282" lon="9.753559">
<ele>12.456858</ele>
<time>2026-07-16T13:54:55.000Z</time>
</trkpt>
<trkpt lat="57.416352" lon="9.753575">
<ele>12.372527</ele>
<time>2026-07-16T13:54:56.000Z</time>
</trkpt>
<trkpt lat="57.416408" lon="9.753590">
<ele>12.304874</ele>
<time>2026-07-16T13:54:57.000Z</time>
</trkpt>
<trkpt lat="57.416481" lon="9.753609">
<ele>12.216734</ele>
<time>2026-07-16T13:54:58.000Z</time>
</trkpt>
<trkpt lat="57.416558" lon="9.753629">
<ele>12.123769</ele>
<time>2026-07-16T13:54:59.000Z</time>
</trkpt>
<trkpt lat="57.416623" lon="9.753651">
<ele>12.044767</ele>
<time>2026-07-16T13:55:00.000Z</time>
</trkpt>
<trkpt lat="57.416689" lon="9.753681">
<ele>11.963521</ele>
<time>2026-07-16T13:55:01.000Z</time>
</trkpt>
<trkpt lat="57.416751" lon="9.753719">
<ele>11.885453</ele>
<time>2026-07-16T13:55:02.000Z</time>
</trkpt>
<trkpt lat="57.416815" lon="9.753767">
<ele>11.802922</ele>
<time>2026-07-16T13:55:03.000Z</time>
</trkpt>
<trkpt lat="57.416870" lon="9.753824">
<ele>11.727609</ele>
<time>2026-07-16T13:55:04.000Z</time>
</trkpt>
<trkpt lat="57.416924" lon="9.753893">
<ele>11.649231</ele>
<time>2026-07-16T13:55:05.000Z</time>
</trkpt>
<trkpt lat="57.416975" lon="9.753969">
<ele>11.571042</ele>
<time>2026-07-16T13:55:06.000Z</time>
</trkpt>
<trkpt lat="57.417022" lon="9.754054">
<ele>11.539150</ele>
<time>2026-07-16T13:55:07.000Z</time>
</trkpt>
<trkpt lat="57.417065" lon="9.754148">
<ele>11.561296</ele>
<time>2026-07-16T13:55:08.000Z</time>
</trkpt>
<trkpt lat="57.417101" lon="9.754247">
<ele>11.582745</ele>
<time>2026-07-16T13:55:09.000Z</time>
</trkpt>
<trkpt lat="57.417129" lon="9.754350">
<ele>11.603462</ele>
<time>2026-07-16T13:55:10.000Z</time>
</trkpt>
<trkpt lat="57.417154" lon="9.754461">
<ele>11.625066</ele>
<time>2026-07-16T13:55:11.000Z</time>
</trkpt>
<trkpt lat="57.417174" lon="9.754573">
<ele>11.646253</ele>
<time>2026-07-16T13:55:12.000Z</time>
</trkpt>
<trkpt lat="57.417190" lon="9.754688">
<ele>11.667580</ele>
<time>2026-07-16T13:55:13.000Z</time>
</trkpt>
<trkpt lat="57.417202" lon="9.754800">
<ele>11.688085</ele>
<time>2026-07-16T13:55:14.000Z</time>
</trkpt>
<trkpt lat="57.417214" lon="9.754920">
<ele>11.710000</ele>
<time>2026-07-16T13:55:15.000Z</time>
</trkpt>
<trkpt lat="57.417226" lon="9.755039">
<ele>11.731738</ele>
<time>2026-07-16T13:55:16.000Z</time>
</trkpt>
<trkpt lat="57.417237" lon="9.755156">
<ele>11.753064</ele>
<time>2026-07-16T13:55:17.000Z</time>
</trkpt>
<trkpt lat="57.417249" lon="9.755273">
<ele>11.774450</ele>
<time>2026-07-16T13:55:18.000Z</time>
</trkpt>
<trkpt lat="57.417259" lon="9.755377">
<ele>11.793419</ele>
<time>2026-07-16T13:55:19.000Z</time>
</trkpt>
<trkpt lat="57.417273" lon="9.755498">
<ele>11.815641</ele>
<time>2026-07-16T13:55:20.000Z</time>
</trkpt>
<trkpt lat="57.417287" lon="9.755617">
<ele>11.837512</ele>
<time>2026-07-16T13:55:21.000Z</time>
</trkpt>
<trkpt lat="57.417301" lon="9.755727">
<ele>11.857808</ele>
<time>2026-07-16T13:55:22.000Z</time>
</trkpt>
<trkpt lat="57.417313" lon="9.755833">
<ele>11.877257</ele>
<time>2026-07-16T13:55:23.000Z</time>
</trkpt>
<trkpt lat="57.417327" lon="9.755932">
<ele>11.895635</ele>
<time>2026-07-16T13:55:24.000Z</time>
</trkpt>
<trkpt lat="57.417345" lon="9.756034">
<ele>11.914908</ele>
<time>2026-07-16T13:55:25.000Z</time>
</trkpt>
<trkpt lat="57.417362" lon="9.756137">
<ele>11.934252</ele>
<time>2026-07-16T13:55:26.000Z</time>
</trkpt>
<trkpt lat="57.417377" lon="9.756242">
<ele>11.953757</ele>
<time>2026-07-16T13:55:27.000Z</time>
</trkpt>
<trkpt lat="57.417395" lon="9.756344">
<ele>11.973030</ele>
<time>2026-07-16T13:55:28.000Z</time>
</trkpt>
<trkpt lat="57.417415" lon="9.756447">
<ele>11.992690</ele>
<time>2026-07-16T13:55:29.000Z</time>
</trkpt>
<trkpt lat="57.417434" lon="9.756557">
<ele>12.013432</ele>
<time>2026-07-16T13:55:30.000Z</time>
</trkpt>
<trkpt lat="57.417453" lon="9.756665">
<ele>12.033833</ele>
<time>2026-07-16T13:55:31.000Z</time>
</trkpt>
<trkpt lat="57.417471" lon="9.756771">
<ele>12.053789</ele>
<time>2026-07-16T13:55:32.000Z</time>
</trkpt>
<trkpt lat="57.417493" lon="9.756878">
<ele>12.074355</ele>
<time>2026-07-16T13:55:33.000Z</time>
</trkpt>
<trkpt lat="57.417514" lon="9.756983">
<ele>12.094466</ele>
<time>2026-07-16T13:55:34.000Z</time>
</trkpt>
<trkpt lat="57.417535" lon="9.757090">
<ele>12.114915</ele>
<time>2026-07-16T13:55:35.000Z</time>
</trkpt>
<trkpt lat="57.417558" lon="9.757200">
<ele>12.153670</ele>
<time>2026-07-16T13:55:36.000Z</time>
</trkpt>
<trkpt lat="57.417581" lon="9.757311">
<ele>12.225811</ele>
<time>2026-07-16T13:55:37.000Z</time>
</trkpt>
<trkpt lat="57.417604" lon="9.757426">
<ele>12.300222</ele>
<time>2026-07-16T13:55:38.000Z</time>
</trkpt>
<trkpt lat="57.417629" lon="9.757533">
<ele>12.370970</ele>
<time>2026-07-16T13:55:39.000Z</time>
</trkpt>
<trkpt lat="57.417653" lon="9.757650">
<ele>12.446913</ele>
<time>2026-07-16T13:55:40.000Z</time>
</trkpt>
<trkpt lat="57.417677" lon="9.757766">
<ele>12.522289</ele>
<time>2026-07-16T13:55:41.000Z</time>
</trkpt>
<trkpt lat="57.417699" lon="9.757880">
<ele>12.595744</ele>
<time>2026-07-16T13:55:42.000Z</time>
</trkpt>
<trkpt lat="57.417722" lon="9.758000">
<ele>12.673005</ele>
<time>2026-07-16T13:55:43.000Z</time>
</trkpt>
<trkpt lat="57.417745" lon="9.758119">
<ele>12.749695</ele>
<time>2026-07-16T13:55:44.000Z</time>
</trkpt>
<trkpt lat="57.417762" lon="9.758240">
<ele>12.825546</ele>
<time>2026-07-16T13:55:45.000Z</time>
</trkpt>
<trkpt lat="57.417778" lon="9.758346">
<ele>12.892320</ele>
<time>2026-07-16T13:55:46.000Z</time>
</trkpt>
<trkpt lat="57.417793" lon="9.758473">
<ele>12.971185</ele>
<time>2026-07-16T13:55:47.000Z</time>
</trkpt>
<trkpt lat="57.417805" lon="9.758600">
<ele>13.049395</ele>
<time>2026-07-16T13:55:48.000Z</time>
</trkpt>
<trkpt lat="57.417814" lon="9.758715">
<ele>13.119883</ele>
<time>2026-07-16T13:55:49.000Z</time>
</trkpt>
<trkpt lat="57.417822" lon="9.758834">
<ele>13.192624</ele>
<time>2026-07-16T13:55:50.000Z</time>
</trkpt>
<trkpt lat="57.417827" lon="9.758950">
<ele>13.263211</ele>
<time>2026-07-16T13:55:51.000Z</time>
</trkpt>
<trkpt lat="57.417830" lon="9.759067">
<ele>13.334260</ele>
<time>2026-07-16T13:55:52.000Z</time>
</trkpt>
<trkpt lat="57.417834" lon="9.759175">
<ele>13.399923</ele>
<time>2026-07-16T13:55:53.000Z</time>
</trkpt>
<trkpt lat="57.417835" lon="9.759294">
<ele>13.472113</ele>
<time>2026-07-16T13:55:54.000Z</time>
</trkpt>
<trkpt lat="57.417838" lon="9.759408">
<ele>13.541344</ele>
<time>2026-07-16T13:55:55.000Z</time>
</trkpt>
<trkpt lat="57.417839" lon="9.759517">
<ele>13.607469</ele>
<time>2026-07-16T13:55:56.000Z</time>
</trkpt>
<trkpt lat="57.417839" lon="9.759623">
<ele>13.671765</ele>
<time>2026-07-16T13:55:57.000Z</time>
</trkpt>
<trkpt lat="57.417842" lon="9.759729">
<ele>13.736150</ele>
<time>2026-07-16T13:55:58.000Z</time>
</trkpt>
<trkpt lat="57.417843" lon="9.759831">
<ele>13.798029</ele>
<time>2026-07-16T13:55:59.000Z</time>
</trkpt>
<trkpt lat="57.417843" lon="9.759933">
<ele>13.859899</ele>
<time>2026-07-16T13:56:00.000Z</time>
</trkpt>
<trkpt lat="57.417843" lon="9.760029">
<ele>13.918129</ele>
<time>2026-07-16T13:56:01.000Z</time>
</trkpt>
<trkpt lat="57.417843" lon="9.760132">
<ele>13.980605</ele>
<time>2026-07-16T13:56:02.000Z</time>
</trkpt>
<trkpt lat="57.417846" lon="9.760231">
<ele>14.040750</ele>
<time>2026-07-16T13:56:03.000Z</time>
</trkpt>
<trkpt lat="57.417844" lon="9.760334">
<ele>14.103267</ele>
<time>2026-07-16T13:56:04.000Z</time>
</trkpt>
<trkpt lat="57.417846" lon="9.760437">
<ele>14.175237</ele>
<time>2026-07-16T13:56:05.000Z</time>
</trkpt>
<trkpt lat="57.417847" lon="9.760536">
<ele>14.286377</ele>
<time>2026-07-16T13:56:06.000Z</time>
</trkpt>
<trkpt lat="57.417849" lon="9.760637">
<ele>14.399819</ele>
<time>2026-07-16T13:56:07.000Z</time>
</trkpt>
<trkpt lat="57.417856" lon="9.760741">
<ele>14.517460</ele>
<time>2026-07-16T13:56:08.000Z</time>
</trkpt>
<trkpt lat="57.417861" lon="9.760843">
<ele>14.632421</ele>
<time>2026-07-16T13:56:09.000Z</time>
</trkpt>
<trkpt lat="57.417862" lon="9.760949">
<ele>14.751417</ele>
<time>2026-07-16T13:56:10.000Z</time>
</trkpt>
<trkpt lat="57.417862" lon="9.761054">
<ele>14.869272</ele>
<time>2026-07-16T13:56:11.000Z</time>
</trkpt>
<trkpt lat="57.417859" lon="9.761158">
<ele>14.986173</ele>
<time>2026-07-16T13:56:12.000Z</time>
</trkpt>
<trkpt lat="57.417858" lon="9.761248">
<ele>15.087213</ele>
<time>2026-07-16T13:56:13.000Z</time>
</trkpt>
<trkpt lat="57.417856" lon="9.761357">
<ele>15.209629</ele>
<time>2026-07-16T13:56:14.000Z</time>
</trkpt>
<trkpt lat="57.417849" lon="9.761469">
<ele>15.336185</ele>
<time>2026-07-16T13:56:15.000Z</time>
</trkpt>
<trkpt lat="57.417844" lon="9.761571">
<ele>15.451146</ele>
<time>2026-07-16T13:56:16.000Z</time>
</trkpt>
<trkpt lat="57.417837" lon="9.761670">
<ele>15.563221</ele>
<time>2026-07-16T13:56:17.000Z</time>
</trkpt>
<trkpt lat="57.417832" lon="9.761770">
<ele>15.675947</ele>
<time>2026-07-16T13:56:18.000Z</time>
</trkpt>
<trkpt lat="57.417831" lon="9.761870">
<ele>15.788209</ele>
<time>2026-07-16T13:56:19.000Z</time>
</trkpt>
<trkpt lat="57.417829" lon="9.761973">
<ele>15.903895</ele>
<time>2026-07-16T13:56:20.000Z</time>
</trkpt>
<trkpt lat="57.417825" lon="9.762075">
<ele>16.018686</ele>
<time>2026-07-16T13:56:21.000Z</time>
</trkpt>
<trkpt lat="57.417821" lon="9.762175">
<ele>16.131238</ele>
<time>2026-07-16T13:56:22.000Z</time>
</trkpt>
<trkpt lat="57.417817" lon="9.762273">
<ele>16.241552</ele>
<time>2026-07-16T13:56:23.000Z</time>
</trkpt>
<trkpt lat="57.417813" lon="9.762377">
<ele>16.358582</ele>
<time>2026-07-16T13:56:24.000Z</time>
</trkpt>
<trkpt lat="57.417812" lon="9.762478">
<ele>16.471967</ele>
<time>2026-07-16T13:56:25.000Z</time>
</trkpt>
<trkpt lat="57.417812" lon="9.762578">
<ele>16.584210</ele>
<time>2026-07-16T13:56:26.000Z</time>
</trkpt>
<trkpt lat="57.417810" lon="9.762679">
<ele>16.697653</ele>
<time>2026-07-16T13:56:27.000Z</time>
</trkpt>
<trkpt lat="57.417803" lon="9.762781">
<ele>16.813067</ele>
<time>2026-07-16T13:56:28.000Z</time>
</trkpt>
<trkpt lat="57.417798" lon="9.762883">
<ele>16.928028</ele>
<time>2026-07-16T13:56:29.000Z</time>
</trkpt>
<trkpt lat="57.417794" lon="9.762989">
<ele>17.047298</ele>
<time>2026-07-16T13:56:30.000Z</time>
</trkpt>
<trkpt lat="57.417793" lon="9.763092">
<ele>17.162927</ele>
<time>2026-07-16T13:56:31.000Z</time>
</trkpt>
<trkpt lat="57.417793" lon="9.763191">
<ele>17.274048</ele>
<time>2026-07-16T13:56:32.000Z</time>
</trkpt>
<trkpt lat="57.417791" lon="9.763288">
<ele>17.383004</ele>
<time>2026-07-16T13:56:33.000Z</time>
</trkpt>
<trkpt lat="57.417789" lon="9.763390">
<ele>17.497568</ele>
<time>2026-07-16T13:56:34.000Z</time>
</trkpt>
<trkpt lat="57.417787" lon="9.763494">
<ele>17.614375</ele>
<time>2026-07-16T13:56:35.000Z</time>
</trkpt>
<trkpt lat="57.417783" lon="9.763599">
<ele>17.732525</ele>
<time>2026-07-16T13:56:36.000Z</time>
</trkpt>
<trkpt lat="57.417782" lon="9.763705">
<ele>17.851521</ele>
<time>2026-07-16T13:56:37.000Z</time>
</trkpt>
<trkpt lat="57.417780" lon="9.763791">
<ele>17.920642</ele>
<time>2026-07-16T13:56:38.000Z</time>
</trkpt>
<trkpt lat="57.417776" lon="9.763895">
<ele>17.965352</ele>
<time>2026-07-16T13:56:39.000Z</time>
</trkpt>
<trkpt lat="57.417771" lon="9.764002">
<ele>18.011408</ele>
<time>2026-07-16T13:56:40.000Z</time>
</trkpt>
<trkpt lat="57.417768" lon="9.764107">
<ele>18.056498</ele>
<time>2026-07-16T13:56:41.000Z</time>
</trkpt>
<trkpt lat="57.417764" lon="9.764215">
<ele>18.102920</ele>
<time>2026-07-16T13:56:42.000Z</time>
</trkpt>
<trkpt lat="57.417760" lon="9.764321">
<ele>18.148486</ele>
<time>2026-07-16T13:56:43.000Z</time>
</trkpt>
<trkpt lat="57.417756" lon="9.764433">
<ele>18.196619</ele>
<time>2026-07-16T13:56:44.000Z</time>
</trkpt>
<trkpt lat="57.417750" lon="9.764539">
<ele>18.242324</ele>
<time>2026-07-16T13:56:45.000Z</time>
</trkpt>
<trkpt lat="57.417742" lon="9.764649">
<ele>18.289923</ele>
<time>2026-07-16T13:56:46.000Z</time>
</trkpt>
<trkpt lat="57.417737" lon="9.764757">
<ele>18.336406</ele>
<time>2026-07-16T13:56:47.000Z</time>
</trkpt>
<trkpt lat="57.417733" lon="9.764867">
<ele>18.383684</ele>
<time>2026-07-16T13:56:48.000Z</time>
</trkpt>
<trkpt lat="57.417729" lon="9.764976">
<ele>18.430533</ele>
<time>2026-07-16T13:56:49.000Z</time>
</trkpt>
<trkpt lat="57.417726" lon="9.765087">
<ele>18.478192</ele>
<time>2026-07-16T13:56:50.000Z</time>
</trkpt>
<trkpt lat="57.417719" lon="9.765197">
<ele>18.525690</ele>
<time>2026-07-16T13:56:51.000Z</time>
</trkpt>
<trkpt lat="57.417714" lon="9.765309">
<ele>18.573883</ele>
<time>2026-07-16T13:56:52.000Z</time>
</trkpt>
<trkpt lat="57.417713" lon="9.765419">
<ele>18.621060</ele>
<time>2026-07-16T13:56:53.000Z</time>
</trkpt>
<trkpt lat="57.417710" lon="9.765537">
<ele>18.671717</ele>
<time>2026-07-16T13:56:54.000Z</time>
</trkpt>
<trkpt lat="57.417707" lon="9.765652">
<ele>18.721089</ele>
<time>2026-07-16T13:56:55.000Z</time>
</trkpt>
<trkpt lat="57.417703" lon="9.765768">
<ele>18.770934</ele>
<time>2026-07-16T13:56:56.000Z</time>
</trkpt>
<trkpt lat="57.417696" lon="9.765883">
<ele>18.820562</ele>
<time>2026-07-16T13:56:57.000Z</time>
</trkpt>
<trkpt lat="57.417689" lon="9.765995">
<ele>18.868912</ele>
<time>2026-07-16T13:56:58.000Z</time>
</trkpt>
<trkpt lat="57.417684" lon="9.766110">
<ele>18.918387</ele>
<time>2026-07-16T13:56:59.000Z</time>
</trkpt>
<trkpt lat="57.417681" lon="9.766206">
<ele>18.959623</ele>
<time>2026-07-16T13:57:00.000Z</time>
</trkpt>
<trkpt lat="57.417676" lon="9.766325">
<ele>19.010808</ele>
<time>2026-07-16T13:57:01.000Z</time>
</trkpt>
<trkpt lat="57.417669" lon="9.766451">
<ele>19.065126</ele>
<time>2026-07-16T13:57:02.000Z</time>
</trkpt>
<trkpt lat="57.417665" lon="9.766551">
<ele>19.108126</ele>
<time>2026-07-16T13:57:03.000Z</time>
</trkpt>
<trkpt lat="57.417661" lon="9.766667">
<ele>19.157971</ele>
<time>2026-07-16T13:57:04.000Z</time>
</trkpt>
<trkpt lat="57.417658" lon="9.766773">
<ele>19.203489</ele>
<time>2026-07-16T13:57:05.000Z</time>
</trkpt>
<trkpt lat="57.417653" lon="9.766894">
<ele>19.255529</ele>
<time>2026-07-16T13:57:06.000Z</time>
</trkpt>
<trkpt lat="57.417652" lon="9.767016">
<ele>19.307851</ele>
<time>2026-07-16T13:57:07.000Z</time>
</trkpt>
<trkpt lat="57.417652" lon="9.767130">
<ele>19.329364</ele>
<time>2026-07-16T13:57:08.000Z</time>
</trkpt>
<trkpt lat="57.417652" lon="9.767242">
<ele>19.314257</ele>
<time>2026-07-16T13:57:09.000Z</time>
</trkpt>
<trkpt lat="57.417655" lon="9.767362">
<ele>19.298055</ele>
<time>2026-07-16T13:57:10.000Z</time>
</trkpt>
<trkpt lat="57.417659" lon="9.767483">
<ele>19.281704</ele>
<time>2026-07-16T13:57:11.000Z</time>
</trkpt>
<trkpt lat="57.417663" lon="9.767602">
<ele>19.265623</ele>
<time>2026-07-16T13:57:12.000Z</time>
</trkpt>
<trkpt lat="57.417666" lon="9.767720">
<ele>19.249690</ele>
<time>2026-07-16T13:57:13.000Z</time>
</trkpt>
<trkpt lat="57.417673" lon="9.767839">
<ele>19.233544</ele>
<time>2026-07-16T13:57:14.000Z</time>
</trkpt>
<trkpt lat="57.417680" lon="9.767952">
<ele>19.218202</ele>
<time>2026-07-16T13:57:15.000Z</time>
</trkpt>
<trkpt lat="57.417685" lon="9.768072">
<ele>19.201969</ele>
<time>2026-07-16T13:57:16.000Z</time>
</trkpt>
<trkpt lat="57.417692" lon="9.768191">
<ele>19.185823</ele>
<time>2026-07-16T13:57:17.000Z</time>
</trkpt>
<trkpt lat="57.417700" lon="9.768307">
<ele>19.170050</ele>
<time>2026-07-16T13:57:18.000Z</time>
</trkpt>
<trkpt lat="57.417707" lon="9.768422">
<ele>19.154440</ele>
<time>2026-07-16T13:57:19.000Z</time>
</trkpt>
<trkpt lat="57.417715" lon="9.768538">
<ele>19.138667</ele>
<time>2026-07-16T13:57:20.000Z</time>
</trkpt>
<trkpt lat="57.417722" lon="9.768659">
<ele>19.122253</ele>
<time>2026-07-16T13:57:21.000Z</time>
</trkpt>
<trkpt lat="57.417730" lon="9.768778">
<ele>19.106078</ele>
<time>2026-07-16T13:57:22.000Z</time>
</trkpt>
<trkpt lat="57.417738" lon="9.768891">
<ele>19.090706</ele>
<time>2026-07-16T13:57:23.000Z</time>
</trkpt>
<trkpt lat="57.417748" lon="9.769009">
<ele>19.074595</ele>
<time>2026-07-16T13:57:24.000Z</time>
</trkpt>
<trkpt lat="57.417757" lon="9.769126">
<ele>19.058654</ele>
<time>2026-07-16T13:57:25.000Z</time>
</trkpt>
<trkpt lat="57.417764" lon="9.769245">
<ele>19.042509</ele>
<time>2026-07-16T13:57:26.000Z</time>
</trkpt>
<trkpt lat="57.417775" lon="9.769362">
<ele>19.026490</ele>
<time>2026-07-16T13:57:27.000Z</time>
</trkpt>
<trkpt lat="57.417780" lon="9.769468">
<ele>19.012138</ele>
<time>2026-07-16T13:57:28.000Z</time>
</trkpt>
<trkpt lat="57.417789" lon="9.769591">
<ele>18.995396</ele>
<time>2026-07-16T13:57:29.000Z</time>
</trkpt>
<trkpt lat="57.417799" lon="9.769717">
<ele>18.978218</ele>
<time>2026-07-16T13:57:30.000Z</time>
</trkpt>
<trkpt lat="57.417806" lon="9.769836">
<ele>18.962072</ele>
<time>2026-07-16T13:57:31.000Z</time>
</trkpt>
<trkpt lat="57.417814" lon="9.769955">
<ele>18.945898</ele>
<time>2026-07-16T13:57:32.000Z</time>
</trkpt>
<trkpt lat="57.417822" lon="9.770070">
<ele>18.930258</ele>
<time>2026-07-16T13:57:33.000Z</time>
</trkpt>
<trkpt lat="57.417829" lon="9.770187">
<ele>18.914380</ele>
<time>2026-07-16T13:57:34.000Z</time>
</trkpt>
<trkpt lat="57.417834" lon="9.770303">
<ele>18.898685</ele>
<time>2026-07-16T13:57:35.000Z</time>
</trkpt>
<trkpt lat="57.417841" lon="9.770417">
<ele>18.879239</ele>
<time>2026-07-16T13:57:36.000Z</time>
</trkpt>
<trkpt lat="57.417848" lon="9.770533">
<ele>18.835255</ele>
<time>2026-07-16T13:57:37.000Z</time>
</trkpt>
<trkpt lat="57.417856" lon="9.770645">
<ele>18.792683</ele>
<time>2026-07-16T13:57:38.000Z</time>
</trkpt>
<trkpt lat="57.417866" lon="9.770761">
<ele>18.748417</ele>
<time>2026-07-16T13:57:39.000Z</time>
</trkpt>
<trkpt lat="57.417875" lon="9.770879">
<ele>18.703510</ele>
<time>2026-07-16T13:57:40.000Z</time>
</trkpt>
<trkpt lat="57.417883" lon="9.770993">
<ele>18.660190</ele>
<time>2026-07-16T13:57:41.000Z</time>
</trkpt>
<trkpt lat="57.417890" lon="9.771112">
<ele>18.615083</ele>
<time>2026-07-16T13:57:42.000Z</time>
</trkpt>
<trkpt lat="57.417901" lon="9.771228">
<ele>18.570701</ele>
<time>2026-07-16T13:57:43.000Z</time>
</trkpt>
<trkpt lat="57.417909" lon="9.771347">
<ele>18.525513</ele>
<time>2026-07-16T13:57:44.000Z</time>
</trkpt>
<trkpt lat="57.417917" lon="9.771462">
<ele>18.481820</ele>
<time>2026-07-16T13:57:45.000Z</time>
</trkpt>
<trkpt lat="57.417925" lon="9.771575">
<ele>18.438874</ele>
<time>2026-07-16T13:57:46.000Z</time>
</trkpt>
<trkpt lat="57.417935" lon="9.771687">
<ele>18.396095</ele>
<time>2026-07-16T13:57:47.000Z</time>
</trkpt>
<trkpt lat="57.417944" lon="9.771806">
<ele>18.350815</ele>
<time>2026-07-16T13:57:48.000Z</time>
</trkpt>
<trkpt lat="57.417951" lon="9.771926">
<ele>18.305334</ele>
<time>2026-07-16T13:57:49.000Z</time>
</trkpt>
<trkpt lat="57.417956" lon="9.772048">
<ele>18.259230</ele>
<time>2026-07-16T13:57:50.000Z</time>
</trkpt>
<trkpt lat="57.417966" lon="9.772171">
<ele>18.212358</ele>
<time>2026-07-16T13:57:51.000Z</time>
</trkpt>
<trkpt lat="57.417974" lon="9.772292">
<ele>18.166422</ele>
<time>2026-07-16T13:57:52.000Z</time>
</trkpt>
<trkpt lat="57.417982" lon="9.772412">
<ele>18.120859</ele>
<time>2026-07-16T13:57:53.000Z</time>
</trkpt>
<trkpt lat="57.417989" lon="9.772519">
<ele>18.080245</ele>
<time>2026-07-16T13:57:54.000Z</time>
</trkpt>
<trkpt lat="57.417997" lon="9.772643">
<ele>18.033186</ele>
<time>2026-07-16T13:57:55.000Z</time>
</trkpt>
<trkpt lat="57.418005" lon="9.772769">
<ele>17.985380</ele>
<time>2026-07-16T13:57:56.000Z</time>
</trkpt>
<trkpt lat="57.418012" lon="9.772890">
<ele>17.939524</ele>
<time>2026-07-16T13:57:57.000Z</time>
</trkpt>
<trkpt lat="57.418020" lon="9.773012">
<ele>17.893214</ele>
<time>2026-07-16T13:57:58.000Z</time>
</trkpt>
<trkpt lat="57.418030" lon="9.773125">
<ele>17.850064</ele>
<time>2026-07-16T13:57:59.000Z</time>
</trkpt>
<trkpt lat="57.418041" lon="9.773241">
<ele>17.805681</ele>
<time>2026-07-16T13:58:00.000Z</time>
</trkpt>
<trkpt lat="57.418050" lon="9.773363">
<ele>17.759282</ele>
<time>2026-07-16T13:58:01.000Z</time>
</trkpt>
<trkpt lat="57.418058" lon="9.773481">
<ele>17.714467</ele>
<time>2026-07-16T13:58:02.000Z</time>
</trkpt>
<trkpt lat="57.418066" lon="9.773597">
<ele>17.670401</ele>
<time>2026-07-16T13:58:03.000Z</time>
</trkpt>
<trkpt lat="57.418071" lon="9.773715">
<ele>17.626814</ele>
<time>2026-07-16T13:58:04.000Z</time>
</trkpt>
<trkpt lat="57.418074" lon="9.773838">
<ele>17.624645</ele>
<time>2026-07-16T13:58:05.000Z</time>
</trkpt>
<trkpt lat="57.418081" lon="9.773959">
<ele>17.622502</ele>
<time>2026-07-16T13:58:06.000Z</time>
</trkpt>
<trkpt lat="57.418092" lon="9.774081">
<ele>17.620323</ele>
<time>2026-07-16T13:58:07.000Z</time>
</trkpt>
<trkpt lat="57.418097" lon="9.774202">
<ele>17.618185</ele>
<time>2026-07-16T13:58:08.000Z</time>
</trkpt>
<trkpt lat="57.418104" lon="9.774320">
<ele>17.616094</ele>
<time>2026-07-16T13:58:09.000Z</time>
</trkpt>
<trkpt lat="57.418109" lon="9.774442">
<ele>17.613939</ele>
<time>2026-07-16T13:58:10.000Z</time>
</trkpt>
<trkpt lat="57.418115" lon="9.774559">
<ele>17.611869</ele>
<time>2026-07-16T13:58:11.000Z</time>
</trkpt>
<trkpt lat="57.418123" lon="9.774681">
<ele>17.609704</ele>
<time>2026-07-16T13:58:12.000Z</time>
</trkpt>
<trkpt lat="57.418131" lon="9.774798">
<ele>17.607626</ele>
<time>2026-07-16T13:58:13.000Z</time>
</trkpt>
<trkpt lat="57.418138" lon="9.774914">
<ele>17.605570</ele>
<time>2026-07-16T13:58:14.000Z</time>
</trkpt>
<trkpt lat="57.418149" lon="9.775032">
<ele>17.603461</ele>
<time>2026-07-16T13:58:15.000Z</time>
</trkpt>
<trkpt lat="57.418155" lon="9.775147">
<ele>17.601425</ele>
<time>2026-07-16T13:58:16.000Z</time>
</trkpt>
<trkpt lat="57.418161" lon="9.775264">
<ele>17.599355</ele>
<time>2026-07-16T13:58:17.000Z</time>
</trkpt>
<trkpt lat="57.418170" lon="9.775362">
<ele>17.597604</ele>
<time>2026-07-16T13:58:18.000Z</time>
</trkpt>
<trkpt lat="57.418179" lon="9.775476">
<ele>17.595574</ele>
<time>2026-07-16T13:58:19.000Z</time>
</trkpt>
<trkpt lat="57.418188" lon="9.775611">
<ele>17.593178</ele>
<time>2026-07-16T13:58:20.000Z</time>
</trkpt>
<trkpt lat="57.418198" lon="9.775730">
<ele>17.591057</ele>
<time>2026-07-16T13:58:21.000Z</time>
</trkpt>
<trkpt lat="57.418210" lon="9.775847">
<ele>17.588959</ele>
<time>2026-07-16T13:58:22.000Z</time>
</trkpt>
<trkpt lat="57.418216" lon="9.775964">
<ele>17.586889</ele>
<time>2026-07-16T13:58:23.000Z</time>
</trkpt>
<trkpt lat="57.418222" lon="9.776086">
<ele>17.584731</ele>
<time>2026-07-16T13:58:24.000Z</time>
</trkpt>
<trkpt lat="57.418227" lon="9.776208">
<ele>17.582575</ele>
<time>2026-07-16T13:58:25.000Z</time>
</trkpt>
<trkpt lat="57.418231" lon="9.776327">
<ele>17.580475</ele>
<time>2026-07-16T13:58:26.000Z</time>
</trkpt>
<trkpt lat="57.418237" lon="9.776449">
<ele>17.578317</ele>
<time>2026-07-16T13:58:27.000Z</time>
</trkpt>
<trkpt lat="57.418242" lon="9.776565">
<ele>17.576267</ele>
<time>2026-07-16T13:58:28.000Z</time>
</trkpt>
<trkpt lat="57.418246" lon="9.776683">
<ele>17.574185</ele>
<time>2026-07-16T13:58:29.000Z</time>
</trkpt>
<trkpt lat="57.418244" lon="9.776806">
<ele>17.572017</ele>
<time>2026-07-16T13:58:30.000Z</time>
</trkpt>
<trkpt lat="57.418243" lon="9.776928">
<ele>17.569868</ele>
<time>2026-07-16T13:58:31.000Z</time>
</trkpt>
<trkpt lat="57.418241" lon="9.777048">
<ele>17.568441</ele>
<time>2026-07-16T13:58:32.000Z</time>
</trkpt>
<trkpt lat="57.418234" lon="9.777165">
<ele>17.571530</ele>
<time>2026-07-16T13:58:33.000Z</time>
</trkpt>
<trkpt lat="57.418229" lon="9.777285">
<ele>17.574688</ele>
<time>2026-07-16T13:58:34.000Z</time>
</trkpt>
<trkpt lat="57.418223" lon="9.777403">
<ele>17.577798</ele>
<time>2026-07-16T13:58:35.000Z</time>
</trkpt>
<trkpt lat="57.418218" lon="9.777524">
<ele>17.580983</ele>
<time>2026-07-16T13:58:36.000Z</time>
</trkpt>
<trkpt lat="57.418211" lon="9.777644">
<ele>17.584150</ele>
<time>2026-07-16T13:58:37.000Z</time>
</trkpt>
<trkpt lat="57.418204" lon="9.777765">
<ele>17.587343</ele>
<time>2026-07-16T13:58:38.000Z</time>
</trkpt>
<trkpt lat="57.418199" lon="9.777882">
<ele>17.590423</ele>
<time>2026-07-16T13:58:39.000Z</time>
</trkpt>
<trkpt lat="57.418192" lon="9.777998">
<ele>17.593486</ele>
<time>2026-07-16T13:58:40.000Z</time>
</trkpt>
<trkpt lat="57.418185" lon="9.778110">
<ele>17.596445</ele>
<time>2026-07-16T13:58:41.000Z</time>
</trkpt>
<trkpt lat="57.418177" lon="9.778229">
<ele>17.599591</ele>
<time>2026-07-16T13:58:42.000Z</time>
</trkpt>
<trkpt lat="57.418168" lon="9.778328">
<ele>17.602226</ele>
<time>2026-07-16T13:58:43.000Z</time>
</trkpt>
<trkpt lat="57.418159" lon="9.778449">
<ele>17.605431</ele>
<time>2026-07-16T13:58:44.000Z</time>
</trkpt>
<trkpt lat="57.418153" lon="9.778581">
<ele>17.608907</ele>
<time>2026-07-16T13:58:45.000Z</time>
</trkpt>
<trkpt lat="57.418144" lon="9.778701">
<ele>17.612087</ele>
<time>2026-07-16T13:58:46.000Z</time>
</trkpt>
<trkpt lat="57.418138" lon="9.778817">
<ele>17.615145</ele>
<time>2026-07-16T13:58:47.000Z</time>
</trkpt>
<trkpt lat="57.418131" lon="9.778932">
<ele>17.618181</ele>
<time>2026-07-16T13:58:48.000Z</time>
</trkpt>
<trkpt lat="57.418121" lon="9.779043">
<ele>17.621135</ele>
<time>2026-07-16T13:58:49.000Z</time>
</trkpt>
<trkpt lat="57.418112" lon="9.779157">
<ele>17.624158</ele>
<time>2026-07-16T13:58:50.000Z</time>
</trkpt>
<trkpt lat="57.418102" lon="9.779275">
<ele>17.627293</ele>
<time>2026-07-16T13:58:51.000Z</time>
</trkpt>
<trkpt lat="57.418090" lon="9.779395">
<ele>17.630495</ele>
<time>2026-07-16T13:58:52.000Z</time>
</trkpt>
<trkpt lat="57.418081" lon="9.779512">
<ele>17.633597</ele>
<time>2026-07-16T13:58:53.000Z</time>
</trkpt>
<trkpt lat="57.418074" lon="9.779625">
<ele>17.636581</ele>
<time>2026-07-16T13:58:54.000Z</time>
</trkpt>
<trkpt lat="57.418066" lon="9.779742">
<ele>17.639676</ele>
<time>2026-07-16T13:58:55.000Z</time>
</trkpt>
<trkpt lat="57.418059" lon="9.779858">
<ele>17.642739</ele>
<time>2026-07-16T13:58:56.000Z</time>
</trkpt>
<trkpt lat="57.418051" lon="9.779970">
<ele>17.645704</ele>
<time>2026-07-16T13:58:57.000Z</time>
</trkpt>
<trkpt lat="57.418044" lon="9.780082">
<ele>17.648662</ele>
<time>2026-07-16T13:58:58.000Z</time>
</trkpt>
<trkpt lat="57.418036" lon="9.780201">
<ele>17.651809</ele>
<time>2026-07-16T13:58:59.000Z</time>
</trkpt>
<trkpt lat="57.418028" lon="9.780317">
<ele>17.654878</ele>
<time>2026-07-16T13:59:00.000Z</time>
</trkpt>
<trkpt lat="57.418020" lon="9.780431">
<ele>17.647618</ele>
<time>2026-07-16T13:59:01.000Z</time>
</trkpt>
<trkpt lat="57.418011" lon="9.780540">
<ele>17.637117</ele>
<time>2026-07-16T13:59:02.000Z</time>
</trkpt>
<trkpt lat="57.418004" lon="9.780654">
<ele>17.626191</ele>
<time>2026-07-16T13:59:03.000Z</time>
</trkpt>
<trkpt lat="57.418000" lon="9.780764">
<ele>17.615693</ele>
<time>2026-07-16T13:59:04.000Z</time>
</trkpt>
<trkpt lat="57.417999" lon="9.780868">
<ele>17.605788</ele>
<time>2026-07-16T13:59:05.000Z</time>
</trkpt>
<trkpt lat="57.417999" lon="9.780974">
<ele>17.595694</ele>
<time>2026-07-16T13:59:06.000Z</time>
</trkpt>
<trkpt lat="57.417997" lon="9.781063">
<ele>17.587212</ele>
<time>2026-07-16T13:59:07.000Z</time>
</trkpt>
<trkpt lat="57.417998" lon="9.781161">
<ele>17.577878</ele>
<time>2026-07-16T13:59:08.000Z</time>
</trkpt>
<trkpt lat="57.418005" lon="9.781259">
<ele>17.568464</ele>
<time>2026-07-16T13:59:09.000Z</time>
</trkpt>
<trkpt lat="57.418015" lon="9.781349">
<ele>17.559713</ele>
<time>2026-07-16T13:59:10.000Z</time>
</trkpt>
<trkpt lat="57.418027" lon="9.781438">
<ele>17.550977</ele>
<time>2026-07-16T13:59:11.000Z</time>
</trkpt>
<trkpt lat="57.418040" lon="9.781516">
<ele>17.543202</ele>
<time>2026-07-16T13:59:12.000Z</time>
</trkpt>
<trkpt lat="57.418053" lon="9.781593">
<ele>17.535517</ele>
<time>2026-07-16T13:59:13.000Z</time>
</trkpt>
<trkpt lat="57.418061" lon="9.781656">
<ele>17.529354</ele>
<time>2026-07-16T13:59:14.000Z</time>
</trkpt>
<trkpt lat="57.418069" lon="9.781719">
<ele>17.523190</ele>
<time>2026-07-16T13:59:15.000Z</time>
</trkpt>
<trkpt lat="57.418077" lon="9.781770">
<ele>17.518132</ele>
<time>2026-07-16T13:59:16.000Z</time>
</trkpt>
<trkpt lat="57.418085" lon="9.781813">
<ele>17.513800</ele>
<time>2026-07-16T13:59:17.000Z</time>
</trkpt>
<trkpt lat="57.418095" lon="9.781850">
<ele>17.509857</ele>
<time>2026-07-16T13:59:18.000Z</time>
</trkpt>
<trkpt lat="57.418112" lon="9.781884">
<ele>17.505439</ele>
<time>2026-07-16T13:59:19.000Z</time>
</trkpt>
<trkpt lat="57.418134" lon="9.781903">
<ele>17.501149</ele>
<time>2026-07-16T13:59:20.000Z</time>
</trkpt>
<trkpt lat="57.418163" lon="9.781908">
<ele>17.495999</ele>
<time>2026-07-16T13:59:21.000Z</time>
</trkpt>
<trkpt lat="57.418195" lon="9.781892">
<ele>17.490139</ele>
<time>2026-07-16T13:59:22.000Z</time>
</trkpt>
<trkpt lat="57.418233" lon="9.781860">
<ele>17.482760</ele>
<time>2026-07-16T13:59:23.000Z</time>
</trkpt>
<trkpt lat="57.418269" lon="9.781820">
<ele>17.475342</ele>
<time>2026-07-16T13:59:24.000Z</time>
</trkpt>
<trkpt lat="57.418311" lon="9.781778">
<ele>17.466907</ele>
<time>2026-07-16T13:59:25.000Z</time>
</trkpt>
<trkpt lat="57.418354" lon="9.781739">
<ele>17.458444</ele>
<time>2026-07-16T13:59:26.000Z</time>
</trkpt>
<trkpt lat="57.418399" lon="9.781699">
<ele>17.449622</ele>
<time>2026-07-16T13:59:27.000Z</time>
</trkpt>
<trkpt lat="57.418445" lon="9.781655">
<ele>17.440472</ele>
<time>2026-07-16T13:59:28.000Z</time>
</trkpt>
<trkpt lat="57.418493" lon="9.781609">
<ele>17.430921</ele>
<time>2026-07-16T13:59:29.000Z</time>
</trkpt>
<trkpt lat="57.418543" lon="9.781560">
<ele>17.420924</ele>
<time>2026-07-16T13:59:30.000Z</time>
</trkpt>
<trkpt lat="57.418595" lon="9.781514">
<ele>17.410738</ele>
<time>2026-07-16T13:59:31.000Z</time>
</trkpt>
<trkpt lat="57.418645" lon="9.781472">
<ele>17.401034</ele>
<time>2026-07-16T13:59:32.000Z</time>
</trkpt>
<trkpt lat="57.418690" lon="9.781433">
<ele>17.392253</ele>
<time>2026-07-16T13:59:33.000Z</time>
</trkpt>
<trkpt lat="57.418740" lon="9.781386">
<ele>17.382343</ele>
<time>2026-07-16T13:59:34.000Z</time>
</trkpt>
<trkpt lat="57.418789" lon="9.781344">
<ele>17.372800</ele>
<time>2026-07-16T13:59:35.000Z</time>
</trkpt>
<trkpt lat="57.418837" lon="9.781298">
<ele>17.363249</ele>
<time>2026-07-16T13:59:36.000Z</time>
</trkpt>
<trkpt lat="57.418878" lon="9.781255">
<ele>17.354922</ele>
<time>2026-07-16T13:59:37.000Z</time>
</trkpt>
<trkpt lat="57.418913" lon="9.781213">
<ele>17.347553</ele>
<time>2026-07-16T13:59:38.000Z</time>
</trkpt>
<trkpt lat="57.418950" lon="9.781173">
<ele>17.339983</ele>
<time>2026-07-16T13:59:39.000Z</time>
</trkpt>
<trkpt lat="57.418997" lon="9.781127">
<ele>17.349564</ele>
<time>2026-07-16T13:59:40.000Z</time>
</trkpt>
<trkpt lat="57.419041" lon="9.781081">
<ele>17.364737</ele>
<time>2026-07-16T13:59:41.000Z</time>
</trkpt>
<trkpt lat="57.419086" lon="9.781040">
<ele>17.379799</ele>
<time>2026-07-16T13:59:42.000Z</time>
</trkpt>
<trkpt lat="57.419131" lon="9.781000">
<ele>17.394791</ele>
<time>2026-07-16T13:59:43.000Z</time>
</trkpt>
<trkpt lat="57.419177" lon="9.780955">
<ele>17.410414</ele>
<time>2026-07-16T13:59:44.000Z</time>
</trkpt>
<trkpt lat="57.419225" lon="9.780914">
<ele>17.426290</ele>
<time>2026-07-16T13:59:45.000Z</time>
</trkpt>
<trkpt lat="57.419275" lon="9.780873">
<ele>17.442715</ele>
<time>2026-07-16T13:59:46.000Z</time>
</trkpt>
<trkpt lat="57.419320" lon="9.780832">
<ele>17.457777</ele>
<time>2026-07-16T13:59:47.000Z</time>
</trkpt>
<trkpt lat="57.419364" lon="9.780790">
<ele>17.472643</ele>
<time>2026-07-16T13:59:48.000Z</time>
</trkpt>
<trkpt lat="57.419404" lon="9.780748">
<ele>17.486451</ele>
<time>2026-07-16T13:59:49.000Z</time>
</trkpt>
<trkpt lat="57.419445" lon="9.780706">
<ele>17.500522</ele>
<time>2026-07-16T13:59:50.000Z</time>
</trkpt>
<trkpt lat="57.419487" lon="9.780667">
<ele>17.514632</ele>
<time>2026-07-16T13:59:51.000Z</time>
</trkpt>
<trkpt lat="57.419528" lon="9.780622">
<ele>17.528944</ele>
<time>2026-07-16T13:59:52.000Z</time>
</trkpt>
<trkpt lat="57.419567" lon="9.780577">
<ele>17.542741</ele>
<time>2026-07-16T13:59:53.000Z</time>
</trkpt>
<trkpt lat="57.419603" lon="9.780533">
<ele>17.555691</ele>
<time>2026-07-16T13:59:54.000Z</time>
</trkpt>
<trkpt lat="57.419641" lon="9.780496">
<ele>17.568584</ele>
<time>2026-07-16T13:59:55.000Z</time>
</trkpt>
<trkpt lat="57.419682" lon="9.780455">
<ele>17.582577</ele>
<time>2026-07-16T13:59:56.000Z</time>
</trkpt>
<trkpt lat="57.419726" lon="9.780418">
<ele>17.597092</ele>
<time>2026-07-16T13:59:57.000Z</time>
</trkpt>
<trkpt lat="57.419766" lon="9.780373">
<ele>17.611145</ele>
<time>2026-07-16T13:59:58.000Z</time>
</trkpt>
<trkpt lat="57.419812" lon="9.780326">
<ele>17.626922</ele>
<time>2026-07-16T13:59:59.000Z</time>
</trkpt>
<trkpt lat="57.419853" lon="9.780278">
<ele>17.641486</ele>
<time>2026-07-16T14:00:00.000Z</time>
</trkpt>
<trkpt lat="57.419907" lon="9.780212">
<ele>17.660912</ele>
<time>2026-07-16T14:00:01.000Z</time>
</trkpt>
<trkpt lat="57.419967" lon="9.780136">
<ele>17.682736</ele>
<time>2026-07-16T14:00:02.000Z</time>
</trkpt>
<trkpt lat="57.420030" lon="9.780068">
<ele>17.704633</ele>
<time>2026-07-16T14:00:03.000Z</time>
</trkpt>
<trkpt lat="57.420098" lon="9.780009">
<ele>17.727186</ele>
<time>2026-07-16T14:00:04.000Z</time>
</trkpt>
<trkpt lat="57.420161" lon="9.779949">
<ele>17.748462</ele>
<time>2026-07-16T14:00:05.000Z</time>
</trkpt>
<trkpt lat="57.420225" lon="9.779887">
<ele>17.770153</ele>
<time>2026-07-16T14:00:06.000Z</time>
</trkpt>
<trkpt lat="57.420290" lon="9.779823">
<ele>17.792261</ele>
<time>2026-07-16T14:00:07.000Z</time>
</trkpt>
<trkpt lat="57.420357" lon="9.779760">
<ele>17.814828</ele>
<time>2026-07-16T14:00:08.000Z</time>
</trkpt>
<trkpt lat="57.420423" lon="9.779701">
<ele>17.836838</ele>
<time>2026-07-16T14:00:09.000Z</time>
</trkpt>
<trkpt lat="57.420488" lon="9.779642">
<ele>17.858579</ele>
<time>2026-07-16T14:00:10.000Z</time>
</trkpt>
<trkpt lat="57.420553" lon="9.779580">
<ele>17.879952</ele>
<time>2026-07-16T14:00:11.000Z</time>
</trkpt>
<trkpt lat="57.420614" lon="9.779520">
<ele>17.895709</ele>
<time>2026-07-16T14:00:12.000Z</time>
</trkpt>
<trkpt lat="57.420681" lon="9.779451">
<ele>17.913197</ele>
<time>2026-07-16T14:00:13.000Z</time>
</trkpt>
<trkpt lat="57.420747" lon="9.779381">
<ele>17.930547</ele>
<time>2026-07-16T14:00:14.000Z</time>
</trkpt>
<trkpt lat="57.420811" lon="9.779312">
<ele>17.947440</ele>
<time>2026-07-16T14:00:15.000Z</time>
</trkpt>
<trkpt lat="57.420882" lon="9.779239">
<ele>17.965966</ele>
<time>2026-07-16T14:00:16.000Z</time>
</trkpt>
<trkpt lat="57.420953" lon="9.779168">
<ele>17.984373</ele>
<time>2026-07-16T14:00:17.000Z</time>
</trkpt>
<trkpt lat="57.421021" lon="9.779094">
<ele>18.002365</ele>
<time>2026-07-16T14:00:18.000Z</time>
</trkpt>
<trkpt lat="57.421081" lon="9.779023">
<ele>18.018605</ele>
<time>2026-07-16T14:00:19.000Z</time>
</trkpt>
<trkpt lat="57.421144" lon="9.778954">
<ele>18.035301</ele>
<time>2026-07-16T14:00:20.000Z</time>
</trkpt>
<trkpt lat="57.421206" lon="9.778884">
<ele>18.051864</ele>
<time>2026-07-16T14:00:21.000Z</time>
</trkpt>
<trkpt lat="57.421262" lon="9.778817">
<ele>18.067070</ele>
<time>2026-07-16T14:00:22.000Z</time>
</trkpt>
<trkpt lat="57.421318" lon="9.778747">
<ele>18.082480</ele>
<time>2026-07-16T14:00:23.000Z</time>
</trkpt>
<trkpt lat="57.421368" lon="9.778686">
<ele>18.096136</ele>
<time>2026-07-16T14:00:24.000Z</time>
</trkpt>
<trkpt lat="57.421427" lon="9.778616">
<ele>18.112118</ele>
<time>2026-07-16T14:00:25.000Z</time>
</trkpt>
<trkpt lat="57.421489" lon="9.778545">
<ele>18.128745</ele>
<time>2026-07-16T14:00:26.000Z</time>
</trkpt>
<trkpt lat="57.421552" lon="9.778476">
<ele>18.145441</ele>
<time>2026-07-16T14:00:27.000Z</time>
</trkpt>
<trkpt lat="57.421606" lon="9.778411">
<ele>18.160130</ele>
<time>2026-07-16T14:00:28.000Z</time>
</trkpt>
<trkpt lat="57.421661" lon="9.778344">
<ele>18.175145</ele>
<time>2026-07-16T14:00:29.000Z</time>
</trkpt>
<trkpt lat="57.421716" lon="9.778276">
<ele>18.190228</ele>
<time>2026-07-16T14:00:30.000Z</time>
</trkpt>
<trkpt lat="57.421768" lon="9.778212">
<ele>18.204468</ele>
<time>2026-07-16T14:00:31.000Z</time>
</trkpt>
<trkpt lat="57.421822" lon="9.778147">
<ele>18.219157</ele>
<time>2026-07-16T14:00:32.000Z</time>
</trkpt>
<trkpt lat="57.421873" lon="9.778086">
<ele>18.233005</ele>
<time>2026-07-16T14:00:33.000Z</time>
</trkpt>
<trkpt lat="57.421928" lon="9.778018">
<ele>18.248088</ele>
<time>2026-07-16T14:00:34.000Z</time>
</trkpt>
<trkpt lat="57.421983" lon="9.777948">
<ele>18.263308</ele>
<time>2026-07-16T14:00:35.000Z</time>
</trkpt>
<trkpt lat="57.422036" lon="9.777881">
<ele>18.277943</ele>
<time>2026-07-16T14:00:36.000Z</time>
</trkpt>
<trkpt lat="57.422089" lon="9.777817">
<ele>18.292668</ele>
<time>2026-07-16T14:00:37.000Z</time>
</trkpt>
<trkpt lat="57.422143" lon="9.777752">
<ele>18.308528</ele>
<time>2026-07-16T14:00:38.000Z</time>
</trkpt>
<trkpt lat="57.422195" lon="9.777687">
<ele>18.323976</ele>
<time>2026-07-16T14:00:39.000Z</time>
</trkpt>
<trkpt lat="57.422249" lon="9.777622">
<ele>18.339836</ele>
<time>2026-07-16T14:00:40.000Z</time>
</trkpt>
<trkpt lat="57.422303" lon="9.777554">
<ele>18.355916</ele>
<time>2026-07-16T14:00:41.000Z</time>
</trkpt>
<trkpt lat="57.422359" lon="9.777487">
<ele>18.372333</ele>
<time>2026-07-16T14:00:42.000Z</time>
</trkpt>
<trkpt lat="57.422413" lon="9.777421">
<ele>18.388266</ele>
<time>2026-07-16T14:00:43.000Z</time>
</trkpt>
<trkpt lat="57.422467" lon="9.777353">
<ele>18.404345</ele>
<time>2026-07-16T14:00:44.000Z</time>
</trkpt>
<trkpt lat="57.422520" lon="9.777284">
<ele>18.420297</ele>
<time>2026-07-16T14:00:45.000Z</time>
</trkpt>
<trkpt lat="57.422577" lon="9.777217">
<ele>18.436923</ele>
<time>2026-07-16T14:00:46.000Z</time>
</trkpt>
<trkpt lat="57.422631" lon="9.777149">
<ele>18.453002</ele>
<time>2026-07-16T14:00:47.000Z</time>
</trkpt>
<trkpt lat="57.422684" lon="9.777085">
<ele>18.468583</ele>
<time>2026-07-16T14:00:48.000Z</time>
</trkpt>
<trkpt lat="57.422739" lon="9.777018">
<ele>18.484794</ele>
<time>2026-07-16T14:00:49.000Z</time>
</trkpt>
<trkpt lat="57.422794" lon="9.776948">
<ele>18.501227</ele>
<time>2026-07-16T14:00:50.000Z</time>
</trkpt>
<trkpt lat="57.422843" lon="9.776888">
<ele>18.515692</ele>
<time>2026-07-16T14:00:51.000Z</time>
</trkpt>
<trkpt lat="57.422901" lon="9.776818">
<ele>18.532740</ele>
<time>2026-07-16T14:00:52.000Z</time>
</trkpt>
<trkpt lat="57.422959" lon="9.776747">
<ele>18.549860</ele>
<time>2026-07-16T14:00:53.000Z</time>
</trkpt>
<trkpt lat="57.423013" lon="9.776681">
<ele>18.565793</ele>
<time>2026-07-16T14:00:54.000Z</time>
</trkpt>
<trkpt lat="57.423063" lon="9.776617">
<ele>18.580759</ele>
<time>2026-07-16T14:00:55.000Z</time>
</trkpt>
<trkpt lat="57.423117" lon="9.776554">
<ele>18.596476</ele>
<time>2026-07-16T14:00:56.000Z</time>
</trkpt>
<trkpt lat="57.423172" lon="9.776486">
<ele>18.612760</ele>
<time>2026-07-16T14:00:57.000Z</time>
</trkpt>
<trkpt lat="57.423229" lon="9.776417">
<ele>18.629528</ele>
<time>2026-07-16T14:00:58.000Z</time>
</trkpt>
<trkpt lat="57.423286" lon="9.776353">
<ele>18.645944</ele>
<time>2026-07-16T14:00:59.000Z</time>
</trkpt>
<trkpt lat="57.423340" lon="9.776287">
<ele>18.661877</ele>
<time>2026-07-16T14:01:00.000Z</time>
</trkpt>
<trkpt lat="57.423391" lon="9.776225">
<ele>18.676899</ele>
<time>2026-07-16T14:01:01.000Z</time>
</trkpt>
<trkpt lat="57.423446" lon="9.776159">
<ele>18.693038</ele>
<time>2026-07-16T14:01:02.000Z</time>
</trkpt>
<trkpt lat="57.423501" lon="9.776095">
<ele>18.709034</ele>
<time>2026-07-16T14:01:03.000Z</time>
</trkpt>
<trkpt lat="57.423554" lon="9.776037">
<ele>18.724195</ele>
<time>2026-07-16T14:01:04.000Z</time>
</trkpt>
<trkpt lat="57.423604" lon="9.775980">
<ele>18.739488</ele>
<time>2026-07-16T14:01:05.000Z</time>
</trkpt>
<trkpt lat="57.423654" lon="9.775921">
<ele>18.755911</ele>
<time>2026-07-16T14:01:06.000Z</time>
</trkpt>
<trkpt lat="57.423703" lon="9.775863">
<ele>18.772020</ele>
<time>2026-07-16T14:01:07.000Z</time>
</trkpt>
<trkpt lat="57.423756" lon="9.775803">
<ele>18.789229</ele>
<time>2026-07-16T14:01:08.000Z</time>
</trkpt>
<trkpt lat="57.423803" lon="9.775747">
<ele>18.804710</ele>
<time>2026-07-16T14:01:09.000Z</time>
</trkpt>
<trkpt lat="57.423854" lon="9.775689">
<ele>18.821289</ele>
<time>2026-07-16T14:01:10.000Z</time>
</trkpt>
<trkpt lat="57.423902" lon="9.775632">
<ele>18.837084</ele>
<time>2026-07-16T14:01:11.000Z</time>
</trkpt>
<trkpt lat="57.423948" lon="9.775576">
<ele>18.852333</ele>
<time>2026-07-16T14:01:12.000Z</time>
</trkpt>
<trkpt lat="57.423987" lon="9.775530">
<ele>18.865141</ele>
<time>2026-07-16T14:01:13.000Z</time>
</trkpt>
<trkpt lat="57.424031" lon="9.775484">
<ele>18.879139</ele>
<time>2026-07-16T14:01:14.000Z</time>
</trkpt>
<trkpt lat="57.424066" lon="9.775451">
<ele>18.890022</ele>
<time>2026-07-16T14:01:15.000Z</time>
</trkpt>
<trkpt lat="57.424107" lon="9.775411">
<ele>18.902861</ele>
<time>2026-07-16T14:01:16.000Z</time>
</trkpt>
<trkpt lat="57.424153" lon="9.775362">
<ele>18.917563</ele>
<time>2026-07-16T14:01:17.000Z</time>
</trkpt>
<trkpt lat="57.424200" lon="9.775310">
<ele>18.932730</ele>
<time>2026-07-16T14:01:18.000Z</time>
</trkpt>
<trkpt lat="57.424252" lon="9.775255">
<ele>18.949320</ele>
<time>2026-07-16T14:01:19.000Z</time>
</trkpt>
<trkpt lat="57.424305" lon="9.775200">
<ele>18.966152</ele>
<time>2026-07-16T14:01:20.000Z</time>
</trkpt>
<trkpt lat="57.424355" lon="9.775147">
<ele>18.982113</ele>
<time>2026-07-16T14:01:21.000Z</time>
</trkpt>
<trkpt lat="57.424406" lon="9.775099">
<ele>18.997964</ele>
<time>2026-07-16T14:01:22.000Z</time>
</trkpt>
<trkpt lat="57.424461" lon="9.775052">
<ele>19.014748</ele>
<time>2026-07-16T14:01:23.000Z</time>
</trkpt>
<trkpt lat="57.424515" lon="9.775011">
<ele>19.030922</ele>
<time>2026-07-16T14:01:24.000Z</time>
</trkpt>
<trkpt lat="57.424572" lon="9.774965">
<ele>19.048152</ele>
<time>2026-07-16T14:01:25.000Z</time>
</trkpt>
<trkpt lat="57.424638" lon="9.774922">
<ele>19.067543</ele>
<time>2026-07-16T14:01:26.000Z</time>
</trkpt>
<trkpt lat="57.424700" lon="9.774880">
<ele>19.085839</ele>
<time>2026-07-16T14:01:27.000Z</time>
</trkpt>
<trkpt lat="57.424761" lon="9.774839">
<ele>19.103824</ele>
<time>2026-07-16T14:01:28.000Z</time>
</trkpt>
<trkpt lat="57.424819" lon="9.774801">
<ele>19.120875</ele>
<time>2026-07-16T14:01:29.000Z</time>
</trkpt>
<trkpt lat="57.424879" lon="9.774761">
<ele>19.138549</ele>
<time>2026-07-16T14:01:30.000Z</time>
</trkpt>
<trkpt lat="57.424938" lon="9.774721">
<ele>19.155962</ele>
<time>2026-07-16T14:01:31.000Z</time>
</trkpt>
<trkpt lat="57.424992" lon="9.774682">
<ele>19.172025</ele>
<time>2026-07-16T14:01:32.000Z</time>
</trkpt>
<trkpt lat="57.425051" lon="9.774646">
<ele>19.189242</ele>
<time>2026-07-16T14:01:33.000Z</time>
</trkpt>
<trkpt lat="57.425117" lon="9.774610">
<ele>19.208312</ele>
<time>2026-07-16T14:01:34.000Z</time>
</trkpt>
<trkpt lat="57.425186" lon="9.774576">
<ele>19.228104</ele>
<time>2026-07-16T14:01:35.000Z</time>
</trkpt>
<trkpt lat="57.425252" lon="9.774540">
<ele>19.256032</ele>
<time>2026-07-16T14:01:36.000Z</time>
</trkpt>
<trkpt lat="57.425313" lon="9.774506">
<ele>19.283144</ele>
<time>2026-07-16T14:01:37.000Z</time>
</trkpt>
<trkpt lat="57.425377" lon="9.774475">
<ele>19.311301</ele>
<time>2026-07-16T14:01:38.000Z</time>
</trkpt>
<trkpt lat="57.425442" lon="9.774447">
<ele>19.339706</ele>
<time>2026-07-16T14:01:39.000Z</time>
</trkpt>
<trkpt lat="57.425505" lon="9.774423">
<ele>19.367084</ele>
<time>2026-07-16T14:01:40.000Z</time>
</trkpt>
<trkpt lat="57.425563" lon="9.774404">
<ele>19.392157</ele>
<time>2026-07-16T14:01:41.000Z</time>
</trkpt>
<trkpt lat="57.425621" lon="9.774384">
<ele>19.417270</ele>
<time>2026-07-16T14:01:42.000Z</time>
</trkpt>
<trkpt lat="57.425671" lon="9.774364">
<ele>19.439043</ele>
<time>2026-07-16T14:01:43.000Z</time>
</trkpt>
<trkpt lat="57.425731" lon="9.774339">
<ele>19.465221</ele>
<time>2026-07-16T14:01:44.000Z</time>
</trkpt>
<trkpt lat="57.425790" lon="9.774319">
<ele>19.490753</ele>
<time>2026-07-16T14:01:45.000Z</time>
</trkpt>
<trkpt lat="57.425858" lon="9.774295">
<ele>19.520219</ele>
<time>2026-07-16T14:01:46.000Z</time>
</trkpt>
<trkpt lat="57.425932" lon="9.774272">
<ele>19.552160</ele>
<time>2026-07-16T14:01:47.000Z</time>
</trkpt>
<trkpt lat="57.426006" lon="9.774254">
<ele>19.583931</ele>
<time>2026-07-16T14:01:48.000Z</time>
</trkpt>
<trkpt lat="57.426079" lon="9.774238">
<ele>19.615224</ele>
<time>2026-07-16T14:01:49.000Z</time>
</trkpt>
<trkpt lat="57.426164" lon="9.774224">
<ele>19.651551</ele>
<time>2026-07-16T14:01:50.000Z</time>
</trkpt>
<trkpt lat="57.426242" lon="9.774208">
<ele>19.684958</ele>
<time>2026-07-16T14:01:51.000Z</time>
</trkpt>
<trkpt lat="57.426318" lon="9.774191">
<ele>19.717546</ele>
<time>2026-07-16T14:01:52.000Z</time>
</trkpt>
<trkpt lat="57.426390" lon="9.774179">
<ele>19.748320</ele>
<time>2026-07-16T14:01:53.000Z</time>
</trkpt>
<trkpt lat="57.426467" lon="9.774167">
<ele>19.781215</ele>
<time>2026-07-16T14:01:54.000Z</time>
</trkpt>
<trkpt lat="57.426536" lon="9.774155">
<ele>19.810718</ele>
<time>2026-07-16T14:01:55.000Z</time>
</trkpt>
<trkpt lat="57.426599" lon="9.774141">
<ele>19.837729</ele>
<time>2026-07-16T14:01:56.000Z</time>
</trkpt>
<trkpt lat="57.426659" lon="9.774131">
<ele>19.863374</ele>
<time>2026-07-16T14:01:57.000Z</time>
</trkpt>
<trkpt lat="57.426718" lon="9.774124">
<ele>19.888542</ele>
<time>2026-07-16T14:01:58.000Z</time>
</trkpt>
<trkpt lat="57.426780" lon="9.774113">
<ele>19.915056</ele>
<time>2026-07-16T14:01:59.000Z</time>
</trkpt>
<trkpt lat="57.426845" lon="9.774102">
<ele>19.942842</ele>
<time>2026-07-16T14:02:00.000Z</time>
</trkpt>
<trkpt lat="57.426910" lon="9.774090">
<ele>19.970650</ele>
<time>2026-07-16T14:02:01.000Z</time>
</trkpt>
<trkpt lat="57.426973" lon="9.774078">
<ele>19.999603</ele>
<time>2026-07-16T14:02:02.000Z</time>
</trkpt>
<trkpt lat="57.427034" lon="9.774068">
<ele>20.066464</ele>
<time>2026-07-16T14:02:03.000Z</time>
</trkpt>
<trkpt lat="57.427092" lon="9.774058">
<ele>20.130062</ele>
<time>2026-07-16T14:02:04.000Z</time>
</trkpt>
<trkpt lat="57.427152" lon="9.774049">
<ele>20.195785</ele>
<time>2026-07-16T14:02:05.000Z</time>
</trkpt>
<trkpt lat="57.427214" lon="9.774039">
<ele>20.263733</ele>
<time>2026-07-16T14:02:06.000Z</time>
</trkpt>
<trkpt lat="57.427275" lon="9.774027">
<ele>20.330707</ele>
<time>2026-07-16T14:02:07.000Z</time>
</trkpt>
<trkpt lat="57.427326" lon="9.774014">
<ele>20.386912</ele>
<time>2026-07-16T14:02:08.000Z</time>
</trkpt>
<trkpt lat="57.427387" lon="9.774001">
<ele>20.453951</ele>
<time>2026-07-16T14:02:09.000Z</time>
</trkpt>
<trkpt lat="57.427453" lon="9.773988">
<ele>20.526416</ele>
<time>2026-07-16T14:02:10.000Z</time>
</trkpt>
<trkpt lat="57.427514" lon="9.773978">
<ele>20.593276</ele>
<time>2026-07-16T14:02:11.000Z</time>
</trkpt>
<trkpt lat="57.427575" lon="9.773968">
<ele>20.660136</ele>
<time>2026-07-16T14:02:12.000Z</time>
</trkpt>
<trkpt lat="57.427637" lon="9.773956">
<ele>20.728196</ele>
<time>2026-07-16T14:02:13.000Z</time>
</trkpt>
<trkpt lat="57.427700" lon="9.773942">
<ele>20.797472</ele>
<time>2026-07-16T14:02:14.000Z</time>
</trkpt>
<trkpt lat="57.427762" lon="9.773930">
<ele>20.865532</ele>
<time>2026-07-16T14:02:15.000Z</time>
</trkpt>
<trkpt lat="57.427823" lon="9.773919">
<ele>20.932447</ele>
<time>2026-07-16T14:02:16.000Z</time>
</trkpt>
<trkpt lat="57.427884" lon="9.773907">
<ele>20.999421</ele>
<time>2026-07-16T14:02:17.000Z</time>
</trkpt>
<trkpt lat="57.427944" lon="9.773896">
<ele>21.065249</ele>
<time>2026-07-16T14:02:18.000Z</time>
</trkpt>
<trkpt lat="57.428002" lon="9.773886">
<ele>21.128847</ele>
<time>2026-07-16T14:02:19.000Z</time>
</trkpt>
<trkpt lat="57.428062" lon="9.773875">
<ele>21.194675</ele>
<time>2026-07-16T14:02:20.000Z</time>
</trkpt>
<trkpt lat="57.428124" lon="9.773864">
<ele>21.262677</ele>
<time>2026-07-16T14:02:21.000Z</time>
</trkpt>
<trkpt lat="57.428183" lon="9.773853">
<ele>21.327418</ele>
<time>2026-07-16T14:02:22.000Z</time>
</trkpt>
<trkpt lat="57.428242" lon="9.773843">
<ele>21.392104</ele>
<time>2026-07-16T14:02:23.000Z</time>
</trkpt>
<trkpt lat="57.428303" lon="9.773834">
<ele>21.458915</ele>
<time>2026-07-16T14:02:24.000Z</time>
</trkpt>
<trkpt lat="57.428363" lon="9.773824">
<ele>21.524688</ele>
<time>2026-07-16T14:02:25.000Z</time>
</trkpt>
<trkpt lat="57.428420" lon="9.773815">
<ele>21.587147</ele>
<time>2026-07-16T14:02:26.000Z</time>
</trkpt>
<trkpt lat="57.428479" lon="9.773805">
<ele>21.651832</ele>
<time>2026-07-16T14:02:27.000Z</time>
</trkpt>
<trkpt lat="57.428534" lon="9.773796">
<ele>21.712116</ele>
<time>2026-07-16T14:02:28.000Z</time>
</trkpt>
<trkpt lat="57.428593" lon="9.773787">
<ele>21.776750</ele>
<time>2026-07-16T14:02:29.000Z</time>
</trkpt>
<trkpt lat="57.428655" lon="9.773776">
<ele>21.844752</ele>
<time>2026-07-16T14:02:30.000Z</time>
</trkpt>
<trkpt lat="57.428712" lon="9.773767">
<ele>21.907211</ele>
<time>2026-07-16T14:02:31.000Z</time>
</trkpt>
<trkpt lat="57.428773" lon="9.773759">
<ele>21.977662</ele>
<time>2026-07-16T14:02:32.000Z</time>
</trkpt>
<trkpt lat="57.428831" lon="9.773748">
<ele>22.058275</ele>
<time>2026-07-16T14:02:33.000Z</time>
</trkpt>
<trkpt lat="57.428888" lon="9.773735">
<ele>22.137680</ele>
<time>2026-07-16T14:02:34.000Z</time>
</trkpt>
<trkpt lat="57.428946" lon="9.773724">
<ele>22.218293</ele>
<time>2026-07-16T14:02:35.000Z</time>
</trkpt>
<trkpt lat="57.429002" lon="9.773717">
<ele>22.295899</ele>
<time>2026-07-16T14:02:36.000Z</time>
</trkpt>
<trkpt lat="57.429060" lon="9.773709">
<ele>22.376315</ele>
<time>2026-07-16T14:02:37.000Z</time>
</trkpt>
<trkpt lat="57.429119" lon="9.773700">
<ele>22.458169</ele>
<time>2026-07-16T14:02:38.000Z</time>
</trkpt>
<trkpt lat="57.429179" lon="9.773687">
<ele>22.541693</ele>
<time>2026-07-16T14:02:39.000Z</time>
</trkpt>
<trkpt lat="57.429236" lon="9.773677">
<ele>22.620856</ele>
<time>2026-07-16T14:02:40.000Z</time>
</trkpt>
<trkpt lat="57.429293" lon="9.773669">
<ele>22.699894</ele>
<time>2026-07-16T14:02:41.000Z</time>
</trkpt>
<trkpt lat="57.429350" lon="9.773658">
<ele>22.779132</ele>
<time>2026-07-16T14:02:42.000Z</time>
</trkpt>
<trkpt lat="57.429411" lon="9.773647">
<ele>22.863872</ele>
<time>2026-07-16T14:02:43.000Z</time>
</trkpt>
<trkpt lat="57.429471" lon="9.773637">
<ele>22.947167</ele>
<time>2026-07-16T14:02:44.000Z</time>
</trkpt>
<trkpt lat="57.429533" lon="9.773627">
<ele>23.033216</ele>
<time>2026-07-16T14:02:45.000Z</time>
</trkpt>
<trkpt lat="57.429594" lon="9.773614">
<ele>23.118113</ele>
<time>2026-07-16T14:02:46.000Z</time>
</trkpt>
<trkpt lat="57.429655" lon="9.773603">
<ele>23.202854</ele>
<time>2026-07-16T14:02:47.000Z</time>
</trkpt>
<trkpt lat="57.429716" lon="9.773594">
<ele>23.287464</ele>
<time>2026-07-16T14:02:48.000Z</time>
</trkpt>
<trkpt lat="57.429773" lon="9.773587">
<ele>23.366449</ele>
<time>2026-07-16T14:02:49.000Z</time>
</trkpt>
<trkpt lat="57.429833" lon="9.773579">
<ele>23.449624</ele>
<time>2026-07-16T14:02:50.000Z</time>
</trkpt>
<trkpt lat="57.429898" lon="9.773569">
<ele>23.539806</ele>
<time>2026-07-16T14:02:51.000Z</time>
</trkpt>
<trkpt lat="57.429959" lon="9.773560">
<ele>23.624416</ele>
<time>2026-07-16T14:02:52.000Z</time>
</trkpt>
<trkpt lat="57.430018" lon="9.773549">
<ele>23.706404</ele>
<time>2026-07-16T14:02:53.000Z</time>
</trkpt>
<trkpt lat="57.430082" lon="9.773538">
<ele>23.795274</ele>
<time>2026-07-16T14:02:54.000Z</time>
</trkpt>
<trkpt lat="57.430143" lon="9.773527">
<ele>23.880015</ele>
<time>2026-07-16T14:02:55.000Z</time>
</trkpt>
<trkpt lat="57.430203" lon="9.773517">
<ele>23.963309</ele>
<time>2026-07-16T14:02:56.000Z</time>
</trkpt>
<trkpt lat="57.430261" lon="9.773506">
<ele>24.043922</ele>
<time>2026-07-16T14:02:57.000Z</time>
</trkpt>
<trkpt lat="57.430320" lon="9.773497">
<ele>24.125776</ele>
<time>2026-07-16T14:02:58.000Z</time>
</trkpt>
<trkpt lat="57.430382" lon="9.773490">
<ele>24.211660</ele>
<time>2026-07-16T14:02:59.000Z</time>
</trkpt>
<trkpt lat="57.430444" lon="9.773480">
<ele>24.297710</ele>
<time>2026-07-16T14:03:00.000Z</time>
</trkpt>
<trkpt lat="57.430507" lon="9.773471">
<ele>24.385076</ele>
<time>2026-07-16T14:03:01.000Z</time>
</trkpt>
<trkpt lat="57.430566" lon="9.773460">
<ele>24.464628</ele>
<time>2026-07-16T14:03:02.000Z</time>
</trkpt>
<trkpt lat="57.430624" lon="9.773448">
<ele>24.535463</ele>
<time>2026-07-16T14:03:03.000Z</time>
</trkpt>
<trkpt lat="57.430686" lon="9.773435">
<ele>24.611196</ele>
<time>2026-07-16T14:03:04.000Z</time>
</trkpt>
<trkpt lat="57.430747" lon="9.773425">
<ele>24.685525</ele>
<time>2026-07-16T14:03:05.000Z</time>
</trkpt>
<trkpt lat="57.430810" lon="9.773415">
<ele>24.762273</ele>
<time>2026-07-16T14:03:06.000Z</time>
</trkpt>
<trkpt lat="57.430865" lon="9.773406">
<ele>24.829290</ele>
<time>2026-07-16T14:03:07.000Z</time>
</trkpt>
<trkpt lat="57.430924" lon="9.773396">
<ele>24.901201</ele>
<time>2026-07-16T14:03:08.000Z</time>
</trkpt>
<trkpt lat="57.430984" lon="9.773388">
<ele>24.974216</ele>
<time>2026-07-16T14:03:09.000Z</time>
</trkpt>
<trkpt lat="57.431044" lon="9.773378">
<ele>25.047336</ele>
<time>2026-07-16T14:03:10.000Z</time>
</trkpt>
<trkpt lat="57.431103" lon="9.773368">
<ele>25.119247</ele>
<time>2026-07-16T14:03:11.000Z</time>
</trkpt>
<trkpt lat="57.431162" lon="9.773357">
<ele>25.191221</ele>
<time>2026-07-16T14:03:12.000Z</time>
</trkpt>
<trkpt lat="57.431218" lon="9.773348">
<ele>25.259447</ele>
<time>2026-07-16T14:03:13.000Z</time>
</trkpt>
<trkpt lat="57.431277" lon="9.773338">
<ele>25.331359</ele>
<time>2026-07-16T14:03:14.000Z</time>
</trkpt>
<trkpt lat="57.431335" lon="9.773328">
<ele>25.402061</ele>
<time>2026-07-16T14:03:15.000Z</time>
</trkpt>
<trkpt lat="57.431391" lon="9.773317">
<ele>25.470413</ele>
<time>2026-07-16T14:03:16.000Z</time>
</trkpt>
<trkpt lat="57.431446" lon="9.773307">
<ele>25.537490</ele>
<time>2026-07-16T14:03:17.000Z</time>
</trkpt>
<trkpt lat="57.431502" lon="9.773299">
<ele>25.605663</ele>
<time>2026-07-16T14:03:18.000Z</time>
</trkpt>
<trkpt lat="57.431556" lon="9.773288">
<ele>25.671601</ele>
<time>2026-07-16T14:03:19.000Z</time>
</trkpt>
<trkpt lat="57.431612" lon="9.773277">
<ele>25.739952</ele>
<time>2026-07-16T14:03:20.000Z</time>
</trkpt>
<trkpt lat="57.431669" lon="9.773266">
<ele>25.809511</ele>
<time>2026-07-16T14:03:21.000Z</time>
</trkpt>
<trkpt lat="57.431724" lon="9.773256">
<ele>25.876589</ele>
<time>2026-07-16T14:03:22.000Z</time>
</trkpt>
<trkpt lat="57.431778" lon="9.773245">
<ele>25.942526</ele>
<time>2026-07-16T14:03:23.000Z</time>
</trkpt>
<trkpt lat="57.431834" lon="9.773234">
<ele>26.010878</ele>
<time>2026-07-16T14:03:24.000Z</time>
</trkpt>
<trkpt lat="57.431892" lon="9.773225">
<ele>26.081523</ele>
<time>2026-07-16T14:03:25.000Z</time>
</trkpt>
<trkpt lat="57.431949" lon="9.773214">
<ele>26.151081</ele>
<time>2026-07-16T14:03:26.000Z</time>
</trkpt>
<trkpt lat="57.432006" lon="9.773203">
<ele>26.220640</ele>
<time>2026-07-16T14:03:27.000Z</time>
</trkpt>
<trkpt lat="57.432064" lon="9.773192">
<ele>26.291406</ele>
<time>2026-07-16T14:03:28.000Z</time>
</trkpt>
<trkpt lat="57.432121" lon="9.773184">
<ele>26.360789</ele>
<time>2026-07-16T14:03:29.000Z</time>
</trkpt>
<trkpt lat="57.432177" lon="9.773174">
<ele>26.429075</ele>
<time>2026-07-16T14:03:30.000Z</time>
</trkpt>
<trkpt lat="57.432235" lon="9.773163">
<ele>26.499841</ele>
<time>2026-07-16T14:03:31.000Z</time>
</trkpt>
<trkpt lat="57.432293" lon="9.773153">
<ele>26.570543</ele>
<time>2026-07-16T14:03:32.000Z</time>
</trkpt>
<trkpt lat="57.432348" lon="9.773143">
<ele>26.638650</ele>
<time>2026-07-16T14:03:33.000Z</time>
</trkpt>
<trkpt lat="57.432405" lon="9.773132">
<ele>26.717974</ele>
<time>2026-07-16T14:03:34.000Z</time>
</trkpt>
<trkpt lat="57.432463" lon="9.773121">
<ele>26.798676</ele>
<time>2026-07-16T14:03:35.000Z</time>
</trkpt>
<trkpt lat="57.432519" lon="9.773113">
<ele>26.876421</ele>
<time>2026-07-16T14:03:36.000Z</time>
</trkpt>
<trkpt lat="57.432577" lon="9.773106">
<ele>26.956874</ele>
<time>2026-07-16T14:03:37.000Z</time>
</trkpt>
<trkpt lat="57.432635" lon="9.773096">
<ele>27.037503</ele>
<time>2026-07-16T14:03:38.000Z</time>
</trkpt>
<trkpt lat="57.432689" lon="9.773085">
<ele>27.112699</ele>
<time>2026-07-16T14:03:39.000Z</time>
</trkpt>
<trkpt lat="57.432746" lon="9.773074">
<ele>27.192023</ele>
<time>2026-07-16T14:03:40.000Z</time>
</trkpt>
<trkpt lat="57.432803" lon="9.773065">
<ele>27.271208</ele>
<time>2026-07-16T14:03:41.000Z</time>
</trkpt>
<trkpt lat="57.432859" lon="9.773056">
<ele>27.349013</ele>
<time>2026-07-16T14:03:42.000Z</time>
</trkpt>
<trkpt lat="57.432917" lon="9.773046">
<ele>27.429643</ele>
<time>2026-07-16T14:03:43.000Z</time>
</trkpt>
<trkpt lat="57.432973" lon="9.773035">
<ele>27.507591</ele>
<time>2026-07-16T14:03:44.000Z</time>
</trkpt>
<trkpt lat="57.433030" lon="9.773025">
<ele>27.586842</ele>
<time>2026-07-16T14:03:45.000Z</time>
</trkpt>
<trkpt lat="57.433091" lon="9.773014">
<ele>27.671675</ele>
<time>2026-07-16T14:03:46.000Z</time>
</trkpt>
<trkpt lat="57.433150" lon="9.773003">
<ele>27.753754</ele>
<time>2026-07-16T14:03:47.000Z</time>
</trkpt>
<trkpt lat="57.433204" lon="9.772992">
<ele>27.828949</ele>
<time>2026-07-16T14:03:48.000Z</time>
</trkpt>
<trkpt lat="57.433259" lon="9.772982">
<ele>27.905445</ele>
<time>2026-07-16T14:03:49.000Z</time>
</trkpt>
<trkpt lat="57.433318" lon="9.772971">
<ele>27.987524</ele>
<time>2026-07-16T14:03:50.000Z</time>
</trkpt>
<trkpt lat="57.433375" lon="9.772962">
<ele>28.066708</ele>
<time>2026-07-16T14:03:51.000Z</time>
</trkpt>
<trkpt lat="57.433429" lon="9.772953">
<ele>28.141756</ele>
<time>2026-07-16T14:03:52.000Z</time>
</trkpt>
<trkpt lat="57.433476" lon="9.772944">
<ele>28.207158</ele>
<time>2026-07-16T14:03:53.000Z</time>
</trkpt>
<trkpt lat="57.433533" lon="9.772934">
<ele>28.286409</ele>
<time>2026-07-16T14:03:54.000Z</time>
</trkpt>
<trkpt lat="57.433589" lon="9.772924">
<ele>28.364282</ele>
<time>2026-07-16T14:03:55.000Z</time>
</trkpt>
<trkpt lat="57.433639" lon="9.772917">
<ele>28.433689</ele>
<time>2026-07-16T14:03:56.000Z</time>
</trkpt>
<trkpt lat="57.433692" lon="9.772909">
<ele>28.507294</ele>
<time>2026-07-16T14:03:57.000Z</time>
</trkpt>
<trkpt lat="57.433745" lon="9.772901">
<ele>28.580899</ele>
<time>2026-07-16T14:03:58.000Z</time>
</trkpt>
<trkpt lat="57.433798" lon="9.772891">
<ele>28.654640</ele>
<time>2026-07-16T14:03:59.000Z</time>
</trkpt>
<trkpt lat="57.433851" lon="9.772881">
<ele>28.728380</ele>
<time>2026-07-16T14:04:00.000Z</time>
</trkpt>
<trkpt lat="57.433902" lon="9.772873">
<ele>28.799226</ele>
<time>2026-07-16T14:04:01.000Z</time>
</trkpt>
<trkpt lat="57.433956" lon="9.772864">
<ele>28.874274</ele>
<time>2026-07-16T14:04:02.000Z</time>
</trkpt>
<trkpt lat="57.434009" lon="9.772855">
<ele>28.947943</ele>
<time>2026-07-16T14:04:03.000Z</time>
</trkpt>
<trkpt lat="57.434060" lon="9.772843">
<ele>29.019102</ele>
<time>2026-07-16T14:04:04.000Z</time>
</trkpt>
<trkpt lat="57.434112" lon="9.772831">
<ele>29.091634</ele>
<time>2026-07-16T14:04:05.000Z</time>
</trkpt>
<trkpt lat="57.434162" lon="9.772823">
<ele>29.156273</ele>
<time>2026-07-16T14:04:06.000Z</time>
</trkpt>
<trkpt lat="57.434212" lon="9.772817">
<ele>29.217483</ele>
<time>2026-07-16T14:04:07.000Z</time>
</trkpt>
<trkpt lat="57.434261" lon="9.772807">
<ele>29.277704</ele>
<time>2026-07-16T14:04:08.000Z</time>
</trkpt>
<trkpt lat="57.434314" lon="9.772794">
<ele>29.343013</ele>
<time>2026-07-16T14:04:09.000Z</time>
</trkpt>
<trkpt lat="57.434368" lon="9.772782">
<ele>29.409453</ele>
<time>2026-07-16T14:04:10.000Z</time>
</trkpt>
<trkpt lat="57.434416" lon="9.772775">
<ele>29.468273</ele>
<time>2026-07-16T14:04:11.000Z</time>
</trkpt>
<trkpt lat="57.434468" lon="9.772770">
<ele>29.531883</ele>
<time>2026-07-16T14:04:12.000Z</time>
</trkpt>
<trkpt lat="57.434517" lon="9.772765">
<ele>29.591835</ele>
<time>2026-07-16T14:04:13.000Z</time>
</trkpt>
<trkpt lat="57.434567" lon="9.772757">
<ele>29.653143</ele>
<time>2026-07-16T14:04:14.000Z</time>
</trkpt>
<trkpt lat="57.434616" lon="9.772749">
<ele>29.713235</ele>
<time>2026-07-16T14:04:15.000Z</time>
</trkpt>
<trkpt lat="57.434666" lon="9.772738">
<ele>29.774744</ele>
<time>2026-07-16T14:04:16.000Z</time>
</trkpt>
<trkpt lat="57.434716" lon="9.772723">
<ele>29.836618</ele>
<time>2026-07-16T14:04:17.000Z</time>
</trkpt>
<trkpt lat="57.434764" lon="9.772707">
<ele>29.896194</ele>
<time>2026-07-16T14:04:18.000Z</time>
</trkpt>
<trkpt lat="57.434812" lon="9.772687">
<ele>29.956290</ele>
<time>2026-07-16T14:04:19.000Z</time>
</trkpt>
<trkpt lat="57.434859" lon="9.772668">
<ele>30.015051</ele>
<time>2026-07-16T14:04:20.000Z</time>
</trkpt>
<trkpt lat="57.434910" lon="9.772645">
<ele>30.079165</ele>
<time>2026-07-16T14:04:21.000Z</time>
</trkpt>
<trkpt lat="57.434960" lon="9.772618">
<ele>30.142775</ele>
<time>2026-07-16T14:04:22.000Z</time>
</trkpt>
<trkpt lat="57.435009" lon="9.772591">
<ele>30.205213</ele>
<time>2026-07-16T14:04:23.000Z</time>
</trkpt>
<trkpt lat="57.435057" lon="9.772560">
<ele>30.267295</ele>
<time>2026-07-16T14:04:24.000Z</time>
</trkpt>
<trkpt lat="57.435103" lon="9.772529">
<ele>30.327073</ele>
<time>2026-07-16T14:04:25.000Z</time>
</trkpt>
<trkpt lat="57.435148" lon="9.772497">
<ele>30.385937</ele>
<time>2026-07-16T14:04:26.000Z</time>
</trkpt>
<trkpt lat="57.435193" lon="9.772465">
<ele>30.444801</ele>
<time>2026-07-16T14:04:27.000Z</time>
</trkpt>
<trkpt lat="57.435240" lon="9.772435">
<ele>30.505513</ele>
<time>2026-07-16T14:04:28.000Z</time>
</trkpt>
<trkpt lat="57.435288" lon="9.772414">
<ele>30.565756</ele>
<time>2026-07-16T14:04:29.000Z</time>
</trkpt>
<trkpt lat="57.435335" lon="9.772410">
<ele>30.623234</ele>
<time>2026-07-16T14:04:30.000Z</time>
</trkpt>
<trkpt lat="57.435383" lon="9.772433">
<ele>30.683792</ele>
<time>2026-07-16T14:04:31.000Z</time>
</trkpt>
<trkpt lat="57.435428" lon="9.772475">
<ele>30.745314</ele>
<time>2026-07-16T14:04:32.000Z</time>
</trkpt>
<trkpt lat="57.435467" lon="9.772529">
<ele>30.804734</ele>
<time>2026-07-16T14:04:33.000Z</time>
</trkpt>
<trkpt lat="57.435505" lon="9.772592">
<ele>30.866953</ele>
<time>2026-07-16T14:04:34.000Z</time>
</trkpt>
<trkpt lat="57.435539" lon="9.772661">
<ele>30.928465</ele>
<time>2026-07-16T14:04:35.000Z</time>
</trkpt>
<trkpt lat="57.435575" lon="9.772737">
<ele>30.995035</ele>
<time>2026-07-16T14:04:36.000Z</time>
</trkpt>
<trkpt lat="57.435603" lon="9.772804">
<ele>31.050812</ele>
<time>2026-07-16T14:04:37.000Z</time>
</trkpt>
<trkpt lat="57.435637" lon="9.772883">
<ele>31.117323</ele>
<time>2026-07-16T14:04:38.000Z</time>
</trkpt>
<trkpt lat="57.435676" lon="9.772964">
<ele>31.188784</ele>
<time>2026-07-16T14:04:39.000Z</time>
</trkpt>
<trkpt lat="57.435712" lon="9.773041">
<ele>31.255849</ele>
<time>2026-07-16T14:04:40.000Z</time>
</trkpt>
<trkpt lat="57.435746" lon="9.773119">
<ele>31.318297</ele>
<time>2026-07-16T14:04:41.000Z</time>
</trkpt>
<trkpt lat="57.435784" lon="9.773196">
<ele>31.333235</ele>
<time>2026-07-16T14:04:42.000Z</time>
</trkpt>
<trkpt lat="57.435820" lon="9.773272">
<ele>31.347712</ele>
<time>2026-07-16T14:04:43.000Z</time>
</trkpt>
<trkpt lat="57.435857" lon="9.773351">
<ele>31.362687</ele>
<time>2026-07-16T14:04:44.000Z</time>
</trkpt>
<trkpt lat="57.435894" lon="9.773430">
<ele>31.377661</ele>
<time>2026-07-16T14:04:45.000Z</time>
</trkpt>
<trkpt lat="57.435932" lon="9.773512">
<ele>31.393134</ele>
<time>2026-07-16T14:04:46.000Z</time>
</trkpt>
<trkpt lat="57.435968" lon="9.773591">
<ele>31.407935</ele>
<time>2026-07-16T14:04:47.000Z</time>
</trkpt>
<trkpt lat="57.436005" lon="9.773669">
<ele>31.422802</ele>
<time>2026-07-16T14:04:48.000Z</time>
</trkpt>
<trkpt lat="57.436041" lon="9.773747">
<ele>31.437495</ele>
<time>2026-07-16T14:04:49.000Z</time>
</trkpt>
<trkpt lat="57.436077" lon="9.773823">
<ele>31.451971</ele>
<time>2026-07-16T14:04:50.000Z</time>
</trkpt>
<trkpt lat="57.436112" lon="9.773900">
<ele>31.466383</ele>
<time>2026-07-16T14:04:51.000Z</time>
</trkpt>
<trkpt lat="57.436147" lon="9.773976">
<ele>31.480685</ele>
<time>2026-07-16T14:04:52.000Z</time>
</trkpt>
<trkpt lat="57.436180" lon="9.774046">
<ele>31.493991</ele>
<time>2026-07-16T14:04:53.000Z</time>
</trkpt>
<trkpt lat="57.436214" lon="9.774120">
<ele>31.507904</ele>
<time>2026-07-16T14:04:54.000Z</time>
</trkpt>
<trkpt lat="57.436253" lon="9.774195">
<ele>31.522816</ele>
<time>2026-07-16T14:04:55.000Z</time>
</trkpt>
<trkpt lat="57.436289" lon="9.774264">
<ele>31.536557</ele>
<time>2026-07-16T14:04:56.000Z</time>
</trkpt>
<trkpt lat="57.436320" lon="9.774330">
<ele>31.549082</ele>
<time>2026-07-16T14:04:57.000Z</time>
</trkpt>
<trkpt lat="57.436353" lon="9.774395">
<ele>31.561859</ele>
<time>2026-07-16T14:04:58.000Z</time>
</trkpt>
<trkpt lat="57.436386" lon="9.774461">
<ele>31.574741</ele>
<time>2026-07-16T14:04:59.000Z</time>
</trkpt>
<trkpt lat="57.436421" lon="9.774534">
<ele>31.588720</ele>
<time>2026-07-16T14:05:00.000Z</time>
</trkpt>
<trkpt lat="57.436456" lon="9.774609">
<ele>31.602914</ele>
<time>2026-07-16T14:05:01.000Z</time>
</trkpt>
<trkpt lat="57.436490" lon="9.774682">
<ele>31.616718</ele>
<time>2026-07-16T14:05:02.000Z</time>
</trkpt>
<trkpt lat="57.436525" lon="9.774759">
<ele>31.631129</ele>
<time>2026-07-16T14:05:03.000Z</time>
</trkpt>
<trkpt lat="57.436564" lon="9.774834">
<ele>31.646041</ele>
<time>2026-07-16T14:05:04.000Z</time>
</trkpt>
<trkpt lat="57.436603" lon="9.774910">
<ele>31.661056</ele>
<time>2026-07-16T14:05:05.000Z</time>
</trkpt>
<trkpt lat="57.436642" lon="9.774986">
<ele>31.676071</ele>
<time>2026-07-16T14:05:06.000Z</time>
</trkpt>
<trkpt lat="57.436680" lon="9.775059">
<ele>31.690593</ele>
<time>2026-07-16T14:05:07.000Z</time>
</trkpt>
<trkpt lat="57.436715" lon="9.775131">
<ele>31.704465</ele>
<time>2026-07-16T14:05:08.000Z</time>
</trkpt>
<trkpt lat="57.436748" lon="9.775197">
<ele>31.717347</ele>
<time>2026-07-16T14:05:09.000Z</time>
</trkpt>
<trkpt lat="57.436783" lon="9.775271">
<ele>31.731433</ele>
<time>2026-07-16T14:05:10.000Z</time>
</trkpt>
<trkpt lat="57.436818" lon="9.775350">
<ele>31.746064</ele>
<time>2026-07-16T14:05:11.000Z</time>
</trkpt>
<trkpt lat="57.436855" lon="9.775428">
<ele>31.760931</ele>
<time>2026-07-16T14:05:12.000Z</time>
</trkpt>
<trkpt lat="57.436892" lon="9.775504">
<ele>31.775584</ele>
<time>2026-07-16T14:05:13.000Z</time>
</trkpt>
<trkpt lat="57.436928" lon="9.775584">
<ele>31.790494</ele>
<time>2026-07-16T14:05:14.000Z</time>
</trkpt>
<trkpt lat="57.436966" lon="9.775667">
<ele>31.793033</ele>
<time>2026-07-16T14:05:15.000Z</time>
</trkpt>
<trkpt lat="57.437005" lon="9.775747">
<ele>31.790039</ele>
<time>2026-07-16T14:05:16.000Z</time>
</trkpt>
<trkpt lat="57.437043" lon="9.775824">
<ele>31.787142</ele>
<time>2026-07-16T14:05:17.000Z</time>
</trkpt>
<trkpt lat="57.437081" lon="9.775898">
<ele>31.784305</ele>
<time>2026-07-16T14:05:18.000Z</time>
</trkpt>
<trkpt lat="57.437117" lon="9.775976">
<ele>31.781454</ele>
<time>2026-07-16T14:05:19.000Z</time>
</trkpt>
<trkpt lat="57.437151" lon="9.776049">
<ele>31.778777</ele>
<time>2026-07-16T14:05:20.000Z</time>
</trkpt>
<trkpt lat="57.437188" lon="9.776129">
<ele>31.775851</ele>
<time>2026-07-16T14:05:21.000Z</time>
</trkpt>
<trkpt lat="57.437225" lon="9.776208">
<ele>31.772946</ele>
<time>2026-07-16T14:05:22.000Z</time>
</trkpt>
<trkpt lat="57.437264" lon="9.776287">
<ele>31.769973</ele>
<time>2026-07-16T14:05:23.000Z</time>
</trkpt>
<trkpt lat="57.437302" lon="9.776358">
<ele>31.767195</ele>
<time>2026-07-16T14:05:24.000Z</time>
</trkpt>
<trkpt lat="57.437340" lon="9.776434">
<ele>31.764318</ele>
<time>2026-07-16T14:05:25.000Z</time>
</trkpt>
<trkpt lat="57.437376" lon="9.776510">
<ele>31.761510</ele>
<time>2026-07-16T14:05:26.000Z</time>
</trkpt>
<trkpt lat="57.437413" lon="9.776584">
<ele>31.758708</ele>
<time>2026-07-16T14:05:27.000Z</time>
</trkpt>
<trkpt lat="57.437451" lon="9.776658">
<ele>31.755871</ele>
<time>2026-07-16T14:05:28.000Z</time>
</trkpt>
<trkpt lat="57.437490" lon="9.776733">
<ele>31.752978</ele>
<time>2026-07-16T14:05:29.000Z</time>
</trkpt>
<trkpt lat="57.437525" lon="9.776804">
<ele>31.750308</ele>
<time>2026-07-16T14:05:30.000Z</time>
</trkpt>
<trkpt lat="57.437561" lon="9.776869">
<ele>31.747721</ele>
<time>2026-07-16T14:05:31.000Z</time>
</trkpt>
<trkpt lat="57.437597" lon="9.776938">
<ele>31.745055</ele>
<time>2026-07-16T14:05:32.000Z</time>
</trkpt>
<trkpt lat="57.437631" lon="9.777008">
<ele>31.742440</ele>
<time>2026-07-16T14:05:33.000Z</time>
</trkpt>
<trkpt lat="57.437662" lon="9.777082">
<ele>31.739839</ele>
<time>2026-07-16T14:05:34.000Z</time>
</trkpt>
<trkpt lat="57.437696" lon="9.777165">
<ele>31.736945</ele>
<time>2026-07-16T14:05:35.000Z</time>
</trkpt>
<trkpt lat="57.437731" lon="9.777249">
<ele>31.733999</ele>
<time>2026-07-16T14:05:36.000Z</time>
</trkpt>
<trkpt lat="57.437770" lon="9.777330">
<ele>31.730984</ele>
<time>2026-07-16T14:05:37.000Z</time>
</trkpt>
<trkpt lat="57.437807" lon="9.777410">
<ele>31.728059</ele>
<time>2026-07-16T14:05:38.000Z</time>
</trkpt>
<trkpt lat="57.437844" lon="9.777487">
<ele>31.725195</ele>
<time>2026-07-16T14:05:39.000Z</time>
</trkpt>
<trkpt lat="57.437885" lon="9.777563">
<ele>31.722211</ele>
<time>2026-07-16T14:05:40.000Z</time>
</trkpt>
<trkpt lat="57.437924" lon="9.777642">
<ele>31.719237</ele>
<time>2026-07-16T14:05:41.000Z</time>
</trkpt>
<trkpt lat="57.437965" lon="9.777718">
<ele>31.716252</ele>
<time>2026-07-16T14:05:42.000Z</time>
</trkpt>
<trkpt lat="57.438004" lon="9.777797">
<ele>31.713279</ele>
<time>2026-07-16T14:05:43.000Z</time>
</trkpt>
<trkpt lat="57.438043" lon="9.777878">
<ele>31.710264</ele>
<time>2026-07-16T14:05:44.000Z</time>
</trkpt>
<trkpt lat="57.438078" lon="9.777956">
<ele>31.707448</ele>
<time>2026-07-16T14:05:45.000Z</time>
</trkpt>
<trkpt lat="57.438114" lon="9.778031">
<ele>31.704660</ele>
<time>2026-07-16T14:05:46.000Z</time>
</trkpt>
<trkpt lat="57.438153" lon="9.778111">
<ele>31.704788</ele>
<time>2026-07-16T14:05:47.000Z</time>
</trkpt>
<trkpt lat="57.438194" lon="9.778191">
<ele>31.713823</ele>
<time>2026-07-16T14:05:48.000Z</time>
</trkpt>
<trkpt lat="57.438236" lon="9.778270">
<ele>31.722905</ele>
<time>2026-07-16T14:05:49.000Z</time>
</trkpt>
<trkpt lat="57.438275" lon="9.778351">
<ele>31.731795</ele>
<time>2026-07-16T14:05:50.000Z</time>
</trkpt>
<trkpt lat="57.438313" lon="9.778429">
<ele>31.740400</ele>
<time>2026-07-16T14:05:51.000Z</time>
</trkpt>
<trkpt lat="57.438354" lon="9.778518">
<ele>31.749981</ele>
<time>2026-07-16T14:05:52.000Z</time>
</trkpt>
<trkpt lat="57.438394" lon="9.778600">
<ele>31.759033</ele>
<time>2026-07-16T14:05:53.000Z</time>
</trkpt>
<trkpt lat="57.438434" lon="9.778680">
<ele>31.767964</ele>
<time>2026-07-16T14:05:54.000Z</time>
</trkpt>
<trkpt lat="57.438473" lon="9.778757">
<ele>31.776612</ele>
<time>2026-07-16T14:05:55.000Z</time>
</trkpt>
<trkpt lat="57.438511" lon="9.778831">
<ele>31.784978</ele>
<time>2026-07-16T14:05:56.000Z</time>
</trkpt>
<trkpt lat="57.438547" lon="9.778907">
<ele>31.793258</ele>
<time>2026-07-16T14:05:57.000Z</time>
</trkpt>
<trkpt lat="57.438583" lon="9.778984">
<ele>31.801600</ele>
<time>2026-07-16T14:05:58.000Z</time>
</trkpt>
<trkpt lat="57.438619" lon="9.779063">
<ele>31.810067</ele>
<time>2026-07-16T14:05:59.000Z</time>
</trkpt>
<trkpt lat="57.438657" lon="9.779139">
<ele>31.818551</ele>
<time>2026-07-16T14:06:00.000Z</time>
</trkpt>
<trkpt lat="57.438691" lon="9.779212">
<ele>31.826447</ele>
<time>2026-07-16T14:06:01.000Z</time>
</trkpt>
<trkpt lat="57.438729" lon="9.779290">
<ele>31.835052</ele>
<time>2026-07-16T14:06:02.000Z</time>
</trkpt>
<trkpt lat="57.438766" lon="9.779365">
<ele>31.843373</ele>
<time>2026-07-16T14:06:03.000Z</time>
</trkpt>
<trkpt lat="57.438802" lon="9.779442">
<ele>31.851716</ele>
<time>2026-07-16T14:06:04.000Z</time>
</trkpt>
<trkpt lat="57.438840" lon="9.779521">
<ele>31.860381</ele>
<time>2026-07-16T14:06:05.000Z</time>
</trkpt>
<trkpt lat="57.438878" lon="9.779596">
<ele>31.868806</ele>
<time>2026-07-16T14:06:06.000Z</time>
</trkpt>
<trkpt lat="57.438913" lon="9.779670">
<ele>31.876864</ele>
<time>2026-07-16T14:06:07.000Z</time>
</trkpt>
<trkpt lat="57.438949" lon="9.779743">
<ele>31.884962</ele>
<time>2026-07-16T14:06:08.000Z</time>
</trkpt>
<trkpt lat="57.438987" lon="9.779818">
<ele>31.893386</ele>
<time>2026-07-16T14:06:09.000Z</time>
</trkpt>
<trkpt lat="57.439026" lon="9.779895">
<ele>31.902034</ele>
<time>2026-07-16T14:06:10.000Z</time>
</trkpt>
<trkpt lat="57.439065" lon="9.779972">
<ele>31.910682</ele>
<time>2026-07-16T14:06:11.000Z</time>
</trkpt>
<trkpt lat="57.439100" lon="9.780047">
<ele>31.918801</ele>
<time>2026-07-16T14:06:12.000Z</time>
</trkpt>
<trkpt lat="57.439137" lon="9.780124">
<ele>31.927244</ele>
<time>2026-07-16T14:06:13.000Z</time>
</trkpt>
<trkpt lat="57.439173" lon="9.780198">
<ele>31.935402</ele>
<time>2026-07-16T14:06:14.000Z</time>
</trkpt>
<trkpt lat="57.439210" lon="9.780273">
<ele>31.943724</ele>
<time>2026-07-16T14:06:15.000Z</time>
</trkpt>
<trkpt lat="57.439245" lon="9.780350">
<ele>31.951967</ele>
<time>2026-07-16T14:06:16.000Z</time>
</trkpt>
<trkpt lat="57.439282" lon="9.780429">
<ele>31.960532</ele>
<time>2026-07-16T14:06:17.000Z</time>
</trkpt>
<trkpt lat="57.439320" lon="9.780507">
<ele>31.969137</ele>
<time>2026-07-16T14:06:18.000Z</time>
</trkpt>
<trkpt lat="57.439357" lon="9.780581">
<ele>31.972233</ele>
<time>2026-07-16T14:06:19.000Z</time>
</trkpt>
<trkpt lat="57.439393" lon="9.780660">
<ele>31.953464</ele>
<time>2026-07-16T14:06:20.000Z</time>
</trkpt>
<trkpt lat="57.439431" lon="9.780738">
<ele>31.934388</ele>
<time>2026-07-16T14:06:21.000Z</time>
</trkpt>
<trkpt lat="57.439469" lon="9.780815">
<ele>31.915446</ele>
<time>2026-07-16T14:06:22.000Z</time>
</trkpt>
<trkpt lat="57.439506" lon="9.780893">
<ele>31.896595</ele>
<time>2026-07-16T14:06:23.000Z</time>
</trkpt>
<trkpt lat="57.439542" lon="9.780971">
<ele>31.877964</ele>
<time>2026-07-16T14:06:24.000Z</time>
</trkpt>
<trkpt lat="57.439580" lon="9.781048">
<ele>31.859022</ele>
<time>2026-07-16T14:06:25.000Z</time>
</trkpt>
<trkpt lat="57.439617" lon="9.781125">
<ele>31.840306</ele>
<time>2026-07-16T14:06:26.000Z</time>
</trkpt>
<trkpt lat="57.439656" lon="9.781203">
<ele>31.821003</ele>
<time>2026-07-16T14:06:27.000Z</time>
</trkpt>
<trkpt lat="57.439694" lon="9.781280">
<ele>31.802061</ele>
<time>2026-07-16T14:06:28.000Z</time>
</trkpt>
<trkpt lat="57.439732" lon="9.781356">
<ele>31.783252</ele>
<time>2026-07-16T14:06:29.000Z</time>
</trkpt>
<trkpt lat="57.439767" lon="9.781433">
<ele>31.764978</ele>
<time>2026-07-16T14:06:30.000Z</time>
</trkpt>
<trkpt lat="57.439805" lon="9.781510">
<ele>31.746036</ele>
<time>2026-07-16T14:06:31.000Z</time>
</trkpt>
<trkpt lat="57.439843" lon="9.781584">
<ele>31.727492</ele>
<time>2026-07-16T14:06:32.000Z</time>
</trkpt>
<trkpt lat="57.439881" lon="9.781659">
<ele>31.708816</ele>
<time>2026-07-16T14:06:33.000Z</time>
</trkpt>
<trkpt lat="57.439919" lon="9.781738">
<ele>31.689605</ele>
<time>2026-07-16T14:06:34.000Z</time>
</trkpt>
<trkpt lat="57.439954" lon="9.781816">
<ele>31.671192</ele>
<time>2026-07-16T14:06:35.000Z</time>
</trkpt>
<trkpt lat="57.439988" lon="9.781895">
<ele>31.652852</ele>
<time>2026-07-16T14:06:36.000Z</time>
</trkpt>
<trkpt lat="57.440026" lon="9.781974">
<ele>31.633641</ele>
<time>2026-07-16T14:06:37.000Z</time>
</trkpt>
<trkpt lat="57.440064" lon="9.782052">
<ele>31.614566</ele>
<time>2026-07-16T14:06:38.000Z</time>
</trkpt>
<trkpt lat="57.440102" lon="9.782129">
<ele>31.595624</ele>
<time>2026-07-16T14:06:39.000Z</time>
</trkpt>
<trkpt lat="57.440140" lon="9.782207">
<ele>31.576548</ele>
<time>2026-07-16T14:06:40.000Z</time>
</trkpt>
<trkpt lat="57.440178" lon="9.782286">
<ele>31.557337</ele>
<time>2026-07-16T14:06:41.000Z</time>
</trkpt>
<trkpt lat="57.440213" lon="9.782365">
<ele>31.538785</ele>
<time>2026-07-16T14:06:42.000Z</time>
</trkpt>
<trkpt lat="57.440251" lon="9.782446">
<ele>31.519303</ele>
<time>2026-07-16T14:06:43.000Z</time>
</trkpt>
<trkpt lat="57.440292" lon="9.782523">
<ele>31.499664</ele>
<time>2026-07-16T14:06:44.000Z</time>
</trkpt>
<trkpt lat="57.440331" lon="9.782600">
<ele>31.480493</ele>
<time>2026-07-16T14:06:45.000Z</time>
</trkpt>
<trkpt lat="57.440369" lon="9.782679">
<ele>31.461282</ele>
<time>2026-07-16T14:06:46.000Z</time>
</trkpt>
<trkpt lat="57.440407" lon="9.782759">
<ele>31.441936</ele>
<time>2026-07-16T14:06:47.000Z</time>
</trkpt>
<trkpt lat="57.440445" lon="9.782839">
<ele>31.422590</ele>
<time>2026-07-16T14:06:48.000Z</time>
</trkpt>
<trkpt lat="57.440483" lon="9.782920">
<ele>31.403108</ele>
<time>2026-07-16T14:06:49.000Z</time>
</trkpt>
<trkpt lat="57.440513" lon="9.782984">
<ele>31.387720</ele>
<time>2026-07-16T14:06:50.000Z</time>
</trkpt>
<trkpt lat="57.440551" lon="9.783063">
<ele>31.372390</ele>
<time>2026-07-16T14:06:51.000Z</time>
</trkpt>
<trkpt lat="57.440601" lon="9.783158">
<ele>31.418277</ele>
<time>2026-07-16T14:06:52.000Z</time>
</trkpt>
<trkpt lat="57.440640" lon="9.783236">
<ele>31.455044</ele>
<time>2026-07-16T14:06:53.000Z</time>
</trkpt>
<trkpt lat="57.440678" lon="9.783316">
<ele>31.491893</ele>
<time>2026-07-16T14:06:54.000Z</time>
</trkpt>
<trkpt lat="57.440716" lon="9.783395">
<ele>31.528483</ele>
<time>2026-07-16T14:06:55.000Z</time>
</trkpt>
<trkpt lat="57.440755" lon="9.783473">
<ele>31.565250</ele>
<time>2026-07-16T14:06:56.000Z</time>
</trkpt>
<trkpt lat="57.440793" lon="9.783553">
<ele>31.602099</ele>
<time>2026-07-16T14:06:57.000Z</time>
</trkpt>
<trkpt lat="57.440831" lon="9.783634">
<ele>31.639207</ele>
<time>2026-07-16T14:06:58.000Z</time>
</trkpt>
<trkpt lat="57.440868" lon="9.783713">
<ele>31.675372</ele>
<time>2026-07-16T14:06:59.000Z</time>
</trkpt>
<trkpt lat="57.440910" lon="9.783796">
<ele>31.714715</ele>
<time>2026-07-16T14:07:00.000Z</time>
</trkpt>
<trkpt lat="57.440948" lon="9.783876">
<ele>31.751563</ele>
<time>2026-07-16T14:07:01.000Z</time>
</trkpt>
<trkpt lat="57.440983" lon="9.783954">
<ele>31.786634</ele>
<time>2026-07-16T14:07:02.000Z</time>
</trkpt>
<trkpt lat="57.441020" lon="9.784034">
<ele>31.823061</ele>
<time>2026-07-16T14:07:03.000Z</time>
</trkpt>
<trkpt lat="57.441059" lon="9.784120">
<ele>31.861897</ele>
<time>2026-07-16T14:07:04.000Z</time>
</trkpt>
<trkpt lat="57.441095" lon="9.784202">
<ele>31.898441</ele>
<time>2026-07-16T14:07:05.000Z</time>
</trkpt>
<trkpt lat="57.441132" lon="9.784279">
<ele>31.934089</ele>
<time>2026-07-16T14:07:06.000Z</time>
</trkpt>
<trkpt lat="57.441167" lon="9.784354">
<ele>31.968370</ele>
<time>2026-07-16T14:07:07.000Z</time>
</trkpt>
<trkpt lat="57.441202" lon="9.784429">
<ele>32.002651</ele>
<time>2026-07-16T14:07:08.000Z</time>
</trkpt>
<trkpt lat="57.441239" lon="9.784503">
<ele>32.037532</ele>
<time>2026-07-16T14:07:09.000Z</time>
</trkpt>
<trkpt lat="57.441277" lon="9.784577">
<ele>32.072854</ele>
<time>2026-07-16T14:07:10.000Z</time>
</trkpt>
<trkpt lat="57.441312" lon="9.784653">
<ele>32.107396</ele>
<time>2026-07-16T14:07:11.000Z</time>
</trkpt>
<trkpt lat="57.441349" lon="9.784731">
<ele>32.143302</ele>
<time>2026-07-16T14:07:12.000Z</time>
</trkpt>
<trkpt lat="57.441384" lon="9.784799">
<ele>32.175795</ele>
<time>2026-07-16T14:07:13.000Z</time>
</trkpt>
<trkpt lat="57.441423" lon="9.784878">
<ele>32.212816</ele>
<time>2026-07-16T14:07:14.000Z</time>
</trkpt>
<trkpt lat="57.441463" lon="9.784959">
<ele>32.250779</ele>
<time>2026-07-16T14:07:15.000Z</time>
</trkpt>
<trkpt lat="57.441502" lon="9.785035">
<ele>32.287043</ele>
<time>2026-07-16T14:07:16.000Z</time>
</trkpt>
<trkpt lat="57.441540" lon="9.785113">
<ele>32.323376</ele>
<time>2026-07-16T14:07:17.000Z</time>
</trkpt>
<trkpt lat="57.441578" lon="9.785186">
<ele>32.358448</ele>
<time>2026-07-16T14:07:18.000Z</time>
</trkpt>
<trkpt lat="57.441619" lon="9.785258">
<ele>32.394646</ele>
<time>2026-07-16T14:07:19.000Z</time>
</trkpt>
<trkpt lat="57.441656" lon="9.785331">
<ele>32.429275</ele>
<time>2026-07-16T14:07:20.000Z</time>
</trkpt>
<trkpt lat="57.441693" lon="9.785406">
<ele>32.464410</ele>
<time>2026-07-16T14:07:21.000Z</time>
</trkpt>
<trkpt lat="57.441731" lon="9.785481">
<ele>32.499982</ele>
<time>2026-07-16T14:07:22.000Z</time>
</trkpt>
<trkpt lat="57.441768" lon="9.785554">
<ele>32.535073</ele>
<time>2026-07-16T14:07:23.000Z</time>
</trkpt>
<trkpt lat="57.441806" lon="9.785628">
<ele>32.571933</ele>
<time>2026-07-16T14:07:24.000Z</time>
</trkpt>
<trkpt lat="57.441843" lon="9.785705">
<ele>32.609133</ele>
<time>2026-07-16T14:07:25.000Z</time>
</trkpt>
<trkpt lat="57.441879" lon="9.785777">
<ele>32.644549</ele>
<time>2026-07-16T14:07:26.000Z</time>
</trkpt>
<trkpt lat="57.441915" lon="9.785851">
<ele>32.680497</ele>
<time>2026-07-16T14:07:27.000Z</time>
</trkpt>
<trkpt lat="57.441951" lon="9.785925">
<ele>32.716445</ele>
<time>2026-07-16T14:07:28.000Z</time>
</trkpt>
<trkpt lat="57.441987" lon="9.786001">
<ele>32.752931</ele>
<time>2026-07-16T14:07:29.000Z</time>
</trkpt>
<trkpt lat="57.442022" lon="9.786079">
<ele>32.789529</ele>
<time>2026-07-16T14:07:30.000Z</time>
</trkpt>
<trkpt lat="57.442059" lon="9.786154">
<ele>32.826194</ele>
<time>2026-07-16T14:07:31.000Z</time>
</trkpt>
<trkpt lat="57.442095" lon="9.786227">
<ele>32.861875</ele>
<time>2026-07-16T14:07:32.000Z</time>
</trkpt>
<trkpt lat="57.442130" lon="9.786298">
<ele>32.896573</ele>
<time>2026-07-16T14:07:33.000Z</time>
</trkpt>
<trkpt lat="57.442166" lon="9.786373">
<ele>32.932789</ele>
<time>2026-07-16T14:07:34.000Z</time>
</trkpt>
<trkpt lat="57.442204" lon="9.786442">
<ele>32.968367</ele>
<time>2026-07-16T14:07:35.000Z</time>
</trkpt>
<trkpt lat="57.442242" lon="9.786509">
<ele>33.003444</ele>
<time>2026-07-16T14:07:36.000Z</time>
</trkpt>
<trkpt lat="57.442278" lon="9.786573">
<ele>33.036807</ele>
<time>2026-07-16T14:07:37.000Z</time>
</trkpt>
<trkpt lat="57.442315" lon="9.786639">
<ele>33.071151</ele>
<time>2026-07-16T14:07:38.000Z</time>
</trkpt>
<trkpt lat="57.442350" lon="9.786703">
<ele>33.104033</ele>
<time>2026-07-16T14:07:39.000Z</time>
</trkpt>
<trkpt lat="57.442390" lon="9.786769">
<ele>33.139853</ele>
<time>2026-07-16T14:07:40.000Z</time>
</trkpt>
<trkpt lat="57.442427" lon="9.786838">
<ele>33.174955</ele>
<time>2026-07-16T14:07:41.000Z</time>
</trkpt>
<trkpt lat="57.442464" lon="9.786906">
<ele>33.209802</ele>
<time>2026-07-16T14:07:42.000Z</time>
</trkpt>
<trkpt lat="57.442500" lon="9.786971">
<ele>33.243415</ele>
<time>2026-07-16T14:07:43.000Z</time>
</trkpt>
<trkpt lat="57.442537" lon="9.787035">
<ele>33.277264</ele>
<time>2026-07-16T14:07:44.000Z</time>
</trkpt>
<trkpt lat="57.442580" lon="9.787104">
<ele>33.315308</ele>
<time>2026-07-16T14:07:45.000Z</time>
</trkpt>
<trkpt lat="57.442620" lon="9.787170">
<ele>33.351128</ele>
<time>2026-07-16T14:07:46.000Z</time>
</trkpt>
<trkpt lat="57.442657" lon="9.787231">
<ele>33.384250</ele>
<time>2026-07-16T14:07:47.000Z</time>
</trkpt>
<trkpt lat="57.442696" lon="9.787294">
<ele>33.418854</ele>
<time>2026-07-16T14:07:48.000Z</time>
</trkpt>
<trkpt lat="57.442734" lon="9.787356">
<ele>33.452717</ele>
<time>2026-07-16T14:07:49.000Z</time>
</trkpt>
<trkpt lat="57.442772" lon="9.787415">
<ele>33.485876</ele>
<time>2026-07-16T14:07:50.000Z</time>
</trkpt>
<trkpt lat="57.442812" lon="9.787472">
<ele>33.519630</ele>
<time>2026-07-16T14:07:51.000Z</time>
</trkpt>
<trkpt lat="57.442855" lon="9.787532">
<ele>33.555638</ele>
<time>2026-07-16T14:07:52.000Z</time>
</trkpt>
<trkpt lat="57.442894" lon="9.787589">
<ele>33.588864</ele>
<time>2026-07-16T14:07:53.000Z</time>
</trkpt>
<trkpt lat="57.442932" lon="9.787649">
<ele>33.622255</ele>
<time>2026-07-16T14:07:54.000Z</time>
</trkpt>
<trkpt lat="57.442973" lon="9.787713">
<ele>33.658111</ele>
<time>2026-07-16T14:07:55.000Z</time>
</trkpt>
<trkpt lat="57.443014" lon="9.787770">
<ele>33.692399</ele>
<time>2026-07-16T14:07:56.000Z</time>
</trkpt>
<trkpt lat="57.443057" lon="9.787827">
<ele>33.727768</ele>
<time>2026-07-16T14:07:57.000Z</time>
</trkpt>
<trkpt lat="57.443099" lon="9.787882">
<ele>33.746526</ele>
<time>2026-07-16T14:07:58.000Z</time>
</trkpt>
<trkpt lat="57.443141" lon="9.787939">
<ele>33.765205</ele>
<time>2026-07-16T14:07:59.000Z</time>
</trkpt>
<trkpt lat="57.443186" lon="9.787994">
<ele>33.784549</ele>
<time>2026-07-16T14:08:00.000Z</time>
</trkpt>
<trkpt lat="57.443231" lon="9.788046">
<ele>33.803582</ele>
<time>2026-07-16T14:08:01.000Z</time>
</trkpt>
<trkpt lat="57.443277" lon="9.788100">
<ele>33.823123</ele>
<time>2026-07-16T14:08:02.000Z</time>
</trkpt>
<trkpt lat="57.443322" lon="9.788149">
<ele>33.841856</ele>
<time>2026-07-16T14:08:03.000Z</time>
</trkpt>
<trkpt lat="57.443365" lon="9.788201">
<ele>33.860282</ele>
<time>2026-07-16T14:08:04.000Z</time>
</trkpt>
<trkpt lat="57.443406" lon="9.788254">
<ele>33.878219</ele>
<time>2026-07-16T14:08:05.000Z</time>
</trkpt>
<trkpt lat="57.443452" lon="9.788309">
<ele>33.897865</ele>
<time>2026-07-16T14:08:06.000Z</time>
</trkpt>
<trkpt lat="57.443494" lon="9.788360">
<ele>33.915885</ele>
<time>2026-07-16T14:08:07.000Z</time>
</trkpt>
<trkpt lat="57.443540" lon="9.788412">
<ele>33.935223</ele>
<time>2026-07-16T14:08:08.000Z</time>
</trkpt>
<trkpt lat="57.443581" lon="9.788461">
<ele>33.952730</ele>
<time>2026-07-16T14:08:09.000Z</time>
</trkpt>
<trkpt lat="57.443626" lon="9.788516">
<ele>33.972075</ele>
<time>2026-07-16T14:08:10.000Z</time>
</trkpt>
<trkpt lat="57.443676" lon="9.788575">
<ele>33.993347</ele>
<time>2026-07-16T14:08:11.000Z</time>
</trkpt>
<trkpt lat="57.443723" lon="9.788628">
<ele>34.013093</ele>
<time>2026-07-16T14:08:12.000Z</time>
</trkpt>
<trkpt lat="57.443768" lon="9.788680">
<ele>34.032125</ele>
<time>2026-07-16T14:08:13.000Z</time>
</trkpt>
<trkpt lat="57.443812" lon="9.788732">
<ele>34.050853</ele>
<time>2026-07-16T14:08:14.000Z</time>
</trkpt>
<trkpt lat="57.443862" lon="9.788788">
<ele>34.071820</ele>
<time>2026-07-16T14:08:15.000Z</time>
</trkpt>
<trkpt lat="57.443912" lon="9.788840">
<ele>34.092399</ele>
<time>2026-07-16T14:08:16.000Z</time>
</trkpt>
<trkpt lat="57.443962" lon="9.788893">
<ele>34.113073</ele>
<time>2026-07-16T14:08:17.000Z</time>
</trkpt>
<trkpt lat="57.444008" lon="9.788945">
<ele>34.132410</ele>
<time>2026-07-16T14:08:18.000Z</time>
</trkpt>
<trkpt lat="57.444057" lon="9.789004">
<ele>34.153380</ele>
<time>2026-07-16T14:08:19.000Z</time>
</trkpt>
<trkpt lat="57.444105" lon="9.789067">
<ele>34.174486</ele>
<time>2026-07-16T14:08:20.000Z</time>
</trkpt>
<trkpt lat="57.444147" lon="9.789128">
<ele>34.193631</ele>
<time>2026-07-16T14:08:21.000Z</time>
</trkpt>
<trkpt lat="57.444192" lon="9.789185">
<ele>34.213191</ele>
<time>2026-07-16T14:08:22.000Z</time>
</trkpt>
<trkpt lat="57.444235" lon="9.789240">
<ele>34.231939</ele>
<time>2026-07-16T14:08:23.000Z</time>
</trkpt>
<trkpt lat="57.444279" lon="9.789298">
<ele>34.251314</ele>
<time>2026-07-16T14:08:24.000Z</time>
</trkpt>
<trkpt lat="57.444328" lon="9.789353">
<ele>34.271874</ele>
<time>2026-07-16T14:08:25.000Z</time>
</trkpt>
<trkpt lat="57.444375" lon="9.789409">
<ele>34.291926</ele>
<time>2026-07-16T14:08:26.000Z</time>
</trkpt>
<trkpt lat="57.444421" lon="9.789464">
<ele>34.311571</ele>
<time>2026-07-16T14:08:27.000Z</time>
</trkpt>
<trkpt lat="57.444468" lon="9.789516">
<ele>34.331217</ele>
<time>2026-07-16T14:08:28.000Z</time>
</trkpt>
<trkpt lat="57.444516" lon="9.789567">
<ele>34.351075</ele>
<time>2026-07-16T14:08:29.000Z</time>
</trkpt>
<trkpt lat="57.444565" lon="9.789615">
<ele>34.370970</ele>
<time>2026-07-16T14:08:30.000Z</time>
</trkpt>
<trkpt lat="57.444612" lon="9.789668">
<ele>34.401655</ele>
<time>2026-07-16T14:08:31.000Z</time>
</trkpt>
<trkpt lat="57.444657" lon="9.789722">
<ele>34.433809</ele>
<time>2026-07-16T14:08:32.000Z</time>
</trkpt>
<trkpt lat="57.444699" lon="9.789774">
<ele>34.464103</ele>
<time>2026-07-16T14:08:33.000Z</time>
</trkpt>
<trkpt lat="57.444746" lon="9.789824">
<ele>34.496611</ele>
<time>2026-07-16T14:08:34.000Z</time>
</trkpt>
<trkpt lat="57.444794" lon="9.789875">
<ele>34.529801</ele>
<time>2026-07-16T14:08:35.000Z</time>
</trkpt>
<trkpt lat="57.444840" lon="9.789931">
<ele>34.562811</ele>
<time>2026-07-16T14:08:36.000Z</time>
</trkpt>
<trkpt lat="57.444883" lon="9.789990">
<ele>34.594895</ele>
<time>2026-07-16T14:08:37.000Z</time>
</trkpt>
<trkpt lat="57.444923" lon="9.790058">
<ele>34.627437</ele>
<time>2026-07-16T14:08:38.000Z</time>
</trkpt>
<trkpt lat="57.444965" lon="9.790131">
<ele>34.661956</ele>
<time>2026-07-16T14:08:39.000Z</time>
</trkpt>
<trkpt lat="57.445012" lon="9.790200">
<ele>34.697910</ele>
<time>2026-07-16T14:08:40.000Z</time>
</trkpt>
<trkpt lat="57.445054" lon="9.790264">
<ele>34.730513</ele>
<time>2026-07-16T14:08:41.000Z</time>
</trkpt>
<trkpt lat="57.445102" lon="9.790332">
<ele>34.766743</ele>
<time>2026-07-16T14:08:42.000Z</time>
</trkpt>
<trkpt lat="57.445150" lon="9.790396">
<ele>34.802205</ele>
<time>2026-07-16T14:08:43.000Z</time>
</trkpt>
<trkpt lat="57.445201" lon="9.790461">
<ele>34.839326</ele>
<time>2026-07-16T14:08:44.000Z</time>
</trkpt>
<trkpt lat="57.445251" lon="9.790525">
<ele>34.875770</ele>
<time>2026-07-16T14:08:45.000Z</time>
</trkpt>
<trkpt lat="57.445298" lon="9.790589">
<ele>34.910745</ele>
<time>2026-07-16T14:08:46.000Z</time>
</trkpt>
<trkpt lat="57.445347" lon="9.790652">
<ele>34.946512</ele>
<time>2026-07-16T14:08:47.000Z</time>
</trkpt>
<trkpt lat="57.445397" lon="9.790715">
<ele>34.982773</ele>
<time>2026-07-16T14:08:48.000Z</time>
</trkpt>
<trkpt lat="57.445448" lon="9.790781">
<ele>35.020078</ele>
<time>2026-07-16T14:08:49.000Z</time>
</trkpt>
<trkpt lat="57.445499" lon="9.790842">
<ele>35.056484</ele>
<time>2026-07-16T14:08:50.000Z</time>
</trkpt>
<trkpt lat="57.445553" lon="9.790906">
<ele>35.094929</ele>
<time>2026-07-16T14:08:51.000Z</time>
</trkpt>
<trkpt lat="57.445605" lon="9.790965">
<ele>35.131501</ele>
<time>2026-07-16T14:08:52.000Z</time>
</trkpt>
<trkpt lat="57.445653" lon="9.791020">
<ele>35.165350</ele>
<time>2026-07-16T14:08:53.000Z</time>
</trkpt>
<trkpt lat="57.445702" lon="9.791077">
<ele>35.200050</ele>
<time>2026-07-16T14:08:54.000Z</time>
</trkpt>
<trkpt lat="57.445752" lon="9.791133">
<ele>35.235093</ele>
<time>2026-07-16T14:08:55.000Z</time>
</trkpt>
<trkpt lat="57.445813" lon="9.791204">
<ele>35.278298</ele>
<time>2026-07-16T14:08:56.000Z</time>
</trkpt>
<trkpt lat="57.445872" lon="9.791277">
<ele>35.320845</ele>
<time>2026-07-16T14:08:57.000Z</time>
</trkpt>
<trkpt lat="57.445923" lon="9.791346">
<ele>35.358711</ele>
<time>2026-07-16T14:08:58.000Z</time>
</trkpt>
<trkpt lat="57.445977" lon="9.791413">
<ele>35.397686</ele>
<time>2026-07-16T14:08:59.000Z</time>
</trkpt>
<trkpt lat="57.446031" lon="9.791475">
<ele>35.435788</ele>
<time>2026-07-16T14:09:00.000Z</time>
</trkpt>
<trkpt lat="57.446084" lon="9.791538">
<ele>35.445814</ele>
<time>2026-07-16T14:09:01.000Z</time>
</trkpt>
<trkpt lat="57.446137" lon="9.791602">
<ele>35.429707</ele>
<time>2026-07-16T14:09:02.000Z</time>
</trkpt>
<trkpt lat="57.446191" lon="9.791665">
<ele>35.413458</ele>
<time>2026-07-16T14:09:03.000Z</time>
</trkpt>
<trkpt lat="57.446244" lon="9.791725">
<ele>35.397643</ele>
<time>2026-07-16T14:09:04.000Z</time>
</trkpt>
<trkpt lat="57.446300" lon="9.791787">
<ele>35.381031</ele>
<time>2026-07-16T14:09:05.000Z</time>
</trkpt>
<trkpt lat="57.446357" lon="9.791850">
<ele>35.364130</ele>
<time>2026-07-16T14:09:06.000Z</time>
</trkpt>
<trkpt lat="57.446412" lon="9.791920">
<ele>35.347142</ele>
<time>2026-07-16T14:09:07.000Z</time>
</trkpt>
<trkpt lat="57.446463" lon="9.791987">
<ele>35.331225</ele>
<time>2026-07-16T14:09:08.000Z</time>
</trkpt>
<trkpt lat="57.446518" lon="9.792051">
<ele>35.314688</ele>
<time>2026-07-16T14:09:09.000Z</time>
</trkpt>
<trkpt lat="57.446572" lon="9.792116">
<ele>35.298292</ele>
<time>2026-07-16T14:09:10.000Z</time>
</trkpt>
<trkpt lat="57.446626" lon="9.792181">
<ele>35.281896</ele>
<time>2026-07-16T14:09:11.000Z</time>
</trkpt>
<trkpt lat="57.446679" lon="9.792243">
<ele>35.265936</ele>
<time>2026-07-16T14:09:12.000Z</time>
</trkpt>
<trkpt lat="57.446732" lon="9.792306">
<ele>35.249903</ele>
<time>2026-07-16T14:09:13.000Z</time>
</trkpt>
<trkpt lat="57.446786" lon="9.792371">
<ele>35.233507</ele>
<time>2026-07-16T14:09:14.000Z</time>
</trkpt>
<trkpt lat="57.446837" lon="9.792438">
<ele>35.217590</ele>
<time>2026-07-16T14:09:15.000Z</time>
</trkpt>
<trkpt lat="57.446889" lon="9.792504">
<ele>35.201543</ele>
<time>2026-07-16T14:09:16.000Z</time>
</trkpt>
<trkpt lat="57.446942" lon="9.792568">
<ele>35.185435</ele>
<time>2026-07-16T14:09:17.000Z</time>
</trkpt>
<trkpt lat="57.446996" lon="9.792633">
<ele>35.169039</ele>
<time>2026-07-16T14:09:18.000Z</time>
</trkpt>
<trkpt lat="57.447049" lon="9.792696">
<ele>35.153006</ele>
<time>2026-07-16T14:09:19.000Z</time>
</trkpt>
<trkpt lat="57.447102" lon="9.792759">
<ele>35.136973</ele>
<time>2026-07-16T14:09:20.000Z</time>
</trkpt>
<trkpt lat="57.447153" lon="9.792822">
<ele>35.121366</ele>
<time>2026-07-16T14:09:21.000Z</time>
</trkpt>
<trkpt lat="57.447206" lon="9.792885">
<ele>35.105333</ele>
<time>2026-07-16T14:09:22.000Z</time>
</trkpt>
<trkpt lat="57.447259" lon="9.792949">
<ele>35.089226</ele>
<time>2026-07-16T14:09:23.000Z</time>
</trkpt>
<trkpt lat="57.447309" lon="9.793012">
<ele>35.073831</ele>
<time>2026-07-16T14:09:24.000Z</time>
</trkpt>
<trkpt lat="57.447362" lon="9.793076">
<ele>35.057724</ele>
<time>2026-07-16T14:09:25.000Z</time>
</trkpt>
<trkpt lat="57.447410" lon="9.793141">
<ele>35.042588</ele>
<time>2026-07-16T14:09:26.000Z</time>
</trkpt>
<trkpt lat="57.447458" lon="9.793201">
<ele>35.027846</ele>
<time>2026-07-16T14:09:27.000Z</time>
</trkpt>
<trkpt lat="57.447505" lon="9.793256">
<ele>35.013692</ele>
<time>2026-07-16T14:09:28.000Z</time>
</trkpt>
<trkpt lat="57.447551" lon="9.793306">
<ele>35.000111</ele>
<time>2026-07-16T14:09:29.000Z</time>
</trkpt>
<trkpt lat="57.447599" lon="9.793356">
<ele>34.954925</ele>
<time>2026-07-16T14:09:30.000Z</time>
</trkpt>
<trkpt lat="57.447652" lon="9.793407">
<ele>34.890437</ele>
<time>2026-07-16T14:09:31.000Z</time>
</trkpt>
<trkpt lat="57.447705" lon="9.793454">
<ele>34.826984</ele>
<time>2026-07-16T14:09:32.000Z</time>
</trkpt>
<trkpt lat="57.447762" lon="9.793501">
<ele>34.759605</ele>
<time>2026-07-16T14:09:33.000Z</time>
</trkpt>
<trkpt lat="57.447816" lon="9.793548">
<ele>34.695175</ele>
<time>2026-07-16T14:09:34.000Z</time>
</trkpt>
<trkpt lat="57.447872" lon="9.793597">
<ele>34.628296</ele>
<time>2026-07-16T14:09:35.000Z</time>
</trkpt>
<trkpt lat="57.447932" lon="9.793647">
<ele>34.557246</ele>
<time>2026-07-16T14:09:36.000Z</time>
</trkpt>
<trkpt lat="57.447988" lon="9.793696">
<ele>34.490366</ele>
<time>2026-07-16T14:09:37.000Z</time>
</trkpt>
<trkpt lat="57.448044" lon="9.793749">
<ele>34.422463</ele>
<time>2026-07-16T14:09:38.000Z</time>
</trkpt>
<trkpt lat="57.448097" lon="9.793801">
<ele>34.357705</ele>
<time>2026-07-16T14:09:39.000Z</time>
</trkpt>
<trkpt lat="57.448154" lon="9.793853">
<ele>34.289096</ele>
<time>2026-07-16T14:09:40.000Z</time>
</trkpt>
<trkpt lat="57.448212" lon="9.793902">
<ele>34.220255</ele>
<time>2026-07-16T14:09:41.000Z</time>
</trkpt>
<trkpt lat="57.448275" lon="9.793949">
<ele>34.146902</ele>
<time>2026-07-16T14:09:42.000Z</time>
</trkpt>
<trkpt lat="57.448337" lon="9.793995">
<ele>34.074769</ele>
<time>2026-07-16T14:09:43.000Z</time>
</trkpt>
<trkpt lat="57.448398" lon="9.794037">
<ele>34.004480</ele>
<time>2026-07-16T14:09:44.000Z</time>
</trkpt>
<trkpt lat="57.448461" lon="9.794078">
<ele>33.932355</ele>
<time>2026-07-16T14:09:45.000Z</time>
</trkpt>
<trkpt lat="57.448526" lon="9.794118">
<ele>33.858371</ele>
<time>2026-07-16T14:09:46.000Z</time>
</trkpt>
<trkpt lat="57.448588" lon="9.794155">
<ele>33.788010</ele>
<time>2026-07-16T14:09:47.000Z</time>
</trkpt>
<trkpt lat="57.448649" lon="9.794194">
<ele>33.718307</ele>
<time>2026-07-16T14:09:48.000Z</time>
</trkpt>
<trkpt lat="57.448709" lon="9.794232">
<ele>33.649816</ele>
<time>2026-07-16T14:09:49.000Z</time>
</trkpt>
<trkpt lat="57.448771" lon="9.794270">
<ele>33.579275</ele>
<time>2026-07-16T14:09:50.000Z</time>
</trkpt>
<trkpt lat="57.448830" lon="9.794307">
<ele>33.511993</ele>
<time>2026-07-16T14:09:51.000Z</time>
</trkpt>
<trkpt lat="57.448884" lon="9.794344">
<ele>33.449806</ele>
<time>2026-07-16T14:09:52.000Z</time>
</trkpt>
<trkpt lat="57.448926" lon="9.794387">
<ele>33.397994</ele>
<time>2026-07-16T14:09:53.000Z</time>
</trkpt>
<trkpt lat="57.448961" lon="9.794435">
<ele>33.350995</ele>
<time>2026-07-16T14:09:54.000Z</time>
</trkpt>
<trkpt lat="57.448996" lon="9.794486">
<ele>33.302939</ele>
<time>2026-07-16T14:09:55.000Z</time>
</trkpt>
<trkpt lat="57.449033" lon="9.794533">
<ele>33.254514</ele>
<time>2026-07-16T14:09:56.000Z</time>
</trkpt>
<trkpt lat="57.449080" lon="9.794573">
<ele>33.198659</ele>
<time>2026-07-16T14:09:57.000Z</time>
</trkpt>
<trkpt lat="57.449126" lon="9.794605">
<ele>33.145587</ele>
<time>2026-07-16T14:09:58.000Z</time>
</trkpt>
<trkpt lat="57.449175" lon="9.794629">
<ele>33.090834</ele>
<time>2026-07-16T14:09:59.000Z</time>
</trkpt>
<trkpt lat="57.449222" lon="9.794649">
<ele>33.043245</ele>
<time>2026-07-16T14:10:00.000Z</time>
</trkpt>
<trkpt lat="57.449268" lon="9.794676">
<ele>33.008529</ele>
<time>2026-07-16T14:10:01.000Z</time>
</trkpt>
<trkpt lat="57.449319" lon="9.794705">
<ele>32.970146</ele>
<time>2026-07-16T14:10:02.000Z</time>
</trkpt>
<trkpt lat="57.449370" lon="9.794737">
<ele>32.931407</ele>
<time>2026-07-16T14:10:03.000Z</time>
</trkpt>
<trkpt lat="57.449417" lon="9.794766">
<ele>32.895767</ele>
<time>2026-07-16T14:10:04.000Z</time>
</trkpt>
<trkpt lat="57.449462" lon="9.794791">
<ele>32.861965</ele>
<time>2026-07-16T14:10:05.000Z</time>
</trkpt>
<trkpt lat="57.449508" lon="9.794815">
<ele>32.827580</ele>
<time>2026-07-16T14:10:06.000Z</time>
</trkpt>
<trkpt lat="57.449556" lon="9.794843">
<ele>32.791374</ele>
<time>2026-07-16T14:10:07.000Z</time>
</trkpt>
<trkpt lat="57.449603" lon="9.794878">
<ele>32.754935</ele>
<time>2026-07-16T14:10:08.000Z</time>
</trkpt>
<trkpt lat="57.449643" lon="9.794913">
<ele>32.723118</ele>
<time>2026-07-16T14:10:09.000Z</time>
</trkpt>
<trkpt lat="57.449681" lon="9.794935">
<ele>32.694474</ele>
<time>2026-07-16T14:10:10.000Z</time>
</trkpt>
<trkpt lat="57.449711" lon="9.794951">
<ele>32.672012</ele>
<time>2026-07-16T14:10:11.000Z</time>
</trkpt>
<trkpt lat="57.449732" lon="9.794961">
<ele>32.656411</ele>
<time>2026-07-16T14:10:12.000Z</time>
</trkpt>
<trkpt lat="57.449746" lon="9.794957">
<ele>32.646217</ele>
<time>2026-07-16T14:10:13.000Z</time>
</trkpt>
<trkpt lat="57.449752" lon="9.794950">
<ele>32.641118</ele>
<time>2026-07-16T14:10:14.000Z</time>
</trkpt>
<trkpt lat="57.449929" lon="9.795014">
<ele>32.511347</ele>
<time>2026-07-16T14:13:54.000Z</time>
</trkpt>
<trkpt lat="57.449976" lon="9.795038">
<ele>32.476269</ele>
<time>2026-07-16T14:13:55.000Z</time>
</trkpt>
<trkpt lat="57.450026" lon="9.795062">
<ele>32.439104</ele>
<time>2026-07-16T14:13:56.000Z</time>
</trkpt>
<trkpt lat="57.450075" lon="9.795083">
<ele>32.402915</ele>
<time>2026-07-16T14:13:57.000Z</time>
</trkpt>
<trkpt lat="57.450125" lon="9.795104">
<ele>32.366023</ele>
<time>2026-07-16T14:13:58.000Z</time>
</trkpt>
<trkpt lat="57.450175" lon="9.795127">
<ele>32.328954</ele>
<time>2026-07-16T14:13:59.000Z</time>
</trkpt>
<trkpt lat="57.450226" lon="9.795148">
<ele>32.291360</ele>
<time>2026-07-16T14:14:00.000Z</time>
</trkpt>
<trkpt lat="57.450280" lon="9.795167">
<ele>32.251807</ele>
<time>2026-07-16T14:14:01.000Z</time>
</trkpt>
<trkpt lat="57.450331" lon="9.795188">
<ele>32.214214</ele>
<time>2026-07-16T14:14:02.000Z</time>
</trkpt>
<trkpt lat="57.450383" lon="9.795213">
<ele>32.175559</ele>
<time>2026-07-16T14:14:03.000Z</time>
</trkpt>
<trkpt lat="57.450436" lon="9.795238">
<ele>32.136207</ele>
<time>2026-07-16T14:14:04.000Z</time>
</trkpt>
<trkpt lat="57.450493" lon="9.795262">
<ele>32.094145</ele>
<time>2026-07-16T14:14:05.000Z</time>
</trkpt>
<trkpt lat="57.450547" lon="9.795287">
<ele>32.054095</ele>
<time>2026-07-16T14:14:06.000Z</time>
</trkpt>
<trkpt lat="57.450603" lon="9.795314">
<ele>32.012459</ele>
<time>2026-07-16T14:14:07.000Z</time>
</trkpt>
<trkpt lat="57.450660" lon="9.795344">
<ele>31.969825</ele>
<time>2026-07-16T14:14:08.000Z</time>
</trkpt>
<trkpt lat="57.450717" lon="9.795376">
<ele>31.926973</ele>
<time>2026-07-16T14:14:09.000Z</time>
</trkpt>
<trkpt lat="57.450778" lon="9.795408">
<ele>31.881357</ele>
<time>2026-07-16T14:14:10.000Z</time>
</trkpt>
<trkpt lat="57.450839" lon="9.795435">
<ele>31.836229</ele>
<time>2026-07-16T14:14:11.000Z</time>
</trkpt>
<trkpt lat="57.450903" lon="9.795463">
<ele>31.788911</ele>
<time>2026-07-16T14:14:12.000Z</time>
</trkpt>
<trkpt lat="57.450965" lon="9.795492">
<ele>31.728829</ele>
<time>2026-07-16T14:14:13.000Z</time>
</trkpt>
<trkpt lat="57.451028" lon="9.795526">
<ele>31.637018</ele>
<time>2026-07-16T14:14:14.000Z</time>
</trkpt>
<trkpt lat="57.451099" lon="9.795561">
<ele>31.534217</ele>
<time>2026-07-16T14:14:15.000Z</time>
</trkpt>
<trkpt lat="57.451166" lon="9.795597">
<ele>31.436610</ele>
<time>2026-07-16T14:14:16.000Z</time>
</trkpt>
<trkpt lat="57.451234" lon="9.795635">
<ele>31.337235</ele>
<time>2026-07-16T14:14:17.000Z</time>
</trkpt>
<trkpt lat="57.451302" lon="9.795674">
<ele>31.237641</ele>
<time>2026-07-16T14:14:18.000Z</time>
</trkpt>
<trkpt lat="57.451368" lon="9.795714">
<ele>31.140486</ele>
<time>2026-07-16T14:14:19.000Z</time>
</trkpt>
<trkpt lat="57.451441" lon="9.795753">
<ele>31.034185</ele>
<time>2026-07-16T14:14:20.000Z</time>
</trkpt>
<trkpt lat="57.451512" lon="9.795787">
<ele>30.931575</ele>
<time>2026-07-16T14:14:21.000Z</time>
</trkpt>
<trkpt lat="57.451583" lon="9.795818">
<ele>30.829505</ele>
<time>2026-07-16T14:14:22.000Z</time>
</trkpt>
<trkpt lat="57.451653" lon="9.795851">
<ele>30.728437</ele>
<time>2026-07-16T14:14:23.000Z</time>
</trkpt>
<trkpt lat="57.451724" lon="9.795889">
<ele>30.625034</ele>
<time>2026-07-16T14:14:24.000Z</time>
</trkpt>
<trkpt lat="57.451797" lon="9.795929">
<ele>30.518522</ele>
<time>2026-07-16T14:14:25.000Z</time>
</trkpt>
<trkpt lat="57.451872" lon="9.795970">
<ele>30.409113</ele>
<time>2026-07-16T14:14:26.000Z</time>
</trkpt>
<trkpt lat="57.451943" lon="9.796009">
<ele>30.305500</ele>
<time>2026-07-16T14:14:27.000Z</time>
</trkpt>
<trkpt lat="57.452017" lon="9.796049">
<ele>30.197645</ele>
<time>2026-07-16T14:14:28.000Z</time>
</trkpt>
<trkpt lat="57.452091" lon="9.796088">
<ele>30.089998</ele>
<time>2026-07-16T14:14:29.000Z</time>
</trkpt>
<trkpt lat="57.452166" lon="9.796125">
<ele>29.981401</ele>
<time>2026-07-16T14:14:30.000Z</time>
</trkpt>
<trkpt lat="57.452245" lon="9.796161">
<ele>29.867565</ele>
<time>2026-07-16T14:14:31.000Z</time>
</trkpt>
<trkpt lat="57.452320" lon="9.796195">
<ele>29.759525</ele>
<time>2026-07-16T14:14:32.000Z</time>
</trkpt>
<trkpt lat="57.452398" lon="9.796229">
<ele>29.647401</ele>
<time>2026-07-16T14:14:33.000Z</time>
</trkpt>
<trkpt lat="57.452472" lon="9.796266">
<ele>29.540155</ele>
<time>2026-07-16T14:14:34.000Z</time>
</trkpt>
<trkpt lat="57.452547" lon="9.796303">
<ele>29.431558</ele>
<time>2026-07-16T14:14:35.000Z</time>
</trkpt>
<trkpt lat="57.452621" lon="9.796340">
<ele>29.324312</ele>
<time>2026-07-16T14:14:36.000Z</time>
</trkpt>
<trkpt lat="57.452694" lon="9.796372">
<ele>29.217418</ele>
<time>2026-07-16T14:14:37.000Z</time>
</trkpt>
<trkpt lat="57.452763" lon="9.796403">
<ele>29.109053</ele>
<time>2026-07-16T14:14:38.000Z</time>
</trkpt>
<trkpt lat="57.452829" lon="9.796433">
<ele>29.005331</ele>
<time>2026-07-16T14:14:39.000Z</time>
</trkpt>
<trkpt lat="57.452899" lon="9.796465">
<ele>28.895288</ele>
<time>2026-07-16T14:14:40.000Z</time>
</trkpt>
<trkpt lat="57.452972" lon="9.796494">
<ele>28.781332</ele>
<time>2026-07-16T14:14:41.000Z</time>
</trkpt>
<trkpt lat="57.453042" lon="9.796524">
<ele>28.671669</ele>
<time>2026-07-16T14:14:42.000Z</time>
</trkpt>
<trkpt lat="57.453116" lon="9.796553">
<ele>28.556221</ele>
<time>2026-07-16T14:14:43.000Z</time>
</trkpt>
<trkpt lat="57.453186" lon="9.796585">
<ele>28.446177</ele>
<time>2026-07-16T14:14:44.000Z</time>
</trkpt>
<trkpt lat="57.453261" lon="9.796619">
<ele>28.328330</ele>
<time>2026-07-16T14:14:45.000Z</time>
</trkpt>
<trkpt lat="57.453335" lon="9.796652">
<ele>28.212159</ele>
<time>2026-07-16T14:14:46.000Z</time>
</trkpt>
<trkpt lat="57.453409" lon="9.796680">
<ele>28.096877</ele>
<time>2026-07-16T14:14:47.000Z</time>
</trkpt>
<trkpt lat="57.453483" lon="9.796706">
<ele>27.981911</ele>
<time>2026-07-16T14:14:48.000Z</time>
</trkpt>
<trkpt lat="57.453560" lon="9.796731">
<ele>27.862586</ele>
<time>2026-07-16T14:14:49.000Z</time>
</trkpt>
<trkpt lat="57.453638" lon="9.796758">
<ele>27.741468</ele>
<time>2026-07-16T14:14:50.000Z</time>
</trkpt>
<trkpt lat="57.453715" lon="9.796785">
<ele>27.621849</ele>
<time>2026-07-16T14:14:51.000Z</time>
</trkpt>
<trkpt lat="57.453788" lon="9.796810">
<ele>27.508535</ele>
<time>2026-07-16T14:14:52.000Z</time>
</trkpt>
<trkpt lat="57.453861" lon="9.796832">
<ele>27.395641</ele>
<time>2026-07-16T14:14:53.000Z</time>
</trkpt>
<trkpt lat="57.453933" lon="9.796851">
<ele>27.284627</ele>
<time>2026-07-16T14:14:54.000Z</time>
</trkpt>
<trkpt lat="57.454006" lon="9.796870">
<ele>27.172101</ele>
<time>2026-07-16T14:14:55.000Z</time>
</trkpt>
<trkpt lat="57.454081" lon="9.796888">
<ele>27.056659</ele>
<time>2026-07-16T14:14:56.000Z</time>
</trkpt>
<trkpt lat="57.454158" lon="9.796906">
<ele>26.938188</ele>
<time>2026-07-16T14:14:57.000Z</time>
</trkpt>
<trkpt lat="57.454234" lon="9.796927">
<ele>26.820895</ele>
<time>2026-07-16T14:14:58.000Z</time>
</trkpt>
<trkpt lat="57.454307" lon="9.796948">
<ele>26.708129</ele>
<time>2026-07-16T14:14:59.000Z</time>
</trkpt>
<trkpt lat="57.454385" lon="9.796968">
<ele>26.587930</ele>
<time>2026-07-16T14:15:00.000Z</time>
</trkpt>
<trkpt lat="57.454463" lon="9.796987">
<ele>26.470027</ele>
<time>2026-07-16T14:15:01.000Z</time>
</trkpt>
<trkpt lat="57.454542" lon="9.797005">
<ele>26.358367</ele>
<time>2026-07-16T14:15:02.000Z</time>
</trkpt>
<trkpt lat="57.454616" lon="9.797020">
<ele>26.253935</ele>
<time>2026-07-16T14:15:03.000Z</time>
</trkpt>
<trkpt lat="57.454697" lon="9.797034">
<ele>26.139808</ele>
<time>2026-07-16T14:15:04.000Z</time>
</trkpt>
<trkpt lat="57.454775" lon="9.797051">
<ele>26.029631</ele>
<time>2026-07-16T14:15:05.000Z</time>
</trkpt>
<trkpt lat="57.454854" lon="9.797066">
<ele>25.918224</ele>
<time>2026-07-16T14:15:06.000Z</time>
</trkpt>
<trkpt lat="57.454934" lon="9.797079">
<ele>25.805562</ele>
<time>2026-07-16T14:15:07.000Z</time>
</trkpt>
<trkpt lat="57.455015" lon="9.797091">
<ele>25.691565</ele>
<time>2026-07-16T14:15:08.000Z</time>
</trkpt>
<trkpt lat="57.455091" lon="9.797102">
<ele>25.584620</ele>
<time>2026-07-16T14:15:09.000Z</time>
</trkpt>
<trkpt lat="57.455171" lon="9.797113">
<ele>25.472080</ele>
<time>2026-07-16T14:15:10.000Z</time>
</trkpt>
<trkpt lat="57.455249" lon="9.797121">
<ele>25.362486</ele>
<time>2026-07-16T14:15:11.000Z</time>
</trkpt>
<trkpt lat="57.455327" lon="9.797128">
<ele>25.252930</ele>
<time>2026-07-16T14:15:12.000Z</time>
</trkpt>
<trkpt lat="57.455405" lon="9.797132">
<ele>25.143461</ele>
<time>2026-07-16T14:15:13.000Z</time>
</trkpt>
<trkpt lat="57.455483" lon="9.797135">
<ele>25.034010</ele>
<time>2026-07-16T14:15:14.000Z</time>
</trkpt>
<trkpt lat="57.455564" lon="9.797136">
<ele>24.920371</ele>
<time>2026-07-16T14:15:15.000Z</time>
</trkpt>
<trkpt lat="57.455644" lon="9.797136">
<ele>24.808137</ele>
<time>2026-07-16T14:15:16.000Z</time>
</trkpt>
<trkpt lat="57.455722" lon="9.797137">
<ele>24.698706</ele>
<time>2026-07-16T14:15:17.000Z</time>
</trkpt>
<trkpt lat="57.455801" lon="9.797141">
<ele>24.587835</ele>
<time>2026-07-16T14:15:18.000Z</time>
</trkpt>
<trkpt lat="57.455883" lon="9.797145">
<ele>24.472755</ele>
<time>2026-07-16T14:15:19.000Z</time>
</trkpt>
<trkpt lat="57.455966" lon="9.797150">
<ele>24.356252</ele>
<time>2026-07-16T14:15:20.000Z</time>
</trkpt>
<trkpt lat="57.456045" lon="9.797156">
<ele>24.245329</ele>
<time>2026-07-16T14:15:21.000Z</time>
</trkpt>
<trkpt lat="57.456128" lon="9.797161">
<ele>24.128825</ele>
<time>2026-07-16T14:15:22.000Z</time>
</trkpt>
<trkpt lat="57.456209" lon="9.797164">
<ele>24.015166</ele>
<time>2026-07-16T14:15:23.000Z</time>
</trkpt>
<trkpt lat="57.456291" lon="9.797165">
<ele>23.939161</ele>
<time>2026-07-16T14:15:24.000Z</time>
</trkpt>
<trkpt lat="57.456375" lon="9.797164">
<ele>23.885783</ele>
<time>2026-07-16T14:15:25.000Z</time>
</trkpt>
<trkpt lat="57.456459" lon="9.797161">
<ele>23.832397</ele>
<time>2026-07-16T14:15:26.000Z</time>
</trkpt>
<trkpt lat="57.456543" lon="9.797157">
<ele>23.779003</ele>
<time>2026-07-16T14:15:27.000Z</time>
</trkpt>
<trkpt lat="57.456625" lon="9.797156">
<ele>23.726896</ele>
<time>2026-07-16T14:15:28.000Z</time>
</trkpt>
<trkpt lat="57.456708" lon="9.797154">
<ele>23.674151</ele>
<time>2026-07-16T14:15:29.000Z</time>
</trkpt>
<trkpt lat="57.456794" lon="9.797153">
<ele>23.619502</ele>
<time>2026-07-16T14:15:30.000Z</time>
</trkpt>
<trkpt lat="57.456878" lon="9.797153">
<ele>23.566126</ele>
<time>2026-07-16T14:15:31.000Z</time>
</trkpt>
<trkpt lat="57.456960" lon="9.797155">
<ele>23.514016</ele>
<time>2026-07-16T14:15:32.000Z</time>
</trkpt>
<trkpt lat="57.457040" lon="9.797155">
<ele>23.463181</ele>
<time>2026-07-16T14:15:33.000Z</time>
</trkpt>
<trkpt lat="57.457123" lon="9.797155">
<ele>23.410440</ele>
<time>2026-07-16T14:15:34.000Z</time>
</trkpt>
<trkpt lat="57.457204" lon="9.797154">
<ele>23.358969</ele>
<time>2026-07-16T14:15:35.000Z</time>
</trkpt>
<trkpt lat="57.457285" lon="9.797151">
<ele>23.307489</ele>
<time>2026-07-16T14:15:36.000Z</time>
</trkpt>
<trkpt lat="57.457362" lon="9.797148">
<ele>23.258550</ele>
<time>2026-07-16T14:15:37.000Z</time>
</trkpt>
<trkpt lat="57.457440" lon="9.797147">
<ele>23.208985</ele>
<time>2026-07-16T14:15:38.000Z</time>
</trkpt>
<trkpt lat="57.457517" lon="9.797144">
<ele>23.160045</ele>
<time>2026-07-16T14:15:39.000Z</time>
</trkpt>
<trkpt lat="57.457594" lon="9.797141">
<ele>23.111106</ele>
<time>2026-07-16T14:15:40.000Z</time>
</trkpt>
<trkpt lat="57.457673" lon="9.797140">
<ele>23.060906</ele>
<time>2026-07-16T14:15:41.000Z</time>
</trkpt>
<trkpt lat="57.457750" lon="9.797139">
<ele>23.011976</ele>
<time>2026-07-16T14:15:42.000Z</time>
</trkpt>
<trkpt lat="57.457828" lon="9.797137">
<ele>22.962408</ele>
<time>2026-07-16T14:15:43.000Z</time>
</trkpt>
<trkpt lat="57.457904" lon="9.797138">
<ele>22.914114</ele>
<time>2026-07-16T14:15:44.000Z</time>
</trkpt>
<trkpt lat="57.457979" lon="9.797138">
<ele>22.866456</ele>
<time>2026-07-16T14:15:45.000Z</time>
</trkpt>
<trkpt lat="57.458056" lon="9.797138">
<ele>22.818566</ele>
<time>2026-07-16T14:15:46.000Z</time>
</trkpt>
<trkpt lat="57.458132" lon="9.797137">
<ele>22.774817</ele>
<time>2026-07-16T14:15:47.000Z</time>
</trkpt>
<trkpt lat="57.458208" lon="9.797136">
<ele>22.731068</ele>
<time>2026-07-16T14:15:48.000Z</time>
</trkpt>
<trkpt lat="57.458287" lon="9.797136">
<ele>22.685593</ele>
<time>2026-07-16T14:15:49.000Z</time>
</trkpt>
<trkpt lat="57.458364" lon="9.797134">
<ele>22.641265</ele>
<time>2026-07-16T14:15:50.000Z</time>
</trkpt>
<trkpt lat="57.458444" lon="9.797131">
<ele>22.595205</ele>
<time>2026-07-16T14:15:51.000Z</time>
</trkpt>
<trkpt lat="57.458524" lon="9.797126">
<ele>22.549128</ele>
<time>2026-07-16T14:15:52.000Z</time>
</trkpt>
<trkpt lat="57.458605" lon="9.797121">
<ele>22.502476</ele>
<time>2026-07-16T14:15:53.000Z</time>
</trkpt>
<trkpt lat="57.458675" lon="9.797117">
<ele>22.462163</ele>
<time>2026-07-16T14:15:54.000Z</time>
</trkpt>
<trkpt lat="57.458757" lon="9.797111">
<ele>22.414925</ele>
<time>2026-07-16T14:15:55.000Z</time>
</trkpt>
<trkpt lat="57.458840" lon="9.797108">
<ele>22.367138</ele>
<time>2026-07-16T14:15:56.000Z</time>
</trkpt>
<trkpt lat="57.458917" lon="9.797108">
<ele>22.322815</ele>
<time>2026-07-16T14:15:57.000Z</time>
</trkpt>
<trkpt lat="57.458994" lon="9.797109">
<ele>22.278490</ele>
<time>2026-07-16T14:15:58.000Z</time>
</trkpt>
<trkpt lat="57.459070" lon="9.797109">
<ele>22.234742</ele>
<time>2026-07-16T14:15:59.000Z</time>
</trkpt>
<trkpt lat="57.459147" lon="9.797107">
<ele>22.190414</ele>
<time>2026-07-16T14:16:00.000Z</time>
</trkpt>
<trkpt lat="57.459223" lon="9.797107">
<ele>22.146666</ele>
<time>2026-07-16T14:16:01.000Z</time>
</trkpt>
<trkpt lat="57.459299" lon="9.797109">
<ele>22.102913</ele>
<time>2026-07-16T14:16:02.000Z</time>
</trkpt>
<trkpt lat="57.459373" lon="9.797112">
<ele>22.060306</ele>
<time>2026-07-16T14:16:03.000Z</time>
</trkpt>
<trkpt lat="57.459446" lon="9.797113">
<ele>22.018284</ele>
<time>2026-07-16T14:16:04.000Z</time>
</trkpt>
<trkpt lat="57.459521" lon="9.797111">
<ele>21.975107</ele>
<time>2026-07-16T14:16:05.000Z</time>
</trkpt>
<trkpt lat="57.459595" lon="9.797107">
<ele>21.932492</ele>
<time>2026-07-16T14:16:06.000Z</time>
</trkpt>
<trkpt lat="57.459670" lon="9.797105">
<ele>21.889316</ele>
<time>2026-07-16T14:16:07.000Z</time>
</trkpt>
<trkpt lat="57.459744" lon="9.797103">
<ele>21.846714</ele>
<time>2026-07-16T14:16:08.000Z</time>
</trkpt>
<trkpt lat="57.459818" lon="9.797101">
<ele>21.804113</ele>
<time>2026-07-16T14:16:09.000Z</time>
</trkpt>
<trkpt lat="57.459894" lon="9.797100">
<ele>21.750756</ele>
<time>2026-07-16T14:16:10.000Z</time>
</trkpt>
<trkpt lat="57.459969" lon="9.797097">
<ele>21.694941</ele>
<time>2026-07-16T14:16:11.000Z</time>
</trkpt>
<trkpt lat="57.460044" lon="9.797094">
<ele>21.639126</ele>
<time>2026-07-16T14:16:12.000Z</time>
</trkpt>
<trkpt lat="57.460119" lon="9.797090">
<ele>21.583301</ele>
<time>2026-07-16T14:16:13.000Z</time>
</trkpt>
<trkpt lat="57.460193" lon="9.797084">
<ele>21.528190</ele>
<time>2026-07-16T14:16:14.000Z</time>
</trkpt>
<trkpt lat="57.460266" lon="9.797082">
<ele>21.473870</ele>
<time>2026-07-16T14:16:15.000Z</time>
</trkpt>
<trkpt lat="57.460338" lon="9.797084">
<ele>21.420294</ele>
<time>2026-07-16T14:16:16.000Z</time>
</trkpt>
<trkpt lat="57.460411" lon="9.797086">
<ele>21.365973</ele>
<time>2026-07-16T14:16:17.000Z</time>
</trkpt>
<trkpt lat="57.460484" lon="9.797087">
<ele>21.311658</ele>
<time>2026-07-16T14:16:18.000Z</time>
</trkpt>
<trkpt lat="57.460556" lon="9.797087">
<ele>21.258088</ele>
<time>2026-07-16T14:16:19.000Z</time>
</trkpt>
<trkpt lat="57.460628" lon="9.797085">
<ele>21.204511</ele>
<time>2026-07-16T14:16:20.000Z</time>
</trkpt>
<trkpt lat="57.460700" lon="9.797083">
<ele>21.150935</ele>
<time>2026-07-16T14:16:21.000Z</time>
</trkpt>
<trkpt lat="57.460772" lon="9.797083">
<ele>21.097365</ele>
<time>2026-07-16T14:16:22.000Z</time>
</trkpt>
<trkpt lat="57.460846" lon="9.797082">
<ele>21.042305</ele>
<time>2026-07-16T14:16:23.000Z</time>
</trkpt>
<trkpt lat="57.460916" lon="9.797081">
<ele>20.990221</ele>
<time>2026-07-16T14:16:24.000Z</time>
</trkpt>
<trkpt lat="57.460987" lon="9.797080">
<ele>20.937394</ele>
<time>2026-07-16T14:16:25.000Z</time>
</trkpt>
<trkpt lat="57.461057" lon="9.797081">
<ele>20.885310</ele>
<time>2026-07-16T14:16:26.000Z</time>
</trkpt>
<trkpt lat="57.461125" lon="9.797082">
<ele>20.834714</ele>
<time>2026-07-16T14:16:27.000Z</time>
</trkpt>
<trkpt lat="57.461193" lon="9.797081">
<ele>20.784119</ele>
<time>2026-07-16T14:16:28.000Z</time>
</trkpt>
<trkpt lat="57.461263" lon="9.797077">
<ele>20.732012</ele>
<time>2026-07-16T14:16:29.000Z</time>
</trkpt>
<trkpt lat="57.461334" lon="9.797073">
<ele>20.679162</ele>
<time>2026-07-16T14:16:30.000Z</time>
</trkpt>
<trkpt lat="57.461406" lon="9.797068">
<ele>20.625554</ele>
<time>2026-07-16T14:16:31.000Z</time>
</trkpt>
<trkpt lat="57.461482" lon="9.797064">
<ele>20.568985</ele>
<time>2026-07-16T14:16:32.000Z</time>
</trkpt>
<trkpt lat="57.461554" lon="9.797059">
<ele>20.515377</ele>
<time>2026-07-16T14:16:33.000Z</time>
</trkpt>
<trkpt lat="57.461630" lon="9.797055">
<ele>20.458808</ele>
<time>2026-07-16T14:16:34.000Z</time>
</trkpt>
<trkpt lat="57.461707" lon="9.797050">
<ele>20.336627</ele>
<time>2026-07-16T14:16:35.000Z</time>
</trkpt>
<trkpt lat="57.461783" lon="9.797046">
<ele>20.211450</ele>
<time>2026-07-16T14:16:36.000Z</time>
</trkpt>
<trkpt lat="57.461859" lon="9.797043">
<ele>20.086296</ele>
<time>2026-07-16T14:16:37.000Z</time>
</trkpt>
<trkpt lat="57.461936" lon="9.797038">
<ele>19.959446</ele>
<time>2026-07-16T14:16:38.000Z</time>
</trkpt>
<trkpt lat="57.462007" lon="9.797032">
<ele>19.842430</ele>
<time>2026-07-16T14:16:39.000Z</time>
</trkpt>
<trkpt lat="57.462084" lon="9.797026">
<ele>19.715546</ele>
<time>2026-07-16T14:16:40.000Z</time>
</trkpt>
<trkpt lat="57.462161" lon="9.797018">
<ele>19.588576</ele>
<time>2026-07-16T14:16:41.000Z</time>
</trkpt>
<trkpt lat="57.462234" lon="9.797010">
<ele>19.468180</ele>
<time>2026-07-16T14:16:42.000Z</time>
</trkpt>
<trkpt lat="57.462312" lon="9.797004">
<ele>19.339651</ele>
<time>2026-07-16T14:16:43.000Z</time>
</trkpt>
<trkpt lat="57.462392" lon="9.796994">
<ele>19.207642</ele>
<time>2026-07-16T14:16:44.000Z</time>
</trkpt>
<trkpt lat="57.462473" lon="9.796986">
<ele>19.074095</ele>
<time>2026-07-16T14:16:45.000Z</time>
</trkpt>
<trkpt lat="57.462553" lon="9.796979">
<ele>18.942238</ele>
<time>2026-07-16T14:16:46.000Z</time>
</trkpt>
<trkpt lat="57.462633" lon="9.796973">
<ele>18.810419</ele>
<time>2026-07-16T14:16:47.000Z</time>
</trkpt>
<trkpt lat="57.462715" lon="9.796968">
<ele>18.675341</ele>
<time>2026-07-16T14:16:48.000Z</time>
</trkpt>
<trkpt lat="57.462795" lon="9.796963">
<ele>18.543555</ele>
<time>2026-07-16T14:16:49.000Z</time>
</trkpt>
<trkpt lat="57.462879" lon="9.796957">
<ele>18.405155</ele>
<time>2026-07-16T14:16:50.000Z</time>
</trkpt>
<trkpt lat="57.462963" lon="9.796952">
<ele>18.266787</ele>
<time>2026-07-16T14:16:51.000Z</time>
</trkpt>
<trkpt lat="57.463045" lon="9.796948">
<ele>18.131736</ele>
<time>2026-07-16T14:16:52.000Z</time>
</trkpt>
<trkpt lat="57.463124" lon="9.796944">
<ele>18.001622</ele>
<time>2026-07-16T14:16:53.000Z</time>
</trkpt>
<trkpt lat="57.463207" lon="9.796939">
<ele>17.864899</ele>
<time>2026-07-16T14:16:54.000Z</time>
</trkpt>
<trkpt lat="57.463291" lon="9.796931">
<ele>17.726420</ele>
<time>2026-07-16T14:16:55.000Z</time>
</trkpt>
<trkpt lat="57.463375" lon="9.796923">
<ele>17.587941</ele>
<time>2026-07-16T14:16:56.000Z</time>
</trkpt>
<trkpt lat="57.463459" lon="9.796920">
<ele>17.437104</ele>
<time>2026-07-16T14:16:57.000Z</time>
</trkpt>
<trkpt lat="57.463540" lon="9.796920">
<ele>17.265865</ele>
<time>2026-07-16T14:16:58.000Z</time>
</trkpt>
<trkpt lat="57.463622" lon="9.796918">
<ele>17.092497</ele>
<time>2026-07-16T14:16:59.000Z</time>
</trkpt>
<trkpt lat="57.463707" lon="9.796913">
<ele>16.912712</ele>
<time>2026-07-16T14:17:00.000Z</time>
</trkpt>
<trkpt lat="57.463789" lon="9.796906">
<ele>16.739177</ele>
<time>2026-07-16T14:17:01.000Z</time>
</trkpt>
<trkpt lat="57.463871" lon="9.796899">
<ele>16.565641</ele>
<time>2026-07-16T14:17:02.000Z</time>
</trkpt>
<trkpt lat="57.463950" lon="9.796892">
<ele>16.398441</ele>
<time>2026-07-16T14:17:03.000Z</time>
</trkpt>
<trkpt lat="57.464029" lon="9.796886">
<ele>16.231290</ele>
<time>2026-07-16T14:17:04.000Z</time>
</trkpt>
<trkpt lat="57.464106" lon="9.796885">
<ele>16.068504</ele>
<time>2026-07-16T14:17:05.000Z</time>
</trkpt>
<trkpt lat="57.464185" lon="9.796889">
<ele>15.901431</ele>
<time>2026-07-16T14:17:06.000Z</time>
</trkpt>
<trkpt lat="57.464265" lon="9.796893">
<ele>15.732245</ele>
<time>2026-07-16T14:17:07.000Z</time>
</trkpt>
<trkpt lat="57.464342" lon="9.796893">
<ele>15.569462</ele>
<time>2026-07-16T14:17:08.000Z</time>
</trkpt>
<trkpt lat="57.464419" lon="9.796893">
<ele>15.406679</ele>
<time>2026-07-16T14:17:09.000Z</time>
</trkpt>
<trkpt lat="57.464493" lon="9.796896">
<ele>15.250202</ele>
<time>2026-07-16T14:17:10.000Z</time>
</trkpt>
<trkpt lat="57.464568" lon="9.796900">
<ele>15.091582</ele>
<time>2026-07-16T14:17:11.000Z</time>
</trkpt>
<trkpt lat="57.464646" lon="9.796904">
<ele>14.926622</ele>
<time>2026-07-16T14:17:12.000Z</time>
</trkpt>
<trkpt lat="57.464724" lon="9.796909">
<ele>14.761628</ele>
<time>2026-07-16T14:17:13.000Z</time>
</trkpt>
<trkpt lat="57.464799" lon="9.796917">
<ele>14.602812</ele>
<time>2026-07-16T14:17:14.000Z</time>
</trkpt>
<trkpt lat="57.464876" lon="9.796927">
<ele>14.439633</ele>
<time>2026-07-16T14:17:15.000Z</time>
</trkpt>
<trkpt lat="57.464953" lon="9.796937">
<ele>14.276454</ele>
<time>2026-07-16T14:17:16.000Z</time>
</trkpt>
<trkpt lat="57.465032" lon="9.796948">
<ele>14.108975</ele>
<time>2026-07-16T14:17:17.000Z</time>
</trkpt>
<trkpt lat="57.465107" lon="9.796960">
<ele>13.949835</ele>
<time>2026-07-16T14:17:18.000Z</time>
</trkpt>
<trkpt lat="57.465179" lon="9.796971">
<ele>13.797109</ele>
<time>2026-07-16T14:17:19.000Z</time>
</trkpt>
<trkpt lat="57.465252" lon="9.796979">
<ele>13.664977</ele>
<time>2026-07-16T14:17:20.000Z</time>
</trkpt>
<trkpt lat="57.465321" lon="9.796988">
<ele>13.586169</ele>
<time>2026-07-16T14:17:21.000Z</time>
</trkpt>
<trkpt lat="57.465384" lon="9.796999">
<ele>13.514075</ele>
<time>2026-07-16T14:17:22.000Z</time>
</trkpt>
<trkpt lat="57.465445" lon="9.797014">
<ele>13.443971</ele>
<time>2026-07-16T14:17:23.000Z</time>
</trkpt>
<trkpt lat="57.465506" lon="9.797029">
<ele>13.373866</ele>
<time>2026-07-16T14:17:24.000Z</time>
</trkpt>
<trkpt lat="57.465568" lon="9.797038">
<ele>13.303012</ele>
<time>2026-07-16T14:17:25.000Z</time>
</trkpt>
<trkpt lat="57.465629" lon="9.797041">
<ele>13.233488</ele>
<time>2026-07-16T14:17:26.000Z</time>
</trkpt>
<trkpt lat="57.465687" lon="9.797047">
<ele>13.167305</ele>
<time>2026-07-16T14:17:27.000Z</time>
</trkpt>
<trkpt lat="57.465750" lon="9.797057">
<ele>13.095265</ele>
<time>2026-07-16T14:17:28.000Z</time>
</trkpt>
<trkpt lat="57.465812" lon="9.797068">
<ele>13.024306</ele>
<time>2026-07-16T14:17:29.000Z</time>
</trkpt>
<trkpt lat="57.465878" lon="9.797080">
<ele>12.948751</ele>
<time>2026-07-16T14:17:30.000Z</time>
</trkpt>
<trkpt lat="57.465944" lon="9.797093">
<ele>12.873134</ele>
<time>2026-07-16T14:17:31.000Z</time>
</trkpt>
<trkpt lat="57.466011" lon="9.797107">
<ele>12.796318</ele>
<time>2026-07-16T14:17:32.000Z</time>
</trkpt>
<trkpt lat="57.466080" lon="9.797118">
<ele>12.717415</ele>
<time>2026-07-16T14:17:33.000Z</time>
</trkpt>
<trkpt lat="57.466147" lon="9.797125">
<ele>12.640959</ele>
<time>2026-07-16T14:17:34.000Z</time>
</trkpt>
<trkpt lat="57.466214" lon="9.797129">
<ele>12.564584</ele>
<time>2026-07-16T14:17:35.000Z</time>
</trkpt>
<trkpt lat="57.466277" lon="9.797130">
<ele>12.492804</ele>
<time>2026-07-16T14:17:36.000Z</time>
</trkpt>
<trkpt lat="57.466341" lon="9.797130">
<ele>12.419886</ele>
<time>2026-07-16T14:17:37.000Z</time>
</trkpt>
<trkpt lat="57.466406" lon="9.797129">
<ele>12.345827</ele>
<time>2026-07-16T14:17:38.000Z</time>
</trkpt>
<trkpt lat="57.466467" lon="9.797129">
<ele>12.276327</ele>
<time>2026-07-16T14:17:39.000Z</time>
</trkpt>
<trkpt lat="57.466529" lon="9.797124">
<ele>12.205622</ele>
<time>2026-07-16T14:17:40.000Z</time>
</trkpt>
<trkpt lat="57.466588" lon="9.797119">
<ele>12.138331</ele>
<time>2026-07-16T14:17:41.000Z</time>
</trkpt>
<trkpt lat="57.466647" lon="9.797115">
<ele>12.071066</ele>
<time>2026-07-16T14:17:42.000Z</time>
</trkpt>
<trkpt lat="57.466708" lon="9.797111">
<ele>12.001523</ele>
<time>2026-07-16T14:17:43.000Z</time>
</trkpt>
<trkpt lat="57.466766" lon="9.797106">
<ele>11.935370</ele>
<time>2026-07-16T14:17:44.000Z</time>
</trkpt>
<trkpt lat="57.466826" lon="9.797100">
<ele>11.866911</ele>
<time>2026-07-16T14:17:45.000Z</time>
</trkpt>
<trkpt lat="57.466887" lon="9.797091">
<ele>11.797193</ele>
<time>2026-07-16T14:17:46.000Z</time>
</trkpt>
<trkpt lat="57.466948" lon="9.797077">
<ele>11.727166</ele>
<time>2026-07-16T14:17:47.000Z</time>
</trkpt>
<trkpt lat="57.467007" lon="9.797067">
<ele>11.659667</ele>
<time>2026-07-16T14:17:48.000Z</time>
</trkpt>
<trkpt lat="57.467063" lon="9.797058">
<ele>11.610941</ele>
<time>2026-07-16T14:17:49.000Z</time>
</trkpt>
<trkpt lat="57.467120" lon="9.797044">
<ele>11.567080</ele>
<time>2026-07-16T14:17:50.000Z</time>
</trkpt>
<trkpt lat="57.467178" lon="9.797028">
<ele>11.522350</ele>
<time>2026-07-16T14:17:51.000Z</time>
</trkpt>
<trkpt lat="57.467238" lon="9.797009">
<ele>11.475920</ele>
<time>2026-07-16T14:17:52.000Z</time>
</trkpt>
<trkpt lat="57.467299" lon="9.796991">
<ele>11.428804</ele>
<time>2026-07-16T14:17:53.000Z</time>
</trkpt>
<trkpt lat="57.467360" lon="9.796975">
<ele>11.381809</ele>
<time>2026-07-16T14:17:54.000Z</time>
</trkpt>
<trkpt lat="57.467423" lon="9.796960">
<ele>11.333357</ele>
<time>2026-07-16T14:17:55.000Z</time>
</trkpt>
<trkpt lat="57.467491" lon="9.796941">
<ele>11.280900</ele>
<time>2026-07-16T14:17:56.000Z</time>
</trkpt>
<trkpt lat="57.467556" lon="9.796916">
<ele>11.230265</ele>
<time>2026-07-16T14:17:57.000Z</time>
</trkpt>
<trkpt lat="57.467616" lon="9.796887">
<ele>11.182973</ele>
<time>2026-07-16T14:17:58.000Z</time>
</trkpt>
<trkpt lat="57.467677" lon="9.796855">
<ele>11.134623</ele>
<time>2026-07-16T14:17:59.000Z</time>
</trkpt>
<trkpt lat="57.467740" lon="9.796820">
<ele>11.084464</ele>
<time>2026-07-16T14:18:00.000Z</time>
</trkpt>
<trkpt lat="57.467805" lon="9.796787">
<ele>11.033063</ele>
<time>2026-07-16T14:18:01.000Z</time>
</trkpt>
<trkpt lat="57.467867" lon="9.796758">
<ele>10.984293</ele>
<time>2026-07-16T14:18:02.000Z</time>
</trkpt>
<trkpt lat="57.467928" lon="9.796725">
<ele>10.935830</ele>
<time>2026-07-16T14:18:03.000Z</time>
</trkpt>
<trkpt lat="57.467991" lon="9.796688">
<ele>10.885430</ele>
<time>2026-07-16T14:18:04.000Z</time>
</trkpt>
<trkpt lat="57.468054" lon="9.796654">
<ele>10.835387</ele>
<time>2026-07-16T14:18:05.000Z</time>
</trkpt>
<trkpt lat="57.468118" lon="9.796624">
<ele>10.785037</ele>
<time>2026-07-16T14:18:06.000Z</time>
</trkpt>
<trkpt lat="57.468179" lon="9.796604">
<ele>10.737785</ele>
<time>2026-07-16T14:18:07.000Z</time>
</trkpt>
<trkpt lat="57.468238" lon="9.796589">
<ele>10.692358</ele>
<time>2026-07-16T14:18:08.000Z</time>
</trkpt>
<trkpt lat="57.468299" lon="9.796571">
<ele>10.645242</ele>
<time>2026-07-16T14:18:09.000Z</time>
</trkpt>
<trkpt lat="57.468360" lon="9.796545">
<ele>10.597501</ele>
<time>2026-07-16T14:18:10.000Z</time>
</trkpt>
<trkpt lat="57.468421" lon="9.796522">
<ele>10.550020</ele>
<time>2026-07-16T14:18:11.000Z</time>
</trkpt>
<trkpt lat="57.468479" lon="9.796498">
<ele>10.504692</ele>
<time>2026-07-16T14:18:12.000Z</time>
</trkpt>
<trkpt lat="57.468538" lon="9.796475">
<ele>10.458705</ele>
<time>2026-07-16T14:18:13.000Z</time>
</trkpt>
<trkpt lat="57.468597" lon="9.796451">
<ele>10.412632</ele>
<time>2026-07-16T14:18:14.000Z</time>
</trkpt>
<trkpt lat="57.468656" lon="9.796425">
<ele>10.366377</ele>
<time>2026-07-16T14:18:15.000Z</time>
</trkpt>
<trkpt lat="57.468721" lon="9.796399">
<ele>10.315658</ele>
<time>2026-07-16T14:18:16.000Z</time>
</trkpt>
<trkpt lat="57.468786" lon="9.796372">
<ele>10.266628</ele>
<time>2026-07-16T14:18:17.000Z</time>
</trkpt>
<trkpt lat="57.468847" lon="9.796350">
<ele>10.236014</ele>
<time>2026-07-16T14:18:18.000Z</time>
</trkpt>
<trkpt lat="57.468903" lon="9.796332">
<ele>10.208015</ele>
<time>2026-07-16T14:18:19.000Z</time>
</trkpt>
<trkpt lat="57.468958" lon="9.796313">
<ele>10.180454</ele>
<time>2026-07-16T14:18:20.000Z</time>
</trkpt>
<trkpt lat="57.469011" lon="9.796297">
<ele>10.154001</ele>
<time>2026-07-16T14:18:21.000Z</time>
</trkpt>
<trkpt lat="57.469056" lon="9.796287">
<ele>10.131672</ele>
<time>2026-07-16T14:18:22.000Z</time>
</trkpt>
<trkpt lat="57.469104" lon="9.796280">
<ele>10.107951</ele>
<time>2026-07-16T14:18:23.000Z</time>
</trkpt>
<trkpt lat="57.469149" lon="9.796275">
<ele>10.085741</ele>
<time>2026-07-16T14:18:24.000Z</time>
</trkpt>
<trkpt lat="57.469194" lon="9.796269">
<ele>10.063514</ele>
<time>2026-07-16T14:18:25.000Z</time>
</trkpt>
<trkpt lat="57.469238" lon="9.796260">
<ele>10.041705</ele>
<time>2026-07-16T14:18:26.000Z</time>
</trkpt>
<trkpt lat="57.469274" lon="9.796252">
<ele>10.023843</ele>
<time>2026-07-16T14:18:27.000Z</time>
</trkpt>
<trkpt lat="57.469305" lon="9.796250">
<ele>10.008561</ele>
<time>2026-07-16T14:18:28.000Z</time>
</trkpt>
<trkpt lat="57.469335" lon="9.796252">
<ele>9.993771</ele>
<time>2026-07-16T14:18:29.000Z</time>
</trkpt>
<trkpt lat="57.469363" lon="9.796253">
<ele>9.979973</ele>
<time>2026-07-16T14:18:30.000Z</time>
</trkpt>
<trkpt lat="57.469392" lon="9.796253">
<ele>9.965686</ele>
<time>2026-07-16T14:18:31.000Z</time>
</trkpt>
<trkpt lat="57.469417" lon="9.796256">
<ele>9.953343</ele>
<time>2026-07-16T14:18:32.000Z</time>
</trkpt>
<trkpt lat="57.469433" lon="9.796260">
<ele>9.945389</ele>
<time>2026-07-16T14:18:33.000Z</time>
</trkpt>
<trkpt lat="57.469442" lon="9.796263">
<ele>9.940885</ele>
<time>2026-07-16T14:18:34.000Z</time>
</trkpt>
<trkpt lat="57.469507" lon="9.796245">
<ele>9.908508</ele>
<time>2026-07-16T14:18:40.000Z</time>
</trkpt>
<trkpt lat="57.469523" lon="9.796251">
<ele>9.900466</ele>
<time>2026-07-16T14:18:41.000Z</time>
</trkpt>
<trkpt lat="57.469539" lon="9.796261">
<ele>9.892150</ele>
<time>2026-07-16T14:18:42.000Z</time>
</trkpt>
<trkpt lat="57.469560" lon="9.796273">
<ele>9.881326</ele>
<time>2026-07-16T14:18:43.000Z</time>
</trkpt>
<trkpt lat="57.469580" lon="9.796287">
<ele>9.870798</ele>
<time>2026-07-16T14:18:44.000Z</time>
</trkpt>
<trkpt lat="57.469602" lon="9.796301">
<ele>9.859342</ele>
<time>2026-07-16T14:18:45.000Z</time>
</trkpt>
<trkpt lat="57.469621" lon="9.796322">
<ele>9.848452</ele>
<time>2026-07-16T14:18:46.000Z</time>
</trkpt>
<trkpt lat="57.469644" lon="9.796347">
<ele>9.835327</ele>
<time>2026-07-16T14:18:47.000Z</time>
</trkpt>
<trkpt lat="57.469668" lon="9.796369">
<ele>9.822144</ele>
<time>2026-07-16T14:18:48.000Z</time>
</trkpt>
<trkpt lat="57.469693" lon="9.796390">
<ele>9.808629</ele>
<time>2026-07-16T14:18:49.000Z</time>
</trkpt>
<trkpt lat="57.469717" lon="9.796412">
<ele>9.795446</ele>
<time>2026-07-16T14:18:50.000Z</time>
</trkpt>
<trkpt lat="57.469745" lon="9.796435">
<ele>9.780365</ele>
<time>2026-07-16T14:18:51.000Z</time>
</trkpt>
<trkpt lat="57.469772" lon="9.796463">
<ele>9.765135</ele>
<time>2026-07-16T14:18:52.000Z</time>
</trkpt>
<trkpt lat="57.469796" lon="9.796495">
<ele>9.750585</ele>
<time>2026-07-16T14:18:53.000Z</time>
</trkpt>
<trkpt lat="57.469822" lon="9.796524">
<ele>9.735648</ele>
<time>2026-07-16T14:18:54.000Z</time>
</trkpt>
<trkpt lat="57.469851" lon="9.796553">
<ele>9.719426</ele>
<time>2026-07-16T14:18:55.000Z</time>
</trkpt>
<trkpt lat="57.469881" lon="9.796580">
<ele>9.703005</ele>
<time>2026-07-16T14:18:56.000Z</time>
</trkpt>
<trkpt lat="57.469913" lon="9.796605">
<ele>9.685905</ele>
<time>2026-07-16T14:18:57.000Z</time>
</trkpt>
<trkpt lat="57.469943" lon="9.796623">
<ele>9.670374</ele>
<time>2026-07-16T14:18:58.000Z</time>
</trkpt>
<trkpt lat="57.469973" lon="9.796640">
<ele>9.654923</ele>
<time>2026-07-16T14:18:59.000Z</time>
</trkpt>
<trkpt lat="57.470005" lon="9.796656">
<ele>9.638597</ele>
<time>2026-07-16T14:19:00.000Z</time>
</trkpt>
<trkpt lat="57.470038" lon="9.796671">
<ele>9.621860</ele>
<time>2026-07-16T14:19:01.000Z</time>
</trkpt>
<trkpt lat="57.470072" lon="9.796684">
<ele>9.604759</ele>
<time>2026-07-16T14:19:02.000Z</time>
</trkpt>
<trkpt lat="57.470104" lon="9.796696">
<ele>9.588676</ele>
<time>2026-07-16T14:19:03.000Z</time>
</trkpt>
<trkpt lat="57.470138" lon="9.796707">
<ele>9.571673</ele>
<time>2026-07-16T14:19:04.000Z</time>
</trkpt>
<trkpt lat="57.470175" lon="9.796717">
<ele>9.553253</ele>
<time>2026-07-16T14:19:05.000Z</time>
</trkpt>
<trkpt lat="57.470218" lon="9.796724">
<ele>9.531987</ele>
<time>2026-07-16T14:19:06.000Z</time>
</trkpt>
<trkpt lat="57.470261" lon="9.796727">
<ele>9.510787</ele>
<time>2026-07-16T14:19:07.000Z</time>
</trkpt>
<trkpt lat="57.470308" lon="9.796731">
<ele>9.487607</ele>
<time>2026-07-16T14:19:08.000Z</time>
</trkpt>
<trkpt lat="57.470355" lon="9.796739">
<ele>9.464354</ele>
<time>2026-07-16T14:19:09.000Z</time>
</trkpt>
<trkpt lat="57.470401" lon="9.796749">
<ele>9.441537</ele>
<time>2026-07-16T14:19:10.000Z</time>
</trkpt>
<trkpt lat="57.470444" lon="9.796757">
<ele>9.420246</ele>
<time>2026-07-16T14:19:11.000Z</time>
</trkpt>
<trkpt lat="57.470492" lon="9.796762">
<ele>9.396560</ele>
<time>2026-07-16T14:19:12.000Z</time>
</trkpt>
<trkpt lat="57.470540" lon="9.796764">
<ele>9.375748</ele>
<time>2026-07-16T14:19:13.000Z</time>
</trkpt>
<trkpt lat="57.470587" lon="9.796765">
<ele>9.358677</ele>
<time>2026-07-16T14:19:14.000Z</time>
</trkpt>
<trkpt lat="57.470631" lon="9.796770">
<ele>9.342666</ele>
<time>2026-07-16T14:19:15.000Z</time>
</trkpt>
<trkpt lat="57.470681" lon="9.796780">
<ele>9.324402</ele>
<time>2026-07-16T14:19:16.000Z</time>
</trkpt>
<trkpt lat="57.470726" lon="9.796787">
<ele>9.308002</ele>
<time>2026-07-16T14:19:17.000Z</time>
</trkpt>
<trkpt lat="57.470768" lon="9.796788">
<ele>9.292746</ele>
<time>2026-07-16T14:19:18.000Z</time>
</trkpt>
<trkpt lat="57.470804" lon="9.796791">
<ele>9.279659</ele>
<time>2026-07-16T14:19:19.000Z</time>
</trkpt>
<trkpt lat="57.470838" lon="9.796796">
<ele>9.267272</ele>
<time>2026-07-16T14:19:20.000Z</time>
</trkpt>
<trkpt lat="57.470876" lon="9.796805">
<ele>9.253359</ele>
<time>2026-07-16T14:19:21.000Z</time>
</trkpt>
<trkpt lat="57.470911" lon="9.796816">
<ele>9.240467</ele>
<time>2026-07-16T14:19:22.000Z</time>
</trkpt>
<trkpt lat="57.470948" lon="9.796824">
<ele>9.226939</ele>
<time>2026-07-16T14:19:23.000Z</time>
</trkpt>
<trkpt lat="57.470986" lon="9.796830">
<ele>9.213088</ele>
<time>2026-07-16T14:19:24.000Z</time>
</trkpt>
<trkpt lat="57.471019" lon="9.796838">
<ele>9.201001</ele>
<time>2026-07-16T14:19:25.000Z</time>
</trkpt>
<trkpt lat="57.471047" lon="9.796846">
<ele>9.190712</ele>
<time>2026-07-16T14:19:26.000Z</time>
</trkpt>
<trkpt lat="57.471073" lon="9.796854">
<ele>9.181141</ele>
<time>2026-07-16T14:19:27.000Z</time>
</trkpt>
<trkpt lat="57.471097" lon="9.796864">
<ele>9.172208</ele>
<time>2026-07-16T14:19:28.000Z</time>
</trkpt>
<trkpt lat="57.471120" lon="9.796878">
<ele>9.163419</ele>
<time>2026-07-16T14:19:29.000Z</time>
</trkpt>
<trkpt lat="57.471146" lon="9.796893">
<ele>9.153532</ele>
<time>2026-07-16T14:19:30.000Z</time>
</trkpt>
<trkpt lat="57.471181" lon="9.796909">
<ele>9.140442</ele>
<time>2026-07-16T14:19:31.000Z</time>
</trkpt>
<trkpt lat="57.471216" lon="9.796921">
<ele>9.127516</ele>
<time>2026-07-16T14:19:32.000Z</time>
</trkpt>
<trkpt lat="57.471251" lon="9.796931">
<ele>9.114656</ele>
<time>2026-07-16T14:19:33.000Z</time>
</trkpt>
<trkpt lat="57.471288" lon="9.796941">
<ele>9.101076</ele>
<time>2026-07-16T14:19:34.000Z</time>
</trkpt>
<trkpt lat="57.471323" lon="9.796953">
<ele>9.088151</ele>
<time>2026-07-16T14:19:35.000Z</time>
</trkpt>
<trkpt lat="57.471358" lon="9.796972">
<ele>9.074908</ele>
<time>2026-07-16T14:19:36.000Z</time>
</trkpt>
<trkpt lat="57.471392" lon="9.796993">
<ele>9.061897</ele>
<time>2026-07-16T14:19:37.000Z</time>
</trkpt>
<trkpt lat="57.471424" lon="9.797011">
<ele>9.049755</ele>
<time>2026-07-16T14:19:38.000Z</time>
</trkpt>
<trkpt lat="57.471456" lon="9.797027">
<ele>9.037720</ele>
<time>2026-07-16T14:19:39.000Z</time>
</trkpt>
<trkpt lat="57.471488" lon="9.797040">
<ele>9.025824</ele>
<time>2026-07-16T14:19:40.000Z</time>
</trkpt>
<trkpt lat="57.471516" lon="9.797049">
<ele>9.015504</ele>
<time>2026-07-16T14:19:41.000Z</time>
</trkpt>
<trkpt lat="57.471545" lon="9.797053">
<ele>9.004942</ele>
<time>2026-07-16T14:19:42.000Z</time>
</trkpt>
<trkpt lat="57.471576" lon="9.797057">
<ele>8.993656</ele>
<time>2026-07-16T14:19:43.000Z</time>
</trkpt>
<trkpt lat="57.471603" lon="9.797068">
<ele>8.983618</ele>
<time>2026-07-16T14:19:44.000Z</time>
</trkpt>
<trkpt lat="57.471630" lon="9.797082">
<ele>8.973438</ele>
<time>2026-07-16T14:19:45.000Z</time>
</trkpt>
<trkpt lat="57.471657" lon="9.797096">
<ele>8.963257</ele>
<time>2026-07-16T14:19:46.000Z</time>
</trkpt>
<trkpt lat="57.471687" lon="9.797108">
<ele>8.952113</ele>
<time>2026-07-16T14:19:47.000Z</time>
</trkpt>
<trkpt lat="57.471720" lon="9.797123">
<ele>8.939775</ele>
<time>2026-07-16T14:19:48.000Z</time>
</trkpt>
<trkpt lat="57.471750" lon="9.797131">
<ele>8.928767</ele>
<time>2026-07-16T14:19:49.000Z</time>
</trkpt>
<trkpt lat="57.471784" lon="9.797135">
<ele>8.916394</ele>
<time>2026-07-16T14:19:50.000Z</time>
</trkpt>
<trkpt lat="57.471819" lon="9.797140">
<ele>8.903645</ele>
<time>2026-07-16T14:19:51.000Z</time>
</trkpt>
<trkpt lat="57.471856" lon="9.797146">
<ele>8.890156</ele>
<time>2026-07-16T14:19:52.000Z</time>
</trkpt>
<trkpt lat="57.471891" lon="9.797154">
<ele>8.877349</ele>
<time>2026-07-16T14:19:53.000Z</time>
</trkpt>
<trkpt lat="57.471923" lon="9.797162">
<ele>8.865622</ele>
<time>2026-07-16T14:19:54.000Z</time>
</trkpt>
<trkpt lat="57.471954" lon="9.797170">
<ele>8.854256</ele>
<time>2026-07-16T14:19:55.000Z</time>
</trkpt>
<trkpt lat="57.471984" lon="9.797185">
<ele>8.842973</ele>
<time>2026-07-16T14:19:56.000Z</time>
</trkpt>
<trkpt lat="57.472012" lon="9.797204">
<ele>8.832148</ele>
<time>2026-07-16T14:19:57.000Z</time>
</trkpt>
<trkpt lat="57.472041" lon="9.797224">
<ele>8.820915</ele>
<time>2026-07-16T14:19:58.000Z</time>
</trkpt>
<trkpt lat="57.472070" lon="9.797242">
<ele>8.809811</ele>
<time>2026-07-16T14:19:59.000Z</time>
</trkpt>
<trkpt lat="57.472103" lon="9.797256">
<ele>8.797518</ele>
<time>2026-07-16T14:20:00.000Z</time>
</trkpt>
<trkpt lat="57.472143" lon="9.797265">
<ele>8.782884</ele>
<time>2026-07-16T14:20:01.000Z</time>
</trkpt>
<trkpt lat="57.472184" lon="9.797269">
<ele>8.767973</ele>
<time>2026-07-16T14:20:02.000Z</time>
</trkpt>
<trkpt lat="57.472220" lon="9.797273">
<ele>8.754875</ele>
<time>2026-07-16T14:20:03.000Z</time>
</trkpt>
<trkpt lat="57.472257" lon="9.797276">
<ele>8.741424</ele>
<time>2026-07-16T14:20:04.000Z</time>
</trkpt>
<trkpt lat="57.472292" lon="9.797278">
<ele>8.739198</ele>
<time>2026-07-16T14:20:05.000Z</time>
</trkpt>
<trkpt lat="57.472325" lon="9.797282">
<ele>8.798605</ele>
<time>2026-07-16T14:20:06.000Z</time>
</trkpt>
<trkpt lat="57.472358" lon="9.797285">
<ele>8.857956</ele>
<time>2026-07-16T14:20:07.000Z</time>
</trkpt>
<trkpt lat="57.472392" lon="9.797287">
<ele>8.919064</ele>
<time>2026-07-16T14:20:08.000Z</time>
</trkpt>
<trkpt lat="57.472425" lon="9.797285">
<ele>8.978376</ele>
<time>2026-07-16T14:20:09.000Z</time>
</trkpt>
<trkpt lat="57.472460" lon="9.797280">
<ele>9.041434</ele>
<time>2026-07-16T14:20:10.000Z</time>
</trkpt>
<trkpt lat="57.472492" lon="9.797274">
<ele>9.099210</ele>
<time>2026-07-16T14:20:11.000Z</time>
</trkpt>
<trkpt lat="57.472522" lon="9.797268">
<ele>9.153412</ele>
<time>2026-07-16T14:20:12.000Z</time>
</trkpt>
<trkpt lat="57.472558" lon="9.797264">
<ele>9.218197</ele>
<time>2026-07-16T14:20:13.000Z</time>
</trkpt>
<trkpt lat="57.472596" lon="9.797261">
<ele>9.286521</ele>
<time>2026-07-16T14:20:14.000Z</time>
</trkpt>
<trkpt lat="57.472632" lon="9.797261">
<ele>9.351191</ele>
<time>2026-07-16T14:20:15.000Z</time>
</trkpt>
<trkpt lat="57.472663" lon="9.797264">
<ele>9.406954</ele>
<time>2026-07-16T14:20:16.000Z</time>
</trkpt>
<trkpt lat="57.472691" lon="9.797267">
<ele>9.457337</ele>
<time>2026-07-16T14:20:17.000Z</time>
</trkpt>
<trkpt lat="57.472707" lon="9.797269">
<ele>9.486144</ele>
<time>2026-07-16T14:20:18.000Z</time>
</trkpt>
<trkpt lat="57.472715" lon="9.797265">
<ele>9.501025</ele>
<time>2026-07-16T14:20:19.000Z</time>
</trkpt>
<trkpt lat="57.472852" lon="9.797304">
<ele>9.749996</ele>
<time>2026-07-16T14:20:30.000Z</time>
</trkpt>
<trkpt lat="57.472872" lon="9.797321">
<ele>9.789498</ele>
<time>2026-07-16T14:20:31.000Z</time>
</trkpt>
<trkpt lat="57.472897" lon="9.797337">
<ele>9.836993</ele>
<time>2026-07-16T14:20:32.000Z</time>
</trkpt>
<trkpt lat="57.472926" lon="9.797353">
<ele>9.891332</ele>
<time>2026-07-16T14:20:33.000Z</time>
</trkpt>
<trkpt lat="57.472957" lon="9.797373">
<ele>9.950275</ele>
<time>2026-07-16T14:20:34.000Z</time>
</trkpt>
<trkpt lat="57.472990" lon="9.797395">
<ele>10.013249</ele>
<time>2026-07-16T14:20:35.000Z</time>
</trkpt>
<trkpt lat="57.473025" lon="9.797419">
<ele>10.080260</ele>
<time>2026-07-16T14:20:36.000Z</time>
</trkpt>
<trkpt lat="57.473059" lon="9.797444">
<ele>10.145938</ele>
<time>2026-07-16T14:20:37.000Z</time>
</trkpt>
<trkpt lat="57.473090" lon="9.797466">
<ele>10.205542</ele>
<time>2026-07-16T14:20:38.000Z</time>
</trkpt>
<trkpt lat="57.473124" lon="9.797484">
<ele>10.269046</ele>
<time>2026-07-16T14:20:39.000Z</time>
</trkpt>
<trkpt lat="57.473158" lon="9.797499">
<ele>10.331818</ele>
<time>2026-07-16T14:20:40.000Z</time>
</trkpt>
<trkpt lat="57.473190" lon="9.797518">
<ele>10.392160</ele>
<time>2026-07-16T14:20:41.000Z</time>
</trkpt>
<trkpt lat="57.473223" lon="9.797540">
<ele>10.455135</ele>
<time>2026-07-16T14:20:42.000Z</time>
</trkpt>
<trkpt lat="57.473258" lon="9.797566">
<ele>10.522838</ele>
<time>2026-07-16T14:20:43.000Z</time>
</trkpt>
<trkpt lat="57.473295" lon="9.797591">
<ele>10.593555</ele>
<time>2026-07-16T14:20:44.000Z</time>
</trkpt>
<trkpt lat="57.473330" lon="9.797612">
<ele>10.659619</ele>
<time>2026-07-16T14:20:45.000Z</time>
</trkpt>
<trkpt lat="57.473365" lon="9.797627">
<ele>10.724140</ele>
<time>2026-07-16T14:20:46.000Z</time>
</trkpt>
<trkpt lat="57.473413" lon="9.797631">
<ele>10.810453</ele>
<time>2026-07-16T14:20:47.000Z</time>
</trkpt>
<trkpt lat="57.473466" lon="9.797629">
<ele>10.905681</ele>
<time>2026-07-16T14:20:48.000Z</time>
</trkpt>
<trkpt lat="57.473513" lon="9.797625">
<ele>10.990200</ele>
<time>2026-07-16T14:20:49.000Z</time>
</trkpt>
<trkpt lat="57.473556" lon="9.797617">
<ele>11.067830</ele>
<time>2026-07-16T14:20:50.000Z</time>
</trkpt>
<trkpt lat="57.473596" lon="9.797607">
<ele>11.140331</ele>
<time>2026-07-16T14:20:51.000Z</time>
</trkpt>
<trkpt lat="57.473631" lon="9.797591">
<ele>11.205076</ele>
<time>2026-07-16T14:20:52.000Z</time>
</trkpt>
<trkpt lat="57.473666" lon="9.797572">
<ele>11.270573</ele>
<time>2026-07-16T14:20:53.000Z</time>
</trkpt>
<trkpt lat="57.473697" lon="9.797554">
<ele>11.328912</ele>
<time>2026-07-16T14:20:54.000Z</time>
</trkpt>
<trkpt lat="57.473730" lon="9.797542">
<ele>11.389315</ele>
<time>2026-07-16T14:20:55.000Z</time>
</trkpt>
<trkpt lat="57.473762" lon="9.797535">
<ele>11.447196</ele>
<time>2026-07-16T14:20:56.000Z</time>
</trkpt>
<trkpt lat="57.473792" lon="9.797541">
<ele>11.501398</ele>
<time>2026-07-16T14:20:57.000Z</time>
</trkpt>
<trkpt lat="57.473823" lon="9.797564">
<ele>11.561354</ele>
<time>2026-07-16T14:20:58.000Z</time>
</trkpt>
<trkpt lat="57.473845" lon="9.797610">
<ele>11.620817</ele>
<time>2026-07-16T14:20:59.000Z</time>
</trkpt>
<trkpt lat="57.473859" lon="9.797669">
<ele>11.683108</ele>
<time>2026-07-16T14:21:00.000Z</time>
</trkpt>
<trkpt lat="57.473870" lon="9.797730">
<ele>11.745252</ele>
<time>2026-07-16T14:21:01.000Z</time>
</trkpt>
<trkpt lat="57.473879" lon="9.797794">
<ele>11.809148</ele>
<time>2026-07-16T14:21:02.000Z</time>
</trkpt>
<trkpt lat="57.473886" lon="9.797857">
<ele>11.871284</ele>
<time>2026-07-16T14:21:03.000Z</time>
</trkpt>
<trkpt lat="57.473894" lon="9.797920">
<ele>11.933809</ele>
<time>2026-07-16T14:21:04.000Z</time>
</trkpt>
<trkpt lat="57.473902" lon="9.797984">
<ele>12.085392</ele>
<time>2026-07-16T14:21:05.000Z</time>
</trkpt>
<trkpt lat="57.473909" lon="9.798046">
<ele>12.297405</ele>
<time>2026-07-16T14:21:06.000Z</time>
</trkpt>
<trkpt lat="57.473917" lon="9.798109">
<ele>12.514040</ele>
<time>2026-07-16T14:21:07.000Z</time>
</trkpt>
<trkpt lat="57.473924" lon="9.798169">
<ele>12.719508</ele>
<time>2026-07-16T14:21:08.000Z</time>
</trkpt>
<trkpt lat="57.473932" lon="9.798231">
<ele>12.932887</ele>
<time>2026-07-16T14:21:09.000Z</time>
</trkpt>
<trkpt lat="57.473940" lon="9.798295">
<ele>13.152780</ele>
<time>2026-07-16T14:21:10.000Z</time>
</trkpt>
<trkpt lat="57.473947" lon="9.798360">
<ele>13.374628</ele>
<time>2026-07-16T14:21:11.000Z</time>
</trkpt>
<trkpt lat="57.473952" lon="9.798420">
<ele>13.577820</ele>
<time>2026-07-16T14:21:12.000Z</time>
</trkpt>
<trkpt lat="57.473959" lon="9.798485">
<ele>13.799668</ele>
<time>2026-07-16T14:21:13.000Z</time>
</trkpt>
<trkpt lat="57.473964" lon="9.798546">
<ele>14.006168</ele>
<time>2026-07-16T14:21:14.000Z</time>
</trkpt>
<trkpt lat="57.473970" lon="9.798606">
<ele>14.210406</ele>
<time>2026-07-16T14:21:15.000Z</time>
</trkpt>
<trkpt lat="57.473975" lon="9.798664">
<ele>14.406986</ele>
<time>2026-07-16T14:21:16.000Z</time>
</trkpt>
<trkpt lat="57.473979" lon="9.798724">
<ele>14.609319</ele>
<time>2026-07-16T14:21:17.000Z</time>
</trkpt>
<trkpt lat="57.473980" lon="9.798784">
<ele>14.810210</ele>
<time>2026-07-16T14:21:18.000Z</time>
</trkpt>
<trkpt lat="57.473983" lon="9.798847">
<ele>15.021870</ele>
<time>2026-07-16T14:21:19.000Z</time>
</trkpt>
<trkpt lat="57.473984" lon="9.798909">
<ele>15.229451</ele>
<time>2026-07-16T14:21:20.000Z</time>
</trkpt>
<trkpt lat="57.473987" lon="9.798970">
<ele>15.434444</ele>
<time>2026-07-16T14:21:21.000Z</time>
</trkpt>
<trkpt lat="57.473988" lon="9.799028">
<ele>15.628646</ele>
<time>2026-07-16T14:21:22.000Z</time>
</trkpt>
<trkpt lat="57.473988" lon="9.799088">
<ele>15.829440</ele>
<time>2026-07-16T14:21:23.000Z</time>
</trkpt>
<trkpt lat="57.473990" lon="9.799146">
<ele>16.023941</ele>
<time>2026-07-16T14:21:24.000Z</time>
</trkpt>
<trkpt lat="57.473991" lon="9.799204">
<ele>16.218142</ele>
<time>2026-07-16T14:21:25.000Z</time>
</trkpt>
<trkpt lat="57.473991" lon="9.799257">
<ele>16.395510</ele>
<time>2026-07-16T14:21:26.000Z</time>
</trkpt>
<trkpt lat="57.473989" lon="9.799311">
<ele>16.576654</ele>
<time>2026-07-16T14:21:27.000Z</time>
</trkpt>
<trkpt lat="57.473988" lon="9.799357">
<ele>16.730722</ele>
<time>2026-07-16T14:21:28.000Z</time>
</trkpt>
<trkpt lat="57.473988" lon="9.799406">
<ele>16.894705</ele>
<time>2026-07-16T14:21:29.000Z</time>
</trkpt>
<trkpt lat="57.473985" lon="9.799454">
<ele>17.056422</ele>
<time>2026-07-16T14:21:30.000Z</time>
</trkpt>
<trkpt lat="57.473984" lon="9.799508">
<ele>17.237244</ele>
<time>2026-07-16T14:21:31.000Z</time>
</trkpt>
<trkpt lat="57.473981" lon="9.799560">
<ele>17.412265</ele>
<time>2026-07-16T14:21:32.000Z</time>
</trkpt>
<trkpt lat="57.473980" lon="9.799612">
<ele>17.586399</ele>
<time>2026-07-16T14:21:33.000Z</time>
</trkpt>
<trkpt lat="57.473977" lon="9.799664">
<ele>17.761420</ele>
<time>2026-07-16T14:21:34.000Z</time>
</trkpt>
<trkpt lat="57.473973" lon="9.799717">
<ele>17.940527</ele>
<time>2026-07-16T14:21:35.000Z</time>
</trkpt>
<trkpt lat="57.473970" lon="9.799764">
<ele>18.098921</ele>
<time>2026-07-16T14:21:36.000Z</time>
</trkpt>
<trkpt lat="57.473963" lon="9.799816">
<ele>18.278314</ele>
<time>2026-07-16T14:21:37.000Z</time>
</trkpt>
<trkpt lat="57.473955" lon="9.799867">
<ele>18.456105</ele>
<time>2026-07-16T14:21:38.000Z</time>
</trkpt>
<trkpt lat="57.473950" lon="9.799918">
<ele>18.629594</ele>
<time>2026-07-16T14:21:39.000Z</time>
</trkpt>
<trkpt lat="57.473947" lon="9.799970">
<ele>18.804615</ele>
<time>2026-07-16T14:21:40.000Z</time>
</trkpt>
<trkpt lat="57.473943" lon="9.800022">
<ele>18.980410</ele>
<time>2026-07-16T14:21:41.000Z</time>
</trkpt>
<trkpt lat="57.473939" lon="9.800073">
<ele>19.152891</ele>
<time>2026-07-16T14:21:42.000Z</time>
</trkpt>
<trkpt lat="57.473932" lon="9.800123">
<ele>19.325800</ele>
<time>2026-07-16T14:21:43.000Z</time>
</trkpt>
<trkpt lat="57.473928" lon="9.800166">
<ele>19.471841</ele>
<time>2026-07-16T14:21:44.000Z</time>
</trkpt>
<trkpt lat="57.473919" lon="9.800218">
<ele>19.654656</ele>
<time>2026-07-16T14:21:45.000Z</time>
</trkpt>
<trkpt lat="57.473909" lon="9.800274">
<ele>19.852130</ele>
<time>2026-07-16T14:21:46.000Z</time>
</trkpt>
<trkpt lat="57.473902" lon="9.800328">
<ele>20.038024</ele>
<time>2026-07-16T14:21:47.000Z</time>
</trkpt>
<trkpt lat="57.473894" lon="9.800378">
<ele>20.212605</ele>
<time>2026-07-16T14:21:48.000Z</time>
</trkpt>
<trkpt lat="57.473889" lon="9.800428">
<ele>20.382803</ele>
<time>2026-07-16T14:21:49.000Z</time>
</trkpt>
<trkpt lat="57.473883" lon="9.800479">
<ele>20.557517</ele>
<time>2026-07-16T14:21:50.000Z</time>
</trkpt>
<trkpt lat="57.473875" lon="9.800531">
<ele>20.738523</ele>
<time>2026-07-16T14:21:51.000Z</time>
</trkpt>
<trkpt lat="57.473870" lon="9.800583">
<ele>20.915306</ele>
<time>2026-07-16T14:21:52.000Z</time>
</trkpt>
<trkpt lat="57.473864" lon="9.800634">
<ele>21.090020</ele>
<time>2026-07-16T14:21:53.000Z</time>
</trkpt>
<trkpt lat="57.473856" lon="9.800687">
<ele>21.274246</ele>
<time>2026-07-16T14:21:54.000Z</time>
</trkpt>
<trkpt lat="57.473848" lon="9.800740">
<ele>21.458472</ele>
<time>2026-07-16T14:21:55.000Z</time>
</trkpt>
<trkpt lat="57.473841" lon="9.800792">
<ele>21.637866</ele>
<time>2026-07-16T14:21:56.000Z</time>
</trkpt>
<trkpt lat="57.473836" lon="9.800847">
<ele>21.824540</ele>
<time>2026-07-16T14:21:57.000Z</time>
</trkpt>
<trkpt lat="57.473830" lon="9.800900">
<ele>22.005799</ele>
<time>2026-07-16T14:21:58.000Z</time>
</trkpt>
<trkpt lat="57.473822" lon="9.800962">
<ele>22.219178</ele>
<time>2026-07-16T14:21:59.000Z</time>
</trkpt>
<trkpt lat="57.473812" lon="9.801026">
<ele>22.442221</ele>
<time>2026-07-16T14:22:00.000Z</time>
</trkpt>
<trkpt lat="57.473803" lon="9.801091">
<ele>22.666846</ele>
<time>2026-07-16T14:22:01.000Z</time>
</trkpt>
<trkpt lat="57.473795" lon="9.801153">
<ele>22.880226</ele>
<time>2026-07-16T14:22:02.000Z</time>
</trkpt>
<trkpt lat="57.473787" lon="9.801211">
<ele>23.080613</ele>
<time>2026-07-16T14:22:03.000Z</time>
</trkpt>
<trkpt lat="57.473780" lon="9.801273">
<ele>23.160711</ele>
<time>2026-07-16T14:22:04.000Z</time>
</trkpt>
<trkpt lat="57.473772" lon="9.801338">
<ele>23.167739</ele>
<time>2026-07-16T14:22:05.000Z</time>
</trkpt>
<trkpt lat="57.473765" lon="9.801406">
<ele>23.175036</ele>
<time>2026-07-16T14:22:06.000Z</time>
</trkpt>
<trkpt lat="57.473757" lon="9.801479">
<ele>23.182887</ele>
<time>2026-07-16T14:22:07.000Z</time>
</trkpt>
<trkpt lat="57.473750" lon="9.801548">
<ele>23.190287</ele>
<time>2026-07-16T14:22:08.000Z</time>
</trkpt>
<trkpt lat="57.473742" lon="9.801624">
<ele>23.198449</ele>
<time>2026-07-16T14:22:09.000Z</time>
</trkpt>
<trkpt lat="57.473734" lon="9.801698">
<ele>23.206404</ele>
<time>2026-07-16T14:22:10.000Z</time>
</trkpt>
<trkpt lat="57.473729" lon="9.801772">
<ele>23.214264</ele>
<time>2026-07-16T14:22:11.000Z</time>
</trkpt>
<trkpt lat="57.473726" lon="9.801844">
<ele>23.221875</ele>
<time>2026-07-16T14:22:12.000Z</time>
</trkpt>
<trkpt lat="57.473724" lon="9.801922">
<ele>23.230105</ele>
<time>2026-07-16T14:22:13.000Z</time>
</trkpt>
<trkpt lat="57.473724" lon="9.801997">
<ele>23.238009</ele>
<time>2026-07-16T14:22:14.000Z</time>
</trkpt>
<trkpt lat="57.473724" lon="9.802069">
<ele>23.245598</ele>
<time>2026-07-16T14:22:15.000Z</time>
</trkpt>
<trkpt lat="57.473727" lon="9.802136">
<ele>23.252683</ele>
<time>2026-07-16T14:22:16.000Z</time>
</trkpt>
<trkpt lat="57.473731" lon="9.802206">
<ele>23.260102</ele>
<time>2026-07-16T14:22:17.000Z</time>
</trkpt>
<trkpt lat="57.473737" lon="9.802281">
<ele>23.268093</ele>
<time>2026-07-16T14:22:18.000Z</time>
</trkpt>
<trkpt lat="57.473740" lon="9.802359">
<ele>23.276335</ele>
<time>2026-07-16T14:22:19.000Z</time>
</trkpt>
<trkpt lat="57.473742" lon="9.802440">
<ele>23.284880</ele>
<time>2026-07-16T14:22:20.000Z</time>
</trkpt>
<trkpt lat="57.473749" lon="9.802523">
<ele>23.293735</ele>
<time>2026-07-16T14:22:21.000Z</time>
</trkpt>
<trkpt lat="57.473756" lon="9.802602">
<ele>23.302173</ele>
<time>2026-07-16T14:22:22.000Z</time>
</trkpt>
<trkpt lat="57.473764" lon="9.802686">
<ele>23.311164</ele>
<time>2026-07-16T14:22:23.000Z</time>
</trkpt>
<trkpt lat="57.473772" lon="9.802768">
<ele>23.319947</ele>
<time>2026-07-16T14:22:24.000Z</time>
</trkpt>
<trkpt lat="57.473782" lon="9.802852">
<ele>23.329014</ele>
<time>2026-07-16T14:22:25.000Z</time>
</trkpt>
<trkpt lat="57.473791" lon="9.802941">
<ele>23.338558</ele>
<time>2026-07-16T14:22:26.000Z</time>
</trkpt>
<trkpt lat="57.473801" lon="9.803032">
<ele>23.348347</ele>
<time>2026-07-16T14:22:27.000Z</time>
</trkpt>
<trkpt lat="57.473810" lon="9.803122">
<ele>23.357995</ele>
<time>2026-07-16T14:22:28.000Z</time>
</trkpt>
<trkpt lat="57.473820" lon="9.803213">
<ele>23.367783</ele>
<time>2026-07-16T14:22:29.000Z</time>
</trkpt>
<trkpt lat="57.473832" lon="9.803309">
<ele>23.378171</ele>
<time>2026-07-16T14:22:30.000Z</time>
</trkpt>
<trkpt lat="57.473843" lon="9.803404">
<ele>23.388412</ele>
<time>2026-07-16T14:22:31.000Z</time>
</trkpt>
<trkpt lat="57.473858" lon="9.803500">
<ele>23.398948</ele>
<time>2026-07-16T14:22:32.000Z</time>
</trkpt>
<trkpt lat="57.473870" lon="9.803589">
<ele>23.408618</ele>
<time>2026-07-16T14:22:33.000Z</time>
</trkpt>
<trkpt lat="57.473881" lon="9.803685">
<ele>23.418963</ele>
<time>2026-07-16T14:22:34.000Z</time>
</trkpt>
<trkpt lat="57.473896" lon="9.803779">
<ele>23.429297</ele>
<time>2026-07-16T14:22:35.000Z</time>
</trkpt>
<trkpt lat="57.473908" lon="9.803876">
<ele>23.439787</ele>
<time>2026-07-16T14:22:36.000Z</time>
</trkpt>
<trkpt lat="57.473917" lon="9.803972">
<ele>23.450057</ele>
<time>2026-07-16T14:22:37.000Z</time>
</trkpt>
<trkpt lat="57.473927" lon="9.804069">
<ele>23.460466</ele>
<time>2026-07-16T14:22:38.000Z</time>
</trkpt>
<trkpt lat="57.473939" lon="9.804166">
<ele>23.470956</ele>
<time>2026-07-16T14:22:39.000Z</time>
</trkpt>
<trkpt lat="57.473947" lon="9.804260">
<ele>23.480986</ele>
<time>2026-07-16T14:22:40.000Z</time>
</trkpt>
<trkpt lat="57.473958" lon="9.804357">
<ele>23.491434</ele>
<time>2026-07-16T14:22:41.000Z</time>
</trkpt>
<trkpt lat="57.473969" lon="9.804453">
<ele>23.501778</ele>
<time>2026-07-16T14:22:42.000Z</time>
</trkpt>
<trkpt lat="57.473981" lon="9.804549">
<ele>23.512637</ele>
<time>2026-07-16T14:22:43.000Z</time>
</trkpt>
<trkpt lat="57.473992" lon="9.804644">
<ele>23.524390</ele>
<time>2026-07-16T14:22:44.000Z</time>
</trkpt>
<trkpt lat="57.474003" lon="9.804737">
<ele>23.535907</ele>
<time>2026-07-16T14:22:45.000Z</time>
</trkpt>
<trkpt lat="57.474015" lon="9.804834">
<ele>23.547945</ele>
<time>2026-07-16T14:22:46.000Z</time>
</trkpt>
<trkpt lat="57.474026" lon="9.804930">
<ele>23.559817</ele>
<time>2026-07-16T14:22:47.000Z</time>
</trkpt>
<trkpt lat="57.474038" lon="9.805028">
<ele>23.571973</ele>
<time>2026-07-16T14:22:48.000Z</time>
</trkpt>
<trkpt lat="57.474049" lon="9.805128">
<ele>23.584318</ele>
<time>2026-07-16T14:22:49.000Z</time>
</trkpt>
<trkpt lat="57.474061" lon="9.805228">
<ele>23.596710</ele>
<time>2026-07-16T14:22:50.000Z</time>
</trkpt>
<trkpt lat="57.474072" lon="9.805327">
<ele>23.608936</ele>
<time>2026-07-16T14:22:51.000Z</time>
</trkpt>
<trkpt lat="57.474086" lon="9.805426">
<ele>23.621317</ele>
<time>2026-07-16T14:22:52.000Z</time>
</trkpt>
<trkpt lat="57.474099" lon="9.805525">
<ele>23.633642</ele>
<time>2026-07-16T14:22:53.000Z</time>
</trkpt>
<trkpt lat="57.474110" lon="9.805623">
<ele>23.645751</ele>
<time>2026-07-16T14:22:54.000Z</time>
</trkpt>
<trkpt lat="57.474124" lon="9.805715">
<ele>23.657314</ele>
<time>2026-07-16T14:22:55.000Z</time>
</trkpt>
<trkpt lat="57.474137" lon="9.805808">
<ele>23.668936</ele>
<time>2026-07-16T14:22:56.000Z</time>
</trkpt>
<trkpt lat="57.474148" lon="9.805901">
<ele>23.680453</ele>
<time>2026-07-16T14:22:57.000Z</time>
</trkpt>
<trkpt lat="57.474162" lon="9.805986">
<ele>23.691205</ele>
<time>2026-07-16T14:22:58.000Z</time>
</trkpt>
<trkpt lat="57.474175" lon="9.806071">
<ele>23.701893</ele>
<time>2026-07-16T14:22:59.000Z</time>
</trkpt>
<trkpt lat="57.474190" lon="9.806155">
<ele>23.712598</ele>
<time>2026-07-16T14:23:00.000Z</time>
</trkpt>
<trkpt lat="57.474199" lon="9.806234">
<ele>23.722365</ele>
<time>2026-07-16T14:23:01.000Z</time>
</trkpt>
<trkpt lat="57.474207" lon="9.806315">
<ele>23.732325</ele>
<time>2026-07-16T14:23:02.000Z</time>
</trkpt>
<trkpt lat="57.474214" lon="9.806392">
<ele>23.741770</ele>
<time>2026-07-16T14:23:03.000Z</time>
</trkpt>
<trkpt lat="57.474219" lon="9.806473">
<ele>23.751631</ele>
<time>2026-07-16T14:23:04.000Z</time>
</trkpt>
<trkpt lat="57.474223" lon="9.806547">
<ele>23.760626</ele>
<time>2026-07-16T14:23:05.000Z</time>
</trkpt>
<trkpt lat="57.474227" lon="9.806623">
<ele>23.769861</ele>
<time>2026-07-16T14:23:06.000Z</time>
</trkpt>
<trkpt lat="57.474231" lon="9.806689">
<ele>23.777894</ele>
<time>2026-07-16T14:23:07.000Z</time>
</trkpt>
<trkpt lat="57.474240" lon="9.806740">
<ele>23.784386</ele>
<time>2026-07-16T14:23:08.000Z</time>
</trkpt>
<trkpt lat="57.474251" lon="9.806783">
<ele>23.790145</ele>
<time>2026-07-16T14:23:09.000Z</time>
</trkpt>
<trkpt lat="57.474265" lon="9.806818">
<ele>23.795421</ele>
<time>2026-07-16T14:23:10.000Z</time>
</trkpt>
<trkpt lat="57.474290" lon="9.806833">
<ele>23.801330</ele>
<time>2026-07-16T14:23:11.000Z</time>
</trkpt>
<trkpt lat="57.474324" lon="9.806829">
<ele>23.808993</ele>
<time>2026-07-16T14:23:12.000Z</time>
</trkpt>
<trkpt lat="57.474361" lon="9.806817">
<ele>23.817441</ele>
<time>2026-07-16T14:23:13.000Z</time>
</trkpt>
<trkpt lat="57.474403" lon="9.806799">
<ele>23.827136</ele>
<time>2026-07-16T14:23:14.000Z</time>
</trkpt>
<trkpt lat="57.474444" lon="9.806777">
<ele>23.836735</ele>
<time>2026-07-16T14:23:15.000Z</time>
</trkpt>
<trkpt lat="57.474489" lon="9.806752">
<ele>23.847299</ele>
<time>2026-07-16T14:23:16.000Z</time>
</trkpt>
<trkpt lat="57.474536" lon="9.806729">
<ele>23.858231</ele>
<time>2026-07-16T14:23:17.000Z</time>
</trkpt>
<trkpt lat="57.474585" lon="9.806708">
<ele>23.869542</ele>
<time>2026-07-16T14:23:18.000Z</time>
</trkpt>
<trkpt lat="57.474631" lon="9.806685">
<ele>23.880256</ele>
<time>2026-07-16T14:23:19.000Z</time>
</trkpt>
<trkpt lat="57.474679" lon="9.806665">
<ele>23.891321</ele>
<time>2026-07-16T14:23:20.000Z</time>
</trkpt>
<trkpt lat="57.474732" lon="9.806641">
<ele>23.903591</ele>
<time>2026-07-16T14:23:21.000Z</time>
</trkpt>
<trkpt lat="57.474783" lon="9.806617">
<ele>23.906790</ele>
<time>2026-07-16T14:23:22.000Z</time>
</trkpt>
<trkpt lat="57.474835" lon="9.806593">
<ele>23.863255</ele>
<time>2026-07-16T14:23:23.000Z</time>
</trkpt>
<trkpt lat="57.474886" lon="9.806567">
<ele>23.820287</ele>
<time>2026-07-16T14:23:24.000Z</time>
</trkpt>
<trkpt lat="57.474938" lon="9.806543">
<ele>23.776753</ele>
<time>2026-07-16T14:23:25.000Z</time>
</trkpt>
<trkpt lat="57.474994" lon="9.806519">
<ele>23.730057</ele>
<time>2026-07-16T14:23:26.000Z</time>
</trkpt>
<trkpt lat="57.475048" lon="9.806494">
<ele>23.684841</ele>
<time>2026-07-16T14:23:27.000Z</time>
</trkpt>
<trkpt lat="57.475102" lon="9.806469">
<ele>23.639624</ele>
<time>2026-07-16T14:23:28.000Z</time>
</trkpt>
<trkpt lat="57.475156" lon="9.806442">
<ele>23.594188</ele>
<time>2026-07-16T14:23:29.000Z</time>
</trkpt>
<trkpt lat="57.475212" lon="9.806417">
<ele>23.547393</ele>
<time>2026-07-16T14:23:30.000Z</time>
</trkpt>
<trkpt lat="57.475266" lon="9.806392">
<ele>23.502176</ele>
<time>2026-07-16T14:23:31.000Z</time>
</trkpt>
<trkpt lat="57.475319" lon="9.806369">
<ele>23.457955</ele>
<time>2026-07-16T14:23:32.000Z</time>
</trkpt>
<trkpt lat="57.475375" lon="9.806349">
<ele>23.411620</ele>
<time>2026-07-16T14:23:33.000Z</time>
</trkpt>
<trkpt lat="57.475430" lon="9.806331">
<ele>23.366243</ele>
<time>2026-07-16T14:23:34.000Z</time>
</trkpt>
<trkpt lat="57.475486" lon="9.806317">
<ele>23.320331</ele>
<time>2026-07-16T14:23:35.000Z</time>
</trkpt>
<trkpt lat="57.475544" lon="9.806304">
<ele>23.272863</ele>
<time>2026-07-16T14:23:36.000Z</time>
</trkpt>
<trkpt lat="57.475601" lon="9.806289">
<ele>23.226086</ele>
<time>2026-07-16T14:23:37.000Z</time>
</trkpt>
<trkpt lat="57.475656" lon="9.806278">
<ele>23.181138</ele>
<time>2026-07-16T14:23:38.000Z</time>
</trkpt>
<trkpt lat="57.475712" lon="9.806269">
<ele>23.135466</ele>
<time>2026-07-16T14:23:39.000Z</time>
</trkpt>
<trkpt lat="57.475769" lon="9.806262">
<ele>23.089049</ele>
<time>2026-07-16T14:23:40.000Z</time>
</trkpt>
<trkpt lat="57.475829" lon="9.806257">
<ele>23.040247</ele>
<time>2026-07-16T14:23:41.000Z</time>
</trkpt>
<trkpt lat="57.475890" lon="9.806253">
<ele>22.990651</ele>
<time>2026-07-16T14:23:42.000Z</time>
</trkpt>
<trkpt lat="57.475953" lon="9.806248">
<ele>22.939414</ele>
<time>2026-07-16T14:23:43.000Z</time>
</trkpt>
<trkpt lat="57.476013" lon="9.806243">
<ele>22.890612</ele>
<time>2026-07-16T14:23:44.000Z</time>
</trkpt>
<trkpt lat="57.476073" lon="9.806234">
<ele>22.841700</ele>
<time>2026-07-16T14:23:45.000Z</time>
</trkpt>
<trkpt lat="57.476137" lon="9.806229">
<ele>22.789651</ele>
<time>2026-07-16T14:23:46.000Z</time>
</trkpt>
<trkpt lat="57.476205" lon="9.806227">
<ele>22.734391</ele>
<time>2026-07-16T14:23:47.000Z</time>
</trkpt>
<trkpt lat="57.476270" lon="9.806224">
<ele>22.681559</ele>
<time>2026-07-16T14:23:48.000Z</time>
</trkpt>
<trkpt lat="57.476337" lon="9.806218">
<ele>22.627055</ele>
<time>2026-07-16T14:23:49.000Z</time>
</trkpt>
<trkpt lat="57.476408" lon="9.806213">
<ele>22.569322</ele>
<time>2026-07-16T14:23:50.000Z</time>
</trkpt>
<trkpt lat="57.476478" lon="9.806207">
<ele>22.512384</ele>
<time>2026-07-16T14:23:51.000Z</time>
</trkpt>
<trkpt lat="57.476548" lon="9.806200">
<ele>22.455423</ele>
<time>2026-07-16T14:23:52.000Z</time>
</trkpt>
<trkpt lat="57.476614" lon="9.806191">
<ele>22.365925</ele>
<time>2026-07-16T14:23:53.000Z</time>
</trkpt>
<trkpt lat="57.476681" lon="9.806184">
<ele>22.272758</ele>
<time>2026-07-16T14:23:54.000Z</time>
</trkpt>
<trkpt lat="57.476750" lon="9.806181">
<ele>22.176934</ele>
<time>2026-07-16T14:23:55.000Z</time>
</trkpt>
<trkpt lat="57.476819" lon="9.806177">
<ele>22.081089</ele>
<time>2026-07-16T14:23:56.000Z</time>
</trkpt>
<trkpt lat="57.476887" lon="9.806170">
<ele>21.986536</ele>
<time>2026-07-16T14:23:57.000Z</time>
</trkpt>
<trkpt lat="57.476959" lon="9.806165">
<ele>21.886503</ele>
<time>2026-07-16T14:23:58.000Z</time>
</trkpt>
<trkpt lat="57.477024" lon="9.806160">
<ele>21.796182</ele>
<time>2026-07-16T14:23:59.000Z</time>
</trkpt>
<trkpt lat="57.477092" lon="9.806156">
<ele>21.701725</ele>
<time>2026-07-16T14:24:00.000Z</time>
</trkpt>
<trkpt lat="57.477165" lon="9.806149">
<ele>21.600240</ele>
<time>2026-07-16T14:24:01.000Z</time>
</trkpt>
<trkpt lat="57.477235" lon="9.806143">
<ele>21.502950</ele>
<time>2026-07-16T14:24:02.000Z</time>
</trkpt>
<trkpt lat="57.477303" lon="9.806138">
<ele>21.408467</ele>
<time>2026-07-16T14:24:03.000Z</time>
</trkpt>
<trkpt lat="57.477368" lon="9.806132">
<ele>21.318112</ele>
<time>2026-07-16T14:24:04.000Z</time>
</trkpt>
<trkpt lat="57.477434" lon="9.806123">
<ele>21.226234</ele>
<time>2026-07-16T14:24:05.000Z</time>
</trkpt>
<trkpt lat="57.477499" lon="9.806114">
<ele>21.135740</ele>
<time>2026-07-16T14:24:06.000Z</time>
</trkpt>
<trkpt lat="57.477567" lon="9.806106">
<ele>21.041142</ele>
<time>2026-07-16T14:24:07.000Z</time>
</trkpt>
<trkpt lat="57.477632" lon="9.806100">
<ele>20.950787</ele>
<time>2026-07-16T14:24:08.000Z</time>
</trkpt>
<trkpt lat="57.477699" lon="9.806093">
<ele>20.857619</ele>
<time>2026-07-16T14:24:09.000Z</time>
</trkpt>
<trkpt lat="57.477765" lon="9.806088">
<ele>20.765911</ele>
<time>2026-07-16T14:24:10.000Z</time>
</trkpt>
<trkpt lat="57.477831" lon="9.806082">
<ele>20.674169</ele>
<time>2026-07-16T14:24:11.000Z</time>
</trkpt>
<trkpt lat="57.477898" lon="9.806076">
<ele>20.581040</ele>
<time>2026-07-16T14:24:12.000Z</time>
</trkpt>
<trkpt lat="57.477964" lon="9.806072">
<ele>20.489359</ele>
<time>2026-07-16T14:24:13.000Z</time>
</trkpt>
<trkpt lat="57.478026" lon="9.806068">
<ele>20.403228</ele>
<time>2026-07-16T14:24:14.000Z</time>
</trkpt>
<trkpt lat="57.478098" lon="9.806062">
<ele>20.303165</ele>
<time>2026-07-16T14:24:15.000Z</time>
</trkpt>
<trkpt lat="57.478168" lon="9.806054">
<ele>20.205795</ele>
<time>2026-07-16T14:24:16.000Z</time>
</trkpt>
<trkpt lat="57.478236" lon="9.806043">
<ele>20.111030</ele>
<time>2026-07-16T14:24:17.000Z</time>
</trkpt>
<trkpt lat="57.478303" lon="9.806030">
<ele>20.017504</ele>
<time>2026-07-16T14:24:18.000Z</time>
</trkpt>
<trkpt lat="57.478368" lon="9.806018">
<ele>19.947997</ele>
<time>2026-07-16T14:24:19.000Z</time>
</trkpt>
<trkpt lat="57.478433" lon="9.806012">
<ele>19.925840</ele>
<time>2026-07-16T14:24:20.000Z</time>
</trkpt>
<trkpt lat="57.478495" lon="9.806015">
<ele>19.904726</ele>
<time>2026-07-16T14:24:21.000Z</time>
</trkpt>
<trkpt lat="57.478556" lon="9.806019">
<ele>19.883945</ele>
<time>2026-07-16T14:24:22.000Z</time>
</trkpt>
<trkpt lat="57.478622" lon="9.806021">
<ele>19.861473</ele>
<time>2026-07-16T14:24:23.000Z</time>
</trkpt>
<trkpt lat="57.478684" lon="9.806019">
<ele>19.840362</ele>
<time>2026-07-16T14:24:24.000Z</time>
</trkpt>
<trkpt lat="57.478752" lon="9.806015">
<ele>19.817200</ele>
<time>2026-07-16T14:24:25.000Z</time>
</trkpt>
<trkpt lat="57.478821" lon="9.806012">
<ele>19.793703</ele>
<time>2026-07-16T14:24:26.000Z</time>
</trkpt>
<trkpt lat="57.478887" lon="9.806014">
<ele>19.771231</ele>
<time>2026-07-16T14:24:27.000Z</time>
</trkpt>
<trkpt lat="57.478952" lon="9.806022">
<ele>19.749053</ele>
<time>2026-07-16T14:24:28.000Z</time>
</trkpt>
<trkpt lat="57.479018" lon="9.806037">
<ele>19.726417</ele>
<time>2026-07-16T14:24:29.000Z</time>
</trkpt>
<trkpt lat="57.479087" lon="9.806055">
<ele>19.702696</ele>
<time>2026-07-16T14:24:30.000Z</time>
</trkpt>
<trkpt lat="57.479154" lon="9.806073">
<ele>19.679650</ele>
<time>2026-07-16T14:24:31.000Z</time>
</trkpt>
<trkpt lat="57.479219" lon="9.806095">
<ele>19.657157</ele>
<time>2026-07-16T14:24:32.000Z</time>
</trkpt>
<trkpt lat="57.479287" lon="9.806123">
<ele>19.633446</ele>
<time>2026-07-16T14:24:33.000Z</time>
</trkpt>
<trkpt lat="57.479352" lon="9.806153">
<ele>19.610646</ele>
<time>2026-07-16T14:24:34.000Z</time>
</trkpt>
<trkpt lat="57.479416" lon="9.806184">
<ele>19.588131</ele>
<time>2026-07-16T14:24:35.000Z</time>
</trkpt>
<trkpt lat="57.479479" lon="9.806217">
<ele>19.565849</ele>
<time>2026-07-16T14:24:36.000Z</time>
</trkpt>
<trkpt lat="57.479543" lon="9.806251">
<ele>19.543189</ele>
<time>2026-07-16T14:24:37.000Z</time>
</trkpt>
<trkpt lat="57.479611" lon="9.806281">
<ele>19.519397</ele>
<time>2026-07-16T14:24:38.000Z</time>
</trkpt>
<trkpt lat="57.479676" lon="9.806307">
<ele>19.496762</ele>
<time>2026-07-16T14:24:39.000Z</time>
</trkpt>
<trkpt lat="57.479742" lon="9.806327">
<ele>19.473996</ele>
<time>2026-07-16T14:24:40.000Z</time>
</trkpt>
<trkpt lat="57.479809" lon="9.806339">
<ele>19.451081</ele>
<time>2026-07-16T14:24:41.000Z</time>
</trkpt>
<trkpt lat="57.479878" lon="9.806344">
<ele>19.427572</ele>
<time>2026-07-16T14:24:42.000Z</time>
</trkpt>
<trkpt lat="57.479947" lon="9.806344">
<ele>19.404081</ele>
<time>2026-07-16T14:24:43.000Z</time>
</trkpt>
<trkpt lat="57.480018" lon="9.806338">
<ele>19.379885</ele>
<time>2026-07-16T14:24:44.000Z</time>
</trkpt>
<trkpt lat="57.480089" lon="9.806327">
<ele>19.355629</ele>
<time>2026-07-16T14:24:45.000Z</time>
</trkpt>
<trkpt lat="57.480161" lon="9.806314">
<ele>19.215482</ele>
<time>2026-07-16T14:24:46.000Z</time>
</trkpt>
<trkpt lat="57.480235" lon="9.806295">
<ele>18.935344</ele>
<time>2026-07-16T14:24:47.000Z</time>
</trkpt>
<trkpt lat="57.480305" lon="9.806270">
<ele>18.668042</ele>
<time>2026-07-16T14:24:48.000Z</time>
</trkpt>
<trkpt lat="57.480377" lon="9.806240">
<ele>18.391344</ele>
<time>2026-07-16T14:24:49.000Z</time>
</trkpt>
<trkpt lat="57.480443" lon="9.806208">
<ele>18.135569</ele>
<time>2026-07-16T14:24:50.000Z</time>
</trkpt>
<trkpt lat="57.480515" lon="9.806166">
<ele>17.852596</ele>
<time>2026-07-16T14:24:51.000Z</time>
</trkpt>
<trkpt lat="57.480590" lon="9.806118">
<ele>17.555158</ele>
<time>2026-07-16T14:24:52.000Z</time>
</trkpt>
<trkpt lat="57.480661" lon="9.806071">
<ele>17.272544</ele>
<time>2026-07-16T14:24:53.000Z</time>
</trkpt>
<trkpt lat="57.480722" lon="9.806029">
<ele>17.028620</ele>
<time>2026-07-16T14:24:54.000Z</time>
</trkpt>
<trkpt lat="57.480789" lon="9.805982">
<ele>16.760091</ele>
<time>2026-07-16T14:24:55.000Z</time>
</trkpt>
<trkpt lat="57.480856" lon="9.805935">
<ele>16.491563</ele>
<time>2026-07-16T14:24:56.000Z</time>
</trkpt>
<trkpt lat="57.480918" lon="9.805886">
<ele>16.238942</ele>
<time>2026-07-16T14:24:57.000Z</time>
</trkpt>
<trkpt lat="57.480975" lon="9.805835">
<ele>16.001745</ele>
<time>2026-07-16T14:24:58.000Z</time>
</trkpt>
<trkpt lat="57.481035" lon="9.805774">
<ele>15.745326</ele>
<time>2026-07-16T14:24:59.000Z</time>
</trkpt>
<trkpt lat="57.481094" lon="9.805708">
<ele>15.487145</ele>
<time>2026-07-16T14:25:00.000Z</time>
</trkpt>
<trkpt lat="57.481151" lon="9.805639">
<ele>15.232114</ele>
<time>2026-07-16T14:25:01.000Z</time>
</trkpt>
<trkpt lat="57.481206" lon="9.805563">
<ele>14.975179</ele>
<time>2026-07-16T14:25:02.000Z</time>
</trkpt>
<trkpt lat="57.481265" lon="9.805481">
<ele>14.698989</ele>
<time>2026-07-16T14:25:03.000Z</time>
</trkpt>
<trkpt lat="57.481323" lon="9.805397">
<ele>14.423335</ele>
<time>2026-07-16T14:25:04.000Z</time>
</trkpt>
<trkpt lat="57.481381" lon="9.805313">
<ele>14.147681</ele>
<time>2026-07-16T14:25:05.000Z</time>
</trkpt>
<trkpt lat="57.481441" lon="9.805226">
<ele>13.862394</ele>
<time>2026-07-16T14:25:06.000Z</time>
</trkpt>
<trkpt lat="57.481505" lon="9.805141">
<ele>13.567495</ele>
<time>2026-07-16T14:25:07.000Z</time>
</trkpt>
<trkpt lat="57.481566" lon="9.805055">
<ele>13.280463</ele>
<time>2026-07-16T14:25:08.000Z</time>
</trkpt>
<trkpt lat="57.481623" lon="9.804973">
<ele>13.010245</ele>
<time>2026-07-16T14:25:09.000Z</time>
</trkpt>
<trkpt lat="57.481676" lon="9.804894">
<ele>12.755555</ele>
<time>2026-07-16T14:25:10.000Z</time>
</trkpt>
<trkpt lat="57.481732" lon="9.804814">
<ele>12.497918</ele>
<time>2026-07-16T14:25:11.000Z</time>
</trkpt>
<trkpt lat="57.481783" lon="9.804743">
<ele>12.275045</ele>
<time>2026-07-16T14:25:12.000Z</time>
</trkpt>
<trkpt lat="57.481833" lon="9.804683">
<ele>12.066867</ele>
<time>2026-07-16T14:25:13.000Z</time>
</trkpt>
<trkpt lat="57.481886" lon="9.804639">
<ele>11.863805</ele>
<time>2026-07-16T14:25:14.000Z</time>
</trkpt>
<trkpt lat="57.481941" lon="9.804618">
<ele>11.667361</ele>
<time>2026-07-16T14:25:15.000Z</time>
</trkpt>
<trkpt lat="57.482001" lon="9.804631">
<ele>11.456017</ele>
<time>2026-07-16T14:25:16.000Z</time>
</trkpt>
<trkpt lat="57.482054" lon="9.804681">
<ele>11.248100</ele>
<time>2026-07-16T14:25:17.000Z</time>
</trkpt>
<trkpt lat="57.482092" lon="9.804770">
<ele>11.034333</ele>
<time>2026-07-16T14:25:18.000Z</time>
</trkpt>
<trkpt lat="57.482121" lon="9.804875">
<ele>10.812308</ele>
<time>2026-07-16T14:25:19.000Z</time>
</trkpt>
<trkpt lat="57.482145" lon="9.804978">
<ele>10.601170</ele>
<time>2026-07-16T14:25:20.000Z</time>
</trkpt>
<trkpt lat="57.482178" lon="9.805094">
<ele>10.354329</ele>
<time>2026-07-16T14:25:21.000Z</time>
</trkpt>
<trkpt lat="57.482214" lon="9.805211">
<ele>10.100778</ele>
<time>2026-07-16T14:25:22.000Z</time>
</trkpt>
<trkpt lat="57.482249" lon="9.805326">
<ele>9.852227</ele>
<time>2026-07-16T14:25:23.000Z</time>
</trkpt>
<trkpt lat="57.482286" lon="9.805437">
<ele>9.606580</ele>
<time>2026-07-16T14:25:24.000Z</time>
</trkpt>
<trkpt lat="57.482322" lon="9.805537">
<ele>9.380221</ele>
<time>2026-07-16T14:25:25.000Z</time>
</trkpt>
<trkpt lat="57.482356" lon="9.805646">
<ele>9.143201</ele>
<time>2026-07-16T14:25:26.000Z</time>
</trkpt>
<trkpt lat="57.482387" lon="9.805758">
<ele>8.906269</ele>
<time>2026-07-16T14:25:27.000Z</time>
</trkpt>
<trkpt lat="57.482409" lon="9.805879">
<ele>8.666029</ele>
<time>2026-07-16T14:25:28.000Z</time>
</trkpt>
<trkpt lat="57.482423" lon="9.806005">
<ele>8.424040</ele>
<time>2026-07-16T14:25:29.000Z</time>
</trkpt>
<trkpt lat="57.482430" lon="9.806109">
<ele>8.226911</ele>
<time>2026-07-16T14:25:30.000Z</time>
</trkpt>
<trkpt lat="57.482438" lon="9.806237">
<ele>7.984549</ele>
<time>2026-07-16T14:25:31.000Z</time>
</trkpt>
<trkpt lat="57.482446" lon="9.806373">
<ele>7.727235</ele>
<time>2026-07-16T14:25:32.000Z</time>
</trkpt>
<trkpt lat="57.482454" lon="9.806483">
<ele>7.518464</ele>
<time>2026-07-16T14:25:33.000Z</time>
</trkpt>
<trkpt lat="57.482459" lon="9.806585">
<ele>7.325828</ele>
<time>2026-07-16T14:25:34.000Z</time>
</trkpt>
<trkpt lat="57.482460" lon="9.806678">
<ele>7.150880</ele>
<time>2026-07-16T14:25:35.000Z</time>
</trkpt>
<trkpt lat="57.482457" lon="9.806761">
<ele>6.994423</ele>
<time>2026-07-16T14:25:36.000Z</time>
</trkpt>
<trkpt lat="57.482454" lon="9.806838">
<ele>6.849222</ele>
<time>2026-07-16T14:25:37.000Z</time>
</trkpt>
<trkpt lat="57.482452" lon="9.806907">
<ele>6.719260</ele>
<time>2026-07-16T14:25:38.000Z</time>
</trkpt>
<trkpt lat="57.482452" lon="9.806991">
<ele>6.561274</ele>
<time>2026-07-16T14:25:39.000Z</time>
</trkpt>
<trkpt lat="57.482452" lon="9.807066">
<ele>6.420215</ele>
<time>2026-07-16T14:25:40.000Z</time>
</trkpt>
<trkpt lat="57.482455" lon="9.807152">
<ele>6.300037</ele>
<time>2026-07-16T14:25:41.000Z</time>
</trkpt>
<trkpt lat="57.482462" lon="9.807245">
<ele>6.283284</ele>
<time>2026-07-16T14:25:42.000Z</time>
</trkpt>
<trkpt lat="57.482472" lon="9.807336">
<ele>6.266714</ele>
<time>2026-07-16T14:25:43.000Z</time>
</trkpt>
<trkpt lat="57.482486" lon="9.807434">
<ele>6.248623</ele>
<time>2026-07-16T14:25:44.000Z</time>
</trkpt>
<trkpt lat="57.482503" lon="9.807531">
<ele>6.230422</ele>
<time>2026-07-16T14:25:45.000Z</time>
</trkpt>
<trkpt lat="57.482520" lon="9.807637">
<ele>6.210688</ele>
<time>2026-07-16T14:25:46.000Z</time>
</trkpt>
<trkpt lat="57.482540" lon="9.807736">
<ele>6.191820</ele>
<time>2026-07-16T14:25:47.000Z</time>
</trkpt>
<trkpt lat="57.482558" lon="9.807838">
<ele>6.172668</ele>
<time>2026-07-16T14:25:48.000Z</time>
</trkpt>
<trkpt lat="57.482574" lon="9.807941">
<ele>6.153541</ele>
<time>2026-07-16T14:25:49.000Z</time>
</trkpt>
<trkpt lat="57.482589" lon="9.808043">
<ele>6.134676</ele>
<time>2026-07-16T14:25:50.000Z</time>
</trkpt>
<trkpt lat="57.482601" lon="9.808146">
<ele>6.115874</ele>
<time>2026-07-16T14:25:51.000Z</time>
</trkpt>
<trkpt lat="57.482610" lon="9.808249">
<ele>6.097257</ele>
<time>2026-07-16T14:25:52.000Z</time>
</trkpt>
<trkpt lat="57.482615" lon="9.808352">
<ele>6.078807</ele>
<time>2026-07-16T14:25:53.000Z</time>
</trkpt>
<trkpt lat="57.482619" lon="9.808452">
<ele>6.060918</ele>
<time>2026-07-16T14:25:54.000Z</time>
</trkpt>
<trkpt lat="57.482628" lon="9.808544">
<ele>6.044236</ele>
<time>2026-07-16T14:25:55.000Z</time>
</trkpt>
<trkpt lat="57.482640" lon="9.808641">
<ele>6.026479</ele>
<time>2026-07-16T14:25:56.000Z</time>
</trkpt>
<trkpt lat="57.482654" lon="9.808737">
<ele>6.008733</ele>
<time>2026-07-16T14:25:57.000Z</time>
</trkpt>
<trkpt lat="57.482668" lon="9.808829">
<ele>5.991675</ele>
<time>2026-07-16T14:25:58.000Z</time>
</trkpt>
<trkpt lat="57.482687" lon="9.808929">
<ele>5.972754</ele>
<time>2026-07-16T14:25:59.000Z</time>
</trkpt>
<trkpt lat="57.482701" lon="9.809016">
<ele>5.956553</ele>
<time>2026-07-16T14:26:00.000Z</time>
</trkpt>
<trkpt lat="57.482715" lon="9.809120">
<ele>5.937426</ele>
<time>2026-07-16T14:26:01.000Z</time>
</trkpt>
<trkpt lat="57.482730" lon="9.809236">
<ele>5.916141</ele>
<time>2026-07-16T14:26:02.000Z</time>
</trkpt>
<trkpt lat="57.482743" lon="9.809340">
<ele>5.897093</ele>
<time>2026-07-16T14:26:03.000Z</time>
</trkpt>
<trkpt lat="57.482757" lon="9.809446">
<ele>5.877620</ele>
<time>2026-07-16T14:26:04.000Z</time>
</trkpt>
<trkpt lat="57.482774" lon="9.809547">
<ele>5.858739</ele>
<time>2026-07-16T14:26:05.000Z</time>
</trkpt>
<trkpt lat="57.482793" lon="9.809652">
<ele>5.838974</ele>
<time>2026-07-16T14:26:06.000Z</time>
</trkpt>
<trkpt lat="57.482818" lon="9.809751">
<ele>5.819461</ele>
<time>2026-07-16T14:26:07.000Z</time>
</trkpt>
<trkpt lat="57.482848" lon="9.809848">
<ele>5.799497</ele>
<time>2026-07-16T14:26:08.000Z</time>
</trkpt>
<trkpt lat="57.482875" lon="9.809931">
<ele>5.782190</ele>
<time>2026-07-16T14:26:09.000Z</time>
</trkpt>
<trkpt lat="57.482908" lon="9.810022">
<ele>5.762607</ele>
<time>2026-07-16T14:26:10.000Z</time>
</trkpt>
<trkpt lat="57.482946" lon="9.810116">
<ele>5.741624</ele>
<time>2026-07-16T14:26:11.000Z</time>
</trkpt>
<trkpt lat="57.482980" lon="9.810198">
<ele>5.723149</ele>
<time>2026-07-16T14:26:12.000Z</time>
</trkpt>
<trkpt lat="57.483017" lon="9.810278">
<ele>5.705689</ele>
<time>2026-07-16T14:26:13.000Z</time>
</trkpt>
<trkpt lat="57.483052" lon="9.810359">
<ele>5.695103</ele>
<time>2026-07-16T14:26:14.000Z</time>
</trkpt>
<trkpt lat="57.483084" lon="9.810445">
<ele>5.684449</ele>
<time>2026-07-16T14:26:15.000Z</time>
</trkpt>
<trkpt lat="57.483112" lon="9.810537">
<ele>5.673680</ele>
<time>2026-07-16T14:26:16.000Z</time>
</trkpt>
<trkpt lat="57.483139" lon="9.810632">
<ele>5.662733</ele>
<time>2026-07-16T14:26:17.000Z</time>
</trkpt>
<trkpt lat="57.483168" lon="9.810723">
<ele>5.651957</ele>
<time>2026-07-16T14:26:18.000Z</time>
</trkpt>
<trkpt lat="57.483199" lon="9.810814">
<ele>5.640983</ele>
<time>2026-07-16T14:26:19.000Z</time>
</trkpt>
<trkpt lat="57.483232" lon="9.810901">
<ele>5.630137</ele>
<time>2026-07-16T14:26:20.000Z</time>
</trkpt>
<trkpt lat="57.483269" lon="9.810985">
<ele>5.619075</ele>
<time>2026-07-16T14:26:21.000Z</time>
</trkpt>
<trkpt lat="57.483312" lon="9.811064">
<ele>5.607622</ele>
<time>2026-07-16T14:26:22.000Z</time>
</trkpt>
<trkpt lat="57.483361" lon="9.811132">
<ele>5.596038</ele>
<time>2026-07-16T14:26:23.000Z</time>
</trkpt>
<trkpt lat="57.483415" lon="9.811185">
<ele>5.584469</ele>
<time>2026-07-16T14:26:24.000Z</time>
</trkpt>
<trkpt lat="57.483472" lon="9.811221">
<ele>5.573062</ele>
<time>2026-07-16T14:26:25.000Z</time>
</trkpt>
<trkpt lat="57.483534" lon="9.811244">
<ele>5.561082</ele>
<time>2026-07-16T14:26:26.000Z</time>
</trkpt>
<trkpt lat="57.483591" lon="9.811262">
<ele>5.550126</ele>
<time>2026-07-16T14:26:27.000Z</time>
</trkpt>
<trkpt lat="57.483637" lon="9.811283">
<ele>5.541151</ele>
<time>2026-07-16T14:26:28.000Z</time>
</trkpt>
<trkpt lat="57.483689" lon="9.811323">
<ele>5.530488</ele>
<time>2026-07-16T14:26:29.000Z</time>
</trkpt>
<trkpt lat="57.483723" lon="9.811412">
<ele>5.519366</ele>
<time>2026-07-16T14:26:30.000Z</time>
</trkpt>
<trkpt lat="57.483743" lon="9.811510">
<ele>5.508688</ele>
<time>2026-07-16T14:26:31.000Z</time>
</trkpt>
<trkpt lat="57.483765" lon="9.811608">
<ele>5.497870</ele>
<time>2026-07-16T14:26:32.000Z</time>
</trkpt>
<trkpt lat="57.483781" lon="9.811706">
<ele>5.487437</ele>
<time>2026-07-16T14:26:33.000Z</time>
</trkpt>
<trkpt lat="57.483784" lon="9.811807">
<ele>5.477134</ele>
<time>2026-07-16T14:26:34.000Z</time>
</trkpt>
<trkpt lat="57.483784" lon="9.811923">
<ele>5.465318</ele>
<time>2026-07-16T14:26:35.000Z</time>
</trkpt>
<trkpt lat="57.483786" lon="9.812022">
<ele>5.455226</ele>
<time>2026-07-16T14:26:36.000Z</time>
</trkpt>
<trkpt lat="57.483779" lon="9.812124">
<ele>5.444752</ele>
<time>2026-07-16T14:26:37.000Z</time>
</trkpt>
<trkpt lat="57.483760" lon="9.812244">
<ele>5.432010</ele>
<time>2026-07-16T14:26:38.000Z</time>
</trkpt>
<trkpt lat="57.483742" lon="9.812362">
<ele>5.419515</ele>
<time>2026-07-16T14:26:39.000Z</time>
</trkpt>
<trkpt lat="57.483725" lon="9.812468">
<ele>5.408248</ele>
<time>2026-07-16T14:26:40.000Z</time>
</trkpt>
<trkpt lat="57.483706" lon="9.812584">
<ele>5.395895</ele>
<time>2026-07-16T14:26:41.000Z</time>
</trkpt>
<trkpt lat="57.483683" lon="9.812697">
<ele>5.383588</ele>
<time>2026-07-16T14:26:42.000Z</time>
</trkpt>
<trkpt lat="57.483660" lon="9.812796">
<ele>5.372602</ele>
<time>2026-07-16T14:26:43.000Z</time>
</trkpt>
<trkpt lat="57.483641" lon="9.812889">
<ele>5.369697</ele>
<time>2026-07-16T14:26:44.000Z</time>
</trkpt>
<trkpt lat="57.483619" lon="9.812986">
<ele>5.377410</ele>
<time>2026-07-16T14:26:45.000Z</time>
</trkpt>
<trkpt lat="57.483601" lon="9.813078">
<ele>5.384581</ele>
<time>2026-07-16T14:26:46.000Z</time>
</trkpt>
<trkpt lat="57.483594" lon="9.813166">
<ele>5.391098</ele>
<time>2026-07-16T14:26:47.000Z</time>
</trkpt>
<trkpt lat="57.483585" lon="9.813251">
<ele>5.397444</ele>
<time>2026-07-16T14:26:48.000Z</time>
</trkpt>
<trkpt lat="57.483573" lon="9.813330">
<ele>5.403458</ele>
<time>2026-07-16T14:26:49.000Z</time>
</trkpt>
<trkpt lat="57.483562" lon="9.813411">
<ele>5.409578</ele>
<time>2026-07-16T14:26:50.000Z</time>
</trkpt>
<trkpt lat="57.483556" lon="9.813481">
<ele>5.414771</ele>
<time>2026-07-16T14:26:51.000Z</time>
</trkpt>
<trkpt lat="57.483557" lon="9.813562">
<ele>5.420706</ele>
<time>2026-07-16T14:26:52.000Z</time>
</trkpt>
<trkpt lat="57.483572" lon="9.813645">
<ele>5.427120</ele>
<time>2026-07-16T14:26:53.000Z</time>
</trkpt>
<trkpt lat="57.483599" lon="9.813725">
<ele>5.434040</ele>
<time>2026-07-16T14:26:54.000Z</time>
</trkpt>
<trkpt lat="57.483630" lon="9.813811">
<ele>5.441625</ele>
<time>2026-07-16T14:26:55.000Z</time>
</trkpt>
<trkpt lat="57.483665" lon="9.813900">
<ele>5.449703</ele>
<time>2026-07-16T14:26:56.000Z</time>
</trkpt>
<trkpt lat="57.483704" lon="9.814005">
<ele>5.459052</ele>
<time>2026-07-16T14:26:57.000Z</time>
</trkpt>
<trkpt lat="57.483745" lon="9.814121">
<ele>5.469222</ele>
<time>2026-07-16T14:26:58.000Z</time>
</trkpt>
<trkpt lat="57.483781" lon="9.814248">
<ele>5.479740</ele>
<time>2026-07-16T14:26:59.000Z</time>
</trkpt>
<trkpt lat="57.483810" lon="9.814376">
<ele>5.489915</ele>
<time>2026-07-16T14:27:00.000Z</time>
</trkpt>
<trkpt lat="57.483828" lon="9.814502">
<ele>5.499465</ele>
<time>2026-07-16T14:27:01.000Z</time>
</trkpt>
<trkpt lat="57.483844" lon="9.814634">
<ele>5.509378</ele>
<time>2026-07-16T14:27:02.000Z</time>
</trkpt>
<trkpt lat="57.483865" lon="9.814760">
<ele>5.519041</ele>
<time>2026-07-16T14:27:03.000Z</time>
</trkpt>
<trkpt lat="57.483894" lon="9.814861">
<ele>5.527429</ele>
<time>2026-07-16T14:27:04.000Z</time>
</trkpt>
<trkpt lat="57.483926" lon="9.814921">
<ele>5.533621</ele>
<time>2026-07-16T14:27:05.000Z</time>
</trkpt>
<trkpt lat="57.483973" lon="9.814962">
<ele>5.540695</ele>
<time>2026-07-16T14:27:06.000Z</time>
</trkpt>
<trkpt lat="57.484033" lon="9.814986">
<ele>5.549058</ele>
<time>2026-07-16T14:27:07.000Z</time>
</trkpt>
<trkpt lat="57.484092" lon="9.815013">
<ele>5.557338</ele>
<time>2026-07-16T14:27:08.000Z</time>
</trkpt>
<trkpt lat="57.484146" lon="9.815058">
<ele>5.565402</ele>
<time>2026-07-16T14:27:09.000Z</time>
</trkpt>
<trkpt lat="57.484191" lon="9.815128">
<ele>5.573396</ele>
<time>2026-07-16T14:27:10.000Z</time>
</trkpt>
<trkpt lat="57.484231" lon="9.815215">
<ele>5.581782</ele>
<time>2026-07-16T14:27:11.000Z</time>
</trkpt>
<trkpt lat="57.484266" lon="9.815309">
<ele>5.590158</ele>
<time>2026-07-16T14:27:12.000Z</time>
</trkpt>
<trkpt lat="57.484298" lon="9.815408">
<ele>5.598620</ele>
<time>2026-07-16T14:27:13.000Z</time>
</trkpt>
<trkpt lat="57.484330" lon="9.815501">
<ele>5.606709</ele>
<time>2026-07-16T14:27:14.000Z</time>
</trkpt>
<trkpt lat="57.484366" lon="9.815582">
<ele>5.610602</ele>
<time>2026-07-16T14:27:15.000Z</time>
</trkpt>
<trkpt lat="57.484408" lon="9.815651">
<ele>5.607154</ele>
<time>2026-07-16T14:27:16.000Z</time>
</trkpt>
<trkpt lat="57.484456" lon="9.815712">
<ele>5.603578</ele>
<time>2026-07-16T14:27:17.000Z</time>
</trkpt>
<trkpt lat="57.484514" lon="9.815774">
<ele>5.599463</ele>
<time>2026-07-16T14:27:18.000Z</time>
</trkpt>
<trkpt lat="57.484569" lon="9.815830">
<ele>5.595605</ele>
<time>2026-07-16T14:27:19.000Z</time>
</trkpt>
<trkpt lat="57.484618" lon="9.815892">
<ele>5.591959</ele>
<time>2026-07-16T14:27:20.000Z</time>
</trkpt>
<trkpt lat="57.484661" lon="9.815963">
<ele>5.588422</ele>
<time>2026-07-16T14:27:21.000Z</time>
</trkpt>
<trkpt lat="57.484700" lon="9.816041">
<ele>5.584899</ele>
<time>2026-07-16T14:27:22.000Z</time>
</trkpt>
<trkpt lat="57.484735" lon="9.816126">
<ele>5.581358</ele>
<time>2026-07-16T14:27:23.000Z</time>
</trkpt>
<trkpt lat="57.484764" lon="9.816216">
<ele>5.577888</ele>
<time>2026-07-16T14:27:24.000Z</time>
</trkpt>
<trkpt lat="57.484786" lon="9.816307">
<ele>5.574589</ele>
<time>2026-07-16T14:27:25.000Z</time>
</trkpt>
<trkpt lat="57.484804" lon="9.816394">
<ele>5.571506</ele>
<time>2026-07-16T14:27:26.000Z</time>
</trkpt>
<trkpt lat="57.484823" lon="9.816487">
<ele>5.568216</ele>
<time>2026-07-16T14:27:27.000Z</time>
</trkpt>
<trkpt lat="57.484842" lon="9.816579">
<ele>5.564956</ele>
<time>2026-07-16T14:27:28.000Z</time>
</trkpt>
<trkpt lat="57.484864" lon="9.816674">
<ele>5.561536</ele>
<time>2026-07-16T14:27:29.000Z</time>
</trkpt>
<trkpt lat="57.484888" lon="9.816760">
<ele>5.558331</ele>
<time>2026-07-16T14:27:30.000Z</time>
</trkpt>
<trkpt lat="57.484916" lon="9.816856">
<ele>5.554719</ele>
<time>2026-07-16T14:27:31.000Z</time>
</trkpt>
<trkpt lat="57.484946" lon="9.816954">
<ele>5.550990</ele>
<time>2026-07-16T14:27:32.000Z</time>
</trkpt>
<trkpt lat="57.484977" lon="9.817043">
<ele>5.547482</ele>
<time>2026-07-16T14:27:33.000Z</time>
</trkpt>
<trkpt lat="57.485013" lon="9.817127">
<ele>5.543930</ele>
<time>2026-07-16T14:27:34.000Z</time>
</trkpt>
<trkpt lat="57.485052" lon="9.817202">
<ele>5.540479</ele>
<time>2026-07-16T14:27:35.000Z</time>
</trkpt>
<trkpt lat="57.485097" lon="9.817270">
<ele>5.536912</ele>
<time>2026-07-16T14:27:36.000Z</time>
</trkpt>
<trkpt lat="57.485142" lon="9.817327">
<ele>5.533563</ele>
<time>2026-07-16T14:27:37.000Z</time>
</trkpt>
<trkpt lat="57.485192" lon="9.817379">
<ele>5.530039</ele>
<time>2026-07-16T14:27:38.000Z</time>
</trkpt>
<trkpt lat="57.485248" lon="9.817419">
<ele>5.526348</ele>
<time>2026-07-16T14:27:39.000Z</time>
</trkpt>
<trkpt lat="57.485303" lon="9.817453">
<ele>5.522783</ele>
<time>2026-07-16T14:27:40.000Z</time>
</trkpt>
<trkpt lat="57.485366" lon="9.817493">
<ele>5.518687</ele>
<time>2026-07-16T14:27:41.000Z</time>
</trkpt>
<trkpt lat="57.485428" lon="9.817536">
<ele>5.514616</ele>
<time>2026-07-16T14:27:42.000Z</time>
</trkpt>
<trkpt lat="57.485491" lon="9.817581">
<ele>5.510464</ele>
<time>2026-07-16T14:27:43.000Z</time>
</trkpt>
<trkpt lat="57.485549" lon="9.817630">
<ele>5.506545</ele>
<time>2026-07-16T14:27:44.000Z</time>
</trkpt>
<trkpt lat="57.485598" lon="9.817683">
<ele>5.503058</ele>
<time>2026-07-16T14:27:45.000Z</time>
</trkpt>
<trkpt lat="57.485649" lon="9.817749">
<ele>5.524069</ele>
<time>2026-07-16T14:27:46.000Z</time>
</trkpt>
<trkpt lat="57.485705" lon="9.817822">
<ele>5.575080</ele>
<time>2026-07-16T14:27:47.000Z</time>
</trkpt>
<trkpt lat="57.485756" lon="9.817894">
<ele>5.622841</ele>
<time>2026-07-16T14:27:48.000Z</time>
</trkpt>
<trkpt lat="57.485799" lon="9.817963">
<ele>5.665204</ele>
<time>2026-07-16T14:27:49.000Z</time>
</trkpt>
<trkpt lat="57.485842" lon="9.818042">
<ele>5.710288</ele>
<time>2026-07-16T14:27:50.000Z</time>
</trkpt>
<trkpt lat="57.485886" lon="9.818130">
<ele>5.758482</ele>
<time>2026-07-16T14:27:51.000Z</time>
</trkpt>
<trkpt lat="57.485930" lon="9.818226">
<ele>5.809072</ele>
<time>2026-07-16T14:27:52.000Z</time>
</trkpt>
<trkpt lat="57.485971" lon="9.818322">
<ele>5.858239</ele>
<time>2026-07-16T14:27:53.000Z</time>
</trkpt>
<trkpt lat="57.486006" lon="9.818423">
<ele>5.906426</ele>
<time>2026-07-16T14:27:54.000Z</time>
</trkpt>
<trkpt lat="57.486035" lon="9.818526">
<ele>5.953051</ele>
<time>2026-07-16T14:27:55.000Z</time>
</trkpt>
<trkpt lat="57.486056" lon="9.818635">
<ele>5.999482</ele>
<time>2026-07-16T14:27:56.000Z</time>
</trkpt>
<trkpt lat="57.486072" lon="9.818748">
<ele>6.046339</ele>
<time>2026-07-16T14:27:57.000Z</time>
</trkpt>
<trkpt lat="57.486082" lon="9.818863">
<ele>6.093052</ele>
<time>2026-07-16T14:27:58.000Z</time>
</trkpt>
<trkpt lat="57.486092" lon="9.818980">
<ele>6.140557</ele>
<time>2026-07-16T14:27:59.000Z</time>
</trkpt>
<trkpt lat="57.486105" lon="9.819078">
<ele>6.181033</ele>
<time>2026-07-16T14:28:00.000Z</time>
</trkpt>
<trkpt lat="57.486128" lon="9.819184">
<ele>6.226870</ele>
<time>2026-07-16T14:28:01.000Z</time>
</trkpt>
<trkpt lat="57.486162" lon="9.819272">
<ele>6.270328</ele>
<time>2026-07-16T14:28:02.000Z</time>
</trkpt>
<trkpt lat="57.486199" lon="9.819340">
<ele>6.309127</ele>
<time>2026-07-16T14:28:03.000Z</time>
</trkpt>
<trkpt lat="57.486238" lon="9.819402">
<ele>6.347397</ele>
<time>2026-07-16T14:28:04.000Z</time>
</trkpt>
<trkpt lat="57.486270" lon="9.819464">
<ele>6.381864</ele>
<time>2026-07-16T14:28:05.000Z</time>
</trkpt>
<trkpt lat="57.486301" lon="9.819529">
<ele>6.416709</ele>
<time>2026-07-16T14:28:06.000Z</time>
</trkpt>
<trkpt lat="57.486328" lon="9.819598">
<ele>6.450932</ele>
<time>2026-07-16T14:28:07.000Z</time>
</trkpt>
<trkpt lat="57.486352" lon="9.819678">
<ele>6.487669</ele>
<time>2026-07-16T14:28:08.000Z</time>
</trkpt>
<trkpt lat="57.486378" lon="9.819769">
<ele>6.528994</ele>
<time>2026-07-16T14:28:09.000Z</time>
</trkpt>
<trkpt lat="57.486401" lon="9.819861">
<ele>6.569680</ele>
<time>2026-07-16T14:28:10.000Z</time>
</trkpt>
<trkpt lat="57.486427" lon="9.819964">
<ele>6.615309</ele>
<time>2026-07-16T14:28:11.000Z</time>
</trkpt>
<trkpt lat="57.486449" lon="9.820072">
<ele>6.661621</ele>
<time>2026-07-16T14:28:12.000Z</time>
</trkpt>
<trkpt lat="57.486468" lon="9.820182">
<ele>6.707951</ele>
<time>2026-07-16T14:28:13.000Z</time>
</trkpt>
<trkpt lat="57.486481" lon="9.820293">
<ele>6.753504</ele>
<time>2026-07-16T14:28:14.000Z</time>
</trkpt>
<trkpt lat="57.486490" lon="9.820403">
<ele>6.798120</ele>
<time>2026-07-16T14:28:15.000Z</time>
</trkpt>
<trkpt lat="57.486495" lon="9.820514">
<ele>6.842786</ele>
<time>2026-07-16T14:28:16.000Z</time>
</trkpt>
<trkpt lat="57.486496" lon="9.820620">
<ele>6.868519</ele>
<time>2026-07-16T14:28:17.000Z</time>
</trkpt>
<trkpt lat="57.486490" lon="9.820723">
<ele>6.893604</ele>
<time>2026-07-16T14:28:18.000Z</time>
</trkpt>
<trkpt lat="57.486486" lon="9.820822">
<ele>6.917642</ele>
<time>2026-07-16T14:28:19.000Z</time>
</trkpt>
<trkpt lat="57.486479" lon="9.820917">
<ele>6.940859</ele>
<time>2026-07-16T14:28:20.000Z</time>
</trkpt>
<trkpt lat="57.486474" lon="9.821010">
<ele>6.963489</ele>
<time>2026-07-16T14:28:21.000Z</time>
</trkpt>
<trkpt lat="57.486468" lon="9.821100">
<ele>6.985448</ele>
<time>2026-07-16T14:28:22.000Z</time>
</trkpt>
<trkpt lat="57.486463" lon="9.821190">
<ele>7.007355</ele>
<time>2026-07-16T14:28:23.000Z</time>
</trkpt>
<trkpt lat="57.486459" lon="9.821283">
<ele>7.029945</ele>
<time>2026-07-16T14:28:24.000Z</time>
</trkpt>
<trkpt lat="57.486461" lon="9.821379">
<ele>7.053206</ele>
<time>2026-07-16T14:28:25.000Z</time>
</trkpt>
<trkpt lat="57.486464" lon="9.821479">
<ele>7.077457</ele>
<time>2026-07-16T14:28:26.000Z</time>
</trkpt>
<trkpt lat="57.486476" lon="9.821577">
<ele>7.101793</ele>
<time>2026-07-16T14:28:27.000Z</time>
</trkpt>
<trkpt lat="57.486495" lon="9.821676">
<ele>7.127245</ele>
<time>2026-07-16T14:28:28.000Z</time>
</trkpt>
<trkpt lat="57.486517" lon="9.821773">
<ele>7.152737</ele>
<time>2026-07-16T14:28:29.000Z</time>
</trkpt>
<trkpt lat="57.486540" lon="9.821869">
<ele>7.178185</ele>
<time>2026-07-16T14:28:30.000Z</time>
</trkpt>
<trkpt lat="57.486562" lon="9.821964">
<ele>7.203231</ele>
<time>2026-07-16T14:28:31.000Z</time>
</trkpt>
<trkpt lat="57.486582" lon="9.822065">
<ele>7.229293</ele>
<time>2026-07-16T14:28:32.000Z</time>
</trkpt>
<trkpt lat="57.486601" lon="9.822166">
<ele>7.255202</ele>
<time>2026-07-16T14:28:33.000Z</time>
</trkpt>
<trkpt lat="57.486617" lon="9.822267">
<ele>7.280697</ele>
<time>2026-07-16T14:28:34.000Z</time>
</trkpt>
<trkpt lat="57.486630" lon="9.822373">
<ele>7.307022</ele>
<time>2026-07-16T14:28:35.000Z</time>
</trkpt>
<trkpt lat="57.486644" lon="9.822479">
<ele>7.333450</ele>
<time>2026-07-16T14:28:36.000Z</time>
</trkpt>
<trkpt lat="57.486657" lon="9.822585">
<ele>7.359775</ele>
<time>2026-07-16T14:28:37.000Z</time>
</trkpt>
<trkpt lat="57.486668" lon="9.822690">
<ele>7.385677</ele>
<time>2026-07-16T14:28:38.000Z</time>
</trkpt>
<trkpt lat="57.486677" lon="9.822792">
<ele>7.410704</ele>
<time>2026-07-16T14:28:39.000Z</time>
</trkpt>
<trkpt lat="57.486685" lon="9.822891">
<ele>7.434943</ele>
<time>2026-07-16T14:28:40.000Z</time>
</trkpt>
<trkpt lat="57.486695" lon="9.822982">
<ele>7.457433</ele>
<time>2026-07-16T14:28:41.000Z</time>
</trkpt>
<trkpt lat="57.486709" lon="9.823064">
<ele>7.478264</ele>
<time>2026-07-16T14:28:42.000Z</time>
</trkpt>
<trkpt lat="57.486724" lon="9.823140">
<ele>7.497867</ele>
<time>2026-07-16T14:28:43.000Z</time>
</trkpt>
<trkpt lat="57.486731" lon="9.823212">
<ele>7.515583</ele>
<time>2026-07-16T14:28:44.000Z</time>
</trkpt>
<trkpt lat="57.486727" lon="9.823281">
<ele>7.532386</ele>
<time>2026-07-16T14:28:45.000Z</time>
</trkpt>
<trkpt lat="57.486714" lon="9.823348">
<ele>7.549633</ele>
<time>2026-07-16T14:28:46.000Z</time>
</trkpt>
<trkpt lat="57.486698" lon="9.823417">
<ele>7.567828</ele>
<time>2026-07-16T14:28:47.000Z</time>
</trkpt>
<trkpt lat="57.486683" lon="9.823487">
<ele>7.586074</ele>
<time>2026-07-16T14:28:48.000Z</time>
</trkpt>
<trkpt lat="57.486679" lon="9.823558">
<ele>7.603359</ele>
<time>2026-07-16T14:28:49.000Z</time>
</trkpt>
<trkpt lat="57.486687" lon="9.823631">
<ele>7.621398</ele>
<time>2026-07-16T14:28:50.000Z</time>
</trkpt>
<trkpt lat="57.486710" lon="9.823695">
<ele>7.640039</ele>
<time>2026-07-16T14:28:51.000Z</time>
</trkpt>
<trkpt lat="57.486739" lon="9.823754">
<ele>7.662908</ele>
<time>2026-07-16T14:28:52.000Z</time>
</trkpt>
<trkpt lat="57.486766" lon="9.823806">
<ele>7.690300</ele>
<time>2026-07-16T14:28:53.000Z</time>
</trkpt>
<trkpt lat="57.486796" lon="9.823875">
<ele>7.723924</ele>
<time>2026-07-16T14:28:54.000Z</time>
</trkpt>
<trkpt lat="57.486819" lon="9.823954">
<ele>7.757962</ele>
<time>2026-07-16T14:28:55.000Z</time>
</trkpt>
<trkpt lat="57.486835" lon="9.824030">
<ele>7.788886</ele>
<time>2026-07-16T14:28:56.000Z</time>
</trkpt>
<trkpt lat="57.486850" lon="9.824103">
<ele>7.818495</ele>
<time>2026-07-16T14:28:57.000Z</time>
</trkpt>
<trkpt lat="57.486865" lon="9.824174">
<ele>7.847398</ele>
<time>2026-07-16T14:28:58.000Z</time>
</trkpt>
<trkpt lat="57.486881" lon="9.824242">
<ele>7.875521</ele>
<time>2026-07-16T14:28:59.000Z</time>
</trkpt>
<trkpt lat="57.486893" lon="9.824293">
<ele>7.896613</ele>
<time>2026-07-16T14:29:00.000Z</time>
</trkpt>
<trkpt lat="57.486907" lon="9.824355">
<ele>7.922091</ele>
<time>2026-07-16T14:29:01.000Z</time>
</trkpt>
<trkpt lat="57.486920" lon="9.824419">
<ele>7.948012</ele>
<time>2026-07-16T14:29:02.000Z</time>
</trkpt>
<trkpt lat="57.486929" lon="9.824466">
<ele>7.966915</ele>
<time>2026-07-16T14:29:03.000Z</time>
</trkpt>
<trkpt lat="57.486936" lon="9.824507">
<ele>7.983213</ele>
<time>2026-07-16T14:29:04.000Z</time>
</trkpt>
<trkpt lat="57.486936" lon="9.824544">
<ele>7.997231</ele>
<time>2026-07-16T14:29:05.000Z</time>
</trkpt>
<trkpt lat="57.486926" lon="9.824575">
<ele>8.010928</ele>
<time>2026-07-16T14:29:06.000Z</time>
</trkpt>
<trkpt lat="57.486907" lon="9.824597">
<ele>8.026703</ele>
<time>2026-07-16T14:29:07.000Z</time>
</trkpt>
<trkpt lat="57.486881" lon="9.824615">
<ele>8.046257</ele>
<time>2026-07-16T14:29:08.000Z</time>
</trkpt>
<trkpt lat="57.486854" lon="9.824637">
<ele>8.067034</ele>
<time>2026-07-16T14:29:09.000Z</time>
</trkpt>
<trkpt lat="57.486828" lon="9.824656">
<ele>8.086723</ele>
<time>2026-07-16T14:29:10.000Z</time>
</trkpt>
<trkpt lat="57.486801" lon="9.824674">
<ele>8.106940</ele>
<time>2026-07-16T14:29:11.000Z</time>
</trkpt>
<trkpt lat="57.486771" lon="9.824692">
<ele>8.129158</ele>
<time>2026-07-16T14:29:12.000Z</time>
</trkpt>
<trkpt lat="57.486741" lon="9.824710">
<ele>8.151377</ele>
<time>2026-07-16T14:29:13.000Z</time>
</trkpt>
<trkpt lat="57.486707" lon="9.824731">
<ele>8.176629</ele>
<time>2026-07-16T14:29:14.000Z</time>
</trkpt>
<trkpt lat="57.486673" lon="9.824755">
<ele>8.202261</ele>
<time>2026-07-16T14:29:15.000Z</time>
</trkpt>
<trkpt lat="57.486636" lon="9.824781">
<ele>8.230140</ele>
<time>2026-07-16T14:29:16.000Z</time>
</trkpt>
<trkpt lat="57.486601" lon="9.824807">
<ele>8.256704</ele>
<time>2026-07-16T14:29:17.000Z</time>
</trkpt>
<trkpt lat="57.486567" lon="9.824838">
<ele>8.283393</ele>
<time>2026-07-16T14:29:18.000Z</time>
</trkpt>
<trkpt lat="57.486538" lon="9.824876">
<ele>8.308395</ele>
<time>2026-07-16T14:29:19.000Z</time>
</trkpt>
<trkpt lat="57.486514" lon="9.824921">
<ele>8.332413</ele>
<time>2026-07-16T14:29:20.000Z</time>
</trkpt>
<trkpt lat="57.486502" lon="9.824980">
<ele>8.356313</ele>
<time>2026-07-16T14:29:21.000Z</time>
</trkpt>
<trkpt lat="57.486503" lon="9.825043">
<ele>8.380192</ele>
<time>2026-07-16T14:29:22.000Z</time>
</trkpt>
<trkpt lat="57.486512" lon="9.825107">
<ele>8.405255</ele>
<time>2026-07-16T14:29:23.000Z</time>
</trkpt>
<trkpt lat="57.486529" lon="9.825171">
<ele>8.432302</ele>
<time>2026-07-16T14:29:24.000Z</time>
</trkpt>
<trkpt lat="57.486551" lon="9.825239">
<ele>8.462372</ele>
<time>2026-07-16T14:29:25.000Z</time>
</trkpt>
<trkpt lat="57.486577" lon="9.825311">
<ele>8.495235</ele>
<time>2026-07-16T14:29:26.000Z</time>
</trkpt>
<trkpt lat="57.486600" lon="9.825382">
<ele>8.526642</ele>
<time>2026-07-16T14:29:27.000Z</time>
</trkpt>
<trkpt lat="57.486626" lon="9.825452">
<ele>8.558879</ele>
<time>2026-07-16T14:29:28.000Z</time>
</trkpt>
<trkpt lat="57.486653" lon="9.825524">
<ele>8.592140</ele>
<time>2026-07-16T14:29:29.000Z</time>
</trkpt>
<trkpt lat="57.486680" lon="9.825596">
<ele>8.625401</ele>
<time>2026-07-16T14:29:30.000Z</time>
</trkpt>
<trkpt lat="57.486706" lon="9.825669">
<ele>8.658579</ele>
<time>2026-07-16T14:29:31.000Z</time>
</trkpt>
<trkpt lat="57.486739" lon="9.825744">
<ele>8.695300</ele>
<time>2026-07-16T14:29:32.000Z</time>
</trkpt>
<trkpt lat="57.486770" lon="9.825827">
<ele>8.733593</ele>
<time>2026-07-16T14:29:33.000Z</time>
</trkpt>
<trkpt lat="57.486798" lon="9.825912">
<ele>8.771363</ele>
<time>2026-07-16T14:29:34.000Z</time>
</trkpt>
<trkpt lat="57.486827" lon="9.826001">
<ele>8.810794</ele>
<time>2026-07-16T14:29:35.000Z</time>
</trkpt>
<trkpt lat="57.486861" lon="9.826091">
<ele>8.852471</ele>
<time>2026-07-16T14:29:36.000Z</time>
</trkpt>
<trkpt lat="57.486892" lon="9.826181">
<ele>8.892969</ele>
<time>2026-07-16T14:29:37.000Z</time>
</trkpt>
<trkpt lat="57.486925" lon="9.826267">
<ele>8.919050</ele>
<time>2026-07-16T14:29:38.000Z</time>
</trkpt>
<trkpt lat="57.486960" lon="9.826352">
<ele>8.912503</ele>
<time>2026-07-16T14:29:39.000Z</time>
</trkpt>
<trkpt lat="57.486994" lon="9.826438">
<ele>8.905976</ele>
<time>2026-07-16T14:29:40.000Z</time>
</trkpt>
<trkpt lat="57.487031" lon="9.826524">
<ele>8.899241</ele>
<time>2026-07-16T14:29:41.000Z</time>
</trkpt>
<trkpt lat="57.487066" lon="9.826609">
<ele>8.892694</ele>
<time>2026-07-16T14:29:42.000Z</time>
</trkpt>
<trkpt lat="57.487098" lon="9.826693">
<ele>8.886399</ele>
<time>2026-07-16T14:29:43.000Z</time>
</trkpt>
<trkpt lat="57.487129" lon="9.826776">
<ele>8.880219</ele>
<time>2026-07-16T14:29:44.000Z</time>
</trkpt>
<trkpt lat="57.487156" lon="9.826860">
<ele>8.874235</ele>
<time>2026-07-16T14:29:45.000Z</time>
</trkpt>
<trkpt lat="57.487189" lon="9.826943">
<ele>8.867923</ele>
<time>2026-07-16T14:29:46.000Z</time>
</trkpt>
<trkpt lat="57.487220" lon="9.827029">
<ele>8.861592</ele>
<time>2026-07-16T14:29:47.000Z</time>
</trkpt>
<trkpt lat="57.487254" lon="9.827113">
<ele>8.855163</ele>
<time>2026-07-16T14:29:48.000Z</time>
</trkpt>
<trkpt lat="57.487286" lon="9.827191">
<ele>8.849164</ele>
<time>2026-07-16T14:29:49.000Z</time>
</trkpt>
<trkpt lat="57.487321" lon="9.827275">
<ele>8.842665</ele>
<time>2026-07-16T14:29:50.000Z</time>
</trkpt>
<trkpt lat="57.487353" lon="9.827365">
<ele>8.836068</ele>
<time>2026-07-16T14:29:51.000Z</time>
</trkpt>
<trkpt lat="57.487387" lon="9.827455">
<ele>8.829342</ele>
<time>2026-07-16T14:29:52.000Z</time>
</trkpt>
<trkpt lat="57.487419" lon="9.827544">
<ele>8.822795</ele>
<time>2026-07-16T14:29:53.000Z</time>
</trkpt>
<trkpt lat="57.487452" lon="9.827629">
<ele>8.816384</ele>
<time>2026-07-16T14:29:54.000Z</time>
</trkpt>
<trkpt lat="57.487483" lon="9.827718">
<ele>8.809900</ele>
<time>2026-07-16T14:29:55.000Z</time>
</trkpt>
<trkpt lat="57.487517" lon="9.827806">
<ele>8.803274</ele>
<time>2026-07-16T14:29:56.000Z</time>
</trkpt>
<trkpt lat="57.487551" lon="9.827894">
<ele>8.796648</ele>
<time>2026-07-16T14:29:57.000Z</time>
</trkpt>
<trkpt lat="57.487585" lon="9.827980">
<ele>8.790121</ele>
<time>2026-07-16T14:29:58.000Z</time>
</trkpt>
<trkpt lat="57.487620" lon="9.828069">
<ele>8.783378</ele>
<time>2026-07-16T14:29:59.000Z</time>
</trkpt>
<trkpt lat="57.487653" lon="9.828155">
<ele>8.776918</ele>
<time>2026-07-16T14:30:00.000Z</time>
</trkpt>
<trkpt lat="57.487688" lon="9.828239">
<ele>8.770420</ele>
<time>2026-07-16T14:30:01.000Z</time>
</trkpt>
<trkpt lat="57.487726" lon="9.828322">
<ele>8.763754</ele>
<time>2026-07-16T14:30:02.000Z</time>
</trkpt>
<trkpt lat="57.487766" lon="9.828401">
<ele>8.757118</ele>
<time>2026-07-16T14:30:03.000Z</time>
</trkpt>
<trkpt lat="57.487806" lon="9.828480">
<ele>8.750482</ele>
<time>2026-07-16T14:30:04.000Z</time>
</trkpt>
<trkpt lat="57.487849" lon="9.828563">
<ele>8.743434</ele>
<time>2026-07-16T14:30:05.000Z</time>
</trkpt>
<trkpt lat="57.487890" lon="9.828645">
<ele>8.736587</ele>
<time>2026-07-16T14:30:06.000Z</time>
</trkpt>
<trkpt lat="57.487930" lon="9.828726">
<ele>8.729862</ele>
<time>2026-07-16T14:30:07.000Z</time>
</trkpt>
<trkpt lat="57.487975" lon="9.828806">
<ele>8.722782</ele>
<time>2026-07-16T14:30:08.000Z</time>
</trkpt>
<trkpt lat="57.488018" lon="9.828888">
<ele>8.714261</ele>
<time>2026-07-16T14:30:09.000Z</time>
</trkpt>
<trkpt lat="57.488060" lon="9.828968">
<ele>8.690485</ele>
<time>2026-07-16T14:30:10.000Z</time>
</trkpt>
<trkpt lat="57.488101" lon="9.829044">
<ele>8.667592</ele>
<time>2026-07-16T14:30:11.000Z</time>
</trkpt>
<trkpt lat="57.488141" lon="9.829124">
<ele>8.644362</ele>
<time>2026-07-16T14:30:12.000Z</time>
</trkpt>
<trkpt lat="57.488182" lon="9.829205">
<ele>8.620706</ele>
<time>2026-07-16T14:30:13.000Z</time>
</trkpt>
<trkpt lat="57.488221" lon="9.829284">
<ele>8.597900</ele>
<time>2026-07-16T14:30:14.000Z</time>
</trkpt>
<trkpt lat="57.488262" lon="9.829360">
<ele>8.575007</ele>
<time>2026-07-16T14:30:15.000Z</time>
</trkpt>
<trkpt lat="57.488307" lon="9.829431">
<ele>8.551668</ele>
<time>2026-07-16T14:30:16.000Z</time>
</trkpt>
<trkpt lat="57.488353" lon="9.829490">
<ele>8.529567</ele>
<time>2026-07-16T14:30:17.000Z</time>
</trkpt>
<trkpt lat="57.488402" lon="9.829532">
<ele>8.508226</ele>
<time>2026-07-16T14:30:18.000Z</time>
</trkpt>
<trkpt lat="57.488454" lon="9.829556">
<ele>8.487034</ele>
<time>2026-07-16T14:30:19.000Z</time>
</trkpt>
<trkpt lat="57.488507" lon="9.829561">
<ele>8.466042</ele>
<time>2026-07-16T14:30:20.000Z</time>
</trkpt>
<trkpt lat="57.488560" lon="9.829549">
<ele>8.444922</ele>
<time>2026-07-16T14:30:21.000Z</time>
</trkpt>
<trkpt lat="57.488611" lon="9.829519">
<ele>8.423764</ele>
<time>2026-07-16T14:30:22.000Z</time>
</trkpt>
<trkpt lat="57.488658" lon="9.829470">
<ele>8.402453</ele>
<time>2026-07-16T14:30:23.000Z</time>
</trkpt>
<trkpt lat="57.488704" lon="9.829410">
<ele>8.380231</ele>
<time>2026-07-16T14:30:24.000Z</time>
</trkpt>
<trkpt lat="57.488744" lon="9.829347">
<ele>8.359500</ele>
<time>2026-07-16T14:30:25.000Z</time>
</trkpt>
<trkpt lat="57.488782" lon="9.829281">
<ele>8.338938</ele>
<time>2026-07-16T14:30:26.000Z</time>
</trkpt>
<trkpt lat="57.488823" lon="9.829211">
<ele>8.316926</ele>
<time>2026-07-16T14:30:27.000Z</time>
</trkpt>
<trkpt lat="57.488862" lon="9.829143">
<ele>8.295784</ele>
<time>2026-07-16T14:30:28.000Z</time>
</trkpt>
<trkpt lat="57.488897" lon="9.829074">
<ele>8.275613</ele>
<time>2026-07-16T14:30:29.000Z</time>
</trkpt>
<trkpt lat="57.488934" lon="9.829006">
<ele>8.255041</ele>
<time>2026-07-16T14:30:30.000Z</time>
</trkpt>
<trkpt lat="57.488973" lon="9.828937">
<ele>8.233752</ele>
<time>2026-07-16T14:30:31.000Z</time>
</trkpt>
<trkpt lat="57.489017" lon="9.828867">
<ele>8.210852</ele>
<time>2026-07-16T14:30:32.000Z</time>
</trkpt>
<trkpt lat="57.489057" lon="9.828796">
<ele>8.188985</ele>
<time>2026-07-16T14:30:33.000Z</time>
</trkpt>
<trkpt lat="57.489095" lon="9.828723">
<ele>8.167379</ele>
<time>2026-07-16T14:30:34.000Z</time>
</trkpt>
<trkpt lat="57.489133" lon="9.828650">
<ele>8.145773</ele>
<time>2026-07-16T14:30:35.000Z</time>
</trkpt>
<trkpt lat="57.489174" lon="9.828579">
<ele>8.123617</ele>
<time>2026-07-16T14:30:36.000Z</time>
</trkpt>
<trkpt lat="57.489216" lon="9.828508">
<ele>8.101170</ele>
<time>2026-07-16T14:30:37.000Z</time>
</trkpt>
<trkpt lat="57.489255" lon="9.828433">
<ele>8.078984</ele>
<time>2026-07-16T14:30:38.000Z</time>
</trkpt>
<trkpt lat="57.489296" lon="9.828357">
<ele>8.056091</ele>
<time>2026-07-16T14:30:39.000Z</time>
</trkpt>
<trkpt lat="57.489335" lon="9.828282">
<ele>8.033905</ele>
<time>2026-07-16T14:30:40.000Z</time>
</trkpt>
<trkpt lat="57.489376" lon="9.828210">
<ele>8.011604</ele>
<time>2026-07-16T14:30:41.000Z</time>
</trkpt>
<trkpt lat="57.489413" lon="9.828143">
<ele>7.960803</ele>
<time>2026-07-16T14:30:42.000Z</time>
</trkpt>
<trkpt lat="57.489443" lon="9.828085">
<ele>7.905823</ele>
<time>2026-07-16T14:30:43.000Z</time>
</trkpt>
<trkpt lat="57.489476" lon="9.828020">
<ele>7.844752</ele>
<time>2026-07-16T14:30:44.000Z</time>
</trkpt>
<trkpt lat="57.489509" lon="9.827960">
<ele>7.786117</ele>
<time>2026-07-16T14:30:45.000Z</time>
</trkpt>
<trkpt lat="57.489534" lon="9.827913">
<ele>7.740953</ele>
<time>2026-07-16T14:30:46.000Z</time>
</trkpt>
<trkpt lat="57.489563" lon="9.827863">
<ele>7.690709</ele>
<time>2026-07-16T14:30:47.000Z</time>
</trkpt>
<trkpt lat="57.489596" lon="9.827807">
<ele>7.633950</ele>
<time>2026-07-16T14:30:48.000Z</time>
</trkpt>
<trkpt lat="57.489624" lon="9.827757">
<ele>7.584631</ele>
<time>2026-07-16T14:30:49.000Z</time>
</trkpt>
<trkpt lat="57.489658" lon="9.827696">
<ele>7.524608</ele>
<time>2026-07-16T14:30:50.000Z</time>
</trkpt>
<trkpt lat="57.489695" lon="9.827628">
<ele>7.458518</ele>
<time>2026-07-16T14:30:51.000Z</time>
</trkpt>
<trkpt lat="57.489732" lon="9.827560">
<ele>7.392428</ele>
<time>2026-07-16T14:30:52.000Z</time>
</trkpt>
<trkpt lat="57.489770" lon="9.827491">
<ele>7.324952</ele>
<time>2026-07-16T14:30:53.000Z</time>
</trkpt>
<trkpt lat="57.489811" lon="9.827419">
<ele>7.253307</ele>
<time>2026-07-16T14:30:54.000Z</time>
</trkpt>
<trkpt lat="57.489855" lon="9.827349">
<ele>7.179739</ele>
<time>2026-07-16T14:30:55.000Z</time>
</trkpt>
<trkpt lat="57.489895" lon="9.827280">
<ele>7.110421</ele>
<time>2026-07-16T14:30:56.000Z</time>
</trkpt>
<trkpt lat="57.489934" lon="9.827212">
<ele>7.042500</ele>
<time>2026-07-16T14:30:57.000Z</time>
</trkpt>
<trkpt lat="57.489972" lon="9.827143">
<ele>6.975024</ele>
<time>2026-07-16T14:30:58.000Z</time>
</trkpt>
<trkpt lat="57.490007" lon="9.827072">
<ele>6.909223</ele>
<time>2026-07-16T14:30:59.000Z</time>
</trkpt>
<trkpt lat="57.490043" lon="9.827004">
<ele>6.844031</ele>
<time>2026-07-16T14:31:00.000Z</time>
</trkpt>
<trkpt lat="57.490082" lon="9.826933">
<ele>6.774692</ele>
<time>2026-07-16T14:31:01.000Z</time>
</trkpt>
<trkpt lat="57.490121" lon="9.826864">
<ele>6.706301</ele>
<time>2026-07-16T14:31:02.000Z</time>
</trkpt>
<trkpt lat="57.490162" lon="9.826797">
<ele>6.636956</ele>
<time>2026-07-16T14:31:03.000Z</time>
</trkpt>
<trkpt lat="57.490201" lon="9.826732">
<ele>6.570419</ele>
<time>2026-07-16T14:31:04.000Z</time>
</trkpt>
<trkpt lat="57.490241" lon="9.826668">
<ele>6.503377</ele>
<time>2026-07-16T14:31:05.000Z</time>
</trkpt>
<trkpt lat="57.490280" lon="9.826604">
<ele>6.437293</ele>
<time>2026-07-16T14:31:06.000Z</time>
</trkpt>
<trkpt lat="57.490321" lon="9.826537">
<ele>6.367948</ele>
<time>2026-07-16T14:31:07.000Z</time>
</trkpt>
<trkpt lat="57.490361" lon="9.826469">
<ele>6.299094</ele>
<time>2026-07-16T14:31:08.000Z</time>
</trkpt>
<trkpt lat="57.490402" lon="9.826398">
<ele>6.227916</ele>
<time>2026-07-16T14:31:09.000Z</time>
</trkpt>
<trkpt lat="57.490442" lon="9.826329">
<ele>6.158600</ele>
<time>2026-07-16T14:31:10.000Z</time>
</trkpt>
<trkpt lat="57.490485" lon="9.826252">
<ele>6.082759</ele>
<time>2026-07-16T14:31:11.000Z</time>
</trkpt>
<trkpt lat="57.490528" lon="9.826175">
<ele>6.006919</ele>
<time>2026-07-16T14:31:12.000Z</time>
</trkpt>
<trkpt lat="57.490570" lon="9.826101">
<ele>5.933413</ele>
<time>2026-07-16T14:31:13.000Z</time>
</trkpt>
<trkpt lat="57.490612" lon="9.826029">
<ele>5.860839</ele>
<time>2026-07-16T14:31:14.000Z</time>
</trkpt>
<trkpt lat="57.490654" lon="9.825956">
<ele>5.787801</ele>
<time>2026-07-16T14:31:15.000Z</time>
</trkpt>
<trkpt lat="57.490696" lon="9.825882">
<ele>5.715601</ele>
<time>2026-07-16T14:31:16.000Z</time>
</trkpt>
<trkpt lat="57.490738" lon="9.825810">
<ele>5.662463</ele>
<time>2026-07-16T14:31:17.000Z</time>
</trkpt>
<trkpt lat="57.490779" lon="9.825737">
<ele>5.609662</ele>
<time>2026-07-16T14:31:18.000Z</time>
</trkpt>
<trkpt lat="57.490819" lon="9.825661">
<ele>5.556467</ele>
<time>2026-07-16T14:31:19.000Z</time>
</trkpt>
<trkpt lat="57.490854" lon="9.825586">
<ele>5.506796</ele>
<time>2026-07-16T14:31:20.000Z</time>
</trkpt>
<trkpt lat="57.490893" lon="9.825512">
<ele>5.454967</ele>
<time>2026-07-16T14:31:21.000Z</time>
</trkpt>
<trkpt lat="57.490929" lon="9.825436">
<ele>5.404306</ele>
<time>2026-07-16T14:31:22.000Z</time>
</trkpt>
<trkpt lat="57.490967" lon="9.825356">
<ele>5.350915</ele>
<time>2026-07-16T14:31:23.000Z</time>
</trkpt>
<trkpt lat="57.491006" lon="9.825277">
<ele>5.297272</ele>
<time>2026-07-16T14:31:24.000Z</time>
</trkpt>
<trkpt lat="57.491041" lon="9.825199">
<ele>5.246459</ele>
<time>2026-07-16T14:31:25.000Z</time>
</trkpt>
<trkpt lat="57.491075" lon="9.825122">
<ele>5.196624</ele>
<time>2026-07-16T14:31:26.000Z</time>
</trkpt>
<trkpt lat="57.491112" lon="9.825047">
<ele>5.145713</ele>
<time>2026-07-16T14:31:27.000Z</time>
</trkpt>
<trkpt lat="57.491151" lon="9.824971">
<ele>5.093166</ele>
<time>2026-07-16T14:31:28.000Z</time>
</trkpt>
<trkpt lat="57.491186" lon="9.824896">
<ele>5.043495</ele>
<time>2026-07-16T14:31:29.000Z</time>
</trkpt>
<trkpt lat="57.491222" lon="9.824825">
<ele>4.994682</ele>
<time>2026-07-16T14:31:30.000Z</time>
</trkpt>
<trkpt lat="57.491261" lon="9.824757">
<ele>4.944951</ele>
<time>2026-07-16T14:31:31.000Z</time>
</trkpt>
<trkpt lat="57.491305" lon="9.824700">
<ele>4.895065</ele>
<time>2026-07-16T14:31:32.000Z</time>
</trkpt>
<trkpt lat="57.491356" lon="9.824658">
<ele>4.843171</ele>
<time>2026-07-16T14:31:33.000Z</time>
</trkpt>
<trkpt lat="57.491409" lon="9.824640">
<ele>4.793041</ele>
<time>2026-07-16T14:31:34.000Z</time>
</trkpt>
<trkpt lat="57.491459" lon="9.824644">
<ele>4.746474</ele>
<time>2026-07-16T14:31:35.000Z</time>
</trkpt>
<trkpt lat="57.491509" lon="9.824673">
<ele>4.697742</ele>
<time>2026-07-16T14:31:36.000Z</time>
</trkpt>
<trkpt lat="57.491556" lon="9.824718">
<ele>4.648560</ele>
<time>2026-07-16T14:31:37.000Z</time>
</trkpt>
<trkpt lat="57.491600" lon="9.824774">
<ele>4.598958</ele>
<time>2026-07-16T14:31:38.000Z</time>
</trkpt>
<trkpt lat="57.491642" lon="9.824838">
<ele>4.548445</ele>
<time>2026-07-16T14:31:39.000Z</time>
</trkpt>
<trkpt lat="57.491685" lon="9.824903">
<ele>4.496896</ele>
<time>2026-07-16T14:31:40.000Z</time>
</trkpt>
<trkpt lat="57.491728" lon="9.824977">
<ele>4.442397</ele>
<time>2026-07-16T14:31:41.000Z</time>
</trkpt>
<trkpt lat="57.491771" lon="9.825054">
<ele>4.386868</ele>
<time>2026-07-16T14:31:42.000Z</time>
</trkpt>
<trkpt lat="57.491814" lon="9.825132">
<ele>4.330991</ele>
<time>2026-07-16T14:31:43.000Z</time>
</trkpt>
<trkpt lat="57.491853" lon="9.825213">
<ele>4.276609</ele>
<time>2026-07-16T14:31:44.000Z</time>
</trkpt>
<trkpt lat="57.491894" lon="9.825294">
<ele>4.220967</ele>
<time>2026-07-16T14:31:45.000Z</time>
</trkpt>
<trkpt lat="57.491939" lon="9.825373">
<ele>4.163401</ele>
<time>2026-07-16T14:31:46.000Z</time>
</trkpt>
<trkpt lat="57.491985" lon="9.825448">
<ele>4.106493</ele>
<time>2026-07-16T14:31:47.000Z</time>
</trkpt>
<trkpt lat="57.492027" lon="9.825525">
<ele>4.051631</ele>
<time>2026-07-16T14:31:48.000Z</time>
</trkpt>
<trkpt lat="57.492072" lon="9.825603">
<ele>4.059693</ele>
<time>2026-07-16T14:31:49.000Z</time>
</trkpt>
<trkpt lat="57.492115" lon="9.825682">
<ele>4.075206</ele>
<time>2026-07-16T14:31:50.000Z</time>
</trkpt>
<trkpt lat="57.492157" lon="9.825763">
<ele>4.090734</ele>
<time>2026-07-16T14:31:51.000Z</time>
</trkpt>
<trkpt lat="57.492199" lon="9.825844">
<ele>4.106263</ele>
<time>2026-07-16T14:31:52.000Z</time>
</trkpt>
<trkpt lat="57.492241" lon="9.825925">
<ele>4.121792</ele>
<time>2026-07-16T14:31:53.000Z</time>
</trkpt>
<trkpt lat="57.492283" lon="9.826004">
<ele>4.137124</ele>
<time>2026-07-16T14:31:54.000Z</time>
</trkpt>
<trkpt lat="57.492325" lon="9.826082">
<ele>4.152357</ele>
<time>2026-07-16T14:31:55.000Z</time>
</trkpt>
<trkpt lat="57.492370" lon="9.826162">
<ele>4.168335</ele>
<time>2026-07-16T14:31:56.000Z</time>
</trkpt>
<trkpt lat="57.492416" lon="9.826242">
<ele>4.184499</ele>
<time>2026-07-16T14:31:57.000Z</time>
</trkpt>
<trkpt lat="57.492464" lon="9.826322">
<ele>4.201042</ele>
<time>2026-07-16T14:31:58.000Z</time>
</trkpt>
<trkpt lat="57.492511" lon="9.826402">
<ele>4.217394</ele>
<time>2026-07-16T14:31:59.000Z</time>
</trkpt>
<trkpt lat="57.492560" lon="9.826481">
<ele>4.234039</ele>
<time>2026-07-16T14:32:00.000Z</time>
</trkpt>
<trkpt lat="57.492604" lon="9.826561">
<ele>4.249831</ele>
<time>2026-07-16T14:32:01.000Z</time>
</trkpt>
<trkpt lat="57.492646" lon="9.826642">
<ele>4.265360</ele>
<time>2026-07-16T14:32:02.000Z</time>
</trkpt>
<trkpt lat="57.492682" lon="9.826723">
<ele>4.279862</ele>
<time>2026-07-16T14:32:03.000Z</time>
</trkpt>
<trkpt lat="57.492716" lon="9.826806">
<ele>4.294260</ele>
<time>2026-07-16T14:32:04.000Z</time>
</trkpt>
<trkpt lat="57.492745" lon="9.826891">
<ele>4.308151</ele>
<time>2026-07-16T14:32:05.000Z</time>
</trkpt>
<trkpt lat="57.492766" lon="9.826982">
<ele>4.321814</ele>
<time>2026-07-16T14:32:06.000Z</time>
</trkpt>
<trkpt lat="57.492777" lon="9.827078">
<ele>4.335356</ele>
<time>2026-07-16T14:32:07.000Z</time>
</trkpt>
<trkpt lat="57.492782" lon="9.827180">
<ele>4.349487</ele>
<time>2026-07-16T14:32:08.000Z</time>
</trkpt>
<trkpt lat="57.492783" lon="9.827281">
<ele>4.363424</ele>
<time>2026-07-16T14:32:09.000Z</time>
</trkpt>
<trkpt lat="57.492783" lon="9.827382">
<ele>4.377358</ele>
<time>2026-07-16T14:32:10.000Z</time>
</trkpt>
<trkpt lat="57.492783" lon="9.827481">
<ele>4.391016</ele>
<time>2026-07-16T14:32:11.000Z</time>
</trkpt>
<trkpt lat="57.492785" lon="9.827580">
<ele>4.404684</ele>
<time>2026-07-16T14:32:12.000Z</time>
</trkpt>
<trkpt lat="57.492792" lon="9.827675">
<ele>4.417914</ele>
<time>2026-07-16T14:32:13.000Z</time>
</trkpt>
<trkpt lat="57.492800" lon="9.827767">
<ele>4.430771</ele>
<time>2026-07-16T14:32:14.000Z</time>
</trkpt>
<trkpt lat="57.492810" lon="9.827856">
<ele>4.443316</ele>
<time>2026-07-16T14:32:15.000Z</time>
</trkpt>
<trkpt lat="57.492821" lon="9.827944">
<ele>4.455780</ele>
<time>2026-07-16T14:32:16.000Z</time>
</trkpt>
<trkpt lat="57.492830" lon="9.828029">
<ele>4.467733</ele>
<time>2026-07-16T14:32:17.000Z</time>
</trkpt>
<trkpt lat="57.492841" lon="9.828109">
<ele>4.479125</ele>
<time>2026-07-16T14:32:18.000Z</time>
</trkpt>
<trkpt lat="57.492846" lon="9.828182">
<ele>4.489278</ele>
<time>2026-07-16T14:32:19.000Z</time>
</trkpt>
<trkpt lat="57.492853" lon="9.828250">
<ele>4.498830</ele>
<time>2026-07-16T14:32:20.000Z</time>
</trkpt>
<trkpt lat="57.492858" lon="9.828315">
<ele>4.509599</ele>
<time>2026-07-16T14:32:21.000Z</time>
</trkpt>
<trkpt lat="57.492864" lon="9.828383">
<ele>4.547945</ele>
<time>2026-07-16T14:32:22.000Z</time>
</trkpt>
<trkpt lat="57.492867" lon="9.828456">
<ele>4.588685</ele>
<time>2026-07-16T14:32:23.000Z</time>
</trkpt>
<trkpt lat="57.492861" lon="9.828535">
<ele>4.633082</ele>
<time>2026-07-16T14:32:24.000Z</time>
</trkpt>
<trkpt lat="57.492848" lon="9.828614">
<ele>4.679057</ele>
<time>2026-07-16T14:32:25.000Z</time>
</trkpt>
<trkpt lat="57.492827" lon="9.828690">
<ele>4.726611</ele>
<time>2026-07-16T14:32:26.000Z</time>
</trkpt>
<trkpt lat="57.492799" lon="9.828758">
<ele>4.774280</ele>
<time>2026-07-16T14:32:27.000Z</time>
</trkpt>
<trkpt lat="57.492768" lon="9.828820">
<ele>4.821404</ele>
<time>2026-07-16T14:32:28.000Z</time>
</trkpt>
<trkpt lat="57.492732" lon="9.828878">
<ele>4.870711</ele>
<time>2026-07-16T14:32:29.000Z</time>
</trkpt>
<trkpt lat="57.492697" lon="9.828935">
<ele>4.918872</ele>
<time>2026-07-16T14:32:30.000Z</time>
</trkpt>
<trkpt lat="57.492662" lon="9.828992">
<ele>4.967033</ele>
<time>2026-07-16T14:32:31.000Z</time>
</trkpt>
<trkpt lat="57.492625" lon="9.829052">
<ele>5.017852</ele>
<time>2026-07-16T14:32:32.000Z</time>
</trkpt>
<trkpt lat="57.492587" lon="9.829114">
<ele>5.070182</ele>
<time>2026-07-16T14:32:33.000Z</time>
</trkpt>
<trkpt lat="57.492549" lon="9.829173">
<ele>5.121428</ele>
<time>2026-07-16T14:32:34.000Z</time>
</trkpt>
<trkpt lat="57.492511" lon="9.829228">
<ele>5.171277</ele>
<time>2026-07-16T14:32:35.000Z</time>
</trkpt>
<trkpt lat="57.492473" lon="9.829283">
<ele>5.221126</ele>
<time>2026-07-16T14:32:36.000Z</time>
</trkpt>
<trkpt lat="57.492432" lon="9.829342">
<ele>5.274794</ele>
<time>2026-07-16T14:32:37.000Z</time>
</trkpt>
<trkpt lat="57.492390" lon="9.829401">
<ele>5.329284</ele>
<time>2026-07-16T14:32:38.000Z</time>
</trkpt>
<trkpt lat="57.492347" lon="9.829460">
<ele>5.384605</ele>
<time>2026-07-16T14:32:39.000Z</time>
</trkpt>
<trkpt lat="57.492305" lon="9.829519">
<ele>5.439095</ele>
<time>2026-07-16T14:32:40.000Z</time>
</trkpt>
<trkpt lat="57.492264" lon="9.829580">
<ele>5.493451</ele>
<time>2026-07-16T14:32:41.000Z</time>
</trkpt>
<trkpt lat="57.492222" lon="9.829641">
<ele>5.548620</ele>
<time>2026-07-16T14:32:42.000Z</time>
</trkpt>
<trkpt lat="57.492180" lon="9.829701">
<ele>5.603447</ele>
<time>2026-07-16T14:32:43.000Z</time>
</trkpt>
<trkpt lat="57.492138" lon="9.829761">
<ele>5.658275</ele>
<time>2026-07-16T14:32:44.000Z</time>
</trkpt>
<trkpt lat="57.492098" lon="9.829821">
<ele>5.711475</ele>
<time>2026-07-16T14:32:45.000Z</time>
</trkpt>
<trkpt lat="57.492058" lon="9.829882">
<ele>5.765026</ele>
<time>2026-07-16T14:32:46.000Z</time>
</trkpt>
<trkpt lat="57.492019" lon="9.829944">
<ele>5.818141</ele>
<time>2026-07-16T14:32:47.000Z</time>
</trkpt>
<trkpt lat="57.491980" lon="9.830009">
<ele>5.872354</ele>
<time>2026-07-16T14:32:48.000Z</time>
</trkpt>
<trkpt lat="57.491939" lon="9.830074">
<ele>5.928127</ele>
<time>2026-07-16T14:32:49.000Z</time>
</trkpt>
<trkpt lat="57.491903" lon="9.830142">
<ele>5.981244</ele>
<time>2026-07-16T14:32:50.000Z</time>
</trkpt>
<trkpt lat="57.491866" lon="9.830211">
<ele>6.035485</ele>
<time>2026-07-16T14:32:51.000Z</time>
</trkpt>
<trkpt lat="57.491828" lon="9.830279">
<ele>6.090076</ele>
<time>2026-07-16T14:32:52.000Z</time>
</trkpt>
<trkpt lat="57.491790" lon="9.830345">
<ele>6.143901</ele>
<time>2026-07-16T14:32:53.000Z</time>
</trkpt>
<trkpt lat="57.491754" lon="9.830414">
<ele>6.197416</ele>
<time>2026-07-16T14:32:54.000Z</time>
</trkpt>
<trkpt lat="57.491720" lon="9.830486">
<ele>6.250752</ele>
<time>2026-07-16T14:32:55.000Z</time>
</trkpt>
<trkpt lat="57.491689" lon="9.830559">
<ele>6.302526</ele>
<time>2026-07-16T14:32:56.000Z</time>
</trkpt>
<trkpt lat="57.491655" lon="9.830635">
<ele>6.357554</ele>
<time>2026-07-16T14:32:57.000Z</time>
</trkpt>
<trkpt lat="57.491621" lon="9.830711">
<ele>6.407457</ele>
<time>2026-07-16T14:32:58.000Z</time>
</trkpt>
<trkpt lat="57.491586" lon="9.830789">
<ele>6.457238</ele>
<time>2026-07-16T14:32:59.000Z</time>
</trkpt>
<trkpt lat="57.491555" lon="9.830867">
<ele>6.504764</ele>
<time>2026-07-16T14:33:00.000Z</time>
</trkpt>
<trkpt lat="57.491522" lon="9.830944">
<ele>6.553012</ele>
<time>2026-07-16T14:33:01.000Z</time>
</trkpt>
<trkpt lat="57.491490" lon="9.831021">
<ele>6.600698</ele>
<time>2026-07-16T14:33:02.000Z</time>
</trkpt>
<trkpt lat="57.491457" lon="9.831098">
<ele>6.648946</ele>
<time>2026-07-16T14:33:03.000Z</time>
</trkpt>
<trkpt lat="57.491425" lon="9.831173">
<ele>6.695860</ele>
<time>2026-07-16T14:33:04.000Z</time>
</trkpt>
<trkpt lat="57.491395" lon="9.831248">
<ele>6.741663</ele>
<time>2026-07-16T14:33:05.000Z</time>
</trkpt>
<trkpt lat="57.491361" lon="9.831321">
<ele>6.788988</ele>
<time>2026-07-16T14:33:06.000Z</time>
</trkpt>
<trkpt lat="57.491330" lon="9.831392">
<ele>6.833803</ele>
<time>2026-07-16T14:33:07.000Z</time>
</trkpt>
<trkpt lat="57.491294" lon="9.831463">
<ele>6.881624</ele>
<time>2026-07-16T14:33:08.000Z</time>
</trkpt>
<trkpt lat="57.491259" lon="9.831534">
<ele>6.928824</ele>
<time>2026-07-16T14:33:09.000Z</time>
</trkpt>
<trkpt lat="57.491224" lon="9.831606">
<ele>6.976386</ele>
<time>2026-07-16T14:33:10.000Z</time>
</trkpt>
<trkpt lat="57.491190" lon="9.831676">
<ele>7.022609</ele>
<time>2026-07-16T14:33:11.000Z</time>
</trkpt>
<trkpt lat="57.491155" lon="9.831746">
<ele>7.069449</ele>
<time>2026-07-16T14:33:12.000Z</time>
</trkpt>
<trkpt lat="57.491119" lon="9.831811">
<ele>7.115177</ele>
<time>2026-07-16T14:33:13.000Z</time>
</trkpt>
<trkpt lat="57.491083" lon="9.831878">
<ele>7.161592</ele>
<time>2026-07-16T14:33:14.000Z</time>
</trkpt>
<trkpt lat="57.491049" lon="9.831948">
<ele>7.207815</ele>
<time>2026-07-16T14:33:15.000Z</time>
</trkpt>
<trkpt lat="57.491014" lon="9.832019">
<ele>7.255015</ele>
<time>2026-07-16T14:33:16.000Z</time>
</trkpt>
<trkpt lat="57.490977" lon="9.832090">
<ele>7.303466</ele>
<time>2026-07-16T14:33:17.000Z</time>
</trkpt>
<trkpt lat="57.490939" lon="9.832160">
<ele>7.352210</ele>
<time>2026-07-16T14:33:18.000Z</time>
</trkpt>
<trkpt lat="57.490903" lon="9.832232">
<ele>7.400389</ele>
<time>2026-07-16T14:33:19.000Z</time>
</trkpt>
<trkpt lat="57.490872" lon="9.832310">
<ele>7.447916</ele>
<time>2026-07-16T14:33:20.000Z</time>
</trkpt>
<trkpt lat="57.490844" lon="9.832393">
<ele>7.495925</ele>
<time>2026-07-16T14:33:21.000Z</time>
</trkpt>
<trkpt lat="57.490820" lon="9.832478">
<ele>7.542965</ele>
<time>2026-07-16T14:33:22.000Z</time>
</trkpt>
<trkpt lat="57.490797" lon="9.832563">
<ele>7.589588</ele>
<time>2026-07-16T14:33:23.000Z</time>
</trkpt>
<trkpt lat="57.490777" lon="9.832650">
<ele>7.635946</ele>
<time>2026-07-16T14:33:24.000Z</time>
</trkpt>
<trkpt lat="57.490761" lon="9.832740">
<ele>7.682388</ele>
<time>2026-07-16T14:33:25.000Z</time>
</trkpt>
<trkpt lat="57.490746" lon="9.832837">
<ele>7.731837</ele>
<time>2026-07-16T14:33:26.000Z</time>
</trkpt>
<trkpt lat="57.490731" lon="9.832936">
<ele>7.782229</ele>
<time>2026-07-16T14:33:27.000Z</time>
</trkpt>
<trkpt lat="57.490718" lon="9.833038">
<ele>7.833586</ele>
<time>2026-07-16T14:33:28.000Z</time>
</trkpt>
<trkpt lat="57.490707" lon="9.833140">
<ele>7.884554</ele>
<time>2026-07-16T14:33:29.000Z</time>
</trkpt>
<trkpt lat="57.490695" lon="9.833244">
<ele>7.936666</ele>
<time>2026-07-16T14:33:30.000Z</time>
</trkpt>
<trkpt lat="57.490687" lon="9.833350">
<ele>7.989106</ele>
<time>2026-07-16T14:33:31.000Z</time>
</trkpt>
<trkpt lat="57.490679" lon="9.833453">
<ele>8.024325</ele>
<time>2026-07-16T14:33:32.000Z</time>
</trkpt>
<trkpt lat="57.490671" lon="9.833554">
<ele>8.048694</ele>
<time>2026-07-16T14:33:33.000Z</time>
</trkpt>
<trkpt lat="57.490664" lon="9.833657">
<ele>8.073476</ele>
<time>2026-07-16T14:33:34.000Z</time>
</trkpt>
<trkpt lat="57.490653" lon="9.833759">
<ele>8.098308</ele>
<time>2026-07-16T14:33:35.000Z</time>
</trkpt>
<trkpt lat="57.490642" lon="9.833862">
<ele>8.123375</ele>
<time>2026-07-16T14:33:36.000Z</time>
</trkpt>
<trkpt lat="57.490630" lon="9.833965">
<ele>8.148532</ele>
<time>2026-07-16T14:33:37.000Z</time>
</trkpt>
<trkpt lat="57.490619" lon="9.834065">
<ele>8.172897</ele>
<time>2026-07-16T14:33:38.000Z</time>
</trkpt>
<trkpt lat="57.490610" lon="9.834166">
<ele>8.197335</ele>
<time>2026-07-16T14:33:39.000Z</time>
</trkpt>
<trkpt lat="57.490600" lon="9.834267">
<ele>8.221849</ele>
<time>2026-07-16T14:33:40.000Z</time>
</trkpt>
<trkpt lat="57.490586" lon="9.834364">
<ele>8.245824</ele>
<time>2026-07-16T14:33:41.000Z</time>
</trkpt>
<trkpt lat="57.490573" lon="9.834462">
<ele>8.269918</ele>
<time>2026-07-16T14:33:42.000Z</time>
</trkpt>
<trkpt lat="57.490559" lon="9.834562">
<ele>8.294585</ele>
<time>2026-07-16T14:33:43.000Z</time>
</trkpt>
<trkpt lat="57.490546" lon="9.834663">
<ele>8.319376</ele>
<time>2026-07-16T14:33:44.000Z</time>
</trkpt>
<trkpt lat="57.490532" lon="9.834761">
<ele>8.343581</ele>
<time>2026-07-16T14:33:45.000Z</time>
</trkpt>
<trkpt lat="57.490520" lon="9.834860">
<ele>8.367805</ele>
<time>2026-07-16T14:33:46.000Z</time>
</trkpt>
<trkpt lat="57.490505" lon="9.834961">
<ele>8.392818</ele>
<time>2026-07-16T14:33:47.000Z</time>
</trkpt>
<trkpt lat="57.490490" lon="9.835062">
<ele>8.417830</ele>
<time>2026-07-16T14:33:48.000Z</time>
</trkpt>
<trkpt lat="57.490475" lon="9.835164">
<ele>8.443073</ele>
<time>2026-07-16T14:33:49.000Z</time>
</trkpt>
<trkpt lat="57.490460" lon="9.835267">
<ele>8.468546</ele>
<time>2026-07-16T14:33:50.000Z</time>
</trkpt>
<trkpt lat="57.490447" lon="9.835367">
<ele>8.493104</ele>
<time>2026-07-16T14:33:51.000Z</time>
</trkpt>
<trkpt lat="57.490433" lon="9.835466">
<ele>8.517540</ele>
<time>2026-07-16T14:33:52.000Z</time>
</trkpt>
<trkpt lat="57.490418" lon="9.835560">
<ele>8.540946</ele>
<time>2026-07-16T14:33:53.000Z</time>
</trkpt>
<trkpt lat="57.490403" lon="9.835659">
<ele>8.565499</ele>
<time>2026-07-16T14:33:54.000Z</time>
</trkpt>
<trkpt lat="57.490387" lon="9.835757">
<ele>8.589947</ele>
<time>2026-07-16T14:33:55.000Z</time>
</trkpt>
<trkpt lat="57.490372" lon="9.835854">
<ele>8.614040</ele>
<time>2026-07-16T14:33:56.000Z</time>
</trkpt>
<trkpt lat="57.490360" lon="9.835951">
<ele>8.637800</ele>
<time>2026-07-16T14:33:57.000Z</time>
</trkpt>
<trkpt lat="57.490348" lon="9.836047">
<ele>8.661327</ele>
<time>2026-07-16T14:33:58.000Z</time>
</trkpt>
<trkpt lat="57.490334" lon="9.836144">
<ele>8.685301</ele>
<time>2026-07-16T14:33:59.000Z</time>
</trkpt>
<trkpt lat="57.490321" lon="9.836239">
<ele>8.708702</ele>
<time>2026-07-16T14:34:00.000Z</time>
</trkpt>
<trkpt lat="57.490307" lon="9.836337">
<ele>8.732907</ele>
<time>2026-07-16T14:34:01.000Z</time>
</trkpt>
<trkpt lat="57.490292" lon="9.836434">
<ele>8.757000</ele>
<time>2026-07-16T14:34:02.000Z</time>
</trkpt>
<trkpt lat="57.490277" lon="9.836529">
<ele>8.780635</ele>
<time>2026-07-16T14:34:03.000Z</time>
</trkpt>
<trkpt lat="57.490261" lon="9.836623">
<ele>8.804172</ele>
<time>2026-07-16T14:34:04.000Z</time>
</trkpt>
<trkpt lat="57.490249" lon="9.836715">
<ele>8.850257</ele>
<time>2026-07-16T14:34:05.000Z</time>
</trkpt>
<trkpt lat="57.490235" lon="9.836806">
<ele>8.901430</ele>
<time>2026-07-16T14:34:06.000Z</time>
</trkpt>
<trkpt lat="57.490219" lon="9.836899">
<ele>8.954222</ele>
<time>2026-07-16T14:34:07.000Z</time>
</trkpt>
<trkpt lat="57.490204" lon="9.836991">
<ele>9.006198</ele>
<time>2026-07-16T14:34:08.000Z</time>
</trkpt>
<trkpt lat="57.490192" lon="9.837089">
<ele>9.060538</ele>
<time>2026-07-16T14:34:09.000Z</time>
</trkpt>
<trkpt lat="57.490183" lon="9.837189">
<ele>9.115353</ele>
<time>2026-07-16T14:34:10.000Z</time>
</trkpt>
<trkpt lat="57.490178" lon="9.837290">
<ele>9.170188</ele>
<time>2026-07-16T14:34:11.000Z</time>
</trkpt>
<trkpt lat="57.490177" lon="9.837390">
<ele>9.224260</ele>
<time>2026-07-16T14:34:12.000Z</time>
</trkpt>
<trkpt lat="57.490180" lon="9.837485">
<ele>9.275709</ele>
<time>2026-07-16T14:34:13.000Z</time>
</trkpt>
<trkpt lat="57.490186" lon="9.837584">
<ele>9.329570</ele>
<time>2026-07-16T14:34:14.000Z</time>
</trkpt>
<trkpt lat="57.490197" lon="9.837682">
<ele>9.383695</ele>
<time>2026-07-16T14:34:15.000Z</time>
</trkpt>
<trkpt lat="57.490208" lon="9.837779">
<ele>9.437291</ele>
<time>2026-07-16T14:34:16.000Z</time>
</trkpt>
<trkpt lat="57.490220" lon="9.837874">
<ele>9.490050</ele>
<time>2026-07-16T14:34:17.000Z</time>
</trkpt>
<trkpt lat="57.490231" lon="9.837974">
<ele>9.545233</ele>
<time>2026-07-16T14:34:18.000Z</time>
</trkpt>
<trkpt lat="57.490248" lon="9.838075">
<ele>9.602452</ele>
<time>2026-07-16T14:34:19.000Z</time>
</trkpt>
<trkpt lat="57.490267" lon="9.838171">
<ele>9.657760</ele>
<time>2026-07-16T14:34:20.000Z</time>
</trkpt>
<trkpt lat="57.490286" lon="9.838269">
<ele>9.714083</ele>
<time>2026-07-16T14:34:21.000Z</time>
</trkpt>
<trkpt lat="57.490308" lon="9.838360">
<ele>9.768028</ele>
<time>2026-07-16T14:34:22.000Z</time>
</trkpt>
<trkpt lat="57.490331" lon="9.838446">
<ele>9.819961</ele>
<time>2026-07-16T14:34:23.000Z</time>
</trkpt>
<trkpt lat="57.490357" lon="9.838527">
<ele>9.870967</ele>
<time>2026-07-16T14:34:24.000Z</time>
</trkpt>
<trkpt lat="57.490386" lon="9.838606">
<ele>9.922689</ele>
<time>2026-07-16T14:34:25.000Z</time>
</trkpt>
<trkpt lat="57.490414" lon="9.838686">
<ele>9.974302</ele>
<time>2026-07-16T14:34:26.000Z</time>
</trkpt>
<trkpt lat="57.490441" lon="9.838761">
<ele>10.023104</ele>
<time>2026-07-16T14:34:27.000Z</time>
</trkpt>
<trkpt lat="57.490470" lon="9.838836">
<ele>10.073055</ele>
<time>2026-07-16T14:34:28.000Z</time>
</trkpt>
<trkpt lat="57.490498" lon="9.838914">
<ele>10.123765</ele>
<time>2026-07-16T14:34:29.000Z</time>
</trkpt>
<trkpt lat="57.490528" lon="9.838992">
<ele>10.175620</ele>
<time>2026-07-16T14:34:30.000Z</time>
</trkpt>
<trkpt lat="57.490561" lon="9.839072">
<ele>10.230140</ele>
<time>2026-07-16T14:34:31.000Z</time>
</trkpt>
<trkpt lat="57.490592" lon="9.839152">
<ele>10.283460</ele>
<time>2026-07-16T14:34:32.000Z</time>
</trkpt>
<trkpt lat="57.490623" lon="9.839233">
<ele>10.337219</ele>
<time>2026-07-16T14:34:33.000Z</time>
</trkpt>
<trkpt lat="57.490653" lon="9.839311">
<ele>10.389073</ele>
<time>2026-07-16T14:34:34.000Z</time>
</trkpt>
<trkpt lat="57.490684" lon="9.839392">
<ele>10.442832</ele>
<time>2026-07-16T14:34:35.000Z</time>
</trkpt>
<trkpt lat="57.490714" lon="9.839472">
<ele>10.495569</ele>
<time>2026-07-16T14:34:36.000Z</time>
</trkpt>
<trkpt lat="57.490745" lon="9.839551">
<ele>10.548451</ele>
<time>2026-07-16T14:34:37.000Z</time>
</trkpt>
<trkpt lat="57.490778" lon="9.839631">
<ele>10.602972</ele>
<time>2026-07-16T14:34:38.000Z</time>
</trkpt>
<trkpt lat="57.490813" lon="9.839710">
<ele>10.608070</ele>
<time>2026-07-16T14:34:39.000Z</time>
</trkpt>
<trkpt lat="57.490844" lon="9.839790">
<ele>10.595749</ele>
<time>2026-07-16T14:34:40.000Z</time>
</trkpt>
<trkpt lat="57.490877" lon="9.839870">
<ele>10.583150</ele>
<time>2026-07-16T14:34:41.000Z</time>
</trkpt>
<trkpt lat="57.490909" lon="9.839948">
<ele>10.570891</ele>
<time>2026-07-16T14:34:42.000Z</time>
</trkpt>
<trkpt lat="57.490942" lon="9.840023">
<ele>10.558782</ele>
<time>2026-07-16T14:34:43.000Z</time>
</trkpt>
<trkpt lat="57.490975" lon="9.840097">
<ele>10.546769</ele>
<time>2026-07-16T14:34:44.000Z</time>
</trkpt>
<trkpt lat="57.491010" lon="9.840173">
<ele>10.534266</ele>
<time>2026-07-16T14:34:45.000Z</time>
</trkpt>
<trkpt lat="57.491045" lon="9.840248">
<ele>10.521857</ele>
<time>2026-07-16T14:34:46.000Z</time>
</trkpt>
<trkpt lat="57.491077" lon="9.840325">
<ele>10.509697</ele>
<time>2026-07-16T14:34:47.000Z</time>
</trkpt>
<trkpt lat="57.491110" lon="9.840401">
<ele>10.497491</ele>
<time>2026-07-16T14:34:48.000Z</time>
</trkpt>
<trkpt lat="57.491147" lon="9.840477">
<ele>10.484680</ele>
<time>2026-07-16T14:34:49.000Z</time>
</trkpt>
<trkpt lat="57.491185" lon="9.840556">
<ele>10.471435</ele>
<time>2026-07-16T14:34:50.000Z</time>
</trkpt>
<trkpt lat="57.491221" lon="9.840635">
<ele>10.458495</ele>
<time>2026-07-16T14:34:51.000Z</time>
</trkpt>
<trkpt lat="57.491255" lon="9.840720">
<ele>10.445258</ele>
<time>2026-07-16T14:34:52.000Z</time>
</trkpt>
<trkpt lat="57.491292" lon="9.840805">
<ele>10.431593</ele>
<time>2026-07-16T14:34:53.000Z</time>
</trkpt>
<trkpt lat="57.491328" lon="9.840888">
<ele>10.418269</ele>
<time>2026-07-16T14:34:54.000Z</time>
</trkpt>
<trkpt lat="57.491368" lon="9.840970">
<ele>10.404434</ele>
<time>2026-07-16T14:34:55.000Z</time>
</trkpt>
<trkpt lat="57.491407" lon="9.841049">
<ele>10.391033</ele>
<time>2026-07-16T14:34:56.000Z</time>
</trkpt>
<trkpt lat="57.491445" lon="9.841127">
<ele>10.377881</ele>
<time>2026-07-16T14:34:57.000Z</time>
</trkpt>
<trkpt lat="57.491483" lon="9.841207">
<ele>10.364543</ele>
<time>2026-07-16T14:34:58.000Z</time>
</trkpt>
<trkpt lat="57.491518" lon="9.841290">
<ele>10.351363</ele>
<time>2026-07-16T14:34:59.000Z</time>
</trkpt>
<trkpt lat="57.491553" lon="9.841372">
<ele>10.338282</ele>
<time>2026-07-16T14:35:00.000Z</time>
</trkpt>
<trkpt lat="57.491590" lon="9.841451">
<ele>10.325191</ele>
<time>2026-07-16T14:35:01.000Z</time>
</trkpt>
<trkpt lat="57.491625" lon="9.841527">
<ele>10.312687</ele>
<time>2026-07-16T14:35:02.000Z</time>
</trkpt>
<trkpt lat="57.491662" lon="9.841606">
<ele>10.299596</ele>
<time>2026-07-16T14:35:03.000Z</time>
</trkpt>
<trkpt lat="57.491701" lon="9.841677">
<ele>10.286913</ele>
<time>2026-07-16T14:35:04.000Z</time>
</trkpt>
<trkpt lat="57.491744" lon="9.841744">
<ele>10.273876</ele>
<time>2026-07-16T14:35:05.000Z</time>
</trkpt>
<trkpt lat="57.491792" lon="9.841801">
<ele>10.260640</ele>
<time>2026-07-16T14:35:06.000Z</time>
</trkpt>
<trkpt lat="57.491842" lon="9.841853">
<ele>10.247325</ele>
<time>2026-07-16T14:35:07.000Z</time>
</trkpt>
<trkpt lat="57.491892" lon="9.841899">
<ele>10.234359</ele>
<time>2026-07-16T14:35:08.000Z</time>
</trkpt>
<trkpt lat="57.491942" lon="9.841933">
<ele>10.221985</ele>
<time>2026-07-16T14:35:09.000Z</time>
</trkpt>
<trkpt lat="57.491994" lon="9.841954">
<ele>10.209616</ele>
<time>2026-07-16T14:35:10.000Z</time>
</trkpt>
<trkpt lat="57.492044" lon="9.841961">
<ele>10.200434</ele>
<time>2026-07-16T14:35:11.000Z</time>
</trkpt>
<trkpt lat="57.492091" lon="9.841956">
<ele>10.208264</ele>
<time>2026-07-16T14:35:12.000Z</time>
</trkpt>
<trkpt lat="57.492140" lon="9.841946">
<ele>10.216463</ele>
<time>2026-07-16T14:35:13.000Z</time>
</trkpt>
<trkpt lat="57.492186" lon="9.841941">
<ele>10.224126</ele>
<time>2026-07-16T14:35:14.000Z</time>
</trkpt>
<trkpt lat="57.492229" lon="9.841943">
<ele>10.231280</ele>
<time>2026-07-16T14:35:15.000Z</time>
</trkpt>
<trkpt lat="57.492266" lon="9.841954">
<ele>10.237512</ele>
<time>2026-07-16T14:35:16.000Z</time>
</trkpt>
<trkpt lat="57.492292" lon="9.841977">
<ele>10.242300</ele>
<time>2026-07-16T14:35:17.000Z</time>
</trkpt>
<trkpt lat="57.492304" lon="9.842007">
<ele>10.245643</ele>
<time>2026-07-16T14:35:18.000Z</time>
</trkpt>
<trkpt lat="57.492313" lon="9.842033">
<ele>10.248407</ele>
<time>2026-07-16T14:35:30.000Z</time>
</trkpt>
<trkpt lat="57.492319" lon="9.842093">
<ele>10.253862</ele>
<time>2026-07-16T14:35:34.000Z</time>
</trkpt>
<trkpt lat="57.492318" lon="9.842146">
<ele>10.258602</ele>
<time>2026-07-16T14:35:35.000Z</time>
</trkpt>
<trkpt lat="57.492314" lon="9.842189">
<ele>10.262503</ele>
<time>2026-07-16T14:35:36.000Z</time>
</trkpt>
<trkpt lat="57.492311" lon="9.842233">
<ele>10.266467</ele>
<time>2026-07-16T14:35:37.000Z</time>
</trkpt>
<trkpt lat="57.492307" lon="9.842283">
<ele>10.270986</ele>
<time>2026-07-16T14:35:38.000Z</time>
</trkpt>
<trkpt lat="57.492303" lon="9.842336">
<ele>10.275769</ele>
<time>2026-07-16T14:35:39.000Z</time>
</trkpt>
<trkpt lat="57.492299" lon="9.842390">
<ele>10.280642</ele>
<time>2026-07-16T14:35:40.000Z</time>
</trkpt>
<trkpt lat="57.492295" lon="9.842445">
<ele>10.285602</ele>
<time>2026-07-16T14:35:41.000Z</time>
</trkpt>
<trkpt lat="57.492289" lon="9.842494">
<ele>10.290094</ele>
<time>2026-07-16T14:35:42.000Z</time>
</trkpt>
<trkpt lat="57.492278" lon="9.842543">
<ele>10.294841</ele>
<time>2026-07-16T14:35:43.000Z</time>
</trkpt>
<trkpt lat="57.492270" lon="9.842594">
<ele>10.299589</ele>
<time>2026-07-16T14:35:44.000Z</time>
</trkpt>
<trkpt lat="57.492262" lon="9.842649">
<ele>10.304682</ele>
<time>2026-07-16T14:35:45.000Z</time>
</trkpt>
<trkpt lat="57.492257" lon="9.842709">
<ele>10.310109</ele>
<time>2026-07-16T14:35:46.000Z</time>
</trkpt>
<trkpt lat="57.492256" lon="9.842777">
<ele>10.316190</ele>
<time>2026-07-16T14:35:47.000Z</time>
</trkpt>
<trkpt lat="57.492262" lon="9.842853">
<ele>10.323056</ele>
<time>2026-07-16T14:35:48.000Z</time>
</trkpt>
<trkpt lat="57.492280" lon="9.842922">
<ele>10.329911</ele>
<time>2026-07-16T14:35:49.000Z</time>
</trkpt>
<trkpt lat="57.492309" lon="9.842984">
<ele>10.337258</ele>
<time>2026-07-16T14:35:50.000Z</time>
</trkpt>
<trkpt lat="57.492342" lon="9.843041">
<ele>10.344747</ele>
<time>2026-07-16T14:35:51.000Z</time>
</trkpt>
<trkpt lat="57.492380" lon="9.843097">
<ele>10.352809</ele>
<time>2026-07-16T14:35:52.000Z</time>
</trkpt>
<trkpt lat="57.492415" lon="9.843149">
<ele>10.360258</ele>
<time>2026-07-16T14:35:53.000Z</time>
</trkpt>
<trkpt lat="57.492449" lon="9.843202">
<ele>10.367635</ele>
<time>2026-07-16T14:35:54.000Z</time>
</trkpt>
<trkpt lat="57.492483" lon="9.843256">
<ele>10.375069</ele>
<time>2026-07-16T14:35:55.000Z</time>
</trkpt>
<trkpt lat="57.492515" lon="9.843309">
<ele>10.382194</ele>
<time>2026-07-16T14:35:56.000Z</time>
</trkpt>
<trkpt lat="57.492545" lon="9.843367">
<ele>10.389390</ele>
<time>2026-07-16T14:35:57.000Z</time>
</trkpt>
<trkpt lat="57.492579" lon="9.843428">
<ele>10.397245</ele>
<time>2026-07-16T14:35:58.000Z</time>
</trkpt>
<trkpt lat="57.492611" lon="9.843489">
<ele>10.404864</ele>
<time>2026-07-16T14:35:59.000Z</time>
</trkpt>
<trkpt lat="57.492644" lon="9.843547">
<ele>10.412414</ele>
<time>2026-07-16T14:36:00.000Z</time>
</trkpt>
<trkpt lat="57.492675" lon="9.843600">
<ele>10.419416</ele>
<time>2026-07-16T14:36:01.000Z</time>
</trkpt>
<trkpt lat="57.492706" lon="9.843650">
<ele>10.426239</ele>
<time>2026-07-16T14:36:02.000Z</time>
</trkpt>
<trkpt lat="57.492728" lon="9.843689">
<ele>10.431292</ele>
<time>2026-07-16T14:36:03.000Z</time>
</trkpt>
<trkpt lat="57.492752" lon="9.843734">
<ele>10.436959</ele>
<time>2026-07-16T14:36:04.000Z</time>
</trkpt>
<trkpt lat="57.492788" lon="9.843798">
<ele>10.445240</ele>
<time>2026-07-16T14:36:05.000Z</time>
</trkpt>
<trkpt lat="57.492823" lon="9.843855">
<ele>10.452976</ele>
<time>2026-07-16T14:36:06.000Z</time>
</trkpt>
<trkpt lat="57.492857" lon="9.843911">
<ele>10.460528</ele>
<time>2026-07-16T14:36:07.000Z</time>
</trkpt>
<trkpt lat="57.492897" lon="9.843970">
<ele>10.469017</ele>
<time>2026-07-16T14:36:08.000Z</time>
</trkpt>
<trkpt lat="57.492936" lon="9.844035">
<ele>10.477725</ele>
<time>2026-07-16T14:36:09.000Z</time>
</trkpt>
<trkpt lat="57.492973" lon="9.844100">
<ele>10.486188</ele>
<time>2026-07-16T14:36:10.000Z</time>
</trkpt>
<trkpt lat="57.493013" lon="9.844170">
<ele>10.495320</ele>
<time>2026-07-16T14:36:11.000Z</time>
</trkpt>
<trkpt lat="57.493054" lon="9.844242">
<ele>10.497569</ele>
<time>2026-07-16T14:36:12.000Z</time>
</trkpt>
<trkpt lat="57.493096" lon="9.844314">
<ele>10.496052</ele>
<time>2026-07-16T14:36:13.000Z</time>
</trkpt>
<trkpt lat="57.493135" lon="9.844390">
<ele>10.494552</ele>
<time>2026-07-16T14:36:14.000Z</time>
</trkpt>
<trkpt lat="57.493176" lon="9.844467">
<ele>10.493005</ele>
<time>2026-07-16T14:36:15.000Z</time>
</trkpt>
<trkpt lat="57.493217" lon="9.844540">
<ele>10.491497</ele>
<time>2026-07-16T14:36:16.000Z</time>
</trkpt>
<trkpt lat="57.493259" lon="9.844611">
<ele>10.489990</ele>
<time>2026-07-16T14:36:17.000Z</time>
</trkpt>
<trkpt lat="57.493298" lon="9.844688">
<ele>10.488479</ele>
<time>2026-07-16T14:36:18.000Z</time>
</trkpt>
<trkpt lat="57.493334" lon="9.844768">
<ele>10.486990</ele>
<time>2026-07-16T14:36:19.000Z</time>
</trkpt>
<trkpt lat="57.493369" lon="9.844846">
<ele>10.485539</ele>
<time>2026-07-16T14:36:20.000Z</time>
</trkpt>
<trkpt lat="57.493403" lon="9.844923">
<ele>10.484116</ele>
<time>2026-07-16T14:36:21.000Z</time>
</trkpt>
<trkpt lat="57.493440" lon="9.844995">
<ele>10.482694</ele>
<time>2026-07-16T14:36:22.000Z</time>
</trkpt>
<trkpt lat="57.493472" lon="9.845067">
<ele>10.481360</ele>
<time>2026-07-16T14:36:23.000Z</time>
</trkpt>
<trkpt lat="57.493506" lon="9.845135">
<ele>10.480034</ele>
<time>2026-07-16T14:36:24.000Z</time>
</trkpt>
<trkpt lat="57.493543" lon="9.845195">
<ele>10.478731</ele>
<time>2026-07-16T14:36:25.000Z</time>
</trkpt>
<trkpt lat="57.493580" lon="9.845250">
<ele>10.477473</ele>
<time>2026-07-16T14:36:26.000Z</time>
</trkpt>
<trkpt lat="57.493619" lon="9.845305">
<ele>10.476173</ele>
<time>2026-07-16T14:36:27.000Z</time>
</trkpt>
<trkpt lat="57.493654" lon="9.845361">
<ele>10.474947</ele>
<time>2026-07-16T14:36:28.000Z</time>
</trkpt>
<trkpt lat="57.493689" lon="9.845424">
<ele>10.473653</ele>
<time>2026-07-16T14:36:29.000Z</time>
</trkpt>
<trkpt lat="57.493728" lon="9.845487">
<ele>10.472281</ele>
<time>2026-07-16T14:36:30.000Z</time>
</trkpt>
<trkpt lat="57.493770" lon="9.845550">
<ele>10.470848</ele>
<time>2026-07-16T14:36:31.000Z</time>
</trkpt>
<trkpt lat="57.493815" lon="9.845613">
<ele>10.469352</ele>
<time>2026-07-16T14:36:32.000Z</time>
</trkpt>
<trkpt lat="57.493857" lon="9.845679">
<ele>10.467892</ele>
<time>2026-07-16T14:36:33.000Z</time>
</trkpt>
<trkpt lat="57.493903" lon="9.845747">
<ele>10.466331</ele>
<time>2026-07-16T14:36:34.000Z</time>
</trkpt>
<trkpt lat="57.493946" lon="9.845817">
<ele>10.464813</ele>
<time>2026-07-16T14:36:35.000Z</time>
</trkpt>
<trkpt lat="57.493988" lon="9.845888">
<ele>10.463306</ele>
<time>2026-07-16T14:36:36.000Z</time>
</trkpt>
<trkpt lat="57.494029" lon="9.845954">
<ele>10.461866</ele>
<time>2026-07-16T14:36:37.000Z</time>
</trkpt>
<trkpt lat="57.494069" lon="9.846024">
<ele>10.460407</ele>
<time>2026-07-16T14:36:38.000Z</time>
</trkpt>
<trkpt lat="57.494105" lon="9.846086">
<ele>10.459104</ele>
<time>2026-07-16T14:36:39.000Z</time>
</trkpt>
<trkpt lat="57.494142" lon="9.846152">
<ele>10.457742</ele>
<time>2026-07-16T14:36:40.000Z</time>
</trkpt>
<trkpt lat="57.494181" lon="9.846213">
<ele>10.456389</ele>
<time>2026-07-16T14:36:41.000Z</time>
</trkpt>
<trkpt lat="57.494220" lon="9.846271">
<ele>10.455063</ele>
<time>2026-07-16T14:36:42.000Z</time>
</trkpt>
<trkpt lat="57.494259" lon="9.846331">
<ele>10.453719</ele>
<time>2026-07-16T14:36:43.000Z</time>
</trkpt>
<trkpt lat="57.494298" lon="9.846397">
<ele>10.452318</ele>
<time>2026-07-16T14:36:44.000Z</time>
</trkpt>
<trkpt lat="57.494333" lon="9.846472">
<ele>10.450900</ele>
<time>2026-07-16T14:36:45.000Z</time>
</trkpt>
<trkpt lat="57.494364" lon="9.846550">
<ele>10.454425</ele>
<time>2026-07-16T14:36:46.000Z</time>
</trkpt>
<trkpt lat="57.494398" lon="9.846634">
<ele>10.458796</ele>
<time>2026-07-16T14:36:47.000Z</time>
</trkpt>
<trkpt lat="57.494432" lon="9.846716">
<ele>10.463102</ele>
<time>2026-07-16T14:36:48.000Z</time>
</trkpt>
<trkpt lat="57.494467" lon="9.846798">
<ele>10.467455</ele>
<time>2026-07-16T14:36:49.000Z</time>
</trkpt>
<trkpt lat="57.494501" lon="9.846879">
<ele>10.471728</ele>
<time>2026-07-16T14:36:50.000Z</time>
</trkpt>
<trkpt lat="57.494539" lon="9.846959">
<ele>10.476167</ele>
<time>2026-07-16T14:36:51.000Z</time>
</trkpt>
<trkpt lat="57.494577" lon="9.847034">
<ele>10.480452</ele>
<time>2026-07-16T14:36:52.000Z</time>
</trkpt>
<trkpt lat="57.494618" lon="9.847108">
<ele>10.484870</ele>
<time>2026-07-16T14:36:53.000Z</time>
</trkpt>
<trkpt lat="57.494657" lon="9.847178">
<ele>10.489062</ele>
<time>2026-07-16T14:36:54.000Z</time>
</trkpt>
<trkpt lat="57.494695" lon="9.847248">
<ele>10.493198</ele>
<time>2026-07-16T14:36:55.000Z</time>
</trkpt>
<trkpt lat="57.494736" lon="9.847319">
<ele>10.497531</ele>
<time>2026-07-16T14:36:56.000Z</time>
</trkpt>
<trkpt lat="57.494778" lon="9.847391">
<ele>10.501949</ele>
<time>2026-07-16T14:36:57.000Z</time>
</trkpt>
<trkpt lat="57.494821" lon="9.847460">
<ele>10.506341</ele>
<time>2026-07-16T14:36:58.000Z</time>
</trkpt>
<trkpt lat="57.494865" lon="9.847533">
<ele>10.510901</ele>
<time>2026-07-16T14:36:59.000Z</time>
</trkpt>
<trkpt lat="57.494908" lon="9.847607">
<ele>10.515432</ele>
<time>2026-07-16T14:37:00.000Z</time>
</trkpt>
<trkpt lat="57.494946" lon="9.847675">
<ele>10.519510</ele>
<time>2026-07-16T14:37:01.000Z</time>
</trkpt>
<trkpt lat="57.494990" lon="9.847752">
<ele>10.524183</ele>
<time>2026-07-16T14:37:02.000Z</time>
</trkpt>
<trkpt lat="57.495033" lon="9.847830">
<ele>10.528828</ele>
<time>2026-07-16T14:37:03.000Z</time>
</trkpt>
<trkpt lat="57.495075" lon="9.847906">
<ele>10.533360</ele>
<time>2026-07-16T14:37:04.000Z</time>
</trkpt>
<trkpt lat="57.495120" lon="9.847983">
<ele>10.538089</ele>
<time>2026-07-16T14:37:05.000Z</time>
</trkpt>
<trkpt lat="57.495163" lon="9.848060">
<ele>10.542706</ele>
<time>2026-07-16T14:37:06.000Z</time>
</trkpt>
<trkpt lat="57.495202" lon="9.848137">
<ele>10.547104</ele>
<time>2026-07-16T14:37:07.000Z</time>
</trkpt>
<trkpt lat="57.495240" lon="9.848215">
<ele>10.551481</ele>
<time>2026-07-16T14:37:08.000Z</time>
</trkpt>
<trkpt lat="57.495276" lon="9.848289">
<ele>10.555631</ele>
<time>2026-07-16T14:37:09.000Z</time>
</trkpt>
<trkpt lat="57.495313" lon="9.848362">
<ele>10.559802</ele>
<time>2026-07-16T14:37:10.000Z</time>
</trkpt>
<trkpt lat="57.495351" lon="9.848432">
<ele>10.563938</ele>
<time>2026-07-16T14:37:11.000Z</time>
</trkpt>
<trkpt lat="57.495386" lon="9.848498">
<ele>10.567793</ele>
<time>2026-07-16T14:37:12.000Z</time>
</trkpt>
<trkpt lat="57.495423" lon="9.848564">
<ele>10.571758</ele>
<time>2026-07-16T14:37:13.000Z</time>
</trkpt>
<trkpt lat="57.495459" lon="9.848625">
<ele>10.575524</ele>
<time>2026-07-16T14:37:14.000Z</time>
</trkpt>
<trkpt lat="57.495493" lon="9.848687">
<ele>10.579207</ele>
<time>2026-07-16T14:37:15.000Z</time>
</trkpt>
<trkpt lat="57.495527" lon="9.848748">
<ele>10.582860</ele>
<time>2026-07-16T14:37:16.000Z</time>
</trkpt>
<trkpt lat="57.495561" lon="9.848810">
<ele>10.586543</ele>
<time>2026-07-16T14:37:17.000Z</time>
</trkpt>
<trkpt lat="57.495596" lon="9.848877">
<ele>10.590461</ele>
<time>2026-07-16T14:37:18.000Z</time>
</trkpt>
<trkpt lat="57.495630" lon="9.848947">
<ele>10.594644</ele>
<time>2026-07-16T14:37:19.000Z</time>
</trkpt>
<trkpt lat="57.495662" lon="9.849011">
<ele>10.598519</ele>
<time>2026-07-16T14:37:20.000Z</time>
</trkpt>
<trkpt lat="57.495695" lon="9.849086">
<ele>10.602815</ele>
<time>2026-07-16T14:37:21.000Z</time>
</trkpt>
<trkpt lat="57.495729" lon="9.849157">
<ele>10.607031</ele>
<time>2026-07-16T14:37:22.000Z</time>
</trkpt>
<trkpt lat="57.495764" lon="9.849228">
<ele>10.611302</ele>
<time>2026-07-16T14:37:23.000Z</time>
</trkpt>
<trkpt lat="57.495795" lon="9.849301">
<ele>10.615426</ele>
<time>2026-07-16T14:37:24.000Z</time>
</trkpt>
<trkpt lat="57.495829" lon="9.849377">
<ele>10.619809</ele>
<time>2026-07-16T14:37:25.000Z</time>
</trkpt>
<trkpt lat="57.495866" lon="9.849454">
<ele>10.624388</ele>
<time>2026-07-16T14:37:26.000Z</time>
</trkpt>
<trkpt lat="57.495901" lon="9.849530">
<ele>10.628824</ele>
<time>2026-07-16T14:37:27.000Z</time>
</trkpt>
<trkpt lat="57.495936" lon="9.849612">
<ele>10.633466</ele>
<time>2026-07-16T14:37:28.000Z</time>
</trkpt>
<trkpt lat="57.495970" lon="9.849691">
<ele>10.637952</ele>
<time>2026-07-16T14:37:29.000Z</time>
</trkpt>
<trkpt lat="57.496002" lon="9.849765">
<ele>10.642162</ele>
<time>2026-07-16T14:37:30.000Z</time>
</trkpt>
<trkpt lat="57.496035" lon="9.849837">
<ele>10.646357</ele>
<time>2026-07-16T14:37:31.000Z</time>
</trkpt>
<trkpt lat="57.496066" lon="9.849903">
<ele>10.650242</ele>
<time>2026-07-16T14:37:32.000Z</time>
</trkpt>
<trkpt lat="57.496097" lon="9.849964">
<ele>10.653964</ele>
<time>2026-07-16T14:37:33.000Z</time>
</trkpt>
<trkpt lat="57.496125" lon="9.850028">
<ele>10.657622</ele>
<time>2026-07-16T14:37:34.000Z</time>
</trkpt>
<trkpt lat="57.496148" lon="9.850085">
<ele>10.660782</ele>
<time>2026-07-16T14:37:35.000Z</time>
</trkpt>
<trkpt lat="57.496171" lon="9.850139">
<ele>10.663836</ele>
<time>2026-07-16T14:37:36.000Z</time>
</trkpt>
<trkpt lat="57.496194" lon="9.850190">
<ele>10.666787</ele>
<time>2026-07-16T14:37:37.000Z</time>
</trkpt>
<trkpt lat="57.496217" lon="9.850238">
<ele>10.669638</ele>
<time>2026-07-16T14:37:38.000Z</time>
</trkpt>
<trkpt lat="57.496240" lon="9.850289">
<ele>10.672589</ele>
<time>2026-07-16T14:37:39.000Z</time>
</trkpt>
<trkpt lat="57.496266" lon="9.850336">
<ele>10.675579</ele>
<time>2026-07-16T14:37:40.000Z</time>
</trkpt>
<trkpt lat="57.496293" lon="9.850379">
<ele>10.678510</ele>
<time>2026-07-16T14:37:41.000Z</time>
</trkpt>
<trkpt lat="57.496319" lon="9.850416">
<ele>10.681210</ele>
<time>2026-07-16T14:37:42.000Z</time>
</trkpt>
<trkpt lat="57.496346" lon="9.850449">
<ele>10.683874</ele>
<time>2026-07-16T14:37:43.000Z</time>
</trkpt>
<trkpt lat="57.496373" lon="9.850480">
<ele>10.686491</ele>
<time>2026-07-16T14:37:44.000Z</time>
</trkpt>
<trkpt lat="57.496396" lon="9.850509">
<ele>10.688783</ele>
<time>2026-07-16T14:37:45.000Z</time>
</trkpt>
<trkpt lat="57.496416" lon="9.850536">
<ele>10.690821</ele>
<time>2026-07-16T14:37:46.000Z</time>
</trkpt>
<trkpt lat="57.496435" lon="9.850555">
<ele>10.692600</ele>
<time>2026-07-16T14:37:47.000Z</time>
</trkpt>
<trkpt lat="57.496460" lon="9.850574">
<ele>10.694828</ele>
<time>2026-07-16T14:37:48.000Z</time>
</trkpt>
<trkpt lat="57.496481" lon="9.850600">
<ele>10.696908</ele>
<time>2026-07-16T14:37:49.000Z</time>
</trkpt>
<trkpt lat="57.496506" lon="9.850631">
<ele>10.699386</ele>
<time>2026-07-16T14:37:50.000Z</time>
</trkpt>
<trkpt lat="57.496536" lon="9.850667">
<ele>10.702331</ele>
<time>2026-07-16T14:37:51.000Z</time>
</trkpt>
<trkpt lat="57.496569" lon="9.850707">
<ele>10.705579</ele>
<time>2026-07-16T14:37:52.000Z</time>
</trkpt>
<trkpt lat="57.496606" lon="9.850749">
<ele>10.709154</ele>
<time>2026-07-16T14:37:53.000Z</time>
</trkpt>
<trkpt lat="57.496644" lon="9.850793">
<ele>10.712846</ele>
<time>2026-07-16T14:37:54.000Z</time>
</trkpt>
<trkpt lat="57.496679" lon="9.850837">
<ele>10.716330</ele>
<time>2026-07-16T14:37:55.000Z</time>
</trkpt>
<trkpt lat="57.496714" lon="9.850882">
<ele>10.719839</ele>
<time>2026-07-16T14:37:56.000Z</time>
</trkpt>
<trkpt lat="57.496750" lon="9.850929">
<ele>10.723466</ele>
<time>2026-07-16T14:37:57.000Z</time>
</trkpt>
<trkpt lat="57.496786" lon="9.850979">
<ele>10.727172</ele>
<time>2026-07-16T14:37:58.000Z</time>
</trkpt>
<trkpt lat="57.496820" lon="9.851030">
<ele>10.730774</ele>
<time>2026-07-16T14:37:59.000Z</time>
</trkpt>
<trkpt lat="57.496855" lon="9.851083">
<ele>10.734496</ele>
<time>2026-07-16T14:38:00.000Z</time>
</trkpt>
<trkpt lat="57.496890" lon="9.851132">
<ele>10.738108</ele>
<time>2026-07-16T14:38:01.000Z</time>
</trkpt>
<trkpt lat="57.496927" lon="9.851183">
<ele>10.748828</ele>
<time>2026-07-16T14:38:02.000Z</time>
</trkpt>
<trkpt lat="57.496962" lon="9.851240">
<ele>10.759978</ele>
<time>2026-07-16T14:38:03.000Z</time>
</trkpt>
<trkpt lat="57.496996" lon="9.851297">
<ele>10.770949</ele>
<time>2026-07-16T14:38:04.000Z</time>
</trkpt>
<trkpt lat="57.497030" lon="9.851355">
<ele>10.782006</ele>
<time>2026-07-16T14:38:05.000Z</time>
</trkpt>
<trkpt lat="57.497067" lon="9.851413">
<ele>10.793603</ele>
<time>2026-07-16T14:38:06.000Z</time>
</trkpt>
<trkpt lat="57.497105" lon="9.851473">
<ele>10.805550</ele>
<time>2026-07-16T14:38:07.000Z</time>
</trkpt>
<trkpt lat="57.497139" lon="9.851523">
<ele>10.815939</ele>
<time>2026-07-16T14:38:08.000Z</time>
</trkpt>
<trkpt lat="57.497179" lon="9.851584">
<ele>10.828337</ele>
<time>2026-07-16T14:38:09.000Z</time>
</trkpt>
<trkpt lat="57.497217" lon="9.851646">
<ele>10.840452</ele>
<time>2026-07-16T14:38:10.000Z</time>
</trkpt>
<trkpt lat="57.497251" lon="9.851705">
<ele>10.851597</ele>
<time>2026-07-16T14:38:11.000Z</time>
</trkpt>
<trkpt lat="57.497286" lon="9.851766">
<ele>10.863093</ele>
<time>2026-07-16T14:38:12.000Z</time>
</trkpt>
<trkpt lat="57.497321" lon="9.851825">
<ele>10.874414</ele>
<time>2026-07-16T14:38:13.000Z</time>
</trkpt>
<trkpt lat="57.497361" lon="9.851889">
<ele>10.887060</ele>
<time>2026-07-16T14:38:14.000Z</time>
</trkpt>
<trkpt lat="57.497399" lon="9.851949">
<ele>10.899007</ele>
<time>2026-07-16T14:38:15.000Z</time>
</trkpt>
<trkpt lat="57.497440" lon="9.852013">
<ele>10.911836</ele>
<time>2026-07-16T14:38:16.000Z</time>
</trkpt>
<trkpt lat="57.497482" lon="9.852080">
<ele>10.925098</ele>
<time>2026-07-16T14:38:17.000Z</time>
</trkpt>
<trkpt lat="57.497521" lon="9.852146">
<ele>10.937735</ele>
<time>2026-07-16T14:38:18.000Z</time>
</trkpt>
<trkpt lat="57.497559" lon="9.852213">
<ele>10.950284</ele>
<time>2026-07-16T14:38:19.000Z</time>
</trkpt>
<trkpt lat="57.497598" lon="9.852281">
<ele>10.963096</ele>
<time>2026-07-16T14:38:20.000Z</time>
</trkpt>
<trkpt lat="57.497633" lon="9.852345">
<ele>10.974859</ele>
<time>2026-07-16T14:38:21.000Z</time>
</trkpt>
<trkpt lat="57.497667" lon="9.852408">
<ele>10.986361</ele>
<time>2026-07-16T14:38:22.000Z</time>
</trkpt>
<trkpt lat="57.497701" lon="9.852474">
<ele>10.998139</ele>
<time>2026-07-16T14:38:23.000Z</time>
</trkpt>
<trkpt lat="57.497733" lon="9.852538">
<ele>11.009401</ele>
<time>2026-07-16T14:38:24.000Z</time>
</trkpt>
<trkpt lat="57.497766" lon="9.852599">
<ele>11.020551</ele>
<time>2026-07-16T14:38:25.000Z</time>
</trkpt>
<trkpt lat="57.497797" lon="9.852660">
<ele>11.031367</ele>
<time>2026-07-16T14:38:26.000Z</time>
</trkpt>
<trkpt lat="57.497836" lon="9.852721">
<ele>11.043580</ele>
<time>2026-07-16T14:38:27.000Z</time>
</trkpt>
<trkpt lat="57.497876" lon="9.852784">
<ele>11.056143</ele>
<time>2026-07-16T14:38:28.000Z</time>
</trkpt>
<trkpt lat="57.497912" lon="9.852851">
<ele>11.068348</ele>
<time>2026-07-16T14:38:29.000Z</time>
</trkpt>
<trkpt lat="57.497949" lon="9.852915">
<ele>11.080458</ele>
<time>2026-07-16T14:38:30.000Z</time>
</trkpt>
<trkpt lat="57.497983" lon="9.852978">
<ele>11.091960</ele>
<time>2026-07-16T14:38:31.000Z</time>
</trkpt>
<trkpt lat="57.498016" lon="9.853042">
<ele>11.103386</ele>
<time>2026-07-16T14:38:32.000Z</time>
</trkpt>
<trkpt lat="57.498049" lon="9.853104">
<ele>11.114628</ele>
<time>2026-07-16T14:38:33.000Z</time>
</trkpt>
<trkpt lat="57.498083" lon="9.853162">
<ele>11.125685</ele>
<time>2026-07-16T14:38:34.000Z</time>
</trkpt>
<trkpt lat="57.498117" lon="9.853218">
<ele>11.136570</ele>
<time>2026-07-16T14:38:35.000Z</time>
</trkpt>
<trkpt lat="57.498154" lon="9.853277">
<ele>11.148250</ele>
<time>2026-07-16T14:38:36.000Z</time>
</trkpt>
<trkpt lat="57.498190" lon="9.853336">
<ele>11.159750</ele>
<time>2026-07-16T14:38:37.000Z</time>
</trkpt>
<trkpt lat="57.498222" lon="9.853394">
<ele>11.175341</ele>
<time>2026-07-16T14:38:38.000Z</time>
</trkpt>
<trkpt lat="57.498255" lon="9.853455">
<ele>11.241704</ele>
<time>2026-07-16T14:38:39.000Z</time>
</trkpt>
<trkpt lat="57.498289" lon="9.853515">
<ele>11.308557</ele>
<time>2026-07-16T14:38:40.000Z</time>
</trkpt>
<trkpt lat="57.498323" lon="9.853574">
<ele>11.374884</ele>
<time>2026-07-16T14:38:41.000Z</time>
</trkpt>
<trkpt lat="57.498355" lon="9.853632">
<ele>11.438617</ele>
<time>2026-07-16T14:38:42.000Z</time>
</trkpt>
<trkpt lat="57.498389" lon="9.853692">
<ele>11.505470</ele>
<time>2026-07-16T14:38:43.000Z</time>
</trkpt>
<trkpt lat="57.498420" lon="9.853750">
<ele>11.568188</ele>
<time>2026-07-16T14:38:44.000Z</time>
</trkpt>
<trkpt lat="57.498448" lon="9.853810">
<ele>11.629114</ele>
<time>2026-07-16T14:38:45.000Z</time>
</trkpt>
<trkpt lat="57.498474" lon="9.853867">
<ele>11.686436</ele>
<time>2026-07-16T14:38:46.000Z</time>
</trkpt>
<trkpt lat="57.498501" lon="9.853924">
<ele>11.744692</ele>
<time>2026-07-16T14:38:47.000Z</time>
</trkpt>
<trkpt lat="57.498531" lon="9.853981">
<ele>11.805862</ele>
<time>2026-07-16T14:38:48.000Z</time>
</trkpt>
<trkpt lat="57.498558" lon="9.854035">
<ele>11.862412</ele>
<time>2026-07-16T14:38:49.000Z</time>
</trkpt>
<trkpt lat="57.498588" lon="9.854090">
<ele>11.922497</ele>
<time>2026-07-16T14:38:50.000Z</time>
</trkpt>
<trkpt lat="57.498619" lon="9.854144">
<ele>11.983080</ele>
<time>2026-07-16T14:38:51.000Z</time>
</trkpt>
<trkpt lat="57.498646" lon="9.854198">
<ele>12.039630</ele>
<time>2026-07-16T14:38:52.000Z</time>
</trkpt>
<trkpt lat="57.498673" lon="9.854258">
<ele>12.099630</ele>
<time>2026-07-16T14:38:53.000Z</time>
</trkpt>
<trkpt lat="57.498699" lon="9.854319">
<ele>12.159323</ele>
<time>2026-07-16T14:38:54.000Z</time>
</trkpt>
<trkpt lat="57.498726" lon="9.854378">
<ele>12.218737</ele>
<time>2026-07-16T14:38:55.000Z</time>
</trkpt>
<trkpt lat="57.498750" lon="9.854437">
<ele>12.275469</ele>
<time>2026-07-16T14:38:56.000Z</time>
</trkpt>
<trkpt lat="57.498773" lon="9.854497">
<ele>12.331974</ele>
<time>2026-07-16T14:38:57.000Z</time>
</trkpt>
<trkpt lat="57.498793" lon="9.854556">
<ele>12.385455</ele>
<time>2026-07-16T14:38:58.000Z</time>
</trkpt>
<trkpt lat="57.498817" lon="9.854614">
<ele>12.441578</ele>
<time>2026-07-16T14:38:59.000Z</time>
</trkpt>
<trkpt lat="57.498843" lon="9.854671">
<ele>12.498900</ele>
<time>2026-07-16T14:39:00.000Z</time>
</trkpt>
<trkpt lat="57.498873" lon="9.854735">
<ele>12.564012</ele>
<time>2026-07-16T14:39:01.000Z</time>
</trkpt>
<trkpt lat="57.498905" lon="9.854794">
<ele>12.628281</ele>
<time>2026-07-16T14:39:02.000Z</time>
</trkpt>
<trkpt lat="57.498941" lon="9.854858">
<ele>12.699315</ele>
<time>2026-07-16T14:39:03.000Z</time>
</trkpt>
<trkpt lat="57.498981" lon="9.854921">
<ele>12.774081</ele>
<time>2026-07-16T14:39:04.000Z</time>
</trkpt>
<trkpt lat="57.499020" lon="9.854982">
<ele>12.846768</ele>
<time>2026-07-16T14:39:05.000Z</time>
</trkpt>
<trkpt lat="57.499059" lon="9.855048">
<ele>12.921978</ele>
<time>2026-07-16T14:39:06.000Z</time>
</trkpt>
<trkpt lat="57.499094" lon="9.855118">
<ele>12.995284</ele>
<time>2026-07-16T14:39:07.000Z</time>
</trkpt>
<trkpt lat="57.499131" lon="9.855186">
<ele>13.069477</ele>
<time>2026-07-16T14:39:08.000Z</time>
</trkpt>
<trkpt lat="57.499169" lon="9.855257">
<ele>13.146305</ele>
<time>2026-07-16T14:39:09.000Z</time>
</trkpt>
<trkpt lat="57.499208" lon="9.855326">
<ele>13.223081</ele>
<time>2026-07-16T14:39:10.000Z</time>
</trkpt>
<trkpt lat="57.499242" lon="9.855390">
<ele>13.292079</ele>
<time>2026-07-16T14:39:11.000Z</time>
</trkpt>
<trkpt lat="57.499274" lon="9.855449">
<ele>13.356348</ele>
<time>2026-07-16T14:39:12.000Z</time>
</trkpt>
<trkpt lat="57.499305" lon="9.855503">
<ele>13.416930</ele>
<time>2026-07-16T14:39:13.000Z</time>
</trkpt>
<trkpt lat="57.499333" lon="9.855556">
<ele>13.473912</ele>
<time>2026-07-16T14:39:14.000Z</time>
</trkpt>
<trkpt lat="57.499365" lon="9.855609">
<ele>13.535032</ele>
<time>2026-07-16T14:39:15.000Z</time>
</trkpt>
<trkpt lat="57.499399" lon="9.855665">
<ele>13.599812</ele>
<time>2026-07-16T14:39:16.000Z</time>
</trkpt>
<trkpt lat="57.499434" lon="9.855728">
<ele>13.669285</ele>
<time>2026-07-16T14:39:17.000Z</time>
</trkpt>
<trkpt lat="57.499471" lon="9.855796">
<ele>13.733407</ele>
<time>2026-07-16T14:39:18.000Z</time>
</trkpt>
<trkpt lat="57.499508" lon="9.855866">
<ele>13.710153</ele>
<time>2026-07-16T14:39:19.000Z</time>
</trkpt>
<trkpt lat="57.499547" lon="9.855935">
<ele>13.686437</ele>
<time>2026-07-16T14:39:20.000Z</time>
</trkpt>
<trkpt lat="57.499583" lon="9.856002">
<ele>13.663998</ele>
<time>2026-07-16T14:39:21.000Z</time>
</trkpt>
<trkpt lat="57.499617" lon="9.856070">
<ele>13.642000</ele>
<time>2026-07-16T14:39:22.000Z</time>
</trkpt>
<trkpt lat="57.499648" lon="9.856137">
<ele>13.621061</ele>
<time>2026-07-16T14:39:23.000Z</time>
</trkpt>
<trkpt lat="57.499676" lon="9.856201">
<ele>13.601516</ele>
<time>2026-07-16T14:39:24.000Z</time>
</trkpt>
<trkpt lat="57.499706" lon="9.856264">
<ele>13.581581</ele>
<time>2026-07-16T14:39:25.000Z</time>
</trkpt>
<trkpt lat="57.499736" lon="9.856330">
<ele>13.561108</ele>
<time>2026-07-16T14:39:26.000Z</time>
</trkpt>
<trkpt lat="57.499763" lon="9.856394">
<ele>13.541839</ele>
<time>2026-07-16T14:39:27.000Z</time>
</trkpt>
<trkpt lat="57.499792" lon="9.856457">
<ele>13.522193</ele>
<time>2026-07-16T14:39:28.000Z</time>
</trkpt>
<trkpt lat="57.499826" lon="9.856526">
<ele>13.500021</ele>
<time>2026-07-16T14:39:29.000Z</time>
</trkpt>
<trkpt lat="57.499861" lon="9.856594">
<ele>13.477721</ele>
<time>2026-07-16T14:39:30.000Z</time>
</trkpt>
<trkpt lat="57.499901" lon="9.856661">
<ele>13.454003</ele>
<time>2026-07-16T14:39:31.000Z</time>
</trkpt>
<trkpt lat="57.499940" lon="9.856725">
<ele>13.431086</ele>
<time>2026-07-16T14:39:32.000Z</time>
</trkpt>
<trkpt lat="57.499981" lon="9.856791">
<ele>13.407194</ele>
<time>2026-07-16T14:39:33.000Z</time>
</trkpt>
<trkpt lat="57.500021" lon="9.856862">
<ele>13.382832</ele>
<time>2026-07-16T14:39:34.000Z</time>
</trkpt>
<trkpt lat="57.500061" lon="9.856932">
<ele>13.358633</ele>
<time>2026-07-16T14:39:35.000Z</time>
</trkpt>
<trkpt lat="57.500103" lon="9.857003">
<ele>13.333625</ele>
<time>2026-07-16T14:39:36.000Z</time>
</trkpt>
<trkpt lat="57.500144" lon="9.857072">
<ele>13.309262</ele>
<time>2026-07-16T14:39:37.000Z</time>
</trkpt>
<trkpt lat="57.500181" lon="9.857144">
<ele>13.285669</ele>
<time>2026-07-16T14:39:38.000Z</time>
</trkpt>
<trkpt lat="57.500216" lon="9.857209">
<ele>13.263876</ele>
<time>2026-07-16T14:39:39.000Z</time>
</trkpt>
<trkpt lat="57.500247" lon="9.857268">
<ele>13.244334</ele>
<time>2026-07-16T14:39:40.000Z</time>
</trkpt>
<trkpt lat="57.500281" lon="9.857326">
<ele>13.224006</ele>
<time>2026-07-16T14:39:41.000Z</time>
</trkpt>
<trkpt lat="57.500312" lon="9.857383">
<ele>13.204800</ele>
<time>2026-07-16T14:39:42.000Z</time>
</trkpt>
<trkpt lat="57.500345" lon="9.857444">
<ele>13.184301</ele>
<time>2026-07-16T14:39:43.000Z</time>
</trkpt>
<trkpt lat="57.500385" lon="9.857505">
<ele>13.161508</ele>
<time>2026-07-16T14:39:44.000Z</time>
</trkpt>
<trkpt lat="57.500424" lon="9.857564">
<ele>13.139357</ele>
<time>2026-07-16T14:39:45.000Z</time>
</trkpt>
<trkpt lat="57.500471" lon="9.857625">
<ele>13.114103</ele>
<time>2026-07-16T14:39:46.000Z</time>
</trkpt>
<trkpt lat="57.500520" lon="9.857687">
<ele>13.087988</ele>
<time>2026-07-16T14:39:47.000Z</time>
</trkpt>
<trkpt lat="57.500567" lon="9.857757">
<ele>13.061457</ele>
<time>2026-07-16T14:39:48.000Z</time>
</trkpt>
<trkpt lat="57.500615" lon="9.857829">
<ele>13.034285</ele>
<time>2026-07-16T14:39:49.000Z</time>
</trkpt>
<trkpt lat="57.500666" lon="9.857906">
<ele>13.005341</ele>
<time>2026-07-16T14:39:50.000Z</time>
</trkpt>
<trkpt lat="57.500711" lon="9.857975">
<ele>12.979644</ele>
<time>2026-07-16T14:39:51.000Z</time>
</trkpt>
<trkpt lat="57.500760" lon="9.858047">
<ele>12.952128</ele>
<time>2026-07-16T14:39:52.000Z</time>
</trkpt>
<trkpt lat="57.500808" lon="9.858118">
<ele>13.164133</ele>
<time>2026-07-16T14:39:53.000Z</time>
</trkpt>
<trkpt lat="57.500854" lon="9.858183">
<ele>13.478010</ele>
<time>2026-07-16T14:39:54.000Z</time>
</trkpt>
<trkpt lat="57.500902" lon="9.858248">
<ele>13.800611</ele>
<time>2026-07-16T14:39:55.000Z</time>
</trkpt>
<trkpt lat="57.500948" lon="9.858307">
<ele>14.104215</ele>
<time>2026-07-16T14:39:56.000Z</time>
</trkpt>
<trkpt lat="57.500992" lon="9.858358">
<ele>14.385916</ele>
<time>2026-07-16T14:39:57.000Z</time>
</trkpt>
<trkpt lat="57.501023" lon="9.858403">
<ele>14.599571</ele>
<time>2026-07-16T14:39:58.000Z</time>
</trkpt>
<trkpt lat="57.501049" lon="9.858438">
<ele>14.773956</ele>
<time>2026-07-16T14:39:59.000Z</time>
</trkpt>
<trkpt lat="57.501065" lon="9.858454">
<ele>14.872665</ele>
<time>2026-07-16T14:40:00.000Z</time>
</trkpt>
<trkpt lat="57.501078" lon="9.858465">
<ele>14.950274</ele>
<time>2026-07-16T14:40:01.000Z</time>
</trkpt>
<trkpt lat="57.501104" lon="9.858488">
<ele>15.106721</ele>
<time>2026-07-16T14:40:02.000Z</time>
</trkpt>
<trkpt lat="57.501118" lon="9.858517">
<ele>15.220560</ele>
<time>2026-07-16T14:40:03.000Z</time>
</trkpt>
<trkpt lat="57.501124" lon="9.858555">
<ele>15.336209</ele>
<time>2026-07-16T14:40:04.000Z</time>
</trkpt>
<trkpt lat="57.501128" lon="9.858604">
<ele>15.480927</ele>
<time>2026-07-16T14:40:05.000Z</time>
</trkpt>
<trkpt lat="57.501132" lon="9.858659">
<ele>15.642988</ele>
<time>2026-07-16T14:40:06.000Z</time>
</trkpt>
<trkpt lat="57.501136" lon="9.858715">
<ele>15.807942</ele>
<time>2026-07-16T14:40:07.000Z</time>
</trkpt>
<trkpt lat="57.501142" lon="9.858771">
<ele>15.974677</ele>
<time>2026-07-16T14:40:08.000Z</time>
</trkpt>
<trkpt lat="57.501147" lon="9.858828">
<ele>16.143316</ele>
<time>2026-07-16T14:40:09.000Z</time>
</trkpt>
<trkpt lat="57.501154" lon="9.858885">
<ele>16.314044</ele>
<time>2026-07-16T14:40:10.000Z</time>
</trkpt>
<trkpt lat="57.501161" lon="9.858940">
<ele>16.479084</ele>
<time>2026-07-16T14:40:11.000Z</time>
</trkpt>
<trkpt lat="57.501169" lon="9.858997">
<ele>16.651105</ele>
<time>2026-07-16T14:40:12.000Z</time>
</trkpt>
<trkpt lat="57.501174" lon="9.859053">
<ele>16.816862</ele>
<time>2026-07-16T14:40:13.000Z</time>
</trkpt>
<trkpt lat="57.501175" lon="9.859108">
<ele>16.977550</ele>
<time>2026-07-16T14:40:14.000Z</time>
</trkpt>
<trkpt lat="57.501180" lon="9.859165">
<ele>17.146189</ele>
<time>2026-07-16T14:40:15.000Z</time>
</trkpt>
<trkpt lat="57.501188" lon="9.859220">
<ele>17.312566</ele>
<time>2026-07-16T14:40:16.000Z</time>
</trkpt>
<trkpt lat="57.501193" lon="9.859277">
<ele>17.481204</ele>
<time>2026-07-16T14:40:17.000Z</time>
</trkpt>
<trkpt lat="57.501197" lon="9.859333">
<ele>17.646159</ele>
<time>2026-07-16T14:40:18.000Z</time>
</trkpt>
<trkpt lat="57.501198" lon="9.859389">
<ele>17.809764</ele>
<time>2026-07-16T14:40:19.000Z</time>
</trkpt>
<trkpt lat="57.501200" lon="9.859435">
<ele>17.944520</ele>
<time>2026-07-16T14:40:20.000Z</time>
</trkpt>
<trkpt lat="57.501204" lon="9.859492">
<ele>18.112368</ele>
<time>2026-07-16T14:40:21.000Z</time>
</trkpt>
<trkpt lat="57.501211" lon="9.859547">
<ele>18.277408</ele>
<time>2026-07-16T14:40:22.000Z</time>
</trkpt>
<trkpt lat="57.501213" lon="9.859601">
<ele>18.435458</ele>
<time>2026-07-16T14:40:23.000Z</time>
</trkpt>
<trkpt lat="57.501216" lon="9.859655">
<ele>18.593974</ele>
<time>2026-07-16T14:40:24.000Z</time>
</trkpt>
<trkpt lat="57.501220" lon="9.859708">
<ele>18.750249</ele>
<time>2026-07-16T14:40:25.000Z</time>
</trkpt>
<trkpt lat="57.501223" lon="9.859760">
<ele>18.902957</ele>
<time>2026-07-16T14:40:26.000Z</time>
</trkpt>
<trkpt lat="57.501227" lon="9.859812">
<ele>19.056341</ele>
<time>2026-07-16T14:40:27.000Z</time>
</trkpt>
<trkpt lat="57.501228" lon="9.859861">
<ele>19.199520</ele>
<time>2026-07-16T14:40:28.000Z</time>
</trkpt>
<trkpt lat="57.501228" lon="9.859911">
<ele>19.345516</ele>
<time>2026-07-16T14:40:29.000Z</time>
</trkpt>
<trkpt lat="57.501231" lon="9.859960">
<ele>19.489518</ele>
<time>2026-07-16T14:40:30.000Z</time>
</trkpt>
<trkpt lat="57.501238" lon="9.860011">
<ele>19.643216</ele>
<time>2026-07-16T14:40:31.000Z</time>
</trkpt>
<trkpt lat="57.501243" lon="9.860062">
<ele>19.794590</ele>
<time>2026-07-16T14:40:32.000Z</time>
</trkpt>
<trkpt lat="57.501244" lon="9.860114">
<ele>19.946523</ele>
<time>2026-07-16T14:40:33.000Z</time>
</trkpt>
<trkpt lat="57.501246" lon="9.860168">
<ele>20.104573</ele>
<time>2026-07-16T14:40:34.000Z</time>
</trkpt>
<trkpt lat="57.501247" lon="9.860223">
<ele>20.265260</ele>
<time>2026-07-16T14:40:35.000Z</time>
</trkpt>
<trkpt lat="57.501247" lon="9.860276">
<ele>20.420015</ele>
<time>2026-07-16T14:40:36.000Z</time>
</trkpt>
<trkpt lat="57.501242" lon="9.860330">
<ele>20.580015</ele>
<time>2026-07-16T14:40:37.000Z</time>
</trkpt>
<trkpt lat="57.501237" lon="9.860381">
<ele>20.731389</ele>
<time>2026-07-16T14:40:38.000Z</time>
</trkpt>
<trkpt lat="57.501236" lon="9.860435">
<ele>20.889158</ele>
<time>2026-07-16T14:40:39.000Z</time>
</trkpt>
<trkpt lat="57.501233" lon="9.860487">
<ele>21.041867</ele>
<time>2026-07-16T14:40:40.000Z</time>
</trkpt>
<trkpt lat="57.501229" lon="9.860540">
<ele>21.198142</ele>
<time>2026-07-16T14:40:41.000Z</time>
</trkpt>
<trkpt lat="57.501223" lon="9.860589">
<ele>21.344886</ele>
<time>2026-07-16T14:40:42.000Z</time>
</trkpt>
<trkpt lat="57.501215" lon="9.860642">
<ele>21.505633</ele>
<time>2026-07-16T14:40:43.000Z</time>
</trkpt>
<trkpt lat="57.501208" lon="9.860691">
<ele>21.653680</ele>
<time>2026-07-16T14:40:44.000Z</time>
</trkpt>
<trkpt lat="57.501197" lon="9.860742">
<ele>21.814147</ele>
<time>2026-07-16T14:40:45.000Z</time>
</trkpt>
<trkpt lat="57.501188" lon="9.860784">
<ele>21.946177</ele>
<time>2026-07-16T14:40:46.000Z</time>
</trkpt>
<trkpt lat="57.501171" lon="9.860835">
<ele>22.121425</ele>
<time>2026-07-16T14:40:47.000Z</time>
</trkpt>
<trkpt lat="57.501153" lon="9.860890">
<ele>22.309468</ele>
<time>2026-07-16T14:40:48.000Z</time>
</trkpt>
<trkpt lat="57.501137" lon="9.860942">
<ele>22.484440</ele>
<time>2026-07-16T14:40:49.000Z</time>
</trkpt>
<trkpt lat="57.501122" lon="9.860994">
<ele>22.656775</ele>
<time>2026-07-16T14:40:50.000Z</time>
</trkpt>
<trkpt lat="57.501101" lon="9.861049">
<ele>22.705091</ele>
<time>2026-07-16T14:40:51.000Z</time>
</trkpt>
<trkpt lat="57.501078" lon="9.861101">
<ele>22.686460</ele>
<time>2026-07-16T14:40:52.000Z</time>
</trkpt>
<trkpt lat="57.501055" lon="9.861153">
<ele>22.667829</ele>
<time>2026-07-16T14:40:53.000Z</time>
</trkpt>
<trkpt lat="57.501031" lon="9.861205">
<ele>22.648867</ele>
<time>2026-07-16T14:40:54.000Z</time>
</trkpt>
<trkpt lat="57.501009" lon="9.861260">
<ele>22.629900</ele>
<time>2026-07-16T14:40:55.000Z</time>
</trkpt>
<trkpt lat="57.500987" lon="9.861317">
<ele>22.610487</ele>
<time>2026-07-16T14:40:56.000Z</time>
</trkpt>
<trkpt lat="57.500961" lon="9.861377">
<ele>22.589165</ele>
<time>2026-07-16T14:40:57.000Z</time>
</trkpt>
<trkpt lat="57.500934" lon="9.861436">
<ele>22.567728</ele>
<time>2026-07-16T14:40:58.000Z</time>
</trkpt>
<trkpt lat="57.500905" lon="9.861497">
<ele>22.545197</ele>
<time>2026-07-16T14:40:59.000Z</time>
</trkpt>
<trkpt lat="57.500875" lon="9.861559">
<ele>22.522118</ele>
<time>2026-07-16T14:41:00.000Z</time>
</trkpt>
<trkpt lat="57.500846" lon="9.861621">
<ele>22.499379</ele>
<time>2026-07-16T14:41:01.000Z</time>
</trkpt>
<trkpt lat="57.500816" lon="9.861684">
<ele>22.476094</ele>
<time>2026-07-16T14:41:02.000Z</time>
</trkpt>
<trkpt lat="57.500786" lon="9.861746">
<ele>22.453014</ele>
<time>2026-07-16T14:41:03.000Z</time>
</trkpt>
<trkpt lat="57.500756" lon="9.861813">
<ele>22.428889</ele>
<time>2026-07-16T14:41:04.000Z</time>
</trkpt>
<trkpt lat="57.500725" lon="9.861883">
<ele>22.403796</ele>
<time>2026-07-16T14:41:05.000Z</time>
</trkpt>
<trkpt lat="57.500695" lon="9.861954">
<ele>22.378811</ele>
<time>2026-07-16T14:41:06.000Z</time>
</trkpt>
<trkpt lat="57.500667" lon="9.862020">
<ele>22.355550</ele>
<time>2026-07-16T14:41:07.000Z</time>
</trkpt>
<trkpt lat="57.500641" lon="9.862081">
<ele>22.334012</ele>
<time>2026-07-16T14:41:08.000Z</time>
</trkpt>
<trkpt lat="57.500608" lon="9.862160">
<ele>22.306332</ele>
<time>2026-07-16T14:41:09.000Z</time>
</trkpt>
<trkpt lat="57.500571" lon="9.862246">
<ele>22.275856</ele>
<time>2026-07-16T14:41:10.000Z</time>
</trkpt>
<trkpt lat="57.500536" lon="9.862325">
<ele>22.247533</ele>
<time>2026-07-16T14:41:11.000Z</time>
</trkpt>
<trkpt lat="57.500499" lon="9.862410">
<ele>22.217272</ele>
<time>2026-07-16T14:41:12.000Z</time>
</trkpt>
<trkpt lat="57.500461" lon="9.862496">
<ele>22.186472</ele>
<time>2026-07-16T14:41:13.000Z</time>
</trkpt>
<trkpt lat="57.500420" lon="9.862586">
<ele>22.153833</ele>
<time>2026-07-16T14:41:14.000Z</time>
</trkpt>
<trkpt lat="57.500381" lon="9.862677">
<ele>22.121634</ele>
<time>2026-07-16T14:41:15.000Z</time>
</trkpt>
<trkpt lat="57.500340" lon="9.862771">
<ele>22.088143</ele>
<time>2026-07-16T14:41:16.000Z</time>
</trkpt>
<trkpt lat="57.500300" lon="9.862867">
<ele>22.054538</ele>
<time>2026-07-16T14:41:17.000Z</time>
</trkpt>
<trkpt lat="57.500259" lon="9.862964">
<ele>22.020399</ele>
<time>2026-07-16T14:41:18.000Z</time>
</trkpt>
<trkpt lat="57.500217" lon="9.863061">
<ele>21.985939</ele>
<time>2026-07-16T14:41:19.000Z</time>
</trkpt>
<trkpt lat="57.500176" lon="9.863155">
<ele>21.952448</ele>
<time>2026-07-16T14:41:20.000Z</time>
</trkpt>
<trkpt lat="57.500136" lon="9.863249">
<ele>21.919279</ele>
<time>2026-07-16T14:41:21.000Z</time>
</trkpt>
<trkpt lat="57.500096" lon="9.863340">
<ele>21.886756</ele>
<time>2026-07-16T14:41:22.000Z</time>
</trkpt>
<trkpt lat="57.500056" lon="9.863437">
<ele>21.852932</ele>
<time>2026-07-16T14:41:23.000Z</time>
</trkpt>
<trkpt lat="57.500015" lon="9.863531">
<ele>21.819441</ele>
<time>2026-07-16T14:41:24.000Z</time>
</trkpt>
<trkpt lat="57.499974" lon="9.863617">
<ele>21.801613</ele>
<time>2026-07-16T14:41:25.000Z</time>
</trkpt>
<trkpt lat="57.499934" lon="9.863708">
<ele>21.874225</ele>
<time>2026-07-16T14:41:26.000Z</time>
</trkpt>
<trkpt lat="57.499899" lon="9.863797">
<ele>21.942340</ele>
<time>2026-07-16T14:41:27.000Z</time>
</trkpt>
<trkpt lat="57.499861" lon="9.863882">
<ele>22.010630</ele>
<time>2026-07-16T14:41:28.000Z</time>
</trkpt>
<trkpt lat="57.499826" lon="9.863967">
<ele>22.076768</ele>
<time>2026-07-16T14:41:29.000Z</time>
</trkpt>
<trkpt lat="57.499790" lon="9.864047">
<ele>22.141215</ele>
<time>2026-07-16T14:41:30.000Z</time>
</trkpt>
<trkpt lat="57.499757" lon="9.864124">
<ele>22.202044</ele>
<time>2026-07-16T14:41:31.000Z</time>
</trkpt>
<trkpt lat="57.499723" lon="9.864198">
<ele>22.262177</ele>
<time>2026-07-16T14:41:32.000Z</time>
</trkpt>
<trkpt lat="57.499692" lon="9.864271">
<ele>22.319643</ele>
<time>2026-07-16T14:41:33.000Z</time>
</trkpt>
<trkpt lat="57.499665" lon="9.864334">
<ele>22.369413</ele>
<time>2026-07-16T14:41:34.000Z</time>
</trkpt>
<trkpt lat="57.499633" lon="9.864408">
<ele>22.428078</ele>
<time>2026-07-16T14:41:35.000Z</time>
</trkpt>
<trkpt lat="57.499598" lon="9.864481">
<ele>22.488502</ele>
<time>2026-07-16T14:41:36.000Z</time>
</trkpt>
<trkpt lat="57.499564" lon="9.864550">
<ele>22.546323</ele>
<time>2026-07-16T14:41:37.000Z</time>
</trkpt>
<trkpt lat="57.499532" lon="9.864621">
<ele>22.603557</ele>
<time>2026-07-16T14:41:38.000Z</time>
</trkpt>
<trkpt lat="57.499501" lon="9.864689">
<ele>22.658633</ele>
<time>2026-07-16T14:41:39.000Z</time>
</trkpt>
<trkpt lat="57.499471" lon="9.864759">
<ele>22.713933</ele>
<time>2026-07-16T14:41:40.000Z</time>
</trkpt>
<trkpt lat="57.499445" lon="9.864816">
<ele>22.760111</ele>
<time>2026-07-16T14:41:41.000Z</time>
</trkpt>
<trkpt lat="57.499416" lon="9.864886">
<ele>22.814701</ele>
<time>2026-07-16T14:41:42.000Z</time>
</trkpt>
<trkpt lat="57.499383" lon="9.864959">
<ele>22.873620</ele>
<time>2026-07-16T14:41:43.000Z</time>
</trkpt>
<trkpt lat="57.499355" lon="9.865026">
<ele>22.926042</ele>
<time>2026-07-16T14:41:44.000Z</time>
</trkpt>
<trkpt lat="57.499325" lon="9.865091">
<ele>22.978963</ele>
<time>2026-07-16T14:41:45.000Z</time>
</trkpt>
<trkpt lat="57.499295" lon="9.865156">
<ele>23.031884</ele>
<time>2026-07-16T14:41:46.000Z</time>
</trkpt>
<trkpt lat="57.499267" lon="9.865222">
<ele>23.083820</ele>
<time>2026-07-16T14:41:47.000Z</time>
</trkpt>
<trkpt lat="57.499241" lon="9.865287">
<ele>23.133867</ele>
<time>2026-07-16T14:41:48.000Z</time>
</trkpt>
<trkpt lat="57.499211" lon="9.865353">
<ele>23.187258</ele>
<time>2026-07-16T14:41:49.000Z</time>
</trkpt>
<trkpt lat="57.499181" lon="9.865421">
<ele>23.241598</ele>
<time>2026-07-16T14:41:50.000Z</time>
</trkpt>
<trkpt lat="57.499150" lon="9.865491">
<ele>23.297622</ele>
<time>2026-07-16T14:41:51.000Z</time>
</trkpt>
<trkpt lat="57.499122" lon="9.865560">
<ele>23.351025</ele>
<time>2026-07-16T14:41:52.000Z</time>
</trkpt>
<trkpt lat="57.499093" lon="9.865628">
<ele>23.404643</ele>
<time>2026-07-16T14:41:53.000Z</time>
</trkpt>
<trkpt lat="57.499062" lon="9.865694">
<ele>23.458783</ele>
<time>2026-07-16T14:41:54.000Z</time>
</trkpt>
<trkpt lat="57.499032" lon="9.865760">
<ele>23.512174</ele>
<time>2026-07-16T14:41:55.000Z</time>
</trkpt>
<trkpt lat="57.499004" lon="9.865830">
<ele>23.566071</ele>
<time>2026-07-16T14:41:56.000Z</time>
</trkpt>
<trkpt lat="57.498975" lon="9.865896">
<ele>23.618727</ele>
<time>2026-07-16T14:41:57.000Z</time>
</trkpt>
<trkpt lat="57.498947" lon="9.865964">
<ele>23.671639</ele>
<time>2026-07-16T14:41:58.000Z</time>
</trkpt>
<trkpt lat="57.498917" lon="9.866030">
<ele>23.725030</ele>
<time>2026-07-16T14:41:59.000Z</time>
</trkpt>
<trkpt lat="57.498887" lon="9.866098">
<ele>23.779370</ele>
<time>2026-07-16T14:42:00.000Z</time>
</trkpt>
<trkpt lat="57.498856" lon="9.866167">
<ele>23.834919</ele>
<time>2026-07-16T14:42:01.000Z</time>
</trkpt>
<trkpt lat="57.498826" lon="9.866235">
<ele>23.871038</ele>
<time>2026-07-16T14:42:02.000Z</time>
</trkpt>
<trkpt lat="57.498795" lon="9.866301">
<ele>23.892158</ele>
<time>2026-07-16T14:42:03.000Z</time>
</trkpt>
<trkpt lat="57.498767" lon="9.866365">
<ele>23.912043</ele>
<time>2026-07-16T14:42:04.000Z</time>
</trkpt>
<trkpt lat="57.498740" lon="9.866427">
<ele>23.931271</ele>
<time>2026-07-16T14:42:05.000Z</time>
</trkpt>
<trkpt lat="57.498709" lon="9.866497">
<ele>23.953127</ele>
<time>2026-07-16T14:42:06.000Z</time>
</trkpt>
<trkpt lat="57.498680" lon="9.866567">
<ele>23.974423</ele>
<time>2026-07-16T14:42:07.000Z</time>
</trkpt>
<trkpt lat="57.498650" lon="9.866631">
<ele>23.994886</ele>
<time>2026-07-16T14:42:08.000Z</time>
</trkpt>
<trkpt lat="57.498622" lon="9.866689">
<ele>24.013672</ele>
<time>2026-07-16T14:42:09.000Z</time>
</trkpt>
<trkpt lat="57.498594" lon="9.866756">
<ele>24.034123</ele>
<time>2026-07-16T14:42:10.000Z</time>
</trkpt>
<trkpt lat="57.498566" lon="9.866827">
<ele>24.055342</ele>
<time>2026-07-16T14:42:11.000Z</time>
</trkpt>
<trkpt lat="57.498536" lon="9.866899">
<ele>24.077294</ele>
<time>2026-07-16T14:42:12.000Z</time>
</trkpt>
<trkpt lat="57.498505" lon="9.866970">
<ele>24.099336</ele>
<time>2026-07-16T14:42:13.000Z</time>
</trkpt>
<trkpt lat="57.498475" lon="9.867038">
<ele>24.120535</ele>
<time>2026-07-16T14:42:14.000Z</time>
</trkpt>
<trkpt lat="57.498441" lon="9.867106">
<ele>24.142915</ele>
<time>2026-07-16T14:42:15.000Z</time>
</trkpt>
<trkpt lat="57.498410" lon="9.867172">
<ele>24.164036</ele>
<time>2026-07-16T14:42:16.000Z</time>
</trkpt>
<trkpt lat="57.498380" lon="9.867241">
<ele>24.185421</ele>
<time>2026-07-16T14:42:17.000Z</time>
</trkpt>
<trkpt lat="57.498346" lon="9.867315">
<ele>24.208880</ele>
<time>2026-07-16T14:42:18.000Z</time>
</trkpt>
<trkpt lat="57.498315" lon="9.867388">
<ele>24.231298</ele>
<time>2026-07-16T14:42:19.000Z</time>
</trkpt>
<trkpt lat="57.498284" lon="9.867463">
<ele>24.254097</ele>
<time>2026-07-16T14:42:20.000Z</time>
</trkpt>
<trkpt lat="57.498254" lon="9.867536">
<ele>24.276240</ele>
<time>2026-07-16T14:42:21.000Z</time>
</trkpt>
<trkpt lat="57.498225" lon="9.867605">
<ele>24.297346</ele>
<time>2026-07-16T14:42:22.000Z</time>
</trkpt>
<trkpt lat="57.498190" lon="9.867682">
<ele>24.321646</ele>
<time>2026-07-16T14:42:23.000Z</time>
</trkpt>
<trkpt lat="57.498158" lon="9.867759">
<ele>24.345100</ele>
<time>2026-07-16T14:42:24.000Z</time>
</trkpt>
<trkpt lat="57.498125" lon="9.867837">
<ele>24.369019</ele>
<time>2026-07-16T14:42:25.000Z</time>
</trkpt>
<trkpt lat="57.498093" lon="9.867914">
<ele>24.392473</ele>
<time>2026-07-16T14:42:26.000Z</time>
</trkpt>
<trkpt lat="57.498061" lon="9.867990">
<ele>24.415737</ele>
<time>2026-07-16T14:42:27.000Z</time>
</trkpt>
<trkpt lat="57.498026" lon="9.868070">
<ele>24.440593</ele>
<time>2026-07-16T14:42:28.000Z</time>
</trkpt>
<trkpt lat="57.497989" lon="9.868149">
<ele>24.465843</ele>
<time>2026-07-16T14:42:29.000Z</time>
</trkpt>
<trkpt lat="57.497953" lon="9.868226">
<ele>24.490435</ele>
<time>2026-07-16T14:42:30.000Z</time>
</trkpt>
<trkpt lat="57.497919" lon="9.868302">
<ele>24.514262</ele>
<time>2026-07-16T14:42:31.000Z</time>
</trkpt>
<trkpt lat="57.497885" lon="9.868380">
<ele>24.538462</ele>
<time>2026-07-16T14:42:32.000Z</time>
</trkpt>
<trkpt lat="57.497850" lon="9.868460">
<ele>24.563318</ele>
<time>2026-07-16T14:42:33.000Z</time>
</trkpt>
<trkpt lat="57.497816" lon="9.868537">
<ele>24.587331</ele>
<time>2026-07-16T14:42:34.000Z</time>
</trkpt>
<trkpt lat="57.497782" lon="9.868612">
<ele>24.610974</ele>
<time>2026-07-16T14:42:35.000Z</time>
</trkpt>
<trkpt lat="57.497747" lon="9.868692">
<ele>24.635831</ele>
<time>2026-07-16T14:42:36.000Z</time>
</trkpt>
<trkpt lat="57.497714" lon="9.868768">
<ele>24.659374</ele>
<time>2026-07-16T14:42:37.000Z</time>
</trkpt>
<trkpt lat="57.497682" lon="9.868844">
<ele>24.688102</ele>
<time>2026-07-16T14:42:38.000Z</time>
</trkpt>
<trkpt lat="57.497649" lon="9.868919">
<ele>24.719082</ele>
<time>2026-07-16T14:42:39.000Z</time>
</trkpt>
<trkpt lat="57.497617" lon="9.868994">
<ele>24.749689</ele>
<time>2026-07-16T14:42:40.000Z</time>
</trkpt>
<trkpt lat="57.497586" lon="9.869063">
<ele>24.778434</ele>
<time>2026-07-16T14:42:41.000Z</time>
</trkpt>
<trkpt lat="57.497553" lon="9.869142">
<ele>24.810414</ele>
<time>2026-07-16T14:42:42.000Z</time>
</trkpt>
<trkpt lat="57.497521" lon="9.869220">
<ele>24.841778</ele>
<time>2026-07-16T14:42:43.000Z</time>
</trkpt>
<trkpt lat="57.497488" lon="9.869297">
<ele>24.873255</ele>
<time>2026-07-16T14:42:44.000Z</time>
</trkpt>
<trkpt lat="57.497453" lon="9.869375">
<ele>24.905733</ele>
<time>2026-07-16T14:42:45.000Z</time>
</trkpt>
<trkpt lat="57.497420" lon="9.869452">
<ele>24.937211</ele>
<time>2026-07-16T14:42:46.000Z</time>
</trkpt>
<trkpt lat="57.497384" lon="9.869529">
<ele>24.969831</ele>
<time>2026-07-16T14:42:47.000Z</time>
</trkpt>
<trkpt lat="57.497348" lon="9.869608">
<ele>25.002936</ele>
<time>2026-07-16T14:42:48.000Z</time>
</trkpt>
<trkpt lat="57.497313" lon="9.869687">
<ele>25.035660</ele>
<time>2026-07-16T14:42:49.000Z</time>
</trkpt>
<trkpt lat="57.497275" lon="9.869770">
<ele>25.070510</ele>
<time>2026-07-16T14:42:50.000Z</time>
</trkpt>
<trkpt lat="57.497237" lon="9.869849">
<ele>25.104396</ele>
<time>2026-07-16T14:42:51.000Z</time>
</trkpt>
<trkpt lat="57.497204" lon="9.869928">
<ele>25.136376</ele>
<time>2026-07-16T14:42:52.000Z</time>
</trkpt>
<trkpt lat="57.497168" lon="9.870007">
<ele>25.169482</ele>
<time>2026-07-16T14:42:53.000Z</time>
</trkpt>
<trkpt lat="57.497136" lon="9.870080">
<ele>25.199591</ele>
<time>2026-07-16T14:42:54.000Z</time>
</trkpt>
<trkpt lat="57.497098" lon="9.870161">
<ele>25.233957</ele>
<time>2026-07-16T14:42:55.000Z</time>
</trkpt>
<trkpt lat="57.497061" lon="9.870239">
<ele>25.267210</ele>
<time>2026-07-16T14:42:56.000Z</time>
</trkpt>
<trkpt lat="57.497025" lon="9.870311">
<ele>25.298642</ele>
<time>2026-07-16T14:42:57.000Z</time>
</trkpt>
<trkpt lat="57.496986" lon="9.870388">
<ele>25.332461</ele>
<time>2026-07-16T14:42:58.000Z</time>
</trkpt>
<trkpt lat="57.496947" lon="9.870465">
<ele>25.366279</ele>
<time>2026-07-16T14:42:59.000Z</time>
</trkpt>
<trkpt lat="57.496906" lon="9.870544">
<ele>25.401381</ele>
<time>2026-07-16T14:43:00.000Z</time>
</trkpt>
<trkpt lat="57.496865" lon="9.870617">
<ele>25.435131</ele>
<time>2026-07-16T14:43:01.000Z</time>
</trkpt>
<trkpt lat="57.496820" lon="9.870686">
<ele>25.469810</ele>
<time>2026-07-16T14:43:02.000Z</time>
</trkpt>
<trkpt lat="57.496777" lon="9.870751">
<ele>25.502760</ele>
<time>2026-07-16T14:43:03.000Z</time>
</trkpt>
<trkpt lat="57.496741" lon="9.870808">
<ele>25.530873</ele>
<time>2026-07-16T14:43:04.000Z</time>
</trkpt>
<trkpt lat="57.496707" lon="9.870862">
<ele>25.557459</ele>
<time>2026-07-16T14:43:05.000Z</time>
</trkpt>
<trkpt lat="57.496671" lon="9.870912">
<ele>25.584177</ele>
<time>2026-07-16T14:43:06.000Z</time>
</trkpt>
<trkpt lat="57.496640" lon="9.870954">
<ele>25.606984</ele>
<time>2026-07-16T14:43:07.000Z</time>
</trkpt>
<trkpt lat="57.496605" lon="9.870997">
<ele>25.631928</ele>
<time>2026-07-16T14:43:08.000Z</time>
</trkpt>
<trkpt lat="57.496563" lon="9.871042">
<ele>25.660753</ele>
<time>2026-07-16T14:43:09.000Z</time>
</trkpt>
<trkpt lat="57.496524" lon="9.871085">
<ele>25.687715</ele>
<time>2026-07-16T14:43:10.000Z</time>
</trkpt>
<trkpt lat="57.496488" lon="9.871121">
<ele>25.712023</ele>
<time>2026-07-16T14:43:11.000Z</time>
</trkpt>
<trkpt lat="57.496465" lon="9.871153">
<ele>25.729103</ele>
<time>2026-07-16T14:43:12.000Z</time>
</trkpt>
<trkpt lat="57.496452" lon="9.871185">
<ele>25.735380</ele>
<time>2026-07-16T14:43:13.000Z</time>
</trkpt>
<trkpt lat="57.496446" lon="9.871206">
<ele>25.734995</ele>
<time>2026-07-16T14:43:14.000Z</time>
</trkpt>
<trkpt lat="57.496487" lon="9.871174">
<ele>25.733656</ele>
<time>2026-07-16T14:43:19.000Z</time>
</trkpt>
<trkpt lat="57.496502" lon="9.871176">
<ele>25.733203</ele>
<time>2026-07-16T14:43:20.000Z</time>
</trkpt>
<trkpt lat="57.496517" lon="9.871198">
<ele>25.732627</ele>
<time>2026-07-16T14:43:21.000Z</time>
</trkpt>
<trkpt lat="57.496526" lon="9.871236">
<ele>25.731955</ele>
<time>2026-07-16T14:43:22.000Z</time>
</trkpt>
<trkpt lat="57.496531" lon="9.871284">
<ele>25.731163</ele>
<time>2026-07-16T14:43:23.000Z</time>
</trkpt>
<trkpt lat="57.496535" lon="9.871335">
<ele>25.730329</ele>
<time>2026-07-16T14:43:24.000Z</time>
</trkpt>
<trkpt lat="57.496539" lon="9.871390">
<ele>25.729430</ele>
<time>2026-07-16T14:43:25.000Z</time>
</trkpt>
<trkpt lat="57.496543" lon="9.871443">
<ele>25.728564</ele>
<time>2026-07-16T14:43:26.000Z</time>
</trkpt>
<trkpt lat="57.496549" lon="9.871494">
<ele>25.727718</ele>
<time>2026-07-16T14:43:27.000Z</time>
</trkpt>
<trkpt lat="57.496554" lon="9.871541">
<ele>25.726943</ele>
<time>2026-07-16T14:43:28.000Z</time>
</trkpt>
<trkpt lat="57.496558" lon="9.871589">
<ele>25.726156</ele>
<time>2026-07-16T14:43:29.000Z</time>
</trkpt>
<trkpt lat="57.496564" lon="9.871646">
<ele>25.725216</ele>
<time>2026-07-16T14:43:30.000Z</time>
</trkpt>
<trkpt lat="57.496572" lon="9.871713">
<ele>25.724105</ele>
<time>2026-07-16T14:43:31.000Z</time>
</trkpt>
<trkpt lat="57.496580" lon="9.871785">
<ele>25.722914</ele>
<time>2026-07-16T14:43:32.000Z</time>
</trkpt>
<trkpt lat="57.496585" lon="9.871857">
<ele>25.721739</ele>
<time>2026-07-16T14:43:33.000Z</time>
</trkpt>
<trkpt lat="57.496589" lon="9.871939">
<ele>25.720406</ele>
<time>2026-07-16T14:43:34.000Z</time>
</trkpt>
<trkpt lat="57.496595" lon="9.872016">
<ele>25.719146</ele>
<time>2026-07-16T14:43:35.000Z</time>
</trkpt>
<trkpt lat="57.496603" lon="9.872092">
<ele>25.717892</ele>
<time>2026-07-16T14:43:36.000Z</time>
</trkpt>
<trkpt lat="57.496605" lon="9.872175">
<ele>25.716547</ele>
<time>2026-07-16T14:43:37.000Z</time>
</trkpt>
<trkpt lat="57.496608" lon="9.872257">
<ele>25.715217</ele>
<time>2026-07-16T14:43:38.000Z</time>
</trkpt>
<trkpt lat="57.496611" lon="9.872334">
<ele>25.713967</ele>
<time>2026-07-16T14:43:39.000Z</time>
</trkpt>
<trkpt lat="57.496618" lon="9.872412">
<ele>25.712686</ele>
<time>2026-07-16T14:43:40.000Z</time>
</trkpt>
<trkpt lat="57.496623" lon="9.872491">
<ele>25.711399</ele>
<time>2026-07-16T14:43:41.000Z</time>
</trkpt>
<trkpt lat="57.496629" lon="9.872555">
<ele>25.710347</ele>
<time>2026-07-16T14:43:42.000Z</time>
</trkpt>
<trkpt lat="57.496634" lon="9.872609">
<ele>25.709460</ele>
<time>2026-07-16T14:43:43.000Z</time>
</trkpt>
<trkpt lat="57.496638" lon="9.872657">
<ele>25.708673</ele>
<time>2026-07-16T14:43:44.000Z</time>
</trkpt>
<trkpt lat="57.496644" lon="9.872710">
<ele>25.707796</ele>
<time>2026-07-16T14:43:45.000Z</time>
</trkpt>
<trkpt lat="57.496647" lon="9.872760">
<ele>25.706982</ele>
<time>2026-07-16T14:43:46.000Z</time>
</trkpt>
<trkpt lat="57.496647" lon="9.872801">
<ele>25.706318</ele>
<time>2026-07-16T14:43:47.000Z</time>
</trkpt>
<trkpt lat="57.496644" lon="9.872862">
<ele>25.705326</ele>
<time>2026-07-16T14:43:48.000Z</time>
</trkpt>
<trkpt lat="57.496635" lon="9.872925">
<ele>25.704271</ele>
<time>2026-07-16T14:43:49.000Z</time>
</trkpt>
<trkpt lat="57.496624" lon="9.872990">
<ele>25.703167</ele>
<time>2026-07-16T14:43:50.000Z</time>
</trkpt>
<trkpt lat="57.496610" lon="9.873077">
<ele>25.701697</ele>
<time>2026-07-16T14:43:51.000Z</time>
</trkpt>
<trkpt lat="57.496591" lon="9.873177">
<ele>25.699980</ele>
<time>2026-07-16T14:43:52.000Z</time>
</trkpt>
<trkpt lat="57.496581" lon="9.873269">
<ele>25.698460</ele>
<time>2026-07-16T14:43:53.000Z</time>
</trkpt>
<trkpt lat="57.496578" lon="9.873362">
<ele>25.696952</ele>
<time>2026-07-16T14:43:54.000Z</time>
</trkpt>
<trkpt lat="57.496578" lon="9.873461">
<ele>25.695349</ele>
<time>2026-07-16T14:43:55.000Z</time>
</trkpt>
<trkpt lat="57.496575" lon="9.873573">
<ele>25.693533</ele>
<time>2026-07-16T14:43:56.000Z</time>
</trkpt>
<trkpt lat="57.496577" lon="9.873668">
<ele>25.691994</ele>
<time>2026-07-16T14:43:57.000Z</time>
</trkpt>
<trkpt lat="57.496576" lon="9.873758">
<ele>25.690537</ele>
<time>2026-07-16T14:43:58.000Z</time>
</trkpt>
<trkpt lat="57.496574" lon="9.873848">
<ele>25.689078</ele>
<time>2026-07-16T14:43:59.000Z</time>
</trkpt>
<trkpt lat="57.496569" lon="9.873956">
<ele>25.687323</ele>
<time>2026-07-16T14:44:00.000Z</time>
</trkpt>
<trkpt lat="57.496567" lon="9.874057">
<ele>25.685687</ele>
<time>2026-07-16T14:44:01.000Z</time>
</trkpt>
<trkpt lat="57.496567" lon="9.874151">
<ele>25.684165</ele>
<time>2026-07-16T14:44:02.000Z</time>
</trkpt>
<trkpt lat="57.496572" lon="9.874240">
<ele>25.682716</ele>
<time>2026-07-16T14:44:03.000Z</time>
</trkpt>
<trkpt lat="57.496579" lon="9.874325">
<ele>25.683251</ele>
<time>2026-07-16T14:44:04.000Z</time>
</trkpt>
<trkpt lat="57.496587" lon="9.874417">
<ele>25.697964</ele>
<time>2026-07-16T14:44:05.000Z</time>
</trkpt>
<trkpt lat="57.496592" lon="9.874515">
<ele>25.713504</ele>
<time>2026-07-16T14:44:06.000Z</time>
</trkpt>
<trkpt lat="57.496596" lon="9.874606">
<ele>25.727918</ele>
<time>2026-07-16T14:44:07.000Z</time>
</trkpt>
<trkpt lat="57.496603" lon="9.874688">
<ele>25.741026</ele>
<time>2026-07-16T14:44:08.000Z</time>
</trkpt>
<trkpt lat="57.496608" lon="9.874773">
<ele>25.754525</ele>
<time>2026-07-16T14:44:09.000Z</time>
</trkpt>
<trkpt lat="57.496611" lon="9.874857">
<ele>25.767815</ele>
<time>2026-07-16T14:44:10.000Z</time>
</trkpt>
<trkpt lat="57.496615" lon="9.874933">
<ele>25.779870</ele>
<time>2026-07-16T14:44:11.000Z</time>
</trkpt>
<trkpt lat="57.496616" lon="9.875015">
<ele>25.792819</ele>
<time>2026-07-16T14:44:12.000Z</time>
</trkpt>
<trkpt lat="57.496616" lon="9.875095">
<ele>25.805448</ele>
<time>2026-07-16T14:44:13.000Z</time>
</trkpt>
<trkpt lat="57.496616" lon="9.875171">
<ele>25.817446</ele>
<time>2026-07-16T14:44:14.000Z</time>
</trkpt>
<trkpt lat="57.496616" lon="9.875245">
<ele>25.829129</ele>
<time>2026-07-16T14:44:15.000Z</time>
</trkpt>
<trkpt lat="57.496616" lon="9.875324">
<ele>25.841600</ele>
<time>2026-07-16T14:44:16.000Z</time>
</trkpt>
<trkpt lat="57.496614" lon="9.875402">
<ele>25.853928</ele>
<time>2026-07-16T14:44:17.000Z</time>
</trkpt>
<trkpt lat="57.496613" lon="9.875478">
<ele>25.865930</ele>
<time>2026-07-16T14:44:18.000Z</time>
</trkpt>
<trkpt lat="57.496610" lon="9.875550">
<ele>25.877330</ele>
<time>2026-07-16T14:44:19.000Z</time>
</trkpt>
<trkpt lat="57.496609" lon="9.875622">
<ele>25.888701</ele>
<time>2026-07-16T14:44:20.000Z</time>
</trkpt>
<trkpt lat="57.496606" lon="9.875688">
<ele>25.899157</ele>
<time>2026-07-16T14:44:21.000Z</time>
</trkpt>
<trkpt lat="57.496605" lon="9.875764">
<ele>25.911159</ele>
<time>2026-07-16T14:44:22.000Z</time>
</trkpt>
<trkpt lat="57.496605" lon="9.875840">
<ele>25.923157</ele>
<time>2026-07-16T14:44:23.000Z</time>
</trkpt>
<trkpt lat="57.496605" lon="9.875916">
<ele>25.935155</ele>
<time>2026-07-16T14:44:24.000Z</time>
</trkpt>
<trkpt lat="57.496602" lon="9.875994">
<ele>25.947500</ele>
<time>2026-07-16T14:44:25.000Z</time>
</trkpt>
<trkpt lat="57.496598" lon="9.876076">
<ele>25.960498</ele>
<time>2026-07-16T14:44:26.000Z</time>
</trkpt>
<trkpt lat="57.496597" lon="9.876155">
<ele>25.972973</ele>
<time>2026-07-16T14:44:27.000Z</time>
</trkpt>
<trkpt lat="57.496595" lon="9.876237">
<ele>25.985932</ele>
<time>2026-07-16T14:44:28.000Z</time>
</trkpt>
<trkpt lat="57.496591" lon="9.876316">
<ele>25.998459</ele>
<time>2026-07-16T14:44:29.000Z</time>
</trkpt>
<trkpt lat="57.496587" lon="9.876400">
<ele>26.011772</ele>
<time>2026-07-16T14:44:30.000Z</time>
</trkpt>
<trkpt lat="57.496583" lon="9.876481">
<ele>26.024613</ele>
<time>2026-07-16T14:44:31.000Z</time>
</trkpt>
<trkpt lat="57.496579" lon="9.876559">
<ele>26.036983</ele>
<time>2026-07-16T14:44:32.000Z</time>
</trkpt>
<trkpt lat="57.496575" lon="9.876634">
<ele>26.048881</ele>
<time>2026-07-16T14:44:33.000Z</time>
</trkpt>
<trkpt lat="57.496569" lon="9.876709">
<ele>26.060852</ele>
<time>2026-07-16T14:44:34.000Z</time>
</trkpt>
<trkpt lat="57.496561" lon="9.876784">
<ele>26.072923</ele>
<time>2026-07-16T14:44:35.000Z</time>
</trkpt>
<trkpt lat="57.496554" lon="9.876857">
<ele>26.084629</ele>
<time>2026-07-16T14:44:36.000Z</time>
</trkpt>
<trkpt lat="57.496546" lon="9.876930">
<ele>26.096391</ele>
<time>2026-07-16T14:44:37.000Z</time>
</trkpt>
<trkpt lat="57.496539" lon="9.876997">
<ele>26.107166</ele>
<time>2026-07-16T14:44:38.000Z</time>
</trkpt>
<trkpt lat="57.496526" lon="9.877071">
<ele>26.119457</ele>
<time>2026-07-16T14:44:39.000Z</time>
</trkpt>
<trkpt lat="57.496513" lon="9.877146">
<ele>26.131898</ele>
<time>2026-07-16T14:44:40.000Z</time>
</trkpt>
<trkpt lat="57.496501" lon="9.877223">
<ele>26.144555</ele>
<time>2026-07-16T14:44:41.000Z</time>
</trkpt>
<trkpt lat="57.496490" lon="9.877299">
<ele>26.156980</ele>
<time>2026-07-16T14:44:42.000Z</time>
</trkpt>
<trkpt lat="57.496481" lon="9.877377">
<ele>26.169575</ele>
<time>2026-07-16T14:44:43.000Z</time>
</trkpt>
<trkpt lat="57.496474" lon="9.877450">
<ele>26.181281</ele>
<time>2026-07-16T14:44:44.000Z</time>
</trkpt>
<trkpt lat="57.496466" lon="9.877529">
<ele>26.193972</ele>
<time>2026-07-16T14:44:45.000Z</time>
</trkpt>
<trkpt lat="57.496461" lon="9.877607">
<ele>26.206373</ele>
<time>2026-07-16T14:44:46.000Z</time>
</trkpt>
<trkpt lat="57.496455" lon="9.877684">
<ele>26.199756</ele>
<time>2026-07-16T14:44:47.000Z</time>
</trkpt>
<trkpt lat="57.496445" lon="9.877756">
<ele>26.186073</ele>
<time>2026-07-16T14:44:48.000Z</time>
</trkpt>
<trkpt lat="57.496434" lon="9.877827">
<ele>26.172477</ele>
<time>2026-07-16T14:44:49.000Z</time>
</trkpt>
<trkpt lat="57.496425" lon="9.877900">
<ele>26.158697</ele>
<time>2026-07-16T14:44:50.000Z</time>
</trkpt>
<trkpt lat="57.496419" lon="9.877976">
<ele>26.144563</ele>
<time>2026-07-16T14:44:51.000Z</time>
</trkpt>
<trkpt lat="57.496415" lon="9.878034">
<ele>26.133804</ele>
<time>2026-07-16T14:44:52.000Z</time>
</trkpt>
<trkpt lat="57.496409" lon="9.878071">
<ele>26.126693</ele>
<time>2026-07-16T14:44:53.000Z</time>
</trkpt>
<trkpt lat="57.496412" lon="9.878336">
<ele>26.077924</ele>
<time>2026-07-16T14:45:34.000Z</time>
</trkpt>
<trkpt lat="57.496414" lon="9.878375">
<ele>26.070716</ele>
<time>2026-07-16T14:45:35.000Z</time>
</trkpt>
<trkpt lat="57.496411" lon="9.878415">
<ele>26.063285</ele>
<time>2026-07-16T14:45:36.000Z</time>
</trkpt>
<trkpt lat="57.496406" lon="9.878459">
<ele>26.055010</ele>
<time>2026-07-16T14:45:37.000Z</time>
</trkpt>
<trkpt lat="57.496398" lon="9.878517">
<ele>26.043993</ele>
<time>2026-07-16T14:45:38.000Z</time>
</trkpt>
<trkpt lat="57.496392" lon="9.878579">
<ele>26.032401</ele>
<time>2026-07-16T14:45:39.000Z</time>
</trkpt>
<trkpt lat="57.496386" lon="9.878641">
<ele>26.020810</ele>
<time>2026-07-16T14:45:40.000Z</time>
</trkpt>
<trkpt lat="57.496381" lon="9.878706">
<ele>26.008729</ele>
<time>2026-07-16T14:45:41.000Z</time>
</trkpt>
<trkpt lat="57.496383" lon="9.878768">
<ele>25.997301</ele>
<time>2026-07-16T14:45:42.000Z</time>
</trkpt>
<trkpt lat="57.496389" lon="9.878829">
<ele>25.985891</ele>
<time>2026-07-16T14:45:43.000Z</time>
</trkpt>
<trkpt lat="57.496400" lon="9.878889">
<ele>25.974226</ele>
<time>2026-07-16T14:45:44.000Z</time>
</trkpt>
<trkpt lat="57.496416" lon="9.878944">
<ele>25.962719</ele>
<time>2026-07-16T14:45:45.000Z</time>
</trkpt>
<trkpt lat="57.496438" lon="9.879003">
<ele>25.949506</ele>
<time>2026-07-16T14:45:46.000Z</time>
</trkpt>
<trkpt lat="57.496456" lon="9.879071">
<ele>25.935559</ele>
<time>2026-07-16T14:45:47.000Z</time>
</trkpt>
<trkpt lat="57.496474" lon="9.879146">
<ele>25.920445</ele>
<time>2026-07-16T14:45:48.000Z</time>
</trkpt>
<trkpt lat="57.496493" lon="9.879224">
<ele>25.904688</ele>
<time>2026-07-16T14:45:49.000Z</time>
</trkpt>
<trkpt lat="57.496509" lon="9.879307">
<ele>25.888464</ele>
<time>2026-07-16T14:45:50.000Z</time>
</trkpt>
<trkpt lat="57.496522" lon="9.879386">
<ele>25.873262</ele>
<time>2026-07-16T14:45:51.000Z</time>
</trkpt>
<trkpt lat="57.496533" lon="9.879461">
<ele>25.858958</ele>
<time>2026-07-16T14:45:52.000Z</time>
</trkpt>
<trkpt lat="57.496542" lon="9.879539">
<ele>25.844279</ele>
<time>2026-07-16T14:45:53.000Z</time>
</trkpt>
<trkpt lat="57.496547" lon="9.879623">
<ele>25.828730</ele>
<time>2026-07-16T14:45:54.000Z</time>
</trkpt>
<trkpt lat="57.496551" lon="9.879710">
<ele>25.812664</ele>
<time>2026-07-16T14:45:55.000Z</time>
</trkpt>
<trkpt lat="57.496557" lon="9.879792">
<ele>25.797437</ele>
<time>2026-07-16T14:45:56.000Z</time>
</trkpt>
<trkpt lat="57.496565" lon="9.879878">
<ele>25.781379</ele>
<time>2026-07-16T14:45:57.000Z</time>
</trkpt>
<trkpt lat="57.496570" lon="9.879968">
<ele>25.764731</ele>
<time>2026-07-16T14:45:58.000Z</time>
</trkpt>
<trkpt lat="57.496573" lon="9.880061">
<ele>25.747589</ele>
<time>2026-07-16T14:45:59.000Z</time>
</trkpt>
<trkpt lat="57.496577" lon="9.880156">
<ele>25.730056</ele>
<time>2026-07-16T14:46:00.000Z</time>
</trkpt>
<trkpt lat="57.496587" lon="9.880250">
<ele>25.712425</ele>
<time>2026-07-16T14:46:01.000Z</time>
</trkpt>
<trkpt lat="57.496601" lon="9.880341">
<ele>25.695009</ele>
<time>2026-07-16T14:46:02.000Z</time>
</trkpt>
<trkpt lat="57.496627" lon="9.880419">
<ele>25.678121</ele>
<time>2026-07-16T14:46:03.000Z</time>
</trkpt>
<trkpt lat="57.496661" lon="9.880481">
<ele>25.661822</ele>
<time>2026-07-16T14:46:04.000Z</time>
</trkpt>
<trkpt lat="57.496700" lon="9.880534">
<ele>25.645286</ele>
<time>2026-07-16T14:46:05.000Z</time>
</trkpt>
<trkpt lat="57.496742" lon="9.880584">
<ele>25.628215</ele>
<time>2026-07-16T14:46:06.000Z</time>
</trkpt>
<trkpt lat="57.496787" lon="9.880625">
<ele>25.611059</ele>
<time>2026-07-16T14:46:07.000Z</time>
</trkpt>
<trkpt lat="57.496830" lon="9.880663">
<ele>25.594760</ele>
<time>2026-07-16T14:46:08.000Z</time>
</trkpt>
<trkpt lat="57.496872" lon="9.880701">
<ele>25.616118</ele>
<time>2026-07-16T14:46:09.000Z</time>
</trkpt>
<trkpt lat="57.496911" lon="9.880742">
<ele>25.638239</ele>
<time>2026-07-16T14:46:10.000Z</time>
</trkpt>
<trkpt lat="57.496949" lon="9.880792">
<ele>25.661222</ele>
<time>2026-07-16T14:46:11.000Z</time>
</trkpt>
<trkpt lat="57.496982" lon="9.880861">
<ele>25.685735</ele>
<time>2026-07-16T14:46:12.000Z</time>
</trkpt>
<trkpt lat="57.497010" lon="9.880940">
<ele>25.710848</ele>
<time>2026-07-16T14:46:13.000Z</time>
</trkpt>
<trkpt lat="57.497025" lon="9.881026">
<ele>25.734842</ele>
<time>2026-07-16T14:46:14.000Z</time>
</trkpt>
<trkpt lat="57.497037" lon="9.881115">
<ele>25.759192</ele>
<time>2026-07-16T14:46:15.000Z</time>
</trkpt>
<trkpt lat="57.497043" lon="9.881206">
<ele>25.783521</ele>
<time>2026-07-16T14:46:16.000Z</time>
</trkpt>
<trkpt lat="57.497052" lon="9.881294">
<ele>25.807293</ele>
<time>2026-07-16T14:46:17.000Z</time>
</trkpt>
<trkpt lat="57.497063" lon="9.881384">
<ele>25.831786</ele>
<time>2026-07-16T14:46:18.000Z</time>
</trkpt>
<trkpt lat="57.497080" lon="9.881472">
<ele>25.856601</ele>
<time>2026-07-16T14:46:19.000Z</time>
</trkpt>
<trkpt lat="57.497105" lon="9.881553">
<ele>25.881389</ele>
<time>2026-07-16T14:46:20.000Z</time>
</trkpt>
<trkpt lat="57.497135" lon="9.881628">
<ele>25.906201</ele>
<time>2026-07-16T14:46:21.000Z</time>
</trkpt>
<trkpt lat="57.497168" lon="9.881693">
<ele>25.929931</ele>
<time>2026-07-16T14:46:22.000Z</time>
</trkpt>
<trkpt lat="57.497205" lon="9.881749">
<ele>25.953483</ele>
<time>2026-07-16T14:46:23.000Z</time>
</trkpt>
<trkpt lat="57.497245" lon="9.881795">
<ele>25.976704</ele>
<time>2026-07-16T14:46:24.000Z</time>
</trkpt>
<trkpt lat="57.497287" lon="9.881841">
<ele>26.000771</ele>
<time>2026-07-16T14:46:25.000Z</time>
</trkpt>
<trkpt lat="57.497327" lon="9.881889">
<ele>26.024276</ele>
<time>2026-07-16T14:46:26.000Z</time>
</trkpt>
<trkpt lat="57.497368" lon="9.881936">
<ele>26.048057</ele>
<time>2026-07-16T14:46:27.000Z</time>
</trkpt>
<trkpt lat="57.497407" lon="9.881983">
<ele>26.071002</ele>
<time>2026-07-16T14:46:28.000Z</time>
</trkpt>
<trkpt lat="57.497448" lon="9.882030">
<ele>26.094783</ele>
<time>2026-07-16T14:46:29.000Z</time>
</trkpt>
<trkpt lat="57.497490" lon="9.882083">
<ele>26.119843</ele>
<time>2026-07-16T14:46:30.000Z</time>
</trkpt>
<trkpt lat="57.497532" lon="9.882142">
<ele>26.145831</ele>
<time>2026-07-16T14:46:31.000Z</time>
</trkpt>
<trkpt lat="57.497574" lon="9.882204">
<ele>26.172305</ele>
<time>2026-07-16T14:46:32.000Z</time>
</trkpt>
<trkpt lat="57.497619" lon="9.882264">
<ele>26.199643</ele>
<time>2026-07-16T14:46:33.000Z</time>
</trkpt>
<trkpt lat="57.497660" lon="9.882319">
<ele>26.224603</ele>
<time>2026-07-16T14:46:34.000Z</time>
</trkpt>
<trkpt lat="57.497706" lon="9.882378">
<ele>26.252193</ele>
<time>2026-07-16T14:46:35.000Z</time>
</trkpt>
<trkpt lat="57.497749" lon="9.882437">
<ele>26.278576</ele>
<time>2026-07-16T14:46:36.000Z</time>
</trkpt>
<trkpt lat="57.497794" lon="9.882492">
<ele>26.305163</ele>
<time>2026-07-16T14:46:37.000Z</time>
</trkpt>
<trkpt lat="57.497837" lon="9.882548">
<ele>26.331082</ele>
<time>2026-07-16T14:46:38.000Z</time>
</trkpt>
<trkpt lat="57.497882" lon="9.882605">
<ele>26.357964</ele>
<time>2026-07-16T14:46:39.000Z</time>
</trkpt>
<trkpt lat="57.497925" lon="9.882667">
<ele>26.384827</ele>
<time>2026-07-16T14:46:40.000Z</time>
</trkpt>
<trkpt lat="57.497966" lon="9.882730">
<ele>26.411084</ele>
<time>2026-07-16T14:46:41.000Z</time>
</trkpt>
<trkpt lat="57.498006" lon="9.882797">
<ele>26.437661</ele>
<time>2026-07-16T14:46:42.000Z</time>
</trkpt>
<trkpt lat="57.498047" lon="9.882869">
<ele>26.465500</ele>
<time>2026-07-16T14:46:43.000Z</time>
</trkpt>
<trkpt lat="57.498086" lon="9.882941">
<ele>26.473761</ele>
<time>2026-07-16T14:46:44.000Z</time>
</trkpt>
<trkpt lat="57.498124" lon="9.883010">
<ele>26.451991</ele>
<time>2026-07-16T14:46:45.000Z</time>
</trkpt>
<trkpt lat="57.498165" lon="9.883072">
<ele>26.430329</ele>
<time>2026-07-16T14:46:46.000Z</time>
</trkpt>
<trkpt lat="57.498207" lon="9.883130">
<ele>26.408884</ele>
<time>2026-07-16T14:46:47.000Z</time>
</trkpt>
<trkpt lat="57.498249" lon="9.883182">
<ele>26.388199</ele>
<time>2026-07-16T14:46:48.000Z</time>
</trkpt>
<trkpt lat="57.498296" lon="9.883224">
<ele>26.366820</ele>
<time>2026-07-16T14:46:49.000Z</time>
</trkpt>
<trkpt lat="57.498343" lon="9.883256">
<ele>26.346299</ele>
<time>2026-07-16T14:46:50.000Z</time>
</trkpt>
<trkpt lat="57.498392" lon="9.883278">
<ele>26.325630</ele>
<time>2026-07-16T14:46:51.000Z</time>
</trkpt>
<trkpt lat="57.498442" lon="9.883291">
<ele>26.304929</ele>
<time>2026-07-16T14:46:52.000Z</time>
</trkpt>
<trkpt lat="57.498494" lon="9.883301">
<ele>26.283493</ele>
<time>2026-07-16T14:46:53.000Z</time>
</trkpt>
<trkpt lat="57.498545" lon="9.883311">
<ele>26.262465</ele>
<time>2026-07-16T14:46:54.000Z</time>
</trkpt>
<trkpt lat="57.498597" lon="9.883319">
<ele>26.241070</ele>
<time>2026-07-16T14:46:55.000Z</time>
</trkpt>
<trkpt lat="57.498648" lon="9.883327">
<ele>26.220083</ele>
<time>2026-07-16T14:46:56.000Z</time>
</trkpt>
<trkpt lat="57.498700" lon="9.883335">
<ele>26.198688</ele>
<time>2026-07-16T14:46:57.000Z</time>
</trkpt>
<trkpt lat="57.498753" lon="9.883347">
<ele>26.176796</ele>
<time>2026-07-16T14:46:58.000Z</time>
</trkpt>
<trkpt lat="57.498807" lon="9.883364">
<ele>26.154339</ele>
<time>2026-07-16T14:46:59.000Z</time>
</trkpt>
<trkpt lat="57.498860" lon="9.883380">
<ele>26.132322</ele>
<time>2026-07-16T14:47:00.000Z</time>
</trkpt>
<trkpt lat="57.498916" lon="9.883397">
<ele>26.109056</ele>
<time>2026-07-16T14:47:01.000Z</time>
</trkpt>
<trkpt lat="57.498968" lon="9.883414">
<ele>26.087407</ele>
<time>2026-07-16T14:47:02.000Z</time>
</trkpt>
<trkpt lat="57.499023" lon="9.883431">
<ele>26.064546</ele>
<time>2026-07-16T14:47:03.000Z</time>
</trkpt>
<trkpt lat="57.499078" lon="9.883447">
<ele>26.041720</ele>
<time>2026-07-16T14:47:04.000Z</time>
</trkpt>
<trkpt lat="57.499131" lon="9.883464">
<ele>26.019667</ele>
<time>2026-07-16T14:47:05.000Z</time>
</trkpt>
<trkpt lat="57.499182" lon="9.883482">
<ele>25.998382</ele>
<time>2026-07-16T14:47:06.000Z</time>
</trkpt>
<trkpt lat="57.499231" lon="9.883503">
<ele>25.977764</ele>
<time>2026-07-16T14:47:07.000Z</time>
</trkpt>
<trkpt lat="57.499278" lon="9.883527">
<ele>25.957779</ele>
<time>2026-07-16T14:47:08.000Z</time>
</trkpt>
<trkpt lat="57.499324" lon="9.883548">
<ele>25.938358</ele>
<time>2026-07-16T14:47:09.000Z</time>
</trkpt>
<trkpt lat="57.499373" lon="9.883568">
<ele>25.917788</ele>
<time>2026-07-16T14:47:10.000Z</time>
</trkpt>
<trkpt lat="57.499422" lon="9.883589">
<ele>25.897170</ele>
<time>2026-07-16T14:47:11.000Z</time>
</trkpt>
<trkpt lat="57.499471" lon="9.883614">
<ele>25.876337</ele>
<time>2026-07-16T14:47:12.000Z</time>
</trkpt>
<trkpt lat="57.499524" lon="9.883641">
<ele>25.853805</ele>
<time>2026-07-16T14:47:13.000Z</time>
</trkpt>
<trkpt lat="57.499574" lon="9.883669">
<ele>25.832394</ele>
<time>2026-07-16T14:47:14.000Z</time>
</trkpt>
<trkpt lat="57.499624" lon="9.883696">
<ele>25.811047</ele>
<time>2026-07-16T14:47:15.000Z</time>
</trkpt>
<trkpt lat="57.499677" lon="9.883725">
<ele>25.788394</ele>
<time>2026-07-16T14:47:16.000Z</time>
</trkpt>
<trkpt lat="57.499727" lon="9.883754">
<ele>25.766920</ele>
<time>2026-07-16T14:47:17.000Z</time>
</trkpt>
<trkpt lat="57.499780" lon="9.883786">
<ele>25.744249</ele>
<time>2026-07-16T14:47:18.000Z</time>
</trkpt>
<trkpt lat="57.499830" lon="9.883819">
<ele>25.727806</ele>
<time>2026-07-16T14:47:19.000Z</time>
</trkpt>
<trkpt lat="57.499879" lon="9.883850">
<ele>25.711765</ele>
<time>2026-07-16T14:47:20.000Z</time>
</trkpt>
<trkpt lat="57.499929" lon="9.883883">
<ele>25.695322</ele>
<time>2026-07-16T14:47:21.000Z</time>
</trkpt>
<trkpt lat="57.499976" lon="9.883921">
<ele>25.679439</ele>
<time>2026-07-16T14:47:22.000Z</time>
</trkpt>
<trkpt lat="57.500022" lon="9.883965">
<ele>25.663409</ele>
<time>2026-07-16T14:47:23.000Z</time>
</trkpt>
<trkpt lat="57.500065" lon="9.884017">
<ele>25.647515</ele>
<time>2026-07-16T14:47:24.000Z</time>
</trkpt>
<trkpt lat="57.500107" lon="9.884076">
<ele>25.631205</ele>
<time>2026-07-16T14:47:25.000Z</time>
</trkpt>
<trkpt lat="57.500146" lon="9.884142">
<ele>25.614868</ele>
<time>2026-07-16T14:47:26.000Z</time>
</trkpt>
<trkpt lat="57.500187" lon="9.884209">
<ele>25.597957</ele>
<time>2026-07-16T14:47:27.000Z</time>
</trkpt>
<trkpt lat="57.500229" lon="9.884274">
<ele>25.581026</ele>
<time>2026-07-16T14:47:28.000Z</time>
</trkpt>
<trkpt lat="57.500271" lon="9.884343">
<ele>25.563663</ele>
<time>2026-07-16T14:47:29.000Z</time>
</trkpt>
<trkpt lat="57.500308" lon="9.884418">
<ele>25.546706</ele>
<time>2026-07-16T14:47:30.000Z</time>
</trkpt>
<trkpt lat="57.500333" lon="9.884503">
<ele>25.530569</ele>
<time>2026-07-16T14:47:31.000Z</time>
</trkpt>
<trkpt lat="57.500348" lon="9.884594">
<ele>25.514717</ele>
<time>2026-07-16T14:47:32.000Z</time>
</trkpt>
<trkpt lat="57.500348" lon="9.884691">
<ele>25.498564</ele>
<time>2026-07-16T14:47:33.000Z</time>
</trkpt>
<trkpt lat="57.500342" lon="9.884786">
<ele>25.482634</ele>
<time>2026-07-16T14:47:34.000Z</time>
</trkpt>
<trkpt lat="57.500331" lon="9.884881">
<ele>25.466451</ele>
<time>2026-07-16T14:47:35.000Z</time>
</trkpt>
<trkpt lat="57.500317" lon="9.884973">
<ele>25.450527</ele>
<time>2026-07-16T14:47:36.000Z</time>
</trkpt>
<trkpt lat="57.500302" lon="9.885066">
<ele>25.434357</ele>
<time>2026-07-16T14:47:37.000Z</time>
</trkpt>
<trkpt lat="57.500286" lon="9.885157">
<ele>25.418411</ele>
<time>2026-07-16T14:47:38.000Z</time>
</trkpt>
<trkpt lat="57.500271" lon="9.885247">
<ele>25.402719</ele>
<time>2026-07-16T14:47:39.000Z</time>
</trkpt>
<trkpt lat="57.500256" lon="9.885338">
<ele>25.386867</ele>
<time>2026-07-16T14:47:40.000Z</time>
</trkpt>
<trkpt lat="57.500238" lon="9.885425">
<ele>25.371342</ele>
<time>2026-07-16T14:47:41.000Z</time>
</trkpt>
<trkpt lat="57.500222" lon="9.885512">
<ele>25.356028</ele>
<time>2026-07-16T14:47:42.000Z</time>
</trkpt>
<trkpt lat="57.500206" lon="9.885597">
<ele>25.341030</ele>
<time>2026-07-16T14:47:43.000Z</time>
</trkpt>
<trkpt lat="57.500188" lon="9.885681">
<ele>25.325969</ele>
<time>2026-07-16T14:47:44.000Z</time>
</trkpt>
<trkpt lat="57.500172" lon="9.885763">
<ele>25.311441</ele>
<time>2026-07-16T14:47:45.000Z</time>
</trkpt>
<trkpt lat="57.500157" lon="9.885845">
<ele>25.297015</ele>
<time>2026-07-16T14:47:46.000Z</time>
</trkpt>
<trkpt lat="57.500141" lon="9.885927">
<ele>25.282487</ele>
<time>2026-07-16T14:47:47.000Z</time>
</trkpt>
<trkpt lat="57.500126" lon="9.886009">
<ele>25.268062</ele>
<time>2026-07-16T14:47:48.000Z</time>
</trkpt>
<trkpt lat="57.500111" lon="9.886089">
<ele>25.253951</ele>
<time>2026-07-16T14:47:49.000Z</time>
</trkpt>
<trkpt lat="57.500098" lon="9.886169">
<ele>25.240032</ele>
<time>2026-07-16T14:47:50.000Z</time>
</trkpt>
<trkpt lat="57.500084" lon="9.886251">
<ele>25.225704</ele>
<time>2026-07-16T14:47:51.000Z</time>
</trkpt>
<trkpt lat="57.500072" lon="9.886336">
<ele>25.211068</ele>
<time>2026-07-16T14:47:52.000Z</time>
</trkpt>
<trkpt lat="57.500058" lon="9.886422">
<ele>25.196103</ele>
<time>2026-07-16T14:47:53.000Z</time>
</trkpt>
<trkpt lat="57.500042" lon="9.886511">
<ele>25.176487</ele>
<time>2026-07-16T14:47:54.000Z</time>
</trkpt>
<trkpt lat="57.500027" lon="9.886601">
<ele>25.151645</ele>
<time>2026-07-16T14:47:55.000Z</time>
</trkpt>
<trkpt lat="57.500009" lon="9.886690">
<ele>25.126574</ele>
<time>2026-07-16T14:47:56.000Z</time>
</trkpt>
<trkpt lat="57.499993" lon="9.886780">
<ele>25.101582</ele>
<time>2026-07-16T14:47:57.000Z</time>
</trkpt>
<trkpt lat="57.499975" lon="9.886867">
<ele>25.077003</ele>
<time>2026-07-16T14:47:58.000Z</time>
</trkpt>
<trkpt lat="57.499958" lon="9.886949">
<ele>25.053832</ele>
<time>2026-07-16T14:47:59.000Z</time>
</trkpt>
<trkpt lat="57.499940" lon="9.887032">
<ele>25.030235</ele>
<time>2026-07-16T14:48:00.000Z</time>
</trkpt>
<trkpt lat="57.499924" lon="9.887111">
<ele>25.007977</ele>
<time>2026-07-16T14:48:01.000Z</time>
</trkpt>
<trkpt lat="57.499906" lon="9.887190">
<ele>24.985354</ele>
<time>2026-07-16T14:48:02.000Z</time>
</trkpt>
<trkpt lat="57.499887" lon="9.887270">
<ele>24.962295</ele>
<time>2026-07-16T14:48:03.000Z</time>
</trkpt>
<trkpt lat="57.499871" lon="9.887350">
<ele>24.939790</ele>
<time>2026-07-16T14:48:04.000Z</time>
</trkpt>
<trkpt lat="57.499855" lon="9.887431">
<ele>24.917038</ele>
<time>2026-07-16T14:48:05.000Z</time>
</trkpt>
<trkpt lat="57.499840" lon="9.887513">
<ele>24.894201</ele>
<time>2026-07-16T14:48:06.000Z</time>
</trkpt>
<trkpt lat="57.499825" lon="9.887593">
<ele>24.871863</ele>
<time>2026-07-16T14:48:07.000Z</time>
</trkpt>
<trkpt lat="57.499807" lon="9.887672">
<ele>24.849240</ele>
<time>2026-07-16T14:48:08.000Z</time>
</trkpt>
<trkpt lat="57.499790" lon="9.887754">
<ele>24.826069</ele>
<time>2026-07-16T14:48:09.000Z</time>
</trkpt>
<trkpt lat="57.499778" lon="9.887843">
<ele>24.801877</ele>
<time>2026-07-16T14:48:10.000Z</time>
</trkpt>
<trkpt lat="57.499767" lon="9.887937">
<ele>24.776515</ele>
<time>2026-07-16T14:48:11.000Z</time>
</trkpt>
<trkpt lat="57.499750" lon="9.888041">
<ele>24.747855</ele>
<time>2026-07-16T14:48:12.000Z</time>
</trkpt>
<trkpt lat="57.499733" lon="9.888147">
<ele>24.718692</ele>
<time>2026-07-16T14:48:13.000Z</time>
</trkpt>
<trkpt lat="57.499718" lon="9.888254">
<ele>24.689538</ele>
<time>2026-07-16T14:48:14.000Z</time>
</trkpt>
<trkpt lat="57.499700" lon="9.888361">
<ele>24.659978</ele>
<time>2026-07-16T14:48:15.000Z</time>
</trkpt>
<trkpt lat="57.499684" lon="9.888469">
<ele>24.630443</ele>
<time>2026-07-16T14:48:16.000Z</time>
</trkpt>
<trkpt lat="57.499669" lon="9.888576">
<ele>24.601289</ele>
<time>2026-07-16T14:48:17.000Z</time>
</trkpt>
<trkpt lat="57.499653" lon="9.888681">
<ele>24.572515</ele>
<time>2026-07-16T14:48:18.000Z</time>
</trkpt>
<trkpt lat="57.499638" lon="9.888788">
<ele>24.543362</ele>
<time>2026-07-16T14:48:19.000Z</time>
</trkpt>
<trkpt lat="57.499623" lon="9.888895">
<ele>24.514208</ele>
<time>2026-07-16T14:48:20.000Z</time>
</trkpt>
<trkpt lat="57.499613" lon="9.888997">
<ele>24.486873</ele>
<time>2026-07-16T14:48:21.000Z</time>
</trkpt>
<trkpt lat="57.499605" lon="9.889099">
<ele>24.459697</ele>
<time>2026-07-16T14:48:22.000Z</time>
</trkpt>
<trkpt lat="57.499598" lon="9.889200">
<ele>24.432849</ele>
<time>2026-07-16T14:48:23.000Z</time>
</trkpt>
<trkpt lat="57.499593" lon="9.889299">
<ele>24.406633</ele>
<time>2026-07-16T14:48:24.000Z</time>
</trkpt>
<trkpt lat="57.499589" lon="9.889399">
<ele>24.380196</ele>
<time>2026-07-16T14:48:25.000Z</time>
</trkpt>
<trkpt lat="57.499585" lon="9.889496">
<ele>24.354548</ele>
<time>2026-07-16T14:48:26.000Z</time>
</trkpt>
<trkpt lat="57.499581" lon="9.889592">
<ele>24.329163</ele>
<time>2026-07-16T14:48:27.000Z</time>
</trkpt>
<trkpt lat="57.499575" lon="9.889690">
<ele>24.299669</ele>
<time>2026-07-16T14:48:28.000Z</time>
</trkpt>
<trkpt lat="57.499570" lon="9.889786">
<ele>24.219272</ele>
<time>2026-07-16T14:48:29.000Z</time>
</trkpt>
<trkpt lat="57.499566" lon="9.889883">
<ele>24.138178</ele>
<time>2026-07-16T14:48:30.000Z</time>
</trkpt>
<trkpt lat="57.499562" lon="9.889979">
<ele>24.057916</ele>
<time>2026-07-16T14:48:31.000Z</time>
</trkpt>
<trkpt lat="57.499559" lon="9.890077">
<ele>23.976094</ele>
<time>2026-07-16T14:48:32.000Z</time>
</trkpt>
<trkpt lat="57.499552" lon="9.890176">
<ele>23.892860</ele>
<time>2026-07-16T14:48:33.000Z</time>
</trkpt>
<trkpt lat="57.499547" lon="9.890277">
<ele>23.808314</ele>
<time>2026-07-16T14:48:34.000Z</time>
</trkpt>
<trkpt lat="57.499546" lon="9.890378">
<ele>23.724110</ele>
<time>2026-07-16T14:48:35.000Z</time>
</trkpt>
<trkpt lat="57.499543" lon="9.890476">
<ele>23.642288</ele>
<time>2026-07-16T14:48:36.000Z</time>
</trkpt>
<trkpt lat="57.499539" lon="9.890575">
<ele>23.559532</ele>
<time>2026-07-16T14:48:37.000Z</time>
</trkpt>
<trkpt lat="57.499538" lon="9.890672">
<ele>23.478661</ele>
<time>2026-07-16T14:48:38.000Z</time>
</trkpt>
<trkpt lat="57.499538" lon="9.890769">
<ele>23.397806</ele>
<time>2026-07-16T14:48:39.000Z</time>
</trkpt>
<trkpt lat="57.499536" lon="9.890868">
<ele>23.315225</ele>
<time>2026-07-16T14:48:40.000Z</time>
</trkpt>
<trkpt lat="57.499532" lon="9.890968">
<ele>23.231638</ele>
<time>2026-07-16T14:48:41.000Z</time>
</trkpt>
<trkpt lat="57.499531" lon="9.891075">
<ele>23.142433</ele>
<time>2026-07-16T14:48:42.000Z</time>
</trkpt>
<trkpt lat="57.499531" lon="9.891181">
<ele>23.054075</ele>
<time>2026-07-16T14:48:43.000Z</time>
</trkpt>
<trkpt lat="57.499528" lon="9.891290">
<ele>22.963097</ele>
<time>2026-07-16T14:48:44.000Z</time>
</trkpt>
<trkpt lat="57.499524" lon="9.891398">
<ele>22.872859</ele>
<time>2026-07-16T14:48:45.000Z</time>
</trkpt>
<trkpt lat="57.499520" lon="9.891510">
<ele>22.779294</ele>
<time>2026-07-16T14:48:46.000Z</time>
</trkpt>
<trkpt lat="57.499519" lon="9.891622">
<ele>22.685922</ele>
<time>2026-07-16T14:48:47.000Z</time>
</trkpt>
<trkpt lat="57.499517" lon="9.891736">
<ele>22.590845</ele>
<time>2026-07-16T14:48:48.000Z</time>
</trkpt>
<trkpt lat="57.499513" lon="9.891849">
<ele>22.496448</ele>
<time>2026-07-16T14:48:49.000Z</time>
</trkpt>
<trkpt lat="57.499512" lon="9.891965">
<ele>22.399742</ele>
<time>2026-07-16T14:48:50.000Z</time>
</trkpt>
<trkpt lat="57.499509" lon="9.892083">
<ele>22.301271</ele>
<time>2026-07-16T14:48:51.000Z</time>
</trkpt>
<trkpt lat="57.499505" lon="9.892201">
<ele>22.202715</ele>
<time>2026-07-16T14:48:52.000Z</time>
</trkpt>
<trkpt lat="57.499504" lon="9.892321">
<ele>22.102675</ele>
<time>2026-07-16T14:48:53.000Z</time>
</trkpt>
<trkpt lat="57.499501" lon="9.892441">
<ele>22.002539</ele>
<time>2026-07-16T14:48:54.000Z</time>
</trkpt>
<trkpt lat="57.499498" lon="9.892559">
<ele>21.904069</ele>
<time>2026-07-16T14:48:55.000Z</time>
</trkpt>
<trkpt lat="57.499496" lon="9.892680">
<ele>21.803159</ele>
<time>2026-07-16T14:48:56.000Z</time>
</trkpt>
<trkpt lat="57.499494" lon="9.892795">
<ele>21.707249</ele>
<time>2026-07-16T14:48:57.000Z</time>
</trkpt>
<trkpt lat="57.499490" lon="9.892911">
<ele>21.610357</ele>
<time>2026-07-16T14:48:58.000Z</time>
</trkpt>
<trkpt lat="57.499489" lon="9.893028">
<ele>21.513838</ele>
<time>2026-07-16T14:48:59.000Z</time>
</trkpt>
<trkpt lat="57.499486" lon="9.893146">
<ele>21.478741</ele>
<time>2026-07-16T14:49:00.000Z</time>
</trkpt>
<trkpt lat="57.499485" lon="9.893263">
<ele>21.443976</ele>
<time>2026-07-16T14:49:01.000Z</time>
</trkpt>
<trkpt lat="57.499485" lon="9.893382">
<ele>21.408621</ele>
<time>2026-07-16T14:49:02.000Z</time>
</trkpt>
<trkpt lat="57.499482" lon="9.893499">
<ele>21.373820</ele>
<time>2026-07-16T14:49:03.000Z</time>
</trkpt>
<trkpt lat="57.499478" lon="9.893615">
<ele>21.339286</ele>
<time>2026-07-16T14:49:04.000Z</time>
</trkpt>
<trkpt lat="57.499475" lon="9.893730">
<ele>21.305079</ele>
<time>2026-07-16T14:49:05.000Z</time>
</trkpt>
<trkpt lat="57.499474" lon="9.893846">
<ele>21.270611</ele>
<time>2026-07-16T14:49:06.000Z</time>
</trkpt>
<trkpt lat="57.499471" lon="9.893961">
<ele>21.236404</ele>
<time>2026-07-16T14:49:07.000Z</time>
</trkpt>
<trkpt lat="57.499470" lon="9.894074">
<ele>21.202827</ele>
<time>2026-07-16T14:49:08.000Z</time>
</trkpt>
<trkpt lat="57.499470" lon="9.894190">
<ele>21.168363</ele>
<time>2026-07-16T14:49:09.000Z</time>
</trkpt>
<trkpt lat="57.499470" lon="9.894303">
<ele>21.134791</ele>
<time>2026-07-16T14:49:10.000Z</time>
</trkpt>
<trkpt lat="57.499470" lon="9.894413">
<ele>21.102110</ele>
<time>2026-07-16T14:49:11.000Z</time>
</trkpt>
<trkpt lat="57.499467" lon="9.894521">
<ele>21.069980</ele>
<time>2026-07-16T14:49:12.000Z</time>
</trkpt>
<trkpt lat="57.499463" lon="9.894632">
<ele>21.036928</ele>
<time>2026-07-16T14:49:13.000Z</time>
</trkpt>
<trkpt lat="57.499459" lon="9.894744">
<ele>21.003579</ele>
<time>2026-07-16T14:49:14.000Z</time>
</trkpt>
<trkpt lat="57.499458" lon="9.894851">
<ele>20.971784</ele>
<time>2026-07-16T14:49:15.000Z</time>
</trkpt>
<trkpt lat="57.499458" lon="9.894958">
<ele>20.939995</ele>
<time>2026-07-16T14:49:16.000Z</time>
</trkpt>
<trkpt lat="57.499456" lon="9.895067">
<ele>20.907592</ele>
<time>2026-07-16T14:49:17.000Z</time>
</trkpt>
<trkpt lat="57.499452" lon="9.895180">
<ele>20.873946</ele>
<time>2026-07-16T14:49:18.000Z</time>
</trkpt>
<trkpt lat="57.499448" lon="9.895291">
<ele>20.840894</ele>
<time>2026-07-16T14:49:19.000Z</time>
</trkpt>
<trkpt lat="57.499441" lon="9.895400">
<ele>20.808280</ele>
<time>2026-07-16T14:49:20.000Z</time>
</trkpt>
<trkpt lat="57.499434" lon="9.895510">
<ele>20.775370</ele>
<time>2026-07-16T14:49:21.000Z</time>
</trkpt>
<trkpt lat="57.499423" lon="9.895611">
<ele>20.744753</ele>
<time>2026-07-16T14:49:22.000Z</time>
</trkpt>
<trkpt lat="57.499412" lon="9.895708">
<ele>20.715299</ele>
<time>2026-07-16T14:49:23.000Z</time>
</trkpt>
<trkpt lat="57.499403" lon="9.895810">
<ele>20.684589</ele>
<time>2026-07-16T14:49:24.000Z</time>
</trkpt>
<trkpt lat="57.499393" lon="9.895914">
<ele>20.653199</ele>
<time>2026-07-16T14:49:25.000Z</time>
</trkpt>
<trkpt lat="57.499384" lon="9.896019">
<ele>20.621609</ele>
<time>2026-07-16T14:49:26.000Z</time>
</trkpt>
<trkpt lat="57.499379" lon="9.896127">
<ele>20.589403</ele>
<time>2026-07-16T14:49:27.000Z</time>
</trkpt>
<trkpt lat="57.499378" lon="9.896234">
<ele>20.557609</ele>
<time>2026-07-16T14:49:28.000Z</time>
</trkpt>
<trkpt lat="57.499381" lon="9.896338">
<ele>20.526666</ele>
<time>2026-07-16T14:49:29.000Z</time>
</trkpt>
<trkpt lat="57.499382" lon="9.896439">
<ele>20.484522</ele>
<time>2026-07-16T14:49:30.000Z</time>
</trkpt>
<trkpt lat="57.499382" lon="9.896538">
<ele>20.439731</ele>
<time>2026-07-16T14:49:31.000Z</time>
</trkpt>
<trkpt lat="57.499382" lon="9.896637">
<ele>20.394939</ele>
<time>2026-07-16T14:49:32.000Z</time>
</trkpt>
<trkpt lat="57.499379" lon="9.896741">
<ele>20.347817</ele>
<time>2026-07-16T14:49:33.000Z</time>
</trkpt>
<trkpt lat="57.499375" lon="9.896844">
<ele>20.301094</ele>
<time>2026-07-16T14:49:34.000Z</time>
</trkpt>
<trkpt lat="57.499369" lon="9.896948">
<ele>20.253769</ele>
<time>2026-07-16T14:49:35.000Z</time>
</trkpt>
<trkpt lat="57.499361" lon="9.897051">
<ele>20.206683</ele>
<time>2026-07-16T14:49:36.000Z</time>
</trkpt>
<trkpt lat="57.499351" lon="9.897167">
<ele>20.153528</ele>
<time>2026-07-16T14:49:37.000Z</time>
</trkpt>
<trkpt lat="57.499345" lon="9.897283">
<ele>20.100802</ele>
<time>2026-07-16T14:49:38.000Z</time>
</trkpt>
<trkpt lat="57.499341" lon="9.897398">
<ele>20.048662</ele>
<time>2026-07-16T14:49:39.000Z</time>
</trkpt>
<trkpt lat="57.499334" lon="9.897512">
<ele>19.996748</ele>
<time>2026-07-16T14:49:40.000Z</time>
</trkpt>
<trkpt lat="57.499327" lon="9.897625">
<ele>19.945283</ele>
<time>2026-07-16T14:49:41.000Z</time>
</trkpt>
<trkpt lat="57.499322" lon="9.897739">
<ele>19.893533</ele>
<time>2026-07-16T14:49:42.000Z</time>
</trkpt>
<trkpt lat="57.499321" lon="9.897850">
<ele>19.843305</ele>
<time>2026-07-16T14:49:43.000Z</time>
</trkpt>
<trkpt lat="57.499318" lon="9.897957">
<ele>19.794827</ele>
<time>2026-07-16T14:49:44.000Z</time>
</trkpt>
<trkpt lat="57.499317" lon="9.898061">
<ele>19.747765</ele>
<time>2026-07-16T14:49:45.000Z</time>
</trkpt>
<trkpt lat="57.499314" lon="9.898170">
<ele>19.698384</ele>
<time>2026-07-16T14:49:46.000Z</time>
</trkpt>
<trkpt lat="57.499311" lon="9.898279">
<ele>19.649003</ele>
<time>2026-07-16T14:49:47.000Z</time>
</trkpt>
<trkpt lat="57.499307" lon="9.898387">
<ele>19.600023</ele>
<time>2026-07-16T14:49:48.000Z</time>
</trkpt>
<trkpt lat="57.499303" lon="9.898491">
<ele>19.552849</ele>
<time>2026-07-16T14:49:49.000Z</time>
</trkpt>
<trkpt lat="57.499299" lon="9.898597">
<ele>19.504772</ele>
<time>2026-07-16T14:49:50.000Z</time>
</trkpt>
<trkpt lat="57.499295" lon="9.898697">
<ele>19.459402</ele>
<time>2026-07-16T14:49:51.000Z</time>
</trkpt>
<trkpt lat="57.499292" lon="9.898797">
<ele>19.414087</ele>
<time>2026-07-16T14:49:52.000Z</time>
</trkpt>
<trkpt lat="57.499285" lon="9.898900">
<ele>19.367114</ele>
<time>2026-07-16T14:49:53.000Z</time>
</trkpt>
<trkpt lat="57.499280" lon="9.899003">
<ele>19.320322</ele>
<time>2026-07-16T14:49:54.000Z</time>
</trkpt>
<trkpt lat="57.499276" lon="9.899101">
<ele>19.275855</ele>
<time>2026-07-16T14:49:55.000Z</time>
</trkpt>
<trkpt lat="57.499272" lon="9.899199">
<ele>19.231388</ele>
<time>2026-07-16T14:49:56.000Z</time>
</trkpt>
<trkpt lat="57.499269" lon="9.899294">
<ele>19.188331</ele>
<time>2026-07-16T14:49:57.000Z</time>
</trkpt>
<trkpt lat="57.499262" lon="9.899393">
<ele>19.143153</ele>
<time>2026-07-16T14:49:58.000Z</time>
</trkpt>
<trkpt lat="57.499260" lon="9.899492">
<ele>19.098329</ele>
<time>2026-07-16T14:49:59.000Z</time>
</trkpt>
<trkpt lat="57.499254" lon="9.899590">
<ele>19.053703</ele>
<time>2026-07-16T14:50:00.000Z</time>
</trkpt>
<trkpt lat="57.499247" lon="9.899690">
<ele>19.008076</ele>
<time>2026-07-16T14:50:01.000Z</time>
</trkpt>
<trkpt lat="57.499242" lon="9.899786">
<ele>18.974613</ele>
<time>2026-07-16T14:50:02.000Z</time>
</trkpt>
<trkpt lat="57.499241" lon="9.899880">
<ele>18.942667</ele>
<time>2026-07-16T14:50:03.000Z</time>
</trkpt>
<trkpt lat="57.499241" lon="9.899970">
<ele>18.912087</ele>
<time>2026-07-16T14:50:04.000Z</time>
</trkpt>
<trkpt lat="57.499238" lon="9.900058">
<ele>18.882127</ele>
<time>2026-07-16T14:50:05.000Z</time>
</trkpt>
<trkpt lat="57.499237" lon="9.900145">
<ele>18.852559</ele>
<time>2026-07-16T14:50:06.000Z</time>
</trkpt>
<trkpt lat="57.499237" lon="9.900229">
<ele>18.824018</ele>
<time>2026-07-16T14:50:07.000Z</time>
</trkpt>
<trkpt lat="57.499237" lon="9.900315">
<ele>18.794797</ele>
<time>2026-07-16T14:50:08.000Z</time>
</trkpt>
<trkpt lat="57.499237" lon="9.900404">
<ele>18.764557</ele>
<time>2026-07-16T14:50:09.000Z</time>
</trkpt>
<trkpt lat="57.499237" lon="9.900492">
<ele>18.734656</ele>
<time>2026-07-16T14:50:10.000Z</time>
</trkpt>
<trkpt lat="57.499234" lon="9.900583">
<ele>18.703678</ele>
<time>2026-07-16T14:50:11.000Z</time>
</trkpt>
<trkpt lat="57.499230" lon="9.900672">
<ele>18.673333</ele>
<time>2026-07-16T14:50:12.000Z</time>
</trkpt>
<trkpt lat="57.499227" lon="9.900762">
<ele>18.642694</ele>
<time>2026-07-16T14:50:13.000Z</time>
</trkpt>
<trkpt lat="57.499223" lon="9.900854">
<ele>18.611332</ele>
<time>2026-07-16T14:50:14.000Z</time>
</trkpt>
<trkpt lat="57.499222" lon="9.900947">
<ele>18.579726</ele>
<time>2026-07-16T14:50:15.000Z</time>
</trkpt>
<trkpt lat="57.499219" lon="9.901037">
<ele>18.549088</ele>
<time>2026-07-16T14:50:16.000Z</time>
</trkpt>
<trkpt lat="57.499215" lon="9.901137">
<ele>18.515016</ele>
<time>2026-07-16T14:50:17.000Z</time>
</trkpt>
<trkpt lat="57.499211" lon="9.901226">
<ele>18.484670</ele>
<time>2026-07-16T14:50:18.000Z</time>
</trkpt>
<trkpt lat="57.499208" lon="9.901309">
<ele>18.456404</ele>
<time>2026-07-16T14:50:19.000Z</time>
</trkpt>
<trkpt lat="57.499204" lon="9.901386">
<ele>18.430120</ele>
<time>2026-07-16T14:50:20.000Z</time>
</trkpt>
<trkpt lat="57.499197" lon="9.901453">
<ele>18.406928</ele>
<time>2026-07-16T14:50:21.000Z</time>
</trkpt>
<trkpt lat="57.499190" lon="9.901507">
<ele>18.388054</ele>
<time>2026-07-16T14:50:22.000Z</time>
</trkpt>
<trkpt lat="57.499185" lon="9.901547">
<ele>18.374100</ele>
<time>2026-07-16T14:50:23.000Z</time>
</trkpt>
<trkpt lat="57.499184" lon="9.901580">
<ele>18.362869</ele>
<time>2026-07-16T14:50:24.000Z</time>
</trkpt>
<trkpt lat="57.499184" lon="9.901612">
<ele>18.351996</ele>
<time>2026-07-16T14:50:25.000Z</time>
</trkpt>
<trkpt lat="57.499186" lon="9.901642">
<ele>18.341725</ele>
<time>2026-07-16T14:50:26.000Z</time>
</trkpt>
<trkpt lat="57.499193" lon="9.901667">
<ele>18.332146</ele>
<time>2026-07-16T14:50:27.000Z</time>
</trkpt>
<trkpt lat="57.499203" lon="9.901686">
<ele>18.323109</ele>
<time>2026-07-16T14:50:28.000Z</time>
</trkpt>
<trkpt lat="57.499220" lon="9.901695">
<ele>18.311932</ele>
<time>2026-07-16T14:50:29.000Z</time>
</trkpt>
<trkpt lat="57.499245" lon="9.901693">
<ele>18.296108</ele>
<time>2026-07-16T14:50:30.000Z</time>
</trkpt>
<trkpt lat="57.499276" lon="9.901687">
<ele>18.276399</ele>
<time>2026-07-16T14:50:31.000Z</time>
</trkpt>
<trkpt lat="57.499308" lon="9.901680">
<ele>18.256024</ele>
<time>2026-07-16T14:50:32.000Z</time>
</trkpt>
<trkpt lat="57.499342" lon="9.901675">
<ele>18.234457</ele>
<time>2026-07-16T14:50:33.000Z</time>
</trkpt>
<trkpt lat="57.499378" lon="9.901671">
<ele>18.211651</ele>
<time>2026-07-16T14:50:34.000Z</time>
</trkpt>
<trkpt lat="57.499410" lon="9.901669">
<ele>18.191404</ele>
<time>2026-07-16T14:50:35.000Z</time>
</trkpt>
<trkpt lat="57.499444" lon="9.901669">
<ele>18.169903</ele>
<time>2026-07-16T14:50:36.000Z</time>
</trkpt>
<trkpt lat="57.499486" lon="9.901667">
<ele>18.143335</ele>
<time>2026-07-16T14:50:37.000Z</time>
</trkpt>
<trkpt lat="57.499529" lon="9.901665">
<ele>18.116135</ele>
<time>2026-07-16T14:50:38.000Z</time>
</trkpt>
<trkpt lat="57.499576" lon="9.901660">
<ele>18.086365</ele>
<time>2026-07-16T14:50:39.000Z</time>
</trkpt>
<trkpt lat="57.499615" lon="9.901654">
<ele>18.061619</ele>
<time>2026-07-16T14:50:40.000Z</time>
</trkpt>
<trkpt lat="57.499662" lon="9.901647">
<ele>18.031802</ele>
<time>2026-07-16T14:50:41.000Z</time>
</trkpt>
<trkpt lat="57.499716" lon="9.901638">
<ele>17.997518</ele>
<time>2026-07-16T14:50:42.000Z</time>
</trkpt>
<trkpt lat="57.499761" lon="9.901632">
<ele>17.968988</ele>
<time>2026-07-16T14:50:43.000Z</time>
</trkpt>
<trkpt lat="57.499811" lon="9.901624">
<ele>17.937253</ele>
<time>2026-07-16T14:50:44.000Z</time>
</trkpt>
<trkpt lat="57.499868" lon="9.901612">
<ele>17.900979</ele>
<time>2026-07-16T14:50:45.000Z</time>
</trkpt>
<trkpt lat="57.499923" lon="9.901605">
<ele>17.866299</ele>
<time>2026-07-16T14:50:46.000Z</time>
</trkpt>
<trkpt lat="57.499974" lon="9.901602">
<ele>17.837338</ele>
<time>2026-07-16T14:50:47.000Z</time>
</trkpt>
<trkpt lat="57.500031" lon="9.901603">
<ele>17.804985</ele>
<time>2026-07-16T14:50:48.000Z</time>
</trkpt>
<trkpt lat="57.500091" lon="9.901602">
<ele>17.770928</ele>
<time>2026-07-16T14:50:49.000Z</time>
</trkpt>
<trkpt lat="57.500149" lon="9.901594">
<ele>17.737918</ele>
<time>2026-07-16T14:50:50.000Z</time>
</trkpt>
<trkpt lat="57.500199" lon="9.901587">
<ele>17.709459</ele>
<time>2026-07-16T14:50:51.000Z</time>
</trkpt>
<trkpt lat="57.500254" lon="9.901581">
<ele>17.678189</ele>
<time>2026-07-16T14:50:52.000Z</time>
</trkpt>
<trkpt lat="57.500312" lon="9.901578">
<ele>17.645256</ele>
<time>2026-07-16T14:50:53.000Z</time>
</trkpt>
<trkpt lat="57.500360" lon="9.901572">
<ele>17.617951</ele>
<time>2026-07-16T14:50:54.000Z</time>
</trkpt>
<trkpt lat="57.500411" lon="9.901563">
<ele>17.588875</ele>
<time>2026-07-16T14:50:55.000Z</time>
</trkpt>
<trkpt lat="57.500461" lon="9.901556">
<ele>17.560415</ele>
<time>2026-07-16T14:50:56.000Z</time>
</trkpt>
<trkpt lat="57.500519" lon="9.901549">
<ele>17.527427</ele>
<time>2026-07-16T14:50:57.000Z</time>
</trkpt>
<trkpt lat="57.500583" lon="9.901545">
<ele>17.491081</ele>
<time>2026-07-16T14:50:58.000Z</time>
</trkpt>
<trkpt lat="57.500635" lon="9.901542">
<ele>17.461553</ele>
<time>2026-07-16T14:50:59.000Z</time>
</trkpt>
<trkpt lat="57.500691" lon="9.901538">
<ele>17.429745</ele>
<time>2026-07-16T14:51:00.000Z</time>
</trkpt>
<trkpt lat="57.500744" lon="9.901533">
<ele>17.399624</ele>
<time>2026-07-16T14:51:01.000Z</time>
</trkpt>
<trkpt lat="57.500801" lon="9.901526">
<ele>17.367202</ele>
<time>2026-07-16T14:51:02.000Z</time>
</trkpt>
<trkpt lat="57.500855" lon="9.901520">
<ele>17.336498</ele>
<time>2026-07-16T14:51:03.000Z</time>
</trkpt>
<trkpt lat="57.500909" lon="9.901514">
<ele>17.305794</ele>
<time>2026-07-16T14:51:04.000Z</time>
</trkpt>
<trkpt lat="57.500964" lon="9.901508">
<ele>17.274524</ele>
<time>2026-07-16T14:51:05.000Z</time>
</trkpt>
<trkpt lat="57.501022" lon="9.901501">
<ele>17.241535</ele>
<time>2026-07-16T14:51:06.000Z</time>
</trkpt>
<trkpt lat="57.501079" lon="9.901491">
<ele>17.209039</ele>
<time>2026-07-16T14:51:07.000Z</time>
</trkpt>
<trkpt lat="57.501136" lon="9.901482">
<ele>17.176571</ele>
<time>2026-07-16T14:51:08.000Z</time>
</trkpt>
<trkpt lat="57.501200" lon="9.901473">
<ele>17.140142</ele>
<time>2026-07-16T14:51:09.000Z</time>
</trkpt>
<trkpt lat="57.501262" lon="9.901463">
<ele>17.104820</ele>
<time>2026-07-16T14:51:10.000Z</time>
</trkpt>
<trkpt lat="57.501323" lon="9.901456">
<ele>17.070132</ele>
<time>2026-07-16T14:51:11.000Z</time>
</trkpt>
<trkpt lat="57.501384" lon="9.901450">
<ele>17.035462</ele>
<time>2026-07-16T14:51:12.000Z</time>
</trkpt>
<trkpt lat="57.501447" lon="9.901441">
<ele>16.999599</ele>
<time>2026-07-16T14:51:13.000Z</time>
</trkpt>
<trkpt lat="57.501512" lon="9.901439">
<ele>16.962701</ele>
<time>2026-07-16T14:51:14.000Z</time>
</trkpt>
<trkpt lat="57.501574" lon="9.901437">
<ele>16.927506</ele>
<time>2026-07-16T14:51:15.000Z</time>
</trkpt>
<trkpt lat="57.501635" lon="9.901433">
<ele>16.892862</ele>
<time>2026-07-16T14:51:16.000Z</time>
</trkpt>
<trkpt lat="57.501696" lon="9.901426">
<ele>16.858174</ele>
<time>2026-07-16T14:51:17.000Z</time>
</trkpt>
<trkpt lat="57.501755" lon="9.901419">
<ele>16.835806</ele>
<time>2026-07-16T14:51:18.000Z</time>
</trkpt>
<trkpt lat="57.501811" lon="9.901411">
<ele>16.819847</ele>
<time>2026-07-16T14:51:19.000Z</time>
</trkpt>
<trkpt lat="57.501869" lon="9.901403">
<ele>16.803323</ele>
<time>2026-07-16T14:51:20.000Z</time>
</trkpt>
<trkpt lat="57.501926" lon="9.901397">
<ele>16.787101</ele>
<time>2026-07-16T14:51:21.000Z</time>
</trkpt>
<trkpt lat="57.501989" lon="9.901386">
<ele>16.769122</ele>
<time>2026-07-16T14:51:22.000Z</time>
</trkpt>
<trkpt lat="57.502057" lon="9.901376">
<ele>16.749741</ele>
<time>2026-07-16T14:51:23.000Z</time>
</trkpt>
<trkpt lat="57.502122" lon="9.901367">
<ele>16.731221</ele>
<time>2026-07-16T14:51:24.000Z</time>
</trkpt>
<trkpt lat="57.502187" lon="9.901361">
<ele>16.712730</ele>
<time>2026-07-16T14:51:25.000Z</time>
</trkpt>
<trkpt lat="57.502252" lon="9.901355">
<ele>16.694239</ele>
<time>2026-07-16T14:51:26.000Z</time>
</trkpt>
<trkpt lat="57.502311" lon="9.901351">
<ele>16.677464</ele>
<time>2026-07-16T14:51:27.000Z</time>
</trkpt>
<trkpt lat="57.502371" lon="9.901347">
<ele>16.660405</ele>
<time>2026-07-16T14:51:28.000Z</time>
</trkpt>
<trkpt lat="57.502427" lon="9.901338">
<ele>16.644434</ele>
<time>2026-07-16T14:51:29.000Z</time>
</trkpt>
<trkpt lat="57.502483" lon="9.901334">
<ele>16.628511</ele>
<time>2026-07-16T14:51:30.000Z</time>
</trkpt>
<trkpt lat="57.502537" lon="9.901330">
<ele>16.613156</ele>
<time>2026-07-16T14:51:31.000Z</time>
</trkpt>
<trkpt lat="57.502590" lon="9.901323">
<ele>16.598059</ele>
<time>2026-07-16T14:51:32.000Z</time>
</trkpt>
<trkpt lat="57.502650" lon="9.901314">
<ele>16.580956</ele>
<time>2026-07-16T14:51:33.000Z</time>
</trkpt>
<trkpt lat="57.502711" lon="9.901308">
<ele>16.563600</ele>
<time>2026-07-16T14:51:34.000Z</time>
</trkpt>
<trkpt lat="57.502769" lon="9.901301">
<ele>16.547085</ele>
<time>2026-07-16T14:51:35.000Z</time>
</trkpt>
<trkpt lat="57.502824" lon="9.901290">
<ele>16.531368</ele>
<time>2026-07-16T14:51:36.000Z</time>
</trkpt>
<trkpt lat="57.502883" lon="9.901274">
<ele>16.514427</ele>
<time>2026-07-16T14:51:37.000Z</time>
</trkpt>
<trkpt lat="57.502946" lon="9.901262">
<ele>16.496433</ele>
<time>2026-07-16T14:51:38.000Z</time>
</trkpt>
<trkpt lat="57.503011" lon="9.901250">
<ele>16.477874</ele>
<time>2026-07-16T14:51:39.000Z</time>
</trkpt>
<trkpt lat="57.503079" lon="9.901237">
<ele>16.458452</ele>
<time>2026-07-16T14:51:40.000Z</time>
</trkpt>
<trkpt lat="57.503151" lon="9.901221">
<ele>16.437849</ele>
<time>2026-07-16T14:51:41.000Z</time>
</trkpt>
<trkpt lat="57.503216" lon="9.901216">
<ele>16.419364</ele>
<time>2026-07-16T14:51:42.000Z</time>
</trkpt>
<trkpt lat="57.503293" lon="9.901228">
<ele>16.397410</ele>
<time>2026-07-16T14:51:43.000Z</time>
</trkpt>
<trkpt lat="57.503371" lon="9.901234">
<ele>16.375228</ele>
<time>2026-07-16T14:51:44.000Z</time>
</trkpt>
<trkpt lat="57.503450" lon="9.901234">
<ele>16.352782</ele>
<time>2026-07-16T14:51:45.000Z</time>
</trkpt>
<trkpt lat="57.503530" lon="9.901229">
<ele>16.336871</ele>
<time>2026-07-16T14:51:46.000Z</time>
</trkpt>
<trkpt lat="57.503610" lon="9.901226">
<ele>16.340338</ele>
<time>2026-07-16T14:51:47.000Z</time>
</trkpt>
<trkpt lat="57.503685" lon="9.901222">
<ele>16.343589</ele>
<time>2026-07-16T14:51:48.000Z</time>
</trkpt>
<trkpt lat="57.503757" lon="9.901218">
<ele>16.346710</ele>
<time>2026-07-16T14:51:49.000Z</time>
</trkpt>
<trkpt lat="57.503832" lon="9.901210">
<ele>16.349964</ele>
<time>2026-07-16T14:51:50.000Z</time>
</trkpt>
<trkpt lat="57.503906" lon="9.901202">
<ele>16.353176</ele>
<time>2026-07-16T14:51:51.000Z</time>
</trkpt>
<trkpt lat="57.503973" lon="9.901196">
<ele>16.356082</ele>
<time>2026-07-16T14:51:52.000Z</time>
</trkpt>
<trkpt lat="57.504041" lon="9.901190">
<ele>16.359032</ele>
<time>2026-07-16T14:51:53.000Z</time>
</trkpt>
<trkpt lat="57.504109" lon="9.901182">
<ele>16.361984</ele>
<time>2026-07-16T14:51:54.000Z</time>
</trkpt>
<trkpt lat="57.504177" lon="9.901176">
<ele>16.364933</ele>
<time>2026-07-16T14:51:55.000Z</time>
</trkpt>
<trkpt lat="57.504247" lon="9.901171">
<ele>16.367968</ele>
<time>2026-07-16T14:51:56.000Z</time>
</trkpt>
<trkpt lat="57.504315" lon="9.901163">
<ele>16.370920</ele>
<time>2026-07-16T14:51:57.000Z</time>
</trkpt>
<trkpt lat="57.504387" lon="9.901156">
<ele>16.374044</ele>
<time>2026-07-16T14:51:58.000Z</time>
</trkpt>
<trkpt lat="57.504459" lon="9.901145">
<ele>16.377174</ele>
<time>2026-07-16T14:51:59.000Z</time>
</trkpt>
<trkpt lat="57.504518" lon="9.901137">
<ele>16.379737</ele>
<time>2026-07-16T14:52:00.000Z</time>
</trkpt>
<trkpt lat="57.504591" lon="9.901129">
<ele>16.382905</ele>
<time>2026-07-16T14:52:01.000Z</time>
</trkpt>
<trkpt lat="57.504666" lon="9.901122">
<ele>16.386159</ele>
<time>2026-07-16T14:52:02.000Z</time>
</trkpt>
<trkpt lat="57.504732" lon="9.901117">
<ele>16.389021</ele>
<time>2026-07-16T14:52:03.000Z</time>
</trkpt>
<trkpt lat="57.504794" lon="9.901106">
<ele>16.391719</ele>
<time>2026-07-16T14:52:04.000Z</time>
</trkpt>
<trkpt lat="57.504861" lon="9.901096">
<ele>16.394631</ele>
<time>2026-07-16T14:52:05.000Z</time>
</trkpt>
<trkpt lat="57.504926" lon="9.901089">
<ele>16.397452</ele>
<time>2026-07-16T14:52:06.000Z</time>
</trkpt>
<trkpt lat="57.504991" lon="9.901082">
<ele>16.400273</ele>
<time>2026-07-16T14:52:07.000Z</time>
</trkpt>
<trkpt lat="57.505059" lon="9.901074">
<ele>16.403225</ele>
<time>2026-07-16T14:52:08.000Z</time>
</trkpt>
<trkpt lat="57.505125" lon="9.901065">
<ele>16.406092</ele>
<time>2026-07-16T14:52:09.000Z</time>
</trkpt>
<trkpt lat="57.505187" lon="9.901056">
<ele>16.408787</ele>
<time>2026-07-16T14:52:10.000Z</time>
</trkpt>
<trkpt lat="57.505248" lon="9.901047">
<ele>16.411438</ele>
<time>2026-07-16T14:52:11.000Z</time>
</trkpt>
<trkpt lat="57.505311" lon="9.901039">
<ele>16.405448</ele>
<time>2026-07-16T14:52:12.000Z</time>
</trkpt>
<trkpt lat="57.505373" lon="9.901031">
<ele>16.323743</ele>
<time>2026-07-16T14:52:13.000Z</time>
</trkpt>
<trkpt lat="57.505440" lon="9.901025">
<ele>16.235558</ele>
<time>2026-07-16T14:52:14.000Z</time>
</trkpt>
<trkpt lat="57.505503" lon="9.901016">
<ele>16.152490</ele>
<time>2026-07-16T14:52:15.000Z</time>
</trkpt>
<trkpt lat="57.505570" lon="9.901007">
<ele>16.064178</ele>
<time>2026-07-16T14:52:16.000Z</time>
</trkpt>
<trkpt lat="57.505636" lon="9.900995">
<ele>15.976996</ele>
<time>2026-07-16T14:52:17.000Z</time>
</trkpt>
<trkpt lat="57.505697" lon="9.900980">
<ele>15.896105</ele>
<time>2026-07-16T14:52:18.000Z</time>
</trkpt>
<trkpt lat="57.505753" lon="9.900966">
<ele>15.821822</ele>
<time>2026-07-16T14:52:19.000Z</time>
</trkpt>
<trkpt lat="57.505807" lon="9.900951">
<ele>15.750044</ele>
<time>2026-07-16T14:52:20.000Z</time>
</trkpt>
<trkpt lat="57.505855" lon="9.900938">
<ele>15.686275</ele>
<time>2026-07-16T14:52:21.000Z</time>
</trkpt>
<trkpt lat="57.505900" lon="9.900924">
<ele>15.626294</ele>
<time>2026-07-16T14:52:22.000Z</time>
</trkpt>
<trkpt lat="57.505955" lon="9.900898">
<ele>15.551692</ele>
<time>2026-07-16T14:52:23.000Z</time>
</trkpt>
<trkpt lat="57.506015" lon="9.900869">
<ele>15.470196</ele>
<time>2026-07-16T14:52:24.000Z</time>
</trkpt>
<trkpt lat="57.506087" lon="9.900844">
<ele>15.373907</ele>
<time>2026-07-16T14:52:25.000Z</time>
</trkpt>
<trkpt lat="57.506160" lon="9.900818">
<ele>15.276195</ele>
<time>2026-07-16T14:52:26.000Z</time>
</trkpt>
<trkpt lat="57.506235" lon="9.900791">
<ele>15.175767</ele>
<time>2026-07-16T14:52:27.000Z</time>
</trkpt>
<trkpt lat="57.506312" lon="9.900765">
<ele>15.072885</ele>
<time>2026-07-16T14:52:28.000Z</time>
</trkpt>
<trkpt lat="57.506394" lon="9.900743">
<ele>14.963968</ele>
<time>2026-07-16T14:52:29.000Z</time>
</trkpt>
<trkpt lat="57.506477" lon="9.900720">
<ele>14.853648</ele>
<time>2026-07-16T14:52:30.000Z</time>
</trkpt>
<trkpt lat="57.506559" lon="9.900698">
<ele>14.744731</ele>
<time>2026-07-16T14:52:31.000Z</time>
</trkpt>
<trkpt lat="57.506638" lon="9.900677">
<ele>14.639818</ele>
<time>2026-07-16T14:52:32.000Z</time>
</trkpt>
<trkpt lat="57.506719" lon="9.900653">
<ele>14.531989</ele>
<time>2026-07-16T14:52:33.000Z</time>
</trkpt>
<trkpt lat="57.506802" lon="9.900628">
<ele>14.421452</ele>
<time>2026-07-16T14:52:34.000Z</time>
</trkpt>
<trkpt lat="57.506880" lon="9.900603">
<ele>14.317399</ele>
<time>2026-07-16T14:52:35.000Z</time>
</trkpt>
<trkpt lat="57.506962" lon="9.900580">
<ele>14.208379</ele>
<time>2026-07-16T14:52:36.000Z</time>
</trkpt>
<trkpt lat="57.507043" lon="9.900556">
<ele>14.100550</ele>
<time>2026-07-16T14:52:37.000Z</time>
</trkpt>
<trkpt lat="57.507120" lon="9.900533">
<ele>14.087792</ele>
<time>2026-07-16T14:52:38.000Z</time>
</trkpt>
<trkpt lat="57.507200" lon="9.900510">
<ele>14.167796</ele>
<time>2026-07-16T14:52:39.000Z</time>
</trkpt>
<trkpt lat="57.507280" lon="9.900485">
<ele>14.247969</ele>
<time>2026-07-16T14:52:40.000Z</time>
</trkpt>
<trkpt lat="57.507357" lon="9.900460">
<ele>14.325219</ele>
<time>2026-07-16T14:52:41.000Z</time>
</trkpt>
<trkpt lat="57.507431" lon="9.900436">
<ele>14.399458</ele>
<time>2026-07-16T14:52:42.000Z</time>
</trkpt>
<trkpt lat="57.507500" lon="9.900413">
<ele>14.468737</ele>
<time>2026-07-16T14:52:43.000Z</time>
</trkpt>
<trkpt lat="57.507566" lon="9.900391">
<ele>14.535005</ele>
<time>2026-07-16T14:52:44.000Z</time>
</trkpt>
<trkpt lat="57.507631" lon="9.900370">
<ele>14.600207</ele>
<time>2026-07-16T14:52:45.000Z</time>
</trkpt>
<trkpt lat="57.507696" lon="9.900350">
<ele>14.665320</ele>
<time>2026-07-16T14:52:46.000Z</time>
</trkpt>
<trkpt lat="57.507758" lon="9.900333">
<ele>14.727258</ele>
<time>2026-07-16T14:52:47.000Z</time>
</trkpt>
<trkpt lat="57.507816" lon="9.900319">
<ele>14.785061</ele>
<time>2026-07-16T14:52:48.000Z</time>
</trkpt>
<trkpt lat="57.507873" lon="9.900303">
<ele>14.842033</ele>
<time>2026-07-16T14:52:49.000Z</time>
</trkpt>
<trkpt lat="57.507919" lon="9.900285">
<ele>14.888490</ele>
<time>2026-07-16T14:52:50.000Z</time>
</trkpt>
<trkpt lat="57.507958" lon="9.900264">
<ele>14.928615</ele>
<time>2026-07-16T14:52:51.000Z</time>
</trkpt>
<trkpt lat="57.507997" lon="9.900238">
<ele>14.969557</ele>
<time>2026-07-16T14:52:52.000Z</time>
</trkpt>
<trkpt lat="57.508041" lon="9.900201">
<ele>15.017275</ele>
<time>2026-07-16T14:52:53.000Z</time>
</trkpt>
<trkpt lat="57.508092" lon="9.900155">
<ele>15.073284</ele>
<time>2026-07-16T14:52:54.000Z</time>
</trkpt>
<trkpt lat="57.508154" lon="9.900099">
<ele>15.141393</ele>
<time>2026-07-16T14:52:55.000Z</time>
</trkpt>
<trkpt lat="57.508218" lon="9.900040">
<ele>15.211977</ele>
<time>2026-07-16T14:52:56.000Z</time>
</trkpt>
<trkpt lat="57.508283" lon="9.899977">
<ele>15.284405</ele>
<time>2026-07-16T14:52:57.000Z</time>
</trkpt>
<trkpt lat="57.508348" lon="9.899912">
<ele>15.357328</ele>
<time>2026-07-16T14:52:58.000Z</time>
</trkpt>
<trkpt lat="57.508416" lon="9.899846">
<ele>15.433121</ele>
<time>2026-07-16T14:52:59.000Z</time>
</trkpt>
<trkpt lat="57.508482" lon="9.899782">
<ele>15.506670</ele>
<time>2026-07-16T14:53:00.000Z</time>
</trkpt>
<trkpt lat="57.508547" lon="9.899719">
<ele>15.579097</ele>
<time>2026-07-16T14:53:01.000Z</time>
</trkpt>
<trkpt lat="57.508607" lon="9.899662">
<ele>15.645672</ele>
<time>2026-07-16T14:53:02.000Z</time>
</trkpt>
<trkpt lat="57.508669" lon="9.899601">
<ele>15.714981</ele>
<time>2026-07-16T14:53:03.000Z</time>
</trkpt>
<trkpt lat="57.508728" lon="9.899540">
<ele>15.781682</ele>
<time>2026-07-16T14:53:04.000Z</time>
</trkpt>
<trkpt lat="57.508785" lon="9.899480">
<ele>15.831638</ele>
<time>2026-07-16T14:53:05.000Z</time>
</trkpt>
<trkpt lat="57.508842" lon="9.899420">
<ele>15.847296</ele>
<time>2026-07-16T14:53:06.000Z</time>
</trkpt>
<trkpt lat="57.508899" lon="9.899362">
<ele>15.862829</ele>
<time>2026-07-16T14:53:07.000Z</time>
</trkpt>
<trkpt lat="57.508960" lon="9.899301">
<ele>15.879387</ele>
<time>2026-07-16T14:53:08.000Z</time>
</trkpt>
<trkpt lat="57.509018" lon="9.899240">
<ele>15.895316</ele>
<time>2026-07-16T14:53:09.000Z</time>
</trkpt>
<trkpt lat="57.509078" lon="9.899178">
<ele>15.911726</ele>
<time>2026-07-16T14:53:10.000Z</time>
</trkpt>
<trkpt lat="57.509139" lon="9.899115">
<ele>15.928407</ele>
<time>2026-07-16T14:53:11.000Z</time>
</trkpt>
<trkpt lat="57.509203" lon="9.899053">
<ele>15.945659</ele>
<time>2026-07-16T14:53:12.000Z</time>
</trkpt>
<trkpt lat="57.509267" lon="9.898991">
<ele>15.962911</ele>
<time>2026-07-16T14:53:13.000Z</time>
</trkpt>
<trkpt lat="57.509332" lon="9.898928">
<ele>15.980434</ele>
<time>2026-07-16T14:53:14.000Z</time>
</trkpt>
<trkpt lat="57.509400" lon="9.898869">
<ele>15.998374</ele>
<time>2026-07-16T14:53:15.000Z</time>
</trkpt>
<trkpt lat="57.509462" lon="9.898812">
<ele>16.014909</ele>
<time>2026-07-16T14:53:16.000Z</time>
</trkpt>
<trkpt lat="57.509524" lon="9.898753">
<ele>16.031559</ele>
<time>2026-07-16T14:53:17.000Z</time>
</trkpt>
<trkpt lat="57.509588" lon="9.898695">
<ele>16.048580</ele>
<time>2026-07-16T14:53:18.000Z</time>
</trkpt>
<trkpt lat="57.509650" lon="9.898639">
<ele>16.065058</ele>
<time>2026-07-16T14:53:19.000Z</time>
</trkpt>
<trkpt lat="57.509714" lon="9.898579">
<ele>16.082193</ele>
<time>2026-07-16T14:53:20.000Z</time>
</trkpt>
<trkpt lat="57.509779" lon="9.898521">
<ele>16.099429</ele>
<time>2026-07-16T14:53:21.000Z</time>
</trkpt>
<trkpt lat="57.509840" lon="9.898462">
<ele>16.115867</ele>
<time>2026-07-16T14:53:22.000Z</time>
</trkpt>
<trkpt lat="57.509901" lon="9.898402">
<ele>16.132364</ele>
<time>2026-07-16T14:53:23.000Z</time>
</trkpt>
<trkpt lat="57.509963" lon="9.898341">
<ele>16.149133</ele>
<time>2026-07-16T14:53:24.000Z</time>
</trkpt>
<trkpt lat="57.510027" lon="9.898281">
<ele>16.166268</ele>
<time>2026-07-16T14:53:25.000Z</time>
</trkpt>
<trkpt lat="57.510089" lon="9.898221">
<ele>16.182977</ele>
<time>2026-07-16T14:53:26.000Z</time>
</trkpt>
<trkpt lat="57.510153" lon="9.898161">
<ele>16.200111</ele>
<time>2026-07-16T14:53:27.000Z</time>
</trkpt>
<trkpt lat="57.510217" lon="9.898102">
<ele>16.217189</ele>
<time>2026-07-16T14:53:28.000Z</time>
</trkpt>
<trkpt lat="57.510282" lon="9.898041">
<ele>16.234595</ele>
<time>2026-07-16T14:53:29.000Z</time>
</trkpt>
<trkpt lat="57.510347" lon="9.897979">
<ele>16.252059</ele>
<time>2026-07-16T14:53:30.000Z</time>
</trkpt>
<trkpt lat="57.510411" lon="9.897917">
<ele>16.218295</ele>
<time>2026-07-16T14:53:31.000Z</time>
</trkpt>
<trkpt lat="57.510477" lon="9.897854">
<ele>16.162395</ele>
<time>2026-07-16T14:53:32.000Z</time>
</trkpt>
<trkpt lat="57.510542" lon="9.897788">
<ele>16.106594</ele>
<time>2026-07-16T14:53:33.000Z</time>
</trkpt>
<trkpt lat="57.510604" lon="9.897722">
<ele>16.052766</ele>
<time>2026-07-16T14:53:34.000Z</time>
</trkpt>
<trkpt lat="57.510667" lon="9.897658">
<ele>15.998676</ele>
<time>2026-07-16T14:53:35.000Z</time>
</trkpt>
<trkpt lat="57.510732" lon="9.897593">
<ele>15.943067</ele>
<time>2026-07-16T14:53:36.000Z</time>
</trkpt>
<trkpt lat="57.510797" lon="9.897528">
<ele>15.887458</ele>
<time>2026-07-16T14:53:37.000Z</time>
</trkpt>
<trkpt lat="57.510862" lon="9.897460">
<ele>15.831265</ele>
<time>2026-07-16T14:53:38.000Z</time>
</trkpt>
<trkpt lat="57.510926" lon="9.897394">
<ele>15.776124</ele>
<time>2026-07-16T14:53:39.000Z</time>
</trkpt>
<trkpt lat="57.510989" lon="9.897328">
<ele>15.721641</ele>
<time>2026-07-16T14:53:40.000Z</time>
</trkpt>
<trkpt lat="57.511053" lon="9.897263">
<ele>15.666695</ele>
<time>2026-07-16T14:53:41.000Z</time>
</trkpt>
<trkpt lat="57.511115" lon="9.897200">
<ele>15.613460</ele>
<time>2026-07-16T14:53:42.000Z</time>
</trkpt>
<trkpt lat="57.511181" lon="9.897135">
<ele>15.557187</ele>
<time>2026-07-16T14:53:43.000Z</time>
</trkpt>
<trkpt lat="57.511247" lon="9.897071">
<ele>15.501101</ele>
<time>2026-07-16T14:53:44.000Z</time>
</trkpt>
<trkpt lat="57.511315" lon="9.897007">
<ele>15.443675</ele>
<time>2026-07-16T14:53:45.000Z</time>
</trkpt>
<trkpt lat="57.511380" lon="9.896944">
<ele>15.388445</ele>
<time>2026-07-16T14:53:46.000Z</time>
</trkpt>
<trkpt lat="57.511445" lon="9.896880">
<ele>15.333027</ele>
<time>2026-07-16T14:53:47.000Z</time>
</trkpt>
<trkpt lat="57.511510" lon="9.896814">
<ele>15.277225</ele>
<time>2026-07-16T14:53:48.000Z</time>
</trkpt>
<trkpt lat="57.511575" lon="9.896751">
<ele>15.221996</ele>
<time>2026-07-16T14:53:49.000Z</time>
</trkpt>
<trkpt lat="57.511640" lon="9.896686">
<ele>15.166387</ele>
<time>2026-07-16T14:53:50.000Z</time>
</trkpt>
<trkpt lat="57.511705" lon="9.896622">
<ele>15.110969</ele>
<time>2026-07-16T14:53:51.000Z</time>
</trkpt>
<trkpt lat="57.511767" lon="9.896562">
<ele>15.058306</ele>
<time>2026-07-16T14:53:52.000Z</time>
</trkpt>
<trkpt lat="57.511836" lon="9.896497">
<ele>15.000024</ele>
<time>2026-07-16T14:53:53.000Z</time>
</trkpt>
<trkpt lat="57.511903" lon="9.896431">
<ele>14.942895</ele>
<time>2026-07-16T14:53:54.000Z</time>
</trkpt>
<trkpt lat="57.511971" lon="9.896366">
<ele>14.876252</ele>
<time>2026-07-16T14:53:55.000Z</time>
</trkpt>
<trkpt lat="57.512037" lon="9.896302">
<ele>14.788794</ele>
<time>2026-07-16T14:53:56.000Z</time>
</trkpt>
<trkpt lat="57.512101" lon="9.896238">
<ele>14.703414</ele>
<time>2026-07-16T14:53:57.000Z</time>
</trkpt>
<trkpt lat="57.512166" lon="9.896172">
<ele>14.616399</ele>
<time>2026-07-16T14:53:58.000Z</time>
</trkpt>
<trkpt lat="57.512229" lon="9.896107">
<ele>14.531748</ele>
<time>2026-07-16T14:53:59.000Z</time>
</trkpt>
<trkpt lat="57.512292" lon="9.896047">
<ele>14.448581</ele>
<time>2026-07-16T14:54:00.000Z</time>
</trkpt>
<trkpt lat="57.512354" lon="9.895991">
<ele>14.367592</ele>
<time>2026-07-16T14:54:01.000Z</time>
</trkpt>
<trkpt lat="57.512416" lon="9.895931">
<ele>14.285469</ele>
<time>2026-07-16T14:54:02.000Z</time>
</trkpt>
<trkpt lat="57.512477" lon="9.895871">
<ele>14.204388</ele>
<time>2026-07-16T14:54:03.000Z</time>
</trkpt>
<trkpt lat="57.512540" lon="9.895811">
<ele>14.121221</ele>
<time>2026-07-16T14:54:04.000Z</time>
</trkpt>
<trkpt lat="57.512602" lon="9.895754">
<ele>14.039955</ele>
<time>2026-07-16T14:54:05.000Z</time>
</trkpt>
<trkpt lat="57.512666" lon="9.895701">
<ele>13.957633</ele>
<time>2026-07-16T14:54:06.000Z</time>
</trkpt>
<trkpt lat="57.512728" lon="9.895650">
<ele>13.877971</ele>
<time>2026-07-16T14:54:07.000Z</time>
</trkpt>
<trkpt lat="57.512792" lon="9.895606">
<ele>13.797790</ele>
<time>2026-07-16T14:54:08.000Z</time>
</trkpt>
<trkpt lat="57.512860" lon="9.895568">
<ele>13.714350</ele>
<time>2026-07-16T14:54:09.000Z</time>
</trkpt>
<trkpt lat="57.512931" lon="9.895535">
<ele>13.628345</ele>
<time>2026-07-16T14:54:10.000Z</time>
</trkpt>
<trkpt lat="57.513003" lon="9.895509">
<ele>13.542149</ele>
<time>2026-07-16T14:54:11.000Z</time>
</trkpt>
<trkpt lat="57.513076" lon="9.895490">
<ele>13.455520</ele>
<time>2026-07-16T14:54:12.000Z</time>
</trkpt>
<trkpt lat="57.513149" lon="9.895478">
<ele>13.369392</ele>
<time>2026-07-16T14:54:13.000Z</time>
</trkpt>
<trkpt lat="57.513219" lon="9.895475">
<ele>13.287101</ele>
<time>2026-07-16T14:54:14.000Z</time>
</trkpt>
<trkpt lat="57.513290" lon="9.895476">
<ele>13.203655</ele>
<time>2026-07-16T14:54:15.000Z</time>
</trkpt>
<trkpt lat="57.513362" lon="9.895476">
<ele>13.119036</ele>
<time>2026-07-16T14:54:16.000Z</time>
</trkpt>
<trkpt lat="57.513435" lon="9.895476">
<ele>13.033241</ele>
<time>2026-07-16T14:54:17.000Z</time>
</trkpt>
<trkpt lat="57.513507" lon="9.895476">
<ele>12.948622</ele>
<time>2026-07-16T14:54:18.000Z</time>
</trkpt>
<trkpt lat="57.513579" lon="9.895475">
<ele>12.864000</ele>
<time>2026-07-16T14:54:19.000Z</time>
</trkpt>
<trkpt lat="57.513652" lon="9.895476">
<ele>12.778366</ele>
<time>2026-07-16T14:54:20.000Z</time>
</trkpt>
<trkpt lat="57.513721" lon="9.895476">
<ele>12.698686</ele>
<time>2026-07-16T14:54:21.000Z</time>
</trkpt>
<trkpt lat="57.513793" lon="9.895474">
<ele>12.615531</ele>
<time>2026-07-16T14:54:22.000Z</time>
</trkpt>
<trkpt lat="57.513866" lon="9.895471">
<ele>12.531211</ele>
<time>2026-07-16T14:54:23.000Z</time>
</trkpt>
<trkpt lat="57.513938" lon="9.895469">
<ele>12.448056</ele>
<time>2026-07-16T14:54:24.000Z</time>
</trkpt>
<trkpt lat="57.514014" lon="9.895466">
<ele>12.360272</ele>
<time>2026-07-16T14:54:25.000Z</time>
</trkpt>
<trkpt lat="57.514090" lon="9.895458">
<ele>12.272368</ele>
<time>2026-07-16T14:54:26.000Z</time>
</trkpt>
<trkpt lat="57.514167" lon="9.895446">
<ele>12.183137</ele>
<time>2026-07-16T14:54:27.000Z</time>
</trkpt>
<trkpt lat="57.514240" lon="9.895431">
<ele>12.098326</ele>
<time>2026-07-16T14:54:28.000Z</time>
</trkpt>
<trkpt lat="57.514315" lon="9.895409">
<ele>12.010648</ele>
<time>2026-07-16T14:54:29.000Z</time>
</trkpt>
<trkpt lat="57.514386" lon="9.895376">
<ele>11.926141</ele>
<time>2026-07-16T14:54:30.000Z</time>
</trkpt>
<trkpt lat="57.514457" lon="9.895334">
<ele>11.840112</ele>
<time>2026-07-16T14:54:31.000Z</time>
</trkpt>
<trkpt lat="57.514529" lon="9.895287">
<ele>11.752005</ele>
<time>2026-07-16T14:54:32.000Z</time>
</trkpt>
<trkpt lat="57.514599" lon="9.895235">
<ele>11.664973</ele>
<time>2026-07-16T14:54:33.000Z</time>
</trkpt>
<trkpt lat="57.514668" lon="9.895181">
<ele>11.578540</ele>
<time>2026-07-16T14:54:34.000Z</time>
</trkpt>
<trkpt lat="57.514740" lon="9.895127">
<ele>11.488903</ele>
<time>2026-07-16T14:54:35.000Z</time>
</trkpt>
<trkpt lat="57.514804" lon="9.895075">
<ele>11.408265</ele>
<time>2026-07-16T14:54:36.000Z</time>
</trkpt>
<trkpt lat="57.514867" lon="9.895023">
<ele>11.328685</ele>
<time>2026-07-16T14:54:37.000Z</time>
</trkpt>
<trkpt lat="57.514927" lon="9.894972">
<ele>11.252519</ele>
<time>2026-07-16T14:54:38.000Z</time>
</trkpt>
<trkpt lat="57.514986" lon="9.894926">
<ele>11.178654</ele>
<time>2026-07-16T14:54:39.000Z</time>
</trkpt>
<trkpt lat="57.515042" lon="9.894883">
<ele>11.108702</ele>
<time>2026-07-16T14:54:40.000Z</time>
</trkpt>
<trkpt lat="57.515095" lon="9.894841">
<ele>11.042185</ele>
<time>2026-07-16T14:54:41.000Z</time>
</trkpt>
<trkpt lat="57.515146" lon="9.894799">
<ele>10.977787</ele>
<time>2026-07-16T14:54:42.000Z</time>
</trkpt>
<trkpt lat="57.515193" lon="9.894754">
<ele>10.916756</ele>
<time>2026-07-16T14:54:43.000Z</time>
</trkpt>
<trkpt lat="57.515239" lon="9.894713">
<ele>10.857863</ele>
<time>2026-07-16T14:54:44.000Z</time>
</trkpt>
<trkpt lat="57.515285" lon="9.894678">
<ele>10.800478</ele>
<time>2026-07-16T14:54:45.000Z</time>
</trkpt>
<trkpt lat="57.515331" lon="9.894656">
<ele>10.745633</ele>
<time>2026-07-16T14:54:46.000Z</time>
</trkpt>
<trkpt lat="57.515376" lon="9.894659">
<ele>10.671004</ele>
<time>2026-07-16T14:54:47.000Z</time>
</trkpt>
<trkpt lat="57.515419" lon="9.894698">
<ele>10.541583</ele>
<time>2026-07-16T14:54:48.000Z</time>
</trkpt>
<trkpt lat="57.515450" lon="9.894767">
<ele>10.410852</ele>
<time>2026-07-16T14:54:49.000Z</time>
</trkpt>
<trkpt lat="57.515474" lon="9.894857">
<ele>10.264827</ele>
<time>2026-07-16T14:54:50.000Z</time>
</trkpt>
<trkpt lat="57.515500" lon="9.894952">
<ele>10.109879</ele>
<time>2026-07-16T14:54:51.000Z</time>
</trkpt>
<trkpt lat="57.515535" lon="9.895044">
<ele>9.946039</ele>
<time>2026-07-16T14:54:52.000Z</time>
</trkpt>
<trkpt lat="57.515576" lon="9.895131">
<ele>9.777837</ele>
<time>2026-07-16T14:54:53.000Z</time>
</trkpt>
<trkpt lat="57.515626" lon="9.895212">
<ele>9.598506</ele>
<time>2026-07-16T14:54:54.000Z</time>
</trkpt>
<trkpt lat="57.515685" lon="9.895287">
<ele>9.405205</ele>
<time>2026-07-16T14:54:55.000Z</time>
</trkpt>
<trkpt lat="57.515749" lon="9.895362">
<ele>9.200588</ele>
<time>2026-07-16T14:54:56.000Z</time>
</trkpt>
<trkpt lat="57.515812" lon="9.895435">
<ele>8.999807</ele>
<time>2026-07-16T14:54:57.000Z</time>
</trkpt>
<trkpt lat="57.515881" lon="9.895517">
<ele>8.778318</ele>
<time>2026-07-16T14:54:58.000Z</time>
</trkpt>
<trkpt lat="57.515950" lon="9.895607">
<ele>8.550363</ele>
<time>2026-07-16T14:54:59.000Z</time>
</trkpt>
<trkpt lat="57.516019" lon="9.895702">
<ele>8.318163</ele>
<time>2026-07-16T14:55:00.000Z</time>
</trkpt>
<trkpt lat="57.516087" lon="9.895804">
<ele>8.081888</ele>
<time>2026-07-16T14:55:01.000Z</time>
</trkpt>
<trkpt lat="57.516150" lon="9.895908">
<ele>7.854072</ele>
<time>2026-07-16T14:55:02.000Z</time>
</trkpt>
<trkpt lat="57.516217" lon="9.896024">
<ele>7.606519</ele>
<time>2026-07-16T14:55:03.000Z</time>
</trkpt>
<trkpt lat="57.516280" lon="9.896145">
<ele>7.361616</ele>
<time>2026-07-16T14:55:04.000Z</time>
</trkpt>
<trkpt lat="57.516338" lon="9.896273">
<ele>7.118247</ele>
<time>2026-07-16T14:55:05.000Z</time>
</trkpt>
<trkpt lat="57.516396" lon="9.896407">
<ele>6.868150</ele>
<time>2026-07-16T14:55:06.000Z</time>
</trkpt>
<trkpt lat="57.516447" lon="9.896543">
<ele>6.627106</ele>
<time>2026-07-16T14:55:07.000Z</time>
</trkpt>
<trkpt lat="57.516494" lon="9.896681">
<ele>6.389642</ele>
<time>2026-07-16T14:55:08.000Z</time>
</trkpt>
<trkpt lat="57.516537" lon="9.896818">
<ele>6.159050</ele>
<time>2026-07-16T14:55:09.000Z</time>
</trkpt>
<trkpt lat="57.516576" lon="9.896954">
<ele>5.935008</ele>
<time>2026-07-16T14:55:10.000Z</time>
</trkpt>
<trkpt lat="57.516611" lon="9.897089">
<ele>5.920932</ele>
<time>2026-07-16T14:55:11.000Z</time>
</trkpt>
<trkpt lat="57.516640" lon="9.897222">
<ele>6.048351</ele>
<time>2026-07-16T14:55:12.000Z</time>
</trkpt>
<trkpt lat="57.516667" lon="9.897353">
<ele>6.172905</ele>
<time>2026-07-16T14:55:13.000Z</time>
</trkpt>
<trkpt lat="57.516691" lon="9.897482">
<ele>6.294090</ele>
<time>2026-07-16T14:55:14.000Z</time>
</trkpt>
<trkpt lat="57.516714" lon="9.897611">
<ele>6.414744</ele>
<time>2026-07-16T14:55:15.000Z</time>
</trkpt>
<trkpt lat="57.516737" lon="9.897735">
<ele>6.531195</ele>
<time>2026-07-16T14:55:16.000Z</time>
</trkpt>
<trkpt lat="57.516757" lon="9.897858">
<ele>6.645272</ele>
<time>2026-07-16T14:55:17.000Z</time>
</trkpt>
<trkpt lat="57.516776" lon="9.897980">
<ele>6.758028</ele>
<time>2026-07-16T14:55:18.000Z</time>
</trkpt>
<trkpt lat="57.516789" lon="9.898104">
<ele>6.870176</ele>
<time>2026-07-16T14:55:19.000Z</time>
</trkpt>
<trkpt lat="57.516798" lon="9.898232">
<ele>6.984767</ele>
<time>2026-07-16T14:55:20.000Z</time>
</trkpt>
<trkpt lat="57.516800" lon="9.898359">
<ele>7.097548</ele>
<time>2026-07-16T14:55:21.000Z</time>
</trkpt>
<trkpt lat="57.516792" lon="9.898486">
<ele>7.211055</ele>
<time>2026-07-16T14:55:22.000Z</time>
</trkpt>
<trkpt lat="57.516780" lon="9.898609">
<ele>7.322024</ele>
<time>2026-07-16T14:55:23.000Z</time>
</trkpt>
<trkpt lat="57.516769" lon="9.898728">
<ele>7.429209</ele>
<time>2026-07-16T14:55:24.000Z</time>
</trkpt>
<trkpt lat="57.516757" lon="9.898838">
<ele>7.528846</ele>
<time>2026-07-16T14:55:25.000Z</time>
</trkpt>
<trkpt lat="57.516746" lon="9.898939">
<ele>7.620325</ele>
<time>2026-07-16T14:55:26.000Z</time>
</trkpt>
<trkpt lat="57.516732" lon="9.899039">
<ele>7.712058</ele>
<time>2026-07-16T14:55:27.000Z</time>
</trkpt>
<trkpt lat="57.516714" lon="9.899134">
<ele>7.801481</ele>
<time>2026-07-16T14:55:28.000Z</time>
</trkpt>
<trkpt lat="57.516697" lon="9.899231">
<ele>7.892053</ele>
<time>2026-07-16T14:55:29.000Z</time>
</trkpt>
<trkpt lat="57.516685" lon="9.899327">
<ele>7.979547</ele>
<time>2026-07-16T14:55:30.000Z</time>
</trkpt>
<trkpt lat="57.516671" lon="9.899424">
<ele>8.068706</ele>
<time>2026-07-16T14:55:31.000Z</time>
</trkpt>
<trkpt lat="57.516658" lon="9.899519">
<ele>8.155728</ele>
<time>2026-07-16T14:55:32.000Z</time>
</trkpt>
<trkpt lat="57.516647" lon="9.899613">
<ele>8.241127</ele>
<time>2026-07-16T14:55:33.000Z</time>
</trkpt>
<trkpt lat="57.516632" lon="9.899706">
<ele>8.327322</ele>
<time>2026-07-16T14:55:34.000Z</time>
</trkpt>
<trkpt lat="57.516620" lon="9.899799">
<ele>8.412225</ele>
<time>2026-07-16T14:55:35.000Z</time>
</trkpt>
<trkpt lat="57.516606" lon="9.899893">
<ele>8.498815</ele>
<time>2026-07-16T14:55:36.000Z</time>
</trkpt>
<trkpt lat="57.516590" lon="9.899986">
<ele>8.585500</ele>
<time>2026-07-16T14:55:37.000Z</time>
</trkpt>
<trkpt lat="57.516575" lon="9.900077">
<ele>8.669997</ele>
<time>2026-07-16T14:55:38.000Z</time>
</trkpt>
<trkpt lat="57.516563" lon="9.900169">
<ele>8.754037</ele>
<time>2026-07-16T14:55:39.000Z</time>
</trkpt>
<trkpt lat="57.516549" lon="9.900261">
<ele>8.823941</ele>
<time>2026-07-16T14:55:40.000Z</time>
</trkpt>
<trkpt lat="57.516536" lon="9.900354">
<ele>8.852163</ele>
<time>2026-07-16T14:55:41.000Z</time>
</trkpt>
<trkpt lat="57.516522" lon="9.900449">
<ele>8.881093</ele>
<time>2026-07-16T14:55:42.000Z</time>
</trkpt>
<trkpt lat="57.516509" lon="9.900543">
<ele>8.909599</ele>
<time>2026-07-16T14:55:43.000Z</time>
</trkpt>
<trkpt lat="57.516495" lon="9.900636">
<ele>8.937963</ele>
<time>2026-07-16T14:55:44.000Z</time>
</trkpt>
<trkpt lat="57.516483" lon="9.900731">
<ele>8.966623</ele>
<time>2026-07-16T14:55:45.000Z</time>
</trkpt>
<trkpt lat="57.516468" lon="9.900825">
<ele>8.995421</ele>
<time>2026-07-16T14:55:46.000Z</time>
</trkpt>
<trkpt lat="57.516453" lon="9.900919">
<ele>9.024219</ele>
<time>2026-07-16T14:55:47.000Z</time>
</trkpt>
<trkpt lat="57.516438" lon="9.901014">
<ele>9.053298</ele>
<time>2026-07-16T14:55:48.000Z</time>
</trkpt>
<trkpt lat="57.516423" lon="9.901111">
<ele>9.082942</ele>
<time>2026-07-16T14:55:49.000Z</time>
</trkpt>
<trkpt lat="57.516407" lon="9.901208">
<ele>9.112742</ele>
<time>2026-07-16T14:55:50.000Z</time>
</trkpt>
<trkpt lat="57.516392" lon="9.901304">
<ele>9.142103</ele>
<time>2026-07-16T14:55:51.000Z</time>
</trkpt>
<trkpt lat="57.516380" lon="9.901403">
<ele>9.171908</ele>
<time>2026-07-16T14:55:52.000Z</time>
</trkpt>
<trkpt lat="57.516365" lon="9.901504">
<ele>9.202682</ele>
<time>2026-07-16T14:55:53.000Z</time>
</trkpt>
<trkpt lat="57.516353" lon="9.901603">
<ele>9.232487</ele>
<time>2026-07-16T14:55:54.000Z</time>
</trkpt>
<trkpt lat="57.516336" lon="9.901700">
<ele>9.262452</ele>
<time>2026-07-16T14:55:55.000Z</time>
</trkpt>
<trkpt lat="57.516320" lon="9.901800">
<ele>9.293095</ele>
<time>2026-07-16T14:55:56.000Z</time>
</trkpt>
<trkpt lat="57.516304" lon="9.901901">
<ele>9.324019</ele>
<time>2026-07-16T14:55:57.000Z</time>
</trkpt>
<trkpt lat="57.516289" lon="9.902003">
<ele>9.355077</ele>
<time>2026-07-16T14:55:58.000Z</time>
</trkpt>
<trkpt lat="57.516276" lon="9.902108">
<ele>9.386721</ele>
<time>2026-07-16T14:55:59.000Z</time>
</trkpt>
<trkpt lat="57.516262" lon="9.902212">
<ele>9.418208</ele>
<time>2026-07-16T14:56:00.000Z</time>
</trkpt>
<trkpt lat="57.516244" lon="9.902318">
<ele>9.450857</ele>
<time>2026-07-16T14:56:01.000Z</time>
</trkpt>
<trkpt lat="57.516231" lon="9.902424">
<ele>9.482788</ele>
<time>2026-07-16T14:56:02.000Z</time>
</trkpt>
<trkpt lat="57.516222" lon="9.902532">
<ele>9.514884</ele>
<time>2026-07-16T14:56:03.000Z</time>
</trkpt>
<trkpt lat="57.516215" lon="9.902640">
<ele>9.546831</ele>
<time>2026-07-16T14:56:04.000Z</time>
</trkpt>
<trkpt lat="57.516218" lon="9.902749">
<ele>9.578883</ele>
<time>2026-07-16T14:56:05.000Z</time>
</trkpt>
<trkpt lat="57.516226" lon="9.902857">
<ele>9.610901</ele>
<time>2026-07-16T14:56:06.000Z</time>
</trkpt>
<trkpt lat="57.516242" lon="9.902962">
<ele>9.642954</ele>
<time>2026-07-16T14:56:07.000Z</time>
</trkpt>
<trkpt lat="57.516261" lon="9.903064">
<ele>9.674659</ele>
<time>2026-07-16T14:56:08.000Z</time>
</trkpt>
<trkpt lat="57.516288" lon="9.903160">
<ele>9.706484</ele>
<time>2026-07-16T14:56:09.000Z</time>
</trkpt>
<trkpt lat="57.516318" lon="9.903250">
<ele>9.737591</ele>
<time>2026-07-16T14:56:10.000Z</time>
</trkpt>
<trkpt lat="57.516354" lon="9.903342">
<ele>9.771020</ele>
<time>2026-07-16T14:56:11.000Z</time>
</trkpt>
<trkpt lat="57.516390" lon="9.903432">
<ele>9.803546</ele>
<time>2026-07-16T14:56:12.000Z</time>
</trkpt>
<trkpt lat="57.516422" lon="9.903527">
<ele>9.832852</ele>
<time>2026-07-16T14:56:13.000Z</time>
</trkpt>
<trkpt lat="57.516455" lon="9.903621">
<ele>9.862201</ele>
<time>2026-07-16T14:56:14.000Z</time>
</trkpt>
<trkpt lat="57.516489" lon="9.903715">
<ele>9.891819</ele>
<time>2026-07-16T14:56:15.000Z</time>
</trkpt>
<trkpt lat="57.516524" lon="9.903807">
<ele>9.921283</ele>
<time>2026-07-16T14:56:16.000Z</time>
</trkpt>
<trkpt lat="57.516558" lon="9.903896">
<ele>9.949826</ele>
<time>2026-07-16T14:56:17.000Z</time>
</trkpt>
<trkpt lat="57.516592" lon="9.903987">
<ele>9.978797</ele>
<time>2026-07-16T14:56:18.000Z</time>
</trkpt>
<trkpt lat="57.516627" lon="9.904079">
<ele>10.008261</ele>
<time>2026-07-16T14:56:19.000Z</time>
</trkpt>
<trkpt lat="57.516661" lon="9.904168">
<ele>10.036805</ele>
<time>2026-07-16T14:56:20.000Z</time>
</trkpt>
<trkpt lat="57.516694" lon="9.904258">
<ele>10.065284</ele>
<time>2026-07-16T14:56:21.000Z</time>
</trkpt>
<trkpt lat="57.516729" lon="9.904351">
<ele>10.094962</ele>
<time>2026-07-16T14:56:22.000Z</time>
</trkpt>
<trkpt lat="57.516764" lon="9.904442">
<ele>10.124213</ele>
<time>2026-07-16T14:56:23.000Z</time>
</trkpt>
<trkpt lat="57.516798" lon="9.904530">
<ele>10.152544</ele>
<time>2026-07-16T14:56:24.000Z</time>
</trkpt>
<trkpt lat="57.516833" lon="9.904617">
<ele>10.180952</ele>
<time>2026-07-16T14:56:25.000Z</time>
</trkpt>
<trkpt lat="57.516867" lon="9.904708">
<ele>10.209922</ele>
<time>2026-07-16T14:56:26.000Z</time>
</trkpt>
<trkpt lat="57.516898" lon="9.904806">
<ele>10.239646</ele>
<time>2026-07-16T14:56:27.000Z</time>
</trkpt>
<trkpt lat="57.516932" lon="9.904911">
<ele>10.271688</ele>
<time>2026-07-16T14:56:28.000Z</time>
</trkpt>
<trkpt lat="57.516966" lon="9.905018">
<ele>10.304179</ele>
<time>2026-07-16T14:56:29.000Z</time>
</trkpt>
<trkpt lat="57.517000" lon="9.905129">
<ele>10.337573</ele>
<time>2026-07-16T14:56:30.000Z</time>
</trkpt>
<trkpt lat="57.517029" lon="9.905245">
<ele>10.371012</ele>
<time>2026-07-16T14:56:31.000Z</time>
</trkpt>
<trkpt lat="57.517056" lon="9.905362">
<ele>10.404291</ele>
<time>2026-07-16T14:56:32.000Z</time>
</trkpt>
<trkpt lat="57.517082" lon="9.905477">
<ele>10.436900</ele>
<time>2026-07-16T14:56:33.000Z</time>
</trkpt>
<trkpt lat="57.517107" lon="9.905596">
<ele>10.470293</ele>
<time>2026-07-16T14:56:34.000Z</time>
</trkpt>
<trkpt lat="57.517130" lon="9.905714">
<ele>10.503099</ele>
<time>2026-07-16T14:56:35.000Z</time>
</trkpt>
<trkpt lat="57.517152" lon="9.905829">
<ele>10.535002</ele>
<time>2026-07-16T14:56:36.000Z</time>
</trkpt>
<trkpt lat="57.517175" lon="9.905942">
<ele>10.566583</ele>
<time>2026-07-16T14:56:37.000Z</time>
</trkpt>
<trkpt lat="57.517192" lon="9.906053">
<ele>10.596747</ele>
<time>2026-07-16T14:56:38.000Z</time>
</trkpt>
<trkpt lat="57.517213" lon="9.906159">
<ele>10.626273</ele>
<time>2026-07-16T14:56:39.000Z</time>
</trkpt>
<trkpt lat="57.517231" lon="9.906259">
<ele>10.653835</ele>
<time>2026-07-16T14:56:40.000Z</time>
</trkpt>
<trkpt lat="57.517246" lon="9.906354">
<ele>10.668763</ele>
<time>2026-07-16T14:56:41.000Z</time>
</trkpt>
<trkpt lat="57.517261" lon="9.906442">
<ele>10.632869</ele>
<time>2026-07-16T14:56:42.000Z</time>
</trkpt>
<trkpt lat="57.517274" lon="9.906528">
<ele>10.598135</ele>
<time>2026-07-16T14:56:43.000Z</time>
</trkpt>
<trkpt lat="57.517285" lon="9.906608">
<ele>10.566030</ele>
<time>2026-07-16T14:56:44.000Z</time>
</trkpt>
<trkpt lat="57.517299" lon="9.906688">
<ele>10.533319</ele>
<time>2026-07-16T14:56:45.000Z</time>
</trkpt>
<trkpt lat="57.517309" lon="9.906767">
<ele>10.501765</ele>
<time>2026-07-16T14:56:46.000Z</time>
</trkpt>
<trkpt lat="57.517317" lon="9.906844">
<ele>10.471274</ele>
<time>2026-07-16T14:56:47.000Z</time>
</trkpt>
<trkpt lat="57.517321" lon="9.906923">
<ele>10.440425</ele>
<time>2026-07-16T14:56:48.000Z</time>
</trkpt>
<trkpt lat="57.517328" lon="9.907004">
<ele>10.408529</ele>
<time>2026-07-16T14:56:49.000Z</time>
</trkpt>
<trkpt lat="57.517333" lon="9.907092">
<ele>10.374127</ele>
<time>2026-07-16T14:56:50.000Z</time>
</trkpt>
<trkpt lat="57.517339" lon="9.907178">
<ele>10.340411</ele>
<time>2026-07-16T14:56:51.000Z</time>
</trkpt>
<trkpt lat="57.517344" lon="9.907265">
<ele>10.306395</ele>
<time>2026-07-16T14:56:52.000Z</time>
</trkpt>
<trkpt lat="57.517348" lon="9.907352">
<ele>10.272448</ele>
<time>2026-07-16T14:56:53.000Z</time>
</trkpt>
<trkpt lat="57.517352" lon="9.907439">
<ele>10.238501</ele>
<time>2026-07-16T14:56:54.000Z</time>
</trkpt>
<trkpt lat="57.517353" lon="9.907528">
<ele>10.203893</ele>
<time>2026-07-16T14:56:55.000Z</time>
</trkpt>
<trkpt lat="57.517350" lon="9.907620">
<ele>10.168061</ele>
<time>2026-07-16T14:56:56.000Z</time>
</trkpt>
<trkpt lat="57.517349" lon="9.907718">
<ele>10.129954</ele>
<time>2026-07-16T14:56:57.000Z</time>
</trkpt>
<trkpt lat="57.517349" lon="9.907824">
<ele>10.088744</ele>
<time>2026-07-16T14:56:58.000Z</time>
</trkpt>
<trkpt lat="57.517347" lon="9.907937">
<ele>10.044789</ele>
<time>2026-07-16T14:56:59.000Z</time>
</trkpt>
<trkpt lat="57.517343" lon="9.908060">
<ele>9.996883</ele>
<time>2026-07-16T14:57:00.000Z</time>
</trkpt>
<trkpt lat="57.517336" lon="9.908186">
<ele>9.947636</ele>
<time>2026-07-16T14:57:01.000Z</time>
</trkpt>
<trkpt lat="57.517326" lon="9.908314">
<ele>9.897350</ele>
<time>2026-07-16T14:57:02.000Z</time>
</trkpt>
<trkpt lat="57.517314" lon="9.908447">
<ele>9.844919</ele>
<time>2026-07-16T14:57:03.000Z</time>
</trkpt>
<trkpt lat="57.517303" lon="9.908581">
<ele>9.792218</ele>
<time>2026-07-16T14:57:04.000Z</time>
</trkpt>
<trkpt lat="57.517286" lon="9.908712">
<ele>9.739823</ele>
<time>2026-07-16T14:57:05.000Z</time>
</trkpt>
<trkpt lat="57.517267" lon="9.908841">
<ele>9.687820</ele>
<time>2026-07-16T14:57:06.000Z</time>
</trkpt>
<trkpt lat="57.517242" lon="9.908970">
<ele>9.634503</ele>
<time>2026-07-16T14:57:07.000Z</time>
</trkpt>
<trkpt lat="57.517215" lon="9.909099">
<ele>9.580677</ele>
<time>2026-07-16T14:57:08.000Z</time>
</trkpt>
<trkpt lat="57.517186" lon="9.909223">
<ele>9.528097</ele>
<time>2026-07-16T14:57:09.000Z</time>
</trkpt>
<trkpt lat="57.517156" lon="9.909345">
<ele>9.475931</ele>
<time>2026-07-16T14:57:10.000Z</time>
</trkpt>
<trkpt lat="57.517122" lon="9.909462">
<ele>9.424212</ele>
<time>2026-07-16T14:57:11.000Z</time>
</trkpt>
<trkpt lat="57.517087" lon="9.909577">
<ele>9.373302</ele>
<time>2026-07-16T14:57:12.000Z</time>
</trkpt>
<trkpt lat="57.517056" lon="9.909688">
<ele>9.378289</ele>
<time>2026-07-16T14:57:13.000Z</time>
</trkpt>
<trkpt lat="57.517023" lon="9.909797">
<ele>9.383276</ele>
<time>2026-07-16T14:57:14.000Z</time>
</trkpt>
<trkpt lat="57.516991" lon="9.909906">
<ele>9.388227</ele>
<time>2026-07-16T14:57:15.000Z</time>
</trkpt>
<trkpt lat="57.516963" lon="9.910006">
<ele>9.392722</ele>
<time>2026-07-16T14:57:16.000Z</time>
</trkpt>
<trkpt lat="57.516935" lon="9.910103">
<ele>9.397111</ele>
<time>2026-07-16T14:57:17.000Z</time>
</trkpt>
<trkpt lat="57.516902" lon="9.910213">
<ele>9.402133</ele>
<time>2026-07-16T14:57:18.000Z</time>
</trkpt>
<trkpt lat="57.516870" lon="9.910320">
<ele>9.407014</ele>
<time>2026-07-16T14:57:19.000Z</time>
</trkpt>
<trkpt lat="57.516836" lon="9.910419">
<ele>9.411698</ele>
<time>2026-07-16T14:57:20.000Z</time>
</trkpt>
<trkpt lat="57.516807" lon="9.910516">
<ele>9.416122</ele>
<time>2026-07-16T14:57:21.000Z</time>
</trkpt>
<trkpt lat="57.516778" lon="9.910615">
<ele>9.420617</ele>
<time>2026-07-16T14:57:22.000Z</time>
</trkpt>
<trkpt lat="57.516747" lon="9.910714">
<ele>9.425184</ele>
<time>2026-07-16T14:57:23.000Z</time>
</trkpt>
<trkpt lat="57.516719" lon="9.910809">
<ele>9.429504</ele>
<time>2026-07-16T14:57:24.000Z</time>
</trkpt>
<trkpt lat="57.516693" lon="9.910904">
<ele>9.433753</ele>
<time>2026-07-16T14:57:25.000Z</time>
</trkpt>
<trkpt lat="57.516666" lon="9.910995">
<ele>9.437897</ele>
<time>2026-07-16T14:57:26.000Z</time>
</trkpt>
<trkpt lat="57.516640" lon="9.911089">
<ele>9.442111</ele>
<time>2026-07-16T14:57:27.000Z</time>
</trkpt>
<trkpt lat="57.516613" lon="9.911183">
<ele>9.446360</ele>
<time>2026-07-16T14:57:28.000Z</time>
</trkpt>
<trkpt lat="57.516583" lon="9.911276">
<ele>9.450684</ele>
<time>2026-07-16T14:57:29.000Z</time>
</trkpt>
<trkpt lat="57.516555" lon="9.911368">
<ele>9.454899</ele>
<time>2026-07-16T14:57:30.000Z</time>
</trkpt>
<trkpt lat="57.516529" lon="9.911460">
<ele>9.459042</ele>
<time>2026-07-16T14:57:31.000Z</time>
</trkpt>
<trkpt lat="57.516505" lon="9.911549">
<ele>9.463012</ele>
<time>2026-07-16T14:57:32.000Z</time>
</trkpt>
<trkpt lat="57.516479" lon="9.911640">
<ele>9.467120</ele>
<time>2026-07-16T14:57:33.000Z</time>
</trkpt>
<trkpt lat="57.516452" lon="9.911731">
<ele>9.471264</ele>
<time>2026-07-16T14:57:34.000Z</time>
</trkpt>
<trkpt lat="57.516423" lon="9.911820">
<ele>9.475413</ele>
<time>2026-07-16T14:57:35.000Z</time>
</trkpt>
<trkpt lat="57.516389" lon="9.911905">
<ele>9.479637</ele>
<time>2026-07-16T14:57:36.000Z</time>
</trkpt>
<trkpt lat="57.516352" lon="9.911982">
<ele>9.483755</ele>
<time>2026-07-16T14:57:37.000Z</time>
</trkpt>
<trkpt lat="57.516311" lon="9.912049">
<ele>9.487803</ele>
<time>2026-07-16T14:57:38.000Z</time>
</trkpt>
<trkpt lat="57.516268" lon="9.912105">
<ele>9.491698</ele>
<time>2026-07-16T14:57:39.000Z</time>
</trkpt>
<trkpt lat="57.516218" lon="9.912153">
<ele>9.495873</ele>
<time>2026-07-16T14:57:40.000Z</time>
</trkpt>
<trkpt lat="57.516166" lon="9.912187">
<ele>9.499963</ele>
<time>2026-07-16T14:57:41.000Z</time>
</trkpt>
<trkpt lat="57.516116" lon="9.912211">
<ele>9.503795</ele>
<time>2026-07-16T14:57:42.000Z</time>
</trkpt>
<trkpt lat="57.516061" lon="9.912232">
<ele>9.502953</ele>
<time>2026-07-16T14:57:43.000Z</time>
</trkpt>
<trkpt lat="57.516006" lon="9.912254">
<ele>9.489984</ele>
<time>2026-07-16T14:57:44.000Z</time>
</trkpt>
<trkpt lat="57.515952" lon="9.912276">
<ele>9.477240</ele>
<time>2026-07-16T14:57:45.000Z</time>
</trkpt>
<trkpt lat="57.515896" lon="9.912297">
<ele>9.464071</ele>
<time>2026-07-16T14:57:46.000Z</time>
</trkpt>
<trkpt lat="57.515842" lon="9.912322">
<ele>9.451243</ele>
<time>2026-07-16T14:57:47.000Z</time>
</trkpt>
<trkpt lat="57.515788" lon="9.912352">
<ele>9.438251</ele>
<time>2026-07-16T14:57:48.000Z</time>
</trkpt>
<trkpt lat="57.515735" lon="9.912385">
<ele>9.425368</ele>
<time>2026-07-16T14:57:49.000Z</time>
</trkpt>
<trkpt lat="57.515685" lon="9.912427">
<ele>9.412722</ele>
<time>2026-07-16T14:57:50.000Z</time>
</trkpt>
<trkpt lat="57.515638" lon="9.912482">
<ele>9.399924</ele>
<time>2026-07-16T14:57:51.000Z</time>
</trkpt>
<trkpt lat="57.515597" lon="9.912550">
<ele>9.387266</ele>
<time>2026-07-16T14:57:52.000Z</time>
</trkpt>
<trkpt lat="57.515562" lon="9.912632">
<ele>9.374297</ele>
<time>2026-07-16T14:57:53.000Z</time>
</trkpt>
<trkpt lat="57.515533" lon="9.912724">
<ele>9.361089</ele>
<time>2026-07-16T14:57:54.000Z</time>
</trkpt>
<trkpt lat="57.515512" lon="9.912819">
<ele>9.348369</ele>
<time>2026-07-16T14:57:55.000Z</time>
</trkpt>
<trkpt lat="57.515496" lon="9.912916">
<ele>9.335805</ele>
<time>2026-07-16T14:57:56.000Z</time>
</trkpt>
<trkpt lat="57.515489" lon="9.913011">
<ele>9.323933</ele>
<time>2026-07-16T14:57:57.000Z</time>
</trkpt>
<trkpt lat="57.515482" lon="9.913112">
<ele>9.311324</ele>
<time>2026-07-16T14:57:58.000Z</time>
</trkpt>
<trkpt lat="57.515474" lon="9.913209">
<ele>9.299173</ele>
<time>2026-07-16T14:57:59.000Z</time>
</trkpt>
<trkpt lat="57.515470" lon="9.913275">
<ele>9.290949</ele>
<time>2026-07-16T14:58:00.000Z</time>
</trkpt>
<trkpt lat="57.515467" lon="9.913353">
<ele>9.281266</ele>
<time>2026-07-16T14:58:01.000Z</time>
</trkpt>
<trkpt lat="57.515462" lon="9.913431">
<ele>9.271540</ele>
<time>2026-07-16T14:58:02.000Z</time>
</trkpt>
<trkpt lat="57.515458" lon="9.913488">
<ele>9.264423</ele>
<time>2026-07-16T14:58:03.000Z</time>
</trkpt>
<trkpt lat="57.515454" lon="9.913535">
<ele>9.258531</ele>
<time>2026-07-16T14:58:04.000Z</time>
</trkpt>
<trkpt lat="57.515453" lon="9.913571">
<ele>9.254067</ele>
<time>2026-07-16T14:58:05.000Z</time>
</trkpt>
<trkpt lat="57.515451" lon="9.913593">
<ele>9.251305</ele>
<time>2026-07-16T14:58:06.000Z</time>
</trkpt>
<trkpt lat="57.515532" lon="9.913991">
<ele>9.198606</ele>
<time>2026-07-16T15:00:22.000Z</time>
</trkpt>
<trkpt lat="57.515577" lon="9.914003">
<ele>9.188126</ele>
<time>2026-07-16T15:00:23.000Z</time>
</trkpt>
<trkpt lat="57.515623" lon="9.914010">
<ele>9.177486</ele>
<time>2026-07-16T15:00:24.000Z</time>
</trkpt>
<trkpt lat="57.515668" lon="9.914020">
<ele>9.167038</ele>
<time>2026-07-16T15:00:25.000Z</time>
</trkpt>
<trkpt lat="57.515718" lon="9.914033">
<ele>9.155399</ele>
<time>2026-07-16T15:00:26.000Z</time>
</trkpt>
<trkpt lat="57.515766" lon="9.914045">
<ele>9.144234</ele>
<time>2026-07-16T15:00:27.000Z</time>
</trkpt>
<trkpt lat="57.515813" lon="9.914059">
<ele>9.133261</ele>
<time>2026-07-16T15:00:28.000Z</time>
</trkpt>
<trkpt lat="57.515863" lon="9.914081">
<ele>9.121417</ele>
<time>2026-07-16T15:00:29.000Z</time>
</trkpt>
<trkpt lat="57.515913" lon="9.914116">
<ele>9.109102</ele>
<time>2026-07-16T15:00:30.000Z</time>
</trkpt>
<trkpt lat="57.515959" lon="9.914160">
<ele>9.097180</ele>
<time>2026-07-16T15:00:31.000Z</time>
</trkpt>
<trkpt lat="57.516007" lon="9.914213">
<ele>9.115073</ele>
<time>2026-07-16T15:00:32.000Z</time>
</trkpt>
<trkpt lat="57.516049" lon="9.914281">
<ele>9.153043</ele>
<time>2026-07-16T15:00:33.000Z</time>
</trkpt>
<trkpt lat="57.516085" lon="9.914360">
<ele>9.191003</ele>
<time>2026-07-16T15:00:34.000Z</time>
</trkpt>
<trkpt lat="57.516114" lon="9.914448">
<ele>9.228831</ele>
<time>2026-07-16T15:00:35.000Z</time>
</trkpt>
<trkpt lat="57.516143" lon="9.914539">
<ele>9.267600</ele>
<time>2026-07-16T15:00:36.000Z</time>
</trkpt>
<trkpt lat="57.516174" lon="9.914631">
<ele>9.307393</ele>
<time>2026-07-16T15:00:37.000Z</time>
</trkpt>
<trkpt lat="57.516210" lon="9.914718">
<ele>9.347632</ele>
<time>2026-07-16T15:00:38.000Z</time>
</trkpt>
<trkpt lat="57.516245" lon="9.914800">
<ele>9.386008</ele>
<time>2026-07-16T15:00:39.000Z</time>
</trkpt>
<trkpt lat="57.516285" lon="9.914867">
<ele>9.422713</ele>
<time>2026-07-16T15:00:40.000Z</time>
</trkpt>
<trkpt lat="57.516330" lon="9.914916">
<ele>9.458276</ele>
<time>2026-07-16T15:00:41.000Z</time>
</trkpt>
<trkpt lat="57.516376" lon="9.914948">
<ele>9.491777</ele>
<time>2026-07-16T15:00:42.000Z</time>
</trkpt>
<trkpt lat="57.516421" lon="9.914968">
<ele>9.523338</ele>
<time>2026-07-16T15:00:43.000Z</time>
</trkpt>
<trkpt lat="57.516464" lon="9.914981">
<ele>9.553057</ele>
<time>2026-07-16T15:00:44.000Z</time>
</trkpt>
<trkpt lat="57.516506" lon="9.914991">
<ele>9.581943</ele>
<time>2026-07-16T15:00:45.000Z</time>
</trkpt>
<trkpt lat="57.516551" lon="9.914998">
<ele>9.612749</ele>
<time>2026-07-16T15:00:46.000Z</time>
</trkpt>
<trkpt lat="57.516596" lon="9.915008">
<ele>9.643666</ele>
<time>2026-07-16T15:00:47.000Z</time>
</trkpt>
<trkpt lat="57.516642" lon="9.915022">
<ele>9.675464</ele>
<time>2026-07-16T15:00:48.000Z</time>
</trkpt>
<trkpt lat="57.516685" lon="9.915045">
<ele>9.705986</ele>
<time>2026-07-16T15:00:49.000Z</time>
</trkpt>
<trkpt lat="57.516736" lon="9.915074">
<ele>9.742364</ele>
<time>2026-07-16T15:00:50.000Z</time>
</trkpt>
<trkpt lat="57.516790" lon="9.915115">
<ele>9.782148</ele>
<time>2026-07-16T15:00:51.000Z</time>
</trkpt>
<trkpt lat="57.516838" lon="9.915169">
<ele>9.820407</ele>
<time>2026-07-16T15:00:52.000Z</time>
</trkpt>
<trkpt lat="57.516883" lon="9.915238">
<ele>9.860175</ele>
<time>2026-07-16T15:00:53.000Z</time>
</trkpt>
<trkpt lat="57.516923" lon="9.915317">
<ele>9.899955</ele>
<time>2026-07-16T15:00:54.000Z</time>
</trkpt>
<trkpt lat="57.516945" lon="9.915401">
<ele>9.934195</ele>
<time>2026-07-16T15:00:55.000Z</time>
</trkpt>
<trkpt lat="57.516957" lon="9.915490">
<ele>9.967815</ele>
<time>2026-07-16T15:00:56.000Z</time>
</trkpt>
<trkpt lat="57.516966" lon="9.915585">
<ele>10.003158</ele>
<time>2026-07-16T15:00:57.000Z</time>
</trkpt>
<trkpt lat="57.516968" lon="9.915679">
<ele>10.037625</ele>
<time>2026-07-16T15:00:58.000Z</time>
</trkpt>
<trkpt lat="57.516968" lon="9.915773">
<ele>10.072064</ele>
<time>2026-07-16T15:00:59.000Z</time>
</trkpt>
<trkpt lat="57.516968" lon="9.915867">
<ele>10.106504</ele>
<time>2026-07-16T15:01:00.000Z</time>
</trkpt>
<trkpt lat="57.516965" lon="9.915959">
<ele>10.140273</ele>
<time>2026-07-16T15:01:01.000Z</time>
</trkpt>
<trkpt lat="57.516961" lon="9.916050">
<ele>10.173725</ele>
<time>2026-07-16T15:01:02.000Z</time>
</trkpt>
<trkpt lat="57.516957" lon="9.916144">
<ele>10.208272</ele>
<time>2026-07-16T15:01:03.000Z</time>
</trkpt>
<trkpt lat="57.516951" lon="9.916241">
<ele>10.244046</ele>
<time>2026-07-16T15:01:04.000Z</time>
</trkpt>
<trkpt lat="57.516946" lon="9.916337">
<ele>10.279383</ele>
<time>2026-07-16T15:01:05.000Z</time>
</trkpt>
<trkpt lat="57.516939" lon="9.916431">
<ele>10.314152</ele>
<time>2026-07-16T15:01:06.000Z</time>
</trkpt>
<trkpt lat="57.516934" lon="9.916524">
<ele>10.356035</ele>
<time>2026-07-16T15:01:07.000Z</time>
</trkpt>
<trkpt lat="57.516928" lon="9.916614">
<ele>10.397934</ele>
<time>2026-07-16T15:01:08.000Z</time>
</trkpt>
<trkpt lat="57.516920" lon="9.916702">
<ele>10.439168</ele>
<time>2026-07-16T15:01:09.000Z</time>
</trkpt>
<trkpt lat="57.516913" lon="9.916793">
<ele>10.481639</ele>
<time>2026-07-16T15:01:10.000Z</time>
</trkpt>
<trkpt lat="57.516908" lon="9.916886">
<ele>10.524820</ele>
<time>2026-07-16T15:01:11.000Z</time>
</trkpt>
<trkpt lat="57.516901" lon="9.916980">
<ele>10.568664</ele>
<time>2026-07-16T15:01:12.000Z</time>
</trkpt>
<trkpt lat="57.516896" lon="9.917078">
<ele>10.614144</ele>
<time>2026-07-16T15:01:13.000Z</time>
</trkpt>
<trkpt lat="57.516892" lon="9.917178">
<ele>10.660472</ele>
<time>2026-07-16T15:01:14.000Z</time>
</trkpt>
<trkpt lat="57.516889" lon="9.917278">
<ele>10.706744</ele>
<time>2026-07-16T15:01:15.000Z</time>
</trkpt>
<trkpt lat="57.516885" lon="9.917378">
<ele>10.753073</ele>
<time>2026-07-16T15:01:16.000Z</time>
</trkpt>
<trkpt lat="57.516881" lon="9.917479">
<ele>10.799861</ele>
<time>2026-07-16T15:01:17.000Z</time>
</trkpt>
<trkpt lat="57.516874" lon="9.917579">
<ele>10.846452</ele>
<time>2026-07-16T15:01:18.000Z</time>
</trkpt>
<trkpt lat="57.516870" lon="9.917681">
<ele>10.893702</ele>
<time>2026-07-16T15:01:19.000Z</time>
</trkpt>
<trkpt lat="57.516866" lon="9.917782">
<ele>10.940491</ele>
<time>2026-07-16T15:01:20.000Z</time>
</trkpt>
<trkpt lat="57.516859" lon="9.917882">
<ele>10.987082</ele>
<time>2026-07-16T15:01:21.000Z</time>
</trkpt>
<trkpt lat="57.516854" lon="9.917982">
<ele>11.033482</ele>
<time>2026-07-16T15:01:22.000Z</time>
</trkpt>
<trkpt lat="57.516848" lon="9.918080">
<ele>11.079052</ele>
<time>2026-07-16T15:01:23.000Z</time>
</trkpt>
<trkpt lat="57.516843" lon="9.918177">
<ele>11.124072</ele>
<time>2026-07-16T15:01:24.000Z</time>
</trkpt>
<trkpt lat="57.516836" lon="9.918274">
<ele>11.169289</ele>
<time>2026-07-16T15:01:25.000Z</time>
</trkpt>
<trkpt lat="57.516831" lon="9.918371">
<ele>11.214309</ele>
<time>2026-07-16T15:01:26.000Z</time>
</trkpt>
<trkpt lat="57.516830" lon="9.918465">
<ele>11.257746</ele>
<time>2026-07-16T15:01:27.000Z</time>
</trkpt>
<trkpt lat="57.516830" lon="9.918560">
<ele>11.301636</ele>
<time>2026-07-16T15:01:28.000Z</time>
</trkpt>
<trkpt lat="57.516833" lon="9.918656">
<ele>11.346063</ele>
<time>2026-07-16T15:01:29.000Z</time>
</trkpt>
<trkpt lat="57.516840" lon="9.918755">
<ele>11.392196</ele>
<time>2026-07-16T15:01:30.000Z</time>
</trkpt>
<trkpt lat="57.516853" lon="9.918854">
<ele>11.439282</ele>
<time>2026-07-16T15:01:31.000Z</time>
</trkpt>
<trkpt lat="57.516871" lon="9.918949">
<ele>11.485823</ele>
<time>2026-07-16T15:01:32.000Z</time>
</trkpt>
<trkpt lat="57.516898" lon="9.919034">
<ele>11.531448</ele>
<time>2026-07-16T15:01:33.000Z</time>
</trkpt>
<trkpt lat="57.516929" lon="9.919116">
<ele>11.577778</ele>
<time>2026-07-16T15:01:34.000Z</time>
</trkpt>
<trkpt lat="57.516965" lon="9.919190">
<ele>11.623907</ele>
<time>2026-07-16T15:01:35.000Z</time>
</trkpt>
<trkpt lat="57.517003" lon="9.919253">
<ele>11.667677</ele>
<time>2026-07-16T15:01:36.000Z</time>
</trkpt>
<trkpt lat="57.517044" lon="9.919306">
<ele>11.710613</ele>
<time>2026-07-16T15:01:37.000Z</time>
</trkpt>
<trkpt lat="57.517089" lon="9.919349">
<ele>11.754125</ele>
<time>2026-07-16T15:01:38.000Z</time>
</trkpt>
<trkpt lat="57.517132" lon="9.919382">
<ele>11.794135</ele>
<time>2026-07-16T15:01:39.000Z</time>
</trkpt>
<trkpt lat="57.517180" lon="9.919412">
<ele>11.837691</ele>
<time>2026-07-16T15:01:40.000Z</time>
</trkpt>
<trkpt lat="57.517226" lon="9.919445">
<ele>11.924578</ele>
<time>2026-07-16T15:01:41.000Z</time>
</trkpt>
<trkpt lat="57.517272" lon="9.919480">
<ele>12.106371</ele>
<time>2026-07-16T15:01:42.000Z</time>
</trkpt>
<trkpt lat="57.517318" lon="9.919514">
<ele>12.287430</ele>
<time>2026-07-16T15:01:43.000Z</time>
</trkpt>
<trkpt lat="57.517361" lon="9.919546">
<ele>12.456839</ele>
<time>2026-07-16T15:01:44.000Z</time>
</trkpt>
<trkpt lat="57.517406" lon="9.919578">
<ele>12.633063</ele>
<time>2026-07-16T15:01:45.000Z</time>
</trkpt>
<trkpt lat="57.517449" lon="9.919610">
<ele>12.802472</ele>
<time>2026-07-16T15:01:46.000Z</time>
</trkpt>
<trkpt lat="57.517493" lon="9.919641">
<ele>12.974578</ele>
<time>2026-07-16T15:01:47.000Z</time>
</trkpt>
<trkpt lat="57.517542" lon="9.919674">
<ele>13.165204</ele>
<time>2026-07-16T15:01:48.000Z</time>
</trkpt>
<trkpt lat="57.517586" lon="9.919708">
<ele>13.339483</ele>
<time>2026-07-16T15:01:49.000Z</time>
</trkpt>
<trkpt lat="57.517628" lon="9.919738">
<ele>13.504052</ele>
<time>2026-07-16T15:01:50.000Z</time>
</trkpt>
<trkpt lat="57.517672" lon="9.919766">
<ele>13.674162</ele>
<time>2026-07-16T15:01:51.000Z</time>
</trkpt>
<trkpt lat="57.517715" lon="9.919794">
<ele>13.840814</ele>
<time>2026-07-16T15:01:52.000Z</time>
</trkpt>
<trkpt lat="57.517758" lon="9.919828">
<ele>14.011719</ele>
<time>2026-07-16T15:01:53.000Z</time>
</trkpt>
<trkpt lat="57.517797" lon="9.919863">
<ele>14.170103</ele>
<time>2026-07-16T15:01:54.000Z</time>
</trkpt>
<trkpt lat="57.517838" lon="9.919899">
<ele>14.335936</ele>
<time>2026-07-16T15:01:55.000Z</time>
</trkpt>
<trkpt lat="57.517880" lon="9.919930">
<ele>14.501219</ele>
<time>2026-07-16T15:01:56.000Z</time>
</trkpt>
<trkpt lat="57.517920" lon="9.919956">
<ele>14.656214</ele>
<time>2026-07-16T15:01:57.000Z</time>
</trkpt>
<trkpt lat="57.517963" lon="9.919984">
<ele>14.822866</ele>
<time>2026-07-16T15:01:58.000Z</time>
</trkpt>
<trkpt lat="57.518004" lon="9.920013">
<ele>14.983316</ele>
<time>2026-07-16T15:01:59.000Z</time>
</trkpt>
<trkpt lat="57.518049" lon="9.920041">
<ele>15.156891</ele>
<time>2026-07-16T15:02:00.000Z</time>
</trkpt>
<trkpt lat="57.518093" lon="9.920067">
<ele>15.325771</ele>
<time>2026-07-16T15:02:01.000Z</time>
</trkpt>
<trkpt lat="57.518137" lon="9.920089">
<ele>15.492442</ele>
<time>2026-07-16T15:02:02.000Z</time>
</trkpt>
<trkpt lat="57.518181" lon="9.920112">
<ele>15.659633</ele>
<time>2026-07-16T15:02:03.000Z</time>
</trkpt>
<trkpt lat="57.518226" lon="9.920140">
<ele>15.833208</ele>
<time>2026-07-16T15:02:04.000Z</time>
</trkpt>
<trkpt lat="57.518271" lon="9.920170">
<ele>16.008069</ele>
<time>2026-07-16T15:02:05.000Z</time>
</trkpt>
<trkpt lat="57.518314" lon="9.920200">
<ele>16.176058</ele>
<time>2026-07-16T15:02:06.000Z</time>
</trkpt>
<trkpt lat="57.518359" lon="9.920227">
<ele>16.349021</ele>
<time>2026-07-16T15:02:07.000Z</time>
</trkpt>
<trkpt lat="57.518400" lon="9.920254">
<ele>16.508118</ele>
<time>2026-07-16T15:02:08.000Z</time>
</trkpt>
<trkpt lat="57.518446" lon="9.920280">
<ele>16.683986</ele>
<time>2026-07-16T15:02:09.000Z</time>
</trkpt>
<trkpt lat="57.518489" lon="9.920302">
<ele>16.847126</ele>
<time>2026-07-16T15:02:10.000Z</time>
</trkpt>
<trkpt lat="57.518531" lon="9.920323">
<ele>17.006221</ele>
<time>2026-07-16T15:02:11.000Z</time>
</trkpt>
<trkpt lat="57.518570" lon="9.920346">
<ele>17.155882</ele>
<time>2026-07-16T15:02:12.000Z</time>
</trkpt>
<trkpt lat="57.518609" lon="9.920369">
<ele>17.305544</ele>
<time>2026-07-16T15:02:13.000Z</time>
</trkpt>
<trkpt lat="57.518647" lon="9.920387">
<ele>17.448990</ele>
<time>2026-07-16T15:02:14.000Z</time>
</trkpt>
<trkpt lat="57.518686" lon="9.920404">
<ele>17.595524</ele>
<time>2026-07-16T15:02:15.000Z</time>
</trkpt>
<trkpt lat="57.518722" lon="9.920418">
<ele>17.730067</ele>
<time>2026-07-16T15:02:16.000Z</time>
</trkpt>
<trkpt lat="57.518759" lon="9.920431">
<ele>17.867816</ele>
<time>2026-07-16T15:02:17.000Z</time>
</trkpt>
<trkpt lat="57.518796" lon="9.920446">
<ele>18.006347</ele>
<time>2026-07-16T15:02:18.000Z</time>
</trkpt>
<trkpt lat="57.518834" lon="9.920462">
<ele>18.148875</ele>
<time>2026-07-16T15:02:19.000Z</time>
</trkpt>
<trkpt lat="57.518871" lon="9.920478">
<ele>18.287838</ele>
<time>2026-07-16T15:02:20.000Z</time>
</trkpt>
<trkpt lat="57.518907" lon="9.920494">
<ele>18.423239</ele>
<time>2026-07-16T15:02:21.000Z</time>
</trkpt>
<trkpt lat="57.518942" lon="9.920512">
<ele>18.438199</ele>
<time>2026-07-16T15:02:22.000Z</time>
</trkpt>
<trkpt lat="57.518976" lon="9.920534">
<ele>18.428156</ele>
<time>2026-07-16T15:02:23.000Z</time>
</trkpt>
<trkpt lat="57.519011" lon="9.920557">
<ele>18.417799</ele>
<time>2026-07-16T15:02:24.000Z</time>
</trkpt>
<trkpt lat="57.519045" lon="9.920578">
<ele>18.407804</ele>
<time>2026-07-16T15:02:25.000Z</time>
</trkpt>
<trkpt lat="57.519079" lon="9.920594">
<ele>18.398019</ele>
<time>2026-07-16T15:02:26.000Z</time>
</trkpt>
<trkpt lat="57.519114" lon="9.920609">
<ele>18.387998</ele>
<time>2026-07-16T15:02:27.000Z</time>
</trkpt>
<trkpt lat="57.519151" lon="9.920626">
<ele>18.377364</ele>
<time>2026-07-16T15:02:28.000Z</time>
</trkpt>
<trkpt lat="57.519186" lon="9.920644">
<ele>18.367233</ele>
<time>2026-07-16T15:02:29.000Z</time>
</trkpt>
<trkpt lat="57.519221" lon="9.920662">
<ele>18.357101</ele>
<time>2026-07-16T15:02:30.000Z</time>
</trkpt>
<trkpt lat="57.519258" lon="9.920681">
<ele>18.346392</ele>
<time>2026-07-16T15:02:31.000Z</time>
</trkpt>
<trkpt lat="57.519293" lon="9.920698">
<ele>18.336299</ele>
<time>2026-07-16T15:02:32.000Z</time>
</trkpt>
<trkpt lat="57.519327" lon="9.920714">
<ele>18.326514</ele>
<time>2026-07-16T15:02:33.000Z</time>
</trkpt>
<trkpt lat="57.519365" lon="9.920731">
<ele>18.315609</ele>
<time>2026-07-16T15:02:34.000Z</time>
</trkpt>
<trkpt lat="57.519403" lon="9.920749">
<ele>18.304668</ele>
<time>2026-07-16T15:02:35.000Z</time>
</trkpt>
<trkpt lat="57.519441" lon="9.920765">
<ele>18.293797</ele>
<time>2026-07-16T15:02:36.000Z</time>
</trkpt>
<trkpt lat="57.519479" lon="9.920782">
<ele>18.282893</ele>
<time>2026-07-16T15:02:37.000Z</time>
</trkpt>
<trkpt lat="57.519520" lon="9.920798">
<ele>18.271204</ele>
<time>2026-07-16T15:02:38.000Z</time>
</trkpt>
<trkpt lat="57.519562" lon="9.920812">
<ele>18.259299</ele>
<time>2026-07-16T15:02:39.000Z</time>
</trkpt>
<trkpt lat="57.519604" lon="9.920827">
<ele>18.247366</ele>
<time>2026-07-16T15:02:40.000Z</time>
</trkpt>
<trkpt lat="57.519646" lon="9.920841">
<ele>18.235460</ele>
<time>2026-07-16T15:02:41.000Z</time>
</trkpt>
<trkpt lat="57.519688" lon="9.920858">
<ele>18.223467</ele>
<time>2026-07-16T15:02:42.000Z</time>
</trkpt>
<trkpt lat="57.519733" lon="9.920876">
<ele>18.210625</ele>
<time>2026-07-16T15:02:43.000Z</time>
</trkpt>
<trkpt lat="57.519778" lon="9.920896">
<ele>18.197716</ele>
<time>2026-07-16T15:02:44.000Z</time>
</trkpt>
<trkpt lat="57.519824" lon="9.920916">
<ele>18.184535</ele>
<time>2026-07-16T15:02:45.000Z</time>
</trkpt>
<trkpt lat="57.519873" lon="9.920934">
<ele>18.170599</ele>
<time>2026-07-16T15:02:46.000Z</time>
</trkpt>
<trkpt lat="57.519925" lon="9.920952">
<ele>18.155841</ele>
<time>2026-07-16T15:02:47.000Z</time>
</trkpt>
<trkpt lat="57.519979" lon="9.920969">
<ele>18.140560</ele>
<time>2026-07-16T15:02:48.000Z</time>
</trkpt>
<trkpt lat="57.520035" lon="9.920984">
<ele>18.124774</ele>
<time>2026-07-16T15:02:49.000Z</time>
</trkpt>
<trkpt lat="57.520095" lon="9.920998">
<ele>18.107901</ele>
<time>2026-07-16T15:02:50.000Z</time>
</trkpt>
<trkpt lat="57.520156" lon="9.921014">
<ele>18.090712</ele>
<time>2026-07-16T15:02:51.000Z</time>
</trkpt>
<trkpt lat="57.520220" lon="9.921033">
<ele>18.072629</ele>
<time>2026-07-16T15:02:52.000Z</time>
</trkpt>
<trkpt lat="57.520284" lon="9.921053">
<ele>18.054522</ele>
<time>2026-07-16T15:02:53.000Z</time>
</trkpt>
<trkpt lat="57.520352" lon="9.921074">
<ele>18.035289</ele>
<time>2026-07-16T15:02:54.000Z</time>
</trkpt>
<trkpt lat="57.520421" lon="9.921094">
<ele>18.015804</ele>
<time>2026-07-16T15:02:55.000Z</time>
</trkpt>
<trkpt lat="57.520492" lon="9.921116">
<ele>17.995720</ele>
<time>2026-07-16T15:02:56.000Z</time>
</trkpt>
<trkpt lat="57.520567" lon="9.921138">
<ele>17.974535</ele>
<time>2026-07-16T15:02:57.000Z</time>
</trkpt>
<trkpt lat="57.520641" lon="9.921160">
<ele>17.953626</ele>
<time>2026-07-16T15:02:58.000Z</time>
</trkpt>
<trkpt lat="57.520718" lon="9.921184">
<ele>17.917141</ele>
<time>2026-07-16T15:02:59.000Z</time>
</trkpt>
<trkpt lat="57.520796" lon="9.921206">
<ele>17.869923</ele>
<time>2026-07-16T15:03:00.000Z</time>
</trkpt>
<trkpt lat="57.520872" lon="9.921229">
<ele>17.823838</ele>
<time>2026-07-16T15:03:01.000Z</time>
</trkpt>
<trkpt lat="57.520946" lon="9.921253">
<ele>17.778881</ele>
<time>2026-07-16T15:03:02.000Z</time>
</trkpt>
<trkpt lat="57.521021" lon="9.921278">
<ele>17.733278</ele>
<time>2026-07-16T15:03:03.000Z</time>
</trkpt>
<trkpt lat="57.521089" lon="9.921308">
<ele>17.691451</ele>
<time>2026-07-16T15:03:04.000Z</time>
</trkpt>
<trkpt lat="57.521154" lon="9.921346">
<ele>17.650675</ele>
<time>2026-07-16T15:03:05.000Z</time>
</trkpt>
<trkpt lat="57.521210" lon="9.921388">
<ele>17.614541</ele>
<time>2026-07-16T15:03:06.000Z</time>
</trkpt>
<trkpt lat="57.521267" lon="9.921441">
<ele>17.576409</ele>
<time>2026-07-16T15:03:07.000Z</time>
</trkpt>
<trkpt lat="57.521321" lon="9.921507">
<ele>17.537749</ele>
<time>2026-07-16T15:03:08.000Z</time>
</trkpt>
<trkpt lat="57.521369" lon="9.921586">
<ele>17.499408</ele>
<time>2026-07-16T15:03:09.000Z</time>
</trkpt>
<trkpt lat="57.521409" lon="9.921680">
<ele>17.460860</ele>
<time>2026-07-16T15:03:10.000Z</time>
</trkpt>
<trkpt lat="57.521442" lon="9.921781">
<ele>17.422862</ele>
<time>2026-07-16T15:03:11.000Z</time>
</trkpt>
<trkpt lat="57.521467" lon="9.921889">
<ele>17.385063</ele>
<time>2026-07-16T15:03:12.000Z</time>
</trkpt>
<trkpt lat="57.521481" lon="9.922001">
<ele>17.348104</ele>
<time>2026-07-16T15:03:13.000Z</time>
</trkpt>
<trkpt lat="57.521487" lon="9.922114">
<ele>17.311609</ele>
<time>2026-07-16T15:03:14.000Z</time>
</trkpt>
<trkpt lat="57.521485" lon="9.922227">
<ele>17.275271</ele>
<time>2026-07-16T15:03:15.000Z</time>
</trkpt>
<trkpt lat="57.521482" lon="9.922337">
<ele>17.239871</ele>
<time>2026-07-16T15:03:16.000Z</time>
</trkpt>
<trkpt lat="57.521481" lon="9.922446">
<ele>17.204834</ele>
<time>2026-07-16T15:03:17.000Z</time>
</trkpt>
<trkpt lat="57.521478" lon="9.922558">
<ele>17.168792</ele>
<time>2026-07-16T15:03:18.000Z</time>
</trkpt>
<trkpt lat="57.521474" lon="9.922669">
<ele>17.133037</ele>
<time>2026-07-16T15:03:19.000Z</time>
</trkpt>
<trkpt lat="57.521473" lon="9.922780">
<ele>17.097357</ele>
<time>2026-07-16T15:03:20.000Z</time>
</trkpt>
<trkpt lat="57.521470" lon="9.922889">
<ele>17.062278</ele>
<time>2026-07-16T15:03:21.000Z</time>
</trkpt>
<trkpt lat="57.521469" lon="9.922999">
<ele>17.026919</ele>
<time>2026-07-16T15:03:22.000Z</time>
</trkpt>
<trkpt lat="57.521466" lon="9.923105">
<ele>16.992803</ele>
<time>2026-07-16T15:03:23.000Z</time>
</trkpt>
<trkpt lat="57.521462" lon="9.923211">
<ele>16.958651</ele>
<time>2026-07-16T15:03:24.000Z</time>
</trkpt>
<trkpt lat="57.521461" lon="9.923316">
<ele>16.924899</ele>
<time>2026-07-16T15:03:25.000Z</time>
</trkpt>
<trkpt lat="57.521461" lon="9.923417">
<ele>16.892438</ele>
<time>2026-07-16T15:03:26.000Z</time>
</trkpt>
<trkpt lat="57.521461" lon="9.923520">
<ele>16.908908</ele>
<time>2026-07-16T15:03:27.000Z</time>
</trkpt>
<trkpt lat="57.521459" lon="9.923620">
<ele>17.057716</ele>
<time>2026-07-16T15:03:28.000Z</time>
</trkpt>
<trkpt lat="57.521455" lon="9.923721">
<ele>17.208316</ele>
<time>2026-07-16T15:03:29.000Z</time>
</trkpt>
<trkpt lat="57.521454" lon="9.923822">
<ele>17.358533</ele>
<time>2026-07-16T15:03:30.000Z</time>
</trkpt>
<trkpt lat="57.521452" lon="9.923919">
<ele>17.502883</ele>
<time>2026-07-16T15:03:31.000Z</time>
</trkpt>
<trkpt lat="57.521451" lon="9.924015">
<ele>17.645667</ele>
<time>2026-07-16T15:03:32.000Z</time>
</trkpt>
<trkpt lat="57.521450" lon="9.924106">
<ele>17.781017</ele>
<time>2026-07-16T15:03:33.000Z</time>
</trkpt>
<trkpt lat="57.521447" lon="9.924201">
<ele>17.922530</ele>
<time>2026-07-16T15:03:34.000Z</time>
</trkpt>
<trkpt lat="57.521443" lon="9.924296">
<ele>18.064234</ele>
<time>2026-07-16T15:03:35.000Z</time>
</trkpt>
<trkpt lat="57.521440" lon="9.924384">
<ele>18.195357</ele>
<time>2026-07-16T15:03:36.000Z</time>
</trkpt>
<trkpt lat="57.521436" lon="9.924476">
<ele>18.332614</ele>
<time>2026-07-16T15:03:37.000Z</time>
</trkpt>
<trkpt lat="57.521432" lon="9.924569">
<ele>18.471352</ele>
<time>2026-07-16T15:03:38.000Z</time>
</trkpt>
<trkpt lat="57.521431" lon="9.924660">
<ele>18.606702</ele>
<time>2026-07-16T15:03:39.000Z</time>
</trkpt>
<trkpt lat="57.521428" lon="9.924752">
<ele>18.743763</ele>
<time>2026-07-16T15:03:40.000Z</time>
</trkpt>
<trkpt lat="57.521427" lon="9.924839">
<ele>18.873166</ele>
<time>2026-07-16T15:03:41.000Z</time>
</trkpt>
<trkpt lat="57.521427" lon="9.924928">
<ele>19.005513</ele>
<time>2026-07-16T15:03:42.000Z</time>
</trkpt>
<trkpt lat="57.521424" lon="9.925015">
<ele>19.135153</ele>
<time>2026-07-16T15:03:43.000Z</time>
</trkpt>
<trkpt lat="57.521423" lon="9.925102">
<ele>19.264556</ele>
<time>2026-07-16T15:03:44.000Z</time>
</trkpt>
<trkpt lat="57.521423" lon="9.925188">
<ele>19.392442</ele>
<time>2026-07-16T15:03:45.000Z</time>
</trkpt>
<trkpt lat="57.521423" lon="9.925275">
<ele>19.521816</ele>
<time>2026-07-16T15:03:46.000Z</time>
</trkpt>
<trkpt lat="57.521421" lon="9.925354">
<ele>19.639423</ele>
<time>2026-07-16T15:03:47.000Z</time>
</trkpt>
<trkpt lat="57.521420" lon="9.925440">
<ele>19.767339</ele>
<time>2026-07-16T15:03:48.000Z</time>
</trkpt>
<trkpt lat="57.521417" lon="9.925523">
<ele>19.891044</ele>
<time>2026-07-16T15:03:49.000Z</time>
</trkpt>
<trkpt lat="57.521413" lon="9.925604">
<ele>20.012003</ele>
<time>2026-07-16T15:03:50.000Z</time>
</trkpt>
<trkpt lat="57.521412" lon="9.925684">
<ele>20.130999</ele>
<time>2026-07-16T15:03:51.000Z</time>
</trkpt>
<trkpt lat="57.521412" lon="9.925762">
<ele>20.246989</ele>
<time>2026-07-16T15:03:52.000Z</time>
</trkpt>
<trkpt lat="57.521412" lon="9.925840">
<ele>20.362979</ele>
<time>2026-07-16T15:03:53.000Z</time>
</trkpt>
<trkpt lat="57.521409" lon="9.925918">
<ele>20.479266</ele>
<time>2026-07-16T15:03:54.000Z</time>
</trkpt>
<trkpt lat="57.521408" lon="9.925993">
<ele>20.590830</ele>
<time>2026-07-16T15:03:55.000Z</time>
</trkpt>
<trkpt lat="57.521408" lon="9.926070">
<ele>20.705332</ele>
<time>2026-07-16T15:03:56.000Z</time>
</trkpt>
<trkpt lat="57.521408" lon="9.926147">
<ele>20.819835</ele>
<time>2026-07-16T15:03:57.000Z</time>
</trkpt>
<trkpt lat="57.521408" lon="9.926222">
<ele>20.931364</ele>
<time>2026-07-16T15:03:58.000Z</time>
</trkpt>
<trkpt lat="57.521405" lon="9.926293">
<ele>21.037271</ele>
<time>2026-07-16T15:03:59.000Z</time>
</trkpt>
<trkpt lat="57.521404" lon="9.926367">
<ele>21.147348</ele>
<time>2026-07-16T15:04:00.000Z</time>
</trkpt>
<trkpt lat="57.521402" lon="9.926440">
<ele>21.256044</ele>
<time>2026-07-16T15:04:01.000Z</time>
</trkpt>
<trkpt lat="57.521400" lon="9.926514">
<ele>21.366225</ele>
<time>2026-07-16T15:04:02.000Z</time>
</trkpt>
<trkpt lat="57.521400" lon="9.926586">
<ele>21.473292</ele>
<time>2026-07-16T15:04:03.000Z</time>
</trkpt>
<trkpt lat="57.521398" lon="9.926659">
<ele>21.581988</ele>
<time>2026-07-16T15:04:04.000Z</time>
</trkpt>
<trkpt lat="57.521397" lon="9.926729">
<ele>21.686119</ele>
<time>2026-07-16T15:04:05.000Z</time>
</trkpt>
<trkpt lat="57.521394" lon="9.926800">
<ele>21.792026</ele>
<time>2026-07-16T15:04:06.000Z</time>
</trkpt>
<trkpt lat="57.521393" lon="9.926874">
<ele>21.922711</ele>
<time>2026-07-16T15:04:07.000Z</time>
</trkpt>
<trkpt lat="57.521393" lon="9.926945">
<ele>22.069311</ele>
<time>2026-07-16T15:04:08.000Z</time>
</trkpt>
<trkpt lat="57.521390" lon="9.927017">
<ele>22.218424</ele>
<time>2026-07-16T15:04:09.000Z</time>
</trkpt>
<trkpt lat="57.521389" lon="9.927093">
<ele>22.375395</ele>
<time>2026-07-16T15:04:10.000Z</time>
</trkpt>
<trkpt lat="57.521386" lon="9.927169">
<ele>22.532743</ele>
<time>2026-07-16T15:04:11.000Z</time>
</trkpt>
<trkpt lat="57.521382" lon="9.927246">
<ele>22.692475</ele>
<time>2026-07-16T15:04:12.000Z</time>
</trkpt>
<trkpt lat="57.521379" lon="9.927318">
<ele>22.841587</ele>
<time>2026-07-16T15:04:13.000Z</time>
</trkpt>
<trkpt lat="57.521378" lon="9.927392">
<ele>22.994431</ele>
<time>2026-07-16T15:04:14.000Z</time>
</trkpt>
<trkpt lat="57.521378" lon="9.927465">
<ele>23.145161</ele>
<time>2026-07-16T15:04:15.000Z</time>
</trkpt>
<trkpt lat="57.521378" lon="9.927538">
<ele>23.295891</ele>
<time>2026-07-16T15:04:16.000Z</time>
</trkpt>
<trkpt lat="57.521375" lon="9.927609">
<ele>23.442945</ele>
<time>2026-07-16T15:04:17.000Z</time>
</trkpt>
<trkpt lat="57.521374" lon="9.927682">
<ele>23.593724</ele>
<time>2026-07-16T15:04:18.000Z</time>
</trkpt>
<trkpt lat="57.521377" lon="9.927753">
<ele>23.740778</ele>
<time>2026-07-16T15:04:19.000Z</time>
</trkpt>
<trkpt lat="57.521375" lon="9.927823">
<ele>23.885518</ele>
<time>2026-07-16T15:04:20.000Z</time>
</trkpt>
<trkpt lat="57.521374" lon="9.927892">
<ele>24.028041</ele>
<time>2026-07-16T15:04:21.000Z</time>
</trkpt>
<trkpt lat="57.521374" lon="9.927962">
<ele>24.172577</ele>
<time>2026-07-16T15:04:22.000Z</time>
</trkpt>
<trkpt lat="57.521374" lon="9.928033">
<ele>24.319177</ele>
<time>2026-07-16T15:04:23.000Z</time>
</trkpt>
<trkpt lat="57.521374" lon="9.928103">
<ele>24.463713</ele>
<time>2026-07-16T15:04:24.000Z</time>
</trkpt>
<trkpt lat="57.521376" lon="9.928171">
<ele>24.604330</ele>
<time>2026-07-16T15:04:25.000Z</time>
</trkpt>
<trkpt lat="57.521380" lon="9.928242">
<ele>24.751735</ele>
<time>2026-07-16T15:04:26.000Z</time>
</trkpt>
<trkpt lat="57.521384" lon="9.928316">
<ele>24.905302</ele>
<time>2026-07-16T15:04:27.000Z</time>
</trkpt>
<trkpt lat="57.521388" lon="9.928390">
<ele>25.058870</ele>
<time>2026-07-16T15:04:28.000Z</time>
</trkpt>
<trkpt lat="57.521394" lon="9.928462">
<ele>25.209315</ele>
<time>2026-07-16T15:04:29.000Z</time>
</trkpt>
<trkpt lat="57.521402" lon="9.928536">
<ele>25.365175</ele>
<time>2026-07-16T15:04:30.000Z</time>
</trkpt>
<trkpt lat="57.521410" lon="9.928608">
<ele>25.516990</ele>
<time>2026-07-16T15:04:31.000Z</time>
</trkpt>
<trkpt lat="57.521417" lon="9.928681">
<ele>25.670104</ele>
<time>2026-07-16T15:04:32.000Z</time>
</trkpt>
<trkpt lat="57.521428" lon="9.928748">
<ele>25.814767</ele>
<time>2026-07-16T15:04:33.000Z</time>
</trkpt>
<trkpt lat="57.521439" lon="9.928818">
<ele>25.965364</ele>
<time>2026-07-16T15:04:34.000Z</time>
</trkpt>
<trkpt lat="57.521448" lon="9.928887">
<ele>26.111978</ele>
<time>2026-07-16T15:04:35.000Z</time>
</trkpt>
<trkpt lat="57.521456" lon="9.928956">
<ele>26.257732</ele>
<time>2026-07-16T15:04:36.000Z</time>
</trkpt>
<trkpt lat="57.521463" lon="9.929022">
<ele>26.396641</ele>
<time>2026-07-16T15:04:37.000Z</time>
</trkpt>
<trkpt lat="57.521474" lon="9.929086">
<ele>26.535391</ele>
<time>2026-07-16T15:04:38.000Z</time>
</trkpt>
<trkpt lat="57.521487" lon="9.929147">
<ele>26.670900</ele>
<time>2026-07-16T15:04:39.000Z</time>
</trkpt>
<trkpt lat="57.521503" lon="9.929216">
<ele>26.826087</ele>
<time>2026-07-16T15:04:40.000Z</time>
</trkpt>
<trkpt lat="57.521518" lon="9.929280">
<ele>26.970273</ele>
<time>2026-07-16T15:04:41.000Z</time>
</trkpt>
<trkpt lat="57.521533" lon="9.929337">
<ele>27.101339</ele>
<time>2026-07-16T15:04:42.000Z</time>
</trkpt>
<trkpt lat="57.521549" lon="9.929397">
<ele>27.239661</ele>
<time>2026-07-16T15:04:43.000Z</time>
</trkpt>
<trkpt lat="57.521567" lon="9.929458">
<ele>27.383377</ele>
<time>2026-07-16T15:04:44.000Z</time>
</trkpt>
<trkpt lat="57.521583" lon="9.929513">
<ele>27.512535</ele>
<time>2026-07-16T15:04:45.000Z</time>
</trkpt>
<trkpt lat="57.521601" lon="9.929562">
<ele>27.635118</ele>
<time>2026-07-16T15:04:46.000Z</time>
</trkpt>
<trkpt lat="57.521617" lon="9.929605">
<ele>27.743137</ele>
<time>2026-07-16T15:04:47.000Z</time>
</trkpt>
<trkpt lat="57.521633" lon="9.929649">
<ele>27.852858</ele>
<time>2026-07-16T15:04:48.000Z</time>
</trkpt>
<trkpt lat="57.521648" lon="9.929689">
<ele>27.953596</ele>
<time>2026-07-16T15:04:49.000Z</time>
</trkpt>
<trkpt lat="57.521663" lon="9.929729">
<ele>28.054333</ele>
<time>2026-07-16T15:04:50.000Z</time>
</trkpt>
<trkpt lat="57.521678" lon="9.929766">
<ele>28.150058</ele>
<time>2026-07-16T15:04:51.000Z</time>
</trkpt>
<trkpt lat="57.521696" lon="9.929808">
<ele>28.261012</ele>
<time>2026-07-16T15:04:52.000Z</time>
</trkpt>
<trkpt lat="57.521710" lon="9.929857">
<ele>28.375617</ele>
<time>2026-07-16T15:04:53.000Z</time>
</trkpt>
<trkpt lat="57.521727" lon="9.929914">
<ele>28.510244</ele>
<time>2026-07-16T15:04:54.000Z</time>
</trkpt>
<trkpt lat="57.521743" lon="9.929965">
<ele>28.632202</ele>
<time>2026-07-16T15:04:55.000Z</time>
</trkpt>
<trkpt lat="57.521756" lon="9.930012">
<ele>28.741364</ele>
<time>2026-07-16T15:04:56.000Z</time>
</trkpt>
<trkpt lat="57.521770" lon="9.930064">
<ele>28.795975</ele>
<time>2026-07-16T15:04:57.000Z</time>
</trkpt>
<trkpt lat="57.521788" lon="9.930123">
<ele>28.840819</ele>
<time>2026-07-16T15:04:58.000Z</time>
</trkpt>
<trkpt lat="57.521804" lon="9.930175">
<ele>28.880425</ele>
<time>2026-07-16T15:04:59.000Z</time>
</trkpt>
<trkpt lat="57.521825" lon="9.930227">
<ele>28.923423</ele>
<time>2026-07-16T15:05:00.000Z</time>
</trkpt>
<trkpt lat="57.521848" lon="9.930281">
<ele>28.968971</ele>
<time>2026-07-16T15:05:01.000Z</time>
</trkpt>
<trkpt lat="57.521874" lon="9.930333">
<ele>29.015926</ele>
<time>2026-07-16T15:05:02.000Z</time>
</trkpt>
<trkpt lat="57.521900" lon="9.930382">
<ele>29.061450</ele>
<time>2026-07-16T15:05:03.000Z</time>
</trkpt>
<trkpt lat="57.521930" lon="9.930433">
<ele>29.111440</ele>
<time>2026-07-16T15:05:04.000Z</time>
</trkpt>
<trkpt lat="57.521957" lon="9.930481">
<ele>29.157378</ele>
<time>2026-07-16T15:05:05.000Z</time>
</trkpt>
<trkpt lat="57.521984" lon="9.930528">
<ele>29.202863</ele>
<time>2026-07-16T15:05:06.000Z</time>
</trkpt>
<trkpt lat="57.522010" lon="9.930571">
<ele>29.245657</ele>
<time>2026-07-16T15:05:07.000Z</time>
</trkpt>
<trkpt lat="57.522043" lon="9.930613">
<ele>29.294848</ele>
<time>2026-07-16T15:05:08.000Z</time>
</trkpt>
<trkpt lat="57.522075" lon="9.930651">
<ele>29.341554</ele>
<time>2026-07-16T15:05:09.000Z</time>
</trkpt>
<trkpt lat="57.522108" lon="9.930690">
<ele>29.389654</ele>
<time>2026-07-16T15:05:10.000Z</time>
</trkpt>
<trkpt lat="57.522143" lon="9.930726">
<ele>29.438861</ele>
<time>2026-07-16T15:05:11.000Z</time>
</trkpt>
<trkpt lat="57.522179" lon="9.930761">
<ele>29.488840</ele>
<time>2026-07-16T15:05:12.000Z</time>
</trkpt>
<trkpt lat="57.522214" lon="9.930797">
<ele>29.538047</ele>
<time>2026-07-16T15:05:13.000Z</time>
</trkpt>
<trkpt lat="57.522255" lon="9.930840">
<ele>29.595956</ele>
<time>2026-07-16T15:05:14.000Z</time>
</trkpt>
<trkpt lat="57.522296" lon="9.930881">
<ele>29.653228</ele>
<time>2026-07-16T15:05:15.000Z</time>
</trkpt>
<trkpt lat="57.522335" lon="9.930915">
<ele>29.706224</ele>
<time>2026-07-16T15:05:16.000Z</time>
</trkpt>
<trkpt lat="57.522374" lon="9.930950">
<ele>29.759502</ele>
<time>2026-07-16T15:05:17.000Z</time>
</trkpt>
<trkpt lat="57.522415" lon="9.930988">
<ele>29.815864</ele>
<time>2026-07-16T15:05:18.000Z</time>
</trkpt>
<trkpt lat="57.522457" lon="9.931027">
<ele>29.873621</ele>
<time>2026-07-16T15:05:19.000Z</time>
</trkpt>
<trkpt lat="57.522495" lon="9.931065">
<ele>29.926703</ele>
<time>2026-07-16T15:05:20.000Z</time>
</trkpt>
<trkpt lat="57.522534" lon="9.931104">
<ele>29.981181</ele>
<time>2026-07-16T15:05:21.000Z</time>
</trkpt>
<trkpt lat="57.522572" lon="9.931142">
<ele>30.034262</ele>
<time>2026-07-16T15:05:22.000Z</time>
</trkpt>
<trkpt lat="57.522608" lon="9.931175">
<ele>30.083643</ele>
<time>2026-07-16T15:05:23.000Z</time>
</trkpt>
<trkpt lat="57.522642" lon="9.931203">
<ele>30.129395</ele>
<time>2026-07-16T15:05:24.000Z</time>
</trkpt>
<trkpt lat="57.522679" lon="9.931229">
<ele>30.178064</ele>
<time>2026-07-16T15:05:25.000Z</time>
</trkpt>
<trkpt lat="57.522711" lon="9.931251">
<ele>30.220043</ele>
<time>2026-07-16T15:05:26.000Z</time>
</trkpt>
<trkpt lat="57.522737" lon="9.931269">
<ele>30.254180</ele>
<time>2026-07-16T15:05:27.000Z</time>
</trkpt>
<trkpt lat="57.522757" lon="9.931290">
<ele>30.282436</ele>
<time>2026-07-16T15:05:28.000Z</time>
</trkpt>
<trkpt lat="57.522776" lon="9.931312">
<ele>30.309970</ele>
<time>2026-07-16T15:05:29.000Z</time>
</trkpt>
<trkpt lat="57.522797" lon="9.931330">
<ele>30.338421</ele>
<time>2026-07-16T15:05:30.000Z</time>
</trkpt>
<trkpt lat="57.522818" lon="9.931350">
<ele>30.367448</ele>
<time>2026-07-16T15:05:31.000Z</time>
</trkpt>
<trkpt lat="57.522846" lon="9.931380">
<ele>30.407203</ele>
<time>2026-07-16T15:05:32.000Z</time>
</trkpt>
<trkpt lat="57.522873" lon="9.931405">
<ele>30.444312</ele>
<time>2026-07-16T15:05:33.000Z</time>
</trkpt>
<trkpt lat="57.522896" lon="9.931427">
<ele>30.476133</ele>
<time>2026-07-16T15:05:34.000Z</time>
</trkpt>
<trkpt lat="57.522920" lon="9.931448">
<ele>30.508767</ele>
<time>2026-07-16T15:05:35.000Z</time>
</trkpt>
<trkpt lat="57.522940" lon="9.931467">
<ele>30.536398</ele>
<time>2026-07-16T15:05:36.000Z</time>
</trkpt>
<trkpt lat="57.522962" lon="9.931486">
<ele>30.566242</ele>
<time>2026-07-16T15:05:37.000Z</time>
</trkpt>
<trkpt lat="57.522987" lon="9.931517">
<ele>30.603205</ele>
<time>2026-07-16T15:05:38.000Z</time>
</trkpt>
<trkpt lat="57.523022" lon="9.931565">
<ele>30.656698</ele>
<time>2026-07-16T15:05:39.000Z</time>
</trkpt>
<trkpt lat="57.523071" lon="9.931627">
<ele>30.729603</ele>
<time>2026-07-16T15:05:40.000Z</time>
</trkpt>
<trkpt lat="57.523106" lon="9.931681">
<ele>30.785538</ele>
<time>2026-07-16T15:05:41.000Z</time>
</trkpt>
<trkpt lat="57.523124" lon="9.931735">
<ele>30.827539</ele>
<time>2026-07-16T15:05:42.000Z</time>
</trkpt>
<trkpt lat="57.523148" lon="9.931805">
<ele>30.882423</ele>
<time>2026-07-16T15:05:43.000Z</time>
</trkpt>
<trkpt lat="57.523169" lon="9.931872">
<ele>30.933689</ele>
<time>2026-07-16T15:05:44.000Z</time>
</trkpt>
<trkpt lat="57.523191" lon="9.931933">
<ele>30.977888</ele>
<time>2026-07-16T15:05:45.000Z</time>
</trkpt>
<trkpt lat="57.523216" lon="9.931978">
<ele>30.968134</ele>
<time>2026-07-16T15:05:46.000Z</time>
</trkpt>
<trkpt lat="57.523273" lon="9.932031">
<ele>30.950261</ele>
<time>2026-07-16T15:05:47.000Z</time>
</trkpt>
<trkpt lat="57.523312" lon="9.932077">
<ele>30.937310</ele>
<time>2026-07-16T15:05:48.000Z</time>
</trkpt>
<trkpt lat="57.523336" lon="9.932120">
<ele>30.927967</ele>
<time>2026-07-16T15:05:49.000Z</time>
</trkpt>
<trkpt lat="57.523361" lon="9.932165">
<ele>30.918213</ele>
<time>2026-07-16T15:05:50.000Z</time>
</trkpt>
<trkpt lat="57.523413" lon="9.932245">
<ele>30.899291</ele>
<time>2026-07-16T15:05:51.000Z</time>
</trkpt>
<trkpt lat="57.523462" lon="9.932335">
<ele>30.879984</ele>
<time>2026-07-16T15:05:52.000Z</time>
</trkpt>
<trkpt lat="57.523511" lon="9.932435">
<ele>30.859590</ele>
<time>2026-07-16T15:05:53.000Z</time>
</trkpt>
<trkpt lat="57.523553" lon="9.932554">
<ele>30.838139</ele>
<time>2026-07-16T15:05:54.000Z</time>
</trkpt>
<trkpt lat="57.523586" lon="9.932686">
<ele>30.816205</ele>
<time>2026-07-16T15:05:55.000Z</time>
</trkpt>
<trkpt lat="57.523635" lon="9.932821">
<ele>30.791659</ele>
<time>2026-07-16T15:05:56.000Z</time>
</trkpt>
<trkpt lat="57.523697" lon="9.932970">
<ele>30.763263</ele>
<time>2026-07-16T15:05:57.000Z</time>
</trkpt>
<trkpt lat="57.523735" lon="9.933126">
<ele>30.737458</ele>
<time>2026-07-16T15:05:58.000Z</time>
</trkpt>
<trkpt lat="57.523751" lon="9.933266">
<ele>30.715897</ele>
<time>2026-07-16T15:05:59.000Z</time>
</trkpt>
<trkpt lat="57.523765" lon="9.933403">
<ele>30.694889</ele>
<time>2026-07-16T15:06:00.000Z</time>
</trkpt>
<trkpt lat="57.523780" lon="9.933541">
<ele>30.673680</ele>
<time>2026-07-16T15:06:01.000Z</time>
</trkpt>
<trkpt lat="57.523798" lon="9.933667">
<ele>30.654039</ele>
<time>2026-07-16T15:06:02.000Z</time>
</trkpt>
<trkpt lat="57.523812" lon="9.933786">
<ele>30.635688</ele>
<time>2026-07-16T15:06:03.000Z</time>
</trkpt>
<trkpt lat="57.523826" lon="9.933903">
<ele>30.617631</ele>
<time>2026-07-16T15:06:04.000Z</time>
</trkpt>
<trkpt lat="57.523833" lon="9.934016">
<ele>30.600496</ele>
<time>2026-07-16T15:06:05.000Z</time>
</trkpt>
<trkpt lat="57.523837" lon="9.934122">
<ele>30.584489</ele>
<time>2026-07-16T15:06:06.000Z</time>
</trkpt>
<trkpt lat="57.523843" lon="9.934223">
<ele>30.569182</ele>
<time>2026-07-16T15:06:07.000Z</time>
</trkpt>
<trkpt lat="57.523851" lon="9.934324">
<ele>30.553803</ele>
<time>2026-07-16T15:06:08.000Z</time>
</trkpt>
<trkpt lat="57.523856" lon="9.934418">
<ele>30.539574</ele>
<time>2026-07-16T15:06:09.000Z</time>
</trkpt>
<trkpt lat="57.523860" lon="9.934507">
<ele>30.526120</ele>
<time>2026-07-16T15:06:10.000Z</time>
</trkpt>
<trkpt lat="57.523874" lon="9.934598">
<ele>30.511861</ele>
<time>2026-07-16T15:06:11.000Z</time>
</trkpt>
<trkpt lat="57.523899" lon="9.934703">
<ele>30.494559</ele>
<time>2026-07-16T15:06:12.000Z</time>
</trkpt>
<trkpt lat="57.523915" lon="9.934800">
<ele>30.479273</ele>
<time>2026-07-16T15:06:13.000Z</time>
</trkpt>
<trkpt lat="57.523924" lon="9.934914">
<ele>30.506507</ele>
<time>2026-07-16T15:06:14.000Z</time>
</trkpt>
<trkpt lat="57.523931" lon="9.935024">
<ele>30.550879</ele>
<time>2026-07-16T15:06:15.000Z</time>
</trkpt>
<trkpt lat="57.523936" lon="9.935126">
<ele>30.591907</ele>
<time>2026-07-16T15:06:16.000Z</time>
</trkpt>
<trkpt lat="57.523942" lon="9.935216">
<ele>30.628236</ele>
<time>2026-07-16T15:06:17.000Z</time>
</trkpt>
<trkpt lat="57.523956" lon="9.935322">
<ele>30.671962</ele>
<time>2026-07-16T15:06:18.000Z</time>
</trkpt>
<trkpt lat="57.523965" lon="9.935438">
<ele>30.718911</ele>
<time>2026-07-16T15:06:19.000Z</time>
</trkpt>
<trkpt lat="57.523965" lon="9.935556">
<ele>30.766179</ele>
<time>2026-07-16T15:06:20.000Z</time>
</trkpt>
<trkpt lat="57.523958" lon="9.935680">
<ele>30.816124</ele>
<time>2026-07-16T15:06:21.000Z</time>
</trkpt>
<trkpt lat="57.523948" lon="9.935800">
<ele>30.864768</ele>
<time>2026-07-16T15:06:22.000Z</time>
</trkpt>
<trkpt lat="57.523939" lon="9.935914">
<ele>30.910925</ele>
<time>2026-07-16T15:06:23.000Z</time>
</trkpt>
<trkpt lat="57.523934" lon="9.936028">
<ele>30.956742</ele>
<time>2026-07-16T15:06:24.000Z</time>
</trkpt>
<trkpt lat="57.523931" lon="9.936135">
<ele>30.999662</ele>
<time>2026-07-16T15:06:25.000Z</time>
</trkpt>
<trkpt lat="57.523924" lon="9.936241">
<ele>31.042443</ele>
<time>2026-07-16T15:06:26.000Z</time>
</trkpt>
<trkpt lat="57.523919" lon="9.936339">
<ele>31.081876</ele>
<time>2026-07-16T15:06:27.000Z</time>
</trkpt>
<trkpt lat="57.523910" lon="9.936444">
<ele>31.124469</ele>
<time>2026-07-16T15:06:28.000Z</time>
</trkpt>
<trkpt lat="57.523896" lon="9.936550">
<ele>31.168196</ele>
<time>2026-07-16T15:06:29.000Z</time>
</trkpt>
<trkpt lat="57.523889" lon="9.936653">
<ele>31.209784</ele>
<time>2026-07-16T15:06:30.000Z</time>
</trkpt>
<trkpt lat="57.523882" lon="9.936755">
<ele>31.250975</ele>
<time>2026-07-16T15:06:31.000Z</time>
</trkpt>
<trkpt lat="57.523877" lon="9.936859">
<ele>31.292801</ele>
<time>2026-07-16T15:06:32.000Z</time>
</trkpt>
<trkpt lat="57.523873" lon="9.936957">
<ele>31.332171</ele>
<time>2026-07-16T15:06:33.000Z</time>
</trkpt>
<trkpt lat="57.523867" lon="9.937055">
<ele>31.371682</ele>
<time>2026-07-16T15:06:34.000Z</time>
</trkpt>
<trkpt lat="57.523859" lon="9.937156">
<ele>31.412578</ele>
<time>2026-07-16T15:06:35.000Z</time>
</trkpt>
<trkpt lat="57.523851" lon="9.937259">
<ele>31.454266</ele>
<time>2026-07-16T15:06:36.000Z</time>
</trkpt>
<trkpt lat="57.523844" lon="9.937359">
<ele>31.494663</ele>
<time>2026-07-16T15:06:37.000Z</time>
</trkpt>
<trkpt lat="57.523839" lon="9.937462">
<ele>31.536090</ele>
<time>2026-07-16T15:06:38.000Z</time>
</trkpt>
<trkpt lat="57.523833" lon="9.937565">
<ele>31.577592</ele>
<time>2026-07-16T15:06:39.000Z</time>
</trkpt>
<trkpt lat="57.523828" lon="9.937667">
<ele>31.618620</ele>
<time>2026-07-16T15:06:40.000Z</time>
</trkpt>
<trkpt lat="57.523824" lon="9.937768">
<ele>31.659188</ele>
<time>2026-07-16T15:06:41.000Z</time>
</trkpt>
<trkpt lat="57.523817" lon="9.937867">
<ele>31.699188</ele>
<time>2026-07-16T15:06:42.000Z</time>
</trkpt>
<trkpt lat="57.523815" lon="9.937962">
<ele>31.737272</ele>
<time>2026-07-16T15:06:43.000Z</time>
</trkpt>
<trkpt lat="57.523821" lon="9.938057">
<ele>31.775589</ele>
<time>2026-07-16T15:06:44.000Z</time>
</trkpt>
<trkpt lat="57.523825" lon="9.938157">
<ele>31.815757</ele>
<time>2026-07-16T15:06:45.000Z</time>
</trkpt>
<trkpt lat="57.523829" lon="9.938258">
<ele>31.825667</ele>
<time>2026-07-16T15:06:46.000Z</time>
</trkpt>
<trkpt lat="57.523839" lon="9.938357">
<ele>31.835394</ele>
<time>2026-07-16T15:06:47.000Z</time>
</trkpt>
<trkpt lat="57.523853" lon="9.938452">
<ele>31.844906</ele>
<time>2026-07-16T15:06:48.000Z</time>
</trkpt>
<trkpt lat="57.523868" lon="9.938543">
<ele>31.854098</ele>
<time>2026-07-16T15:06:49.000Z</time>
</trkpt>
<trkpt lat="57.523886" lon="9.938636">
<ele>31.863643</ele>
<time>2026-07-16T15:06:50.000Z</time>
</trkpt>
<trkpt lat="57.523903" lon="9.938729">
<ele>31.873130</ele>
<time>2026-07-16T15:06:51.000Z</time>
</trkpt>
<trkpt lat="57.523921" lon="9.938820">
<ele>31.882494</ele>
<time>2026-07-16T15:06:52.000Z</time>
</trkpt>
<trkpt lat="57.523940" lon="9.938911">
<ele>31.891922</ele>
<time>2026-07-16T15:06:53.000Z</time>
</trkpt>
<trkpt lat="57.523956" lon="9.939003">
<ele>31.901259</ele>
<time>2026-07-16T15:06:54.000Z</time>
</trkpt>
<trkpt lat="57.523971" lon="9.939097">
<ele>31.910728</ele>
<time>2026-07-16T15:06:55.000Z</time>
</trkpt>
<trkpt lat="57.523986" lon="9.939190">
<ele>31.920105</ele>
<time>2026-07-16T15:06:56.000Z</time>
</trkpt>
<trkpt lat="57.524005" lon="9.939286">
<ele>31.929984</ele>
<time>2026-07-16T15:06:57.000Z</time>
</trkpt>
<trkpt lat="57.524018" lon="9.939367">
<ele>31.938147</ele>
<time>2026-07-16T15:06:58.000Z</time>
</trkpt>
<trkpt lat="57.524034" lon="9.939470">
<ele>31.948501</ele>
<time>2026-07-16T15:06:59.000Z</time>
</trkpt>
<trkpt lat="57.524049" lon="9.939580">
<ele>31.959459</ele>
<time>2026-07-16T15:07:00.000Z</time>
</trkpt>
<trkpt lat="57.524065" lon="9.939676">
<ele>31.969165</ele>
<time>2026-07-16T15:07:01.000Z</time>
</trkpt>
<trkpt lat="57.524079" lon="9.939769">
<ele>31.978492</ele>
<time>2026-07-16T15:07:02.000Z</time>
</trkpt>
<trkpt lat="57.524091" lon="9.939851">
<ele>31.986698</ele>
<time>2026-07-16T15:07:03.000Z</time>
</trkpt>
<trkpt lat="57.524110" lon="9.939928">
<ele>31.994881</ele>
<time>2026-07-16T15:07:04.000Z</time>
</trkpt>
<trkpt lat="57.524128" lon="9.940012">
<ele>32.003614</ele>
<time>2026-07-16T15:07:05.000Z</time>
</trkpt>
<trkpt lat="57.524146" lon="9.940095">
<ele>32.012257</ele>
<time>2026-07-16T15:07:06.000Z</time>
</trkpt>
<trkpt lat="57.524162" lon="9.940171">
<ele>32.020140</ele>
<time>2026-07-16T15:07:07.000Z</time>
</trkpt>
<trkpt lat="57.524180" lon="9.940251">
<ele>32.028515</ele>
<time>2026-07-16T15:07:08.000Z</time>
</trkpt>
<trkpt lat="57.524191" lon="9.940329">
<ele>32.036302</ele>
<time>2026-07-16T15:07:09.000Z</time>
</trkpt>
<trkpt lat="57.524198" lon="9.940407">
<ele>32.043938</ele>
<time>2026-07-16T15:07:10.000Z</time>
</trkpt>
<trkpt lat="57.524209" lon="9.940472">
<ele>32.050519</ele>
<time>2026-07-16T15:07:11.000Z</time>
</trkpt>
<trkpt lat="57.524220" lon="9.940541">
<ele>32.057469</ele>
<time>2026-07-16T15:07:12.000Z</time>
</trkpt>
<trkpt lat="57.524231" lon="9.940631">
<ele>32.066381</ele>
<time>2026-07-16T15:07:13.000Z</time>
</trkpt>
<trkpt lat="57.524246" lon="9.940741">
<ele>32.077340</ele>
<time>2026-07-16T15:07:14.000Z</time>
</trkpt>
<trkpt lat="57.524267" lon="9.940858">
<ele>32.089252</ele>
<time>2026-07-16T15:07:15.000Z</time>
</trkpt>
<trkpt lat="57.524276" lon="9.941003">
<ele>32.103346</ele>
<time>2026-07-16T15:07:16.000Z</time>
</trkpt>
<trkpt lat="57.524293" lon="9.941138">
<ele>32.116735</ele>
<time>2026-07-16T15:07:17.000Z</time>
</trkpt>
<trkpt lat="57.524313" lon="9.941258">
<ele>32.128868</ele>
<time>2026-07-16T15:07:18.000Z</time>
</trkpt>
<trkpt lat="57.524335" lon="9.941373">
<ele>32.133745</ele>
<time>2026-07-16T15:07:19.000Z</time>
</trkpt>
<trkpt lat="57.524342" lon="9.941531">
<ele>32.066129</ele>
<time>2026-07-16T15:07:20.000Z</time>
</trkpt>
<trkpt lat="57.524352" lon="9.941696">
<ele>31.995309</ele>
<time>2026-07-16T15:07:21.000Z</time>
</trkpt>
<trkpt lat="57.524364" lon="9.941838">
<ele>31.934001</ele>
<time>2026-07-16T15:07:22.000Z</time>
</trkpt>
<trkpt lat="57.524379" lon="9.941979">
<ele>31.872695</ele>
<time>2026-07-16T15:07:23.000Z</time>
</trkpt>
<trkpt lat="57.524398" lon="9.942105">
<ele>31.816877</ele>
<time>2026-07-16T15:07:24.000Z</time>
</trkpt>
<trkpt lat="57.524417" lon="9.942225">
<ele>31.763518</ele>
<time>2026-07-16T15:07:25.000Z</time>
</trkpt>
<trkpt lat="57.524433" lon="9.942344">
<ele>31.711197</ele>
<time>2026-07-16T15:07:26.000Z</time>
</trkpt>
<trkpt lat="57.524448" lon="9.942462">
<ele>31.659479</ele>
<time>2026-07-16T15:07:27.000Z</time>
</trkpt>
<trkpt lat="57.524463" lon="9.942587">
<ele>31.604851</ele>
<time>2026-07-16T15:07:28.000Z</time>
</trkpt>
<trkpt lat="57.524481" lon="9.942713">
<ele>31.549243</ele>
<time>2026-07-16T15:07:29.000Z</time>
</trkpt>
<trkpt lat="57.524503" lon="9.942843">
<ele>31.491109</ele>
<time>2026-07-16T15:07:30.000Z</time>
</trkpt>
<trkpt lat="57.524523" lon="9.942969">
<ele>31.435071</ele>
<time>2026-07-16T15:07:31.000Z</time>
</trkpt>
<trkpt lat="57.524542" lon="9.943088">
<ele>31.382121</ele>
<time>2026-07-16T15:07:32.000Z</time>
</trkpt>
<trkpt lat="57.524561" lon="9.943207">
<ele>31.329172</ele>
<time>2026-07-16T15:07:33.000Z</time>
</trkpt>
<trkpt lat="57.524581" lon="9.943327">
<ele>31.275583</ele>
<time>2026-07-16T15:07:34.000Z</time>
</trkpt>
<trkpt lat="57.524600" lon="9.943442">
<ele>31.224266</ele>
<time>2026-07-16T15:07:35.000Z</time>
</trkpt>
<trkpt lat="57.524622" lon="9.943556">
<ele>31.172600</ele>
<time>2026-07-16T15:07:36.000Z</time>
</trkpt>
<trkpt lat="57.524641" lon="9.943670">
<ele>31.121691</ele>
<time>2026-07-16T15:07:37.000Z</time>
</trkpt>
<trkpt lat="57.524663" lon="9.943782">
<ele>31.070827</ele>
<time>2026-07-16T15:07:38.000Z</time>
</trkpt>
<trkpt lat="57.524683" lon="9.943894">
<ele>31.020487</ele>
<time>2026-07-16T15:07:39.000Z</time>
</trkpt>
<trkpt lat="57.524699" lon="9.944005">
<ele>30.971469</ele>
<time>2026-07-16T15:07:40.000Z</time>
</trkpt>
<trkpt lat="57.524717" lon="9.944122">
<ele>30.919561</ele>
<time>2026-07-16T15:07:41.000Z</time>
</trkpt>
<trkpt lat="57.524737" lon="9.944240">
<ele>30.866787</ele>
<time>2026-07-16T15:07:42.000Z</time>
</trkpt>
<trkpt lat="57.524756" lon="9.944353">
<ele>30.816285</ele>
<time>2026-07-16T15:07:43.000Z</time>
</trkpt>
<trkpt lat="57.524775" lon="9.944465">
<ele>30.766190</ele>
<time>2026-07-16T15:07:44.000Z</time>
</trkpt>
<trkpt lat="57.524794" lon="9.944576">
<ele>30.716501</ele>
<time>2026-07-16T15:07:45.000Z</time>
</trkpt>
<trkpt lat="57.524813" lon="9.944682">
<ele>30.722850</ele>
<time>2026-07-16T15:07:46.000Z</time>
</trkpt>
<trkpt lat="57.524835" lon="9.944788">
<ele>30.736938</ele>
<time>2026-07-16T15:07:47.000Z</time>
</trkpt>
<trkpt lat="57.524863" lon="9.944890">
<ele>30.751140</ele>
<time>2026-07-16T15:07:48.000Z</time>
</trkpt>
<trkpt lat="57.524894" lon="9.944987">
<ele>30.765134</ele>
<time>2026-07-16T15:07:49.000Z</time>
</trkpt>
<trkpt lat="57.524921" lon="9.945083">
<ele>30.778569</ele>
<time>2026-07-16T15:07:50.000Z</time>
</trkpt>
<trkpt lat="57.524943" lon="9.945183">
<ele>30.791966</ele>
<time>2026-07-16T15:07:51.000Z</time>
</trkpt>
<trkpt lat="57.524962" lon="9.945277">
<ele>30.804418</ele>
<time>2026-07-16T15:07:52.000Z</time>
</trkpt>
<trkpt lat="57.524984" lon="9.945370">
<ele>30.817016</ele>
<time>2026-07-16T15:07:53.000Z</time>
</trkpt>
<trkpt lat="57.525004" lon="9.945456">
<ele>30.828635</ele>
<time>2026-07-16T15:07:54.000Z</time>
</trkpt>
<trkpt lat="57.525023" lon="9.945545">
<ele>30.840508</ele>
<time>2026-07-16T15:07:55.000Z</time>
</trkpt>
<trkpt lat="57.525039" lon="9.945637">
<ele>30.852496</ele>
<time>2026-07-16T15:07:56.000Z</time>
</trkpt>
<trkpt lat="57.525057" lon="9.945730">
<ele>30.864752</ele>
<time>2026-07-16T15:07:57.000Z</time>
</trkpt>
<trkpt lat="57.525076" lon="9.945826">
<ele>30.877436</ele>
<time>2026-07-16T15:07:58.000Z</time>
</trkpt>
<trkpt lat="57.525095" lon="9.945919">
<ele>30.889771</ele>
<time>2026-07-16T15:07:59.000Z</time>
</trkpt>
<trkpt lat="57.525114" lon="9.946015">
<ele>30.902455</ele>
<time>2026-07-16T15:08:00.000Z</time>
</trkpt>
<trkpt lat="57.525134" lon="9.946109">
<ele>30.914990</ele>
<time>2026-07-16T15:08:01.000Z</time>
</trkpt>
<trkpt lat="57.525153" lon="9.946200">
<ele>30.927094</ele>
<time>2026-07-16T15:08:02.000Z</time>
</trkpt>
<trkpt lat="57.525171" lon="9.946289">
<ele>30.938884</ele>
<time>2026-07-16T15:08:03.000Z</time>
</trkpt>
<trkpt lat="57.525191" lon="9.946377">
<ele>30.950730</ele>
<time>2026-07-16T15:08:04.000Z</time>
</trkpt>
<trkpt lat="57.525210" lon="9.946465">
<ele>30.962488</ele>
<time>2026-07-16T15:08:05.000Z</time>
</trkpt>
<trkpt lat="57.525226" lon="9.946555">
<ele>30.974241</ele>
<time>2026-07-16T15:08:06.000Z</time>
</trkpt>
<trkpt lat="57.525242" lon="9.946647">
<ele>30.986230</ele>
<time>2026-07-16T15:08:07.000Z</time>
</trkpt>
<trkpt lat="57.525257" lon="9.946736">
<ele>30.997794</ele>
<time>2026-07-16T15:08:08.000Z</time>
</trkpt>
<trkpt lat="57.525269" lon="9.946827">
<ele>31.009410</ele>
<time>2026-07-16T15:08:09.000Z</time>
</trkpt>
<trkpt lat="57.525283" lon="9.946916">
<ele>31.020907</ele>
<time>2026-07-16T15:08:10.000Z</time>
</trkpt>
<trkpt lat="57.525296" lon="9.947005">
<ele>31.032341</ele>
<time>2026-07-16T15:08:11.000Z</time>
</trkpt>
<trkpt lat="57.525307" lon="9.947092">
<ele>31.043421</ele>
<time>2026-07-16T15:08:12.000Z</time>
</trkpt>
<trkpt lat="57.525316" lon="9.947179">
<ele>31.054405</ele>
<time>2026-07-16T15:08:13.000Z</time>
</trkpt>
<trkpt lat="57.525323" lon="9.947271">
<ele>31.065924</ele>
<time>2026-07-16T15:08:14.000Z</time>
</trkpt>
<trkpt lat="57.525331" lon="9.947361">
<ele>31.077233</ele>
<time>2026-07-16T15:08:15.000Z</time>
</trkpt>
<trkpt lat="57.525336" lon="9.947446">
<ele>31.087833</ele>
<time>2026-07-16T15:08:16.000Z</time>
</trkpt>
<trkpt lat="57.525345" lon="9.947530">
<ele>31.098452</ele>
<time>2026-07-16T15:08:17.000Z</time>
</trkpt>
<trkpt lat="57.525357" lon="9.947608">
<ele>31.108511</ele>
<time>2026-07-16T15:08:18.000Z</time>
</trkpt>
<trkpt lat="57.525363" lon="9.947690">
<ele>31.118770</ele>
<time>2026-07-16T15:08:19.000Z</time>
</trkpt>
<trkpt lat="57.525364" lon="9.947779">
<ele>31.146768</ele>
<time>2026-07-16T15:08:20.000Z</time>
</trkpt>
<trkpt lat="57.525364" lon="9.947867">
<ele>31.205875</ele>
<time>2026-07-16T15:08:21.000Z</time>
</trkpt>
<trkpt lat="57.525361" lon="9.947958">
<ele>31.267111</ele>
<time>2026-07-16T15:08:22.000Z</time>
</trkpt>
<trkpt lat="57.525360" lon="9.948046">
<ele>31.326231</ele>
<time>2026-07-16T15:08:23.000Z</time>
</trkpt>
<trkpt lat="57.525357" lon="9.948136">
<ele>31.386797</ele>
<time>2026-07-16T15:08:24.000Z</time>
</trkpt>
<trkpt lat="57.525351" lon="9.948225">
<ele>31.447044</ele>
<time>2026-07-16T15:08:25.000Z</time>
</trkpt>
<trkpt lat="57.525340" lon="9.948312">
<ele>31.507077</ele>
<time>2026-07-16T15:08:26.000Z</time>
</trkpt>
<trkpt lat="57.525329" lon="9.948401">
<ele>31.568419</ele>
<time>2026-07-16T15:08:27.000Z</time>
</trkpt>
<trkpt lat="57.525318" lon="9.948489">
<ele>31.629106</ele>
<time>2026-07-16T15:08:28.000Z</time>
</trkpt>
<trkpt lat="57.525306" lon="9.948579">
<ele>31.691392</ele>
<time>2026-07-16T15:08:29.000Z</time>
</trkpt>
<trkpt lat="57.525295" lon="9.948667">
<ele>31.752079</ele>
<time>2026-07-16T15:08:30.000Z</time>
</trkpt>
<trkpt lat="57.525280" lon="9.948753">
<ele>31.812813</ele>
<time>2026-07-16T15:08:31.000Z</time>
</trkpt>
<trkpt lat="57.525265" lon="9.948840">
<ele>31.874187</ele>
<time>2026-07-16T15:08:32.000Z</time>
</trkpt>
<trkpt lat="57.525253" lon="9.948924">
<ele>31.932570</ele>
<time>2026-07-16T15:08:33.000Z</time>
</trkpt>
<trkpt lat="57.525238" lon="9.949006">
<ele>31.990755</ele>
<time>2026-07-16T15:08:34.000Z</time>
</trkpt>
<trkpt lat="57.525223" lon="9.949086">
<ele>32.047670</ele>
<time>2026-07-16T15:08:35.000Z</time>
</trkpt>
<trkpt lat="57.525208" lon="9.949164">
<ele>32.103319</ele>
<time>2026-07-16T15:08:36.000Z</time>
</trkpt>
<trkpt lat="57.525193" lon="9.949237">
<ele>32.155819</ele>
<time>2026-07-16T15:08:37.000Z</time>
</trkpt>
<trkpt lat="57.525179" lon="9.949297">
<ele>32.199760</ele>
<time>2026-07-16T15:08:38.000Z</time>
</trkpt>
<trkpt lat="57.525166" lon="9.949362">
<ele>32.246349</ele>
<time>2026-07-16T15:08:39.000Z</time>
</trkpt>
<trkpt lat="57.525156" lon="9.949425">
<ele>32.290474</ele>
<time>2026-07-16T15:08:40.000Z</time>
</trkpt>
<trkpt lat="57.525146" lon="9.949485">
<ele>32.332671</ele>
<time>2026-07-16T15:08:41.000Z</time>
</trkpt>
<trkpt lat="57.525137" lon="9.949541">
<ele>32.371933</ele>
<time>2026-07-16T15:08:42.000Z</time>
</trkpt>
<trkpt lat="57.525127" lon="9.949591">
<ele>32.407771</ele>
<time>2026-07-16T15:08:43.000Z</time>
</trkpt>
<trkpt lat="57.525118" lon="9.949642">
<ele>32.443828</ele>
<time>2026-07-16T15:08:44.000Z</time>
</trkpt>
<trkpt lat="57.525113" lon="9.949690">
<ele>32.476670</ele>
<time>2026-07-16T15:08:45.000Z</time>
</trkpt>
<trkpt lat="57.525107" lon="9.949732">
<ele>32.505861</ele>
<time>2026-07-16T15:08:46.000Z</time>
</trkpt>
<trkpt lat="57.525105" lon="9.949771">
<ele>32.532175</ele>
<time>2026-07-16T15:08:47.000Z</time>
</trkpt>
<trkpt lat="57.525102" lon="9.949806">
<ele>32.555981</ele>
<time>2026-07-16T15:08:48.000Z</time>
</trkpt>
<trkpt lat="57.525098" lon="9.949832">
<ele>32.574148</ele>
<time>2026-07-16T15:08:49.000Z</time>
</trkpt>
<trkpt lat="57.525094" lon="9.949854">
<ele>32.589748</ele>
<time>2026-07-16T15:08:50.000Z</time>
</trkpt>
<trkpt lat="57.525090" lon="9.949879">
<ele>32.607270</ele>
<time>2026-07-16T15:08:51.000Z</time>
</trkpt>
<trkpt lat="57.525092" lon="9.949910">
<ele>32.628241</ele>
<time>2026-07-16T15:08:52.000Z</time>
</trkpt>
<trkpt lat="57.525099" lon="9.949945">
<ele>32.653328</ele>
<time>2026-07-16T15:08:53.000Z</time>
</trkpt>
<trkpt lat="57.525114" lon="9.949973">
<ele>32.679894</ele>
<time>2026-07-16T15:08:54.000Z</time>
</trkpt>
<trkpt lat="57.525139" lon="9.949988">
<ele>32.712751</ele>
<time>2026-07-16T15:08:55.000Z</time>
</trkpt>
<trkpt lat="57.525171" lon="9.949997">
<ele>32.753235</ele>
<time>2026-07-16T15:08:56.000Z</time>
</trkpt>
<trkpt lat="57.525205" lon="9.950003">
<ele>32.795957</ele>
<time>2026-07-16T15:08:57.000Z</time>
</trkpt>
<trkpt lat="57.525242" lon="9.950009">
<ele>32.842417</ele>
<time>2026-07-16T15:08:58.000Z</time>
</trkpt>
<trkpt lat="57.525284" lon="9.950012">
<ele>32.894995</ele>
<time>2026-07-16T15:08:59.000Z</time>
</trkpt>
<trkpt lat="57.525326" lon="9.950018">
<ele>32.947689</ele>
<time>2026-07-16T15:09:00.000Z</time>
</trkpt>
<trkpt lat="57.525365" lon="9.950028">
<ele>32.996936</ele>
<time>2026-07-16T15:09:01.000Z</time>
</trkpt>
<trkpt lat="57.525402" lon="9.950033">
<ele>33.043343</ele>
<time>2026-07-16T15:09:02.000Z</time>
</trkpt>
<trkpt lat="57.525445" lon="9.950034">
<ele>33.097138</ele>
<time>2026-07-16T15:09:03.000Z</time>
</trkpt>
<trkpt lat="57.525493" lon="9.950030">
<ele>33.157243</ele>
<time>2026-07-16T15:09:04.000Z</time>
</trkpt>
<trkpt lat="57.525536" lon="9.950026">
<ele>33.211100</ele>
<time>2026-07-16T15:09:05.000Z</time>
</trkpt>
<trkpt lat="57.525577" lon="9.950024">
<ele>33.262407</ele>
<time>2026-07-16T15:09:06.000Z</time>
</trkpt>
<trkpt lat="57.525619" lon="9.950021">
<ele>33.314985</ele>
<time>2026-07-16T15:09:07.000Z</time>
</trkpt>
<trkpt lat="57.525664" lon="9.950018">
<ele>33.371313</ele>
<time>2026-07-16T15:09:08.000Z</time>
</trkpt>
<trkpt lat="57.525707" lon="9.950018">
<ele>33.309714</ele>
<time>2026-07-16T15:09:09.000Z</time>
</trkpt>
<trkpt lat="57.525752" lon="9.950018">
<ele>33.233818</ele>
<time>2026-07-16T15:09:10.000Z</time>
</trkpt>
<trkpt lat="57.525798" lon="9.950018">
<ele>33.156235</ele>
<time>2026-07-16T15:09:11.000Z</time>
</trkpt>
<trkpt lat="57.525843" lon="9.950019">
<ele>33.080333</ele>
<time>2026-07-16T15:09:12.000Z</time>
</trkpt>
<trkpt lat="57.525891" lon="9.950018">
<ele>32.999372</ele>
<time>2026-07-16T15:09:13.000Z</time>
</trkpt>
<trkpt lat="57.525941" lon="9.950016">
<ele>32.915024</ele>
<time>2026-07-16T15:09:14.000Z</time>
</trkpt>
<trkpt lat="57.525991" lon="9.950016">
<ele>32.830694</ele>
<time>2026-07-16T15:09:15.000Z</time>
</trkpt>
<trkpt lat="57.526036" lon="9.950018">
<ele>32.754777</ele>
<time>2026-07-16T15:09:16.000Z</time>
</trkpt>
<trkpt lat="57.526082" lon="9.950018">
<ele>32.677194</ele>
<time>2026-07-16T15:09:17.000Z</time>
</trkpt>
<trkpt lat="57.526125" lon="9.950017">
<ele>32.604665</ele>
<time>2026-07-16T15:09:18.000Z</time>
</trkpt>
<trkpt lat="57.526168" lon="9.950017">
<ele>32.532142</ele>
<time>2026-07-16T15:09:19.000Z</time>
</trkpt>
<trkpt lat="57.526211" lon="9.950018">
<ele>32.459613</ele>
<time>2026-07-16T15:09:20.000Z</time>
</trkpt>
<trkpt lat="57.526256" lon="9.950018">
<ele>32.383717</ele>
<time>2026-07-16T15:09:21.000Z</time>
</trkpt>
<trkpt lat="57.526297" lon="9.950017">
<ele>32.314561</ele>
<time>2026-07-16T15:09:22.000Z</time>
</trkpt>
<trkpt lat="57.526343" lon="9.950013">
<ele>32.236894</ele>
<time>2026-07-16T15:09:23.000Z</time>
</trkpt>
<trkpt lat="57.526392" lon="9.950008">
<ele>32.154127</ele>
<time>2026-07-16T15:09:24.000Z</time>
</trkpt>
<trkpt lat="57.526442" lon="9.950003">
<ele>32.069677</ele>
<time>2026-07-16T15:09:25.000Z</time>
</trkpt>
<trkpt lat="57.526491" lon="9.949997">
<ele>31.986856</ele>
<time>2026-07-16T15:09:26.000Z</time>
</trkpt>
<trkpt lat="57.526537" lon="9.949989">
<ele>31.908935</ele>
<time>2026-07-16T15:09:27.000Z</time>
</trkpt>
<trkpt lat="57.526589" lon="9.949980">
<ele>31.820855</ele>
<time>2026-07-16T15:09:28.000Z</time>
</trkpt>
<trkpt lat="57.526640" lon="9.949969">
<ele>31.734265</ele>
<time>2026-07-16T15:09:29.000Z</time>
</trkpt>
<trkpt lat="57.526689" lon="9.949958">
<ele>31.651024</ele>
<time>2026-07-16T15:09:30.000Z</time>
</trkpt>
<trkpt lat="57.526747" lon="9.949947">
<ele>31.552696</ele>
<time>2026-07-16T15:09:31.000Z</time>
</trkpt>
<trkpt lat="57.526805" lon="9.949931">
<ele>31.453807</ele>
<time>2026-07-16T15:09:32.000Z</time>
</trkpt>
<trkpt lat="57.526865" lon="9.949907">
<ele>31.350305</ele>
<time>2026-07-16T15:09:33.000Z</time>
</trkpt>
<trkpt lat="57.526926" lon="9.949878">
<ele>31.244125</ele>
<time>2026-07-16T15:09:34.000Z</time>
</trkpt>
<trkpt lat="57.526991" lon="9.949849">
<ele>31.131396</ele>
<time>2026-07-16T15:09:35.000Z</time>
</trkpt>
<trkpt lat="57.527058" lon="9.949822">
<ele>31.015780</ele>
<time>2026-07-16T15:09:36.000Z</time>
</trkpt>
<trkpt lat="57.527124" lon="9.949798">
<ele>30.902364</ele>
<time>2026-07-16T15:09:37.000Z</time>
</trkpt>
<trkpt lat="57.527183" lon="9.949774">
<ele>30.800510</ele>
<time>2026-07-16T15:09:38.000Z</time>
</trkpt>
<trkpt lat="57.527243" lon="9.949749">
<ele>30.696813</ele>
<time>2026-07-16T15:09:39.000Z</time>
</trkpt>
<trkpt lat="57.527304" lon="9.949721">
<ele>30.590854</ele>
<time>2026-07-16T15:09:40.000Z</time>
</trkpt>
<trkpt lat="57.527363" lon="9.949693">
<ele>30.488166</ele>
<time>2026-07-16T15:09:41.000Z</time>
</trkpt>
<trkpt lat="57.527418" lon="9.949663">
<ele>30.391508</ele>
<time>2026-07-16T15:09:42.000Z</time>
</trkpt>
<trkpt lat="57.527477" lon="9.949630">
<ele>30.317433</ele>
<time>2026-07-16T15:09:43.000Z</time>
</trkpt>
<trkpt lat="57.527536" lon="9.949597">
<ele>30.270084</ele>
<time>2026-07-16T15:09:44.000Z</time>
</trkpt>
<trkpt lat="57.527592" lon="9.949566">
<ele>30.225180</ele>
<time>2026-07-16T15:09:45.000Z</time>
</trkpt>
<trkpt lat="57.527649" lon="9.949535">
<ele>30.179539</ele>
<time>2026-07-16T15:09:46.000Z</time>
</trkpt>
<trkpt lat="57.527708" lon="9.949501">
<ele>30.132070</ele>
<time>2026-07-16T15:09:47.000Z</time>
</trkpt>
<trkpt lat="57.527763" lon="9.949466">
<ele>30.087396</ele>
<time>2026-07-16T15:09:48.000Z</time>
</trkpt>
<trkpt lat="57.527817" lon="9.949433">
<ele>30.043714</ele>
<time>2026-07-16T15:09:49.000Z</time>
</trkpt>
<trkpt lat="57.527874" lon="9.949399">
<ele>29.997711</ele>
<time>2026-07-16T15:09:50.000Z</time>
</trkpt>
<trkpt lat="57.527928" lon="9.949364">
<ele>29.953764</ele>
<time>2026-07-16T15:09:51.000Z</time>
</trkpt>
<trkpt lat="57.527982" lon="9.949328">
<ele>29.909680</ele>
<time>2026-07-16T15:09:52.000Z</time>
</trkpt>
<trkpt lat="57.528032" lon="9.949293">
<ele>29.868625</ele>
<time>2026-07-16T15:09:53.000Z</time>
</trkpt>
<trkpt lat="57.528079" lon="9.949256">
<ele>29.829405</ele>
<time>2026-07-16T15:09:54.000Z</time>
</trkpt>
<trkpt lat="57.528125" lon="9.949216">
<ele>29.790385</ele>
<time>2026-07-16T15:09:55.000Z</time>
</trkpt>
<trkpt lat="57.528173" lon="9.949175">
<ele>29.749797</ele>
<time>2026-07-16T15:09:56.000Z</time>
</trkpt>
<trkpt lat="57.528222" lon="9.949136">
<ele>29.708840</ele>
<time>2026-07-16T15:09:57.000Z</time>
</trkpt>
<trkpt lat="57.528272" lon="9.949098">
<ele>29.667333</ele>
<time>2026-07-16T15:09:58.000Z</time>
</trkpt>
<trkpt lat="57.528322" lon="9.949059">
<ele>29.625668</ele>
<time>2026-07-16T15:09:59.000Z</time>
</trkpt>
<trkpt lat="57.528370" lon="9.949021">
<ele>29.585580</ele>
<time>2026-07-16T15:10:00.000Z</time>
</trkpt>
<trkpt lat="57.528421" lon="9.948983">
<ele>29.543361</ele>
<time>2026-07-16T15:10:01.000Z</time>
</trkpt>
<trkpt lat="57.528471" lon="9.948944">
<ele>29.501696</ele>
<time>2026-07-16T15:10:02.000Z</time>
</trkpt>
<trkpt lat="57.528518" lon="9.948906">
<ele>29.462314</ele>
<time>2026-07-16T15:10:03.000Z</time>
</trkpt>
<trkpt lat="57.528569" lon="9.948867">
<ele>29.419940</ele>
<time>2026-07-16T15:10:04.000Z</time>
</trkpt>
<trkpt lat="57.528613" lon="9.948831">
<ele>29.383001</ele>
<time>2026-07-16T15:10:05.000Z</time>
</trkpt>
<trkpt lat="57.528661" lon="9.948795">
<ele>29.343229</ele>
<time>2026-07-16T15:10:06.000Z</time>
</trkpt>
<trkpt lat="57.528708" lon="9.948757">
<ele>29.303847</ele>
<time>2026-07-16T15:10:07.000Z</time>
</trkpt>
<trkpt lat="57.528754" lon="9.948720">
<ele>29.265335</ele>
<time>2026-07-16T15:10:08.000Z</time>
</trkpt>
<trkpt lat="57.528800" lon="9.948683">
<ele>29.226823</ele>
<time>2026-07-16T15:10:09.000Z</time>
</trkpt>
<trkpt lat="57.528846" lon="9.948648">
<ele>29.188630</ele>
<time>2026-07-16T15:10:10.000Z</time>
</trkpt>
<trkpt lat="57.528888" lon="9.948614">
<ele>29.153431</ele>
<time>2026-07-16T15:10:11.000Z</time>
</trkpt>
<trkpt lat="57.528928" lon="9.948580">
<ele>29.119636</ele>
<time>2026-07-16T15:10:12.000Z</time>
</trkpt>
<trkpt lat="57.528966" lon="9.948553">
<ele>29.088376</ele>
<time>2026-07-16T15:10:13.000Z</time>
</trkpt>
<trkpt lat="57.528996" lon="9.948533">
<ele>29.063885</ele>
<time>2026-07-16T15:10:14.000Z</time>
</trkpt>
<trkpt lat="57.529020" lon="9.948520">
<ele>29.044674</ele>
<time>2026-07-16T15:10:15.000Z</time>
</trkpt>
<trkpt lat="57.529064" lon="9.948481">
<ele>29.007220</ele>
<time>2026-07-16T15:10:20.000Z</time>
</trkpt>
<trkpt lat="57.529085" lon="9.948459">
<ele>28.988701</ele>
<time>2026-07-16T15:10:21.000Z</time>
</trkpt>
<trkpt lat="57.529105" lon="9.948438">
<ele>28.971055</ele>
<time>2026-07-16T15:10:22.000Z</time>
</trkpt>
<trkpt lat="57.529129" lon="9.948418">
<ele>28.975200</ele>
<time>2026-07-16T15:10:23.000Z</time>
</trkpt>
<trkpt lat="57.529156" lon="9.948398">
<ele>29.012738</ele>
<time>2026-07-16T15:10:24.000Z</time>
</trkpt>
<trkpt lat="57.529183" lon="9.948378">
<ele>29.050276</ele>
<time>2026-07-16T15:10:25.000Z</time>
</trkpt>
<trkpt lat="57.529210" lon="9.948356">
<ele>29.088348</ele>
<time>2026-07-16T15:10:26.000Z</time>
</trkpt>
<trkpt lat="57.529233" lon="9.948332">
<ele>29.122406</ele>
<time>2026-07-16T15:10:27.000Z</time>
</trkpt>
<trkpt lat="57.529262" lon="9.948307">
<ele>29.163689</ele>
<time>2026-07-16T15:10:28.000Z</time>
</trkpt>
<trkpt lat="57.529292" lon="9.948282">
<ele>29.206148</ele>
<time>2026-07-16T15:10:29.000Z</time>
</trkpt>
<trkpt lat="57.529323" lon="9.948259">
<ele>29.249256</ele>
<time>2026-07-16T15:10:30.000Z</time>
</trkpt>
<trkpt lat="57.529351" lon="9.948243">
<ele>29.287093</ele>
<time>2026-07-16T15:10:31.000Z</time>
</trkpt>
<trkpt lat="57.529374" lon="9.948232">
<ele>29.317770</ele>
<time>2026-07-16T15:10:32.000Z</time>
</trkpt>
<trkpt lat="57.529396" lon="9.948234">
<ele>29.346225</ele>
<time>2026-07-16T15:10:33.000Z</time>
</trkpt>
<trkpt lat="57.529415" lon="9.948254">
<ele>29.374420</ele>
<time>2026-07-16T15:10:34.000Z</time>
</trkpt>
<trkpt lat="57.529424" lon="9.948289">
<ele>29.401336</ele>
<time>2026-07-16T15:10:35.000Z</time>
</trkpt>
<trkpt lat="57.529427" lon="9.948331">
<ele>29.430722</ele>
<time>2026-07-16T15:10:36.000Z</time>
</trkpt>
<trkpt lat="57.529418" lon="9.948374">
<ele>29.462732</ele>
<time>2026-07-16T15:10:37.000Z</time>
</trkpt>
<trkpt lat="57.529404" lon="9.948410">
<ele>29.493563</ele>
<time>2026-07-16T15:10:38.000Z</time>
</trkpt>
<trkpt lat="57.529386" lon="9.948440">
<ele>29.524767</ele>
<time>2026-07-16T15:10:39.000Z</time>
</trkpt>
<trkpt lat="57.529373" lon="9.948457">
<ele>29.545287</ele>
<time>2026-07-16T15:10:40.000Z</time>
</trkpt>
<trkpt lat="57.529367" lon="9.948466">
<ele>29.555239</ele>
<time>2026-07-16T15:10:41.000Z</time>
</trkpt>
<trkpt lat="57.529360" lon="9.948468">
<ele>29.564388</ele>
<time>2026-07-16T15:10:42.000Z</time>
</trkpt>
<trkpt lat="57.529358" lon="9.948468">
<ele>29.566972</ele>
<time>2026-07-16T15:10:43.000Z</time>
</trkpt>
<trkpt lat="57.529456" lon="9.948325">
<ele>29.727800</ele>
<time>2026-07-16T15:26:43.000Z</time>
</trkpt>
<trkpt lat="57.529458" lon="9.948298">
<ele>29.746704</ele>
<time>2026-07-16T15:26:44.000Z</time>
</trkpt>
<trkpt lat="57.529454" lon="9.948272">
<ele>29.765462</ele>
<time>2026-07-16T15:26:45.000Z</time>
</trkpt>
<trkpt lat="57.529453" lon="9.948248">
<ele>29.782158</ele>
<time>2026-07-16T15:26:46.000Z</time>
</trkpt>
<trkpt lat="57.529456" lon="9.948230">
<ele>29.795230</ele>
<time>2026-07-16T15:26:47.000Z</time>
</trkpt>
<trkpt lat="57.529457" lon="9.948217">
<ele>29.804339</ele>
<time>2026-07-16T15:26:48.000Z</time>
</trkpt>
<trkpt lat="57.529460" lon="9.948208">
<ele>29.811686</ele>
<time>2026-07-16T15:26:49.000Z</time>
</trkpt>
<trkpt lat="57.529458" lon="9.948199">
<ele>29.818442</ele>
<time>2026-07-16T15:26:50.000Z</time>
</trkpt>
<trkpt lat="57.529460" lon="9.948187">
<ele>29.827156</ele>
<time>2026-07-16T15:26:51.000Z</time>
</trkpt>
<trkpt lat="57.529515" lon="9.948105">
<ele>29.918168</ele>
<time>2026-07-16T15:28:18.000Z</time>
</trkpt>
<trkpt lat="57.529530" lon="9.948099">
<ele>29.937988</ele>
<time>2026-07-16T15:28:19.000Z</time>
</trkpt>
<trkpt lat="57.529550" lon="9.948087">
<ele>29.965133</ele>
<time>2026-07-16T15:28:20.000Z</time>
</trkpt>
<trkpt lat="57.529573" lon="9.948071">
<ele>29.996851</ele>
<time>2026-07-16T15:28:21.000Z</time>
</trkpt>
<trkpt lat="57.529597" lon="9.948057">
<ele>30.029342</ele>
<time>2026-07-16T15:28:22.000Z</time>
</trkpt>
<trkpt lat="57.529621" lon="9.948041">
<ele>30.062273</ele>
<time>2026-07-16T15:28:23.000Z</time>
</trkpt>
<trkpt lat="57.529645" lon="9.948027">
<ele>30.094763</ele>
<time>2026-07-16T15:28:24.000Z</time>
</trkpt>
<trkpt lat="57.529671" lon="9.948012">
<ele>30.129926</ele>
<time>2026-07-16T15:28:25.000Z</time>
</trkpt>
<trkpt lat="57.529697" lon="9.947989">
<ele>30.167111</ele>
<time>2026-07-16T15:28:26.000Z</time>
</trkpt>
<trkpt lat="57.529721" lon="9.947960">
<ele>30.204069</ele>
<time>2026-07-16T15:28:27.000Z</time>
</trkpt>
<trkpt lat="57.529744" lon="9.947929">
<ele>30.240745</ele>
<time>2026-07-16T15:28:28.000Z</time>
</trkpt>
<trkpt lat="57.529769" lon="9.947900">
<ele>30.278793</ele>
<time>2026-07-16T15:28:29.000Z</time>
</trkpt>
<trkpt lat="57.529797" lon="9.947875">
<ele>30.318907</ele>
<time>2026-07-16T15:28:30.000Z</time>
</trkpt>
<trkpt lat="57.529826" lon="9.947852">
<ele>30.359626</ele>
<time>2026-07-16T15:28:31.000Z</time>
</trkpt>
<trkpt lat="57.529850" lon="9.947835">
<ele>30.392798</ele>
<time>2026-07-16T15:28:32.000Z</time>
</trkpt>
<trkpt lat="57.529877" lon="9.947816">
<ele>30.430085</ele>
<time>2026-07-16T15:28:33.000Z</time>
</trkpt>
<trkpt lat="57.529910" lon="9.947794">
<ele>30.475365</ele>
<time>2026-07-16T15:28:34.000Z</time>
</trkpt>
<trkpt lat="57.529938" lon="9.947774">
<ele>30.514107</ele>
<time>2026-07-16T15:28:35.000Z</time>
</trkpt>
<trkpt lat="57.529966" lon="9.947753">
<ele>30.553102</ele>
<time>2026-07-16T15:28:36.000Z</time>
</trkpt>
<trkpt lat="57.529998" lon="9.947732">
<ele>30.596933</ele>
<time>2026-07-16T15:28:37.000Z</time>
</trkpt>
<trkpt lat="57.530025" lon="9.947714">
<ele>30.633980</ele>
<time>2026-07-16T15:28:38.000Z</time>
</trkpt>
<trkpt lat="57.530054" lon="9.947694">
<ele>30.673930</ele>
<time>2026-07-16T15:28:39.000Z</time>
</trkpt>
<trkpt lat="57.530084" lon="9.947673">
<ele>30.715333</ele>
<time>2026-07-16T15:28:40.000Z</time>
</trkpt>
<trkpt lat="57.530116" lon="9.947648">
<ele>30.760163</ele>
<time>2026-07-16T15:28:41.000Z</time>
</trkpt>
<trkpt lat="57.530145" lon="9.947623">
<ele>30.801445</ele>
<time>2026-07-16T15:28:42.000Z</time>
</trkpt>
<trkpt lat="57.530176" lon="9.947599">
<ele>30.844815</ele>
<time>2026-07-16T15:28:43.000Z</time>
</trkpt>
<trkpt lat="57.530207" lon="9.947575">
<ele>30.888185</ele>
<time>2026-07-16T15:28:44.000Z</time>
</trkpt>
<trkpt lat="57.530238" lon="9.947554">
<ele>30.930800</ele>
<time>2026-07-16T15:28:45.000Z</time>
</trkpt>
<trkpt lat="57.530271" lon="9.947535">
<ele>30.975422</ele>
<time>2026-07-16T15:28:46.000Z</time>
</trkpt>
<trkpt lat="57.530303" lon="9.947517">
<ele>31.018606</ele>
<time>2026-07-16T15:28:47.000Z</time>
</trkpt>
<trkpt lat="57.530336" lon="9.947495">
<ele>31.063887</ele>
<time>2026-07-16T15:28:48.000Z</time>
</trkpt>
<trkpt lat="57.530370" lon="9.947472">
<ele>31.110618</ele>
<time>2026-07-16T15:28:49.000Z</time>
</trkpt>
<trkpt lat="57.530404" lon="9.947449">
<ele>31.157349</ele>
<time>2026-07-16T15:28:50.000Z</time>
</trkpt>
<trkpt lat="57.530439" lon="9.947428">
<ele>31.204853</ele>
<time>2026-07-16T15:28:51.000Z</time>
</trkpt>
<trkpt lat="57.530473" lon="9.947408">
<ele>31.250915</ele>
<time>2026-07-16T15:28:52.000Z</time>
</trkpt>
<trkpt lat="57.530507" lon="9.947388">
<ele>31.293133</ele>
<time>2026-07-16T15:28:53.000Z</time>
</trkpt>
<trkpt lat="57.530545" lon="9.947363">
<ele>31.330265</ele>
<time>2026-07-16T15:28:54.000Z</time>
</trkpt>
<trkpt lat="57.530579" lon="9.947336">
<ele>31.364319</ele>
<time>2026-07-16T15:28:55.000Z</time>
</trkpt>
<trkpt lat="57.530613" lon="9.947307">
<ele>31.398774</ele>
<time>2026-07-16T15:28:56.000Z</time>
</trkpt>
<trkpt lat="57.530651" lon="9.947277">
<ele>31.436801</ele>
<time>2026-07-16T15:28:57.000Z</time>
</trkpt>
<trkpt lat="57.530685" lon="9.947253">
<ele>31.470301</ele>
<time>2026-07-16T15:28:58.000Z</time>
</trkpt>
<trkpt lat="57.530723" lon="9.947226">
<ele>31.507774</ele>
<time>2026-07-16T15:28:59.000Z</time>
</trkpt>
<trkpt lat="57.530754" lon="9.947207">
<ele>31.537843</ele>
<time>2026-07-16T15:29:00.000Z</time>
</trkpt>
<trkpt lat="57.530794" lon="9.947187">
<ele>31.576002</ele>
<time>2026-07-16T15:29:01.000Z</time>
</trkpt>
<trkpt lat="57.530842" lon="9.947163">
<ele>31.621794</ele>
<time>2026-07-16T15:29:02.000Z</time>
</trkpt>
<trkpt lat="57.530878" lon="9.947142">
<ele>31.656551</ele>
<time>2026-07-16T15:29:03.000Z</time>
</trkpt>
<trkpt lat="57.530912" lon="9.947120">
<ele>31.689714</ele>
<time>2026-07-16T15:29:04.000Z</time>
</trkpt>
<trkpt lat="57.530947" lon="9.947100">
<ele>31.723445</ele>
<time>2026-07-16T15:29:05.000Z</time>
</trkpt>
<trkpt lat="57.530981" lon="9.947082">
<ele>31.756013</ele>
<time>2026-07-16T15:29:06.000Z</time>
</trkpt>
<trkpt lat="57.531015" lon="9.947064">
<ele>31.788580</ele>
<time>2026-07-16T15:29:07.000Z</time>
</trkpt>
<trkpt lat="57.531050" lon="9.947042">
<ele>31.822614</ele>
<time>2026-07-16T15:29:08.000Z</time>
</trkpt>
<trkpt lat="57.531086" lon="9.947017">
<ele>31.858014</ele>
<time>2026-07-16T15:29:09.000Z</time>
</trkpt>
<trkpt lat="57.531124" lon="9.946995">
<ele>31.894678</ele>
<time>2026-07-16T15:29:10.000Z</time>
</trkpt>
<trkpt lat="57.531162" lon="9.946973">
<ele>31.931342</ele>
<time>2026-07-16T15:29:11.000Z</time>
</trkpt>
<trkpt lat="57.531200" lon="9.946954">
<ele>31.967593</ele>
<time>2026-07-16T15:29:12.000Z</time>
</trkpt>
<trkpt lat="57.531239" lon="9.946933">
<ele>32.004998</ele>
<time>2026-07-16T15:29:13.000Z</time>
</trkpt>
<trkpt lat="57.531277" lon="9.946912">
<ele>32.041518</ele>
<time>2026-07-16T15:29:14.000Z</time>
</trkpt>
<trkpt lat="57.531312" lon="9.946893">
<ele>32.075108</ele>
<time>2026-07-16T15:29:15.000Z</time>
</trkpt>
<trkpt lat="57.531346" lon="9.946875">
<ele>32.107675</ele>
<time>2026-07-16T15:29:16.000Z</time>
</trkpt>
<trkpt lat="57.531381" lon="9.946858">
<ele>32.141001</ele>
<time>2026-07-16T15:29:17.000Z</time>
</trkpt>
<trkpt lat="57.531413" lon="9.946840">
<ele>32.171800</ele>
<time>2026-07-16T15:29:18.000Z</time>
</trkpt>
<trkpt lat="57.531441" lon="9.946824">
<ele>32.198785</ele>
<time>2026-07-16T15:29:19.000Z</time>
</trkpt>
<trkpt lat="57.531472" lon="9.946810">
<ele>32.228175</ele>
<time>2026-07-16T15:29:20.000Z</time>
</trkpt>
<trkpt lat="57.531504" lon="9.946798">
<ele>32.258250</ele>
<time>2026-07-16T15:29:21.000Z</time>
</trkpt>
<trkpt lat="57.531531" lon="9.946790">
<ele>32.283440</ele>
<time>2026-07-16T15:29:22.000Z</time>
</trkpt>
<trkpt lat="57.531558" lon="9.946781">
<ele>32.308712</ele>
<time>2026-07-16T15:29:23.000Z</time>
</trkpt>
<trkpt lat="57.531585" lon="9.946772">
<ele>32.333984</ele>
<time>2026-07-16T15:29:24.000Z</time>
</trkpt>
<trkpt lat="57.531612" lon="9.946766">
<ele>32.359038</ele>
<time>2026-07-16T15:29:25.000Z</time>
</trkpt>
<trkpt lat="57.531634" lon="9.946765">
<ele>32.379314</ele>
<time>2026-07-16T15:29:26.000Z</time>
</trkpt>
<trkpt lat="57.531653" lon="9.946763">
<ele>32.396848</ele>
<time>2026-07-16T15:29:27.000Z</time>
</trkpt>
<trkpt lat="57.531669" lon="9.946755">
<ele>32.412112</ele>
<time>2026-07-16T15:29:28.000Z</time>
</trkpt>
<trkpt lat="57.531684" lon="9.946722">
<ele>32.433499</ele>
<time>2026-07-16T15:29:59.000Z</time>
</trkpt>
<trkpt lat="57.531685" lon="9.946704">
<ele>32.442450</ele>
<time>2026-07-16T15:30:00.000Z</time>
</trkpt>
<trkpt lat="57.531687" lon="9.946675">
<ele>32.456912</ele>
<time>2026-07-16T15:30:01.000Z</time>
</trkpt>
<trkpt lat="57.531697" lon="9.946631">
<ele>32.480545</ele>
<time>2026-07-16T15:30:02.000Z</time>
</trkpt>
<trkpt lat="57.531705" lon="9.946591">
<ele>32.501659</ele>
<time>2026-07-16T15:30:03.000Z</time>
</trkpt>
<trkpt lat="57.531710" lon="9.946545">
<ele>32.524873</ele>
<time>2026-07-16T15:30:04.000Z</time>
</trkpt>
<trkpt lat="57.531717" lon="9.946496">
<ele>32.549953</ele>
<time>2026-07-16T15:30:05.000Z</time>
</trkpt>
<trkpt lat="57.531725" lon="9.946439">
<ele>32.579094</ele>
<time>2026-07-16T15:30:06.000Z</time>
</trkpt>
<trkpt lat="57.531730" lon="9.946379">
<ele>32.609127</ele>
<time>2026-07-16T15:30:07.000Z</time>
</trkpt>
<trkpt lat="57.531731" lon="9.946315">
<ele>32.640796</ele>
<time>2026-07-16T15:30:08.000Z</time>
</trkpt>
<trkpt lat="57.531733" lon="9.946249">
<ele>32.673493</ele>
<time>2026-07-16T15:30:09.000Z</time>
</trkpt>
<trkpt lat="57.531740" lon="9.946178">
<ele>32.709198</ele>
<time>2026-07-16T15:30:10.000Z</time>
</trkpt>
<trkpt lat="57.531744" lon="9.946114">
<ele>32.741068</ele>
<time>2026-07-16T15:30:11.000Z</time>
</trkpt>
<trkpt lat="57.531748" lon="9.946036">
<ele>32.779824</ele>
<time>2026-07-16T15:30:12.000Z</time>
</trkpt>
<trkpt lat="57.531752" lon="9.945950">
<ele>32.822521</ele>
<time>2026-07-16T15:30:13.000Z</time>
</trkpt>
<trkpt lat="57.531754" lon="9.945868">
<ele>32.863122</ele>
<time>2026-07-16T15:30:14.000Z</time>
</trkpt>
<trkpt lat="57.531754" lon="9.945785">
<ele>32.904175</ele>
<time>2026-07-16T15:30:15.000Z</time>
</trkpt>
<trkpt lat="57.531756" lon="9.945697">
<ele>32.931504</ele>
<time>2026-07-16T15:30:16.000Z</time>
</trkpt>
<trkpt lat="57.531760" lon="9.945611">
<ele>32.874467</ele>
<time>2026-07-16T15:30:17.000Z</time>
</trkpt>
<trkpt lat="57.531764" lon="9.945522">
<ele>32.815454</ele>
<time>2026-07-16T15:30:18.000Z</time>
</trkpt>
<trkpt lat="57.531768" lon="9.945432">
<ele>32.755783</ele>
<time>2026-07-16T15:30:19.000Z</time>
</trkpt>
<trkpt lat="57.531771" lon="9.945342">
<ele>32.696200</ele>
<time>2026-07-16T15:30:20.000Z</time>
</trkpt>
<trkpt lat="57.531775" lon="9.945250">
<ele>32.635212</ele>
<time>2026-07-16T15:30:21.000Z</time>
</trkpt>
<trkpt lat="57.531779" lon="9.945157">
<ele>32.573565</ele>
<time>2026-07-16T15:30:22.000Z</time>
</trkpt>
<trkpt lat="57.531786" lon="9.945063">
<ele>32.510859</ele>
<time>2026-07-16T15:30:23.000Z</time>
</trkpt>
<trkpt lat="57.531791" lon="9.944971">
<ele>32.449759</ele>
<time>2026-07-16T15:30:24.000Z</time>
</trkpt>
<trkpt lat="57.531792" lon="9.944882">
<ele>32.390940</ele>
<time>2026-07-16T15:30:25.000Z</time>
</trkpt>
<trkpt lat="57.531797" lon="9.944802">
<ele>32.337722</ele>
<time>2026-07-16T15:30:26.000Z</time>
</trkpt>
<trkpt lat="57.531802" lon="9.944721">
<ele>32.283849</ele>
<time>2026-07-16T15:30:27.000Z</time>
</trkpt>
<trkpt lat="57.531808" lon="9.944638">
<ele>32.228511</ele>
<time>2026-07-16T15:30:28.000Z</time>
</trkpt>
<trkpt lat="57.531813" lon="9.944562">
<ele>32.177918</ele>
<time>2026-07-16T15:30:29.000Z</time>
</trkpt>
<trkpt lat="57.531820" lon="9.944490">
<ele>32.129570</ele>
<time>2026-07-16T15:30:30.000Z</time>
</trkpt>
<trkpt lat="57.531827" lon="9.944428">
<ele>32.087707</ele>
<time>2026-07-16T15:30:31.000Z</time>
</trkpt>
<trkpt lat="57.531833" lon="9.944365">
<ele>32.045430</ele>
<time>2026-07-16T15:30:32.000Z</time>
</trkpt>
<trkpt lat="57.531839" lon="9.944311">
<ele>32.008993</ele>
<time>2026-07-16T15:30:33.000Z</time>
</trkpt>
<trkpt lat="57.531841" lon="9.944265">
<ele>31.978499</ele>
<time>2026-07-16T15:30:34.000Z</time>
</trkpt>
<trkpt lat="57.531844" lon="9.944224">
<ele>31.951158</ele>
<time>2026-07-16T15:30:35.000Z</time>
</trkpt>
<trkpt lat="57.531845" lon="9.944183">
<ele>31.924039</ele>
<time>2026-07-16T15:30:36.000Z</time>
</trkpt>
<trkpt lat="57.531842" lon="9.944137">
<ele>31.893421</ele>
<time>2026-07-16T15:30:37.000Z</time>
</trkpt>
<trkpt lat="57.531841" lon="9.944089">
<ele>31.861681</ele>
<time>2026-07-16T15:30:38.000Z</time>
</trkpt>
<trkpt lat="57.531839" lon="9.944037">
<ele>31.827234</ele>
<time>2026-07-16T15:30:39.000Z</time>
</trkpt>
<trkpt lat="57.531837" lon="9.943980">
<ele>31.789490</ele>
<time>2026-07-16T15:30:40.000Z</time>
</trkpt>
<trkpt lat="57.531837" lon="9.943914">
<ele>31.745881</ele>
<time>2026-07-16T15:30:41.000Z</time>
</trkpt>
<trkpt lat="57.531840" lon="9.943846">
<ele>31.700798</ele>
<time>2026-07-16T15:30:42.000Z</time>
</trkpt>
<trkpt lat="57.531844" lon="9.943772">
<ele>31.651655</ele>
<time>2026-07-16T15:30:43.000Z</time>
</trkpt>
<trkpt lat="57.531845" lon="9.943694">
<ele>31.600102</ele>
<time>2026-07-16T15:30:44.000Z</time>
</trkpt>
<trkpt lat="57.531848" lon="9.943617">
<ele>31.549090</ele>
<time>2026-07-16T15:30:45.000Z</time>
</trkpt>
<trkpt lat="57.531852" lon="9.943541">
<ele>31.498632</ele>
<time>2026-07-16T15:30:46.000Z</time>
</trkpt>
<trkpt lat="57.531855" lon="9.943463">
<ele>31.446962</ele>
<time>2026-07-16T15:30:47.000Z</time>
</trkpt>
<trkpt lat="57.531857" lon="9.943382">
<ele>31.393384</ele>
<time>2026-07-16T15:30:48.000Z</time>
</trkpt>
<trkpt lat="57.531854" lon="9.943297">
<ele>31.337099</ele>
<time>2026-07-16T15:30:49.000Z</time>
</trkpt>
<trkpt lat="57.531855" lon="9.943214">
<ele>31.282243</ele>
<time>2026-07-16T15:30:50.000Z</time>
</trkpt>
<trkpt lat="57.531859" lon="9.943127">
<ele>31.224547</ele>
<time>2026-07-16T15:30:51.000Z</time>
</trkpt>
<trkpt lat="57.531865" lon="9.943035">
<ele>31.163311</ele>
<time>2026-07-16T15:30:52.000Z</time>
</trkpt>
<trkpt lat="57.531871" lon="9.942928">
<ele>31.092226</ele>
<time>2026-07-16T15:30:53.000Z</time>
</trkpt>
<trkpt lat="57.531874" lon="9.942813">
<ele>31.016150</ele>
<time>2026-07-16T15:30:54.000Z</time>
</trkpt>
<trkpt lat="57.531876" lon="9.942699">
<ele>30.940784</ele>
<time>2026-07-16T15:30:55.000Z</time>
</trkpt>
<trkpt lat="57.531878" lon="9.942584">
<ele>30.864757</ele>
<time>2026-07-16T15:30:56.000Z</time>
</trkpt>
<trkpt lat="57.531882" lon="9.942471">
<ele>30.789930</ele>
<time>2026-07-16T15:30:57.000Z</time>
</trkpt>
<trkpt lat="57.531883" lon="9.942363">
<ele>30.716834</ele>
<time>2026-07-16T15:30:58.000Z</time>
</trkpt>
<trkpt lat="57.531886" lon="9.942254">
<ele>30.629898</ele>
<time>2026-07-16T15:30:59.000Z</time>
</trkpt>
<trkpt lat="57.531887" lon="9.942151">
<ele>30.547842</ele>
<time>2026-07-16T15:31:00.000Z</time>
</trkpt>
<trkpt lat="57.531887" lon="9.942048">
<ele>30.465799</ele>
<time>2026-07-16T15:31:01.000Z</time>
</trkpt>
<trkpt lat="57.531895" lon="9.941943">
<ele>30.381325</ele>
<time>2026-07-16T15:31:02.000Z</time>
</trkpt>
<trkpt lat="57.531904" lon="9.941836">
<ele>30.295057</ele>
<time>2026-07-16T15:31:03.000Z</time>
</trkpt>
<trkpt lat="57.531909" lon="9.941729">
<ele>30.209505</ele>
<time>2026-07-16T15:31:04.000Z</time>
</trkpt>
<trkpt lat="57.531915" lon="9.941611">
<ele>30.115094</ele>
<time>2026-07-16T15:31:05.000Z</time>
</trkpt>
<trkpt lat="57.531920" lon="9.941495">
<ele>30.022399</ele>
<time>2026-07-16T15:31:06.000Z</time>
</trkpt>
<trkpt lat="57.531924" lon="9.941383">
<ele>29.932991</ele>
<time>2026-07-16T15:31:07.000Z</time>
</trkpt>
<trkpt lat="57.531925" lon="9.941275">
<ele>29.846952</ele>
<time>2026-07-16T15:31:08.000Z</time>
</trkpt>
<trkpt lat="57.531928" lon="9.941165">
<ele>29.759221</ele>
<time>2026-07-16T15:31:09.000Z</time>
</trkpt>
<trkpt lat="57.531932" lon="9.941052">
<ele>29.669018</ele>
<time>2026-07-16T15:31:10.000Z</time>
</trkpt>
<trkpt lat="57.531933" lon="9.940926">
<ele>29.568644</ele>
<time>2026-07-16T15:31:11.000Z</time>
</trkpt>
<trkpt lat="57.531933" lon="9.940808">
<ele>29.474653</ele>
<time>2026-07-16T15:31:12.000Z</time>
</trkpt>
<trkpt lat="57.531935" lon="9.940698">
<ele>29.386985</ele>
<time>2026-07-16T15:31:13.000Z</time>
</trkpt>
<trkpt lat="57.531937" lon="9.940578">
<ele>29.291355</ele>
<time>2026-07-16T15:31:14.000Z</time>
</trkpt>
<trkpt lat="57.531937" lon="9.940459">
<ele>29.196568</ele>
<time>2026-07-16T15:31:15.000Z</time>
</trkpt>
<trkpt lat="57.531937" lon="9.940341">
<ele>29.102577</ele>
<time>2026-07-16T15:31:16.000Z</time>
</trkpt>
<trkpt lat="57.531937" lon="9.940227">
<ele>29.011773</ele>
<time>2026-07-16T15:31:17.000Z</time>
</trkpt>
<trkpt lat="57.531939" lon="9.940115">
<ele>28.922512</ele>
<time>2026-07-16T15:31:18.000Z</time>
</trkpt>
<trkpt lat="57.531943" lon="9.940005">
<ele>28.834693</ele>
<time>2026-07-16T15:31:19.000Z</time>
</trkpt>
<trkpt lat="57.531947" lon="9.939896">
<ele>28.747668</ele>
<time>2026-07-16T15:31:20.000Z</time>
</trkpt>
<trkpt lat="57.531951" lon="9.939786">
<ele>28.659849</ele>
<time>2026-07-16T15:31:21.000Z</time>
</trkpt>
<trkpt lat="57.531955" lon="9.939683">
<ele>28.577592</ele>
<time>2026-07-16T15:31:22.000Z</time>
</trkpt>
<trkpt lat="57.531959" lon="9.939582">
<ele>28.496924</ele>
<time>2026-07-16T15:31:23.000Z</time>
</trkpt>
<trkpt lat="57.531962" lon="9.939481">
<ele>28.416351</ele>
<time>2026-07-16T15:31:24.000Z</time>
</trkpt>
<trkpt lat="57.531966" lon="9.939375">
<ele>28.331711</ele>
<time>2026-07-16T15:31:25.000Z</time>
</trkpt>
<trkpt lat="57.531964" lon="9.939255">
<ele>28.236081</ele>
<time>2026-07-16T15:31:26.000Z</time>
</trkpt>
<trkpt lat="57.531966" lon="9.939142">
<ele>28.146025</ele>
<time>2026-07-16T15:31:27.000Z</time>
</trkpt>
<trkpt lat="57.531964" lon="9.939030">
<ele>28.058572</ele>
<time>2026-07-16T15:31:28.000Z</time>
</trkpt>
<trkpt lat="57.531966" lon="9.938919">
<ele>28.083011</ele>
<time>2026-07-16T15:31:29.000Z</time>
</trkpt>
<trkpt lat="57.531973" lon="9.938808">
<ele>28.107604</ele>
<time>2026-07-16T15:31:30.000Z</time>
</trkpt>
<trkpt lat="57.531978" lon="9.938697">
<ele>28.132116</ele>
<time>2026-07-16T15:31:31.000Z</time>
</trkpt>
<trkpt lat="57.531981" lon="9.938586">
<ele>28.156572</ele>
<time>2026-07-16T15:31:32.000Z</time>
</trkpt>
<trkpt lat="57.531988" lon="9.938484">
<ele>28.179200</ele>
<time>2026-07-16T15:31:33.000Z</time>
</trkpt>
<trkpt lat="57.531990" lon="9.938381">
<ele>28.201879</ele>
<time>2026-07-16T15:31:34.000Z</time>
</trkpt>
<trkpt lat="57.531993" lon="9.938278">
<ele>28.224578</ele>
<time>2026-07-16T15:31:35.000Z</time>
</trkpt>
<trkpt lat="57.531997" lon="9.938178">
<ele>28.246644</ele>
<time>2026-07-16T15:31:36.000Z</time>
</trkpt>
<trkpt lat="57.532003" lon="9.938086">
<ele>28.267037</ele>
<time>2026-07-16T15:31:37.000Z</time>
</trkpt>
<trkpt lat="57.532011" lon="9.937998">
<ele>28.286677</ele>
<time>2026-07-16T15:31:38.000Z</time>
</trkpt>
<trkpt lat="57.532021" lon="9.937908">
<ele>28.306901</ele>
<time>2026-07-16T15:31:39.000Z</time>
</trkpt>
<trkpt lat="57.532027" lon="9.937819">
<ele>28.326639</ele>
<time>2026-07-16T15:31:40.000Z</time>
</trkpt>
<trkpt lat="57.532034" lon="9.937729">
<ele>28.346650</ele>
<time>2026-07-16T15:31:41.000Z</time>
</trkpt>
<trkpt lat="57.532041" lon="9.937642">
<ele>28.366008</ele>
<time>2026-07-16T15:31:42.000Z</time>
</trkpt>
<trkpt lat="57.532049" lon="9.937551">
<ele>28.386299</ele>
<time>2026-07-16T15:31:43.000Z</time>
</trkpt>
<trkpt lat="57.532057" lon="9.937458">
<ele>28.407025</ele>
<time>2026-07-16T15:31:44.000Z</time>
</trkpt>
<trkpt lat="57.532067" lon="9.937366">
<ele>28.427680</ele>
<time>2026-07-16T15:31:45.000Z</time>
</trkpt>
<trkpt lat="57.532073" lon="9.937278">
<ele>28.447200</ele>
<time>2026-07-16T15:31:46.000Z</time>
</trkpt>
<trkpt lat="57.532079" lon="9.937185">
<ele>28.467812</ele>
<time>2026-07-16T15:31:47.000Z</time>
</trkpt>
<trkpt lat="57.532087" lon="9.937089">
<ele>28.489189</ele>
<time>2026-07-16T15:31:48.000Z</time>
</trkpt>
<trkpt lat="57.532095" lon="9.936993">
<ele>28.510567</ele>
<time>2026-07-16T15:31:49.000Z</time>
</trkpt>
<trkpt lat="57.532102" lon="9.936896">
<ele>28.532104</ele>
<time>2026-07-16T15:31:50.000Z</time>
</trkpt>
<trkpt lat="57.532107" lon="9.936803">
<ele>28.552670</ele>
<time>2026-07-16T15:31:51.000Z</time>
</trkpt>
<trkpt lat="57.532114" lon="9.936710">
<ele>28.573335</ele>
<time>2026-07-16T15:31:52.000Z</time>
</trkpt>
<trkpt lat="57.532121" lon="9.936617">
<ele>28.594000</ele>
<time>2026-07-16T15:31:53.000Z</time>
</trkpt>
<trkpt lat="57.532124" lon="9.936526">
<ele>28.614062</ele>
<time>2026-07-16T15:31:54.000Z</time>
</trkpt>
<trkpt lat="57.532132" lon="9.936436">
<ele>28.634136</ele>
<time>2026-07-16T15:31:55.000Z</time>
</trkpt>
<trkpt lat="57.532141" lon="9.936346">
<ele>28.654281</ele>
<time>2026-07-16T15:31:56.000Z</time>
</trkpt>
<trkpt lat="57.532151" lon="9.936260">
<ele>28.673644</ele>
<time>2026-07-16T15:31:57.000Z</time>
</trkpt>
<trkpt lat="57.532160" lon="9.936174">
<ele>28.692924</ele>
<time>2026-07-16T15:31:58.000Z</time>
</trkpt>
<trkpt lat="57.532167" lon="9.936087">
<ele>28.712282</ele>
<time>2026-07-16T15:31:59.000Z</time>
</trkpt>
<trkpt lat="57.532172" lon="9.936001">
<ele>28.731317</ele>
<time>2026-07-16T15:32:00.000Z</time>
</trkpt>
<trkpt lat="57.532181" lon="9.935912">
<ele>28.751245</ele>
<time>2026-07-16T15:32:01.000Z</time>
</trkpt>
<trkpt lat="57.532190" lon="9.935823">
<ele>28.771174</ele>
<time>2026-07-16T15:32:02.000Z</time>
</trkpt>
<trkpt lat="57.532198" lon="9.935733">
<ele>28.791248</ele>
<time>2026-07-16T15:32:03.000Z</time>
</trkpt>
<trkpt lat="57.532205" lon="9.935640">
<ele>28.847179</ele>
<time>2026-07-16T15:32:04.000Z</time>
</trkpt>
<trkpt lat="57.532216" lon="9.935543">
<ele>28.915738</ele>
<time>2026-07-16T15:32:05.000Z</time>
</trkpt>
<trkpt lat="57.532224" lon="9.935443">
<ele>28.985654</ele>
<time>2026-07-16T15:32:06.000Z</time>
</trkpt>
<trkpt lat="57.532235" lon="9.935348">
<ele>29.052860</ele>
<time>2026-07-16T15:32:07.000Z</time>
</trkpt>
<trkpt lat="57.532246" lon="9.935252">
<ele>29.120741</ele>
<time>2026-07-16T15:32:08.000Z</time>
</trkpt>
<trkpt lat="57.532252" lon="9.935156">
<ele>29.187576</ele>
<time>2026-07-16T15:32:09.000Z</time>
</trkpt>
<trkpt lat="57.532262" lon="9.935062">
<ele>29.253844</ele>
<time>2026-07-16T15:32:10.000Z</time>
</trkpt>
<trkpt lat="57.532267" lon="9.934969">
<ele>29.318477</ele>
<time>2026-07-16T15:32:11.000Z</time>
</trkpt>
<trkpt lat="57.532271" lon="9.934873">
<ele>29.385063</ele>
<time>2026-07-16T15:32:12.000Z</time>
</trkpt>
<trkpt lat="57.532278" lon="9.934778">
<ele>29.451374</ele>
<time>2026-07-16T15:32:13.000Z</time>
</trkpt>
<trkpt lat="57.532283" lon="9.934683">
<ele>29.517384</ele>
<time>2026-07-16T15:32:14.000Z</time>
</trkpt>
<trkpt lat="57.532292" lon="9.934590">
<ele>29.582732</ele>
<time>2026-07-16T15:32:15.000Z</time>
</trkpt>
<trkpt lat="57.532304" lon="9.934499">
<ele>29.647532</ele>
<time>2026-07-16T15:32:16.000Z</time>
</trkpt>
<trkpt lat="57.532312" lon="9.934404">
<ele>29.714030</ele>
<time>2026-07-16T15:32:17.000Z</time>
</trkpt>
<trkpt lat="57.532317" lon="9.934303">
<ele>29.784170</ele>
<time>2026-07-16T15:32:18.000Z</time>
</trkpt>
<trkpt lat="57.532326" lon="9.934201">
<ele>29.855652</ele>
<time>2026-07-16T15:32:19.000Z</time>
</trkpt>
<trkpt lat="57.532335" lon="9.934102">
<ele>29.925088</ele>
<time>2026-07-16T15:32:20.000Z</time>
</trkpt>
<trkpt lat="57.532343" lon="9.934008">
<ele>29.990903</ele>
<time>2026-07-16T15:32:21.000Z</time>
</trkpt>
<trkpt lat="57.532350" lon="9.933917">
<ele>30.054474</ele>
<time>2026-07-16T15:32:22.000Z</time>
</trkpt>
<trkpt lat="57.532358" lon="9.933827">
<ele>30.117559</ele>
<time>2026-07-16T15:32:23.000Z</time>
</trkpt>
<trkpt lat="57.532366" lon="9.933735">
<ele>30.182008</ele>
<time>2026-07-16T15:32:24.000Z</time>
</trkpt>
<trkpt lat="57.532370" lon="9.933649">
<ele>30.241702</ele>
<time>2026-07-16T15:32:25.000Z</time>
</trkpt>
<trkpt lat="57.532374" lon="9.933564">
<ele>30.300707</ele>
<time>2026-07-16T15:32:26.000Z</time>
</trkpt>
<trkpt lat="57.532381" lon="9.933480">
<ele>30.359490</ele>
<time>2026-07-16T15:32:27.000Z</time>
</trkpt>
<trkpt lat="57.532386" lon="9.933396">
<ele>30.417934</ele>
<time>2026-07-16T15:32:28.000Z</time>
</trkpt>
<trkpt lat="57.532387" lon="9.933312">
<ele>30.476036</ele>
<time>2026-07-16T15:32:29.000Z</time>
</trkpt>
<trkpt lat="57.532392" lon="9.933229">
<ele>30.533793</ele>
<time>2026-07-16T15:32:30.000Z</time>
</trkpt>
<trkpt lat="57.532400" lon="9.933149">
<ele>30.590067</ele>
<time>2026-07-16T15:32:31.000Z</time>
</trkpt>
<trkpt lat="57.532410" lon="9.933073">
<ele>30.644178</ele>
<time>2026-07-16T15:32:32.000Z</time>
</trkpt>
<trkpt lat="57.532419" lon="9.932998">
<ele>30.697322</ele>
<time>2026-07-16T15:32:33.000Z</time>
</trkpt>
<trkpt lat="57.532426" lon="9.932919">
<ele>30.752691</ele>
<time>2026-07-16T15:32:34.000Z</time>
</trkpt>
<trkpt lat="57.532437" lon="9.932841">
<ele>30.808460</ele>
<time>2026-07-16T15:32:35.000Z</time>
</trkpt>
<trkpt lat="57.532443" lon="9.932767">
<ele>30.860213</ele>
<time>2026-07-16T15:32:36.000Z</time>
</trkpt>
<trkpt lat="57.532450" lon="9.932692">
<ele>30.912856</ele>
<time>2026-07-16T15:32:37.000Z</time>
</trkpt>
<trkpt lat="57.532454" lon="9.932618">
<ele>30.964287</ele>
<time>2026-07-16T15:32:38.000Z</time>
</trkpt>
<trkpt lat="57.532464" lon="9.932545">
<ele>31.016386</ele>
<time>2026-07-16T15:32:39.000Z</time>
</trkpt>
<trkpt lat="57.532470" lon="9.932471">
<ele>31.068139</ele>
<time>2026-07-16T15:32:40.000Z</time>
</trkpt>
<trkpt lat="57.532476" lon="9.932398">
<ele>31.115857</ele>
<time>2026-07-16T15:32:41.000Z</time>
</trkpt>
<trkpt lat="57.532484" lon="9.932326">
<ele>31.141591</ele>
<time>2026-07-16T15:32:42.000Z</time>
</trkpt>
<trkpt lat="57.532489" lon="9.932253">
<ele>31.167348</ele>
<time>2026-07-16T15:32:43.000Z</time>
</trkpt>
<trkpt lat="57.532495" lon="9.932181">
<ele>31.192850</ele>
<time>2026-07-16T15:32:44.000Z</time>
</trkpt>
<trkpt lat="57.532506" lon="9.932122">
<ele>31.214710</ele>
<time>2026-07-16T15:32:45.000Z</time>
</trkpt>
<trkpt lat="57.532514" lon="9.932072">
<ele>31.232971</ele>
<time>2026-07-16T15:32:46.000Z</time>
</trkpt>
<trkpt lat="57.532528" lon="9.932016">
<ele>31.254592</ele>
<time>2026-07-16T15:32:47.000Z</time>
</trkpt>
<trkpt lat="57.532546" lon="9.931951">
<ele>31.280191</ele>
<time>2026-07-16T15:32:48.000Z</time>
</trkpt>
<trkpt lat="57.532565" lon="9.931883">
<ele>31.307021</ele>
<time>2026-07-16T15:32:49.000Z</time>
</trkpt>
<trkpt lat="57.532581" lon="9.931818">
<ele>31.332049</ele>
<time>2026-07-16T15:32:50.000Z</time>
</trkpt>
<trkpt lat="57.532602" lon="9.931757">
<ele>31.357412</ele>
<time>2026-07-16T15:32:51.000Z</time>
</trkpt>
<trkpt lat="57.532627" lon="9.931698">
<ele>31.383720</ele>
<time>2026-07-16T15:32:52.000Z</time>
</trkpt>
<trkpt lat="57.532654" lon="9.931636">
<ele>31.411662</ele>
<time>2026-07-16T15:32:53.000Z</time>
</trkpt>
<trkpt lat="57.532686" lon="9.931567">
<ele>31.443576</ele>
<time>2026-07-16T15:32:54.000Z</time>
</trkpt>
<trkpt lat="57.532721" lon="9.931490">
<ele>31.478889</ele>
<time>2026-07-16T15:32:55.000Z</time>
</trkpt>
<trkpt lat="57.532755" lon="9.931403">
<ele>31.516554</ele>
<time>2026-07-16T15:32:56.000Z</time>
</trkpt>
<trkpt lat="57.532792" lon="9.931313">
<ele>31.556229</ele>
<time>2026-07-16T15:32:57.000Z</time>
</trkpt>
<trkpt lat="57.532831" lon="9.931211">
<ele>31.600059</ele>
<time>2026-07-16T15:32:58.000Z</time>
</trkpt>
<trkpt lat="57.532868" lon="9.931113">
<ele>31.641992</ele>
<time>2026-07-16T15:32:59.000Z</time>
</trkpt>
<trkpt lat="57.532904" lon="9.931020">
<ele>31.682122</ele>
<time>2026-07-16T15:33:00.000Z</time>
</trkpt>
<trkpt lat="57.532944" lon="9.930928">
<ele>31.723558</ele>
<time>2026-07-16T15:33:01.000Z</time>
</trkpt>
<trkpt lat="57.532980" lon="9.930838">
<ele>31.762841</ele>
<time>2026-07-16T15:33:02.000Z</time>
</trkpt>
<trkpt lat="57.533015" lon="9.930750">
<ele>31.801173</ele>
<time>2026-07-16T15:33:03.000Z</time>
</trkpt>
<trkpt lat="57.533049" lon="9.930665">
<ele>31.838273</ele>
<time>2026-07-16T15:33:04.000Z</time>
</trkpt>
<trkpt lat="57.533083" lon="9.930579">
<ele>31.875655</ele>
<time>2026-07-16T15:33:05.000Z</time>
</trkpt>
<trkpt lat="57.533120" lon="9.930499">
<ele>31.912613</ele>
<time>2026-07-16T15:33:06.000Z</time>
</trkpt>
<trkpt lat="57.533156" lon="9.930418">
<ele>31.949418</ele>
<time>2026-07-16T15:33:07.000Z</time>
</trkpt>
<trkpt lat="57.533190" lon="9.930345">
<ele>31.983244</ele>
<time>2026-07-16T15:33:08.000Z</time>
</trkpt>
<trkpt lat="57.533222" lon="9.930269">
<ele>32.017049</ele>
<time>2026-07-16T15:33:09.000Z</time>
</trkpt>
<trkpt lat="57.533258" lon="9.930193">
<ele>32.052524</ele>
<time>2026-07-16T15:33:10.000Z</time>
</trkpt>
<trkpt lat="57.533296" lon="9.930116">
<ele>32.089131</ele>
<time>2026-07-16T15:33:11.000Z</time>
</trkpt>
<trkpt lat="57.533336" lon="9.930038">
<ele>32.126886</ele>
<time>2026-07-16T15:33:12.000Z</time>
</trkpt>
<trkpt lat="57.533376" lon="9.929961">
<ele>32.164388</ele>
<time>2026-07-16T15:33:13.000Z</time>
</trkpt>
<trkpt lat="57.533414" lon="9.929882">
<ele>32.201513</ele>
<time>2026-07-16T15:33:14.000Z</time>
</trkpt>
<trkpt lat="57.533455" lon="9.929799">
<ele>32.240990</ele>
<time>2026-07-16T15:33:15.000Z</time>
</trkpt>
<trkpt lat="57.533494" lon="9.929716">
<ele>32.279596</ele>
<time>2026-07-16T15:33:16.000Z</time>
</trkpt>
<trkpt lat="57.533532" lon="9.929633">
<ele>32.239513</ele>
<time>2026-07-16T15:33:17.000Z</time>
</trkpt>
<trkpt lat="57.533568" lon="9.929553">
<ele>32.188505</ele>
<time>2026-07-16T15:33:18.000Z</time>
</trkpt>
<trkpt lat="57.533605" lon="9.929473">
<ele>32.136907</ele>
<time>2026-07-16T15:33:19.000Z</time>
</trkpt>
<trkpt lat="57.533646" lon="9.929394">
<ele>32.083215</ele>
<time>2026-07-16T15:33:20.000Z</time>
</trkpt>
<trkpt lat="57.533685" lon="9.929314">
<ele>32.030411</ele>
<time>2026-07-16T15:33:21.000Z</time>
</trkpt>
<trkpt lat="57.533723" lon="9.929232">
<ele>31.977479</ele>
<time>2026-07-16T15:33:22.000Z</time>
</trkpt>
<trkpt lat="57.533761" lon="9.929148">
<ele>31.923804</ele>
<time>2026-07-16T15:33:23.000Z</time>
</trkpt>
<trkpt lat="57.533799" lon="9.929063">
<ele>31.869754</ele>
<time>2026-07-16T15:33:24.000Z</time>
</trkpt>
<trkpt lat="57.533835" lon="9.928977">
<ele>31.816466</ele>
<time>2026-07-16T15:33:25.000Z</time>
</trkpt>
<trkpt lat="57.533869" lon="9.928888">
<ele>31.763090</ele>
<time>2026-07-16T15:33:26.000Z</time>
</trkpt>
<trkpt lat="57.533903" lon="9.928792">
<ele>31.706893</ele>
<time>2026-07-16T15:33:27.000Z</time>
</trkpt>
<trkpt lat="57.533935" lon="9.928696">
<ele>31.651678</ele>
<time>2026-07-16T15:33:28.000Z</time>
</trkpt>
<trkpt lat="57.533963" lon="9.928614">
<ele>31.604192</ele>
<time>2026-07-16T15:33:29.000Z</time>
</trkpt>
<trkpt lat="57.534000" lon="9.928512">
<ele>31.544040</ele>
<time>2026-07-16T15:33:30.000Z</time>
</trkpt>
<trkpt lat="57.534034" lon="9.928408">
<ele>31.484541</ele>
<time>2026-07-16T15:33:31.000Z</time>
</trkpt>
<trkpt lat="57.534067" lon="9.928315">
<ele>31.430069</ele>
<time>2026-07-16T15:33:32.000Z</time>
</trkpt>
<trkpt lat="57.534091" lon="9.928237">
<ele>31.386140</ele>
<time>2026-07-16T15:33:33.000Z</time>
</trkpt>
<trkpt lat="57.534119" lon="9.928136">
<ele>31.330597</ele>
<time>2026-07-16T15:33:34.000Z</time>
</trkpt>
<trkpt lat="57.534153" lon="9.928023">
<ele>31.267301</ele>
<time>2026-07-16T15:33:35.000Z</time>
</trkpt>
<trkpt lat="57.534180" lon="9.927924">
<ele>31.213043</ele>
<time>2026-07-16T15:33:36.000Z</time>
</trkpt>
<trkpt lat="57.534206" lon="9.927824">
<ele>31.158751</ele>
<time>2026-07-16T15:33:37.000Z</time>
</trkpt>
<trkpt lat="57.534233" lon="9.927719">
<ele>31.101864</ele>
<time>2026-07-16T15:33:38.000Z</time>
</trkpt>
<trkpt lat="57.534257" lon="9.927611">
<ele>31.044750</ele>
<time>2026-07-16T15:33:39.000Z</time>
</trkpt>
<trkpt lat="57.534280" lon="9.927503">
<ele>30.987978</ele>
<time>2026-07-16T15:33:40.000Z</time>
</trkpt>
<trkpt lat="57.534300" lon="9.927394">
<ele>30.931694</ele>
<time>2026-07-16T15:33:41.000Z</time>
</trkpt>
<trkpt lat="57.534319" lon="9.927282">
<ele>30.874301</ele>
<time>2026-07-16T15:33:42.000Z</time>
</trkpt>
<trkpt lat="57.534338" lon="9.927162">
<ele>30.813170</ele>
<time>2026-07-16T15:33:43.000Z</time>
</trkpt>
<trkpt lat="57.534358" lon="9.927047">
<ele>30.754104</ele>
<time>2026-07-16T15:33:44.000Z</time>
</trkpt>
<trkpt lat="57.534377" lon="9.926933">
<ele>30.695779</ele>
<time>2026-07-16T15:33:45.000Z</time>
</trkpt>
<trkpt lat="57.534393" lon="9.926816">
<ele>30.636983</ele>
<time>2026-07-16T15:33:46.000Z</time>
</trkpt>
<trkpt lat="57.534408" lon="9.926697">
<ele>30.578318</ele>
<time>2026-07-16T15:33:47.000Z</time>
</trkpt>
<trkpt lat="57.534423" lon="9.926583">
<ele>30.521987</ele>
<time>2026-07-16T15:33:48.000Z</time>
</trkpt>
<trkpt lat="57.534439" lon="9.926471">
<ele>30.466364</ele>
<time>2026-07-16T15:33:49.000Z</time>
</trkpt>
<trkpt lat="57.534454" lon="9.926360">
<ele>30.411430</ele>
<time>2026-07-16T15:33:50.000Z</time>
</trkpt>
<trkpt lat="57.534466" lon="9.926249">
<ele>30.357088</ele>
<time>2026-07-16T15:33:51.000Z</time>
</trkpt>
<trkpt lat="57.534481" lon="9.926137">
<ele>30.301689</ele>
<time>2026-07-16T15:33:52.000Z</time>
</trkpt>
<trkpt lat="57.534496" lon="9.926026">
<ele>30.246755</ele>
<time>2026-07-16T15:33:53.000Z</time>
</trkpt>
<trkpt lat="57.534511" lon="9.925914">
<ele>30.191355</ele>
<time>2026-07-16T15:33:54.000Z</time>
</trkpt>
<trkpt lat="57.534527" lon="9.925800">
<ele>30.134804</ele>
<time>2026-07-16T15:33:55.000Z</time>
</trkpt>
<trkpt lat="57.534542" lon="9.925687">
<ele>30.078939</ele>
<time>2026-07-16T15:33:56.000Z</time>
</trkpt>
<trkpt lat="57.534557" lon="9.925573">
<ele>30.022608</ele>
<time>2026-07-16T15:33:57.000Z</time>
</trkpt>
<trkpt lat="57.534572" lon="9.925456">
<ele>29.964877</ele>
<time>2026-07-16T15:33:58.000Z</time>
</trkpt>
<trkpt lat="57.534588" lon="9.925337">
<ele>29.906002</ele>
<time>2026-07-16T15:33:59.000Z</time>
</trkpt>
<trkpt lat="57.534603" lon="9.925237">
<ele>29.856171</ele>
<time>2026-07-16T15:34:00.000Z</time>
</trkpt>
<trkpt lat="57.534621" lon="9.925114">
<ele>29.794986</ele>
<time>2026-07-16T15:34:01.000Z</time>
</trkpt>
<trkpt lat="57.534640" lon="9.924988">
<ele>29.732175</ele>
<time>2026-07-16T15:34:02.000Z</time>
</trkpt>
<trkpt lat="57.534653" lon="9.924877">
<ele>29.677650</ele>
<time>2026-07-16T15:34:03.000Z</time>
</trkpt>
<trkpt lat="57.534667" lon="9.924761">
<ele>29.620589</ele>
<time>2026-07-16T15:34:04.000Z</time>
</trkpt>
<trkpt lat="57.534683" lon="9.924641">
<ele>29.561248</ele>
<time>2026-07-16T15:34:05.000Z</time>
</trkpt>
<trkpt lat="57.534698" lon="9.924526">
<ele>29.504451</ele>
<time>2026-07-16T15:34:06.000Z</time>
</trkpt>
<trkpt lat="57.534711" lon="9.924411">
<ele>29.448049</ele>
<time>2026-07-16T15:34:07.000Z</time>
</trkpt>
<trkpt lat="57.534725" lon="9.924297">
<ele>29.391924</ele>
<time>2026-07-16T15:34:08.000Z</time>
</trkpt>
<trkpt lat="57.534743" lon="9.924184">
<ele>29.335355</ele>
<time>2026-07-16T15:34:09.000Z</time>
</trkpt>
<trkpt lat="57.534759" lon="9.924071">
<ele>29.279269</ele>
<time>2026-07-16T15:34:10.000Z</time>
</trkpt>
<trkpt lat="57.534775" lon="9.923957">
<ele>29.222719</ele>
<time>2026-07-16T15:34:11.000Z</time>
</trkpt>
<trkpt lat="57.534790" lon="9.923844">
<ele>29.166854</ele>
<time>2026-07-16T15:34:12.000Z</time>
</trkpt>
<trkpt lat="57.534805" lon="9.923733">
<ele>29.111920</ele>
<time>2026-07-16T15:34:13.000Z</time>
</trkpt>
<trkpt lat="57.534820" lon="9.923622">
<ele>29.056987</ele>
<time>2026-07-16T15:34:14.000Z</time>
</trkpt>
<trkpt lat="57.534835" lon="9.923510">
<ele>29.015412</ele>
<time>2026-07-16T15:34:15.000Z</time>
</trkpt>
<trkpt lat="57.534851" lon="9.923394">
<ele>28.978725</ele>
<time>2026-07-16T15:34:16.000Z</time>
</trkpt>
<trkpt lat="57.534866" lon="9.923281">
<ele>28.943069</ele>
<time>2026-07-16T15:34:17.000Z</time>
</trkpt>
<trkpt lat="57.534884" lon="9.923169">
<ele>28.907257</ele>
<time>2026-07-16T15:34:18.000Z</time>
</trkpt>
<trkpt lat="57.534900" lon="9.923055">
<ele>28.871164</ele>
<time>2026-07-16T15:34:19.000Z</time>
</trkpt>
<trkpt lat="57.534916" lon="9.922940">
<ele>28.834774</ele>
<time>2026-07-16T15:34:20.000Z</time>
</trkpt>
<trkpt lat="57.534931" lon="9.922827">
<ele>28.799118</ele>
<time>2026-07-16T15:34:21.000Z</time>
</trkpt>
<trkpt lat="57.534946" lon="9.922715">
<ele>28.763759</ele>
<time>2026-07-16T15:34:22.000Z</time>
</trkpt>
<trkpt lat="57.534961" lon="9.922605">
<ele>28.728994</ele>
<time>2026-07-16T15:34:23.000Z</time>
</trkpt>
<trkpt lat="57.534977" lon="9.922494">
<ele>28.693789</ele>
<time>2026-07-16T15:34:24.000Z</time>
</trkpt>
<trkpt lat="57.534992" lon="9.922382">
<ele>28.658430</ele>
<time>2026-07-16T15:34:25.000Z</time>
</trkpt>
<trkpt lat="57.535010" lon="9.922266">
<ele>28.621443</ele>
<time>2026-07-16T15:34:26.000Z</time>
</trkpt>
<trkpt lat="57.535026" lon="9.922153">
<ele>28.585646</ele>
<time>2026-07-16T15:34:27.000Z</time>
</trkpt>
<trkpt lat="57.535041" lon="9.922041">
<ele>28.550287</ele>
<time>2026-07-16T15:34:28.000Z</time>
</trkpt>
<trkpt lat="57.535057" lon="9.921927">
<ele>28.514194</ele>
<time>2026-07-16T15:34:29.000Z</time>
</trkpt>
<trkpt lat="57.535069" lon="9.921816">
<ele>28.479511</ele>
<time>2026-07-16T15:34:30.000Z</time>
</trkpt>
<trkpt lat="57.535081" lon="9.921703">
<ele>28.444226</ele>
<time>2026-07-16T15:34:31.000Z</time>
</trkpt>
<trkpt lat="57.535095" lon="9.921591">
<ele>28.409002</ele>
<time>2026-07-16T15:34:32.000Z</time>
</trkpt>
<trkpt lat="57.535110" lon="9.921479">
<ele>28.373643</ele>
<time>2026-07-16T15:34:33.000Z</time>
</trkpt>
<trkpt lat="57.535125" lon="9.921367">
<ele>28.338284</ele>
<time>2026-07-16T15:34:34.000Z</time>
</trkpt>
<trkpt lat="57.535138" lon="9.921256">
<ele>28.303484</ele>
<time>2026-07-16T15:34:35.000Z</time>
</trkpt>
<trkpt lat="57.535149" lon="9.921148">
<ele>28.269812</ele>
<time>2026-07-16T15:34:36.000Z</time>
</trkpt>
<trkpt lat="57.535164" lon="9.921040">
<ele>28.235641</ele>
<time>2026-07-16T15:34:37.000Z</time>
</trkpt>
<trkpt lat="57.535179" lon="9.920933">
<ele>28.201767</ele>
<time>2026-07-16T15:34:38.000Z</time>
</trkpt>
<trkpt lat="57.535194" lon="9.920825">
<ele>28.167596</ele>
<time>2026-07-16T15:34:39.000Z</time>
</trkpt>
<trkpt lat="57.535209" lon="9.920719">
<ele>28.134017</ele>
<time>2026-07-16T15:34:40.000Z</time>
</trkpt>
<trkpt lat="57.535222" lon="9.920612">
<ele>28.100413</ele>
<time>2026-07-16T15:34:41.000Z</time>
</trkpt>
<trkpt lat="57.535236" lon="9.920506">
<ele>28.066976</ele>
<time>2026-07-16T15:34:42.000Z</time>
</trkpt>
<trkpt lat="57.535251" lon="9.920405">
<ele>28.034876</ele>
<time>2026-07-16T15:34:43.000Z</time>
</trkpt>
<trkpt lat="57.535269" lon="9.920306">
<ele>28.008502</ele>
<time>2026-07-16T15:34:44.000Z</time>
</trkpt>
<trkpt lat="57.535286" lon="9.920207">
<ele>27.993676</ele>
<time>2026-07-16T15:34:45.000Z</time>
</trkpt>
<trkpt lat="57.535298" lon="9.920104">
<ele>27.978643</ele>
<time>2026-07-16T15:34:46.000Z</time>
</trkpt>
<trkpt lat="57.535309" lon="9.920002">
<ele>27.963803</ele>
<time>2026-07-16T15:34:47.000Z</time>
</trkpt>
<trkpt lat="57.535321" lon="9.919896">
<ele>27.948352</ele>
<time>2026-07-16T15:34:48.000Z</time>
</trkpt>
<trkpt lat="57.535335" lon="9.919791">
<ele>27.932920</ele>
<time>2026-07-16T15:34:49.000Z</time>
</trkpt>
<trkpt lat="57.535348" lon="9.919691">
<ele>27.918244</ele>
<time>2026-07-16T15:34:50.000Z</time>
</trkpt>
<trkpt lat="57.535365" lon="9.919589">
<ele>27.903010</ele>
<time>2026-07-16T15:34:51.000Z</time>
</trkpt>
<trkpt lat="57.535381" lon="9.919488">
<ele>27.887990</ele>
<time>2026-07-16T15:34:52.000Z</time>
</trkpt>
<trkpt lat="57.535396" lon="9.919383">
<ele>27.872492</ele>
<time>2026-07-16T15:34:53.000Z</time>
</trkpt>
<trkpt lat="57.535414" lon="9.919278">
<ele>27.856770</ele>
<time>2026-07-16T15:34:54.000Z</time>
</trkpt>
<trkpt lat="57.535430" lon="9.919170">
<ele>27.840790</ele>
<time>2026-07-16T15:34:55.000Z</time>
</trkpt>
<trkpt lat="57.535446" lon="9.919059">
<ele>27.824397</ele>
<time>2026-07-16T15:34:56.000Z</time>
</trkpt>
<trkpt lat="57.535461" lon="9.918946">
<ele>27.807793</ele>
<time>2026-07-16T15:34:57.000Z</time>
</trkpt>
<trkpt lat="57.535476" lon="9.918830">
<ele>27.790775</ele>
<time>2026-07-16T15:34:58.000Z</time>
</trkpt>
<trkpt lat="57.535492" lon="9.918719">
<ele>27.774381</ele>
<time>2026-07-16T15:34:59.000Z</time>
</trkpt>
<trkpt lat="57.535505" lon="9.918621">
<ele>27.759983</ele>
<time>2026-07-16T15:35:00.000Z</time>
</trkpt>
<trkpt lat="57.535518" lon="9.918510">
<ele>27.743778</ele>
<time>2026-07-16T15:35:01.000Z</time>
</trkpt>
<trkpt lat="57.535536" lon="9.918391">
<ele>27.726144</ele>
<time>2026-07-16T15:35:02.000Z</time>
</trkpt>
<trkpt lat="57.535553" lon="9.918284">
<ele>27.710227</ele>
<time>2026-07-16T15:35:03.000Z</time>
</trkpt>
<trkpt lat="57.535568" lon="9.918182">
<ele>27.695143</ele>
<time>2026-07-16T15:35:04.000Z</time>
</trkpt>
<trkpt lat="57.535580" lon="9.918073">
<ele>27.679272</ele>
<time>2026-07-16T15:35:05.000Z</time>
</trkpt>
<trkpt lat="57.535595" lon="9.917965">
<ele>27.663360</ele>
<time>2026-07-16T15:35:06.000Z</time>
</trkpt>
<trkpt lat="57.535607" lon="9.917859">
<ele>27.647908</ele>
<time>2026-07-16T15:35:07.000Z</time>
</trkpt>
<trkpt lat="57.535621" lon="9.917758">
<ele>27.633030</ele>
<time>2026-07-16T15:35:08.000Z</time>
</trkpt>
<trkpt lat="57.535637" lon="9.917659">
<ele>27.618283</ele>
<time>2026-07-16T15:35:09.000Z</time>
</trkpt>
<trkpt lat="57.535652" lon="9.917566">
<ele>27.604432</ele>
<time>2026-07-16T15:35:10.000Z</time>
</trkpt>
<trkpt lat="57.535667" lon="9.917481">
<ele>27.591670</ele>
<time>2026-07-16T15:35:11.000Z</time>
</trkpt>
<trkpt lat="57.535677" lon="9.917401">
<ele>27.579954</ele>
<time>2026-07-16T15:35:12.000Z</time>
</trkpt>
<trkpt lat="57.535684" lon="9.917325">
<ele>27.568956</ele>
<time>2026-07-16T15:35:13.000Z</time>
</trkpt>
<trkpt lat="57.535695" lon="9.917251">
<ele>27.558004</ele>
<time>2026-07-16T15:35:14.000Z</time>
</trkpt>
<trkpt lat="57.535701" lon="9.917183">
<ele>27.548174</ele>
<time>2026-07-16T15:35:15.000Z</time>
</trkpt>
<trkpt lat="57.535707" lon="9.917120">
<ele>27.539048</ele>
<time>2026-07-16T15:35:16.000Z</time>
</trkpt>
<trkpt lat="57.535712" lon="9.917060">
<ele>27.537434</ele>
<time>2026-07-16T15:35:17.000Z</time>
</trkpt>
<trkpt lat="57.535722" lon="9.917002">
<ele>27.540768</ele>
<time>2026-07-16T15:35:18.000Z</time>
</trkpt>
<trkpt lat="57.535730" lon="9.916947">
<ele>27.543886</ele>
<time>2026-07-16T15:35:19.000Z</time>
</trkpt>
<trkpt lat="57.535735" lon="9.916896">
<ele>27.546723</ele>
<time>2026-07-16T15:35:20.000Z</time>
</trkpt>
<trkpt lat="57.535739" lon="9.916847">
<ele>27.549435</ele>
<time>2026-07-16T15:35:21.000Z</time>
</trkpt>
<trkpt lat="57.535743" lon="9.916797">
<ele>27.552202</ele>
<time>2026-07-16T15:35:22.000Z</time>
</trkpt>
<trkpt lat="57.535749" lon="9.916754">
<ele>27.554633</ele>
<time>2026-07-16T15:35:23.000Z</time>
</trkpt>
<trkpt lat="57.535746" lon="9.916701">
<ele>27.557550</ele>
<time>2026-07-16T15:35:24.000Z</time>
</trkpt>
<trkpt lat="57.535741" lon="9.916657">
<ele>27.560011</ele>
<time>2026-07-16T15:35:25.000Z</time>
</trkpt>
<trkpt lat="57.535740" lon="9.916620">
<ele>27.562038</ele>
<time>2026-07-16T15:35:26.000Z</time>
</trkpt>
<trkpt lat="57.535743" lon="9.916587">
<ele>27.563870</ele>
<time>2026-07-16T15:35:27.000Z</time>
</trkpt>
<trkpt lat="57.535752" lon="9.916559">
<ele>27.565656</ele>
<time>2026-07-16T15:35:28.000Z</time>
</trkpt>
<trkpt lat="57.535714" lon="9.916508">
<ele>27.570431</ele>
<time>2026-07-16T15:37:21.000Z</time>
</trkpt>
<trkpt lat="57.535687" lon="9.916497">
<ele>27.573249</ele>
<time>2026-07-16T15:37:22.000Z</time>
</trkpt>
<trkpt lat="57.535661" lon="9.916479">
<ele>27.576077</ele>
<time>2026-07-16T15:37:23.000Z</time>
</trkpt>
<trkpt lat="57.535642" lon="9.916461">
<ele>27.578250</ele>
<time>2026-07-16T15:37:24.000Z</time>
</trkpt>
<trkpt lat="57.535620" lon="9.916444">
<ele>27.580678</ele>
<time>2026-07-16T15:37:25.000Z</time>
</trkpt>
<trkpt lat="57.535598" lon="9.916429">
<ele>27.583066</ele>
<time>2026-07-16T15:37:26.000Z</time>
</trkpt>
<trkpt lat="57.535575" lon="9.916419">
<ele>27.585474</ele>
<time>2026-07-16T15:37:27.000Z</time>
</trkpt>
<trkpt lat="57.535549" lon="9.916408">
<ele>27.588192</ele>
<time>2026-07-16T15:37:28.000Z</time>
</trkpt>
<trkpt lat="57.535522" lon="9.916395">
<ele>27.591036</ele>
<time>2026-07-16T15:37:29.000Z</time>
</trkpt>
<trkpt lat="57.535498" lon="9.916382">
<ele>27.593584</ele>
<time>2026-07-16T15:37:30.000Z</time>
</trkpt>
<trkpt lat="57.535478" lon="9.916370">
<ele>27.595726</ele>
<time>2026-07-16T15:37:31.000Z</time>
</trkpt>
<trkpt lat="57.535455" lon="9.916350">
<ele>27.598314</ele>
<time>2026-07-16T15:37:32.000Z</time>
</trkpt>
<trkpt lat="57.535430" lon="9.916328">
<ele>27.601133</ele>
<time>2026-07-16T15:37:33.000Z</time>
</trkpt>
<trkpt lat="57.535410" lon="9.916309">
<ele>27.603421</ele>
<time>2026-07-16T15:37:34.000Z</time>
</trkpt>
<trkpt lat="57.535394" lon="9.916297">
<ele>27.605180</ele>
<time>2026-07-16T15:37:35.000Z</time>
</trkpt>
<trkpt lat="57.535375" lon="9.916282">
<ele>27.607284</ele>
<time>2026-07-16T15:37:36.000Z</time>
</trkpt>
<trkpt lat="57.535353" lon="9.916263">
<ele>27.609756</ele>
<time>2026-07-16T15:37:37.000Z</time>
</trkpt>
<trkpt lat="57.535328" lon="9.916250">
<ele>27.612402</ele>
<time>2026-07-16T15:37:38.000Z</time>
</trkpt>
<trkpt lat="57.535304" lon="9.916240">
<ele>27.614909</ele>
<time>2026-07-16T15:37:39.000Z</time>
</trkpt>
<trkpt lat="57.535276" lon="9.916237">
<ele>27.617769</ele>
<time>2026-07-16T15:37:40.000Z</time>
</trkpt>
<trkpt lat="57.535248" lon="9.916243">
<ele>27.620642</ele>
<time>2026-07-16T15:37:41.000Z</time>
</trkpt>
<trkpt lat="57.535215" lon="9.916250">
<ele>27.624028</ele>
<time>2026-07-16T15:37:42.000Z</time>
</trkpt>
<trkpt lat="57.535167" lon="9.916261">
<ele>27.628959</ele>
<time>2026-07-16T15:37:43.000Z</time>
</trkpt>
<trkpt lat="57.535131" lon="9.916280">
<ele>27.632774</ele>
<time>2026-07-16T15:37:44.000Z</time>
</trkpt>
<trkpt lat="57.535092" lon="9.916316">
<ele>27.637211</ele>
<time>2026-07-16T15:37:45.000Z</time>
</trkpt>
<trkpt lat="57.535051" lon="9.916360">
<ele>27.642035</ele>
<time>2026-07-16T15:37:46.000Z</time>
</trkpt>
<trkpt lat="57.535017" lon="9.916397">
<ele>27.646050</ele>
<time>2026-07-16T15:37:47.000Z</time>
</trkpt>
<trkpt lat="57.534994" lon="9.916431">
<ele>27.649043</ele>
<time>2026-07-16T15:37:48.000Z</time>
</trkpt>
<trkpt lat="57.534969" lon="9.916463">
<ele>27.652135</ele>
<time>2026-07-16T15:37:49.000Z</time>
</trkpt>
<trkpt lat="57.534934" lon="9.916496">
<ele>27.656135</ele>
<time>2026-07-16T15:37:50.000Z</time>
</trkpt>
<trkpt lat="57.534893" lon="9.916528">
<ele>27.660667</ele>
<time>2026-07-16T15:37:51.000Z</time>
</trkpt>
<trkpt lat="57.534854" lon="9.916560">
<ele>27.665011</ele>
<time>2026-07-16T15:37:52.000Z</time>
</trkpt>
<trkpt lat="57.534813" lon="9.916593">
<ele>27.669565</ele>
<time>2026-07-16T15:37:53.000Z</time>
</trkpt>
<trkpt lat="57.534777" lon="9.916630">
<ele>27.673757</ele>
<time>2026-07-16T15:37:54.000Z</time>
</trkpt>
<trkpt lat="57.534739" lon="9.916675">
<ele>27.678347</ele>
<time>2026-07-16T15:37:55.000Z</time>
</trkpt>
<trkpt lat="57.534707" lon="9.916732">
<ele>27.682861</ele>
<time>2026-07-16T15:37:56.000Z</time>
</trkpt>
<trkpt lat="57.534676" lon="9.916798">
<ele>27.687661</ele>
<time>2026-07-16T15:37:57.000Z</time>
</trkpt>
<trkpt lat="57.534646" lon="9.916867">
<ele>27.692520</ele>
<time>2026-07-16T15:37:58.000Z</time>
</trkpt>
<trkpt lat="57.534621" lon="9.916936">
<ele>27.697076</ele>
<time>2026-07-16T15:37:59.000Z</time>
</trkpt>
<trkpt lat="57.534601" lon="9.917002">
<ele>27.701224</ele>
<time>2026-07-16T15:38:00.000Z</time>
</trkpt>
<trkpt lat="57.534579" lon="9.917068">
<ele>27.705475</ele>
<time>2026-07-16T15:38:01.000Z</time>
</trkpt>
<trkpt lat="57.534553" lon="9.917139">
<ele>27.710179</ele>
<time>2026-07-16T15:38:02.000Z</time>
</trkpt>
<trkpt lat="57.534529" lon="9.917209">
<ele>27.714725</ele>
<time>2026-07-16T15:38:03.000Z</time>
</trkpt>
<trkpt lat="57.534504" lon="9.917277">
<ele>27.718080</ele>
<time>2026-07-16T15:38:04.000Z</time>
</trkpt>
<trkpt lat="57.534480" lon="9.917343">
<ele>27.709193</ele>
<time>2026-07-16T15:38:05.000Z</time>
</trkpt>
<trkpt lat="57.534460" lon="9.917405">
<ele>27.701130</ele>
<time>2026-07-16T15:38:06.000Z</time>
</trkpt>
<trkpt lat="57.534442" lon="9.917463">
<ele>27.693661</ele>
<time>2026-07-16T15:38:07.000Z</time>
</trkpt>
<trkpt lat="57.534425" lon="9.917523">
<ele>27.686098</ele>
<time>2026-07-16T15:38:08.000Z</time>
</trkpt>
<trkpt lat="57.534401" lon="9.917579">
<ele>27.678110</ele>
<time>2026-07-16T15:38:09.000Z</time>
</trkpt>
<trkpt lat="57.534377" lon="9.917640">
<ele>27.669679</ele>
<time>2026-07-16T15:38:10.000Z</time>
</trkpt>
<trkpt lat="57.534352" lon="9.917699">
<ele>27.661300</ele>
<time>2026-07-16T15:38:11.000Z</time>
</trkpt>
<trkpt lat="57.534325" lon="9.917768">
<ele>27.651781</ele>
<time>2026-07-16T15:38:12.000Z</time>
</trkpt>
<trkpt lat="57.534301" lon="9.917834">
<ele>27.642894</ele>
<time>2026-07-16T15:38:13.000Z</time>
</trkpt>
<trkpt lat="57.534278" lon="9.917897">
<ele>27.634401</ele>
<time>2026-07-16T15:38:14.000Z</time>
</trkpt>
<trkpt lat="57.534255" lon="9.917959">
<ele>27.626000</ele>
<time>2026-07-16T15:38:15.000Z</time>
</trkpt>
<trkpt lat="57.534229" lon="9.918023">
<ele>27.617052</ele>
<time>2026-07-16T15:38:16.000Z</time>
</trkpt>
<trkpt lat="57.534205" lon="9.918088">
<ele>27.608258</ele>
<time>2026-07-16T15:38:17.000Z</time>
</trkpt>
<trkpt lat="57.534179" lon="9.918151">
<ele>27.599399</ele>
<time>2026-07-16T15:38:18.000Z</time>
</trkpt>
<trkpt lat="57.534155" lon="9.918199">
<ele>27.592086</ele>
<time>2026-07-16T15:38:19.000Z</time>
</trkpt>
<trkpt lat="57.534127" lon="9.918246">
<ele>27.584259</ele>
<time>2026-07-16T15:38:20.000Z</time>
</trkpt>
<trkpt lat="57.534106" lon="9.918295">
<ele>27.577270</ele>
<time>2026-07-16T15:38:21.000Z</time>
</trkpt>
<trkpt lat="57.534081" lon="9.918354">
<ele>27.568890</ele>
<time>2026-07-16T15:38:22.000Z</time>
</trkpt>
<trkpt lat="57.534055" lon="9.918408">
<ele>27.560804</ele>
<time>2026-07-16T15:38:23.000Z</time>
</trkpt>
<trkpt lat="57.534028" lon="9.918466">
<ele>27.552246</ele>
<time>2026-07-16T15:38:24.000Z</time>
</trkpt>
<trkpt lat="57.534000" lon="9.918523">
<ele>27.543632</ele>
<time>2026-07-16T15:38:25.000Z</time>
</trkpt>
<trkpt lat="57.533968" lon="9.918581">
<ele>27.534361</ele>
<time>2026-07-16T15:38:26.000Z</time>
</trkpt>
<trkpt lat="57.533935" lon="9.918637">
<ele>27.525090</ele>
<time>2026-07-16T15:38:27.000Z</time>
</trkpt>
<trkpt lat="57.533904" lon="9.918695">
<ele>27.515966</ele>
<time>2026-07-16T15:38:28.000Z</time>
</trkpt>
<trkpt lat="57.533869" lon="9.918758">
<ele>27.505859</ele>
<time>2026-07-16T15:38:29.000Z</time>
</trkpt>
<trkpt lat="57.533831" lon="9.918819">
<ele>27.495442</ele>
<time>2026-07-16T15:38:30.000Z</time>
</trkpt>
<trkpt lat="57.533796" lon="9.918876">
<ele>27.485788</ele>
<time>2026-07-16T15:38:31.000Z</time>
</trkpt>
<trkpt lat="57.533767" lon="9.918931">
<ele>27.477193</ele>
<time>2026-07-16T15:38:32.000Z</time>
</trkpt>
<trkpt lat="57.533739" lon="9.918984">
<ele>27.468903</ele>
<time>2026-07-16T15:38:33.000Z</time>
</trkpt>
<trkpt lat="57.533711" lon="9.919041">
<ele>27.460290</ele>
<time>2026-07-16T15:38:34.000Z</time>
</trkpt>
<trkpt lat="57.533683" lon="9.919096">
<ele>27.451840</ele>
<time>2026-07-16T15:38:35.000Z</time>
</trkpt>
<trkpt lat="57.533655" lon="9.919151">
<ele>27.443390</ele>
<time>2026-07-16T15:38:36.000Z</time>
</trkpt>
<trkpt lat="57.533621" lon="9.919210">
<ele>27.433740</ele>
<time>2026-07-16T15:38:37.000Z</time>
</trkpt>
<trkpt lat="57.533584" lon="9.919266">
<ele>27.423840</ele>
<time>2026-07-16T15:38:38.000Z</time>
</trkpt>
<trkpt lat="57.533549" lon="9.919322">
<ele>27.414259</ele>
<time>2026-07-16T15:38:39.000Z</time>
</trkpt>
<trkpt lat="57.533517" lon="9.919380">
<ele>27.404987</ele>
<time>2026-07-16T15:38:40.000Z</time>
</trkpt>
<trkpt lat="57.533480" lon="9.919441">
<ele>27.394726</ele>
<time>2026-07-16T15:38:41.000Z</time>
</trkpt>
<trkpt lat="57.533445" lon="9.919487">
<ele>27.385831</ele>
<time>2026-07-16T15:38:42.000Z</time>
</trkpt>
<trkpt lat="57.533399" lon="9.919541">
<ele>27.374540</ele>
<time>2026-07-16T15:38:43.000Z</time>
</trkpt>
<trkpt lat="57.533353" lon="9.919594">
<ele>27.363307</ele>
<time>2026-07-16T15:38:44.000Z</time>
</trkpt>
<trkpt lat="57.533313" lon="9.919645">
<ele>27.353241</ele>
<time>2026-07-16T15:38:45.000Z</time>
</trkpt>
<trkpt lat="57.533276" lon="9.919690">
<ele>27.345196</ele>
<time>2026-07-16T15:38:46.000Z</time>
</trkpt>
<trkpt lat="57.533232" lon="9.919747">
<ele>27.344012</ele>
<time>2026-07-16T15:38:47.000Z</time>
</trkpt>
<trkpt lat="57.533190" lon="9.919806">
<ele>27.342851</ele>
<time>2026-07-16T15:38:48.000Z</time>
</trkpt>
<trkpt lat="57.533153" lon="9.919857">
<ele>27.341835</ele>
<time>2026-07-16T15:38:49.000Z</time>
</trkpt>
<trkpt lat="57.533112" lon="9.919909">
<ele>27.340740</ele>
<time>2026-07-16T15:38:50.000Z</time>
</trkpt>
<trkpt lat="57.533072" lon="9.919964">
<ele>27.339642</ele>
<time>2026-07-16T15:38:51.000Z</time>
</trkpt>
<trkpt lat="57.533035" lon="9.920019">
<ele>27.338597</ele>
<time>2026-07-16T15:38:52.000Z</time>
</trkpt>
<trkpt lat="57.532997" lon="9.920075">
<ele>27.337527</ele>
<time>2026-07-16T15:38:53.000Z</time>
</trkpt>
<trkpt lat="57.532964" lon="9.920130">
<ele>27.336550</ele>
<time>2026-07-16T15:38:54.000Z</time>
</trkpt>
<trkpt lat="57.532930" lon="9.920183">
<ele>27.335571</ele>
<time>2026-07-16T15:38:55.000Z</time>
</trkpt>
<trkpt lat="57.532898" lon="9.920234">
<ele>27.334641</ele>
<time>2026-07-16T15:38:56.000Z</time>
</trkpt>
<trkpt lat="57.532868" lon="9.920285">
<ele>27.333745</ele>
<time>2026-07-16T15:38:57.000Z</time>
</trkpt>
<trkpt lat="57.532837" lon="9.920338">
<ele>27.332816</ele>
<time>2026-07-16T15:38:58.000Z</time>
</trkpt>
<trkpt lat="57.532804" lon="9.920391">
<ele>27.331854</ele>
<time>2026-07-16T15:38:59.000Z</time>
</trkpt>
<trkpt lat="57.532770" lon="9.920443">
<ele>27.330883</ele>
<time>2026-07-16T15:39:00.000Z</time>
</trkpt>
<trkpt lat="57.532735" lon="9.920493">
<ele>27.329909</ele>
<time>2026-07-16T15:39:01.000Z</time>
</trkpt>
<trkpt lat="57.532704" lon="9.920539">
<ele>27.329034</ele>
<time>2026-07-16T15:39:02.000Z</time>
</trkpt>
<trkpt lat="57.532671" lon="9.920587">
<ele>27.328109</ele>
<time>2026-07-16T15:39:03.000Z</time>
</trkpt>
<trkpt lat="57.532636" lon="9.920634">
<ele>27.327157</ele>
<time>2026-07-16T15:39:04.000Z</time>
</trkpt>
<trkpt lat="57.532606" lon="9.920680">
<ele>27.326299</ele>
<time>2026-07-16T15:39:05.000Z</time>
</trkpt>
<trkpt lat="57.532575" lon="9.920732">
<ele>27.325378</ele>
<time>2026-07-16T15:39:06.000Z</time>
</trkpt>
<trkpt lat="57.532541" lon="9.920783">
<ele>27.324414</ele>
<time>2026-07-16T15:39:07.000Z</time>
</trkpt>
<trkpt lat="57.532510" lon="9.920830">
<ele>27.323532</ele>
<time>2026-07-16T15:39:08.000Z</time>
</trkpt>
<trkpt lat="57.532476" lon="9.920877">
<ele>27.322597</ele>
<time>2026-07-16T15:39:09.000Z</time>
</trkpt>
<trkpt lat="57.532448" lon="9.920916">
<ele>27.321825</ele>
<time>2026-07-16T15:39:10.000Z</time>
</trkpt>
<trkpt lat="57.532422" lon="9.920956">
<ele>27.321081</ele>
<time>2026-07-16T15:39:11.000Z</time>
</trkpt>
<trkpt lat="57.532400" lon="9.920993">
<ele>27.320427</ele>
<time>2026-07-16T15:39:12.000Z</time>
</trkpt>
<trkpt lat="57.532370" lon="9.921029">
<ele>27.319639</ele>
<time>2026-07-16T15:39:13.000Z</time>
</trkpt>
<trkpt lat="57.532346" lon="9.921048">
<ele>27.319063</ele>
<time>2026-07-16T15:39:14.000Z</time>
</trkpt>
<trkpt lat="57.532327" lon="9.921055">
<ele>27.318635</ele>
<time>2026-07-16T15:39:15.000Z</time>
</trkpt>
<trkpt lat="57.532314" lon="9.921064">
<ele>27.318329</ele>
<time>2026-07-16T15:39:16.000Z</time>
</trkpt>
<trkpt lat="57.532244" lon="9.920752">
<ele>27.314321</ele>
<time>2026-07-16T15:39:41.000Z</time>
</trkpt>
<trkpt lat="57.532248" lon="9.920727">
<ele>27.314012</ele>
<time>2026-07-16T15:39:42.000Z</time>
</trkpt>
<trkpt lat="57.532252" lon="9.920698">
<ele>27.313657</ele>
<time>2026-07-16T15:39:43.000Z</time>
</trkpt>
<trkpt lat="57.532259" lon="9.920673">
<ele>27.313323</ele>
<time>2026-07-16T15:39:44.000Z</time>
</trkpt>
<trkpt lat="57.532264" lon="9.920651">
<ele>27.313040</ele>
<time>2026-07-16T15:39:45.000Z</time>
</trkpt>
<trkpt lat="57.532267" lon="9.920628">
<ele>27.312760</ele>
<time>2026-07-16T15:39:46.000Z</time>
</trkpt>
<trkpt lat="57.532271" lon="9.920605">
<ele>27.312473</ele>
<time>2026-07-16T15:39:47.000Z</time>
</trkpt>
<trkpt lat="57.532275" lon="9.920584">
<ele>27.312209</ele>
<time>2026-07-16T15:39:48.000Z</time>
</trkpt>
<trkpt lat="57.532279" lon="9.920566">
<ele>27.311978</ele>
<time>2026-07-16T15:39:49.000Z</time>
</trkpt>
<trkpt lat="57.532283" lon="9.920553">
<ele>27.311801</ele>
<time>2026-07-16T15:39:50.000Z</time>
</trkpt>
<trkpt lat="57.532289" lon="9.920539">
<ele>27.311588</ele>
<time>2026-07-16T15:39:51.000Z</time>
</trkpt>
<trkpt lat="57.532291" lon="9.920535">
<ele>27.311523</ele>
<time>2026-07-16T15:39:52.000Z</time>
</trkpt>
<trkpt lat="57.532308" lon="9.920502">
<ele>27.310981</ele>
<time>2026-07-16T15:39:54.000Z</time>
</trkpt>
<trkpt lat="57.532314" lon="9.920473">
<ele>27.310613</ele>
<time>2026-07-16T15:39:55.000Z</time>
</trkpt>
<trkpt lat="57.532314" lon="9.920452">
<ele>27.310364</ele>
<time>2026-07-16T15:39:56.000Z</time>
</trkpt>
<trkpt lat="57.532311" lon="9.920435">
<ele>27.310152</ele>
<time>2026-07-16T15:39:57.000Z</time>
</trkpt>
<trkpt lat="57.532308" lon="9.920420">
<ele>27.309962</ele>
<time>2026-07-16T15:39:58.000Z</time>
</trkpt>
<trkpt lat="57.532307" lon="9.920415">
<ele>27.309899</ele>
<time>2026-07-16T15:39:59.000Z</time>
</trkpt>
<trkpt lat="57.532307" lon="9.920415">
<ele>27.309899</ele>
<time>2026-07-16T15:40:02.000Z</time>
</trkpt>
<trkpt lat="57.532210" lon="9.920812">
<ele>27.307714</ele>
<time>2026-07-16T16:00:15.000Z</time>
</trkpt>
<trkpt lat="57.532205" lon="9.920856">
<ele>27.308967</ele>
<time>2026-07-16T16:00:16.000Z</time>
</trkpt>
<trkpt lat="57.532201" lon="9.920901">
<ele>27.310236</ele>
<time>2026-07-16T16:00:17.000Z</time>
</trkpt>
<trkpt lat="57.532200" lon="9.920948">
<ele>27.311546</ele>
<time>2026-07-16T16:00:18.000Z</time>
</trkpt>
<trkpt lat="57.532200" lon="9.920996">
<ele>27.312882</ele>
<time>2026-07-16T16:00:19.000Z</time>
</trkpt>
<trkpt lat="57.532203" lon="9.921035">
<ele>27.313979</ele>
<time>2026-07-16T16:00:20.000Z</time>
</trkpt>
<trkpt lat="57.532212" lon="9.921068">
<ele>27.315010</ele>
<time>2026-07-16T16:00:21.000Z</time>
</trkpt>
<trkpt lat="57.532226" lon="9.921086">
<ele>27.315892</ele>
<time>2026-07-16T16:00:22.000Z</time>
</trkpt>
<trkpt lat="57.532241" lon="9.921094">
<ele>27.316701</ele>
<time>2026-07-16T16:00:23.000Z</time>
</trkpt>
<trkpt lat="57.532259" lon="9.921085">
<ele>27.317668</ele>
<time>2026-07-16T16:00:24.000Z</time>
</trkpt>
<trkpt lat="57.532278" lon="9.921066">
<ele>27.318786</ele>
<time>2026-07-16T16:00:25.000Z</time>
</trkpt>
<trkpt lat="57.532300" lon="9.921040">
<ele>27.320137</ele>
<time>2026-07-16T16:00:26.000Z</time>
</trkpt>
<trkpt lat="57.532326" lon="9.921014">
<ele>27.321668</ele>
<time>2026-07-16T16:00:27.000Z</time>
</trkpt>
<trkpt lat="57.532352" lon="9.920986">
<ele>27.323225</ele>
<time>2026-07-16T16:00:28.000Z</time>
</trkpt>
<trkpt lat="57.532379" lon="9.920951">
<ele>27.324931</ele>
<time>2026-07-16T16:00:29.000Z</time>
</trkpt>
<trkpt lat="57.532406" lon="9.920911">
<ele>27.326720</ele>
<time>2026-07-16T16:00:30.000Z</time>
</trkpt>
<trkpt lat="57.532433" lon="9.920867">
<ele>27.328581</ele>
<time>2026-07-16T16:00:31.000Z</time>
</trkpt>
<trkpt lat="57.532460" lon="9.920820">
<ele>27.330497</ele>
<time>2026-07-16T16:00:32.000Z</time>
</trkpt>
<trkpt lat="57.532486" lon="9.920775">
<ele>27.332338</ele>
<time>2026-07-16T16:00:33.000Z</time>
</trkpt>
<trkpt lat="57.532513" lon="9.920730">
<ele>27.334217</ele>
<time>2026-07-16T16:00:34.000Z</time>
</trkpt>
<trkpt lat="57.532542" lon="9.920680">
<ele>27.336266</ele>
<time>2026-07-16T16:00:35.000Z</time>
</trkpt>
<trkpt lat="57.532573" lon="9.920629">
<ele>27.338411</ele>
<time>2026-07-16T16:00:36.000Z</time>
</trkpt>
<trkpt lat="57.532603" lon="9.920579">
<ele>27.340499</ele>
<time>2026-07-16T16:00:37.000Z</time>
</trkpt>
<trkpt lat="57.532637" lon="9.920530">
<ele>27.342728</ele>
<time>2026-07-16T16:00:38.000Z</time>
</trkpt>
<trkpt lat="57.532666" lon="9.920481">
<ele>27.344759</ele>
<time>2026-07-16T16:00:39.000Z</time>
</trkpt>
<trkpt lat="57.532695" lon="9.920434">
<ele>27.346753</ele>
<time>2026-07-16T16:00:40.000Z</time>
</trkpt>
<trkpt lat="57.532724" lon="9.920392">
<ele>27.348658</ele>
<time>2026-07-16T16:00:41.000Z</time>
</trkpt>
<trkpt lat="57.532758" lon="9.920346">
<ele>27.350837</ele>
<time>2026-07-16T16:00:42.000Z</time>
</trkpt>
<trkpt lat="57.532796" lon="9.920297">
<ele>27.353234</ele>
<time>2026-07-16T16:00:43.000Z</time>
</trkpt>
<trkpt lat="57.532834" lon="9.920246">
<ele>27.355663</ele>
<time>2026-07-16T16:00:44.000Z</time>
</trkpt>
<trkpt lat="57.532872" lon="9.920193">
<ele>27.358125</ele>
<time>2026-07-16T16:00:45.000Z</time>
</trkpt>
<trkpt lat="57.532910" lon="9.920141">
<ele>27.360570</ele>
<time>2026-07-16T16:00:46.000Z</time>
</trkpt>
<trkpt lat="57.532947" lon="9.920091">
<ele>27.362941</ele>
<time>2026-07-16T16:00:47.000Z</time>
</trkpt>
<trkpt lat="57.532983" lon="9.920036">
<ele>27.365355</ele>
<time>2026-07-16T16:00:48.000Z</time>
</trkpt>
<trkpt lat="57.533020" lon="9.919982">
<ele>27.367793</ele>
<time>2026-07-16T16:00:49.000Z</time>
</trkpt>
<trkpt lat="57.533058" lon="9.919929">
<ele>27.370255</ele>
<time>2026-07-16T16:00:50.000Z</time>
</trkpt>
<trkpt lat="57.533094" lon="9.919873">
<ele>27.372687</ele>
<time>2026-07-16T16:00:51.000Z</time>
</trkpt>
<trkpt lat="57.533132" lon="9.919816">
<ele>27.375218</ele>
<time>2026-07-16T16:00:52.000Z</time>
</trkpt>
<trkpt lat="57.533169" lon="9.919762">
<ele>27.377655</ele>
<time>2026-07-16T16:00:53.000Z</time>
</trkpt>
<trkpt lat="57.533207" lon="9.919708">
<ele>27.380134</ele>
<time>2026-07-16T16:00:54.000Z</time>
</trkpt>
<trkpt lat="57.533246" lon="9.919653">
<ele>27.382671</ele>
<time>2026-07-16T16:00:55.000Z</time>
</trkpt>
<trkpt lat="57.533279" lon="9.919595">
<ele>27.385024</ele>
<time>2026-07-16T16:00:56.000Z</time>
</trkpt>
<trkpt lat="57.533315" lon="9.919535">
<ele>27.387529</ele>
<time>2026-07-16T16:00:57.000Z</time>
</trkpt>
<trkpt lat="57.533350" lon="9.919475">
<ele>27.389996</ele>
<time>2026-07-16T16:00:58.000Z</time>
</trkpt>
<trkpt lat="57.533382" lon="9.919418">
<ele>27.392292</ele>
<time>2026-07-16T16:00:59.000Z</time>
</trkpt>
<trkpt lat="57.533412" lon="9.919361">
<ele>27.394515</ele>
<time>2026-07-16T16:01:00.000Z</time>
</trkpt>
<trkpt lat="57.533445" lon="9.919301">
<ele>27.396906</ele>
<time>2026-07-16T16:01:01.000Z</time>
</trkpt>
<trkpt lat="57.533480" lon="9.919243">
<ele>27.401018</ele>
<time>2026-07-16T16:01:02.000Z</time>
</trkpt>
<trkpt lat="57.533516" lon="9.919186">
<ele>27.412993</ele>
<time>2026-07-16T16:01:03.000Z</time>
</trkpt>
<trkpt lat="57.533557" lon="9.919126">
<ele>27.426208</ele>
<time>2026-07-16T16:01:04.000Z</time>
</trkpt>
<trkpt lat="57.533600" lon="9.919062">
<ele>27.440159</ele>
<time>2026-07-16T16:01:05.000Z</time>
</trkpt>
<trkpt lat="57.533641" lon="9.918996">
<ele>27.453893</ele>
<time>2026-07-16T16:01:06.000Z</time>
</trkpt>
<trkpt lat="57.533681" lon="9.918932">
<ele>27.467258</ele>
<time>2026-07-16T16:01:07.000Z</time>
</trkpt>
<trkpt lat="57.533721" lon="9.918867">
<ele>27.480712</ele>
<time>2026-07-16T16:01:08.000Z</time>
</trkpt>
<trkpt lat="57.533764" lon="9.918803">
<ele>27.494662</ele>
<time>2026-07-16T16:01:09.000Z</time>
</trkpt>
<trkpt lat="57.533803" lon="9.918738">
<ele>27.507926</ele>
<time>2026-07-16T16:01:10.000Z</time>
</trkpt>
<trkpt lat="57.533836" lon="9.918672">
<ele>27.520198</ele>
<time>2026-07-16T16:01:11.000Z</time>
</trkpt>
<trkpt lat="57.533869" lon="9.918607">
<ele>27.532370</ele>
<time>2026-07-16T16:01:12.000Z</time>
</trkpt>
<trkpt lat="57.533904" lon="9.918548">
<ele>27.544335</ele>
<time>2026-07-16T16:01:13.000Z</time>
</trkpt>
<trkpt lat="57.533943" lon="9.918479">
<ele>27.557967</ele>
<time>2026-07-16T16:01:14.000Z</time>
</trkpt>
<trkpt lat="57.533979" lon="9.918411">
<ele>27.570962</ele>
<time>2026-07-16T16:01:15.000Z</time>
</trkpt>
<trkpt lat="57.534019" lon="9.918349">
<ele>27.584151</ele>
<time>2026-07-16T16:01:16.000Z</time>
</trkpt>
<trkpt lat="57.534059" lon="9.918282">
<ele>27.597785</ele>
<time>2026-07-16T16:01:17.000Z</time>
</trkpt>
<trkpt lat="57.534093" lon="9.918215">
<ele>27.610330</ele>
<time>2026-07-16T16:01:18.000Z</time>
</trkpt>
<trkpt lat="57.534128" lon="9.918144">
<ele>27.623445</ele>
<time>2026-07-16T16:01:19.000Z</time>
</trkpt>
<trkpt lat="57.534160" lon="9.918069">
<ele>27.636480</ele>
<time>2026-07-16T16:01:20.000Z</time>
</trkpt>
<trkpt lat="57.534190" lon="9.917986">
<ele>27.650095</ele>
<time>2026-07-16T16:01:21.000Z</time>
</trkpt>
<trkpt lat="57.534218" lon="9.917903">
<ele>27.663432</ele>
<time>2026-07-16T16:01:22.000Z</time>
</trkpt>
<trkpt lat="57.534245" lon="9.917817">
<ele>27.676988</ele>
<time>2026-07-16T16:01:23.000Z</time>
</trkpt>
<trkpt lat="57.534274" lon="9.917733">
<ele>27.690576</ele>
<time>2026-07-16T16:01:24.000Z</time>
</trkpt>
<trkpt lat="57.534302" lon="9.917650">
<ele>27.703914</ele>
<time>2026-07-16T16:01:25.000Z</time>
</trkpt>
<trkpt lat="57.534329" lon="9.917566">
<ele>27.717235</ele>
<time>2026-07-16T16:01:26.000Z</time>
</trkpt>
<trkpt lat="57.534358" lon="9.917488">
<ele>27.730145</ele>
<time>2026-07-16T16:01:27.000Z</time>
</trkpt>
<trkpt lat="57.534388" lon="9.917411">
<ele>27.743090</ele>
<time>2026-07-16T16:01:28.000Z</time>
</trkpt>
<trkpt lat="57.534417" lon="9.917332">
<ele>27.756111</ele>
<time>2026-07-16T16:01:29.000Z</time>
</trkpt>
<trkpt lat="57.534448" lon="9.917247">
<ele>27.770093</ele>
<time>2026-07-16T16:01:30.000Z</time>
</trkpt>
<trkpt lat="57.534479" lon="9.917161">
<ele>27.784187</ele>
<time>2026-07-16T16:01:31.000Z</time>
</trkpt>
<trkpt lat="57.534511" lon="9.917075">
<ele>27.798424</ele>
<time>2026-07-16T16:01:32.000Z</time>
</trkpt>
<trkpt lat="57.534538" lon="9.916989">
<ele>27.811980</ele>
<time>2026-07-16T16:01:33.000Z</time>
</trkpt>
<trkpt lat="57.534565" lon="9.916906">
<ele>27.825184</ele>
<time>2026-07-16T16:01:34.000Z</time>
</trkpt>
<trkpt lat="57.534589" lon="9.916835">
<ele>27.836600</ele>
<time>2026-07-16T16:01:35.000Z</time>
</trkpt>
<trkpt lat="57.534615" lon="9.916776">
<ele>27.846986</ele>
<time>2026-07-16T16:01:36.000Z</time>
</trkpt>
<trkpt lat="57.534641" lon="9.916729">
<ele>27.852651</ele>
<time>2026-07-16T16:01:37.000Z</time>
</trkpt>
<trkpt lat="57.534671" lon="9.916691">
<ele>27.838325</ele>
<time>2026-07-16T16:01:38.000Z</time>
</trkpt>
<trkpt lat="57.534699" lon="9.916662">
<ele>27.825674</ele>
<time>2026-07-16T16:01:39.000Z</time>
</trkpt>
<trkpt lat="57.534726" lon="9.916635">
<ele>27.813572</ele>
<time>2026-07-16T16:01:40.000Z</time>
</trkpt>
<trkpt lat="57.534754" lon="9.916605">
<ele>27.800817</ele>
<time>2026-07-16T16:01:41.000Z</time>
</trkpt>
<trkpt lat="57.534802" lon="9.916551">
<ele>27.778673</ele>
<time>2026-07-16T16:01:42.000Z</time>
</trkpt>
<trkpt lat="57.534847" lon="9.916494">
<ele>27.757184</ele>
<time>2026-07-16T16:01:43.000Z</time>
</trkpt>
<trkpt lat="57.534883" lon="9.916436">
<ele>27.738388</ele>
<time>2026-07-16T16:01:44.000Z</time>
</trkpt>
<trkpt lat="57.534910" lon="9.916380">
<ele>27.722432</ele>
<time>2026-07-16T16:01:45.000Z</time>
</trkpt>
<trkpt lat="57.534938" lon="9.916331">
<ele>27.707261</ele>
<time>2026-07-16T16:01:46.000Z</time>
</trkpt>
<trkpt lat="57.534965" lon="9.916291">
<ele>27.693638</ele>
<time>2026-07-16T16:01:47.000Z</time>
</trkpt>
<trkpt lat="57.534987" lon="9.916272">
<ele>27.684062</ele>
<time>2026-07-16T16:01:48.000Z</time>
</trkpt>
<trkpt lat="57.535008" lon="9.916265">
<ele>27.675637</ele>
<time>2026-07-16T16:01:49.000Z</time>
</trkpt>
<trkpt lat="57.535043" lon="9.916262">
<ele>27.661801</ele>
<time>2026-07-16T16:01:50.000Z</time>
</trkpt>
<trkpt lat="57.535072" lon="9.916265">
<ele>27.650331</ele>
<time>2026-07-16T16:01:51.000Z</time>
</trkpt>
<trkpt lat="57.535102" lon="9.916271">
<ele>27.638416</ele>
<time>2026-07-16T16:01:52.000Z</time>
</trkpt>
<trkpt lat="57.535130" lon="9.916281">
<ele>27.627157</ele>
<time>2026-07-16T16:01:53.000Z</time>
</trkpt>
<trkpt lat="57.535165" lon="9.916297">
<ele>27.612926</ele>
<time>2026-07-16T16:01:54.000Z</time>
</trkpt>
<trkpt lat="57.535198" lon="9.916319">
<ele>27.599085</ele>
<time>2026-07-16T16:01:55.000Z</time>
</trkpt>
<trkpt lat="57.535239" lon="9.916334">
<ele>27.582584</ele>
<time>2026-07-16T16:01:56.000Z</time>
</trkpt>
<trkpt lat="57.535278" lon="9.916349">
<ele>27.566858</ele>
<time>2026-07-16T16:01:57.000Z</time>
</trkpt>
<trkpt lat="57.535312" lon="9.916363">
<ele>27.553107</ele>
<time>2026-07-16T16:01:58.000Z</time>
</trkpt>
<trkpt lat="57.535338" lon="9.916371">
<ele>27.542701</ele>
<time>2026-07-16T16:01:59.000Z</time>
</trkpt>
<trkpt lat="57.535366" lon="9.916383">
<ele>27.531355</ele>
<time>2026-07-16T16:02:00.000Z</time>
</trkpt>
<trkpt lat="57.535390" lon="9.916402">
<ele>27.521057</ele>
<time>2026-07-16T16:02:01.000Z</time>
</trkpt>
<trkpt lat="57.535413" lon="9.916425">
<ele>27.510748</ele>
<time>2026-07-16T16:02:02.000Z</time>
</trkpt>
<trkpt lat="57.535434" lon="9.916443">
<ele>27.501619</ele>
<time>2026-07-16T16:02:03.000Z</time>
</trkpt>
<trkpt lat="57.535461" lon="9.916466">
<ele>27.489895</ele>
<time>2026-07-16T16:02:04.000Z</time>
</trkpt>
<trkpt lat="57.535485" lon="9.916489">
<ele>27.479237</ele>
<time>2026-07-16T16:02:05.000Z</time>
</trkpt>
<trkpt lat="57.535511" lon="9.916515">
<ele>27.467584</ele>
<time>2026-07-16T16:02:06.000Z</time>
</trkpt>
<trkpt lat="57.535535" lon="9.916535">
<ele>27.457201</ele>
<time>2026-07-16T16:02:07.000Z</time>
</trkpt>
<trkpt lat="57.535558" lon="9.916551">
<ele>27.447506</ele>
<time>2026-07-16T16:02:08.000Z</time>
</trkpt>
<trkpt lat="57.535580" lon="9.916567">
<ele>27.438179</ele>
<time>2026-07-16T16:02:09.000Z</time>
</trkpt>
<trkpt lat="57.535604" lon="9.916585">
<ele>27.427962</ele>
<time>2026-07-16T16:02:10.000Z</time>
</trkpt>
<trkpt lat="57.535627" lon="9.916601">
<ele>27.418267</ele>
<time>2026-07-16T16:02:11.000Z</time>
</trkpt>
<trkpt lat="57.535644" lon="9.916620">
<ele>27.410438</ele>
<time>2026-07-16T16:02:12.000Z</time>
</trkpt>
<trkpt lat="57.535668" lon="9.916646">
<ele>27.399474</ele>
<time>2026-07-16T16:02:13.000Z</time>
</trkpt>
<trkpt lat="57.535692" lon="9.916669">
<ele>27.388816</ele>
<time>2026-07-16T16:02:14.000Z</time>
</trkpt>
<trkpt lat="57.535720" lon="9.916696">
<ele>27.376366</ele>
<time>2026-07-16T16:02:15.000Z</time>
</trkpt>
<trkpt lat="57.535748" lon="9.916731">
<ele>27.363050</ele>
<time>2026-07-16T16:02:16.000Z</time>
</trkpt>
<trkpt lat="57.535786" lon="9.916772">
<ele>27.345708</ele>
<time>2026-07-16T16:02:17.000Z</time>
</trkpt>
<trkpt lat="57.535821" lon="9.916808">
<ele>27.329920</ele>
<time>2026-07-16T16:02:18.000Z</time>
</trkpt>
<trkpt lat="57.535854" lon="9.916845">
<ele>27.314710</ele>
<time>2026-07-16T16:02:19.000Z</time>
</trkpt>
<trkpt lat="57.535884" lon="9.916880">
<ele>27.300732</ele>
<time>2026-07-16T16:02:20.000Z</time>
</trkpt>
<trkpt lat="57.535915" lon="9.916912">
<ele>27.286736</ele>
<time>2026-07-16T16:02:21.000Z</time>
</trkpt>
<trkpt lat="57.535942" lon="9.916940">
<ele>27.274533</ele>
<time>2026-07-16T16:02:22.000Z</time>
</trkpt>
<trkpt lat="57.535963" lon="9.916969">
<ele>27.264210</ele>
<time>2026-07-16T16:02:23.000Z</time>
</trkpt>
<trkpt lat="57.535993" lon="9.917000">
<ele>27.250663</ele>
<time>2026-07-16T16:02:24.000Z</time>
</trkpt>
<trkpt lat="57.536020" lon="9.917029">
<ele>27.238355</ele>
<time>2026-07-16T16:02:25.000Z</time>
</trkpt>
<trkpt lat="57.536048" lon="9.917058">
<ele>27.225704</ele>
<time>2026-07-16T16:02:26.000Z</time>
</trkpt>
<trkpt lat="57.536112" lon="9.917094">
<ele>27.199303</ele>
<time>2026-07-16T16:02:27.000Z</time>
</trkpt>
<trkpt lat="57.536183" lon="9.917132">
<ele>27.170131</ele>
<time>2026-07-16T16:02:28.000Z</time>
</trkpt>
<trkpt lat="57.536235" lon="9.917171">
<ele>27.147994</ele>
<time>2026-07-16T16:02:29.000Z</time>
</trkpt>
<trkpt lat="57.536277" lon="9.917206">
<ele>27.128957</ele>
<time>2026-07-16T16:02:30.000Z</time>
</trkpt>
<trkpt lat="57.536322" lon="9.917245">
<ele>27.108199</ele>
<time>2026-07-16T16:02:31.000Z</time>
</trkpt>
<trkpt lat="57.536371" lon="9.917280">
<ele>27.086250</ele>
<time>2026-07-16T16:02:32.000Z</time>
</trkpt>
<trkpt lat="57.536417" lon="9.917309">
<ele>27.065939</ele>
<time>2026-07-16T16:02:33.000Z</time>
</trkpt>
<trkpt lat="57.536464" lon="9.917342">
<ele>27.044932</ele>
<time>2026-07-16T16:02:34.000Z</time>
</trkpt>
<trkpt lat="57.536510" lon="9.917375">
<ele>27.024316</ele>
<time>2026-07-16T16:02:35.000Z</time>
</trkpt>
<trkpt lat="57.536552" lon="9.917405">
<ele>27.005502</ele>
<time>2026-07-16T16:02:36.000Z</time>
</trkpt>
<trkpt lat="57.536588" lon="9.917430">
<ele>26.989433</ele>
<time>2026-07-16T16:02:37.000Z</time>
</trkpt>
<trkpt lat="57.536642" lon="9.917461">
<ele>26.965800</ele>
<time>2026-07-16T16:02:38.000Z</time>
</trkpt>
<trkpt lat="57.536683" lon="9.917486">
<ele>26.947757</ele>
<time>2026-07-16T16:02:39.000Z</time>
</trkpt>
<trkpt lat="57.536718" lon="9.917507">
<ele>26.932378</ele>
<time>2026-07-16T16:02:40.000Z</time>
</trkpt>
<trkpt lat="57.536747" lon="9.917527">
<ele>26.919444</ele>
<time>2026-07-16T16:02:41.000Z</time>
</trkpt>
<trkpt lat="57.536780" lon="9.917545">
<ele>26.905063</ele>
<time>2026-07-16T16:02:42.000Z</time>
</trkpt>
<trkpt lat="57.536811" lon="9.917562">
<ele>26.891547</ele>
<time>2026-07-16T16:02:43.000Z</time>
</trkpt>
<trkpt lat="57.536847" lon="9.917572">
<ele>26.876324</ele>
<time>2026-07-16T16:02:44.000Z</time>
</trkpt>
<trkpt lat="57.536882" lon="9.917582">
<ele>26.861514</ele>
<time>2026-07-16T16:02:45.000Z</time>
</trkpt>
<trkpt lat="57.536922" lon="9.917592">
<ele>26.844634</ele>
<time>2026-07-16T16:02:46.000Z</time>
</trkpt>
<trkpt lat="57.536961" lon="9.917600">
<ele>26.828224</ele>
<time>2026-07-16T16:02:47.000Z</time>
</trkpt>
<trkpt lat="57.537002" lon="9.917611">
<ele>26.810899</ele>
<time>2026-07-16T16:02:48.000Z</time>
</trkpt>
<trkpt lat="57.537047" lon="9.917618">
<ele>26.792013</ele>
<time>2026-07-16T16:02:49.000Z</time>
</trkpt>
<trkpt lat="57.537086" lon="9.917623">
<ele>26.775662</ele>
<time>2026-07-16T16:02:50.000Z</time>
</trkpt>
<trkpt lat="57.537125" lon="9.917635">
<ele>26.759130</ele>
<time>2026-07-16T16:02:51.000Z</time>
</trkpt>
<trkpt lat="57.537172" lon="9.917644">
<ele>26.739369</ele>
<time>2026-07-16T16:02:52.000Z</time>
</trkpt>
<trkpt lat="57.537214" lon="9.917650">
<ele>26.721751</ele>
<time>2026-07-16T16:02:53.000Z</time>
</trkpt>
<trkpt lat="57.537266" lon="9.917665">
<ele>26.699743</ele>
<time>2026-07-16T16:02:54.000Z</time>
</trkpt>
<trkpt lat="57.537320" lon="9.917690">
<ele>26.676471</ele>
<time>2026-07-16T16:02:55.000Z</time>
</trkpt>
<trkpt lat="57.537376" lon="9.917720">
<ele>26.652100</ele>
<time>2026-07-16T16:02:56.000Z</time>
</trkpt>
<trkpt lat="57.537417" lon="9.917745">
<ele>26.634056</ele>
<time>2026-07-16T16:02:57.000Z</time>
</trkpt>
<trkpt lat="57.537459" lon="9.917763">
<ele>26.616031</ele>
<time>2026-07-16T16:02:58.000Z</time>
</trkpt>
<trkpt lat="57.537494" lon="9.917773">
<ele>26.601222</ele>
<time>2026-07-16T16:02:59.000Z</time>
</trkpt>
<trkpt lat="57.537527" lon="9.917783">
<ele>26.587238</ele>
<time>2026-07-16T16:03:00.000Z</time>
</trkpt>
<trkpt lat="57.537562" lon="9.917791">
<ele>26.572490</ele>
<time>2026-07-16T16:03:01.000Z</time>
</trkpt>
<trkpt lat="57.537604" lon="9.917795">
<ele>26.554900</ele>
<time>2026-07-16T16:03:02.000Z</time>
</trkpt>
<trkpt lat="57.537653" lon="9.917795">
<ele>26.534406</ele>
<time>2026-07-16T16:03:03.000Z</time>
</trkpt>
<trkpt lat="57.537718" lon="9.917788">
<ele>26.507175</ele>
<time>2026-07-16T16:03:04.000Z</time>
</trkpt>
<trkpt lat="57.537810" lon="9.917781">
<ele>26.468664</ele>
<time>2026-07-16T16:03:05.000Z</time>
</trkpt>
<trkpt lat="57.537902" lon="9.917775">
<ele>26.430162</ele>
<time>2026-07-16T16:03:06.000Z</time>
</trkpt>
<trkpt lat="57.537978" lon="9.917771">
<ele>26.398362</ele>
<time>2026-07-16T16:03:07.000Z</time>
</trkpt>
<trkpt lat="57.538049" lon="9.917769">
<ele>26.444032</ele>
<time>2026-07-16T16:03:08.000Z</time>
</trkpt>
<trkpt lat="57.538117" lon="9.917765">
<ele>26.506599</ele>
<time>2026-07-16T16:03:09.000Z</time>
</trkpt>
<trkpt lat="57.538177" lon="9.917755">
<ele>26.561998</ele>
<time>2026-07-16T16:03:10.000Z</time>
</trkpt>
<trkpt lat="57.538232" lon="9.917746">
<ele>26.612773</ele>
<time>2026-07-16T16:03:11.000Z</time>
</trkpt>
<trkpt lat="57.538285" lon="9.917744">
<ele>26.661524</ele>
<time>2026-07-16T16:03:12.000Z</time>
</trkpt>
<trkpt lat="57.538335" lon="9.917738">
<ele>26.707602</ele>
<time>2026-07-16T16:03:13.000Z</time>
</trkpt>
<trkpt lat="57.538388" lon="9.917729">
<ele>26.756545</ele>
<time>2026-07-16T16:03:14.000Z</time>
</trkpt>
<trkpt lat="57.538461" lon="9.917720">
<ele>26.823826</ele>
<time>2026-07-16T16:03:15.000Z</time>
</trkpt>
<trkpt lat="57.538527" lon="9.917711">
<ele>26.884685</ele>
<time>2026-07-16T16:03:16.000Z</time>
</trkpt>
<trkpt lat="57.538576" lon="9.917694">
<ele>26.930522</ele>
<time>2026-07-16T16:03:17.000Z</time>
</trkpt>
<trkpt lat="57.538623" lon="9.917667">
<ele>26.975754</ele>
<time>2026-07-16T16:03:18.000Z</time>
</trkpt>
<trkpt lat="57.538672" lon="9.917634">
<ele>27.023670</ele>
<time>2026-07-16T16:03:19.000Z</time>
</trkpt>
<trkpt lat="57.538721" lon="9.917599">
<ele>27.071931</ele>
<time>2026-07-16T16:03:20.000Z</time>
</trkpt>
<trkpt lat="57.538767" lon="9.917560">
<ele>27.118409</ele>
<time>2026-07-16T16:03:21.000Z</time>
</trkpt>
<trkpt lat="57.538824" lon="9.917516">
<ele>27.175150</ele>
<time>2026-07-16T16:03:22.000Z</time>
</trkpt>
<trkpt lat="57.538868" lon="9.917468">
<ele>27.222040</ele>
<time>2026-07-16T16:03:23.000Z</time>
</trkpt>
<trkpt lat="57.538907" lon="9.917412">
<ele>27.267322</ele>
<time>2026-07-16T16:03:24.000Z</time>
</trkpt>
<trkpt lat="57.538942" lon="9.917355">
<ele>27.310073</ele>
<time>2026-07-16T16:03:25.000Z</time>
</trkpt>
<trkpt lat="57.538971" lon="9.917291">
<ele>27.351415</ele>
<time>2026-07-16T16:03:26.000Z</time>
</trkpt>
<trkpt lat="57.539006" lon="9.917215">
<ele>27.400845</ele>
<time>2026-07-16T16:03:27.000Z</time>
</trkpt>
<trkpt lat="57.539041" lon="9.917133">
<ele>27.452558</ele>
<time>2026-07-16T16:03:28.000Z</time>
</trkpt>
<trkpt lat="57.539076" lon="9.917043">
<ele>27.507417</ele>
<time>2026-07-16T16:03:29.000Z</time>
</trkpt>
<trkpt lat="57.539109" lon="9.916957">
<ele>27.559599</ele>
<time>2026-07-16T16:03:30.000Z</time>
</trkpt>
<trkpt lat="57.539150" lon="9.916874">
<ele>27.615278</ele>
<time>2026-07-16T16:03:31.000Z</time>
</trkpt>
<trkpt lat="57.539192" lon="9.916799">
<ele>27.668779</ele>
<time>2026-07-16T16:03:32.000Z</time>
</trkpt>
<trkpt lat="57.539231" lon="9.916728">
<ele>27.718924</ele>
<time>2026-07-16T16:03:33.000Z</time>
</trkpt>
<trkpt lat="57.539272" lon="9.916656">
<ele>27.770738</ele>
<time>2026-07-16T16:03:34.000Z</time>
</trkpt>
<trkpt lat="57.539311" lon="9.916582">
<ele>27.821929</ele>
<time>2026-07-16T16:03:35.000Z</time>
</trkpt>
<trkpt lat="57.539352" lon="9.916509">
<ele>27.874083</ele>
<time>2026-07-16T16:03:36.000Z</time>
</trkpt>
<trkpt lat="57.539392" lon="9.916435">
<ele>27.925923</ele>
<time>2026-07-16T16:03:37.000Z</time>
</trkpt>
<trkpt lat="57.539429" lon="9.916364">
<ele>27.974769</ele>
<time>2026-07-16T16:03:38.000Z</time>
</trkpt>
<trkpt lat="57.539469" lon="9.916293">
<ele>28.025576</ele>
<time>2026-07-16T16:03:39.000Z</time>
</trkpt>
<trkpt lat="57.539507" lon="9.916214">
<ele>28.069872</ele>
<time>2026-07-16T16:03:40.000Z</time>
</trkpt>
<trkpt lat="57.539541" lon="9.916139">
<ele>28.105960</ele>
<time>2026-07-16T16:03:41.000Z</time>
</trkpt>
<trkpt lat="57.539578" lon="9.916063">
<ele>28.143679</ele>
<time>2026-07-16T16:03:42.000Z</time>
</trkpt>
<trkpt lat="57.539611" lon="9.915988">
<ele>28.179328</ele>
<time>2026-07-16T16:03:43.000Z</time>
</trkpt>
<trkpt lat="57.539641" lon="9.915915">
<ele>28.213126</ele>
<time>2026-07-16T16:03:44.000Z</time>
</trkpt>
<trkpt lat="57.539675" lon="9.915839">
<ele>28.249495</ele>
<time>2026-07-16T16:03:45.000Z</time>
</trkpt>
<trkpt lat="57.539704" lon="9.915767">
<ele>28.282586</ele>
<time>2026-07-16T16:03:46.000Z</time>
</trkpt>
<trkpt lat="57.539733" lon="9.915695">
<ele>28.315676</ele>
<time>2026-07-16T16:03:47.000Z</time>
</trkpt>
<trkpt lat="57.539764" lon="9.915623">
<ele>28.349607</ele>
<time>2026-07-16T16:03:48.000Z</time>
</trkpt>
<trkpt lat="57.539800" lon="9.915552">
<ele>28.385511</ele>
<time>2026-07-16T16:03:49.000Z</time>
</trkpt>
<trkpt lat="57.539835" lon="9.915483">
<ele>28.420410</ele>
<time>2026-07-16T16:03:50.000Z</time>
</trkpt>
<trkpt lat="57.539867" lon="9.915413">
<ele>28.454210</ele>
<time>2026-07-16T16:03:51.000Z</time>
</trkpt>
<trkpt lat="57.539900" lon="9.915342">
<ele>28.488735</ele>
<time>2026-07-16T16:03:52.000Z</time>
</trkpt>
<trkpt lat="57.539931" lon="9.915276">
<ele>28.520974</ele>
<time>2026-07-16T16:03:53.000Z</time>
</trkpt>
<trkpt lat="57.539965" lon="9.915213">
<ele>28.553816</ele>
<time>2026-07-16T16:03:54.000Z</time>
</trkpt>
<trkpt lat="57.539994" lon="9.915152">
<ele>28.583771</ele>
<time>2026-07-16T16:03:55.000Z</time>
</trkpt>
<trkpt lat="57.540023" lon="9.915097">
<ele>28.612112</ele>
<time>2026-07-16T16:03:56.000Z</time>
</trkpt>
<trkpt lat="57.540058" lon="9.915046">
<ele>28.642544</ele>
<time>2026-07-16T16:03:57.000Z</time>
</trkpt>
<trkpt lat="57.540101" lon="9.914987">
<ele>28.679118</ele>
<time>2026-07-16T16:03:58.000Z</time>
</trkpt>
<trkpt lat="57.540151" lon="9.914923">
<ele>28.720665</ele>
<time>2026-07-16T16:03:59.000Z</time>
</trkpt>
<trkpt lat="57.540203" lon="9.914865">
<ele>28.762174</ele>
<time>2026-07-16T16:04:00.000Z</time>
</trkpt>
<trkpt lat="57.540265" lon="9.914799">
<ele>28.811079</ele>
<time>2026-07-16T16:04:01.000Z</time>
</trkpt>
<trkpt lat="57.540333" lon="9.914734">
<ele>28.863423</ele>
<time>2026-07-16T16:04:02.000Z</time>
</trkpt>
<trkpt lat="57.540391" lon="9.914670">
<ele>28.909591</ele>
<time>2026-07-16T16:04:03.000Z</time>
</trkpt>
<trkpt lat="57.540449" lon="9.914611">
<ele>28.954849</ele>
<time>2026-07-16T16:04:04.000Z</time>
</trkpt>
<trkpt lat="57.540509" lon="9.914560">
<ele>29.000017</ele>
<time>2026-07-16T16:04:05.000Z</time>
</trkpt>
<trkpt lat="57.540570" lon="9.914514">
<ele>29.045088</ele>
<time>2026-07-16T16:04:06.000Z</time>
</trkpt>
<trkpt lat="57.540629" lon="9.914474">
<ele>29.088088</ele>
<time>2026-07-16T16:04:07.000Z</time>
</trkpt>
<trkpt lat="57.540682" lon="9.914442">
<ele>29.126246</ele>
<time>2026-07-16T16:04:08.000Z</time>
</trkpt>
<trkpt lat="57.540725" lon="9.914418">
<ele>29.156990</ele>
<time>2026-07-16T16:04:09.000Z</time>
</trkpt>
<trkpt lat="57.540759" lon="9.914397">
<ele>29.181522</ele>
<time>2026-07-16T16:04:10.000Z</time>
</trkpt>
<trkpt lat="57.540781" lon="9.914379">
<ele>29.197978</ele>
<time>2026-07-16T16:04:11.000Z</time>
</trkpt>
<trkpt lat="57.540803" lon="9.914361">
<ele>29.214435</ele>
<time>2026-07-16T16:04:12.000Z</time>
</trkpt>
<trkpt lat="57.540781" lon="9.914415">
<ele>29.239355</ele>
<time>2026-07-16T16:04:25.000Z</time>
</trkpt>
<trkpt lat="57.540772" lon="9.914473">
<ele>29.261548</ele>
<time>2026-07-16T16:04:26.000Z</time>
</trkpt>
<trkpt lat="57.540780" lon="9.914513">
<ele>29.277239</ele>
<time>2026-07-16T16:04:27.000Z</time>
</trkpt>
<trkpt lat="57.540789" lon="9.914550">
<ele>29.283487</ele>
<time>2026-07-16T16:04:28.000Z</time>
</trkpt>
<trkpt lat="57.540796" lon="9.914583">
<ele>29.288411</ele>
<time>2026-07-16T16:04:29.000Z</time>
</trkpt>
<trkpt lat="57.540806" lon="9.914613">
<ele>29.293311</ele>
<time>2026-07-16T16:04:30.000Z</time>
</trkpt>
<trkpt lat="57.540818" lon="9.914645">
<ele>29.298727</ele>
<time>2026-07-16T16:04:31.000Z</time>
</trkpt>
<trkpt lat="57.540826" lon="9.914682">
<ele>29.304262</ele>
<time>2026-07-16T16:04:32.000Z</time>
</trkpt>
<trkpt lat="57.540831" lon="9.914723">
<ele>29.310096</ele>
<time>2026-07-16T16:04:33.000Z</time>
</trkpt>
<trkpt lat="57.540833" lon="9.914760">
<ele>29.315255</ele>
<time>2026-07-16T16:04:34.000Z</time>
</trkpt>
<trkpt lat="57.540833" lon="9.914791">
<ele>29.319557</ele>
<time>2026-07-16T16:04:35.000Z</time>
</trkpt>
<trkpt lat="57.540835" lon="9.914819">
<ele>29.323476</ele>
<time>2026-07-16T16:04:36.000Z</time>
</trkpt>
<trkpt lat="57.540839" lon="9.914844">
<ele>29.327095</ele>
<time>2026-07-16T16:04:37.000Z</time>
</trkpt>
<trkpt lat="57.540840" lon="9.914868">
<ele>29.330435</ele>
<time>2026-07-16T16:04:38.000Z</time>
</trkpt>
<trkpt lat="57.540845" lon="9.914892">
<ele>29.334008</ele>
<time>2026-07-16T16:04:39.000Z</time>
</trkpt>
<trkpt lat="57.540848" lon="9.914917">
<ele>29.337562</ele>
<time>2026-07-16T16:04:40.000Z</time>
</trkpt>
<trkpt lat="57.540845" lon="9.914926">
<ele>29.339032</ele>
<time>2026-07-16T16:04:41.000Z</time>
</trkpt>
<trkpt lat="57.540841" lon="9.914925">
<ele>29.340075</ele>
<time>2026-07-16T16:04:42.000Z</time>
</trkpt>
<trkpt lat="57.540840" lon="9.914925">
<ele>29.340334</ele>
<time>2026-07-16T16:04:43.000Z</time>
</trkpt>
<trkpt lat="57.540810" lon="9.914838">
<ele>29.354682</ele>
<time>2026-07-16T16:05:24.000Z</time>
</trkpt>
<trkpt lat="57.540796" lon="9.914780">
<ele>29.363506</ele>
<time>2026-07-16T16:05:25.000Z</time>
</trkpt>
<trkpt lat="57.540789" lon="9.914742">
<ele>29.369080</ele>
<time>2026-07-16T16:05:26.000Z</time>
</trkpt>
<trkpt lat="57.540778" lon="9.914698">
<ele>29.375815</ele>
<time>2026-07-16T16:05:27.000Z</time>
</trkpt>
<trkpt lat="57.540770" lon="9.914653">
<ele>29.382393</ele>
<time>2026-07-16T16:05:28.000Z</time>
</trkpt>
<trkpt lat="57.540768" lon="9.914608">
<ele>29.388658</ele>
<time>2026-07-16T16:05:29.000Z</time>
</trkpt>
<trkpt lat="57.540765" lon="9.914562">
<ele>29.395087</ele>
<time>2026-07-16T16:05:30.000Z</time>
</trkpt>
<trkpt lat="57.540762" lon="9.914519">
<ele>29.401104</ele>
<time>2026-07-16T16:05:31.000Z</time>
</trkpt>
<trkpt lat="57.540760" lon="9.914469">
<ele>29.408061</ele>
<time>2026-07-16T16:05:32.000Z</time>
</trkpt>
<trkpt lat="57.540765" lon="9.914422">
<ele>29.414709</ele>
<time>2026-07-16T16:05:33.000Z</time>
</trkpt>
<trkpt lat="57.540779" lon="9.914380">
<ele>29.421569</ele>
<time>2026-07-16T16:05:34.000Z</time>
</trkpt>
<trkpt lat="57.540796" lon="9.914350">
<ele>29.427622</ele>
<time>2026-07-16T16:05:35.000Z</time>
</trkpt>
<trkpt lat="57.540820" lon="9.914323">
<ele>29.434870</ele>
<time>2026-07-16T16:05:36.000Z</time>
</trkpt>
<trkpt lat="57.540851" lon="9.914298">
<ele>29.443603</ele>
<time>2026-07-16T16:05:37.000Z</time>
</trkpt>
<trkpt lat="57.540881" lon="9.914276">
<ele>29.451938</ele>
<time>2026-07-16T16:05:38.000Z</time>
</trkpt>
<trkpt lat="57.540915" lon="9.914256">
<ele>29.461155</ele>
<time>2026-07-16T16:05:39.000Z</time>
</trkpt>
<trkpt lat="57.540949" lon="9.914235">
<ele>29.470415</ele>
<time>2026-07-16T16:05:40.000Z</time>
</trkpt>
<trkpt lat="57.540982" lon="9.914211">
<ele>29.479573</ele>
<time>2026-07-16T16:05:41.000Z</time>
</trkpt>
<trkpt lat="57.541015" lon="9.914182">
<ele>29.489006</ele>
<time>2026-07-16T16:05:42.000Z</time>
</trkpt>
<trkpt lat="57.541051" lon="9.914150">
<ele>29.499318</ele>
<time>2026-07-16T16:05:43.000Z</time>
</trkpt>
<trkpt lat="57.541089" lon="9.914120">
<ele>29.509987</ele>
<time>2026-07-16T16:05:44.000Z</time>
</trkpt>
<trkpt lat="57.541127" lon="9.914089">
<ele>29.520712</ele>
<time>2026-07-16T16:05:45.000Z</time>
</trkpt>
<trkpt lat="57.541165" lon="9.914055">
<ele>29.531610</ele>
<time>2026-07-16T16:05:46.000Z</time>
</trkpt>
<trkpt lat="57.541203" lon="9.914027">
<ele>29.542174</ele>
<time>2026-07-16T16:05:47.000Z</time>
</trkpt>
<trkpt lat="57.541244" lon="9.913997">
<ele>29.553561</ele>
<time>2026-07-16T16:05:48.000Z</time>
</trkpt>
<trkpt lat="57.541283" lon="9.913969">
<ele>29.564366</ele>
<time>2026-07-16T16:05:49.000Z</time>
</trkpt>
<trkpt lat="57.541324" lon="9.913943">
<ele>29.575563</ele>
<time>2026-07-16T16:05:50.000Z</time>
</trkpt>
<trkpt lat="57.541366" lon="9.913917">
<ele>29.587005</ele>
<time>2026-07-16T16:05:51.000Z</time>
</trkpt>
<trkpt lat="57.541408" lon="9.913892">
<ele>29.598403</ele>
<time>2026-07-16T16:05:52.000Z</time>
</trkpt>
<trkpt lat="57.541447" lon="9.913866">
<ele>29.609112</ele>
<time>2026-07-16T16:05:53.000Z</time>
</trkpt>
<trkpt lat="57.541491" lon="9.913838">
<ele>29.621132</ele>
<time>2026-07-16T16:05:54.000Z</time>
</trkpt>
<trkpt lat="57.541531" lon="9.913809">
<ele>29.632228</ele>
<time>2026-07-16T16:05:55.000Z</time>
</trkpt>
<trkpt lat="57.541567" lon="9.913778">
<ele>29.642481</ele>
<time>2026-07-16T16:05:56.000Z</time>
</trkpt>
<trkpt lat="57.541595" lon="9.913749">
<ele>29.650763</ele>
<time>2026-07-16T16:05:57.000Z</time>
</trkpt>
<trkpt lat="57.541630" lon="9.913714">
<ele>29.661032</ele>
<time>2026-07-16T16:05:58.000Z</time>
</trkpt>
<trkpt lat="57.541662" lon="9.913684">
<ele>29.670293</ele>
<time>2026-07-16T16:05:59.000Z</time>
</trkpt>
<trkpt lat="57.541691" lon="9.913655">
<ele>29.678802</ele>
<time>2026-07-16T16:06:00.000Z</time>
</trkpt>
<trkpt lat="57.541715" lon="9.913634">
<ele>29.685657</ele>
<time>2026-07-16T16:06:01.000Z</time>
</trkpt>
<trkpt lat="57.541748" lon="9.913607">
<ele>29.694974</ele>
<time>2026-07-16T16:06:02.000Z</time>
</trkpt>
<trkpt lat="57.541783" lon="9.913582">
<ele>29.704665</ele>
<time>2026-07-16T16:06:03.000Z</time>
</trkpt>
<trkpt lat="57.541807" lon="9.913562">
<ele>29.711462</ele>
<time>2026-07-16T16:06:04.000Z</time>
</trkpt>
<trkpt lat="57.541832" lon="9.913550">
<ele>29.718136</ele>
<time>2026-07-16T16:06:05.000Z</time>
</trkpt>
<trkpt lat="57.541859" lon="9.913540">
<ele>29.725253</ele>
<time>2026-07-16T16:06:06.000Z</time>
</trkpt>
<trkpt lat="57.541888" lon="9.913532">
<ele>29.732831</ele>
<time>2026-07-16T16:06:07.000Z</time>
</trkpt>
<trkpt lat="57.541916" lon="9.913521">
<ele>29.740229</ele>
<time>2026-07-16T16:06:08.000Z</time>
</trkpt>
<trkpt lat="57.541942" lon="9.913510">
<ele>29.741889</ele>
<time>2026-07-16T16:06:09.000Z</time>
</trkpt>
<trkpt lat="57.541975" lon="9.913500">
<ele>29.738948</ele>
<time>2026-07-16T16:06:10.000Z</time>
</trkpt>
<trkpt lat="57.542012" lon="9.913493">
<ele>29.735676</ele>
<time>2026-07-16T16:06:11.000Z</time>
</trkpt>
<trkpt lat="57.542050" lon="9.913483">
<ele>29.732301</ele>
<time>2026-07-16T16:06:12.000Z</time>
</trkpt>
<trkpt lat="57.542088" lon="9.913470">
<ele>29.728902</ele>
<time>2026-07-16T16:06:13.000Z</time>
</trkpt>
<trkpt lat="57.542121" lon="9.913455">
<ele>29.725914</ele>
<time>2026-07-16T16:06:14.000Z</time>
</trkpt>
<trkpt lat="57.542154" lon="9.913443">
<ele>29.722957</ele>
<time>2026-07-16T16:06:15.000Z</time>
</trkpt>
<trkpt lat="57.542186" lon="9.913434">
<ele>29.720110</ele>
<time>2026-07-16T16:06:16.000Z</time>
</trkpt>
<trkpt lat="57.542219" lon="9.913432">
<ele>29.717206</ele>
<time>2026-07-16T16:06:17.000Z</time>
</trkpt>
<trkpt lat="57.542259" lon="9.913433">
<ele>29.713687</ele>
<time>2026-07-16T16:06:18.000Z</time>
</trkpt>
<trkpt lat="57.542295" lon="9.913437">
<ele>29.710515</ele>
<time>2026-07-16T16:06:19.000Z</time>
</trkpt>
<trkpt lat="57.542332" lon="9.913437">
<ele>29.707260</ele>
<time>2026-07-16T16:06:20.000Z</time>
</trkpt>
<trkpt lat="57.542364" lon="9.913437">
<ele>29.704446</ele>
<time>2026-07-16T16:06:21.000Z</time>
</trkpt>
<trkpt lat="57.542408" lon="9.913442">
<ele>29.700568</ele>
<time>2026-07-16T16:06:22.000Z</time>
</trkpt>
<trkpt lat="57.542447" lon="9.913453">
<ele>29.697099</ele>
<time>2026-07-16T16:06:23.000Z</time>
</trkpt>
<trkpt lat="57.542475" lon="9.913466">
<ele>29.694560</ele>
<time>2026-07-16T16:06:24.000Z</time>
</trkpt>
<trkpt lat="57.542517" lon="9.913498">
<ele>29.690569</ele>
<time>2026-07-16T16:06:25.000Z</time>
</trkpt>
<trkpt lat="57.542549" lon="9.913524">
<ele>29.687498</ele>
<time>2026-07-16T16:06:26.000Z</time>
</trkpt>
<trkpt lat="57.542573" lon="9.913552">
<ele>29.685008</ele>
<time>2026-07-16T16:06:27.000Z</time>
</trkpt>
<trkpt lat="57.542601" lon="9.913576">
<ele>29.682297</ele>
<time>2026-07-16T16:06:28.000Z</time>
</trkpt>
<trkpt lat="57.542650" lon="9.913612">
<ele>29.677664</ele>
<time>2026-07-16T16:06:29.000Z</time>
</trkpt>
<trkpt lat="57.542692" lon="9.913650">
<ele>29.673557</ele>
<time>2026-07-16T16:06:30.000Z</time>
</trkpt>
<trkpt lat="57.542726" lon="9.913689">
<ele>29.670045</ele>
<time>2026-07-16T16:06:31.000Z</time>
</trkpt>
<trkpt lat="57.542800" lon="9.913744">
<ele>29.663037</ele>
<time>2026-07-16T16:06:32.000Z</time>
</trkpt>
<trkpt lat="57.542874" lon="9.913805">
<ele>29.655919</ele>
<time>2026-07-16T16:06:33.000Z</time>
</trkpt>
<trkpt lat="57.542929" lon="9.913858">
<ele>29.650473</ele>
<time>2026-07-16T16:06:34.000Z</time>
</trkpt>
<trkpt lat="57.542978" lon="9.913907">
<ele>29.645581</ele>
<time>2026-07-16T16:06:35.000Z</time>
</trkpt>
<trkpt lat="57.543024" lon="9.913954">
<ele>29.640967</ele>
<time>2026-07-16T16:06:36.000Z</time>
</trkpt>
<trkpt lat="57.543065" lon="9.913995">
<ele>29.636874</ele>
<time>2026-07-16T16:06:37.000Z</time>
</trkpt>
<trkpt lat="57.543098" lon="9.914017">
<ele>29.633791</ele>
<time>2026-07-16T16:06:38.000Z</time>
</trkpt>
<trkpt lat="57.543146" lon="9.914045">
<ele>29.629367</ele>
<time>2026-07-16T16:06:39.000Z</time>
</trkpt>
<trkpt lat="57.543199" lon="9.914072">
<ele>29.624534</ele>
<time>2026-07-16T16:06:40.000Z</time>
</trkpt>
<trkpt lat="57.543248" lon="9.914093">
<ele>29.620111</ele>
<time>2026-07-16T16:06:41.000Z</time>
</trkpt>
<trkpt lat="57.543305" lon="9.914111">
<ele>29.615026</ele>
<time>2026-07-16T16:06:42.000Z</time>
</trkpt>
<trkpt lat="57.543375" lon="9.914123">
<ele>29.608842</ele>
<time>2026-07-16T16:06:43.000Z</time>
</trkpt>
<trkpt lat="57.543434" lon="9.914121">
<ele>29.603652</ele>
<time>2026-07-16T16:06:44.000Z</time>
</trkpt>
<trkpt lat="57.543488" lon="9.914103">
<ele>29.598826</ele>
<time>2026-07-16T16:06:45.000Z</time>
</trkpt>
<trkpt lat="57.543533" lon="9.914068">
<ele>29.594537</ele>
<time>2026-07-16T16:06:46.000Z</time>
</trkpt>
<trkpt lat="57.543577" lon="9.914027">
<ele>29.590210</ele>
<time>2026-07-16T16:06:47.000Z</time>
</trkpt>
<trkpt lat="57.543620" lon="9.913979">
<ele>29.585801</ele>
<time>2026-07-16T16:06:48.000Z</time>
</trkpt>
<trkpt lat="57.543665" lon="9.913928">
<ele>29.585714</ele>
<time>2026-07-16T16:06:49.000Z</time>
</trkpt>
<trkpt lat="57.543709" lon="9.913875">
<ele>29.586565</ele>
<time>2026-07-16T16:06:50.000Z</time>
</trkpt>
<trkpt lat="57.543754" lon="9.913820">
<ele>29.587438</ele>
<time>2026-07-16T16:06:51.000Z</time>
</trkpt>
<trkpt lat="57.543802" lon="9.913771">
<ele>29.588327</ele>
<time>2026-07-16T16:06:52.000Z</time>
</trkpt>
<trkpt lat="57.543841" lon="9.913721">
<ele>29.589095</ele>
<time>2026-07-16T16:06:53.000Z</time>
</trkpt>
<trkpt lat="57.543880" lon="9.913671">
<ele>29.589864</ele>
<time>2026-07-16T16:06:54.000Z</time>
</trkpt>
<trkpt lat="57.543919" lon="9.913622">
<ele>29.590627</ele>
<time>2026-07-16T16:06:55.000Z</time>
</trkpt>
<trkpt lat="57.543958" lon="9.913573">
<ele>29.591391</ele>
<time>2026-07-16T16:06:56.000Z</time>
</trkpt>
<trkpt lat="57.543999" lon="9.913526">
<ele>29.592172</ele>
<time>2026-07-16T16:06:57.000Z</time>
</trkpt>
<trkpt lat="57.544040" lon="9.913488">
<ele>29.592915</ele>
<time>2026-07-16T16:06:58.000Z</time>
</trkpt>
<trkpt lat="57.544079" lon="9.913473">
<ele>29.593562</ele>
<time>2026-07-16T16:06:59.000Z</time>
</trkpt>
<trkpt lat="57.544118" lon="9.913486">
<ele>29.594205</ele>
<time>2026-07-16T16:07:00.000Z</time>
</trkpt>
<trkpt lat="57.544156" lon="9.913520">
<ele>29.594889</ele>
<time>2026-07-16T16:07:01.000Z</time>
</trkpt>
<trkpt lat="57.544189" lon="9.913566">
<ele>29.595558</ele>
<time>2026-07-16T16:07:02.000Z</time>
</trkpt>
<trkpt lat="57.544221" lon="9.913615">
<ele>29.596230</ele>
<time>2026-07-16T16:07:03.000Z</time>
</trkpt>
<trkpt lat="57.544259" lon="9.913664">
<ele>29.596980</ele>
<time>2026-07-16T16:07:04.000Z</time>
</trkpt>
<trkpt lat="57.544297" lon="9.913715">
<ele>29.597740</ele>
<time>2026-07-16T16:07:05.000Z</time>
</trkpt>
<trkpt lat="57.544341" lon="9.913773">
<ele>29.598615</ele>
<time>2026-07-16T16:07:06.000Z</time>
</trkpt>
<trkpt lat="57.544384" lon="9.913831">
<ele>29.599477</ele>
<time>2026-07-16T16:07:07.000Z</time>
</trkpt>
<trkpt lat="57.544429" lon="9.913891">
<ele>29.600375</ele>
<time>2026-07-16T16:07:08.000Z</time>
</trkpt>
<trkpt lat="57.544472" lon="9.913952">
<ele>29.601252</ele>
<time>2026-07-16T16:07:09.000Z</time>
</trkpt>
<trkpt lat="57.544516" lon="9.914014">
<ele>29.602148</ele>
<time>2026-07-16T16:07:10.000Z</time>
</trkpt>
<trkpt lat="57.544561" lon="9.914074">
<ele>29.603046</ele>
<time>2026-07-16T16:07:11.000Z</time>
</trkpt>
<trkpt lat="57.544607" lon="9.914136">
<ele>29.603967</ele>
<time>2026-07-16T16:07:12.000Z</time>
</trkpt>
<trkpt lat="57.544651" lon="9.914195">
<ele>29.604847</ele>
<time>2026-07-16T16:07:13.000Z</time>
</trkpt>
<trkpt lat="57.544696" lon="9.914251">
<ele>29.605726</ele>
<time>2026-07-16T16:07:14.000Z</time>
</trkpt>
<trkpt lat="57.544739" lon="9.914307">
<ele>29.606577</ele>
<time>2026-07-16T16:07:15.000Z</time>
</trkpt>
<trkpt lat="57.544781" lon="9.914358">
<ele>29.607391</ele>
<time>2026-07-16T16:07:16.000Z</time>
</trkpt>
<trkpt lat="57.544826" lon="9.914419">
<ele>29.608294</ele>
<time>2026-07-16T16:07:17.000Z</time>
</trkpt>
<trkpt lat="57.544867" lon="9.914478">
<ele>29.609135</ele>
<time>2026-07-16T16:07:18.000Z</time>
</trkpt>
<trkpt lat="57.544912" lon="9.914541">
<ele>29.610049</ele>
<time>2026-07-16T16:07:19.000Z</time>
</trkpt>
<trkpt lat="57.544955" lon="9.914603">
<ele>29.610931</ele>
<time>2026-07-16T16:07:20.000Z</time>
</trkpt>
<trkpt lat="57.544998" lon="9.914667">
<ele>29.611824</ele>
<time>2026-07-16T16:07:21.000Z</time>
</trkpt>
<trkpt lat="57.545037" lon="9.914730">
<ele>29.612662</ele>
<time>2026-07-16T16:07:22.000Z</time>
</trkpt>
<trkpt lat="57.545071" lon="9.914791">
<ele>29.613428</ele>
<time>2026-07-16T16:07:23.000Z</time>
</trkpt>
<trkpt lat="57.545103" lon="9.914855">
<ele>29.614190</ele>
<time>2026-07-16T16:07:24.000Z</time>
</trkpt>
<trkpt lat="57.545137" lon="9.914922">
<ele>29.628207</ele>
<time>2026-07-16T16:07:25.000Z</time>
</trkpt>
<trkpt lat="57.545172" lon="9.914990">
<ele>29.642723</ele>
<time>2026-07-16T16:07:26.000Z</time>
</trkpt>
<trkpt lat="57.545203" lon="9.915062">
<ele>29.656945</ele>
<time>2026-07-16T16:07:27.000Z</time>
</trkpt>
<trkpt lat="57.545237" lon="9.915135">
<ele>29.671837</ele>
<time>2026-07-16T16:07:28.000Z</time>
</trkpt>
<trkpt lat="57.545271" lon="9.915207">
<ele>29.686613</ele>
<time>2026-07-16T16:07:29.000Z</time>
</trkpt>
<trkpt lat="57.545308" lon="9.915277">
<ele>29.701750</ele>
<time>2026-07-16T16:07:30.000Z</time>
</trkpt>
<trkpt lat="57.545346" lon="9.915348">
<ele>29.717199</ele>
<time>2026-07-16T16:07:31.000Z</time>
</trkpt>
<trkpt lat="57.545384" lon="9.915419">
<ele>29.732647</ele>
<time>2026-07-16T16:07:32.000Z</time>
</trkpt>
<trkpt lat="57.545422" lon="9.915489">
<ele>29.747988</ele>
<time>2026-07-16T16:07:33.000Z</time>
</trkpt>
<trkpt lat="57.545460" lon="9.915560">
<ele>29.763436</ele>
<time>2026-07-16T16:07:34.000Z</time>
</trkpt>
<trkpt lat="57.545499" lon="9.915633">
<ele>29.779306</ele>
<time>2026-07-16T16:07:35.000Z</time>
</trkpt>
<trkpt lat="57.545537" lon="9.915705">
<ele>29.794864</ele>
<time>2026-07-16T16:07:36.000Z</time>
</trkpt>
<trkpt lat="57.545575" lon="9.915773">
<ele>29.809989</ele>
<time>2026-07-16T16:07:37.000Z</time>
</trkpt>
<trkpt lat="57.545613" lon="9.915840">
<ele>29.825008</ele>
<time>2026-07-16T16:07:38.000Z</time>
</trkpt>
<trkpt lat="57.545648" lon="9.915907">
<ele>29.839414</ele>
<time>2026-07-16T16:07:39.000Z</time>
</trkpt>
<trkpt lat="57.545682" lon="9.915979">
<ele>29.854189</ele>
<time>2026-07-16T16:07:40.000Z</time>
</trkpt>
<trkpt lat="57.545719" lon="9.916049">
<ele>29.869326</ele>
<time>2026-07-16T16:07:41.000Z</time>
</trkpt>
<trkpt lat="57.545756" lon="9.916113">
<ele>29.883820</ele>
<time>2026-07-16T16:07:42.000Z</time>
</trkpt>
<trkpt lat="57.545792" lon="9.916176">
<ele>29.897998</ele>
<time>2026-07-16T16:07:43.000Z</time>
</trkpt>
<trkpt lat="57.545830" lon="9.916248">
<ele>29.913556</ele>
<time>2026-07-16T16:07:44.000Z</time>
</trkpt>
<trkpt lat="57.545866" lon="9.916315">
<ele>29.928163</ele>
<time>2026-07-16T16:07:45.000Z</time>
</trkpt>
<trkpt lat="57.545903" lon="9.916373">
<ele>29.942044</ele>
<time>2026-07-16T16:07:46.000Z</time>
</trkpt>
<trkpt lat="57.545944" lon="9.916422">
<ele>29.956027</ele>
<time>2026-07-16T16:07:47.000Z</time>
</trkpt>
<trkpt lat="57.545987" lon="9.916466">
<ele>29.970111</ele>
<time>2026-07-16T16:07:48.000Z</time>
</trkpt>
<trkpt lat="57.546034" lon="9.916507">
<ele>29.985009</ele>
<time>2026-07-16T16:07:49.000Z</time>
</trkpt>
<trkpt lat="57.546077" lon="9.916549">
<ele>29.998947</ele>
<time>2026-07-16T16:07:50.000Z</time>
</trkpt>
<trkpt lat="57.546116" lon="9.916588">
<ele>30.011654</ele>
<time>2026-07-16T16:07:51.000Z</time>
</trkpt>
<trkpt lat="57.546160" lon="9.916627">
<ele>30.025642</ele>
<time>2026-07-16T16:07:52.000Z</time>
</trkpt>
<trkpt lat="57.546203" lon="9.916669">
<ele>30.039580</ele>
<time>2026-07-16T16:07:53.000Z</time>
</trkpt>
<trkpt lat="57.546243" lon="9.916710">
<ele>30.052686</ele>
<time>2026-07-16T16:07:54.000Z</time>
</trkpt>
<trkpt lat="57.546284" lon="9.916747">
<ele>30.065765</ele>
<time>2026-07-16T16:07:55.000Z</time>
</trkpt>
<trkpt lat="57.546323" lon="9.916782">
<ele>30.078192</ele>
<time>2026-07-16T16:07:56.000Z</time>
</trkpt>
<trkpt lat="57.546361" lon="9.916816">
<ele>30.090294</ele>
<time>2026-07-16T16:07:57.000Z</time>
</trkpt>
<trkpt lat="57.546402" lon="9.916853">
<ele>30.103372</ele>
<time>2026-07-16T16:07:58.000Z</time>
</trkpt>
<trkpt lat="57.546441" lon="9.916890">
<ele>30.115936</ele>
<time>2026-07-16T16:07:59.000Z</time>
</trkpt>
<trkpt lat="57.546481" lon="9.916923">
<ele>30.128495</ele>
<time>2026-07-16T16:08:00.000Z</time>
</trkpt>
<trkpt lat="57.546520" lon="9.916954">
<ele>30.042658</ele>
<time>2026-07-16T16:08:01.000Z</time>
</trkpt>
<trkpt lat="57.546556" lon="9.916988">
<ele>29.941700</ele>
<time>2026-07-16T16:08:02.000Z</time>
</trkpt>
<trkpt lat="57.546588" lon="9.917017">
<ele>29.852688</ele>
<time>2026-07-16T16:08:03.000Z</time>
</trkpt>
<trkpt lat="57.546624" lon="9.917042">
<ele>29.756585</ele>
<time>2026-07-16T16:08:04.000Z</time>
</trkpt>
<trkpt lat="57.546665" lon="9.917065">
<ele>29.649477</ele>
<time>2026-07-16T16:08:05.000Z</time>
</trkpt>
<trkpt lat="57.546712" lon="9.917088">
<ele>29.527921</ele>
<time>2026-07-16T16:08:06.000Z</time>
</trkpt>
<trkpt lat="57.546763" lon="9.917110">
<ele>29.396971</ele>
<time>2026-07-16T16:08:07.000Z</time>
</trkpt>
<trkpt lat="57.546823" lon="9.917139">
<ele>29.241916</ele>
<time>2026-07-16T16:08:08.000Z</time>
</trkpt>
<trkpt lat="57.546874" lon="9.917167">
<ele>29.108918</ele>
<time>2026-07-16T16:08:09.000Z</time>
</trkpt>
<trkpt lat="57.546919" lon="9.917191">
<ele>28.991832</ele>
<time>2026-07-16T16:08:10.000Z</time>
</trkpt>
<trkpt lat="57.546967" lon="9.917212">
<ele>28.868495</ele>
<time>2026-07-16T16:08:11.000Z</time>
</trkpt>
<trkpt lat="57.547012" lon="9.917232">
<ele>28.752771</ele>
<time>2026-07-16T16:08:12.000Z</time>
</trkpt>
<trkpt lat="57.547059" lon="9.917246">
<ele>28.633708</ele>
<time>2026-07-16T16:08:13.000Z</time>
</trkpt>
<trkpt lat="57.547110" lon="9.917260">
<ele>28.504755</ele>
<time>2026-07-16T16:08:14.000Z</time>
</trkpt>
<trkpt lat="57.547156" lon="9.917282">
<ele>28.385957</ele>
<time>2026-07-16T16:08:15.000Z</time>
</trkpt>
<trkpt lat="57.547199" lon="9.917310">
<ele>28.272016</ele>
<time>2026-07-16T16:08:16.000Z</time>
</trkpt>
<trkpt lat="57.547238" lon="9.917346">
<ele>28.163145</ele>
<time>2026-07-16T16:08:17.000Z</time>
</trkpt>
<trkpt lat="57.547277" lon="9.917393">
<ele>28.046965</ele>
<time>2026-07-16T16:08:18.000Z</time>
</trkpt>
<trkpt lat="57.547309" lon="9.917450">
<ele>27.936233</ele>
<time>2026-07-16T16:08:19.000Z</time>
</trkpt>
<trkpt lat="57.547342" lon="9.917520">
<ele>27.811160</ele>
<time>2026-07-16T16:08:20.000Z</time>
</trkpt>
<trkpt lat="57.547368" lon="9.917602">
<ele>27.683311</ele>
<time>2026-07-16T16:08:21.000Z</time>
</trkpt>
<trkpt lat="57.547397" lon="9.917690">
<ele>27.544691</ele>
<time>2026-07-16T16:08:22.000Z</time>
</trkpt>
<trkpt lat="57.547432" lon="9.917782">
<ele>27.393311</ele>
<time>2026-07-16T16:08:23.000Z</time>
</trkpt>
<trkpt lat="57.547479" lon="9.917878">
<ele>27.218875</ele>
<time>2026-07-16T16:08:24.000Z</time>
</trkpt>
<trkpt lat="57.547534" lon="9.917971">
<ele>27.033100</ele>
<time>2026-07-16T16:08:25.000Z</time>
</trkpt>
<trkpt lat="57.547586" lon="9.918067">
<ele>26.850001</ele>
<time>2026-07-16T16:08:26.000Z</time>
</trkpt>
<trkpt lat="57.547635" lon="9.918156">
<ele>26.678840</ele>
<time>2026-07-16T16:08:27.000Z</time>
</trkpt>
<trkpt lat="57.547682" lon="9.918241">
<ele>26.515009</ele>
<time>2026-07-16T16:08:28.000Z</time>
</trkpt>
<trkpt lat="57.547728" lon="9.918318">
<ele>26.360337</ele>
<time>2026-07-16T16:08:29.000Z</time>
</trkpt>
<trkpt lat="57.547774" lon="9.918390">
<ele>26.210067</ele>
<time>2026-07-16T16:08:30.000Z</time>
</trkpt>
<trkpt lat="57.547817" lon="9.918452">
<ele>26.074067</ele>
<time>2026-07-16T16:08:31.000Z</time>
</trkpt>
<trkpt lat="57.547864" lon="9.918508">
<ele>25.934521</ele>
<time>2026-07-16T16:08:32.000Z</time>
</trkpt>
<trkpt lat="57.547908" lon="9.918558">
<ele>25.805607</ele>
<time>2026-07-16T16:08:33.000Z</time>
</trkpt>
<trkpt lat="57.547961" lon="9.918602">
<ele>25.660468</ele>
<time>2026-07-16T16:08:34.000Z</time>
</trkpt>
<trkpt lat="57.548016" lon="9.918634">
<ele>25.638967</ele>
<time>2026-07-16T16:08:35.000Z</time>
</trkpt>
<trkpt lat="57.548072" lon="9.918655">
<ele>25.648526</ele>
<time>2026-07-16T16:08:36.000Z</time>
</trkpt>
<trkpt lat="57.548118" lon="9.918659">
<ele>25.656231</ele>
<time>2026-07-16T16:08:37.000Z</time>
</trkpt>
<trkpt lat="57.548175" lon="9.918646">
<ele>25.665840</ele>
<time>2026-07-16T16:08:38.000Z</time>
</trkpt>
<trkpt lat="57.548234" lon="9.918615">
<ele>25.676098</ele>
<time>2026-07-16T16:08:39.000Z</time>
</trkpt>
<trkpt lat="57.548282" lon="9.918581">
<ele>25.684690</ele>
<time>2026-07-16T16:08:40.000Z</time>
</trkpt>
<trkpt lat="57.548325" lon="9.918548">
<ele>25.692471</ele>
<time>2026-07-16T16:08:41.000Z</time>
</trkpt>
<trkpt lat="57.548363" lon="9.918526">
<ele>25.699130</ele>
<time>2026-07-16T16:08:42.000Z</time>
</trkpt>
<trkpt lat="57.548401" lon="9.918504">
<ele>25.705788</ele>
<time>2026-07-16T16:08:43.000Z</time>
</trkpt>
<trkpt lat="57.548436" lon="9.918473">
<ele>25.712272</ele>
<time>2026-07-16T16:08:44.000Z</time>
</trkpt>
<trkpt lat="57.548471" lon="9.918427">
<ele>25.719439</ele>
<time>2026-07-16T16:08:45.000Z</time>
</trkpt>
<trkpt lat="57.548502" lon="9.918378">
<ele>25.726241</ele>
<time>2026-07-16T16:08:46.000Z</time>
</trkpt>
<trkpt lat="57.548528" lon="9.918325">
<ele>25.732688</ele>
<time>2026-07-16T16:08:47.000Z</time>
</trkpt>
<trkpt lat="57.548553" lon="9.918274">
<ele>25.738890</ele>
<time>2026-07-16T16:08:48.000Z</time>
</trkpt>
<trkpt lat="57.548586" lon="9.918227">
<ele>25.745840</ele>
<time>2026-07-16T16:08:49.000Z</time>
</trkpt>
<trkpt lat="57.548625" lon="9.918191">
<ele>25.753123</ele>
<time>2026-07-16T16:08:50.000Z</time>
</trkpt>
<trkpt lat="57.548668" lon="9.918166">
<ele>25.760660</ele>
<time>2026-07-16T16:08:51.000Z</time>
</trkpt>
<trkpt lat="57.548709" lon="9.918156">
<ele>25.767579</ele>
<time>2026-07-16T16:08:52.000Z</time>
</trkpt>
<trkpt lat="57.548751" lon="9.918156">
<ele>25.774607</ele>
<time>2026-07-16T16:08:53.000Z</time>
</trkpt>
<trkpt lat="57.548789" lon="9.918164">
<ele>25.781006</ele>
<time>2026-07-16T16:08:54.000Z</time>
</trkpt>
<trkpt lat="57.548826" lon="9.918178">
<ele>25.787323</ele>
<time>2026-07-16T16:08:55.000Z</time>
</trkpt>
<trkpt lat="57.548863" lon="9.918192">
<ele>25.793641</ele>
<time>2026-07-16T16:08:56.000Z</time>
</trkpt>
<trkpt lat="57.548898" lon="9.918206">
<ele>25.799631</ele>
<time>2026-07-16T16:08:57.000Z</time>
</trkpt>
<trkpt lat="57.548928" lon="9.918220">
<ele>25.804806</ele>
<time>2026-07-16T16:08:58.000Z</time>
</trkpt>
<trkpt lat="57.548960" lon="9.918244">
<ele>25.810578</ele>
<time>2026-07-16T16:08:59.000Z</time>
</trkpt>
<trkpt lat="57.548988" lon="9.918268">
<ele>25.815735</ele>
<time>2026-07-16T16:09:00.000Z</time>
</trkpt>
<trkpt lat="57.549014" lon="9.918296">
<ele>25.820759</ele>
<time>2026-07-16T16:09:01.000Z</time>
</trkpt>
<trkpt lat="57.549031" lon="9.918327">
<ele>25.824739</ele>
<time>2026-07-16T16:09:02.000Z</time>
</trkpt>
<trkpt lat="57.549055" lon="9.918367">
<ele>25.830127</ele>
<time>2026-07-16T16:09:03.000Z</time>
</trkpt>
<trkpt lat="57.549081" lon="9.918407">
<ele>25.835768</ele>
<time>2026-07-16T16:09:04.000Z</time>
</trkpt>
<trkpt lat="57.549101" lon="9.918442">
<ele>25.840359</ele>
<time>2026-07-16T16:09:05.000Z</time>
</trkpt>
<trkpt lat="57.549125" lon="9.918474">
<ele>25.845297</ele>
<time>2026-07-16T16:09:06.000Z</time>
</trkpt>
<trkpt lat="57.549152" lon="9.918502">
<ele>25.850467</ele>
<time>2026-07-16T16:09:07.000Z</time>
</trkpt>
<trkpt lat="57.549179" lon="9.918523">
<ele>25.855363</ele>
<time>2026-07-16T16:09:08.000Z</time>
</trkpt>
<trkpt lat="57.549201" lon="9.918549">
<ele>25.859722</ele>
<time>2026-07-16T16:09:09.000Z</time>
</trkpt>
<trkpt lat="57.549219" lon="9.918574">
<ele>25.863478</ele>
<time>2026-07-16T16:09:10.000Z</time>
</trkpt>
<trkpt lat="57.549236" lon="9.918598">
<ele>25.867047</ele>
<time>2026-07-16T16:09:11.000Z</time>
</trkpt>
<trkpt lat="57.549254" lon="9.918619">
<ele>25.870600</ele>
<time>2026-07-16T16:09:12.000Z</time>
</trkpt>
<trkpt lat="57.549267" lon="9.918642">
<ele>25.873599</ele>
<time>2026-07-16T16:09:13.000Z</time>
</trkpt>
<trkpt lat="57.549279" lon="9.918667">
<ele>25.876611</ele>
<time>2026-07-16T16:09:14.000Z</time>
</trkpt>
<trkpt lat="57.549293" lon="9.918696">
<ele>25.880114</ele>
<time>2026-07-16T16:09:15.000Z</time>
</trkpt>
<trkpt lat="57.549308" lon="9.918733">
<ele>25.884277</ele>
<time>2026-07-16T16:09:16.000Z</time>
</trkpt>
<trkpt lat="57.549326" lon="9.918777">
<ele>25.889245</ele>
<time>2026-07-16T16:09:17.000Z</time>
</trkpt>
<trkpt lat="57.549340" lon="9.918820">
<ele>25.893761</ele>
<time>2026-07-16T16:09:18.000Z</time>
</trkpt>
<trkpt lat="57.549349" lon="9.918867">
<ele>25.898241</ele>
<time>2026-07-16T16:09:19.000Z</time>
</trkpt>
<trkpt lat="57.549356" lon="9.918912">
<ele>25.902448</ele>
<time>2026-07-16T16:09:20.000Z</time>
</trkpt>
<trkpt lat="57.549364" lon="9.918959">
<ele>25.906875</ele>
<time>2026-07-16T16:09:21.000Z</time>
</trkpt>
<trkpt lat="57.549374" lon="9.919002">
<ele>25.911083</ele>
<time>2026-07-16T16:09:22.000Z</time>
</trkpt>
<trkpt lat="57.549388" lon="9.919044">
<ele>25.915522</ele>
<time>2026-07-16T16:09:23.000Z</time>
</trkpt>
<trkpt lat="57.549406" lon="9.919088">
<ele>25.920490</ele>
<time>2026-07-16T16:09:24.000Z</time>
</trkpt>
<trkpt lat="57.549428" lon="9.919128">
<ele>25.925633</ele>
<time>2026-07-16T16:09:25.000Z</time>
</trkpt>
<trkpt lat="57.549448" lon="9.919164">
<ele>25.930286</ele>
<time>2026-07-16T16:09:26.000Z</time>
</trkpt>
<trkpt lat="57.549476" lon="9.919199">
<ele>25.992811</ele>
<time>2026-07-16T16:09:27.000Z</time>
</trkpt>
<trkpt lat="57.549503" lon="9.919230">
<ele>26.080111</ele>
<time>2026-07-16T16:09:28.000Z</time>
</trkpt>
<trkpt lat="57.549527" lon="9.919263">
<ele>26.162215</ele>
<time>2026-07-16T16:09:29.000Z</time>
</trkpt>
<trkpt lat="57.549550" lon="9.919288">
<ele>26.235512</ele>
<time>2026-07-16T16:09:30.000Z</time>
</trkpt>
<trkpt lat="57.549576" lon="9.919306">
<ele>26.311865</ele>
<time>2026-07-16T16:09:31.000Z</time>
</trkpt>
<trkpt lat="57.549597" lon="9.919317">
<ele>26.371915</ele>
<time>2026-07-16T16:09:32.000Z</time>
</trkpt>
<trkpt lat="57.549619" lon="9.919327">
<ele>26.434253</ele>
<time>2026-07-16T16:09:33.000Z</time>
</trkpt>
<trkpt lat="57.549639" lon="9.919331">
<ele>26.489626</ele>
<time>2026-07-16T16:09:34.000Z</time>
</trkpt>
<trkpt lat="57.549658" lon="9.919333">
<ele>26.542014</ele>
<time>2026-07-16T16:09:35.000Z</time>
</trkpt>
<trkpt lat="57.549680" lon="9.919332">
<ele>26.602594</ele>
<time>2026-07-16T16:09:36.000Z</time>
</trkpt>
<trkpt lat="57.549703" lon="9.919330">
<ele>26.665979</ele>
<time>2026-07-16T16:09:37.000Z</time>
</trkpt>
<trkpt lat="57.549725" lon="9.919328">
<ele>26.726614</ele>
<time>2026-07-16T16:09:38.000Z</time>
</trkpt>
<trkpt lat="57.549748" lon="9.919327">
<ele>26.789946</ele>
<time>2026-07-16T16:09:39.000Z</time>
</trkpt>
<trkpt lat="57.549774" lon="9.919327">
<ele>26.861521</ele>
<time>2026-07-16T16:09:40.000Z</time>
</trkpt>
<trkpt lat="57.549800" lon="9.919328">
<ele>26.933110</ele>
<time>2026-07-16T16:09:41.000Z</time>
</trkpt>
<trkpt lat="57.549827" lon="9.919331">
<ele>27.007569</ele>
<time>2026-07-16T16:09:42.000Z</time>
</trkpt>
<trkpt lat="57.549852" lon="9.919334">
<ele>27.076533</ele>
<time>2026-07-16T16:09:43.000Z</time>
</trkpt>
<trkpt lat="57.549874" lon="9.919335">
<ele>27.137113</ele>
<time>2026-07-16T16:09:44.000Z</time>
</trkpt>
<trkpt lat="57.549900" lon="9.919334">
<ele>27.208703</ele>
<time>2026-07-16T16:09:45.000Z</time>
</trkpt>
<trkpt lat="57.549933" lon="9.919335">
<ele>27.299559</ele>
<time>2026-07-16T16:09:46.000Z</time>
</trkpt>
<trkpt lat="57.549958" lon="9.919337">
<ele>27.368444</ele>
<time>2026-07-16T16:09:47.000Z</time>
</trkpt>
<trkpt lat="57.549984" lon="9.919342">
<ele>27.440398</ele>
<time>2026-07-16T16:09:48.000Z</time>
</trkpt>
<trkpt lat="57.550005" lon="9.919347">
<ele>27.498678</ele>
<time>2026-07-16T16:09:49.000Z</time>
</trkpt>
<trkpt lat="57.550027" lon="9.919358">
<ele>27.561382</ele>
<time>2026-07-16T16:09:50.000Z</time>
</trkpt>
<trkpt lat="57.550045" lon="9.919373">
<ele>27.615661</ele>
<time>2026-07-16T16:09:51.000Z</time>
</trkpt>
<trkpt lat="57.550061" lon="9.919387">
<ele>27.664320</ele>
<time>2026-07-16T16:09:52.000Z</time>
</trkpt>
<trkpt lat="57.550082" lon="9.919408">
<ele>27.729925</ele>
<time>2026-07-16T16:09:53.000Z</time>
</trkpt>
<trkpt lat="57.550109" lon="9.919434">
<ele>27.813588</ele>
<time>2026-07-16T16:09:54.000Z</time>
</trkpt>
<trkpt lat="57.550137" lon="9.919455">
<ele>27.896675</ele>
<time>2026-07-16T16:09:55.000Z</time>
</trkpt>
<trkpt lat="57.550165" lon="9.919475">
<ele>27.979222</ele>
<time>2026-07-16T16:09:56.000Z</time>
</trkpt>
<trkpt lat="57.550196" lon="9.919495">
<ele>28.069529</ele>
<time>2026-07-16T16:09:57.000Z</time>
</trkpt>
<trkpt lat="57.550227" lon="9.919513">
<ele>28.158913</ele>
<time>2026-07-16T16:09:58.000Z</time>
</trkpt>
<trkpt lat="57.550255" lon="9.919535">
<ele>28.242562</ele>
<time>2026-07-16T16:09:59.000Z</time>
</trkpt>
<trkpt lat="57.550276" lon="9.919560">
<ele>28.311159</ele>
<time>2026-07-16T16:10:00.000Z</time>
</trkpt>
<trkpt lat="57.550304" lon="9.919590">
<ele>28.400069</ele>
<time>2026-07-16T16:10:01.000Z</time>
</trkpt>
<trkpt lat="57.550339" lon="9.919623">
<ele>28.508046</ele>
<time>2026-07-16T16:10:02.000Z</time>
</trkpt>
<trkpt lat="57.550372" lon="9.919655">
<ele>28.610451</ele>
<time>2026-07-16T16:10:03.000Z</time>
</trkpt>
<trkpt lat="57.550405" lon="9.919682">
<ele>28.709664</ele>
<time>2026-07-16T16:10:04.000Z</time>
</trkpt>
<trkpt lat="57.550439" lon="9.919710">
<ele>28.811991</ele>
<time>2026-07-16T16:10:05.000Z</time>
</trkpt>
<trkpt lat="57.550482" lon="9.919738">
<ele>28.937380</ele>
<time>2026-07-16T16:10:06.000Z</time>
</trkpt>
<trkpt lat="57.550533" lon="9.919769">
<ele>29.085054</ele>
<time>2026-07-16T16:10:07.000Z</time>
</trkpt>
<trkpt lat="57.550568" lon="9.919795">
<ele>29.188775</ele>
<time>2026-07-16T16:10:08.000Z</time>
</trkpt>
<trkpt lat="57.550603" lon="9.919826">
<ele>29.295452</ele>
<time>2026-07-16T16:10:09.000Z</time>
</trkpt>
<trkpt lat="57.550631" lon="9.919859">
<ele>29.386650</ele>
<time>2026-07-16T16:10:10.000Z</time>
</trkpt>
<trkpt lat="57.550666" lon="9.919896">
<ele>29.497421</ele>
<time>2026-07-16T16:10:11.000Z</time>
</trkpt>
<trkpt lat="57.550700" lon="9.919928">
<ele>29.602275</ele>
<time>2026-07-16T16:10:12.000Z</time>
</trkpt>
<trkpt lat="57.550725" lon="9.919949">
<ele>29.677763</ele>
<time>2026-07-16T16:10:13.000Z</time>
</trkpt>
<trkpt lat="57.550747" lon="9.919968">
<ele>29.744512</ele>
<time>2026-07-16T16:10:14.000Z</time>
</trkpt>
<trkpt lat="57.550771" lon="9.919999">
<ele>29.824896</ele>
<time>2026-07-16T16:10:15.000Z</time>
</trkpt>
<trkpt lat="57.550792" lon="9.920024">
<ele>29.893493</ele>
<time>2026-07-16T16:10:16.000Z</time>
</trkpt>
<trkpt lat="57.550820" lon="9.920058">
<ele>29.985490</ele>
<time>2026-07-16T16:10:17.000Z</time>
</trkpt>
<trkpt lat="57.550850" lon="9.920093">
<ele>30.082921</ele>
<time>2026-07-16T16:10:18.000Z</time>
</trkpt>
<trkpt lat="57.550916" lon="9.920135">
<ele>30.274908</ele>
<time>2026-07-16T16:10:19.000Z</time>
</trkpt>
<trkpt lat="57.550997" lon="9.920176">
<ele>30.505966</ele>
<time>2026-07-16T16:10:20.000Z</time>
</trkpt>
<trkpt lat="57.551057" lon="9.920218">
<ele>30.682403</ele>
<time>2026-07-16T16:10:21.000Z</time>
</trkpt>
<trkpt lat="57.551128" lon="9.920261">
<ele>30.883874</ele>
<time>2026-07-16T16:10:22.000Z</time>
</trkpt>
<trkpt lat="57.551198" lon="9.920302">
<ele>30.894749</ele>
<time>2026-07-16T16:10:23.000Z</time>
</trkpt>
<trkpt lat="57.551255" lon="9.920337">
<ele>30.903644</ele>
<time>2026-07-16T16:10:24.000Z</time>
</trkpt>
<trkpt lat="57.551306" lon="9.920370">
<ele>30.911645</ele>
<time>2026-07-16T16:10:25.000Z</time>
</trkpt>
<trkpt lat="57.551352" lon="9.920395">
<ele>30.918747</ele>
<time>2026-07-16T16:10:26.000Z</time>
</trkpt>
<trkpt lat="57.551403" lon="9.920419">
<ele>30.926543</ele>
<time>2026-07-16T16:10:27.000Z</time>
</trkpt>
<trkpt lat="57.551446" lon="9.920440">
<ele>30.933132</ele>
<time>2026-07-16T16:10:28.000Z</time>
</trkpt>
<trkpt lat="57.551492" lon="9.920462">
<ele>30.940171</ele>
<time>2026-07-16T16:10:29.000Z</time>
</trkpt>
<trkpt lat="57.551548" lon="9.920486">
<ele>30.948687</ele>
<time>2026-07-16T16:10:30.000Z</time>
</trkpt>
<trkpt lat="57.551592" lon="9.920504">
<ele>30.955364</ele>
<time>2026-07-16T16:10:31.000Z</time>
</trkpt>
<trkpt lat="57.551640" lon="9.920518">
<ele>30.962565</ele>
<time>2026-07-16T16:10:32.000Z</time>
</trkpt>
<trkpt lat="57.551693" lon="9.920533">
<ele>30.970510</ele>
<time>2026-07-16T16:10:33.000Z</time>
</trkpt>
<trkpt lat="57.551741" lon="9.920545">
<ele>30.977688</ele>
<time>2026-07-16T16:10:34.000Z</time>
</trkpt>
<trkpt lat="57.551790" lon="9.920560">
<ele>30.985048</ele>
<time>2026-07-16T16:10:35.000Z</time>
</trkpt>
<trkpt lat="57.551840" lon="9.920577">
<ele>30.992581</ele>
<time>2026-07-16T16:10:36.000Z</time>
</trkpt>
<trkpt lat="57.551889" lon="9.920598">
<ele>31.000033</ele>
<time>2026-07-16T16:10:37.000Z</time>
</trkpt>
<trkpt lat="57.551935" lon="9.920620">
<ele>31.007072</ele>
<time>2026-07-16T16:10:38.000Z</time>
</trkpt>
<trkpt lat="57.551981" lon="9.920649">
<ele>31.014269</ele>
<time>2026-07-16T16:10:39.000Z</time>
</trkpt>
<trkpt lat="57.552030" lon="9.920693">
<ele>31.022331</ele>
<time>2026-07-16T16:10:40.000Z</time>
</trkpt>
<trkpt lat="57.552079" lon="9.920745">
<ele>31.030688</ele>
<time>2026-07-16T16:10:41.000Z</time>
</trkpt>
<trkpt lat="57.552127" lon="9.920800">
<ele>31.039039</ele>
<time>2026-07-16T16:10:42.000Z</time>
</trkpt>
<trkpt lat="57.552168" lon="9.920848">
<ele>31.046216</ele>
<time>2026-07-16T16:10:43.000Z</time>
</trkpt>
<trkpt lat="57.552213" lon="9.920901">
<ele>31.054105</ele>
<time>2026-07-16T16:10:44.000Z</time>
</trkpt>
<trkpt lat="57.552257" lon="9.920954">
<ele>31.061870</ele>
<time>2026-07-16T16:10:45.000Z</time>
</trkpt>
<trkpt lat="57.552300" lon="9.921000">
<ele>31.069219</ele>
<time>2026-07-16T16:10:46.000Z</time>
</trkpt>
<trkpt lat="57.552342" lon="9.921044">
<ele>31.076360</ele>
<time>2026-07-16T16:10:47.000Z</time>
</trkpt>
<trkpt lat="57.552382" lon="9.921086">
<ele>31.083164</ele>
<time>2026-07-16T16:10:48.000Z</time>
</trkpt>
<trkpt lat="57.552422" lon="9.921130">
<ele>31.090048</ele>
<time>2026-07-16T16:10:49.000Z</time>
</trkpt>
<trkpt lat="57.552457" lon="9.921172">
<ele>31.096218</ele>
<time>2026-07-16T16:10:50.000Z</time>
</trkpt>
<trkpt lat="57.552494" lon="9.921217">
<ele>31.102766</ele>
<time>2026-07-16T16:10:51.000Z</time>
</trkpt>
<trkpt lat="57.552533" lon="9.921267">
<ele>31.109782</ele>
<time>2026-07-16T16:10:52.000Z</time>
</trkpt>
<trkpt lat="57.552573" lon="9.921317">
<ele>31.116921</ele>
<time>2026-07-16T16:10:53.000Z</time>
</trkpt>
<trkpt lat="57.552610" lon="9.921369">
<ele>31.123789</ele>
<time>2026-07-16T16:10:54.000Z</time>
</trkpt>
<trkpt lat="57.552651" lon="9.921423">
<ele>31.131230</ele>
<time>2026-07-16T16:10:55.000Z</time>
</trkpt>
<trkpt lat="57.552693" lon="9.921481">
<ele>31.138977</ele>
<time>2026-07-16T16:10:56.000Z</time>
</trkpt>
<trkpt lat="57.552734" lon="9.921543">
<ele>31.146802</ele>
<time>2026-07-16T16:10:57.000Z</time>
</trkpt>
<trkpt lat="57.552773" lon="9.921602">
<ele>31.144808</ele>
<time>2026-07-16T16:10:58.000Z</time>
</trkpt>
<trkpt lat="57.552809" lon="9.921661">
<ele>31.135221</ele>
<time>2026-07-16T16:10:59.000Z</time>
</trkpt>
<trkpt lat="57.552843" lon="9.921716">
<ele>31.126217</ele>
<time>2026-07-16T16:11:00.000Z</time>
</trkpt>
<trkpt lat="57.552877" lon="9.921772">
<ele>31.117142</ele>
<time>2026-07-16T16:11:01.000Z</time>
</trkpt>
<trkpt lat="57.552914" lon="9.921829">
<ele>31.107542</ele>
<time>2026-07-16T16:11:02.000Z</time>
</trkpt>
<trkpt lat="57.552951" lon="9.921888">
<ele>31.097803</ele>
<time>2026-07-16T16:11:03.000Z</time>
</trkpt>
<trkpt lat="57.552988" lon="9.921951">
<ele>31.087781</ele>
<time>2026-07-16T16:11:04.000Z</time>
</trkpt>
<trkpt lat="57.553020" lon="9.922014">
<ele>31.078472</ele>
<time>2026-07-16T16:11:05.000Z</time>
</trkpt>
<trkpt lat="57.553053" lon="9.922078">
<ele>31.068947</ele>
<time>2026-07-16T16:11:06.000Z</time>
</trkpt>
<trkpt lat="57.553085" lon="9.922135">
<ele>31.060095</ele>
<time>2026-07-16T16:11:07.000Z</time>
</trkpt>
<trkpt lat="57.553120" lon="9.922198">
<ele>31.050363</ele>
<time>2026-07-16T16:11:08.000Z</time>
</trkpt>
<trkpt lat="57.553156" lon="9.922263">
<ele>31.040339</ele>
<time>2026-07-16T16:11:09.000Z</time>
</trkpt>
<trkpt lat="57.553191" lon="9.922326">
<ele>31.030608</ele>
<time>2026-07-16T16:11:10.000Z</time>
</trkpt>
<trkpt lat="57.553224" lon="9.922388">
<ele>31.021237</ele>
<time>2026-07-16T16:11:11.000Z</time>
</trkpt>
<trkpt lat="57.553259" lon="9.922451">
<ele>31.011506</ele>
<time>2026-07-16T16:11:12.000Z</time>
</trkpt>
<trkpt lat="57.553296" lon="9.922519">
<ele>31.001114</ele>
<time>2026-07-16T16:11:13.000Z</time>
</trkpt>
<trkpt lat="57.553334" lon="9.922591">
<ele>30.990276</ele>
<time>2026-07-16T16:11:14.000Z</time>
</trkpt>
<trkpt lat="57.553367" lon="9.922666">
<ele>30.979869</ele>
<time>2026-07-16T16:11:15.000Z</time>
</trkpt>
<trkpt lat="57.553397" lon="9.922738">
<ele>30.970087</ele>
<time>2026-07-16T16:11:16.000Z</time>
</trkpt>
<trkpt lat="57.553425" lon="9.922814">
<ele>30.960194</ele>
<time>2026-07-16T16:11:17.000Z</time>
</trkpt>
<trkpt lat="57.553449" lon="9.922893">
<ele>30.950453</ele>
<time>2026-07-16T16:11:18.000Z</time>
</trkpt>
<trkpt lat="57.553472" lon="9.922976">
<ele>30.940429</ele>
<time>2026-07-16T16:11:19.000Z</time>
</trkpt>
<trkpt lat="57.553492" lon="9.923063">
<ele>30.930273</ele>
<time>2026-07-16T16:11:20.000Z</time>
</trkpt>
<trkpt lat="57.553514" lon="9.923148">
<ele>30.920147</ele>
<time>2026-07-16T16:11:21.000Z</time>
</trkpt>
<trkpt lat="57.553537" lon="9.923237">
<ele>30.909547</ele>
<time>2026-07-16T16:11:22.000Z</time>
</trkpt>
<trkpt lat="57.553562" lon="9.923323">
<ele>30.899052</ele>
<time>2026-07-16T16:11:23.000Z</time>
</trkpt>
<trkpt lat="57.553589" lon="9.923406">
<ele>30.888637</ele>
<time>2026-07-16T16:11:24.000Z</time>
</trkpt>
<trkpt lat="57.553621" lon="9.923484">
<ele>30.878101</ele>
<time>2026-07-16T16:11:25.000Z</time>
</trkpt>
<trkpt lat="57.553653" lon="9.923556">
<ele>30.868068</ele>
<time>2026-07-16T16:11:26.000Z</time>
</trkpt>
<trkpt lat="57.553686" lon="9.923627">
<ele>30.857989</ele>
<time>2026-07-16T16:11:27.000Z</time>
</trkpt>
<trkpt lat="57.553723" lon="9.923697">
<ele>30.847445</ele>
<time>2026-07-16T16:11:28.000Z</time>
</trkpt>
<trkpt lat="57.553758" lon="9.923763">
<ele>30.837488</ele>
<time>2026-07-16T16:11:29.000Z</time>
</trkpt>
<trkpt lat="57.553795" lon="9.923831">
<ele>30.827096</ele>
<time>2026-07-16T16:11:30.000Z</time>
</trkpt>
<trkpt lat="57.553834" lon="9.923902">
<ele>30.816192</ele>
<time>2026-07-16T16:11:31.000Z</time>
</trkpt>
<trkpt lat="57.553869" lon="9.923975">
<ele>30.805688</ele>
<time>2026-07-16T16:11:32.000Z</time>
</trkpt>
<trkpt lat="57.553904" lon="9.924046">
<ele>30.795342</ele>
<time>2026-07-16T16:11:33.000Z</time>
</trkpt>
<trkpt lat="57.553936" lon="9.924112">
<ele>30.788804</ele>
<time>2026-07-16T16:11:34.000Z</time>
</trkpt>
<trkpt lat="57.553970" lon="9.924183">
<ele>30.785114</ele>
<time>2026-07-16T16:11:35.000Z</time>
</trkpt>
<trkpt lat="57.554009" lon="9.924256">
<ele>30.781118</ele>
<time>2026-07-16T16:11:36.000Z</time>
</trkpt>
<trkpt lat="57.554047" lon="9.924327">
<ele>30.777229</ele>
<time>2026-07-16T16:11:37.000Z</time>
</trkpt>
<trkpt lat="57.554082" lon="9.924398">
<ele>30.773490</ele>
<time>2026-07-16T16:11:38.000Z</time>
</trkpt>
<trkpt lat="57.554117" lon="9.924472">
<ele>30.769664</ele>
<time>2026-07-16T16:11:39.000Z</time>
</trkpt>
<trkpt lat="57.554153" lon="9.924544">
<ele>30.765848</ele>
<time>2026-07-16T16:11:40.000Z</time>
</trkpt>
<trkpt lat="57.554189" lon="9.924618">
<ele>30.761974</ele>
<time>2026-07-16T16:11:41.000Z</time>
</trkpt>
<trkpt lat="57.554224" lon="9.924690">
<ele>30.758206</ele>
<time>2026-07-16T16:11:42.000Z</time>
</trkpt>
<trkpt lat="57.554258" lon="9.924759">
<ele>30.754573</ele>
<time>2026-07-16T16:11:43.000Z</time>
</trkpt>
<trkpt lat="57.554298" lon="9.924822">
<ele>30.750787</ele>
<time>2026-07-16T16:11:44.000Z</time>
</trkpt>
<trkpt lat="57.554338" lon="9.924882">
<ele>30.747076</ele>
<time>2026-07-16T16:11:45.000Z</time>
</trkpt>
<trkpt lat="57.554376" lon="9.924938">
<ele>30.743574</ele>
<time>2026-07-16T16:11:46.000Z</time>
</trkpt>
<trkpt lat="57.554414" lon="9.924989">
<ele>30.740190</ele>
<time>2026-07-16T16:11:47.000Z</time>
</trkpt>
<trkpt lat="57.554451" lon="9.925033">
<ele>30.737017</ele>
<time>2026-07-16T16:11:48.000Z</time>
</trkpt>
<trkpt lat="57.554491" lon="9.925079">
<ele>30.733620</ele>
<time>2026-07-16T16:11:49.000Z</time>
</trkpt>
<trkpt lat="57.554535" lon="9.925129">
<ele>30.729895</ele>
<time>2026-07-16T16:11:50.000Z</time>
</trkpt>
<trkpt lat="57.554576" lon="9.925180">
<ele>30.726332</ele>
<time>2026-07-16T16:11:51.000Z</time>
</trkpt>
<trkpt lat="57.554616" lon="9.925231">
<ele>30.722829</ele>
<time>2026-07-16T16:11:52.000Z</time>
</trkpt>
<trkpt lat="57.554648" lon="9.925276">
<ele>30.719931</ele>
<time>2026-07-16T16:11:53.000Z</time>
</trkpt>
<trkpt lat="57.554684" lon="9.925324">
<ele>30.716732</ele>
<time>2026-07-16T16:11:54.000Z</time>
</trkpt>
<trkpt lat="57.554720" lon="9.925372">
<ele>30.713532</ele>
<time>2026-07-16T16:11:55.000Z</time>
</trkpt>
<trkpt lat="57.554759" lon="9.925428">
<ele>30.709974</ele>
<time>2026-07-16T16:11:56.000Z</time>
</trkpt>
<trkpt lat="57.554796" lon="9.925475">
<ele>30.706737</ele>
<time>2026-07-16T16:11:57.000Z</time>
</trkpt>
<trkpt lat="57.554839" lon="9.925521">
<ele>30.703154</ele>
<time>2026-07-16T16:11:58.000Z</time>
</trkpt>
<trkpt lat="57.554875" lon="9.925556">
<ele>30.700219</ele>
<time>2026-07-16T16:11:59.000Z</time>
</trkpt>
<trkpt lat="57.554918" lon="9.925592">
<ele>30.696811</ele>
<time>2026-07-16T16:12:00.000Z</time>
</trkpt>
<trkpt lat="57.554963" lon="9.925628">
<ele>30.693272</ele>
<time>2026-07-16T16:12:01.000Z</time>
</trkpt>
<trkpt lat="57.555001" lon="9.925663">
<ele>30.690208</ele>
<time>2026-07-16T16:12:02.000Z</time>
</trkpt>
<trkpt lat="57.555042" lon="9.925700">
<ele>30.686915</ele>
<time>2026-07-16T16:12:03.000Z</time>
</trkpt>
<trkpt lat="57.555089" lon="9.925741">
<ele>30.683164</ele>
<time>2026-07-16T16:12:04.000Z</time>
</trkpt>
<trkpt lat="57.555139" lon="9.925788">
<ele>30.679116</ele>
<time>2026-07-16T16:12:05.000Z</time>
</trkpt>
<trkpt lat="57.555186" lon="9.925829">
<ele>30.675365</ele>
<time>2026-07-16T16:12:06.000Z</time>
</trkpt>
<trkpt lat="57.555232" lon="9.925869">
<ele>30.671696</ele>
<time>2026-07-16T16:12:07.000Z</time>
</trkpt>
<trkpt lat="57.555278" lon="9.925907">
<ele>30.668059</ele>
<time>2026-07-16T16:12:08.000Z</time>
</trkpt>
<trkpt lat="57.555323" lon="9.925940">
<ele>30.664564</ele>
<time>2026-07-16T16:12:09.000Z</time>
</trkpt>
<trkpt lat="57.555357" lon="9.925970">
<ele>30.661845</ele>
<time>2026-07-16T16:12:10.000Z</time>
</trkpt>
<trkpt lat="57.555386" lon="9.925995">
<ele>30.656588</ele>
<time>2026-07-16T16:12:11.000Z</time>
</trkpt>
<trkpt lat="57.555415" lon="9.926018">
<ele>30.647306</ele>
<time>2026-07-16T16:12:12.000Z</time>
</trkpt>
<trkpt lat="57.555443" lon="9.926042">
<ele>30.638230</ele>
<time>2026-07-16T16:12:13.000Z</time>
</trkpt>
<trkpt lat="57.555466" lon="9.926064">
<ele>30.630617</ele>
<time>2026-07-16T16:12:14.000Z</time>
</trkpt>
<trkpt lat="57.555484" lon="9.926087">
<ele>30.624189</ele>
<time>2026-07-16T16:12:15.000Z</time>
</trkpt>
<trkpt lat="57.555499" lon="9.926109">
<ele>30.618568</ele>
<time>2026-07-16T16:12:16.000Z</time>
</trkpt>
<trkpt lat="57.555515" lon="9.926126">
<ele>30.613145</ele>
<time>2026-07-16T16:12:17.000Z</time>
</trkpt>
<trkpt lat="57.555533" lon="9.926141">
<ele>30.607338</ele>
<time>2026-07-16T16:12:18.000Z</time>
</trkpt>
<trkpt lat="57.555552" lon="9.926156">
<ele>30.601261</ele>
<time>2026-07-16T16:12:19.000Z</time>
</trkpt>
<trkpt lat="57.555573" lon="9.926171">
<ele>30.594638</ele>
<time>2026-07-16T16:12:20.000Z</time>
</trkpt>
<trkpt lat="57.555597" lon="9.926186">
<ele>30.587183</ele>
<time>2026-07-16T16:12:21.000Z</time>
</trkpt>
<trkpt lat="57.555617" lon="9.926199">
<ele>30.580945</ele>
<time>2026-07-16T16:12:22.000Z</time>
</trkpt>
<trkpt lat="57.555641" lon="9.926213">
<ele>30.573539</ele>
<time>2026-07-16T16:12:23.000Z</time>
</trkpt>
<trkpt lat="57.555662" lon="9.926227">
<ele>30.566971</ele>
<time>2026-07-16T16:12:24.000Z</time>
</trkpt>
<trkpt lat="57.555686" lon="9.926243">
<ele>30.559464</ele>
<time>2026-07-16T16:12:25.000Z</time>
</trkpt>
<trkpt lat="57.555707" lon="9.926266">
<ele>30.552291</ele>
<time>2026-07-16T16:12:26.000Z</time>
</trkpt>
<trkpt lat="57.555729" lon="9.926291">
<ele>30.544703</ele>
<time>2026-07-16T16:12:27.000Z</time>
</trkpt>
<trkpt lat="57.555750" lon="9.926315">
<ele>30.537448</ele>
<time>2026-07-16T16:12:28.000Z</time>
</trkpt>
<trkpt lat="57.555769" lon="9.926344">
<ele>30.530216</ele>
<time>2026-07-16T16:12:29.000Z</time>
</trkpt>
<trkpt lat="57.555783" lon="9.926383">
<ele>30.522802</ele>
<time>2026-07-16T16:12:30.000Z</time>
</trkpt>
<trkpt lat="57.555789" lon="9.926430">
<ele>30.515169</ele>
<time>2026-07-16T16:12:31.000Z</time>
</trkpt>
<trkpt lat="57.555795" lon="9.926487">
<ele>30.505992</ele>
<time>2026-07-16T16:12:32.000Z</time>
</trkpt>
<trkpt lat="57.555800" lon="9.926551">
<ele>30.495773</ele>
<time>2026-07-16T16:12:33.000Z</time>
</trkpt>
<trkpt lat="57.555801" lon="9.926613">
<ele>30.485973</ele>
<time>2026-07-16T16:12:34.000Z</time>
</trkpt>
<trkpt lat="57.555799" lon="9.926693">
<ele>30.473320</ele>
<time>2026-07-16T16:12:35.000Z</time>
</trkpt>
<trkpt lat="57.555798" lon="9.926779">
<ele>30.459729</ele>
<time>2026-07-16T16:12:36.000Z</time>
</trkpt>
<trkpt lat="57.555795" lon="9.926860">
<ele>30.446901</ele>
<time>2026-07-16T16:12:37.000Z</time>
</trkpt>
<trkpt lat="57.555794" lon="9.926939">
<ele>30.434416</ele>
<time>2026-07-16T16:12:38.000Z</time>
</trkpt>
<trkpt lat="57.555791" lon="9.927020">
<ele>30.421588</ele>
<time>2026-07-16T16:12:39.000Z</time>
</trkpt>
<trkpt lat="57.555790" lon="9.927099">
<ele>30.409103</ele>
<time>2026-07-16T16:12:40.000Z</time>
</trkpt>
<trkpt lat="57.555784" lon="9.927181">
<ele>30.396027</ele>
<time>2026-07-16T16:12:41.000Z</time>
</trkpt>
<trkpt lat="57.555780" lon="9.927262">
<ele>30.383175</ele>
<time>2026-07-16T16:12:42.000Z</time>
</trkpt>
<trkpt lat="57.555776" lon="9.927345">
<ele>30.370009</ele>
<time>2026-07-16T16:12:43.000Z</time>
</trkpt>
<trkpt lat="57.555772" lon="9.927427">
<ele>30.357000</ele>
<time>2026-07-16T16:12:44.000Z</time>
</trkpt>
<trkpt lat="57.555771" lon="9.927515">
<ele>30.343093</ele>
<time>2026-07-16T16:12:45.000Z</time>
</trkpt>
<trkpt lat="57.555765" lon="9.927597">
<ele>30.330018</ele>
<time>2026-07-16T16:12:46.000Z</time>
</trkpt>
<trkpt lat="57.555761" lon="9.927679">
<ele>30.317009</ele>
<time>2026-07-16T16:12:47.000Z</time>
</trkpt>
<trkpt lat="57.555755" lon="9.927749">
<ele>30.305809</ele>
<time>2026-07-16T16:12:48.000Z</time>
</trkpt>
<trkpt lat="57.555749" lon="9.927830">
<ele>30.292890</ele>
<time>2026-07-16T16:12:49.000Z</time>
</trkpt>
<trkpt lat="57.555741" lon="9.927915">
<ele>30.279255</ele>
<time>2026-07-16T16:12:50.000Z</time>
</trkpt>
<trkpt lat="57.555731" lon="9.928010">
<ele>30.263959</ele>
<time>2026-07-16T16:12:51.000Z</time>
</trkpt>
<trkpt lat="57.555718" lon="9.928102">
<ele>30.248928</ele>
<time>2026-07-16T16:12:52.000Z</time>
</trkpt>
<trkpt lat="57.555708" lon="9.928198">
<ele>30.233477</ele>
<time>2026-07-16T16:12:53.000Z</time>
</trkpt>
<trkpt lat="57.555702" lon="9.928279">
<ele>30.220558</ele>
<time>2026-07-16T16:12:54.000Z</time>
</trkpt>
<trkpt lat="57.555694" lon="9.928377">
<ele>30.204896</ele>
<time>2026-07-16T16:12:55.000Z</time>
</trkpt>
<trkpt lat="57.555682" lon="9.928481">
<ele>30.188089</ele>
<time>2026-07-16T16:12:56.000Z</time>
</trkpt>
<trkpt lat="57.555671" lon="9.928571">
<ele>30.173505</ele>
<time>2026-07-16T16:12:57.000Z</time>
</trkpt>
<trkpt lat="57.555660" lon="9.928667">
<ele>30.157995</ele>
<time>2026-07-16T16:12:58.000Z</time>
</trkpt>
<trkpt lat="57.555648" lon="9.928764">
<ele>30.142268</ele>
<time>2026-07-16T16:12:59.000Z</time>
</trkpt>
<trkpt lat="57.555637" lon="9.928856">
<ele>30.130916</ele>
<time>2026-07-16T16:13:00.000Z</time>
</trkpt>
<trkpt lat="57.555631" lon="9.928954">
<ele>30.131508</ele>
<time>2026-07-16T16:13:01.000Z</time>
</trkpt>
<trkpt lat="57.555624" lon="9.929053">
<ele>30.132108</ele>
<time>2026-07-16T16:13:02.000Z</time>
</trkpt>
<trkpt lat="57.555617" lon="9.929146">
<ele>30.132672</ele>
<time>2026-07-16T16:13:03.000Z</time>
</trkpt>
<trkpt lat="57.555609" lon="9.929237">
<ele>30.133226</ele>
<time>2026-07-16T16:13:04.000Z</time>
</trkpt>
<trkpt lat="57.555599" lon="9.929334">
<ele>30.133819</ele>
<time>2026-07-16T16:13:05.000Z</time>
</trkpt>
<trkpt lat="57.555593" lon="9.929429">
<ele>30.134394</ele>
<time>2026-07-16T16:13:06.000Z</time>
</trkpt>
<trkpt lat="57.555592" lon="9.929523">
<ele>30.134959</ele>
<time>2026-07-16T16:13:07.000Z</time>
</trkpt>
<trkpt lat="57.555589" lon="9.929615">
<ele>30.135512</ele>
<time>2026-07-16T16:13:08.000Z</time>
</trkpt>
<trkpt lat="57.555585" lon="9.929705">
<ele>30.136055</ele>
<time>2026-07-16T16:13:09.000Z</time>
</trkpt>
<trkpt lat="57.555581" lon="9.929791">
<ele>30.136573</ele>
<time>2026-07-16T16:13:10.000Z</time>
</trkpt>
<trkpt lat="57.555577" lon="9.929878">
<ele>30.137098</ele>
<time>2026-07-16T16:13:11.000Z</time>
</trkpt>
<trkpt lat="57.555571" lon="9.929968">
<ele>30.137643</ele>
<time>2026-07-16T16:13:12.000Z</time>
</trkpt>
<trkpt lat="57.555569" lon="9.930056">
<ele>30.138172</ele>
<time>2026-07-16T16:13:13.000Z</time>
</trkpt>
<trkpt lat="57.555569" lon="9.930142">
<ele>30.138688</ele>
<time>2026-07-16T16:13:14.000Z</time>
</trkpt>
<trkpt lat="57.555566" lon="9.930228">
<ele>30.139206</ele>
<time>2026-07-16T16:13:15.000Z</time>
</trkpt>
<trkpt lat="57.555565" lon="9.930304">
<ele>30.139663</ele>
<time>2026-07-16T16:13:16.000Z</time>
</trkpt>
<trkpt lat="57.555560" lon="9.930400">
<ele>30.140242</ele>
<time>2026-07-16T16:13:17.000Z</time>
</trkpt>
<trkpt lat="57.555555" lon="9.930501">
<ele>30.140851</ele>
<time>2026-07-16T16:13:18.000Z</time>
</trkpt>
<trkpt lat="57.555548" lon="9.930596">
<ele>30.141427</ele>
<time>2026-07-16T16:13:19.000Z</time>
</trkpt>
<trkpt lat="57.555540" lon="9.930692">
<ele>30.142011</ele>
<time>2026-07-16T16:13:20.000Z</time>
</trkpt>
<trkpt lat="57.555533" lon="9.930785">
<ele>30.142575</ele>
<time>2026-07-16T16:13:21.000Z</time>
</trkpt>
<trkpt lat="57.555525" lon="9.930883">
<ele>30.143170</ele>
<time>2026-07-16T16:13:22.000Z</time>
</trkpt>
<trkpt lat="57.555520" lon="9.930980">
<ele>30.143756</ele>
<time>2026-07-16T16:13:23.000Z</time>
</trkpt>
<trkpt lat="57.555516" lon="9.931076">
<ele>30.144334</ele>
<time>2026-07-16T16:13:24.000Z</time>
</trkpt>
<trkpt lat="57.555510" lon="9.931167">
<ele>30.144885</ele>
<time>2026-07-16T16:13:25.000Z</time>
</trkpt>
<trkpt lat="57.555497" lon="9.931260">
<ele>30.145462</ele>
<time>2026-07-16T16:13:26.000Z</time>
</trkpt>
<trkpt lat="57.555487" lon="9.931357">
<ele>30.146055</ele>
<time>2026-07-16T16:13:27.000Z</time>
</trkpt>
<trkpt lat="57.555477" lon="9.931449">
<ele>30.146619</ele>
<time>2026-07-16T16:13:28.000Z</time>
</trkpt>
<trkpt lat="57.555465" lon="9.931542">
<ele>30.147194</ele>
<time>2026-07-16T16:13:29.000Z</time>
</trkpt>
<trkpt lat="57.555456" lon="9.931631">
<ele>30.147738</ele>
<time>2026-07-16T16:13:30.000Z</time>
</trkpt>
<trkpt lat="57.555446" lon="9.931725">
<ele>30.148313</ele>
<time>2026-07-16T16:13:31.000Z</time>
</trkpt>
<trkpt lat="57.555437" lon="9.931819">
<ele>30.148887</ele>
<time>2026-07-16T16:13:32.000Z</time>
</trkpt>
<trkpt lat="57.555435" lon="9.931911">
<ele>30.149440</ele>
<time>2026-07-16T16:13:33.000Z</time>
</trkpt>
<trkpt lat="57.555435" lon="9.932000">
<ele>30.149975</ele>
<time>2026-07-16T16:13:34.000Z</time>
</trkpt>
<trkpt lat="57.555430" lon="9.932094">
<ele>30.150542</ele>
<time>2026-07-16T16:13:35.000Z</time>
</trkpt>
<trkpt lat="57.555425" lon="9.932188">
<ele>30.152596</ele>
<time>2026-07-16T16:13:36.000Z</time>
</trkpt>
<trkpt lat="57.555421" lon="9.932283">
<ele>30.157773</ele>
<time>2026-07-16T16:13:37.000Z</time>
</trkpt>
<trkpt lat="57.555417" lon="9.932379">
<ele>30.163005</ele>
<time>2026-07-16T16:13:38.000Z</time>
</trkpt>
<trkpt lat="57.555413" lon="9.932472">
<ele>30.168074</ele>
<time>2026-07-16T16:13:39.000Z</time>
</trkpt>
<trkpt lat="57.555410" lon="9.932558">
<ele>30.172756</ele>
<time>2026-07-16T16:13:40.000Z</time>
</trkpt>
<trkpt lat="57.555403" lon="9.932642">
<ele>30.177375</ele>
<time>2026-07-16T16:13:41.000Z</time>
</trkpt>
<trkpt lat="57.555395" lon="9.932726">
<ele>30.182010</ele>
<time>2026-07-16T16:13:42.000Z</time>
</trkpt>
<trkpt lat="57.555390" lon="9.932809">
<ele>30.186548</ele>
<time>2026-07-16T16:13:43.000Z</time>
</trkpt>
<trkpt lat="57.555382" lon="9.932885">
<ele>30.190756</ele>
<time>2026-07-16T16:13:44.000Z</time>
</trkpt>
<trkpt lat="57.555370" lon="9.932967">
<ele>30.195374</ele>
<time>2026-07-16T16:13:45.000Z</time>
</trkpt>
<trkpt lat="57.555361" lon="9.933049">
<ele>30.199921</ele>
<time>2026-07-16T16:13:46.000Z</time>
</trkpt>
<trkpt lat="57.555356" lon="9.933128">
<ele>30.204243</ele>
<time>2026-07-16T16:13:47.000Z</time>
</trkpt>
<trkpt lat="57.555352" lon="9.933218">
<ele>30.209150</ele>
<time>2026-07-16T16:13:48.000Z</time>
</trkpt>
<trkpt lat="57.555343" lon="9.933309">
<ele>30.214178</ele>
<time>2026-07-16T16:13:49.000Z</time>
</trkpt>
<trkpt lat="57.555334" lon="9.933404">
<ele>30.219419</ele>
<time>2026-07-16T16:13:50.000Z</time>
</trkpt>
<trkpt lat="57.555327" lon="9.933501">
<ele>30.224737</ele>
<time>2026-07-16T16:13:51.000Z</time>
</trkpt>
<trkpt lat="57.555319" lon="9.933595">
<ele>30.229908</ele>
<time>2026-07-16T16:13:52.000Z</time>
</trkpt>
<trkpt lat="57.555314" lon="9.933689">
<ele>30.235040</ele>
<time>2026-07-16T16:13:53.000Z</time>
</trkpt>
<trkpt lat="57.555305" lon="9.933778">
<ele>30.239961</ele>
<time>2026-07-16T16:13:54.000Z</time>
</trkpt>
<trkpt lat="57.555296" lon="9.933871">
<ele>30.245095</ele>
<time>2026-07-16T16:13:55.000Z</time>
</trkpt>
<trkpt lat="57.555289" lon="9.933963">
<ele>30.250144</ele>
<time>2026-07-16T16:13:56.000Z</time>
</trkpt>
<trkpt lat="57.555281" lon="9.934057">
<ele>30.255315</ele>
<time>2026-07-16T16:13:57.000Z</time>
</trkpt>
<trkpt lat="57.555274" lon="9.934148">
<ele>30.260310</ele>
<time>2026-07-16T16:13:58.000Z</time>
</trkpt>
<trkpt lat="57.555266" lon="9.934238">
<ele>30.265266</ele>
<time>2026-07-16T16:13:59.000Z</time>
</trkpt>
<trkpt lat="57.555254" lon="9.934318">
<ele>30.269780</ele>
<time>2026-07-16T16:14:00.000Z</time>
</trkpt>
<trkpt lat="57.555240" lon="9.934406">
<ele>30.274767</ele>
<time>2026-07-16T16:14:01.000Z</time>
</trkpt>
<trkpt lat="57.555226" lon="9.934498">
<ele>30.279963</ele>
<time>2026-07-16T16:14:02.000Z</time>
</trkpt>
<trkpt lat="57.555216" lon="9.934589">
<ele>30.285010</ele>
<time>2026-07-16T16:14:03.000Z</time>
</trkpt>
<trkpt lat="57.555209" lon="9.934680">
<ele>30.290004</ele>
<time>2026-07-16T16:14:04.000Z</time>
</trkpt>
<trkpt lat="57.555198" lon="9.934776">
<ele>30.295338</ele>
<time>2026-07-16T16:14:05.000Z</time>
</trkpt>
<trkpt lat="57.555189" lon="9.934871">
<ele>30.300579</ele>
<time>2026-07-16T16:14:06.000Z</time>
</trkpt>
<trkpt lat="57.555185" lon="9.934965">
<ele>30.305703</ele>
<time>2026-07-16T16:14:07.000Z</time>
</trkpt>
<trkpt lat="57.555179" lon="9.935041">
<ele>30.309876</ele>
<time>2026-07-16T16:14:08.000Z</time>
</trkpt>
<trkpt lat="57.555171" lon="9.935138">
<ele>30.315209</ele>
<time>2026-07-16T16:14:09.000Z</time>
</trkpt>
<trkpt lat="57.555168" lon="9.935243">
<ele>30.320922</ele>
<time>2026-07-16T16:14:10.000Z</time>
</trkpt>
<trkpt lat="57.555166" lon="9.935334">
<ele>30.325870</ele>
<time>2026-07-16T16:14:11.000Z</time>
</trkpt>
<trkpt lat="57.555162" lon="9.935428">
<ele>30.330993</ele>
<time>2026-07-16T16:14:12.000Z</time>
</trkpt>
<trkpt lat="57.555158" lon="9.935519">
<ele>30.334786</ele>
<time>2026-07-16T16:14:13.000Z</time>
</trkpt>
<trkpt lat="57.555154" lon="9.935604">
<ele>30.337537</ele>
<time>2026-07-16T16:14:14.000Z</time>
</trkpt>
<trkpt lat="57.555148" lon="9.935701">
<ele>30.340685</ele>
<time>2026-07-16T16:14:15.000Z</time>
</trkpt>
<trkpt lat="57.555140" lon="9.935797">
<ele>30.343817</ele>
<time>2026-07-16T16:14:16.000Z</time>
</trkpt>
<trkpt lat="57.555132" lon="9.935890">
<ele>30.346853</ele>
<time>2026-07-16T16:14:17.000Z</time>
</trkpt>
<trkpt lat="57.555127" lon="9.935981">
<ele>30.349802</ele>
<time>2026-07-16T16:14:18.000Z</time>
</trkpt>
<trkpt lat="57.555124" lon="9.936067">
<ele>30.352581</ele>
<time>2026-07-16T16:14:19.000Z</time>
</trkpt>
<trkpt lat="57.555120" lon="9.936159">
<ele>30.355557</ele>
<time>2026-07-16T16:14:20.000Z</time>
</trkpt>
<trkpt lat="57.555113" lon="9.936249">
<ele>30.358488</ele>
<time>2026-07-16T16:14:21.000Z</time>
</trkpt>
<trkpt lat="57.555105" lon="9.936342">
<ele>30.361525</ele>
<time>2026-07-16T16:14:22.000Z</time>
</trkpt>
<trkpt lat="57.555098" lon="9.936434">
<ele>30.364521</ele>
<time>2026-07-16T16:14:23.000Z</time>
</trkpt>
<trkpt lat="57.555090" lon="9.936524">
<ele>30.367462</ele>
<time>2026-07-16T16:14:24.000Z</time>
</trkpt>
<trkpt lat="57.555083" lon="9.936619">
<ele>30.370553</ele>
<time>2026-07-16T16:14:25.000Z</time>
</trkpt>
<trkpt lat="57.555078" lon="9.936712">
<ele>30.373566</ele>
<time>2026-07-16T16:14:26.000Z</time>
</trkpt>
<trkpt lat="57.555072" lon="9.936797">
<ele>30.376330</ele>
<time>2026-07-16T16:14:27.000Z</time>
</trkpt>
<trkpt lat="57.555064" lon="9.936888">
<ele>30.379303</ele>
<time>2026-07-16T16:14:28.000Z</time>
</trkpt>
<trkpt lat="57.555059" lon="9.936975">
<ele>30.382124</ele>
<time>2026-07-16T16:14:29.000Z</time>
</trkpt>
<trkpt lat="57.555053" lon="9.937062">
<ele>30.384952</ele>
<time>2026-07-16T16:14:30.000Z</time>
</trkpt>
<trkpt lat="57.555047" lon="9.937149">
<ele>30.387780</ele>
<time>2026-07-16T16:14:31.000Z</time>
</trkpt>
<trkpt lat="57.555041" lon="9.937232">
<ele>30.390480</ele>
<time>2026-07-16T16:14:32.000Z</time>
</trkpt>
<trkpt lat="57.555031" lon="9.937314">
<ele>30.393191</ele>
<time>2026-07-16T16:14:33.000Z</time>
</trkpt>
<trkpt lat="57.555022" lon="9.937394">
<ele>30.395826</ele>
<time>2026-07-16T16:14:34.000Z</time>
</trkpt>
<trkpt lat="57.555017" lon="9.937468">
<ele>30.398231</ele>
<time>2026-07-16T16:14:35.000Z</time>
</trkpt>
<trkpt lat="57.555016" lon="9.937535">
<ele>30.400391</ele>
<time>2026-07-16T16:14:36.000Z</time>
</trkpt>
<trkpt lat="57.555018" lon="9.937599">
<ele>30.402458</ele>
<time>2026-07-16T16:14:37.000Z</time>
</trkpt>
<trkpt lat="57.555017" lon="9.937664">
<ele>30.404555</ele>
<time>2026-07-16T16:14:38.000Z</time>
</trkpt>
<trkpt lat="57.555013" lon="9.937724">
<ele>30.406504</ele>
<time>2026-07-16T16:14:39.000Z</time>
</trkpt>
<trkpt lat="57.555009" lon="9.937791">
<ele>30.408677</ele>
<time>2026-07-16T16:14:40.000Z</time>
</trkpt>
<trkpt lat="57.555008" lon="9.937857">
<ele>30.410806</ele>
<time>2026-07-16T16:14:41.000Z</time>
</trkpt>
<trkpt lat="57.555008" lon="9.937925">
<ele>30.412998</ele>
<time>2026-07-16T16:14:42.000Z</time>
</trkpt>
<trkpt lat="57.555006" lon="9.937985">
<ele>30.414936</ele>
<time>2026-07-16T16:14:43.000Z</time>
</trkpt>
<trkpt lat="57.555002" lon="9.938048">
<ele>30.416981</ele>
<time>2026-07-16T16:14:44.000Z</time>
</trkpt>
<trkpt lat="57.554995" lon="9.938110">
<ele>30.419024</ele>
<time>2026-07-16T16:14:45.000Z</time>
</trkpt>
<trkpt lat="57.554987" lon="9.938171">
<ele>30.421048</ele>
<time>2026-07-16T16:14:46.000Z</time>
</trkpt>
<trkpt lat="57.554978" lon="9.938226">
<ele>30.422902</ele>
<time>2026-07-16T16:14:47.000Z</time>
</trkpt>
<trkpt lat="57.554968" lon="9.938285">
<ele>30.424897</ele>
<time>2026-07-16T16:14:48.000Z</time>
</trkpt>
<trkpt lat="57.554963" lon="9.938340">
<ele>30.426695</ele>
<time>2026-07-16T16:14:49.000Z</time>
</trkpt>
<trkpt lat="57.554957" lon="9.938388">
<ele>30.428284</ele>
<time>2026-07-16T16:14:50.000Z</time>
</trkpt>
<trkpt lat="57.554952" lon="9.938424">
<ele>30.429483</ele>
<time>2026-07-16T16:14:51.000Z</time>
</trkpt>
<trkpt lat="57.554948" lon="9.938451">
<ele>30.430386</ele>
<time>2026-07-16T16:14:52.000Z</time>
</trkpt>
<trkpt lat="57.554947" lon="9.938471">
<ele>30.431034</ele>
<time>2026-07-16T16:14:53.000Z</time>
</trkpt>
<trkpt lat="57.554943" lon="9.938495">
<ele>30.431844</ele>
<time>2026-07-16T16:15:10.000Z</time>
</trkpt>
<trkpt lat="57.554946" lon="9.938529">
<ele>30.432955</ele>
<time>2026-07-16T16:15:11.000Z</time>
</trkpt>
<trkpt lat="57.554952" lon="9.938572">
<ele>30.434387</ele>
<time>2026-07-16T16:15:12.000Z</time>
</trkpt>
<trkpt lat="57.554965" lon="9.938610">
<ele>30.435840</ele>
<time>2026-07-16T16:15:13.000Z</time>
</trkpt>
<trkpt lat="57.554988" lon="9.938645">
<ele>30.437625</ele>
<time>2026-07-16T16:15:14.000Z</time>
</trkpt>
<trkpt lat="57.555015" lon="9.938672">
<ele>30.439466</ele>
<time>2026-07-16T16:15:15.000Z</time>
</trkpt>
<trkpt lat="57.555050" lon="9.938692">
<ele>30.436379</ele>
<time>2026-07-16T16:15:16.000Z</time>
</trkpt>
<trkpt lat="57.555087" lon="9.938707">
<ele>30.414537</ele>
<time>2026-07-16T16:15:17.000Z</time>
</trkpt>
<trkpt lat="57.555125" lon="9.938718">
<ele>30.392354</ele>
<time>2026-07-16T16:15:18.000Z</time>
</trkpt>
<trkpt lat="57.555170" lon="9.938728">
<ele>30.366212</ele>
<time>2026-07-16T16:15:19.000Z</time>
</trkpt>
<trkpt lat="57.555213" lon="9.938739">
<ele>30.341175</ele>
<time>2026-07-16T16:15:20.000Z</time>
</trkpt>
<trkpt lat="57.555256" lon="9.938747">
<ele>30.316247</ele>
<time>2026-07-16T16:15:21.000Z</time>
</trkpt>
<trkpt lat="57.555299" lon="9.938757">
<ele>30.291250</ele>
<time>2026-07-16T16:15:22.000Z</time>
</trkpt>
<trkpt lat="57.555344" lon="9.938768">
<ele>30.265070</ele>
<time>2026-07-16T16:15:23.000Z</time>
</trkpt>
<trkpt lat="57.555388" lon="9.938778">
<ele>30.239500</ele>
<time>2026-07-16T16:15:24.000Z</time>
</trkpt>
<trkpt lat="57.555428" lon="9.938787">
<ele>30.216259</ele>
<time>2026-07-16T16:15:25.000Z</time>
</trkpt>
<trkpt lat="57.555472" lon="9.938798">
<ele>30.190650</ele>
<time>2026-07-16T16:15:26.000Z</time>
</trkpt>
<trkpt lat="57.555514" lon="9.938811">
<ele>30.166091</ele>
<time>2026-07-16T16:15:27.000Z</time>
</trkpt>
<trkpt lat="57.555564" lon="9.938830">
<ele>30.136655</ele>
<time>2026-07-16T16:15:28.000Z</time>
</trkpt>
<trkpt lat="57.555614" lon="9.938854">
<ele>30.106872</ele>
<time>2026-07-16T16:15:29.000Z</time>
</trkpt>
<trkpt lat="57.555665" lon="9.938880">
<ele>30.076372</ele>
<time>2026-07-16T16:15:30.000Z</time>
</trkpt>
<trkpt lat="57.555717" lon="9.938903">
<ele>30.045543</ele>
<time>2026-07-16T16:15:31.000Z</time>
</trkpt>
<trkpt lat="57.555768" lon="9.938918">
<ele>30.015760</ele>
<time>2026-07-16T16:15:32.000Z</time>
</trkpt>
<trkpt lat="57.555817" lon="9.938923">
<ele>29.987452</ele>
<time>2026-07-16T16:15:33.000Z</time>
</trkpt>
<trkpt lat="57.555870" lon="9.938921">
<ele>29.956872</ele>
<time>2026-07-16T16:15:34.000Z</time>
</trkpt>
<trkpt lat="57.555922" lon="9.938914">
<ele>29.926798</ele>
<time>2026-07-16T16:15:35.000Z</time>
</trkpt>
<trkpt lat="57.555975" lon="9.938909">
<ele>29.896186</ele>
<time>2026-07-16T16:15:36.000Z</time>
</trkpt>
<trkpt lat="57.556026" lon="9.938911">
<ele>29.866760</ele>
<time>2026-07-16T16:15:37.000Z</time>
</trkpt>
<trkpt lat="57.556078" lon="9.938918">
<ele>29.836686</ele>
<time>2026-07-16T16:15:38.000Z</time>
</trkpt>
<trkpt lat="57.556129" lon="9.938929">
<ele>29.807070</ele>
<time>2026-07-16T16:15:39.000Z</time>
</trkpt>
<trkpt lat="57.556177" lon="9.938942">
<ele>29.779091</ele>
<time>2026-07-16T16:15:40.000Z</time>
</trkpt>
<trkpt lat="57.556225" lon="9.938953">
<ele>29.751194</ele>
<time>2026-07-16T16:15:41.000Z</time>
</trkpt>
<trkpt lat="57.556270" lon="9.938965">
<ele>29.724971</ele>
<time>2026-07-16T16:15:42.000Z</time>
</trkpt>
<trkpt lat="57.556313" lon="9.938978">
<ele>29.699842</ele>
<time>2026-07-16T16:15:43.000Z</time>
</trkpt>
<trkpt lat="57.556363" lon="9.938990">
<ele>29.670762</ele>
<time>2026-07-16T16:15:44.000Z</time>
</trkpt>
<trkpt lat="57.556412" lon="9.939001">
<ele>29.642292</ele>
<time>2026-07-16T16:15:45.000Z</time>
</trkpt>
<trkpt lat="57.556464" lon="9.939012">
<ele>29.612103</ele>
<time>2026-07-16T16:15:46.000Z</time>
</trkpt>
<trkpt lat="57.556514" lon="9.939021">
<ele>29.583127</ele>
<time>2026-07-16T16:15:47.000Z</time>
</trkpt>
<trkpt lat="57.556563" lon="9.939029">
<ele>29.554753</ele>
<time>2026-07-16T16:15:48.000Z</time>
</trkpt>
<trkpt lat="57.556613" lon="9.939039">
<ele>29.525745</ele>
<time>2026-07-16T16:15:49.000Z</time>
</trkpt>
<trkpt lat="57.556664" lon="9.939050">
<ele>29.496129</ele>
<time>2026-07-16T16:15:50.000Z</time>
</trkpt>
<trkpt lat="57.556716" lon="9.939063">
<ele>29.465865</ele>
<time>2026-07-16T16:15:51.000Z</time>
</trkpt>
<trkpt lat="57.556769" lon="9.939073">
<ele>29.435135</ele>
<time>2026-07-16T16:15:52.000Z</time>
</trkpt>
<trkpt lat="57.556815" lon="9.939081">
<ele>29.408485</ele>
<time>2026-07-16T16:15:53.000Z</time>
</trkpt>
<trkpt lat="57.556868" lon="9.939090">
<ele>29.393591</ele>
<time>2026-07-16T16:15:54.000Z</time>
</trkpt>
<trkpt lat="57.556925" lon="9.939098">
<ele>29.380790</ele>
<time>2026-07-16T16:15:55.000Z</time>
</trkpt>
<trkpt lat="57.556979" lon="9.939107">
<ele>29.368648</ele>
<time>2026-07-16T16:15:56.000Z</time>
</trkpt>
<trkpt lat="57.557034" lon="9.939121">
<ele>29.356217</ele>
<time>2026-07-16T16:15:57.000Z</time>
</trkpt>
<trkpt lat="57.557085" lon="9.939131">
<ele>29.344733</ele>
<time>2026-07-16T16:15:58.000Z</time>
</trkpt>
<trkpt lat="57.557139" lon="9.939137">
<ele>29.332618</ele>
<time>2026-07-16T16:15:59.000Z</time>
</trkpt>
<trkpt lat="57.557192" lon="9.939142">
<ele>29.320734</ele>
<time>2026-07-16T16:16:00.000Z</time>
</trkpt>
<trkpt lat="57.557246" lon="9.939146">
<ele>29.308631</ele>
<time>2026-07-16T16:16:01.000Z</time>
</trkpt>
<trkpt lat="57.557300" lon="9.939151">
<ele>29.296523</ele>
<time>2026-07-16T16:16:02.000Z</time>
</trkpt>
<trkpt lat="57.557350" lon="9.939158">
<ele>29.285294</ele>
<time>2026-07-16T16:16:03.000Z</time>
</trkpt>
<trkpt lat="57.557405" lon="9.939168">
<ele>29.272918</ele>
<time>2026-07-16T16:16:04.000Z</time>
</trkpt>
<trkpt lat="57.557463" lon="9.939178">
<ele>29.259874</ele>
<time>2026-07-16T16:16:05.000Z</time>
</trkpt>
<trkpt lat="57.557520" lon="9.939186">
<ele>29.247073</ele>
<time>2026-07-16T16:16:06.000Z</time>
</trkpt>
<trkpt lat="57.557577" lon="9.939192">
<ele>29.234288</ele>
<time>2026-07-16T16:16:07.000Z</time>
</trkpt>
<trkpt lat="57.557630" lon="9.939197">
<ele>29.222403</ele>
<time>2026-07-16T16:16:08.000Z</time>
</trkpt>
<trkpt lat="57.557687" lon="9.939200">
<ele>29.209633</ele>
<time>2026-07-16T16:16:09.000Z</time>
</trkpt>
<trkpt lat="57.557746" lon="9.939201">
<ele>29.196420</ele>
<time>2026-07-16T16:16:10.000Z</time>
</trkpt>
<trkpt lat="57.557802" lon="9.939204">
<ele>29.183873</ele>
<time>2026-07-16T16:16:11.000Z</time>
</trkpt>
<trkpt lat="57.557859" lon="9.939207">
<ele>29.171103</ele>
<time>2026-07-16T16:16:12.000Z</time>
</trkpt>
<trkpt lat="57.557915" lon="9.939207">
<ele>29.158562</ele>
<time>2026-07-16T16:16:13.000Z</time>
</trkpt>
<trkpt lat="57.557973" lon="9.939208">
<ele>29.145573</ele>
<time>2026-07-16T16:16:14.000Z</time>
</trkpt>
<trkpt lat="57.558033" lon="9.939209">
<ele>29.132135</ele>
<time>2026-07-16T16:16:15.000Z</time>
</trkpt>
<trkpt lat="57.558094" lon="9.939211">
<ele>29.118472</ele>
<time>2026-07-16T16:16:16.000Z</time>
</trkpt>
<trkpt lat="57.558155" lon="9.939213">
<ele>29.104810</ele>
<time>2026-07-16T16:16:17.000Z</time>
</trkpt>
<trkpt lat="57.558216" lon="9.939214">
<ele>29.091148</ele>
<time>2026-07-16T16:16:18.000Z</time>
</trkpt>
<trkpt lat="57.558275" lon="9.939214">
<ele>29.077935</ele>
<time>2026-07-16T16:16:19.000Z</time>
</trkpt>
<trkpt lat="57.558334" lon="9.939216">
<ele>29.064720</ele>
<time>2026-07-16T16:16:20.000Z</time>
</trkpt>
<trkpt lat="57.558398" lon="9.939219">
<ele>29.050383</ele>
<time>2026-07-16T16:16:21.000Z</time>
</trkpt>
<trkpt lat="57.558461" lon="9.939220">
<ele>29.036274</ele>
<time>2026-07-16T16:16:22.000Z</time>
</trkpt>
<trkpt lat="57.558521" lon="9.939219">
<ele>29.022836</ele>
<time>2026-07-16T16:16:23.000Z</time>
</trkpt>
<trkpt lat="57.558583" lon="9.939219">
<ele>29.008952</ele>
<time>2026-07-16T16:16:24.000Z</time>
</trkpt>
<trkpt lat="57.558648" lon="9.939220">
<ele>29.017269</ele>
<time>2026-07-16T16:16:25.000Z</time>
</trkpt>
<trkpt lat="57.558712" lon="9.939220">
<ele>29.053966</ele>
<time>2026-07-16T16:16:26.000Z</time>
</trkpt>
<trkpt lat="57.558776" lon="9.939220">
<ele>29.090663</ele>
<time>2026-07-16T16:16:27.000Z</time>
</trkpt>
<trkpt lat="57.558838" lon="9.939221">
<ele>29.126215</ele>
<time>2026-07-16T16:16:28.000Z</time>
</trkpt>
<trkpt lat="57.558902" lon="9.939224">
<ele>29.162924</ele>
<time>2026-07-16T16:16:29.000Z</time>
</trkpt>
<trkpt lat="57.558967" lon="9.939227">
<ele>29.200205</ele>
<time>2026-07-16T16:16:30.000Z</time>
</trkpt>
<trkpt lat="57.559033" lon="9.939231">
<ele>29.238069</ele>
<time>2026-07-16T16:16:31.000Z</time>
</trkpt>
<trkpt lat="57.559097" lon="9.939235">
<ele>29.274787</ele>
<time>2026-07-16T16:16:32.000Z</time>
</trkpt>
<trkpt lat="57.559159" lon="9.939240">
<ele>29.310370</ele>
<time>2026-07-16T16:16:33.000Z</time>
</trkpt>
<trkpt lat="57.559221" lon="9.939243">
<ele>29.345932</ele>
<time>2026-07-16T16:16:34.000Z</time>
</trkpt>
<trkpt lat="57.559284" lon="9.939242">
<ele>29.382057</ele>
<time>2026-07-16T16:16:35.000Z</time>
</trkpt>
<trkpt lat="57.559343" lon="9.939243">
<ele>29.415889</ele>
<time>2026-07-16T16:16:36.000Z</time>
</trkpt>
<trkpt lat="57.559403" lon="9.939245">
<ele>29.450298</ele>
<time>2026-07-16T16:16:37.000Z</time>
</trkpt>
<trkpt lat="57.559462" lon="9.939249">
<ele>29.484150</ele>
<time>2026-07-16T16:16:38.000Z</time>
</trkpt>
<trkpt lat="57.559521" lon="9.939253">
<ele>29.518002</ele>
<time>2026-07-16T16:16:39.000Z</time>
</trkpt>
<trkpt lat="57.559577" lon="9.939256">
<ele>29.550126</ele>
<time>2026-07-16T16:16:40.000Z</time>
</trkpt>
<trkpt lat="57.559639" lon="9.939257">
<ele>29.585677</ele>
<time>2026-07-16T16:16:41.000Z</time>
</trkpt>
<trkpt lat="57.559697" lon="9.939259">
<ele>29.618939</ele>
<time>2026-07-16T16:16:42.000Z</time>
</trkpt>
<trkpt lat="57.559754" lon="9.939261">
<ele>29.651629</ele>
<time>2026-07-16T16:16:43.000Z</time>
</trkpt>
<trkpt lat="57.559812" lon="9.939263">
<ele>29.684891</ele>
<time>2026-07-16T16:16:44.000Z</time>
</trkpt>
<trkpt lat="57.559871" lon="9.939262">
<ele>29.718722</ele>
<time>2026-07-16T16:16:45.000Z</time>
</trkpt>
<trkpt lat="57.559926" lon="9.939260">
<ele>29.750265</ele>
<time>2026-07-16T16:16:46.000Z</time>
</trkpt>
<trkpt lat="57.559984" lon="9.939261">
<ele>29.783523</ele>
<time>2026-07-16T16:16:47.000Z</time>
</trkpt>
<trkpt lat="57.560041" lon="9.939263">
<ele>29.816212</ele>
<time>2026-07-16T16:16:48.000Z</time>
</trkpt>
<trkpt lat="57.560099" lon="9.939267">
<ele>29.849491</ele>
<time>2026-07-16T16:16:49.000Z</time>
</trkpt>
<trkpt lat="57.560155" lon="9.939271">
<ele>29.881625</ele>
<time>2026-07-16T16:16:50.000Z</time>
</trkpt>
<trkpt lat="57.560209" lon="9.939274">
<ele>29.912602</ele>
<time>2026-07-16T16:16:51.000Z</time>
</trkpt>
<trkpt lat="57.560266" lon="9.939277">
<ele>29.945298</ele>
<time>2026-07-16T16:16:52.000Z</time>
</trkpt>
<trkpt lat="57.560325" lon="9.939279">
<ele>29.979133</ele>
<time>2026-07-16T16:16:53.000Z</time>
</trkpt>
<trkpt lat="57.560377" lon="9.939279">
<ele>30.008950</ele>
<time>2026-07-16T16:16:54.000Z</time>
</trkpt>
<trkpt lat="57.560431" lon="9.939279">
<ele>30.041747</ele>
<time>2026-07-16T16:16:55.000Z</time>
</trkpt>
<trkpt lat="57.560489" lon="9.939282">
<ele>30.082872</ele>
<time>2026-07-16T16:16:56.000Z</time>
</trkpt>
<trkpt lat="57.560546" lon="9.939285">
<ele>30.123289</ele>
<time>2026-07-16T16:16:57.000Z</time>
</trkpt>
<trkpt lat="57.560600" lon="9.939289">
<ele>30.161593</ele>
<time>2026-07-16T16:16:58.000Z</time>
</trkpt>
<trkpt lat="57.560655" lon="9.939293">
<ele>30.200606</ele>
<time>2026-07-16T16:16:59.000Z</time>
</trkpt>
<trkpt lat="57.560712" lon="9.939298">
<ele>30.241051</ele>
<time>2026-07-16T16:17:00.000Z</time>
</trkpt>
<trkpt lat="57.560767" lon="9.939304">
<ele>30.280101</ele>
<time>2026-07-16T16:17:01.000Z</time>
</trkpt>
<trkpt lat="57.560820" lon="9.939307">
<ele>30.317684</ele>
<time>2026-07-16T16:17:02.000Z</time>
</trkpt>
<trkpt lat="57.560873" lon="9.939309">
<ele>30.355257</ele>
<time>2026-07-16T16:17:03.000Z</time>
</trkpt>
<trkpt lat="57.560928" lon="9.939311">
<ele>30.394247</ele>
<time>2026-07-16T16:17:04.000Z</time>
</trkpt>
<trkpt lat="57.560985" lon="9.939315">
<ele>30.434676</ele>
<time>2026-07-16T16:17:05.000Z</time>
</trkpt>
<trkpt lat="57.561039" lon="9.939322">
<ele>30.473043</ele>
<time>2026-07-16T16:17:06.000Z</time>
</trkpt>
<trkpt lat="57.561093" lon="9.939327">
<ele>30.511364</ele>
<time>2026-07-16T16:17:07.000Z</time>
</trkpt>
<trkpt lat="57.561143" lon="9.939332">
<ele>30.546854</ele>
<time>2026-07-16T16:17:08.000Z</time>
</trkpt>
<trkpt lat="57.561196" lon="9.939338">
<ele>30.584489</ele>
<time>2026-07-16T16:17:09.000Z</time>
</trkpt>
<trkpt lat="57.561245" lon="9.939344">
<ele>30.619294</ele>
<time>2026-07-16T16:17:10.000Z</time>
</trkpt>
<trkpt lat="57.561298" lon="9.939351">
<ele>30.656954</ele>
<time>2026-07-16T16:17:11.000Z</time>
</trkpt>
<trkpt lat="57.561348" lon="9.939359">
<ele>30.692523</ele>
<time>2026-07-16T16:17:12.000Z</time>
</trkpt>
<trkpt lat="57.561401" lon="9.939370">
<ele>30.730320</ele>
<time>2026-07-16T16:17:13.000Z</time>
</trkpt>
<trkpt lat="57.561452" lon="9.939382">
<ele>30.766755</ele>
<time>2026-07-16T16:17:14.000Z</time>
</trkpt>
<trkpt lat="57.561502" lon="9.939394">
<ele>30.802487</ele>
<time>2026-07-16T16:17:15.000Z</time>
</trkpt>
<trkpt lat="57.561552" lon="9.939408">
<ele>30.838323</ele>
<time>2026-07-16T16:17:16.000Z</time>
</trkpt>
<trkpt lat="57.561600" lon="9.939422">
<ele>30.872759</ele>
<time>2026-07-16T16:17:17.000Z</time>
</trkpt>
<trkpt lat="57.561649" lon="9.939438">
<ele>30.908017</ele>
<time>2026-07-16T16:17:18.000Z</time>
</trkpt>
<trkpt lat="57.561705" lon="9.939458">
<ele>30.948431</ele>
<time>2026-07-16T16:17:19.000Z</time>
</trkpt>
<trkpt lat="57.561761" lon="9.939480">
<ele>30.988994</ele>
<time>2026-07-16T16:17:20.000Z</time>
</trkpt>
<trkpt lat="57.561817" lon="9.939504">
<ele>31.029721</ele>
<time>2026-07-16T16:17:21.000Z</time>
</trkpt>
<trkpt lat="57.561870" lon="9.939527">
<ele>31.068291</ele>
<time>2026-07-16T16:17:22.000Z</time>
</trkpt>
<trkpt lat="57.561920" lon="9.939553">
<ele>31.105083</ele>
<time>2026-07-16T16:17:23.000Z</time>
</trkpt>
<trkpt lat="57.561971" lon="9.939581">
<ele>31.142766</ele>
<time>2026-07-16T16:17:24.000Z</time>
</trkpt>
<trkpt lat="57.562024" lon="9.939605">
<ele>31.181423</ele>
<time>2026-07-16T16:17:25.000Z</time>
</trkpt>
<trkpt lat="57.562077" lon="9.939629">
<ele>31.220081</ele>
<time>2026-07-16T16:17:26.000Z</time>
</trkpt>
<trkpt lat="57.562128" lon="9.939650">
<ele>31.257100</ele>
<time>2026-07-16T16:17:27.000Z</time>
</trkpt>
<trkpt lat="57.562179" lon="9.939675">
<ele>31.294476</ele>
<time>2026-07-16T16:17:28.000Z</time>
</trkpt>
<trkpt lat="57.562233" lon="9.939702">
<ele>31.320409</ele>
<time>2026-07-16T16:17:29.000Z</time>
</trkpt>
<trkpt lat="57.562287" lon="9.939730">
<ele>31.340071</ele>
<time>2026-07-16T16:17:30.000Z</time>
</trkpt>
<trkpt lat="57.562343" lon="9.939759">
<ele>31.360460</ele>
<time>2026-07-16T16:17:31.000Z</time>
</trkpt>
<trkpt lat="57.562397" lon="9.939787">
<ele>31.380122</ele>
<time>2026-07-16T16:17:32.000Z</time>
</trkpt>
<trkpt lat="57.562452" lon="9.939814">
<ele>31.400074</ele>
<time>2026-07-16T16:17:33.000Z</time>
</trkpt>
<trkpt lat="57.562509" lon="9.939840">
<ele>31.420659</ele>
<time>2026-07-16T16:17:34.000Z</time>
</trkpt>
<trkpt lat="57.562563" lon="9.939866">
<ele>31.440224</ele>
<time>2026-07-16T16:17:35.000Z</time>
</trkpt>
<trkpt lat="57.562621" lon="9.939893">
<ele>31.461195</ele>
<time>2026-07-16T16:17:36.000Z</time>
</trkpt>
<trkpt lat="57.562678" lon="9.939920">
<ele>31.481826</ele>
<time>2026-07-16T16:17:37.000Z</time>
</trkpt>
<trkpt lat="57.562734" lon="9.939944">
<ele>31.501984</ele>
<time>2026-07-16T16:17:38.000Z</time>
</trkpt>
<trkpt lat="57.562786" lon="9.939967">
<ele>31.520732</ele>
<time>2026-07-16T16:17:39.000Z</time>
</trkpt>
<trkpt lat="57.562847" lon="9.939992">
<ele>31.542641</ele>
<time>2026-07-16T16:17:40.000Z</time>
</trkpt>
<trkpt lat="57.562901" lon="9.940021">
<ele>31.562355</ele>
<time>2026-07-16T16:17:41.000Z</time>
</trkpt>
<trkpt lat="57.562959" lon="9.940052">
<ele>31.583521</ele>
<time>2026-07-16T16:17:42.000Z</time>
</trkpt>
<trkpt lat="57.563012" lon="9.940081">
<ele>31.602898</ele>
<time>2026-07-16T16:17:43.000Z</time>
</trkpt>
<trkpt lat="57.563065" lon="9.940108">
<ele>31.622172</ele>
<time>2026-07-16T16:17:44.000Z</time>
</trkpt>
<trkpt lat="57.563119" lon="9.940133">
<ele>31.641690</ele>
<time>2026-07-16T16:17:45.000Z</time>
</trkpt>
<trkpt lat="57.563172" lon="9.940156">
<ele>31.660780</ele>
<time>2026-07-16T16:17:46.000Z</time>
</trkpt>
<trkpt lat="57.563225" lon="9.940181">
<ele>31.679958</ele>
<time>2026-07-16T16:17:47.000Z</time>
</trkpt>
<trkpt lat="57.563278" lon="9.940209">
<ele>31.699283</ele>
<time>2026-07-16T16:17:48.000Z</time>
</trkpt>
<trkpt lat="57.563332" lon="9.940237">
<ele>31.718945</ele>
<time>2026-07-16T16:17:49.000Z</time>
</trkpt>
<trkpt lat="57.563386" lon="9.940262">
<ele>31.738463</ele>
<time>2026-07-16T16:17:50.000Z</time>
</trkpt>
<trkpt lat="57.563439" lon="9.940285">
<ele>31.757553</ele>
<time>2026-07-16T16:17:51.000Z</time>
</trkpt>
<trkpt lat="57.563492" lon="9.940309">
<ele>31.776686</ele>
<time>2026-07-16T16:17:52.000Z</time>
</trkpt>
<trkpt lat="57.563545" lon="9.940333">
<ele>31.795819</ele>
<time>2026-07-16T16:17:53.000Z</time>
</trkpt>
<trkpt lat="57.563601" lon="9.940357">
<ele>31.815976</ele>
<time>2026-07-16T16:17:54.000Z</time>
</trkpt>
<trkpt lat="57.563656" lon="9.940383">
<ele>31.835881</ele>
<time>2026-07-16T16:17:55.000Z</time>
</trkpt>
<trkpt lat="57.563712" lon="9.940407">
<ele>31.856038</ele>
<time>2026-07-16T16:17:56.000Z</time>
</trkpt>
<trkpt lat="57.563767" lon="9.940433">
<ele>31.875943</ele>
<time>2026-07-16T16:17:57.000Z</time>
</trkpt>
<trkpt lat="57.563816" lon="9.940460">
<ele>31.893867</ele>
<time>2026-07-16T16:17:58.000Z</time>
</trkpt>
<trkpt lat="57.563871" lon="9.940492">
<ele>31.914079</ele>
<time>2026-07-16T16:17:59.000Z</time>
</trkpt>
<trkpt lat="57.563929" lon="9.940524">
<ele>31.935297</ele>
<time>2026-07-16T16:18:00.000Z</time>
</trkpt>
<trkpt lat="57.563986" lon="9.940553">
<ele>31.937385</ele>
<time>2026-07-16T16:18:01.000Z</time>
</trkpt>
<trkpt lat="57.564041" lon="9.940578">
<ele>31.936757</ele>
<time>2026-07-16T16:18:02.000Z</time>
</trkpt>
<trkpt lat="57.564098" lon="9.940603">
<ele>31.936108</ele>
<time>2026-07-16T16:18:03.000Z</time>
</trkpt>
<trkpt lat="57.564154" lon="9.940630">
<ele>31.935467</ele>
<time>2026-07-16T16:18:04.000Z</time>
</trkpt>
<trkpt lat="57.564212" lon="9.940661">
<ele>31.934798</ele>
<time>2026-07-16T16:18:05.000Z</time>
</trkpt>
<trkpt lat="57.564266" lon="9.940693">
<ele>31.934170</ele>
<time>2026-07-16T16:18:06.000Z</time>
</trkpt>
<trkpt lat="57.564322" lon="9.940723">
<ele>31.933524</ele>
<time>2026-07-16T16:18:07.000Z</time>
</trkpt>
<trkpt lat="57.564380" lon="9.940753">
<ele>31.932857</ele>
<time>2026-07-16T16:18:08.000Z</time>
</trkpt>
<trkpt lat="57.564435" lon="9.940784">
<ele>31.932220</ele>
<time>2026-07-16T16:18:09.000Z</time>
</trkpt>
<trkpt lat="57.564493" lon="9.940817">
<ele>31.931548</ele>
<time>2026-07-16T16:18:10.000Z</time>
</trkpt>
<trkpt lat="57.564552" lon="9.940849">
<ele>31.930867</ele>
<time>2026-07-16T16:18:11.000Z</time>
</trkpt>
<trkpt lat="57.564609" lon="9.940877">
<ele>31.930213</ele>
<time>2026-07-16T16:18:12.000Z</time>
</trkpt>
<trkpt lat="57.564666" lon="9.940905">
<ele>31.929560</ele>
<time>2026-07-16T16:18:13.000Z</time>
</trkpt>
<trkpt lat="57.564723" lon="9.940932">
<ele>31.928908</ele>
<time>2026-07-16T16:18:14.000Z</time>
</trkpt>
<trkpt lat="57.564783" lon="9.940962">
<ele>31.928219</ele>
<time>2026-07-16T16:18:15.000Z</time>
</trkpt>
<trkpt lat="57.564842" lon="9.940990">
<ele>31.927544</ele>
<time>2026-07-16T16:18:16.000Z</time>
</trkpt>
<trkpt lat="57.564898" lon="9.941017">
<ele>31.926903</ele>
<time>2026-07-16T16:18:17.000Z</time>
</trkpt>
<trkpt lat="57.564955" lon="9.941046">
<ele>31.926248</ele>
<time>2026-07-16T16:18:18.000Z</time>
</trkpt>
<trkpt lat="57.565014" lon="9.941076">
<ele>31.925570</ele>
<time>2026-07-16T16:18:19.000Z</time>
</trkpt>
<trkpt lat="57.565071" lon="9.941105">
<ele>31.924915</ele>
<time>2026-07-16T16:18:20.000Z</time>
</trkpt>
<trkpt lat="57.565130" lon="9.941136">
<ele>31.924236</ele>
<time>2026-07-16T16:18:21.000Z</time>
</trkpt>
<trkpt lat="57.565190" lon="9.941166">
<ele>31.923547</ele>
<time>2026-07-16T16:18:22.000Z</time>
</trkpt>
<trkpt lat="57.565241" lon="9.941190">
<ele>31.922964</ele>
<time>2026-07-16T16:18:23.000Z</time>
</trkpt>
<trkpt lat="57.565304" lon="9.941219">
<ele>31.922245</ele>
<time>2026-07-16T16:18:24.000Z</time>
</trkpt>
<trkpt lat="57.565364" lon="9.941246">
<ele>31.921560</ele>
<time>2026-07-16T16:18:25.000Z</time>
</trkpt>
<trkpt lat="57.565424" lon="9.941275">
<ele>31.920873</ele>
<time>2026-07-16T16:18:26.000Z</time>
</trkpt>
<trkpt lat="57.565483" lon="9.941305">
<ele>31.920195</ele>
<time>2026-07-16T16:18:27.000Z</time>
</trkpt>
<trkpt lat="57.565540" lon="9.941335">
<ele>31.919539</ele>
<time>2026-07-16T16:18:28.000Z</time>
</trkpt>
<trkpt lat="57.565600" lon="9.941366">
<ele>31.918849</ele>
<time>2026-07-16T16:18:29.000Z</time>
</trkpt>
<trkpt lat="57.565656" lon="9.941396">
<ele>31.918203</ele>
<time>2026-07-16T16:18:30.000Z</time>
</trkpt>
<trkpt lat="57.565717" lon="9.941425">
<ele>31.906027</ele>
<time>2026-07-16T16:18:31.000Z</time>
</trkpt>
<trkpt lat="57.565776" lon="9.941452">
<ele>31.890265</ele>
<time>2026-07-16T16:18:32.000Z</time>
</trkpt>
<trkpt lat="57.565828" lon="9.941478">
<ele>31.876297</ele>
<time>2026-07-16T16:18:33.000Z</time>
</trkpt>
<trkpt lat="57.565887" lon="9.941507">
<ele>31.860467</ele>
<time>2026-07-16T16:18:34.000Z</time>
</trkpt>
<trkpt lat="57.565943" lon="9.941536">
<ele>31.845387</ele>
<time>2026-07-16T16:18:35.000Z</time>
</trkpt>
<trkpt lat="57.565998" lon="9.941563">
<ele>31.830631</ele>
<time>2026-07-16T16:18:36.000Z</time>
</trkpt>
<trkpt lat="57.566052" lon="9.941592">
<ele>31.816052</ele>
<time>2026-07-16T16:18:37.000Z</time>
</trkpt>
<trkpt lat="57.566104" lon="9.941620">
<ele>31.802009</ele>
<time>2026-07-16T16:18:38.000Z</time>
</trkpt>
<trkpt lat="57.566160" lon="9.941649">
<ele>31.786930</ele>
<time>2026-07-16T16:18:39.000Z</time>
</trkpt>
<trkpt lat="57.566216" lon="9.941675">
<ele>31.771957</ele>
<time>2026-07-16T16:18:40.000Z</time>
</trkpt>
<trkpt lat="57.566271" lon="9.941699">
<ele>31.757301</ele>
<time>2026-07-16T16:18:41.000Z</time>
</trkpt>
<trkpt lat="57.566328" lon="9.941725">
<ele>31.742077</ele>
<time>2026-07-16T16:18:42.000Z</time>
</trkpt>
<trkpt lat="57.566386" lon="9.941752">
<ele>31.726567</ele>
<time>2026-07-16T16:18:43.000Z</time>
</trkpt>
<trkpt lat="57.566444" lon="9.941779">
<ele>31.711057</ele>
<time>2026-07-16T16:18:44.000Z</time>
</trkpt>
<trkpt lat="57.566501" lon="9.941806">
<ele>31.695798</ele>
<time>2026-07-16T16:18:45.000Z</time>
</trkpt>
<trkpt lat="57.566561" lon="9.941833">
<ele>31.679784</ele>
<time>2026-07-16T16:18:46.000Z</time>
</trkpt>
<trkpt lat="57.566619" lon="9.941858">
<ele>31.664339</ele>
<time>2026-07-16T16:18:47.000Z</time>
</trkpt>
<trkpt lat="57.566679" lon="9.941883">
<ele>31.648388</ele>
<time>2026-07-16T16:18:48.000Z</time>
</trkpt>
<trkpt lat="57.566737" lon="9.941909">
<ele>31.632911</ele>
<time>2026-07-16T16:18:49.000Z</time>
</trkpt>
<trkpt lat="57.566797" lon="9.941934">
<ele>31.616960</ele>
<time>2026-07-16T16:18:50.000Z</time>
</trkpt>
<trkpt lat="57.566858" lon="9.941958">
<ele>31.600785</ele>
<time>2026-07-16T16:18:51.000Z</time>
</trkpt>
<trkpt lat="57.566918" lon="9.941979">
<ele>31.584947</ele>
<time>2026-07-16T16:18:52.000Z</time>
</trkpt>
<trkpt lat="57.566976" lon="9.941999">
<ele>31.569643</ele>
<time>2026-07-16T16:18:53.000Z</time>
</trkpt>
<trkpt lat="57.567039" lon="9.942019">
<ele>31.553063</ele>
<time>2026-07-16T16:18:54.000Z</time>
</trkpt>
<trkpt lat="57.567102" lon="9.942040">
<ele>31.536458</ele>
<time>2026-07-16T16:18:55.000Z</time>
</trkpt>
<trkpt lat="57.567163" lon="9.942056">
<ele>31.520476</ele>
<time>2026-07-16T16:18:56.000Z</time>
</trkpt>
<trkpt lat="57.567224" lon="9.942067">
<ele>31.504576</ele>
<time>2026-07-16T16:18:57.000Z</time>
</trkpt>
<trkpt lat="57.567282" lon="9.942076">
<ele>31.489476</ele>
<time>2026-07-16T16:18:58.000Z</time>
</trkpt>
<trkpt lat="57.567348" lon="9.942083">
<ele>31.472324</ele>
<time>2026-07-16T16:18:59.000Z</time>
</trkpt>
<trkpt lat="57.567409" lon="9.942090">
<ele>31.456468</ele>
<time>2026-07-16T16:19:00.000Z</time>
</trkpt>
<trkpt lat="57.567471" lon="9.942097">
<ele>31.447919</ele>
<time>2026-07-16T16:19:01.000Z</time>
</trkpt>
<trkpt lat="57.567530" lon="9.942104">
<ele>31.443124</ele>
<time>2026-07-16T16:19:02.000Z</time>
</trkpt>
<trkpt lat="57.567589" lon="9.942110">
<ele>31.438333</ele>
<time>2026-07-16T16:19:03.000Z</time>
</trkpt>
<trkpt lat="57.567648" lon="9.942117">
<ele>31.433538</ele>
<time>2026-07-16T16:19:04.000Z</time>
</trkpt>
<trkpt lat="57.567706" lon="9.942124">
<ele>31.428825</ele>
<time>2026-07-16T16:19:05.000Z</time>
</trkpt>
<trkpt lat="57.567766" lon="9.942127">
<ele>31.423958</ele>
<time>2026-07-16T16:19:06.000Z</time>
</trkpt>
<trkpt lat="57.567824" lon="9.942136">
<ele>31.419238</ele>
<time>2026-07-16T16:19:07.000Z</time>
</trkpt>
<trkpt lat="57.567885" lon="9.942151">
<ele>31.414248</ele>
<time>2026-07-16T16:19:08.000Z</time>
</trkpt>
<trkpt lat="57.567943" lon="9.942166">
<ele>31.409500</ele>
<time>2026-07-16T16:19:09.000Z</time>
</trkpt>
<trkpt lat="57.568001" lon="9.942179">
<ele>31.404762</ele>
<time>2026-07-16T16:19:10.000Z</time>
</trkpt>
<trkpt lat="57.568060" lon="9.942190">
<ele>31.399954</ele>
<time>2026-07-16T16:19:11.000Z</time>
</trkpt>
<trkpt lat="57.568118" lon="9.942198">
<ele>31.395238</ele>
<time>2026-07-16T16:19:12.000Z</time>
</trkpt>
<trkpt lat="57.568174" lon="9.942206">
<ele>31.390683</ele>
<time>2026-07-16T16:19:13.000Z</time>
</trkpt>
<trkpt lat="57.568232" lon="9.942214">
<ele>31.385967</ele>
<time>2026-07-16T16:19:14.000Z</time>
</trkpt>
<trkpt lat="57.568292" lon="9.942225">
<ele>31.381077</ele>
<time>2026-07-16T16:19:15.000Z</time>
</trkpt>
<trkpt lat="57.568351" lon="9.942236">
<ele>31.376269</ele>
<time>2026-07-16T16:19:16.000Z</time>
</trkpt>
<trkpt lat="57.568411" lon="9.942246">
<ele>31.371384</ele>
<time>2026-07-16T16:19:17.000Z</time>
</trkpt>
<trkpt lat="57.568468" lon="9.942254">
<ele>31.366748</ele>
<time>2026-07-16T16:19:18.000Z</time>
</trkpt>
<trkpt lat="57.568526" lon="9.942260">
<ele>31.362038</ele>
<time>2026-07-16T16:19:19.000Z</time>
</trkpt>
<trkpt lat="57.568584" lon="9.942265">
<ele>31.357329</ele>
<time>2026-07-16T16:19:20.000Z</time>
</trkpt>
<trkpt lat="57.568641" lon="9.942273">
<ele>31.352694</ele>
<time>2026-07-16T16:19:21.000Z</time>
</trkpt>
<trkpt lat="57.568698" lon="9.942281">
<ele>31.348058</ele>
<time>2026-07-16T16:19:22.000Z</time>
</trkpt>
<trkpt lat="57.568752" lon="9.942289">
<ele>31.343665</ele>
<time>2026-07-16T16:19:23.000Z</time>
</trkpt>
<trkpt lat="57.568811" lon="9.942297">
<ele>31.338868</ele>
<time>2026-07-16T16:19:24.000Z</time>
</trkpt>
<trkpt lat="57.568872" lon="9.942306">
<ele>31.333906</ele>
<time>2026-07-16T16:19:25.000Z</time>
</trkpt>
<trkpt lat="57.568933" lon="9.942312">
<ele>31.328952</ele>
<time>2026-07-16T16:19:26.000Z</time>
</trkpt>
<trkpt lat="57.568993" lon="9.942318">
<ele>31.324079</ele>
<time>2026-07-16T16:19:27.000Z</time>
</trkpt>
<trkpt lat="57.569049" lon="9.942327">
<ele>31.319521</ele>
<time>2026-07-16T16:19:28.000Z</time>
</trkpt>
<trkpt lat="57.569108" lon="9.942338">
<ele>31.314713</ele>
<time>2026-07-16T16:19:29.000Z</time>
</trkpt>
<trkpt lat="57.569174" lon="9.942350">
<ele>31.309335</ele>
<time>2026-07-16T16:19:30.000Z</time>
</trkpt>
<trkpt lat="57.569238" lon="9.942359">
<ele>31.304081</ele>
<time>2026-07-16T16:19:31.000Z</time>
</trkpt>
<trkpt lat="57.569299" lon="9.942368">
<ele>31.298939</ele>
<time>2026-07-16T16:19:32.000Z</time>
</trkpt>
<trkpt lat="57.569361" lon="9.942376">
<ele>31.293716</ele>
<time>2026-07-16T16:19:33.000Z</time>
</trkpt>
<trkpt lat="57.569425" lon="9.942384">
<ele>31.288326</ele>
<time>2026-07-16T16:19:34.000Z</time>
</trkpt>
<trkpt lat="57.569486" lon="9.942394">
<ele>31.283180</ele>
<time>2026-07-16T16:19:35.000Z</time>
</trkpt>
<trkpt lat="57.569542" lon="9.942402">
<ele>31.278460</ele>
<time>2026-07-16T16:19:36.000Z</time>
</trkpt>
<trkpt lat="57.569606" lon="9.942412">
<ele>31.273063</ele>
<time>2026-07-16T16:19:37.000Z</time>
</trkpt>
<trkpt lat="57.569668" lon="9.942421">
<ele>31.267837</ele>
<time>2026-07-16T16:19:38.000Z</time>
</trkpt>
<trkpt lat="57.569731" lon="9.942429">
<ele>31.262530</ele>
<time>2026-07-16T16:19:39.000Z</time>
</trkpt>
<trkpt lat="57.569795" lon="9.942439">
<ele>31.257133</ele>
<time>2026-07-16T16:19:40.000Z</time>
</trkpt>
<trkpt lat="57.569845" lon="9.942447">
<ele>31.252916</ele>
<time>2026-07-16T16:19:41.000Z</time>
</trkpt>
<trkpt lat="57.569909" lon="9.942458">
<ele>31.247515</ele>
<time>2026-07-16T16:19:42.000Z</time>
</trkpt>
<trkpt lat="57.569975" lon="9.942467">
<ele>31.241954</ele>
<time>2026-07-16T16:19:43.000Z</time>
</trkpt>
<trkpt lat="57.570036" lon="9.942476">
<ele>31.236811</ele>
<time>2026-07-16T16:19:44.000Z</time>
</trkpt>
<trkpt lat="57.570097" lon="9.942486">
<ele>31.231666</ele>
<time>2026-07-16T16:19:45.000Z</time>
</trkpt>
<trkpt lat="57.570158" lon="9.942494">
<ele>31.226527</ele>
<time>2026-07-16T16:19:46.000Z</time>
</trkpt>
<trkpt lat="57.570222" lon="9.942501">
<ele>31.221139</ele>
<time>2026-07-16T16:19:47.000Z</time>
</trkpt>
<trkpt lat="57.570283" lon="9.942509">
<ele>31.216000</ele>
<time>2026-07-16T16:19:48.000Z</time>
</trkpt>
<trkpt lat="57.570344" lon="9.942516">
<ele>31.210864</ele>
<time>2026-07-16T16:19:49.000Z</time>
</trkpt>
<trkpt lat="57.570404" lon="9.942523">
<ele>31.205812</ele>
<time>2026-07-16T16:19:50.000Z</time>
</trkpt>
<trkpt lat="57.570466" lon="9.942531">
<ele>31.200590</ele>
<time>2026-07-16T16:19:51.000Z</time>
</trkpt>
<trkpt lat="57.570530" lon="9.942540">
<ele>31.195196</ele>
<time>2026-07-16T16:19:52.000Z</time>
</trkpt>
<trkpt lat="57.570592" lon="9.942547">
<ele>31.189977</ele>
<time>2026-07-16T16:19:53.000Z</time>
</trkpt>
<trkpt lat="57.570653" lon="9.942557">
<ele>31.184831</ele>
<time>2026-07-16T16:19:54.000Z</time>
</trkpt>
<trkpt lat="57.570717" lon="9.942568">
<ele>31.179430</ele>
<time>2026-07-16T16:19:55.000Z</time>
</trkpt>
<trkpt lat="57.570779" lon="9.942579">
<ele>31.174196</ele>
<time>2026-07-16T16:19:56.000Z</time>
</trkpt>
<trkpt lat="57.570843" lon="9.942588">
<ele>31.168802</ele>
<time>2026-07-16T16:19:57.000Z</time>
</trkpt>
<trkpt lat="57.570903" lon="9.942596">
<ele>31.163747</ele>
<time>2026-07-16T16:19:58.000Z</time>
</trkpt>
<trkpt lat="57.570965" lon="9.942605">
<ele>31.158521</ele>
<time>2026-07-16T16:19:59.000Z</time>
</trkpt>
<trkpt lat="57.571025" lon="9.942614">
<ele>31.153188</ele>
<time>2026-07-16T16:20:00.000Z</time>
</trkpt>
<trkpt lat="57.571090" lon="9.942624">
<ele>31.146007</ele>
<time>2026-07-16T16:20:01.000Z</time>
</trkpt>
<trkpt lat="57.571152" lon="9.942635">
<ele>31.139150</ele>
<time>2026-07-16T16:20:02.000Z</time>
</trkpt>
<trkpt lat="57.571214" lon="9.942646">
<ele>31.132293</ele>
<time>2026-07-16T16:20:03.000Z</time>
</trkpt>
<trkpt lat="57.571275" lon="9.942661">
<ele>31.125519</ele>
<time>2026-07-16T16:20:04.000Z</time>
</trkpt>
<trkpt lat="57.571334" lon="9.942675">
<ele>31.118971</ele>
<time>2026-07-16T16:20:05.000Z</time>
</trkpt>
<trkpt lat="57.571395" lon="9.942688">
<ele>31.112211</ele>
<time>2026-07-16T16:20:06.000Z</time>
</trkpt>
<trkpt lat="57.571453" lon="9.942702">
<ele>31.105772</ele>
<time>2026-07-16T16:20:07.000Z</time>
</trkpt>
<trkpt lat="57.571512" lon="9.942716">
<ele>31.099223</ele>
<time>2026-07-16T16:20:08.000Z</time>
</trkpt>
<trkpt lat="57.571572" lon="9.942733">
<ele>31.092542</ele>
<time>2026-07-16T16:20:09.000Z</time>
</trkpt>
<trkpt lat="57.571631" lon="9.942753">
<ele>31.085939</ele>
<time>2026-07-16T16:20:10.000Z</time>
</trkpt>
<trkpt lat="57.571689" lon="9.942773">
<ele>31.079445</ele>
<time>2026-07-16T16:20:11.000Z</time>
</trkpt>
<trkpt lat="57.571749" lon="9.942794">
<ele>31.072724</ele>
<time>2026-07-16T16:20:12.000Z</time>
</trkpt>
<trkpt lat="57.571807" lon="9.942813">
<ele>31.066240</ele>
<time>2026-07-16T16:20:13.000Z</time>
</trkpt>
<trkpt lat="57.571864" lon="9.942832">
<ele>31.059865</ele>
<time>2026-07-16T16:20:14.000Z</time>
</trkpt>
<trkpt lat="57.571923" lon="9.942850">
<ele>31.053283</ele>
<time>2026-07-16T16:20:15.000Z</time>
</trkpt>
<trkpt lat="57.571980" lon="9.942867">
<ele>31.046927</ele>
<time>2026-07-16T16:20:16.000Z</time>
</trkpt>
<trkpt lat="57.572037" lon="9.942886">
<ele>31.040552</ele>
<time>2026-07-16T16:20:17.000Z</time>
</trkpt>
<trkpt lat="57.572095" lon="9.942906">
<ele>31.034058</ele>
<time>2026-07-16T16:20:18.000Z</time>
</trkpt>
<trkpt lat="57.572153" lon="9.942925">
<ele>31.027574</ele>
<time>2026-07-16T16:20:19.000Z</time>
</trkpt>
<trkpt lat="57.572211" lon="9.942945">
<ele>31.021080</ele>
<time>2026-07-16T16:20:20.000Z</time>
</trkpt>
<trkpt lat="57.572268" lon="9.942967">
<ele>31.014672</ele>
<time>2026-07-16T16:20:21.000Z</time>
</trkpt>
<trkpt lat="57.572325" lon="9.942987">
<ele>31.008286</ele>
<time>2026-07-16T16:20:22.000Z</time>
</trkpt>
<trkpt lat="57.572382" lon="9.943007">
<ele>31.001900</ele>
<time>2026-07-16T16:20:23.000Z</time>
</trkpt>
<trkpt lat="57.572440" lon="9.943027">
<ele>30.995406</ele>
<time>2026-07-16T16:20:24.000Z</time>
</trkpt>
<trkpt lat="57.572500" lon="9.943047">
<ele>30.988695</ele>
<time>2026-07-16T16:20:25.000Z</time>
</trkpt>
<trkpt lat="57.572560" lon="9.943067">
<ele>30.981984</ele>
<time>2026-07-16T16:20:26.000Z</time>
</trkpt>
<trkpt lat="57.572619" lon="9.943085">
<ele>30.975402</ele>
<time>2026-07-16T16:20:27.000Z</time>
</trkpt>
<trkpt lat="57.572678" lon="9.943105">
<ele>30.968800</ele>
<time>2026-07-16T16:20:28.000Z</time>
</trkpt>
<trkpt lat="57.572738" lon="9.943128">
<ele>30.962056</ele>
<time>2026-07-16T16:20:29.000Z</time>
</trkpt>
<trkpt lat="57.572796" lon="9.943151">
<ele>30.952474</ele>
<time>2026-07-16T16:20:30.000Z</time>
</trkpt>
<trkpt lat="57.572857" lon="9.943172">
<ele>30.919242</ele>
<time>2026-07-16T16:20:31.000Z</time>
</trkpt>
<trkpt lat="57.572926" lon="9.943194">
<ele>30.881740</ele>
<time>2026-07-16T16:20:32.000Z</time>
</trkpt>
<trkpt lat="57.572989" lon="9.943217">
<ele>30.847349</ele>
<time>2026-07-16T16:20:33.000Z</time>
</trkpt>
<trkpt lat="57.573054" lon="9.943241">
<ele>30.811850</ele>
<time>2026-07-16T16:20:34.000Z</time>
</trkpt>
<trkpt lat="57.573120" lon="9.943265">
<ele>30.775826</ele>
<time>2026-07-16T16:20:35.000Z</time>
</trkpt>
<trkpt lat="57.573185" lon="9.943288">
<ele>30.740382</ele>
<time>2026-07-16T16:20:36.000Z</time>
</trkpt>
<trkpt lat="57.573250" lon="9.943313">
<ele>30.704827</ele>
<time>2026-07-16T16:20:37.000Z</time>
</trkpt>
<trkpt lat="57.573312" lon="9.943337">
<ele>30.670904</ele>
<time>2026-07-16T16:20:38.000Z</time>
</trkpt>
<trkpt lat="57.573375" lon="9.943360">
<ele>30.636512</ele>
<time>2026-07-16T16:20:39.000Z</time>
</trkpt>
<trkpt lat="57.573437" lon="9.943382">
<ele>30.602701</ele>
<time>2026-07-16T16:20:40.000Z</time>
</trkpt>
<trkpt lat="57.573502" lon="9.943402">
<ele>30.567408</ele>
<time>2026-07-16T16:20:41.000Z</time>
</trkpt>
<trkpt lat="57.573563" lon="9.943422">
<ele>30.534227</ele>
<time>2026-07-16T16:20:42.000Z</time>
</trkpt>
<trkpt lat="57.573622" lon="9.943444">
<ele>30.501994</ele>
<time>2026-07-16T16:20:43.000Z</time>
</trkpt>
<trkpt lat="57.573682" lon="9.943465">
<ele>30.469289</ele>
<time>2026-07-16T16:20:44.000Z</time>
</trkpt>
<trkpt lat="57.573746" lon="9.943487">
<ele>30.434424</ele>
<time>2026-07-16T16:20:45.000Z</time>
</trkpt>
<trkpt lat="57.573811" lon="9.943508">
<ele>30.399083</ele>
<time>2026-07-16T16:20:46.000Z</time>
</trkpt>
<trkpt lat="57.573873" lon="9.943530">
<ele>30.365272</ele>
<time>2026-07-16T16:20:47.000Z</time>
</trkpt>
<trkpt lat="57.573932" lon="9.943552">
<ele>30.333038</ele>
<time>2026-07-16T16:20:48.000Z</time>
</trkpt>
<trkpt lat="57.573994" lon="9.943572">
<ele>30.299330</ele>
<time>2026-07-16T16:20:49.000Z</time>
</trkpt>
<trkpt lat="57.574056" lon="9.943593">
<ele>30.265571</ele>
<time>2026-07-16T16:20:50.000Z</time>
</trkpt>
<trkpt lat="57.574116" lon="9.943614">
<ele>30.232866</ele>
<time>2026-07-16T16:20:51.000Z</time>
</trkpt>
<trkpt lat="57.574177" lon="9.943636">
<ele>30.199581</ele>
<time>2026-07-16T16:20:52.000Z</time>
</trkpt>
<trkpt lat="57.574237" lon="9.943658">
<ele>30.166822</ele>
<time>2026-07-16T16:20:53.000Z</time>
</trkpt>
<trkpt lat="57.574302" lon="9.943681">
<ele>30.131379</ele>
<time>2026-07-16T16:20:54.000Z</time>
</trkpt>
<trkpt lat="57.574365" lon="9.943704">
<ele>30.096987</ele>
<time>2026-07-16T16:20:55.000Z</time>
</trkpt>
<trkpt lat="57.574426" lon="9.943723">
<ele>30.063855</ele>
<time>2026-07-16T16:20:56.000Z</time>
</trkpt>
<trkpt lat="57.574487" lon="9.943741">
<ele>30.030769</ele>
<time>2026-07-16T16:20:57.000Z</time>
</trkpt>
<trkpt lat="57.574545" lon="9.943761">
<ele>29.999170</ele>
<time>2026-07-16T16:20:58.000Z</time>
</trkpt>
<trkpt lat="57.574607" lon="9.943788">
<ele>29.993047</ele>
<time>2026-07-16T16:20:59.000Z</time>
</trkpt>
<trkpt lat="57.574670" lon="9.943810">
<ele>29.993440</ele>
<time>2026-07-16T16:21:00.000Z</time>
</trkpt>
<trkpt lat="57.574728" lon="9.943828">
<ele>29.993801</ele>
<time>2026-07-16T16:21:01.000Z</time>
</trkpt>
<trkpt lat="57.574784" lon="9.943847">
<ele>29.994150</ele>
<time>2026-07-16T16:21:02.000Z</time>
</trkpt>
<trkpt lat="57.574840" lon="9.943868">
<ele>29.994501</ele>
<time>2026-07-16T16:21:03.000Z</time>
</trkpt>
<trkpt lat="57.574898" lon="9.943892">
<ele>29.994865</ele>
<time>2026-07-16T16:21:04.000Z</time>
</trkpt>
<trkpt lat="57.574955" lon="9.943915">
<ele>29.995223</ele>
<time>2026-07-16T16:21:05.000Z</time>
</trkpt>
<trkpt lat="57.575016" lon="9.943937">
<ele>29.995604</ele>
<time>2026-07-16T16:21:06.000Z</time>
</trkpt>
<trkpt lat="57.575077" lon="9.943958">
<ele>29.995985</ele>
<time>2026-07-16T16:21:07.000Z</time>
</trkpt>
<trkpt lat="57.575139" lon="9.943980">
<ele>29.996372</ele>
<time>2026-07-16T16:21:08.000Z</time>
</trkpt>
<trkpt lat="57.575200" lon="9.944001">
<ele>29.996752</ele>
<time>2026-07-16T16:21:09.000Z</time>
</trkpt>
<trkpt lat="57.575264" lon="9.944022">
<ele>29.997151</ele>
<time>2026-07-16T16:21:10.000Z</time>
</trkpt>
<trkpt lat="57.575325" lon="9.944044">
<ele>29.997532</ele>
<time>2026-07-16T16:21:11.000Z</time>
</trkpt>
<trkpt lat="57.575383" lon="9.944066">
<ele>29.997895</ele>
<time>2026-07-16T16:21:12.000Z</time>
</trkpt>
<trkpt lat="57.575446" lon="9.944090">
<ele>29.998290</ele>
<time>2026-07-16T16:21:13.000Z</time>
</trkpt>
<trkpt lat="57.575512" lon="9.944112">
<ele>29.998701</ele>
<time>2026-07-16T16:21:14.000Z</time>
</trkpt>
<trkpt lat="57.575573" lon="9.944135">
<ele>29.999083</ele>
<time>2026-07-16T16:21:15.000Z</time>
</trkpt>
<trkpt lat="57.575636" lon="9.944158">
<ele>29.999477</ele>
<time>2026-07-16T16:21:16.000Z</time>
</trkpt>
<trkpt lat="57.575702" lon="9.944181">
<ele>29.999889</ele>
<time>2026-07-16T16:21:17.000Z</time>
</trkpt>
<trkpt lat="57.575765" lon="9.944205">
<ele>30.000283</ele>
<time>2026-07-16T16:21:18.000Z</time>
</trkpt>
<trkpt lat="57.575828" lon="9.944226">
<ele>30.000676</ele>
<time>2026-07-16T16:21:19.000Z</time>
</trkpt>
<trkpt lat="57.575893" lon="9.944247">
<ele>30.001081</ele>
<time>2026-07-16T16:21:20.000Z</time>
</trkpt>
<trkpt lat="57.575955" lon="9.944268">
<ele>30.001467</ele>
<time>2026-07-16T16:21:21.000Z</time>
</trkpt>
<trkpt lat="57.576019" lon="9.944289">
<ele>30.001866</ele>
<time>2026-07-16T16:21:22.000Z</time>
</trkpt>
<trkpt lat="57.576081" lon="9.944310">
<ele>30.002253</ele>
<time>2026-07-16T16:21:23.000Z</time>
</trkpt>
<trkpt lat="57.576142" lon="9.944332">
<ele>30.002634</ele>
<time>2026-07-16T16:21:24.000Z</time>
</trkpt>
<trkpt lat="57.576202" lon="9.944352">
<ele>30.003008</ele>
<time>2026-07-16T16:21:25.000Z</time>
</trkpt>
<trkpt lat="57.576264" lon="9.944372">
<ele>30.003394</ele>
<time>2026-07-16T16:21:26.000Z</time>
</trkpt>
<trkpt lat="57.576324" lon="9.944391">
<ele>30.003750</ele>
<time>2026-07-16T16:21:27.000Z</time>
</trkpt>
<trkpt lat="57.576387" lon="9.944411">
<ele>30.000772</ele>
<time>2026-07-16T16:21:28.000Z</time>
</trkpt>
<trkpt lat="57.576451" lon="9.944433">
<ele>29.997740</ele>
<time>2026-07-16T16:21:29.000Z</time>
</trkpt>
<trkpt lat="57.576509" lon="9.944455">
<ele>29.994982</ele>
<time>2026-07-16T16:21:30.000Z</time>
</trkpt>
<trkpt lat="57.576572" lon="9.944478">
<ele>29.991991</ele>
<time>2026-07-16T16:21:31.000Z</time>
</trkpt>
<trkpt lat="57.576631" lon="9.944501">
<ele>29.989182</ele>
<time>2026-07-16T16:21:32.000Z</time>
</trkpt>
<trkpt lat="57.576692" lon="9.944522">
<ele>29.986292</ele>
<time>2026-07-16T16:21:33.000Z</time>
</trkpt>
<trkpt lat="57.576758" lon="9.944543">
<ele>29.983172</ele>
<time>2026-07-16T16:21:34.000Z</time>
</trkpt>
<trkpt lat="57.576818" lon="9.944566">
<ele>29.980318</ele>
<time>2026-07-16T16:21:35.000Z</time>
</trkpt>
<trkpt lat="57.576878" lon="9.944593">
<ele>29.977442</ele>
<time>2026-07-16T16:21:36.000Z</time>
</trkpt>
<trkpt lat="57.576941" lon="9.944620">
<ele>29.974430</ele>
<time>2026-07-16T16:21:37.000Z</time>
</trkpt>
<trkpt lat="57.577004" lon="9.944643">
<ele>29.971439</ele>
<time>2026-07-16T16:21:38.000Z</time>
</trkpt>
<trkpt lat="57.577063" lon="9.944661">
<ele>29.968653</ele>
<time>2026-07-16T16:21:39.000Z</time>
</trkpt>
<trkpt lat="57.577125" lon="9.944679">
<ele>29.965730</ele>
<time>2026-07-16T16:21:40.000Z</time>
</trkpt>
<trkpt lat="57.577187" lon="9.944699">
<ele>29.962798</ele>
<time>2026-07-16T16:21:41.000Z</time>
</trkpt>
<trkpt lat="57.577249" lon="9.944723">
<ele>29.959847</ele>
<time>2026-07-16T16:21:42.000Z</time>
</trkpt>
<trkpt lat="57.577309" lon="9.944747">
<ele>29.956988</ele>
<time>2026-07-16T16:21:43.000Z</time>
</trkpt>
<trkpt lat="57.577369" lon="9.944772">
<ele>29.954124</ele>
<time>2026-07-16T16:21:44.000Z</time>
</trkpt>
<trkpt lat="57.577431" lon="9.944795">
<ele>29.951178</ele>
<time>2026-07-16T16:21:45.000Z</time>
</trkpt>
<trkpt lat="57.577495" lon="9.944818">
<ele>29.948141</ele>
<time>2026-07-16T16:21:46.000Z</time>
</trkpt>
<trkpt lat="57.577557" lon="9.944840">
<ele>29.945200</ele>
<time>2026-07-16T16:21:47.000Z</time>
</trkpt>
<trkpt lat="57.577614" lon="9.944863">
<ele>29.942483</ele>
<time>2026-07-16T16:21:48.000Z</time>
</trkpt>
<trkpt lat="57.577678" lon="9.944885">
<ele>29.939451</ele>
<time>2026-07-16T16:21:49.000Z</time>
</trkpt>
<trkpt lat="57.577735" lon="9.944907">
<ele>29.936739</ele>
<time>2026-07-16T16:21:50.000Z</time>
</trkpt>
<trkpt lat="57.577793" lon="9.944933">
<ele>29.933959</ele>
<time>2026-07-16T16:21:51.000Z</time>
</trkpt>
<trkpt lat="57.577856" lon="9.944963">
<ele>29.930930</ele>
<time>2026-07-16T16:21:52.000Z</time>
</trkpt>
<trkpt lat="57.577920" lon="9.944996">
<ele>29.927836</ele>
<time>2026-07-16T16:21:53.000Z</time>
</trkpt>
<trkpt lat="57.577982" lon="9.945030">
<ele>29.924824</ele>
<time>2026-07-16T16:21:54.000Z</time>
</trkpt>
<trkpt lat="57.578043" lon="9.945059">
<ele>29.921891</ele>
<time>2026-07-16T16:21:55.000Z</time>
</trkpt>
<trkpt lat="57.578102" lon="9.945084">
<ele>29.924906</ele>
<time>2026-07-16T16:21:56.000Z</time>
</trkpt>
<trkpt lat="57.578159" lon="9.945109">
<ele>29.940157</ele>
<time>2026-07-16T16:21:57.000Z</time>
</trkpt>
<trkpt lat="57.578219" lon="9.945134">
<ele>29.956169</ele>
<time>2026-07-16T16:21:58.000Z</time>
</trkpt>
<trkpt lat="57.578280" lon="9.945158">
<ele>29.972407</ele>
<time>2026-07-16T16:21:59.000Z</time>
</trkpt>
<trkpt lat="57.578338" lon="9.945182">
<ele>29.987881</ele>
<time>2026-07-16T16:22:00.000Z</time>
</trkpt>
<trkpt lat="57.578392" lon="9.945206">
<ele>30.002339</ele>
<time>2026-07-16T16:22:01.000Z</time>
</trkpt>
<trkpt lat="57.578443" lon="9.945233">
<ele>30.016147</ele>
<time>2026-07-16T16:22:02.000Z</time>
</trkpt>
<trkpt lat="57.578491" lon="9.945257">
<ele>30.029091</ele>
<time>2026-07-16T16:22:03.000Z</time>
</trkpt>
<trkpt lat="57.578539" lon="9.945279">
<ele>30.041965</ele>
<time>2026-07-16T16:22:04.000Z</time>
</trkpt>
<trkpt lat="57.578580" lon="9.945298">
<ele>30.052968</ele>
<time>2026-07-16T16:22:05.000Z</time>
</trkpt>
<trkpt lat="57.578618" lon="9.945314">
<ele>30.063114</ele>
<time>2026-07-16T16:22:06.000Z</time>
</trkpt>
<trkpt lat="57.578651" lon="9.945326">
<ele>30.071871</ele>
<time>2026-07-16T16:22:07.000Z</time>
</trkpt>
<trkpt lat="57.578684" lon="9.945340">
<ele>30.080686</ele>
<time>2026-07-16T16:22:08.000Z</time>
</trkpt>
<trkpt lat="57.578718" lon="9.945357">
<ele>30.089854</ele>
<time>2026-07-16T16:22:09.000Z</time>
</trkpt>
<trkpt lat="57.578753" lon="9.945374">
<ele>30.099274</ele>
<time>2026-07-16T16:22:10.000Z</time>
</trkpt>
<trkpt lat="57.578784" lon="9.945391">
<ele>30.107690</ele>
<time>2026-07-16T16:22:11.000Z</time>
</trkpt>
<trkpt lat="57.578815" lon="9.945406">
<ele>30.116032</ele>
<time>2026-07-16T16:22:12.000Z</time>
</trkpt>
<trkpt lat="57.578842" lon="9.945421">
<ele>30.123369</ele>
<time>2026-07-16T16:22:13.000Z</time>
</trkpt>
<trkpt lat="57.578866" lon="9.945431">
<ele>30.129774</ele>
<time>2026-07-16T16:22:14.000Z</time>
</trkpt>
<trkpt lat="57.578881" lon="9.945437">
<ele>30.133770</ele>
<time>2026-07-16T16:22:15.000Z</time>
</trkpt>
<trkpt lat="57.578898" lon="9.945400">
<ele>30.140574</ele>
<time>2026-07-16T16:22:31.000Z</time>
</trkpt>
<trkpt lat="57.578915" lon="9.945345">
<ele>30.149440</ele>
<time>2026-07-16T16:22:32.000Z</time>
</trkpt>
<trkpt lat="57.578921" lon="9.945289">
<ele>30.157414</ele>
<time>2026-07-16T16:22:33.000Z</time>
</trkpt>
<trkpt lat="57.578925" lon="9.945229">
<ele>30.165857</ele>
<time>2026-07-16T16:22:34.000Z</time>
</trkpt>
<trkpt lat="57.578929" lon="9.945163">
<ele>30.175132</ele>
<time>2026-07-16T16:22:35.000Z</time>
</trkpt>
<trkpt lat="57.578930" lon="9.945091">
<ele>30.185190</ele>
<time>2026-07-16T16:22:36.000Z</time>
</trkpt>
<trkpt lat="57.578938" lon="9.945019">
<ele>30.195457</ele>
<time>2026-07-16T16:22:37.000Z</time>
</trkpt>
<trkpt lat="57.578952" lon="9.944949">
<ele>30.205890</ele>
<time>2026-07-16T16:22:38.000Z</time>
</trkpt>
<trkpt lat="57.578976" lon="9.944877">
<ele>30.217729</ele>
<time>2026-07-16T16:22:39.000Z</time>
</trkpt>
<trkpt lat="57.579000" lon="9.944805">
<ele>30.229568</ele>
<time>2026-07-16T16:22:40.000Z</time>
</trkpt>
<trkpt lat="57.579028" lon="9.944734">
<ele>30.241876</ele>
<time>2026-07-16T16:22:41.000Z</time>
</trkpt>
<trkpt lat="57.579062" lon="9.944668">
<ele>30.254657</ele>
<time>2026-07-16T16:22:42.000Z</time>
</trkpt>
<trkpt lat="57.579098" lon="9.944611">
<ele>30.266956</ele>
<time>2026-07-16T16:22:43.000Z</time>
</trkpt>
<trkpt lat="57.579139" lon="9.944559">
<ele>30.279870</ele>
<time>2026-07-16T16:22:44.000Z</time>
</trkpt>
<trkpt lat="57.579185" lon="9.944516">
<ele>30.293272</ele>
<time>2026-07-16T16:22:45.000Z</time>
</trkpt>
<trkpt lat="57.579230" lon="9.944482">
<ele>30.305917</ele>
<time>2026-07-16T16:22:46.000Z</time>
</trkpt>
<trkpt lat="57.579279" lon="9.944457">
<ele>30.319148</ele>
<time>2026-07-16T16:22:47.000Z</time>
</trkpt>
<trkpt lat="57.579331" lon="9.944442">
<ele>30.332853</ele>
<time>2026-07-16T16:22:48.000Z</time>
</trkpt>
<trkpt lat="57.579382" lon="9.944428">
<ele>30.346280</ele>
<time>2026-07-16T16:22:49.000Z</time>
</trkpt>
<trkpt lat="57.579434" lon="9.944414">
<ele>30.359964</ele>
<time>2026-07-16T16:22:50.000Z</time>
</trkpt>
<trkpt lat="57.579487" lon="9.944399">
<ele>30.373926</ele>
<time>2026-07-16T16:22:51.000Z</time>
</trkpt>
<trkpt lat="57.579541" lon="9.944385">
<ele>30.388126</ele>
<time>2026-07-16T16:22:52.000Z</time>
</trkpt>
<trkpt lat="57.579595" lon="9.944372">
<ele>30.365068</ele>
<time>2026-07-16T16:22:53.000Z</time>
</trkpt>
<trkpt lat="57.579645" lon="9.944360">
<ele>30.342970</ele>
<time>2026-07-16T16:22:54.000Z</time>
</trkpt>
<trkpt lat="57.579697" lon="9.944347">
<ele>30.319973</ele>
<time>2026-07-16T16:22:55.000Z</time>
</trkpt>
<trkpt lat="57.579751" lon="9.944334">
<ele>30.296106</ele>
<time>2026-07-16T16:22:56.000Z</time>
</trkpt>
<trkpt lat="57.579801" lon="9.944322">
<ele>30.274009</ele>
<time>2026-07-16T16:22:57.000Z</time>
</trkpt>
<trkpt lat="57.579854" lon="9.944308">
<ele>30.250545</ele>
<time>2026-07-16T16:22:58.000Z</time>
</trkpt>
<trkpt lat="57.579904" lon="9.944293">
<ele>30.228346</ele>
<time>2026-07-16T16:22:59.000Z</time>
</trkpt>
<trkpt lat="57.579956" lon="9.944272">
<ele>30.205025</ele>
<time>2026-07-16T16:23:00.000Z</time>
</trkpt>
<trkpt lat="57.580010" lon="9.944250">
<ele>30.180797</ele>
<time>2026-07-16T16:23:01.000Z</time>
</trkpt>
<trkpt lat="57.580063" lon="9.944225">
<ele>30.156833</ele>
<time>2026-07-16T16:23:02.000Z</time>
</trkpt>
<trkpt lat="57.580117" lon="9.944201">
<ele>30.132500</ele>
<time>2026-07-16T16:23:03.000Z</time>
</trkpt>
<trkpt lat="57.580173" lon="9.944177">
<ele>30.107314</ele>
<time>2026-07-16T16:23:04.000Z</time>
</trkpt>
<trkpt lat="57.580233" lon="9.944157">
<ele>30.080597</ele>
<time>2026-07-16T16:23:05.000Z</time>
</trkpt>
<trkpt lat="57.580289" lon="9.944139">
<ele>30.055688</ele>
<time>2026-07-16T16:23:06.000Z</time>
</trkpt>
<trkpt lat="57.580344" lon="9.944122">
<ele>30.031251</ele>
<time>2026-07-16T16:23:07.000Z</time>
</trkpt>
<trkpt lat="57.580399" lon="9.944101">
<ele>30.006643</ele>
<time>2026-07-16T16:23:08.000Z</time>
</trkpt>
<trkpt lat="57.580452" lon="9.944073">
<ele>29.982497</ele>
<time>2026-07-16T16:23:09.000Z</time>
</trkpt>
<trkpt lat="57.580503" lon="9.944036">
<ele>29.958510</ele>
<time>2026-07-16T16:23:10.000Z</time>
</trkpt>
<trkpt lat="57.580553" lon="9.943999">
<ele>29.934932</ele>
<time>2026-07-16T16:23:11.000Z</time>
</trkpt>
<trkpt lat="57.580605" lon="9.943970">
<ele>29.911141</ele>
<time>2026-07-16T16:23:12.000Z</time>
</trkpt>
<trkpt lat="57.580658" lon="9.943951">
<ele>29.887484</ele>
<time>2026-07-16T16:23:13.000Z</time>
</trkpt>
<trkpt lat="57.580714" lon="9.943939">
<ele>29.862776</ele>
<time>2026-07-16T16:23:14.000Z</time>
</trkpt>
<trkpt lat="57.580772" lon="9.943926">
<ele>29.837169</ele>
<time>2026-07-16T16:23:15.000Z</time>
</trkpt>
<trkpt lat="57.580829" lon="9.943911">
<ele>29.811937</ele>
<time>2026-07-16T16:23:16.000Z</time>
</trkpt>
<trkpt lat="57.580889" lon="9.943898">
<ele>29.785460</ele>
<time>2026-07-16T16:23:17.000Z</time>
</trkpt>
<trkpt lat="57.580947" lon="9.943886">
<ele>29.759880</ele>
<time>2026-07-16T16:23:18.000Z</time>
</trkpt>
<trkpt lat="57.581010" lon="9.943870">
<ele>29.732010</ele>
<time>2026-07-16T16:23:19.000Z</time>
</trkpt>
<trkpt lat="57.581072" lon="9.943854">
<ele>29.704574</ele>
<time>2026-07-16T16:23:20.000Z</time>
</trkpt>
<trkpt lat="57.581136" lon="9.943840">
<ele>29.676329</ele>
<time>2026-07-16T16:23:21.000Z</time>
</trkpt>
<trkpt lat="57.581201" lon="9.943827">
<ele>29.647673</ele>
<time>2026-07-16T16:23:22.000Z</time>
</trkpt>
<trkpt lat="57.581265" lon="9.943814">
<ele>29.619454</ele>
<time>2026-07-16T16:23:23.000Z</time>
</trkpt>
<trkpt lat="57.581330" lon="9.943802">
<ele>29.586778</ele>
<time>2026-07-16T16:23:24.000Z</time>
</trkpt>
<trkpt lat="57.581395" lon="9.943790">
<ele>29.545547</ele>
<time>2026-07-16T16:23:25.000Z</time>
</trkpt>
<trkpt lat="57.581460" lon="9.943780">
<ele>29.504377</ele>
<time>2026-07-16T16:23:26.000Z</time>
</trkpt>
<trkpt lat="57.581528" lon="9.943773">
<ele>29.461388</ele>
<time>2026-07-16T16:23:27.000Z</time>
</trkpt>
<trkpt lat="57.581594" lon="9.943771">
<ele>29.419720</ele>
<time>2026-07-16T16:23:28.000Z</time>
</trkpt>
<trkpt lat="57.581659" lon="9.943776">
<ele>29.378655</ele>
<time>2026-07-16T16:23:29.000Z</time>
</trkpt>
<trkpt lat="57.581723" lon="9.943784">
<ele>29.338165</ele>
<time>2026-07-16T16:23:30.000Z</time>
</trkpt>
<trkpt lat="57.581788" lon="9.943791">
<ele>29.297067</ele>
<time>2026-07-16T16:23:31.000Z</time>
</trkpt>
<trkpt lat="57.581850" lon="9.943801">
<ele>29.257784</ele>
<time>2026-07-16T16:23:32.000Z</time>
</trkpt>
<trkpt lat="57.581914" lon="9.943813">
<ele>29.217181</ele>
<time>2026-07-16T16:23:33.000Z</time>
</trkpt>
<trkpt lat="57.581975" lon="9.943831">
<ele>29.178197</ele>
<time>2026-07-16T16:23:34.000Z</time>
</trkpt>
<trkpt lat="57.582039" lon="9.943853">
<ele>29.137117</ele>
<time>2026-07-16T16:23:35.000Z</time>
</trkpt>
<trkpt lat="57.582105" lon="9.943878">
<ele>29.094606</ele>
<time>2026-07-16T16:23:36.000Z</time>
</trkpt>
<trkpt lat="57.582167" lon="9.943902">
<ele>29.054635</ele>
<time>2026-07-16T16:23:37.000Z</time>
</trkpt>
<trkpt lat="57.582231" lon="9.943928">
<ele>29.013289</ele>
<time>2026-07-16T16:23:38.000Z</time>
</trkpt>
<trkpt lat="57.582296" lon="9.943957">
<ele>28.971101</ele>
<time>2026-07-16T16:23:39.000Z</time>
</trkpt>
<trkpt lat="57.582355" lon="9.943991">
<ele>28.932122</ele>
<time>2026-07-16T16:23:40.000Z</time>
</trkpt>
<trkpt lat="57.582415" lon="9.944030">
<ele>28.892014</ele>
<time>2026-07-16T16:23:41.000Z</time>
</trkpt>
<trkpt lat="57.582475" lon="9.944071">
<ele>28.851678</ele>
<time>2026-07-16T16:23:42.000Z</time>
</trkpt>
<trkpt lat="57.582533" lon="9.944115">
<ele>28.812155</ele>
<time>2026-07-16T16:23:43.000Z</time>
</trkpt>
<trkpt lat="57.582589" lon="9.944159">
<ele>28.773798</ele>
<time>2026-07-16T16:23:44.000Z</time>
</trkpt>
<trkpt lat="57.582648" lon="9.944206">
<ele>28.733301</ele>
<time>2026-07-16T16:23:45.000Z</time>
</trkpt>
<trkpt lat="57.582706" lon="9.944253">
<ele>28.693384</ele>
<time>2026-07-16T16:23:46.000Z</time>
</trkpt>
<trkpt lat="57.582760" lon="9.944300">
<ele>28.655769</ele>
<time>2026-07-16T16:23:47.000Z</time>
</trkpt>
<trkpt lat="57.582816" lon="9.944349">
<ele>28.616724</ele>
<time>2026-07-16T16:23:48.000Z</time>
</trkpt>
<trkpt lat="57.582871" lon="9.944397">
<ele>28.578394</ele>
<time>2026-07-16T16:23:49.000Z</time>
</trkpt>
<trkpt lat="57.582921" lon="9.944441">
<ele>28.543497</ele>
<time>2026-07-16T16:23:50.000Z</time>
</trkpt>
<trkpt lat="57.582971" lon="9.944482">
<ele>28.509020</ele>
<time>2026-07-16T16:23:51.000Z</time>
</trkpt>
<trkpt lat="57.583014" lon="9.944520">
<ele>28.478985</ele>
<time>2026-07-16T16:23:52.000Z</time>
</trkpt>
<trkpt lat="57.583051" lon="9.944558">
<ele>28.475422</ele>
<time>2026-07-16T16:23:53.000Z</time>
</trkpt>
<trkpt lat="57.583072" lon="9.944580">
<ele>28.488719</ele>
<time>2026-07-16T16:23:54.000Z</time>
</trkpt>
<trkpt lat="57.583108" lon="9.944687">
<ele>28.526107</ele>
<time>2026-07-16T16:24:03.000Z</time>
</trkpt>
<trkpt lat="57.583121" lon="9.944727">
<ele>28.539951</ele>
<time>2026-07-16T16:24:04.000Z</time>
</trkpt>
<trkpt lat="57.583143" lon="9.944768">
<ele>28.557120</ele>
<time>2026-07-16T16:24:05.000Z</time>
</trkpt>
<trkpt lat="57.583168" lon="9.944801">
<ele>28.574028</ele>
<time>2026-07-16T16:24:06.000Z</time>
</trkpt>
<trkpt lat="57.583200" lon="9.944835">
<ele>28.594360</ele>
<time>2026-07-16T16:24:07.000Z</time>
</trkpt>
<trkpt lat="57.583235" lon="9.944874">
<ele>28.616868</ele>
<time>2026-07-16T16:24:08.000Z</time>
</trkpt>
<trkpt lat="57.583272" lon="9.944914">
<ele>28.640477</ele>
<time>2026-07-16T16:24:09.000Z</time>
</trkpt>
<trkpt lat="57.583310" lon="9.944950">
<ele>28.664007</ele>
<time>2026-07-16T16:24:10.000Z</time>
</trkpt>
<trkpt lat="57.583351" lon="9.944983">
<ele>28.688660</ele>
<time>2026-07-16T16:24:11.000Z</time>
</trkpt>
<trkpt lat="57.583393" lon="9.945018">
<ele>28.714056</ele>
<time>2026-07-16T16:24:12.000Z</time>
</trkpt>
<trkpt lat="57.583432" lon="9.945059">
<ele>28.738771</ele>
<time>2026-07-16T16:24:13.000Z</time>
</trkpt>
<trkpt lat="57.583470" lon="9.945099">
<ele>28.762860</ele>
<time>2026-07-16T16:24:14.000Z</time>
</trkpt>
<trkpt lat="57.583511" lon="9.945139">
<ele>28.788405</ele>
<time>2026-07-16T16:24:15.000Z</time>
</trkpt>
<trkpt lat="57.583553" lon="9.945178">
<ele>28.814306</ele>
<time>2026-07-16T16:24:16.000Z</time>
</trkpt>
<trkpt lat="57.583595" lon="9.945216">
<ele>28.840078</ele>
<time>2026-07-16T16:24:17.000Z</time>
</trkpt>
<trkpt lat="57.583640" lon="9.945256">
<ele>28.867598</ele>
<time>2026-07-16T16:24:18.000Z</time>
</trkpt>
<trkpt lat="57.583680" lon="9.945296">
<ele>28.892654</ele>
<time>2026-07-16T16:24:19.000Z</time>
</trkpt>
<trkpt lat="57.583716" lon="9.945332">
<ele>28.915205</ele>
<time>2026-07-16T16:24:20.000Z</time>
</trkpt>
<trkpt lat="57.583742" lon="9.945361">
<ele>28.931930</ele>
<time>2026-07-16T16:24:21.000Z</time>
</trkpt>
<trkpt lat="57.583756" lon="9.945381">
<ele>28.941665</ele>
<time>2026-07-16T16:24:22.000Z</time>
</trkpt>
<trkpt lat="57.583762" lon="9.945388">
<ele>28.945572</ele>
<time>2026-07-16T16:24:23.000Z</time>
</trkpt>
<trkpt lat="57.583763" lon="9.945389">
<ele>28.946198</ele>
<time>2026-07-16T16:24:24.000Z</time>
</trkpt>
<trkpt lat="57.583759" lon="9.945331">
<ele>28.963505</ele>
<time>2026-07-16T16:25:39.000Z</time>
</trkpt>
<trkpt lat="57.583753" lon="9.945291">
<ele>28.975798</ele>
<time>2026-07-16T16:25:40.000Z</time>
</trkpt>
<trkpt lat="57.583752" lon="9.945237">
<ele>28.991789</ele>
<time>2026-07-16T16:25:41.000Z</time>
</trkpt>
<trkpt lat="57.583760" lon="9.945182">
<ele>29.008655</ele>
<time>2026-07-16T16:25:42.000Z</time>
</trkpt>
<trkpt lat="57.583771" lon="9.945128">
<ele>29.025752</ele>
<time>2026-07-16T16:25:43.000Z</time>
</trkpt>
<trkpt lat="57.583785" lon="9.945077">
<ele>29.042710</ele>
<time>2026-07-16T16:25:44.000Z</time>
</trkpt>
<trkpt lat="57.583801" lon="9.945022">
<ele>29.061230</ele>
<time>2026-07-16T16:25:45.000Z</time>
</trkpt>
<trkpt lat="57.583819" lon="9.944966">
<ele>29.080554</ele>
<time>2026-07-16T16:25:46.000Z</time>
</trkpt>
<trkpt lat="57.583838" lon="9.944909">
<ele>29.100419</ele>
<time>2026-07-16T16:25:47.000Z</time>
</trkpt>
<trkpt lat="57.583854" lon="9.944853">
<ele>29.119199</ele>
<time>2026-07-16T16:25:48.000Z</time>
</trkpt>
<trkpt lat="57.583870" lon="9.944799">
<ele>29.137460</ele>
<time>2026-07-16T16:25:49.000Z</time>
</trkpt>
<trkpt lat="57.583888" lon="9.944742">
<ele>29.157039</ele>
<time>2026-07-16T16:25:50.000Z</time>
</trkpt>
<trkpt lat="57.583904" lon="9.944686">
<ele>29.175819</ele>
<time>2026-07-16T16:25:51.000Z</time>
</trkpt>
<trkpt lat="57.583919" lon="9.944635">
<ele>29.193035</ele>
<time>2026-07-16T16:25:52.000Z</time>
</trkpt>
<trkpt lat="57.583937" lon="9.944583">
<ele>29.211355</ele>
<time>2026-07-16T16:25:53.000Z</time>
</trkpt>
<trkpt lat="57.583956" lon="9.944530">
<ele>29.230224</ele>
<time>2026-07-16T16:25:54.000Z</time>
</trkpt>
<trkpt lat="57.583975" lon="9.944480">
<ele>29.248363</ele>
<time>2026-07-16T16:25:55.000Z</time>
</trkpt>
<trkpt lat="57.583992" lon="9.944431">
<ele>29.265637</ele>
<time>2026-07-16T16:25:56.000Z</time>
</trkpt>
<trkpt lat="57.584010" lon="9.944380">
<ele>29.283708</ele>
<time>2026-07-16T16:25:57.000Z</time>
</trkpt>
<trkpt lat="57.584026" lon="9.944332">
<ele>29.300436</ele>
<time>2026-07-16T16:25:58.000Z</time>
</trkpt>
<trkpt lat="57.584041" lon="9.944285">
<ele>29.316625</ele>
<time>2026-07-16T16:25:59.000Z</time>
</trkpt>
<trkpt lat="57.584057" lon="9.944241">
<ele>29.332360</ele>
<time>2026-07-16T16:26:00.000Z</time>
</trkpt>
<trkpt lat="57.584075" lon="9.944204">
<ele>29.347147</ele>
<time>2026-07-16T16:26:01.000Z</time>
</trkpt>
<trkpt lat="57.584091" lon="9.944172">
<ele>29.360098</ele>
<time>2026-07-16T16:26:02.000Z</time>
</trkpt>
<trkpt lat="57.584103" lon="9.944133">
<ele>29.373406</ele>
<time>2026-07-16T16:26:03.000Z</time>
</trkpt>
<trkpt lat="57.584115" lon="9.944092">
<ele>29.387231</ele>
<time>2026-07-16T16:26:04.000Z</time>
</trkpt>
<trkpt lat="57.584123" lon="9.944047">
<ele>29.401262</ele>
<time>2026-07-16T16:26:05.000Z</time>
</trkpt>
<trkpt lat="57.584131" lon="9.944003">
<ele>29.415013</ele>
<time>2026-07-16T16:26:06.000Z</time>
</trkpt>
<trkpt lat="57.584147" lon="9.943961">
<ele>29.430262</ele>
<time>2026-07-16T16:26:07.000Z</time>
</trkpt>
<trkpt lat="57.584163" lon="9.943917">
<ele>29.445997</ele>
<time>2026-07-16T16:26:08.000Z</time>
</trkpt>
<trkpt lat="57.584178" lon="9.943872">
<ele>29.445748</ele>
<time>2026-07-16T16:26:09.000Z</time>
</trkpt>
<trkpt lat="57.584191" lon="9.943829">
<ele>29.402542</ele>
<time>2026-07-16T16:26:10.000Z</time>
</trkpt>
<trkpt lat="57.584200" lon="9.943785">
<ele>29.361325</ele>
<time>2026-07-16T16:26:11.000Z</time>
</trkpt>
<trkpt lat="57.584210" lon="9.943743">
<ele>29.321103</ele>
<time>2026-07-16T16:26:12.000Z</time>
</trkpt>
<trkpt lat="57.584221" lon="9.943703">
<ele>29.281757</ele>
<time>2026-07-16T16:26:13.000Z</time>
</trkpt>
<trkpt lat="57.584236" lon="9.943665">
<ele>29.240455</ele>
<time>2026-07-16T16:26:14.000Z</time>
</trkpt>
<trkpt lat="57.584248" lon="9.943630">
<ele>29.204093</ele>
<time>2026-07-16T16:26:15.000Z</time>
</trkpt>
<trkpt lat="57.584257" lon="9.943597">
<ele>29.171689</ele>
<time>2026-07-16T16:26:16.000Z</time>
</trkpt>
<trkpt lat="57.584265" lon="9.943567">
<ele>29.142363</ele>
<time>2026-07-16T16:26:17.000Z</time>
</trkpt>
<trkpt lat="57.584272" lon="9.943538">
<ele>29.114528</ele>
<time>2026-07-16T16:26:18.000Z</time>
</trkpt>
<trkpt lat="57.584280" lon="9.943511">
<ele>29.087528</ele>
<time>2026-07-16T16:26:19.000Z</time>
</trkpt>
<trkpt lat="57.584285" lon="9.943496">
<ele>29.072068</ele>
<time>2026-07-16T16:26:20.000Z</time>
</trkpt>
<trkpt lat="57.584185" lon="9.943725">
<ele>28.813563</ele>
<time>2026-07-16T16:26:37.000Z</time>
</trkpt>
<trkpt lat="57.584145" lon="9.943765">
<ele>28.739464</ele>
<time>2026-07-16T16:26:38.000Z</time>
</trkpt>
<trkpt lat="57.584148" lon="9.943814">
<ele>28.696300</ele>
<time>2026-07-16T16:26:39.000Z</time>
</trkpt>
<trkpt lat="57.584146" lon="9.943863">
<ele>28.653291</ele>
<time>2026-07-16T16:26:40.000Z</time>
</trkpt>
<trkpt lat="57.584139" lon="9.943915">
<ele>28.606367</ele>
<time>2026-07-16T16:26:41.000Z</time>
</trkpt>
<trkpt lat="57.584134" lon="9.943964">
<ele>28.562712</ele>
<time>2026-07-16T16:26:42.000Z</time>
</trkpt>
<trkpt lat="57.584122" lon="9.944010">
<ele>28.517938</ele>
<time>2026-07-16T16:26:43.000Z</time>
</trkpt>
<trkpt lat="57.584107" lon="9.944057">
<ele>28.470065</ele>
<time>2026-07-16T16:26:44.000Z</time>
</trkpt>
<trkpt lat="57.584097" lon="9.944102">
<ele>28.427430</ele>
<time>2026-07-16T16:26:45.000Z</time>
</trkpt>
<trkpt lat="57.584087" lon="9.944153">
<ele>28.379902</ele>
<time>2026-07-16T16:26:46.000Z</time>
</trkpt>
<trkpt lat="57.584068" lon="9.944206">
<ele>28.324099</ele>
<time>2026-07-16T16:26:47.000Z</time>
</trkpt>
<trkpt lat="57.584048" lon="9.944266">
<ele>28.262262</ele>
<time>2026-07-16T16:26:48.000Z</time>
</trkpt>
<trkpt lat="57.584025" lon="9.944340">
<ele>28.187398</ele>
<time>2026-07-16T16:26:49.000Z</time>
</trkpt>
<trkpt lat="57.584002" lon="9.944414">
<ele>28.112533</ele>
<time>2026-07-16T16:26:50.000Z</time>
</trkpt>
<trkpt lat="57.583979" lon="9.944491">
<ele>28.035386</ele>
<time>2026-07-16T16:26:51.000Z</time>
</trkpt>
<trkpt lat="57.583956" lon="9.944569">
<ele>27.957473</ele>
<time>2026-07-16T16:26:52.000Z</time>
</trkpt>
<trkpt lat="57.583933" lon="9.944643">
<ele>27.882608</ele>
<time>2026-07-16T16:26:53.000Z</time>
</trkpt>
<trkpt lat="57.583905" lon="9.944713">
<ele>27.806167</ele>
<time>2026-07-16T16:26:54.000Z</time>
</trkpt>
<trkpt lat="57.583883" lon="9.944783">
<ele>27.735149</ele>
<time>2026-07-16T16:26:55.000Z</time>
</trkpt>
<trkpt lat="57.583861" lon="9.944856">
<ele>27.661854</ele>
<time>2026-07-16T16:26:56.000Z</time>
</trkpt>
<trkpt lat="57.583838" lon="9.944926">
<ele>27.589996</ele>
<time>2026-07-16T16:26:57.000Z</time>
</trkpt>
<trkpt lat="57.583818" lon="9.944986">
<ele>27.528159</ele>
<time>2026-07-16T16:26:58.000Z</time>
</trkpt>
<trkpt lat="57.583791" lon="9.945038">
<ele>27.464799</ele>
<time>2026-07-16T16:26:59.000Z</time>
</trkpt>
<trkpt lat="57.583768" lon="9.945081">
<ele>27.411634</ele>
<time>2026-07-16T16:27:00.000Z</time>
</trkpt>
<trkpt lat="57.583755" lon="9.945115">
<ele>27.375083</ele>
<time>2026-07-16T16:27:01.000Z</time>
</trkpt>
<trkpt lat="57.583746" lon="9.945147">
<ele>27.343456</ele>
<time>2026-07-16T16:27:02.000Z</time>
</trkpt>
<trkpt lat="57.583738" lon="9.945177">
<ele>27.314130</ele>
<time>2026-07-16T16:27:03.000Z</time>
</trkpt>
<trkpt lat="57.583736" lon="9.945208">
<ele>27.286802</ele>
<time>2026-07-16T16:27:04.000Z</time>
</trkpt>
<trkpt lat="57.583745" lon="9.945248">
<ele>27.248835</ele>
<time>2026-07-16T16:27:05.000Z</time>
</trkpt>
<trkpt lat="57.583759" lon="9.945291">
<ele>27.204803</ele>
<time>2026-07-16T16:27:06.000Z</time>
</trkpt>
<trkpt lat="57.583783" lon="9.945335">
<ele>27.149863</ele>
<time>2026-07-16T16:27:07.000Z</time>
</trkpt>
<trkpt lat="57.583812" lon="9.945379">
<ele>27.088832</ele>
<time>2026-07-16T16:27:08.000Z</time>
</trkpt>
<trkpt lat="57.583848" lon="9.945422">
<ele>27.019040</ele>
<time>2026-07-16T16:27:09.000Z</time>
</trkpt>
<trkpt lat="57.583885" lon="9.945463">
<ele>26.948777</ele>
<time>2026-07-16T16:27:10.000Z</time>
</trkpt>
<trkpt lat="57.583927" lon="9.945503">
<ele>26.871785</ele>
<time>2026-07-16T16:27:11.000Z</time>
</trkpt>
<trkpt lat="57.583972" lon="9.945545">
<ele>26.789633</ele>
<time>2026-07-16T16:27:12.000Z</time>
</trkpt>
<trkpt lat="57.584018" lon="9.945587">
<ele>26.706016</ele>
<time>2026-07-16T16:27:13.000Z</time>
</trkpt>
<trkpt lat="57.584063" lon="9.945628">
<ele>26.624252</ele>
<time>2026-07-16T16:27:14.000Z</time>
</trkpt>
<trkpt lat="57.584112" lon="9.945671">
<ele>26.535841</ele>
<time>2026-07-16T16:27:15.000Z</time>
</trkpt>
<trkpt lat="57.584165" lon="9.945718">
<ele>26.331581</ele>
<time>2026-07-16T16:27:16.000Z</time>
</trkpt>
<trkpt lat="57.584218" lon="9.945763">
<ele>26.109274</ele>
<time>2026-07-16T16:27:17.000Z</time>
</trkpt>
<trkpt lat="57.584274" lon="9.945811">
<ele>25.873998</ele>
<time>2026-07-16T16:27:18.000Z</time>
</trkpt>
<trkpt lat="57.584331" lon="9.945863">
<ele>25.631765</ele>
<time>2026-07-16T16:27:19.000Z</time>
</trkpt>
<trkpt lat="57.584394" lon="9.945917">
<ele>25.367079</ele>
<time>2026-07-16T16:27:20.000Z</time>
</trkpt>
<trkpt lat="57.584456" lon="9.945972">
<ele>25.104986</ele>
<time>2026-07-16T16:27:21.000Z</time>
</trkpt>
<trkpt lat="57.584520" lon="9.946028">
<ele>24.835115</ele>
<time>2026-07-16T16:27:22.000Z</time>
</trkpt>
<trkpt lat="57.584588" lon="9.946087">
<ele>24.548809</ele>
<time>2026-07-16T16:27:23.000Z</time>
</trkpt>
<trkpt lat="57.584656" lon="9.946145">
<ele>24.263361</ele>
<time>2026-07-16T16:27:24.000Z</time>
</trkpt>
<trkpt lat="57.584728" lon="9.946200">
<ele>23.966338</ele>
<time>2026-07-16T16:27:25.000Z</time>
</trkpt>
<trkpt lat="57.584800" lon="9.946256">
<ele>23.668534</ele>
<time>2026-07-16T16:27:26.000Z</time>
</trkpt>
<trkpt lat="57.584870" lon="9.946310">
<ele>23.379351</ele>
<time>2026-07-16T16:27:27.000Z</time>
</trkpt>
<trkpt lat="57.584936" lon="9.946361">
<ele>23.106626</ele>
<time>2026-07-16T16:27:28.000Z</time>
</trkpt>
<trkpt lat="57.585006" lon="9.946412">
<ele>22.819733</ele>
<time>2026-07-16T16:27:29.000Z</time>
</trkpt>
<trkpt lat="57.585079" lon="9.946463">
<ele>22.522143</ele>
<time>2026-07-16T16:27:30.000Z</time>
</trkpt>
<trkpt lat="57.585154" lon="9.946513">
<ele>22.218085</ele>
<time>2026-07-16T16:27:31.000Z</time>
</trkpt>
<trkpt lat="57.585231" lon="9.946564">
<ele>21.906149</ele>
<time>2026-07-16T16:27:32.000Z</time>
</trkpt>
<trkpt lat="57.585309" lon="9.946615">
<ele>21.590612</ele>
<time>2026-07-16T16:27:33.000Z</time>
</trkpt>
<trkpt lat="57.585388" lon="9.946666">
<ele>21.271470</ele>
<time>2026-07-16T16:27:34.000Z</time>
</trkpt>
<trkpt lat="57.585466" lon="9.946719">
<ele>20.954556</ele>
<time>2026-07-16T16:27:35.000Z</time>
</trkpt>
<trkpt lat="57.585543" lon="9.946771">
<ele>20.641929</ele>
<time>2026-07-16T16:27:36.000Z</time>
</trkpt>
<trkpt lat="57.585617" lon="9.946820">
<ele>20.342155</ele>
<time>2026-07-16T16:27:37.000Z</time>
</trkpt>
<trkpt lat="57.585683" lon="9.946867">
<ele>20.072457</ele>
<time>2026-07-16T16:27:38.000Z</time>
</trkpt>
<trkpt lat="57.585748" lon="9.946911">
<ele>19.808479</ele>
<time>2026-07-16T16:27:39.000Z</time>
</trkpt>
<trkpt lat="57.585818" lon="9.946958">
<ele>19.638893</ele>
<time>2026-07-16T16:27:40.000Z</time>
</trkpt>
<trkpt lat="57.585885" lon="9.947004">
<ele>19.606219</ele>
<time>2026-07-16T16:27:41.000Z</time>
</trkpt>
<trkpt lat="57.585953" lon="9.947051">
<ele>19.573031</ele>
<time>2026-07-16T16:27:42.000Z</time>
</trkpt>
<trkpt lat="57.586021" lon="9.947094">
<ele>19.540172</ele>
<time>2026-07-16T16:27:43.000Z</time>
</trkpt>
<trkpt lat="57.586089" lon="9.947137">
<ele>19.507312</ele>
<time>2026-07-16T16:27:44.000Z</time>
</trkpt>
<trkpt lat="57.586155" lon="9.947181">
<ele>19.475235</ele>
<time>2026-07-16T16:27:45.000Z</time>
</trkpt>
<trkpt lat="57.586220" lon="9.947228">
<ele>19.443331</ele>
<time>2026-07-16T16:27:46.000Z</time>
</trkpt>
<trkpt lat="57.586283" lon="9.947275">
<ele>19.412279</ele>
<time>2026-07-16T16:27:47.000Z</time>
</trkpt>
<trkpt lat="57.586348" lon="9.947322">
<ele>19.380375</ele>
<time>2026-07-16T16:27:48.000Z</time>
</trkpt>
<trkpt lat="57.586415" lon="9.947366">
<ele>19.347868</ele>
<time>2026-07-16T16:27:49.000Z</time>
</trkpt>
<trkpt lat="57.586477" lon="9.947405">
<ele>19.317923</ele>
<time>2026-07-16T16:27:50.000Z</time>
</trkpt>
<trkpt lat="57.586541" lon="9.947438">
<ele>19.287535</ele>
<time>2026-07-16T16:27:51.000Z</time>
</trkpt>
<trkpt lat="57.586604" lon="9.947473">
<ele>19.257451</ele>
<time>2026-07-16T16:27:52.000Z</time>
</trkpt>
<trkpt lat="57.586664" lon="9.947510">
<ele>19.228531</ele>
<time>2026-07-16T16:27:53.000Z</time>
</trkpt>
<trkpt lat="57.586724" lon="9.947541">
<ele>19.200037</ele>
<time>2026-07-16T16:27:54.000Z</time>
</trkpt>
<trkpt lat="57.586786" lon="9.947570">
<ele>19.170784</ele>
<time>2026-07-16T16:27:55.000Z</time>
</trkpt>
<trkpt lat="57.586845" lon="9.947596">
<ele>19.143040</ele>
<time>2026-07-16T16:27:56.000Z</time>
</trkpt>
<trkpt lat="57.586905" lon="9.947619">
<ele>19.115006</ele>
<time>2026-07-16T16:27:57.000Z</time>
</trkpt>
<trkpt lat="57.586961" lon="9.947642">
<ele>19.088764</ele>
<time>2026-07-16T16:27:58.000Z</time>
</trkpt>
<trkpt lat="57.587014" lon="9.947665">
<ele>19.063860</ele>
<time>2026-07-16T16:27:59.000Z</time>
</trkpt>
<trkpt lat="57.587059" lon="9.947686">
<ele>19.042631</ele>
<time>2026-07-16T16:28:00.000Z</time>
</trkpt>
<trkpt lat="57.587111" lon="9.947717">
<ele>19.017648</ele>
<time>2026-07-16T16:28:01.000Z</time>
</trkpt>
<trkpt lat="57.587158" lon="9.947767">
<ele>18.992886</ele>
<time>2026-07-16T16:28:02.000Z</time>
</trkpt>
<trkpt lat="57.587197" lon="9.947828">
<ele>18.969595</ele>
<time>2026-07-16T16:28:03.000Z</time>
</trkpt>
<trkpt lat="57.587236" lon="9.947889">
<ele>18.946303</ele>
<time>2026-07-16T16:28:04.000Z</time>
</trkpt>
<trkpt lat="57.587274" lon="9.947945">
<ele>18.924141</ele>
<time>2026-07-16T16:28:05.000Z</time>
</trkpt>
<trkpt lat="57.587314" lon="9.947996">
<ele>18.901968</ele>
<time>2026-07-16T16:28:06.000Z</time>
</trkpt>
<trkpt lat="57.587354" lon="9.948052">
<ele>18.879080</ele>
<time>2026-07-16T16:28:07.000Z</time>
</trkpt>
<trkpt lat="57.587389" lon="9.948117">
<ele>18.856479</ele>
<time>2026-07-16T16:28:08.000Z</time>
</trkpt>
<trkpt lat="57.587421" lon="9.948187">
<ele>18.833910</ele>
<time>2026-07-16T16:28:09.000Z</time>
</trkpt>
<trkpt lat="57.587448" lon="9.948251">
<ele>18.816249</ele>
<time>2026-07-16T16:28:10.000Z</time>
</trkpt>
<trkpt lat="57.587469" lon="9.948301">
<ele>18.802745</ele>
<time>2026-07-16T16:28:11.000Z</time>
</trkpt>
<trkpt lat="57.587488" lon="9.948348">
<ele>18.790230</ele>
<time>2026-07-16T16:28:12.000Z</time>
</trkpt>
<trkpt lat="57.587515" lon="9.948407">
<ele>18.773737</ele>
<time>2026-07-16T16:28:13.000Z</time>
</trkpt>
<trkpt lat="57.587543" lon="9.948464">
<ele>18.757300</ele>
<time>2026-07-16T16:28:14.000Z</time>
</trkpt>
<trkpt lat="57.587569" lon="9.948519">
<ele>18.741709</ele>
<time>2026-07-16T16:28:15.000Z</time>
</trkpt>
<trkpt lat="57.587596" lon="9.948588">
<ele>18.723547</ele>
<time>2026-07-16T16:28:16.000Z</time>
</trkpt>
<trkpt lat="57.587623" lon="9.948653">
<ele>18.706065</ele>
<time>2026-07-16T16:28:17.000Z</time>
</trkpt>
<trkpt lat="57.587645" lon="9.948717">
<ele>18.689901</ele>
<time>2026-07-16T16:28:18.000Z</time>
</trkpt>
<trkpt lat="57.587666" lon="9.948778">
<ele>18.674488</ele>
<time>2026-07-16T16:28:19.000Z</time>
</trkpt>
<trkpt lat="57.587688" lon="9.948842">
<ele>18.658325</ele>
<time>2026-07-16T16:28:20.000Z</time>
</trkpt>
<trkpt lat="57.587715" lon="9.948912">
<ele>18.639990</ele>
<time>2026-07-16T16:28:21.000Z</time>
</trkpt>
<trkpt lat="57.587745" lon="9.948977">
<ele>18.621755</ele>
<time>2026-07-16T16:28:22.000Z</time>
</trkpt>
<trkpt lat="57.587773" lon="9.949041">
<ele>18.604192</ele>
<time>2026-07-16T16:28:23.000Z</time>
</trkpt>
<trkpt lat="57.587802" lon="9.949109">
<ele>18.585718</ele>
<time>2026-07-16T16:28:24.000Z</time>
</trkpt>
<trkpt lat="57.587833" lon="9.949177">
<ele>18.566740</ele>
<time>2026-07-16T16:28:25.000Z</time>
</trkpt>
<trkpt lat="57.587860" lon="9.949247">
<ele>18.548406</ele>
<time>2026-07-16T16:28:26.000Z</time>
</trkpt>
<trkpt lat="57.587890" lon="9.949316">
<ele>18.529517</ele>
<time>2026-07-16T16:28:27.000Z</time>
</trkpt>
<trkpt lat="57.587918" lon="9.949385">
<ele>18.511119</ele>
<time>2026-07-16T16:28:28.000Z</time>
</trkpt>
<trkpt lat="57.587947" lon="9.949455">
<ele>18.492310</ele>
<time>2026-07-16T16:28:29.000Z</time>
</trkpt>
<trkpt lat="57.587978" lon="9.949522">
<ele>18.473494</ele>
<time>2026-07-16T16:28:30.000Z</time>
</trkpt>
<trkpt lat="57.588008" lon="9.949592">
<ele>18.454440</ele>
<time>2026-07-16T16:28:31.000Z</time>
</trkpt>
<trkpt lat="57.588039" lon="9.949656">
<ele>18.436101</ele>
<time>2026-07-16T16:28:32.000Z</time>
</trkpt>
<trkpt lat="57.588071" lon="9.949729">
<ele>18.416053</ele>
<time>2026-07-16T16:28:33.000Z</time>
</trkpt>
<trkpt lat="57.588103" lon="9.949808">
<ele>18.395002</ele>
<time>2026-07-16T16:28:34.000Z</time>
</trkpt>
<trkpt lat="57.588128" lon="9.949887">
<ele>18.375498</ele>
<time>2026-07-16T16:28:35.000Z</time>
</trkpt>
<trkpt lat="57.588154" lon="9.949964">
<ele>18.356151</ele>
<time>2026-07-16T16:28:36.000Z</time>
</trkpt>
<trkpt lat="57.588184" lon="9.950038">
<ele>18.336426</ele>
<time>2026-07-16T16:28:37.000Z</time>
</trkpt>
<trkpt lat="57.588214" lon="9.950109">
<ele>18.317206</ele>
<time>2026-07-16T16:28:38.000Z</time>
</trkpt>
<trkpt lat="57.588247" lon="9.950177">
<ele>18.297705</ele>
<time>2026-07-16T16:28:39.000Z</time>
</trkpt>
<trkpt lat="57.588276" lon="9.950237">
<ele>18.280529</ele>
<time>2026-07-16T16:28:40.000Z</time>
</trkpt>
<trkpt lat="57.588303" lon="9.950291">
<ele>18.264830</ele>
<time>2026-07-16T16:28:41.000Z</time>
</trkpt>
<trkpt lat="57.588332" lon="9.950333">
<ele>18.250269</ele>
<time>2026-07-16T16:28:42.000Z</time>
</trkpt>
<trkpt lat="57.588363" lon="9.950358">
<ele>18.236874</ele>
<time>2026-07-16T16:28:43.000Z</time>
</trkpt>
<trkpt lat="57.588392" lon="9.950357">
<ele>18.225370</ele>
<time>2026-07-16T16:28:44.000Z</time>
</trkpt>
<trkpt lat="57.588423" lon="9.950329">
<ele>18.211709</ele>
<time>2026-07-16T16:28:45.000Z</time>
</trkpt>
<trkpt lat="57.588453" lon="9.950285">
<ele>18.196574</ele>
<time>2026-07-16T16:28:46.000Z</time>
</trkpt>
<trkpt lat="57.588484" lon="9.950230">
<ele>18.179607</ele>
<time>2026-07-16T16:28:47.000Z</time>
</trkpt>
<trkpt lat="57.588518" lon="9.950174">
<ele>18.161618</ele>
<time>2026-07-16T16:28:48.000Z</time>
</trkpt>
<trkpt lat="57.588549" lon="9.950120">
<ele>18.144797</ele>
<time>2026-07-16T16:28:49.000Z</time>
</trkpt>
<trkpt lat="57.588584" lon="9.950072">
<ele>18.127568</ele>
<time>2026-07-16T16:28:50.000Z</time>
</trkpt>
<trkpt lat="57.588621" lon="9.950029">
<ele>18.093635</ele>
<time>2026-07-16T16:28:51.000Z</time>
</trkpt>
<trkpt lat="57.588653" lon="9.950001">
<ele>18.049110</ele>
<time>2026-07-16T16:28:52.000Z</time>
</trkpt>
<trkpt lat="57.588686" lon="9.949977">
<ele>18.004492</ele>
<time>2026-07-16T16:28:53.000Z</time>
</trkpt>
<trkpt lat="57.588714" lon="9.949956">
<ele>17.966476</ele>
<time>2026-07-16T16:28:54.000Z</time>
</trkpt>
<trkpt lat="57.588730" lon="9.949943">
<ele>17.944492</ele>
<time>2026-07-16T16:28:55.000Z</time>
</trkpt>
<trkpt lat="57.588736" lon="9.949943">
<ele>17.936933</ele>
<time>2026-07-16T16:28:56.000Z</time>
</trkpt>
<trkpt lat="57.588752" lon="9.949938">
<ele>17.916496</ele>
<time>2026-07-16T16:29:17.000Z</time>
</trkpt>
<trkpt lat="57.588764" lon="9.949914">
<ele>17.894335</ele>
<time>2026-07-16T16:29:18.000Z</time>
</trkpt>
<trkpt lat="57.588779" lon="9.949882">
<ele>17.865631</ele>
<time>2026-07-16T16:29:19.000Z</time>
</trkpt>
<trkpt lat="57.588795" lon="9.949851">
<ele>17.836573</ele>
<time>2026-07-16T16:29:20.000Z</time>
</trkpt>
<trkpt lat="57.588818" lon="9.949816">
<ele>17.799183</ele>
<time>2026-07-16T16:29:21.000Z</time>
</trkpt>
<trkpt lat="57.588839" lon="9.949783">
<ele>17.764596</ele>
<time>2026-07-16T16:29:22.000Z</time>
</trkpt>
<trkpt lat="57.588858" lon="9.949757">
<ele>17.734913</ele>
<time>2026-07-16T16:29:23.000Z</time>
</trkpt>
<trkpt lat="57.588874" lon="9.949738">
<ele>17.711020</ele>
<time>2026-07-16T16:29:24.000Z</time>
</trkpt>
<trkpt lat="57.588890" lon="9.949724">
<ele>17.688758</ele>
<time>2026-07-16T16:29:25.000Z</time>
</trkpt>
<trkpt lat="57.588902" lon="9.949721">
<ele>17.673506</ele>
<time>2026-07-16T16:29:26.000Z</time>
</trkpt>
<trkpt lat="57.588916" lon="9.949731">
<ele>17.654621</ele>
<time>2026-07-16T16:29:27.000Z</time>
</trkpt>
<trkpt lat="57.588932" lon="9.949755">
<ele>17.628759</ele>
<time>2026-07-16T16:29:28.000Z</time>
</trkpt>
<trkpt lat="57.588949" lon="9.949792">
<ele>17.595854</ele>
<time>2026-07-16T16:29:29.000Z</time>
</trkpt>
<trkpt lat="57.588969" lon="9.949838">
<ele>17.555860</ele>
<time>2026-07-16T16:29:30.000Z</time>
</trkpt>
<trkpt lat="57.588991" lon="9.949889">
<ele>17.511657</ele>
<time>2026-07-16T16:29:31.000Z</time>
</trkpt>
<trkpt lat="57.589016" lon="9.949944">
<ele>17.462965</ele>
<time>2026-07-16T16:29:32.000Z</time>
</trkpt>
<trkpt lat="57.589039" lon="9.949998">
<ele>17.416394</ele>
<time>2026-07-16T16:29:33.000Z</time>
</trkpt>
<trkpt lat="57.589065" lon="9.950061">
<ele>17.362707</ele>
<time>2026-07-16T16:29:34.000Z</time>
</trkpt>
<trkpt lat="57.589095" lon="9.950124">
<ele>17.305806</ele>
<time>2026-07-16T16:29:35.000Z</time>
</trkpt>
<trkpt lat="57.589123" lon="9.950184">
<ele>17.252090</ele>
<time>2026-07-16T16:29:36.000Z</time>
</trkpt>
<trkpt lat="57.589149" lon="9.950243">
<ele>17.200517</ele>
<time>2026-07-16T16:29:37.000Z</time>
</trkpt>
<trkpt lat="57.589173" lon="9.950307">
<ele>17.147778</ele>
<time>2026-07-16T16:29:38.000Z</time>
</trkpt>
<trkpt lat="57.589202" lon="9.950375">
<ele>17.089103</ele>
<time>2026-07-16T16:29:39.000Z</time>
</trkpt>
<trkpt lat="57.589229" lon="9.950442">
<ele>17.032505</ele>
<time>2026-07-16T16:29:40.000Z</time>
</trkpt>
<trkpt lat="57.589258" lon="9.950506">
<ele>16.975919</ele>
<time>2026-07-16T16:29:41.000Z</time>
</trkpt>
<trkpt lat="57.589289" lon="9.950575">
<ele>16.915128</ele>
<time>2026-07-16T16:29:42.000Z</time>
</trkpt>
<trkpt lat="57.589323" lon="9.950646">
<ele>16.850842</ele>
<time>2026-07-16T16:29:43.000Z</time>
</trkpt>
<trkpt lat="57.589354" lon="9.950717">
<ele>16.789010</ele>
<time>2026-07-16T16:29:44.000Z</time>
</trkpt>
<trkpt lat="57.589387" lon="9.950789">
<ele>16.725045</ele>
<time>2026-07-16T16:29:45.000Z</time>
</trkpt>
<trkpt lat="57.589419" lon="9.950866">
<ele>16.659257</ele>
<time>2026-07-16T16:29:46.000Z</time>
</trkpt>
<trkpt lat="57.589450" lon="9.950942">
<ele>16.594772</ele>
<time>2026-07-16T16:29:47.000Z</time>
</trkpt>
<trkpt lat="57.589478" lon="9.951019">
<ele>16.531946</ele>
<time>2026-07-16T16:29:48.000Z</time>
</trkpt>
<trkpt lat="57.589510" lon="9.951096">
<ele>16.466158</ele>
<time>2026-07-16T16:29:49.000Z</time>
</trkpt>
<trkpt lat="57.589541" lon="9.951172">
<ele>16.401674</ele>
<time>2026-07-16T16:29:50.000Z</time>
</trkpt>
<trkpt lat="57.589572" lon="9.951245">
<ele>16.338789</ele>
<time>2026-07-16T16:29:51.000Z</time>
</trkpt>
<trkpt lat="57.589605" lon="9.951317">
<ele>16.274824</ele>
<time>2026-07-16T16:29:52.000Z</time>
</trkpt>
<trkpt lat="57.589637" lon="9.951392">
<ele>16.210098</ele>
<time>2026-07-16T16:29:53.000Z</time>
</trkpt>
<trkpt lat="57.589667" lon="9.951467">
<ele>16.146911</ele>
<time>2026-07-16T16:29:54.000Z</time>
</trkpt>
<trkpt lat="57.589697" lon="9.951546">
<ele>16.081540</ele>
<time>2026-07-16T16:29:55.000Z</time>
</trkpt>
<trkpt lat="57.589728" lon="9.951626">
<ele>16.014886</ele>
<time>2026-07-16T16:29:56.000Z</time>
</trkpt>
<trkpt lat="57.589759" lon="9.951705">
<ele>15.948778</ele>
<time>2026-07-16T16:29:57.000Z</time>
</trkpt>
<trkpt lat="57.589791" lon="9.951781">
<ele>15.883523</ele>
<time>2026-07-16T16:29:58.000Z</time>
</trkpt>
<trkpt lat="57.589825" lon="9.951861">
<ele>15.842400</ele>
<time>2026-07-16T16:29:59.000Z</time>
</trkpt>
<trkpt lat="57.589855" lon="9.951930">
<ele>15.826880</ele>
<time>2026-07-16T16:30:00.000Z</time>
</trkpt>
<trkpt lat="57.589891" lon="9.952010">
<ele>15.808633</ele>
<time>2026-07-16T16:30:01.000Z</time>
</trkpt>
<trkpt lat="57.589926" lon="9.952092">
<ele>15.790323</ele>
<time>2026-07-16T16:30:02.000Z</time>
</trkpt>
<trkpt lat="57.589961" lon="9.952165">
<ele>15.773214</ele>
<time>2026-07-16T16:30:03.000Z</time>
</trkpt>
<trkpt lat="57.589998" lon="9.952236">
<ele>15.755916</ele>
<time>2026-07-16T16:30:04.000Z</time>
</trkpt>
<trkpt lat="57.590032" lon="9.952302">
<ele>15.739926</ele>
<time>2026-07-16T16:30:05.000Z</time>
</trkpt>
<trkpt lat="57.590066" lon="9.952366">
<ele>15.724185</ele>
<time>2026-07-16T16:30:06.000Z</time>
</trkpt>
<trkpt lat="57.590103" lon="9.952429">
<ele>15.707860</ele>
<time>2026-07-16T16:30:07.000Z</time>
</trkpt>
<trkpt lat="57.590139" lon="9.952492">
<ele>15.691775</ele>
<time>2026-07-16T16:30:08.000Z</time>
</trkpt>
<trkpt lat="57.590174" lon="9.952557">
<ele>15.675680</ele>
<time>2026-07-16T16:30:09.000Z</time>
</trkpt>
<trkpt lat="57.590208" lon="9.952627">
<ele>15.659179</ele>
<time>2026-07-16T16:30:10.000Z</time>
</trkpt>
<trkpt lat="57.590242" lon="9.952695">
<ele>15.642935</ele>
<time>2026-07-16T16:30:11.000Z</time>
</trkpt>
<trkpt lat="57.590276" lon="9.952761">
<ele>15.626945</ele>
<time>2026-07-16T16:30:12.000Z</time>
</trkpt>
<trkpt lat="57.590311" lon="9.952826">
<ele>15.610850</ele>
<time>2026-07-16T16:30:13.000Z</time>
</trkpt>
<trkpt lat="57.590343" lon="9.952891">
<ele>15.595434</ele>
<time>2026-07-16T16:30:14.000Z</time>
</trkpt>
<trkpt lat="57.590376" lon="9.952954">
<ele>15.580047</ele>
<time>2026-07-16T16:30:15.000Z</time>
</trkpt>
<trkpt lat="57.590410" lon="9.953018">
<ele>15.564306</ele>
<time>2026-07-16T16:30:16.000Z</time>
</trkpt>
<trkpt lat="57.590445" lon="9.953081">
<ele>15.548457</ele>
<time>2026-07-16T16:30:17.000Z</time>
</trkpt>
<trkpt lat="57.590479" lon="9.953144">
<ele>15.532840</ele>
<time>2026-07-16T16:30:18.000Z</time>
</trkpt>
<trkpt lat="57.590510" lon="9.953207">
<ele>15.517901</ele>
<time>2026-07-16T16:30:19.000Z</time>
</trkpt>
<trkpt lat="57.590544" lon="9.953273">
<ele>15.501911</ele>
<time>2026-07-16T16:30:20.000Z</time>
</trkpt>
<trkpt lat="57.590578" lon="9.953339">
<ele>15.485920</ele>
<time>2026-07-16T16:30:21.000Z</time>
</trkpt>
<trkpt lat="57.590613" lon="9.953408">
<ele>15.469326</ele>
<time>2026-07-16T16:30:22.000Z</time>
</trkpt>
<trkpt lat="57.590650" lon="9.953478">
<ele>15.452153</ele>
<time>2026-07-16T16:30:23.000Z</time>
</trkpt>
<trkpt lat="57.590685" lon="9.953547">
<ele>15.435559</ele>
<time>2026-07-16T16:30:24.000Z</time>
</trkpt>
<trkpt lat="57.590722" lon="9.953617">
<ele>15.418386</ele>
<time>2026-07-16T16:30:25.000Z</time>
</trkpt>
<trkpt lat="57.590758" lon="9.953684">
<ele>15.401814</ele>
<time>2026-07-16T16:30:26.000Z</time>
</trkpt>
<trkpt lat="57.590789" lon="9.953753">
<ele>15.386087</ele>
<time>2026-07-16T16:30:27.000Z</time>
</trkpt>
<trkpt lat="57.590822" lon="9.953827">
<ele>15.369272</ele>
<time>2026-07-16T16:30:28.000Z</time>
</trkpt>
<trkpt lat="57.590851" lon="9.953902">
<ele>15.353118</ele>
<time>2026-07-16T16:30:29.000Z</time>
</trkpt>
<trkpt lat="57.590881" lon="9.953981">
<ele>15.336207</ele>
<time>2026-07-16T16:30:30.000Z</time>
</trkpt>
<trkpt lat="57.590908" lon="9.954063">
<ele>15.319397</ele>
<time>2026-07-16T16:30:31.000Z</time>
</trkpt>
<trkpt lat="57.590935" lon="9.954146">
<ele>15.302437</ele>
<time>2026-07-16T16:30:32.000Z</time>
</trkpt>
<trkpt lat="57.590958" lon="9.954230">
<ele>15.285961</ele>
<time>2026-07-16T16:30:33.000Z</time>
</trkpt>
<trkpt lat="57.590979" lon="9.954314">
<ele>15.269771</ele>
<time>2026-07-16T16:30:34.000Z</time>
</trkpt>
<trkpt lat="57.590998" lon="9.954400">
<ele>15.224340</ele>
<time>2026-07-16T16:30:35.000Z</time>
</trkpt>
<trkpt lat="57.591012" lon="9.954490">
<ele>15.169435</ele>
<time>2026-07-16T16:30:36.000Z</time>
</trkpt>
<trkpt lat="57.591026" lon="9.954577">
<ele>15.116216</ele>
<time>2026-07-16T16:30:37.000Z</time>
</trkpt>
<trkpt lat="57.591035" lon="9.954659">
<ele>15.067177</ele>
<time>2026-07-16T16:30:38.000Z</time>
</trkpt>
<trkpt lat="57.591043" lon="9.954746">
<ele>15.015461</ele>
<time>2026-07-16T16:30:39.000Z</time>
</trkpt>
<trkpt lat="57.591051" lon="9.954837">
<ele>14.961434</ele>
<time>2026-07-16T16:30:40.000Z</time>
</trkpt>
<trkpt lat="57.591056" lon="9.954924">
<ele>14.910170</ele>
<time>2026-07-16T16:30:41.000Z</time>
</trkpt>
<trkpt lat="57.591065" lon="9.955007">
<ele>14.860557</ele>
<time>2026-07-16T16:30:42.000Z</time>
</trkpt>
<trkpt lat="57.591077" lon="9.955083">
<ele>14.814138</ele>
<time>2026-07-16T16:30:43.000Z</time>
</trkpt>
<trkpt lat="57.591085" lon="9.955163">
<ele>14.766459</ele>
<time>2026-07-16T16:30:44.000Z</time>
</trkpt>
<trkpt lat="57.591090" lon="9.955243">
<ele>14.719272</ele>
<time>2026-07-16T16:30:45.000Z</time>
</trkpt>
<trkpt lat="57.591091" lon="9.955322">
<ele>14.672975</ele>
<time>2026-07-16T16:30:46.000Z</time>
</trkpt>
<trkpt lat="57.591094" lon="9.955398">
<ele>14.628327</ele>
<time>2026-07-16T16:30:47.000Z</time>
</trkpt>
<trkpt lat="57.591103" lon="9.955475">
<ele>14.582155</ele>
<time>2026-07-16T16:30:48.000Z</time>
</trkpt>
<trkpt lat="57.591112" lon="9.955547">
<ele>14.538840</ele>
<time>2026-07-16T16:30:49.000Z</time>
</trkpt>
<trkpt lat="57.591125" lon="9.955610">
<ele>14.499288</ele>
<time>2026-07-16T16:30:50.000Z</time>
</trkpt>
<trkpt lat="57.591140" lon="9.955674">
<ele>14.458364</ele>
<time>2026-07-16T16:30:51.000Z</time>
</trkpt>
<trkpt lat="57.591153" lon="9.955738">
<ele>14.418265</ele>
<time>2026-07-16T16:30:52.000Z</time>
</trkpt>
<trkpt lat="57.591167" lon="9.955796">
<ele>14.380997</ele>
<time>2026-07-16T16:30:53.000Z</time>
</trkpt>
<trkpt lat="57.591179" lon="9.955848">
<ele>14.347828</ele>
<time>2026-07-16T16:30:54.000Z</time>
</trkpt>
<trkpt lat="57.591191" lon="9.955894">
<ele>14.317854</ele>
<time>2026-07-16T16:30:55.000Z</time>
</trkpt>
<trkpt lat="57.591202" lon="9.955938">
<ele>14.289409</ele>
<time>2026-07-16T16:30:56.000Z</time>
</trkpt>
<trkpt lat="57.591211" lon="9.955981">
<ele>14.262364</ele>
<time>2026-07-16T16:30:57.000Z</time>
</trkpt>
<trkpt lat="57.591219" lon="9.956023">
<ele>14.236249</ele>
<time>2026-07-16T16:30:58.000Z</time>
</trkpt>
<trkpt lat="57.591224" lon="9.956063">
<ele>14.212186</ele>
<time>2026-07-16T16:30:59.000Z</time>
</trkpt>
<trkpt lat="57.591227" lon="9.956100">
<ele>14.190262</ele>
<time>2026-07-16T16:31:00.000Z</time>
</trkpt>
<trkpt lat="57.591231" lon="9.956133">
<ele>14.170439</ele>
<time>2026-07-16T16:31:01.000Z</time>
</trkpt>
<trkpt lat="57.591235" lon="9.956168">
<ele>14.149473</ele>
<time>2026-07-16T16:31:02.000Z</time>
</trkpt>
<trkpt lat="57.591244" lon="9.956203">
<ele>14.126729</ele>
<time>2026-07-16T16:31:03.000Z</time>
</trkpt>
<trkpt lat="57.591255" lon="9.956234">
<ele>14.104947</ele>
<time>2026-07-16T16:31:04.000Z</time>
</trkpt>
<trkpt lat="57.591267" lon="9.956263">
<ele>14.083482</ele>
<time>2026-07-16T16:31:05.000Z</time>
</trkpt>
<trkpt lat="57.591279" lon="9.956290">
<ele>14.062933</ele>
<time>2026-07-16T16:31:06.000Z</time>
</trkpt>
<trkpt lat="57.591287" lon="9.956316">
<ele>14.045368</ele>
<time>2026-07-16T16:31:07.000Z</time>
</trkpt>
<trkpt lat="57.591298" lon="9.956343">
<ele>14.025498</ele>
<time>2026-07-16T16:31:08.000Z</time>
</trkpt>
<trkpt lat="57.591307" lon="9.956370">
<ele>14.006870</ele>
<time>2026-07-16T16:31:09.000Z</time>
</trkpt>
<trkpt lat="57.591314" lon="9.956401">
<ele>13.987161</ele>
<time>2026-07-16T16:31:10.000Z</time>
</trkpt>
<trkpt lat="57.591324" lon="9.956441">
<ele>13.961302</ele>
<time>2026-07-16T16:31:11.000Z</time>
</trkpt>
<trkpt lat="57.591336" lon="9.956489">
<ele>13.930272</ele>
<time>2026-07-16T16:31:12.000Z</time>
</trkpt>
<trkpt lat="57.591350" lon="9.956537">
<ele>13.898255</ele>
<time>2026-07-16T16:31:13.000Z</time>
</trkpt>
<trkpt lat="57.591368" lon="9.956586">
<ele>13.863451</ele>
<time>2026-07-16T16:31:14.000Z</time>
</trkpt>
<trkpt lat="57.591384" lon="9.956633">
<ele>13.830830</ele>
<time>2026-07-16T16:31:15.000Z</time>
</trkpt>
<trkpt lat="57.591400" lon="9.956681">
<ele>13.797713</ele>
<time>2026-07-16T16:31:16.000Z</time>
</trkpt>
<trkpt lat="57.591412" lon="9.956730">
<ele>13.766151</ele>
<time>2026-07-16T16:31:17.000Z</time>
</trkpt>
<trkpt lat="57.591424" lon="9.956780">
<ele>13.734054</ele>
<time>2026-07-16T16:31:18.000Z</time>
</trkpt>
<trkpt lat="57.591435" lon="9.956828">
<ele>13.703469</ele>
<time>2026-07-16T16:31:19.000Z</time>
</trkpt>
<trkpt lat="57.591452" lon="9.956880">
<ele>13.667784</ele>
<time>2026-07-16T16:31:20.000Z</time>
</trkpt>
<trkpt lat="57.591471" lon="9.956936">
<ele>13.628953</ele>
<time>2026-07-16T16:31:21.000Z</time>
</trkpt>
<trkpt lat="57.591487" lon="9.956994">
<ele>13.590736</ele>
<time>2026-07-16T16:31:22.000Z</time>
</trkpt>
<trkpt lat="57.591505" lon="9.957054">
<ele>13.550451</ele>
<time>2026-07-16T16:31:23.000Z</time>
</trkpt>
<trkpt lat="57.591522" lon="9.957122">
<ele>13.506491</ele>
<time>2026-07-16T16:31:24.000Z</time>
</trkpt>
<trkpt lat="57.591539" lon="9.957187">
<ele>13.464117</ele>
<time>2026-07-16T16:31:25.000Z</time>
</trkpt>
<trkpt lat="57.591562" lon="9.957254">
<ele>13.417502</ele>
<time>2026-07-16T16:31:26.000Z</time>
</trkpt>
<trkpt lat="57.591585" lon="9.957319">
<ele>13.371870</ele>
<time>2026-07-16T16:31:27.000Z</time>
</trkpt>
<trkpt lat="57.591605" lon="9.957390">
<ele>13.324878</ele>
<time>2026-07-16T16:31:28.000Z</time>
</trkpt>
<trkpt lat="57.591620" lon="9.957462">
<ele>13.314501</ele>
<time>2026-07-16T16:31:29.000Z</time>
</trkpt>
<trkpt lat="57.591639" lon="9.957539">
<ele>13.350880</ele>
<time>2026-07-16T16:31:30.000Z</time>
</trkpt>
<trkpt lat="57.591657" lon="9.957608">
<ele>13.383813</ele>
<time>2026-07-16T16:31:31.000Z</time>
</trkpt>
<trkpt lat="57.591680" lon="9.957670">
<ele>13.416172</ele>
<time>2026-07-16T16:31:32.000Z</time>
</trkpt>
<trkpt lat="57.591697" lon="9.957722">
<ele>13.442312</ele>
<time>2026-07-16T16:31:33.000Z</time>
</trkpt>
<trkpt lat="57.591710" lon="9.957766">
<ele>13.463873</ele>
<time>2026-07-16T16:31:34.000Z</time>
</trkpt>
<trkpt lat="57.591718" lon="9.957803">
<ele>13.480995</ele>
<time>2026-07-16T16:31:35.000Z</time>
</trkpt>
<trkpt lat="57.591726" lon="9.957844">
<ele>13.499720</ele>
<time>2026-07-16T16:31:36.000Z</time>
</trkpt>
<trkpt lat="57.591736" lon="9.957889">
<ele>13.520626</ele>
<time>2026-07-16T16:31:37.000Z</time>
</trkpt>
<trkpt lat="57.591745" lon="9.957934">
<ele>13.541239</ele>
<time>2026-07-16T16:31:38.000Z</time>
</trkpt>
<trkpt lat="57.591755" lon="9.957972">
<ele>13.559406</ele>
<time>2026-07-16T16:31:39.000Z</time>
</trkpt>
<trkpt lat="57.591769" lon="9.957996">
<ele>13.574629</ele>
<time>2026-07-16T16:31:40.000Z</time>
</trkpt>
<trkpt lat="57.591782" lon="9.957998">
<ele>13.585074</ele>
<time>2026-07-16T16:31:41.000Z</time>
</trkpt>
<trkpt lat="57.591791" lon="9.957980">
<ele>13.595638</ele>
<time>2026-07-16T16:31:42.000Z</time>
</trkpt>
<trkpt lat="57.591789" lon="9.957945">
<ele>13.610744</ele>
<time>2026-07-16T16:31:48.000Z</time>
</trkpt>
<trkpt lat="57.591775" lon="9.957890">
<ele>13.636874</ele>
<time>2026-07-16T16:31:49.000Z</time>
</trkpt>
<trkpt lat="57.591762" lon="9.957840">
<ele>13.660723</ele>
<time>2026-07-16T16:31:50.000Z</time>
</trkpt>
<trkpt lat="57.591750" lon="9.957796">
<ele>13.681909</ele>
<time>2026-07-16T16:31:51.000Z</time>
</trkpt>
<trkpt lat="57.591736" lon="9.957751">
<ele>13.704239</ele>
<time>2026-07-16T16:31:52.000Z</time>
</trkpt>
<trkpt lat="57.591721" lon="9.957702">
<ele>13.728456</ele>
<time>2026-07-16T16:31:53.000Z</time>
</trkpt>
<trkpt lat="57.591706" lon="9.957650">
<ele>13.753798</ele>
<time>2026-07-16T16:31:54.000Z</time>
</trkpt>
<trkpt lat="57.591688" lon="9.957595">
<ele>13.781454</ele>
<time>2026-07-16T16:31:55.000Z</time>
</trkpt>
<trkpt lat="57.591671" lon="9.957535">
<ele>13.810580</ele>
<time>2026-07-16T16:31:56.000Z</time>
</trkpt>
<trkpt lat="57.591653" lon="9.957476">
<ele>13.839715</ele>
<time>2026-07-16T16:31:57.000Z</time>
</trkpt>
<trkpt lat="57.591637" lon="9.957417">
<ele>13.868091</ele>
<time>2026-07-16T16:31:58.000Z</time>
</trkpt>
<trkpt lat="57.591619" lon="9.957359">
<ele>13.896854</ele>
<time>2026-07-16T16:31:59.000Z</time>
</trkpt>
<trkpt lat="57.591600" lon="9.957301">
<ele>13.926026</ele>
<time>2026-07-16T16:32:00.000Z</time>
</trkpt>
<trkpt lat="57.591584" lon="9.957240">
<ele>13.955171</ele>
<time>2026-07-16T16:32:01.000Z</time>
</trkpt>
<trkpt lat="57.591566" lon="9.957178">
<ele>13.985431</ele>
<time>2026-07-16T16:32:02.000Z</time>
</trkpt>
<trkpt lat="57.591547" lon="9.957115">
<ele>14.016454</ele>
<time>2026-07-16T16:32:03.000Z</time>
</trkpt>
<trkpt lat="57.591527" lon="9.957054">
<ele>14.047142</ele>
<time>2026-07-16T16:32:04.000Z</time>
</trkpt>
<trkpt lat="57.591508" lon="9.956996">
<ele>14.076314</ele>
<time>2026-07-16T16:32:05.000Z</time>
</trkpt>
<trkpt lat="57.591489" lon="9.956936">
<ele>14.106222</ele>
<time>2026-07-16T16:32:06.000Z</time>
</trkpt>
<trkpt lat="57.591470" lon="9.956878">
<ele>14.135394</ele>
<time>2026-07-16T16:32:07.000Z</time>
</trkpt>
<trkpt lat="57.591451" lon="9.956822">
<ele>14.163837</ele>
<time>2026-07-16T16:32:08.000Z</time>
</trkpt>
<trkpt lat="57.591432" lon="9.956772">
<ele>14.190141</ele>
<time>2026-07-16T16:32:09.000Z</time>
</trkpt>
<trkpt lat="57.591416" lon="9.956719">
<ele>14.216246</ele>
<time>2026-07-16T16:32:10.000Z</time>
</trkpt>
<trkpt lat="57.591401" lon="9.956662">
<ele>14.243498</ele>
<time>2026-07-16T16:32:11.000Z</time>
</trkpt>
<trkpt lat="57.591385" lon="9.956604">
<ele>14.271492</ele>
<time>2026-07-16T16:32:12.000Z</time>
</trkpt>
<trkpt lat="57.591367" lon="9.956547">
<ele>14.299884</ele>
<time>2026-07-16T16:32:13.000Z</time>
</trkpt>
<trkpt lat="57.591351" lon="9.956489">
<ele>14.327879</ele>
<time>2026-07-16T16:32:14.000Z</time>
</trkpt>
<trkpt lat="57.591333" lon="9.956430">
<ele>14.357013</ele>
<time>2026-07-16T16:32:15.000Z</time>
</trkpt>
<trkpt lat="57.591311" lon="9.956372">
<ele>14.387507</ele>
<time>2026-07-16T16:32:16.000Z</time>
</trkpt>
<trkpt lat="57.591288" lon="9.956325">
<ele>14.414821</ele>
<time>2026-07-16T16:32:17.000Z</time>
</trkpt>
<trkpt lat="57.591263" lon="9.956291">
<ele>14.439592</ele>
<time>2026-07-16T16:32:18.000Z</time>
</trkpt>
<trkpt lat="57.591236" lon="9.956270">
<ele>14.463015</ele>
<time>2026-07-16T16:32:19.000Z</time>
</trkpt>
<trkpt lat="57.591210" lon="9.956264">
<ele>14.483993</ele>
<time>2026-07-16T16:32:20.000Z</time>
</trkpt>
<trkpt lat="57.591183" lon="9.956268">
<ele>14.505680</ele>
<time>2026-07-16T16:32:21.000Z</time>
</trkpt>
<trkpt lat="57.591157" lon="9.956278">
<ele>14.526937</ele>
<time>2026-07-16T16:32:22.000Z</time>
</trkpt>
<trkpt lat="57.591129" lon="9.956290">
<ele>14.549941</ele>
<time>2026-07-16T16:32:23.000Z</time>
</trkpt>
<trkpt lat="57.591102" lon="9.956301">
<ele>14.572070</ele>
<time>2026-07-16T16:32:24.000Z</time>
</trkpt>
<trkpt lat="57.591081" lon="9.956314">
<ele>14.589787</ele>
<time>2026-07-16T16:32:25.000Z</time>
</trkpt>
<trkpt lat="57.591059" lon="9.956327">
<ele>14.608265</ele>
<time>2026-07-16T16:32:26.000Z</time>
</trkpt>
<trkpt lat="57.591036" lon="9.956344">
<ele>14.628074</ele>
<time>2026-07-16T16:32:27.000Z</time>
</trkpt>
<trkpt lat="57.591011" lon="9.956363">
<ele>14.649689</ele>
<time>2026-07-16T16:32:28.000Z</time>
</trkpt>
<trkpt lat="57.590987" lon="9.956378">
<ele>14.669956</ele>
<time>2026-07-16T16:32:29.000Z</time>
</trkpt>
<trkpt lat="57.590964" lon="9.956380">
<ele>14.688393</ele>
<time>2026-07-16T16:32:30.000Z</time>
</trkpt>
<trkpt lat="57.590935" lon="9.956376">
<ele>14.711677</ele>
<time>2026-07-16T16:32:31.000Z</time>
</trkpt>
<trkpt lat="57.590908" lon="9.956374">
<ele>14.733314</ele>
<time>2026-07-16T16:32:32.000Z</time>
</trkpt>
<trkpt lat="57.590881" lon="9.956378">
<ele>14.746711</ele>
<time>2026-07-16T16:32:33.000Z</time>
</trkpt>
<trkpt lat="57.590857" lon="9.956394">
<ele>14.755858</ele>
<time>2026-07-16T16:32:34.000Z</time>
</trkpt>
<trkpt lat="57.590837" lon="9.956421">
<ele>14.764718</ele>
<time>2026-07-16T16:32:35.000Z</time>
</trkpt>
<trkpt lat="57.590823" lon="9.956455">
<ele>14.772966</ele>
<time>2026-07-16T16:32:36.000Z</time>
</trkpt>
<trkpt lat="57.590815" lon="9.956495">
<ele>14.781179</ele>
<time>2026-07-16T16:32:37.000Z</time>
</trkpt>
<trkpt lat="57.590805" lon="9.956536">
<ele>14.789845</ele>
<time>2026-07-16T16:32:38.000Z</time>
</trkpt>
<trkpt lat="57.590796" lon="9.956584">
<ele>14.799627</ele>
<time>2026-07-16T16:32:39.000Z</time>
</trkpt>
<trkpt lat="57.590791" lon="9.956634">
<ele>14.809411</ele>
<time>2026-07-16T16:32:40.000Z</time>
</trkpt>
<trkpt lat="57.590782" lon="9.956686">
<ele>14.819923</ele>
<time>2026-07-16T16:32:41.000Z</time>
</trkpt>
<trkpt lat="57.590770" lon="9.956741">
<ele>14.831346</ele>
<time>2026-07-16T16:32:42.000Z</time>
</trkpt>
<trkpt lat="57.590764" lon="9.956795">
<ele>14.841955</ele>
<time>2026-07-16T16:32:43.000Z</time>
</trkpt>
<trkpt lat="57.590760" lon="9.956847">
<ele>14.852061</ele>
<time>2026-07-16T16:32:44.000Z</time>
</trkpt>
<trkpt lat="57.590754" lon="9.956911">
<ele>14.864559</ele>
<time>2026-07-16T16:32:45.000Z</time>
</trkpt>
<trkpt lat="57.590752" lon="9.956975">
<ele>14.876892</ele>
<time>2026-07-16T16:32:46.000Z</time>
</trkpt>
<trkpt lat="57.590752" lon="9.957040">
<ele>14.889396</ele>
<time>2026-07-16T16:32:47.000Z</time>
</trkpt>
<trkpt lat="57.590746" lon="9.957104">
<ele>14.901894</ele>
<time>2026-07-16T16:32:48.000Z</time>
</trkpt>
<trkpt lat="57.590741" lon="9.957174">
<ele>14.915479</ele>
<time>2026-07-16T16:32:49.000Z</time>
</trkpt>
<trkpt lat="57.590740" lon="9.957246">
<ele>14.929334</ele>
<time>2026-07-16T16:32:50.000Z</time>
</trkpt>
<trkpt lat="57.590740" lon="9.957320">
<ele>14.943569</ele>
<time>2026-07-16T16:32:51.000Z</time>
</trkpt>
<trkpt lat="57.590737" lon="9.957393">
<ele>14.957653</ele>
<time>2026-07-16T16:32:52.000Z</time>
</trkpt>
<trkpt lat="57.590734" lon="9.957464">
<ele>14.971354</ele>
<time>2026-07-16T16:32:53.000Z</time>
</trkpt>
<trkpt lat="57.590733" lon="9.957533">
<ele>14.984632</ele>
<time>2026-07-16T16:32:54.000Z</time>
</trkpt>
<trkpt lat="57.590735" lon="9.957614">
<ele>15.000230</ele>
<time>2026-07-16T16:32:55.000Z</time>
</trkpt>
<trkpt lat="57.590739" lon="9.957700">
<ele>15.016836</ele>
<time>2026-07-16T16:32:56.000Z</time>
</trkpt>
<trkpt lat="57.590737" lon="9.957786">
<ele>15.033396</ele>
<time>2026-07-16T16:32:57.000Z</time>
</trkpt>
<trkpt lat="57.590736" lon="9.957872">
<ele>15.049943</ele>
<time>2026-07-16T16:32:58.000Z</time>
</trkpt>
<trkpt lat="57.590734" lon="9.957943">
<ele>15.063620</ele>
<time>2026-07-16T16:32:59.000Z</time>
</trkpt>
<trkpt lat="57.590733" lon="9.958025">
<ele>15.079398</ele>
<time>2026-07-16T16:33:00.000Z</time>
</trkpt>
<trkpt lat="57.590733" lon="9.958109">
<ele>15.095557</ele>
<time>2026-07-16T16:33:01.000Z</time>
</trkpt>
<trkpt lat="57.590733" lon="9.958186">
<ele>15.110370</ele>
<time>2026-07-16T16:33:02.000Z</time>
</trkpt>
<trkpt lat="57.590733" lon="9.958259">
<ele>15.124412</ele>
<time>2026-07-16T16:33:03.000Z</time>
</trkpt>
<trkpt lat="57.590733" lon="9.958332">
<ele>15.138455</ele>
<time>2026-07-16T16:33:04.000Z</time>
</trkpt>
<trkpt lat="57.590738" lon="9.958394">
<ele>15.150516</ele>
<time>2026-07-16T16:33:05.000Z</time>
</trkpt>
<trkpt lat="57.590743" lon="9.958462">
<ele>15.163720</ele>
<time>2026-07-16T16:33:06.000Z</time>
</trkpt>
<trkpt lat="57.590750" lon="9.958538">
<ele>15.178554</ele>
<time>2026-07-16T16:33:07.000Z</time>
</trkpt>
<trkpt lat="57.590754" lon="9.958622">
<ele>15.194777</ele>
<time>2026-07-16T16:33:08.000Z</time>
</trkpt>
<trkpt lat="57.590758" lon="9.958694">
<ele>15.208701</ele>
<time>2026-07-16T16:33:09.000Z</time>
</trkpt>
<trkpt lat="57.590759" lon="9.958769">
<ele>15.223134</ele>
<time>2026-07-16T16:33:10.000Z</time>
</trkpt>
<trkpt lat="57.590759" lon="9.958841">
<ele>15.236984</ele>
<time>2026-07-16T16:33:11.000Z</time>
</trkpt>
<trkpt lat="57.590762" lon="9.958913">
<ele>15.250876</ele>
<time>2026-07-16T16:33:12.000Z</time>
</trkpt>
<trkpt lat="57.590763" lon="9.958983">
<ele>15.264347</ele>
<time>2026-07-16T16:33:13.000Z</time>
</trkpt>
<trkpt lat="57.590763" lon="9.959057">
<ele>15.278582</ele>
<time>2026-07-16T16:33:14.000Z</time>
</trkpt>
<trkpt lat="57.590766" lon="9.959127">
<ele>15.292091</ele>
<time>2026-07-16T16:33:15.000Z</time>
</trkpt>
<trkpt lat="57.590767" lon="9.959198">
<ele>15.305754</ele>
<time>2026-07-16T16:33:16.000Z</time>
</trkpt>
<trkpt lat="57.590770" lon="9.959265">
<ele>15.318687</ele>
<time>2026-07-16T16:33:17.000Z</time>
</trkpt>
<trkpt lat="57.590768" lon="9.959339">
<ele>15.332941</ele>
<time>2026-07-16T16:33:18.000Z</time>
</trkpt>
<trkpt lat="57.590767" lon="9.959411">
<ele>15.346796</ele>
<time>2026-07-16T16:33:19.000Z</time>
</trkpt>
<trkpt lat="57.590767" lon="9.959488">
<ele>15.361608</ele>
<time>2026-07-16T16:33:20.000Z</time>
</trkpt>
<trkpt lat="57.590767" lon="9.959570">
<ele>15.377382</ele>
<time>2026-07-16T16:33:21.000Z</time>
</trkpt>
<trkpt lat="57.590767" lon="9.959650">
<ele>15.377379</ele>
<time>2026-07-16T16:33:22.000Z</time>
</trkpt>
<trkpt lat="57.590767" lon="9.959732">
<ele>15.359557</ele>
<time>2026-07-16T16:33:23.000Z</time>
</trkpt>
<trkpt lat="57.590764" lon="9.959817">
<ele>15.341043</ele>
<time>2026-07-16T16:33:24.000Z</time>
</trkpt>
<trkpt lat="57.590760" lon="9.959898">
<ele>15.323364</ele>
<time>2026-07-16T16:33:25.000Z</time>
</trkpt>
<trkpt lat="57.590754" lon="9.959984">
<ele>15.304515</ele>
<time>2026-07-16T16:33:26.000Z</time>
</trkpt>
<trkpt lat="57.590752" lon="9.960067">
<ele>15.286458</ele>
<time>2026-07-16T16:33:27.000Z</time>
</trkpt>
<trkpt lat="57.590743" lon="9.960150">
<ele>15.268053</ele>
<time>2026-07-16T16:33:28.000Z</time>
</trkpt>
<trkpt lat="57.590737" lon="9.960233">
<ele>15.249851</ele>
<time>2026-07-16T16:33:29.000Z</time>
</trkpt>
<trkpt lat="57.590739" lon="9.960309">
<ele>15.233313</ele>
<time>2026-07-16T16:33:30.000Z</time>
</trkpt>
<trkpt lat="57.590738" lon="9.960380">
<ele>15.217877</ele>
<time>2026-07-16T16:33:31.000Z</time>
</trkpt>
<trkpt lat="57.590734" lon="9.960455">
<ele>15.201496</ele>
<time>2026-07-16T16:33:32.000Z</time>
</trkpt>
<trkpt lat="57.590703" lon="9.960570">
<ele>15.173519</ele>
<time>2026-07-16T16:33:33.000Z</time>
</trkpt>
<trkpt lat="57.590677" lon="9.960679">
<ele>15.147589</ele>
<time>2026-07-16T16:33:34.000Z</time>
</trkpt>
<trkpt lat="57.590660" lon="9.960776">
<ele>15.125408</ele>
<time>2026-07-16T16:33:35.000Z</time>
</trkpt>
<trkpt lat="57.590648" lon="9.960869">
<ele>15.104618</ele>
<time>2026-07-16T16:33:36.000Z</time>
</trkpt>
<trkpt lat="57.590637" lon="9.960959">
<ele>15.084555</ele>
<time>2026-07-16T16:33:37.000Z</time>
</trkpt>
<trkpt lat="57.590628" lon="9.961042">
<ele>15.066151</ele>
<time>2026-07-16T16:33:38.000Z</time>
</trkpt>
<trkpt lat="57.590620" lon="9.961123">
<ele>15.048250</ele>
<time>2026-07-16T16:33:39.000Z</time>
</trkpt>
<trkpt lat="57.590610" lon="9.961214">
<ele>15.028060</ele>
<time>2026-07-16T16:33:40.000Z</time>
</trkpt>
<trkpt lat="57.590596" lon="9.961301">
<ele>15.008318</ele>
<time>2026-07-16T16:33:41.000Z</time>
</trkpt>
<trkpt lat="57.590583" lon="9.961384">
<ele>14.989524</ele>
<time>2026-07-16T16:33:42.000Z</time>
</trkpt>
<trkpt lat="57.590572" lon="9.961466">
<ele>14.971153</ele>
<time>2026-07-16T16:33:43.000Z</time>
</trkpt>
<trkpt lat="57.590561" lon="9.961548">
<ele>14.952781</ele>
<time>2026-07-16T16:33:44.000Z</time>
</trkpt>
<trkpt lat="57.590546" lon="9.961638">
<ele>14.932297</ele>
<time>2026-07-16T16:33:45.000Z</time>
</trkpt>
<trkpt lat="57.590531" lon="9.961723">
<ele>14.912847</ele>
<time>2026-07-16T16:33:46.000Z</time>
</trkpt>
<trkpt lat="57.590521" lon="9.961805">
<ele>14.894570</ele>
<time>2026-07-16T16:33:47.000Z</time>
</trkpt>
<trkpt lat="57.590516" lon="9.961888">
<ele>14.876417</ele>
<time>2026-07-16T16:33:48.000Z</time>
</trkpt>
<trkpt lat="57.590512" lon="9.961973">
<ele>14.857872</ele>
<time>2026-07-16T16:33:49.000Z</time>
</trkpt>
<trkpt lat="57.590506" lon="9.962054">
<ele>14.840100</ele>
<time>2026-07-16T16:33:50.000Z</time>
</trkpt>
<trkpt lat="57.590501" lon="9.962136">
<ele>14.822163</ele>
<time>2026-07-16T16:33:51.000Z</time>
</trkpt>
<trkpt lat="57.590494" lon="9.962224">
<ele>14.802828</ele>
<time>2026-07-16T16:33:52.000Z</time>
</trkpt>
<trkpt lat="57.590490" lon="9.962315">
<ele>14.782983</ele>
<time>2026-07-16T16:33:53.000Z</time>
</trkpt>
<trkpt lat="57.590486" lon="9.962405">
<ele>14.763355</ele>
<time>2026-07-16T16:33:54.000Z</time>
</trkpt>
<trkpt lat="57.590485" lon="9.962498">
<ele>14.743139</ele>
<time>2026-07-16T16:33:55.000Z</time>
</trkpt>
<trkpt lat="57.590482" lon="9.962586">
<ele>14.723974</ele>
<time>2026-07-16T16:33:56.000Z</time>
</trkpt>
<trkpt lat="57.590475" lon="9.962671">
<ele>14.705283</ele>
<time>2026-07-16T16:33:57.000Z</time>
</trkpt>
<trkpt lat="57.590468" lon="9.962757">
<ele>14.686378</ele>
<time>2026-07-16T16:33:58.000Z</time>
</trkpt>
<trkpt lat="57.590455" lon="9.962842">
<ele>14.667166</ele>
<time>2026-07-16T16:33:59.000Z</time>
</trkpt>
<trkpt lat="57.590442" lon="9.962931">
<ele>14.694739</ele>
<time>2026-07-16T16:34:00.000Z</time>
</trkpt>
<trkpt lat="57.590431" lon="9.963017">
<ele>14.776558</ele>
<time>2026-07-16T16:34:01.000Z</time>
</trkpt>
<trkpt lat="57.590419" lon="9.963088">
<ele>14.845451</ele>
<time>2026-07-16T16:34:02.000Z</time>
</trkpt>
<trkpt lat="57.590402" lon="9.963146">
<ele>14.906625</ele>
<time>2026-07-16T16:34:03.000Z</time>
</trkpt>
<trkpt lat="57.590383" lon="9.963201">
<ele>14.967179</ele>
<time>2026-07-16T16:34:04.000Z</time>
</trkpt>
<trkpt lat="57.590359" lon="9.963252">
<ele>15.029984</ele>
<time>2026-07-16T16:34:05.000Z</time>
</trkpt>
<trkpt lat="57.590333" lon="9.963292">
<ele>15.088168</ele>
<time>2026-07-16T16:34:06.000Z</time>
</trkpt>
<trkpt lat="57.590303" lon="9.963332">
<ele>15.151833</ele>
<time>2026-07-16T16:34:07.000Z</time>
</trkpt>
<trkpt lat="57.590274" lon="9.963373">
<ele>15.214655</ele>
<time>2026-07-16T16:34:08.000Z</time>
</trkpt>
<trkpt lat="57.590256" lon="9.963420">
<ele>15.268112</ele>
<time>2026-07-16T16:34:09.000Z</time>
</trkpt>
<trkpt lat="57.590244" lon="9.963479">
<ele>15.326510</ele>
<time>2026-07-16T16:34:10.000Z</time>
</trkpt>
<trkpt lat="57.590238" lon="9.963544">
<ele>15.387546</ele>
<time>2026-07-16T16:34:11.000Z</time>
</trkpt>
<trkpt lat="57.590231" lon="9.963608">
<ele>15.447992</ele>
<time>2026-07-16T16:34:12.000Z</time>
</trkpt>
<trkpt lat="57.590221" lon="9.963664">
<ele>15.502616</ele>
<time>2026-07-16T16:34:13.000Z</time>
</trkpt>
<trkpt lat="57.590205" lon="9.963706">
<ele>15.550300</ele>
<time>2026-07-16T16:34:14.000Z</time>
</trkpt>
<trkpt lat="57.590183" lon="9.963747">
<ele>15.603988</ele>
<time>2026-07-16T16:34:15.000Z</time>
</trkpt>
<trkpt lat="57.590159" lon="9.963784">
<ele>15.657742</ele>
<time>2026-07-16T16:34:16.000Z</time>
</trkpt>
<trkpt lat="57.590131" lon="9.963821">
<ele>15.716984</ele>
<time>2026-07-16T16:34:17.000Z</time>
</trkpt>
<trkpt lat="57.590103" lon="9.963859">
<ele>15.776765</ele>
<time>2026-07-16T16:34:18.000Z</time>
</trkpt>
<trkpt lat="57.590077" lon="9.963896">
<ele>15.833224</ele>
<time>2026-07-16T16:34:19.000Z</time>
</trkpt>
<trkpt lat="57.590047" lon="9.963932">
<ele>15.894810</ele>
<time>2026-07-16T16:34:20.000Z</time>
</trkpt>
<trkpt lat="57.590019" lon="9.963967">
<ele>15.953002</ele>
<time>2026-07-16T16:34:21.000Z</time>
</trkpt>
<trkpt lat="57.589989" lon="9.964005">
<ele>16.015608</ele>
<time>2026-07-16T16:34:22.000Z</time>
</trkpt>
<trkpt lat="57.589959" lon="9.964039">
<ele>16.076213</ele>
<time>2026-07-16T16:34:23.000Z</time>
</trkpt>
<trkpt lat="57.589933" lon="9.964070">
<ele>16.129488</ele>
<time>2026-07-16T16:34:24.000Z</time>
</trkpt>
<trkpt lat="57.589900" lon="9.964102">
<ele>16.193702</ele>
<time>2026-07-16T16:34:25.000Z</time>
</trkpt>
<trkpt lat="57.589865" lon="9.964130">
<ele>16.259453</ele>
<time>2026-07-16T16:34:26.000Z</time>
</trkpt>
<trkpt lat="57.589830" lon="9.964152">
<ele>16.323221</ele>
<time>2026-07-16T16:34:27.000Z</time>
</trkpt>
<trkpt lat="57.589798" lon="9.964170">
<ele>16.380929</ele>
<time>2026-07-16T16:34:28.000Z</time>
</trkpt>
<trkpt lat="57.589765" lon="9.964185">
<ele>16.439573</ele>
<time>2026-07-16T16:34:29.000Z</time>
</trkpt>
<trkpt lat="57.589737" lon="9.964202">
<ele>16.490412</ele>
<time>2026-07-16T16:34:30.000Z</time>
</trkpt>
<trkpt lat="57.589707" lon="9.964216">
<ele>16.543806</ele>
<time>2026-07-16T16:34:31.000Z</time>
</trkpt>
<trkpt lat="57.589679" lon="9.964230">
<ele>16.593856</ele>
<time>2026-07-16T16:34:32.000Z</time>
</trkpt>
<trkpt lat="57.589650" lon="9.964240">
<ele>16.644775</ele>
<time>2026-07-16T16:34:33.000Z</time>
</trkpt>
<trkpt lat="57.589619" lon="9.964249">
<ele>16.698944</ele>
<time>2026-07-16T16:34:34.000Z</time>
</trkpt>
<trkpt lat="57.589592" lon="9.964256">
<ele>16.746010</ele>
<time>2026-07-16T16:34:35.000Z</time>
</trkpt>
<trkpt lat="57.589568" lon="9.964262">
<ele>16.787818</ele>
<time>2026-07-16T16:34:36.000Z</time>
</trkpt>
<trkpt lat="57.589542" lon="9.964271">
<ele>16.833476</ele>
<time>2026-07-16T16:34:37.000Z</time>
</trkpt>
<trkpt lat="57.589518" lon="9.964280">
<ele>16.875742</ele>
<time>2026-07-16T16:34:38.000Z</time>
</trkpt>
<trkpt lat="57.589496" lon="9.964294">
<ele>16.915876</ele>
<time>2026-07-16T16:34:39.000Z</time>
</trkpt>
<trkpt lat="57.589475" lon="9.964301">
<ele>16.952709</ele>
<time>2026-07-16T16:34:40.000Z</time>
</trkpt>
<trkpt lat="57.589453" lon="9.964302">
<ele>16.990705</ele>
<time>2026-07-16T16:34:41.000Z</time>
</trkpt>
<trkpt lat="57.589434" lon="9.964303">
<ele>17.023523</ele>
<time>2026-07-16T16:34:42.000Z</time>
</trkpt>
<trkpt lat="57.589417" lon="9.964307">
<ele>17.053108</ele>
<time>2026-07-16T16:34:43.000Z</time>
</trkpt>
<trkpt lat="57.589385" lon="9.964329">
<ele>17.111990</ele>
<time>2026-07-16T16:35:22.000Z</time>
</trkpt>
<trkpt lat="57.589374" lon="9.964342">
<ele>17.134472</ele>
<time>2026-07-16T16:35:23.000Z</time>
</trkpt>
<trkpt lat="57.589354" lon="9.964359">
<ele>17.172419</ele>
<time>2026-07-16T16:35:24.000Z</time>
</trkpt>
<trkpt lat="57.589328" lon="9.964380">
<ele>17.221336</ele>
<time>2026-07-16T16:35:25.000Z</time>
</trkpt>
<trkpt lat="57.589302" lon="9.964399">
<ele>17.269548</ele>
<time>2026-07-16T16:35:26.000Z</time>
</trkpt>
<trkpt lat="57.589273" lon="9.964421">
<ele>17.323600</ele>
<time>2026-07-16T16:35:27.000Z</time>
</trkpt>
<trkpt lat="57.589242" lon="9.964445">
<ele>17.381550</ele>
<time>2026-07-16T16:35:28.000Z</time>
</trkpt>
<trkpt lat="57.589208" lon="9.964466">
<ele>17.443387</ele>
<time>2026-07-16T16:35:29.000Z</time>
</trkpt>
<trkpt lat="57.589171" lon="9.964488">
<ele>17.510437</ele>
<time>2026-07-16T16:35:30.000Z</time>
</trkpt>
<trkpt lat="57.589135" lon="9.964505">
<ele>17.574554</ele>
<time>2026-07-16T16:35:31.000Z</time>
</trkpt>
<trkpt lat="57.589098" lon="9.964522">
<ele>17.640346</ele>
<time>2026-07-16T16:35:32.000Z</time>
</trkpt>
<trkpt lat="57.589060" lon="9.964539">
<ele>17.707817</ele>
<time>2026-07-16T16:35:33.000Z</time>
</trkpt>
<trkpt lat="57.589022" lon="9.964561">
<ele>17.766671</ele>
<time>2026-07-16T16:35:34.000Z</time>
</trkpt>
<trkpt lat="57.588987" lon="9.964584">
<ele>17.788190</ele>
<time>2026-07-16T16:35:35.000Z</time>
</trkpt>
<trkpt lat="57.588950" lon="9.964603">
<ele>17.810444</ele>
<time>2026-07-16T16:35:36.000Z</time>
</trkpt>
<trkpt lat="57.588917" lon="9.964618">
<ele>17.830140</ele>
<time>2026-07-16T16:35:37.000Z</time>
</trkpt>
<trkpt lat="57.588877" lon="9.964635">
<ele>17.853931</ele>
<time>2026-07-16T16:35:38.000Z</time>
</trkpt>
<trkpt lat="57.588838" lon="9.964650">
<ele>17.877022</ele>
<time>2026-07-16T16:35:39.000Z</time>
</trkpt>
<trkpt lat="57.588801" lon="9.964664">
<ele>17.898916</ele>
<time>2026-07-16T16:35:40.000Z</time>
</trkpt>
<trkpt lat="57.588764" lon="9.964679">
<ele>17.920873</ele>
<time>2026-07-16T16:35:41.000Z</time>
</trkpt>
<trkpt lat="57.588725" lon="9.964695">
<ele>17.944029</ele>
<time>2026-07-16T16:35:42.000Z</time>
</trkpt>
<trkpt lat="57.588688" lon="9.964712">
<ele>17.966126</ele>
<time>2026-07-16T16:35:43.000Z</time>
</trkpt>
<trkpt lat="57.588649" lon="9.964728">
<ele>17.989283</ele>
<time>2026-07-16T16:35:44.000Z</time>
</trkpt>
<trkpt lat="57.588608" lon="9.964744">
<ele>18.013573</ele>
<time>2026-07-16T16:35:45.000Z</time>
</trkpt>
<trkpt lat="57.588569" lon="9.964759">
<ele>18.036665</ele>
<time>2026-07-16T16:35:46.000Z</time>
</trkpt>
<trkpt lat="57.588530" lon="9.964773">
<ele>18.059696</ele>
<time>2026-07-16T16:35:47.000Z</time>
</trkpt>
<trkpt lat="57.588492" lon="9.964784">
<ele>18.081996</ele>
<time>2026-07-16T16:35:48.000Z</time>
</trkpt>
<trkpt lat="57.588455" lon="9.964794">
<ele>18.103676</ele>
<time>2026-07-16T16:35:49.000Z</time>
</trkpt>
<trkpt lat="57.588422" lon="9.964804">
<ele>18.123064</ele>
<time>2026-07-16T16:35:50.000Z</time>
</trkpt>
<trkpt lat="57.588390" lon="9.964816">
<ele>18.141992</ele>
<time>2026-07-16T16:35:51.000Z</time>
</trkpt>
<trkpt lat="57.588355" lon="9.964829">
<ele>18.162686</ele>
<time>2026-07-16T16:35:52.000Z</time>
</trkpt>
<trkpt lat="57.588323" lon="9.964838">
<ele>18.181453</ele>
<time>2026-07-16T16:35:53.000Z</time>
</trkpt>
<trkpt lat="57.588292" lon="9.964843">
<ele>18.199497</ele>
<time>2026-07-16T16:35:54.000Z</time>
</trkpt>
<trkpt lat="57.588262" lon="9.964847">
<ele>18.216938</ele>
<time>2026-07-16T16:35:55.000Z</time>
</trkpt>
<trkpt lat="57.588234" lon="9.964850">
<ele>18.233202</ele>
<time>2026-07-16T16:35:56.000Z</time>
</trkpt>
<trkpt lat="57.588207" lon="9.964844">
<ele>18.248970</ele>
<time>2026-07-16T16:35:57.000Z</time>
</trkpt>
<trkpt lat="57.588180" lon="9.964826">
<ele>18.265597</ele>
<time>2026-07-16T16:35:58.000Z</time>
</trkpt>
<trkpt lat="57.588159" lon="9.964806">
<ele>18.279270</ele>
<time>2026-07-16T16:35:59.000Z</time>
</trkpt>
<trkpt lat="57.588133" lon="9.964784">
<ele>18.295826</ele>
<time>2026-07-16T16:36:00.000Z</time>
</trkpt>
<trkpt lat="57.588101" lon="9.964776">
<ele>18.314548</ele>
<time>2026-07-16T16:36:01.000Z</time>
</trkpt>
<trkpt lat="57.588071" lon="9.964788">
<ele>18.332341</ele>
<time>2026-07-16T16:36:02.000Z</time>
</trkpt>
<trkpt lat="57.588050" lon="9.964817">
<ele>18.347492</ele>
<time>2026-07-16T16:36:03.000Z</time>
</trkpt>
<trkpt lat="57.588035" lon="9.964863">
<ele>18.364228</ele>
<time>2026-07-16T16:36:04.000Z</time>
</trkpt>
<trkpt lat="57.588029" lon="9.964919">
<ele>18.381979</ele>
<time>2026-07-16T16:36:05.000Z</time>
</trkpt>
<trkpt lat="57.588031" lon="9.964979">
<ele>18.400664</ele>
<time>2026-07-16T16:36:06.000Z</time>
</trkpt>
<trkpt lat="57.588045" lon="9.965039">
<ele>18.421004</ele>
<time>2026-07-16T16:36:07.000Z</time>
</trkpt>
<trkpt lat="57.588065" lon="9.965103">
<ele>18.444032</ele>
<time>2026-07-16T16:36:08.000Z</time>
</trkpt>
<trkpt lat="57.588084" lon="9.965174">
<ele>18.468698</ele>
<time>2026-07-16T16:36:09.000Z</time>
</trkpt>
<trkpt lat="57.588092" lon="9.965248">
<ele>18.492162</ele>
<time>2026-07-16T16:36:10.000Z</time>
</trkpt>
<trkpt lat="57.588090" lon="9.965324">
<ele>18.515814</ele>
<time>2026-07-16T16:36:11.000Z</time>
</trkpt>
<trkpt lat="57.588086" lon="9.965403">
<ele>18.540478</ele>
<time>2026-07-16T16:36:12.000Z</time>
</trkpt>
<trkpt lat="57.588083" lon="9.965479">
<ele>18.564165</ele>
<time>2026-07-16T16:36:13.000Z</time>
</trkpt>
<trkpt lat="57.588081" lon="9.965564">
<ele>18.590611</ele>
<time>2026-07-16T16:36:14.000Z</time>
</trkpt>
<trkpt lat="57.588084" lon="9.965648">
<ele>18.616779</ele>
<time>2026-07-16T16:36:15.000Z</time>
</trkpt>
<trkpt lat="57.588085" lon="9.965733">
<ele>18.643205</ele>
<time>2026-07-16T16:36:16.000Z</time>
</trkpt>
<trkpt lat="57.588082" lon="9.965818">
<ele>18.669683</ele>
<time>2026-07-16T16:36:17.000Z</time>
</trkpt>
<trkpt lat="57.588079" lon="9.965907">
<ele>18.697401</ele>
<time>2026-07-16T16:36:18.000Z</time>
</trkpt>
<trkpt lat="57.588078" lon="9.965995">
<ele>18.724760</ele>
<time>2026-07-16T16:36:19.000Z</time>
</trkpt>
<trkpt lat="57.588075" lon="9.966082">
<ele>18.751858</ele>
<time>2026-07-16T16:36:20.000Z</time>
</trkpt>
<trkpt lat="57.588074" lon="9.966166">
<ele>18.777974</ele>
<time>2026-07-16T16:36:21.000Z</time>
</trkpt>
<trkpt lat="57.588074" lon="9.966250">
<ele>18.804084</ele>
<time>2026-07-16T16:36:22.000Z</time>
</trkpt>
<trkpt lat="57.588071" lon="9.966346">
<ele>18.755441</ele>
<time>2026-07-16T16:36:23.000Z</time>
</trkpt>
<trkpt lat="57.588070" lon="9.966440">
<ele>18.706193</ele>
<time>2026-07-16T16:36:24.000Z</time>
</trkpt>
<trkpt lat="57.588067" lon="9.966534">
<ele>18.656867</ele>
<time>2026-07-16T16:36:25.000Z</time>
</trkpt>
<trkpt lat="57.588066" lon="9.966629">
<ele>18.607096</ele>
<time>2026-07-16T16:36:26.000Z</time>
</trkpt>
<trkpt lat="57.588066" lon="9.966721">
<ele>18.558905</ele>
<time>2026-07-16T16:36:27.000Z</time>
</trkpt>
<trkpt lat="57.588063" lon="9.966818">
<ele>18.508011</ele>
<time>2026-07-16T16:36:28.000Z</time>
</trkpt>
<trkpt lat="57.588060" lon="9.966916">
<ele>18.456593</ele>
<time>2026-07-16T16:36:29.000Z</time>
</trkpt>
<trkpt lat="57.588058" lon="9.967015">
<ele>18.404699</ele>
<time>2026-07-16T16:36:30.000Z</time>
</trkpt>
<trkpt lat="57.588058" lon="9.967113">
<ele>18.353365</ele>
<time>2026-07-16T16:36:31.000Z</time>
</trkpt>
<trkpt lat="57.588056" lon="9.967213">
<ele>18.300948</ele>
<time>2026-07-16T16:36:32.000Z</time>
</trkpt>
<trkpt lat="57.588055" lon="9.967309">
<ele>18.250652</ele>
<time>2026-07-16T16:36:33.000Z</time>
</trkpt>
<trkpt lat="57.588055" lon="9.967410">
<ele>18.197747</ele>
<time>2026-07-16T16:36:34.000Z</time>
</trkpt>
<trkpt lat="57.588055" lon="9.967511">
<ele>18.144842</ele>
<time>2026-07-16T16:36:35.000Z</time>
</trkpt>
<trkpt lat="57.588055" lon="9.967610">
<ele>18.092984</ele>
<time>2026-07-16T16:36:36.000Z</time>
</trkpt>
<trkpt lat="57.588052" lon="9.967711">
<ele>18.039998</ele>
<time>2026-07-16T16:36:37.000Z</time>
</trkpt>
<trkpt lat="57.588048" lon="9.967810">
<ele>17.987994</ele>
<time>2026-07-16T16:36:38.000Z</time>
</trkpt>
<trkpt lat="57.588047" lon="9.967913">
<ele>17.934032</ele>
<time>2026-07-16T16:36:39.000Z</time>
</trkpt>
<trkpt lat="57.588047" lon="9.968014">
<ele>17.881127</ele>
<time>2026-07-16T16:36:40.000Z</time>
</trkpt>
<trkpt lat="57.588047" lon="9.968113">
<ele>17.829269</ele>
<time>2026-07-16T16:36:41.000Z</time>
</trkpt>
<trkpt lat="57.588047" lon="9.968215">
<ele>17.775840</ele>
<time>2026-07-16T16:36:42.000Z</time>
</trkpt>
<trkpt lat="57.588047" lon="9.968321">
<ele>17.720316</ele>
<time>2026-07-16T16:36:43.000Z</time>
</trkpt>
<trkpt lat="57.588044" lon="9.968427">
<ele>17.664715</ele>
<time>2026-07-16T16:36:44.000Z</time>
</trkpt>
<trkpt lat="57.588043" lon="9.968531">
<ele>17.610229</ele>
<time>2026-07-16T16:36:45.000Z</time>
</trkpt>
<trkpt lat="57.588043" lon="9.968634">
<ele>17.556277</ele>
<time>2026-07-16T16:36:46.000Z</time>
</trkpt>
<trkpt lat="57.588043" lon="9.968736">
<ele>17.502848</ele>
<time>2026-07-16T16:36:47.000Z</time>
</trkpt>
<trkpt lat="57.588043" lon="9.968840">
<ele>17.448371</ele>
<time>2026-07-16T16:36:48.000Z</time>
</trkpt>
<trkpt lat="57.588043" lon="9.968942">
<ele>17.394942</ele>
<time>2026-07-16T16:36:49.000Z</time>
</trkpt>
<trkpt lat="57.588043" lon="9.969051">
<ele>17.337847</ele>
<time>2026-07-16T16:36:50.000Z</time>
</trkpt>
<trkpt lat="57.588043" lon="9.969159">
<ele>17.281275</ele>
<time>2026-07-16T16:36:51.000Z</time>
</trkpt>
<trkpt lat="57.588040" lon="9.969263">
<ele>17.226720</ele>
<time>2026-07-16T16:36:52.000Z</time>
</trkpt>
<trkpt lat="57.588037" lon="9.969361">
<ele>17.175302</ele>
<time>2026-07-16T16:36:53.000Z</time>
</trkpt>
<trkpt lat="57.588033" lon="9.969463">
<ele>17.121730</ele>
<time>2026-07-16T16:36:54.000Z</time>
</trkpt>
<trkpt lat="57.588032" lon="9.969565">
<ele>17.068293</ele>
<time>2026-07-16T16:36:55.000Z</time>
</trkpt>
<trkpt lat="57.588032" lon="9.969666">
<ele>17.056806</ele>
<time>2026-07-16T16:36:56.000Z</time>
</trkpt>
<trkpt lat="57.588032" lon="9.969766">
<ele>17.073077</ele>
<time>2026-07-16T16:36:57.000Z</time>
</trkpt>
<trkpt lat="57.588032" lon="9.969869">
<ele>17.089836</ele>
<time>2026-07-16T16:36:58.000Z</time>
</trkpt>
<trkpt lat="57.588029" lon="9.969969">
<ele>17.106133</ele>
<time>2026-07-16T16:36:59.000Z</time>
</trkpt>
<trkpt lat="57.588031" lon="9.970069">
<ele>17.122415</ele>
<time>2026-07-16T16:37:00.000Z</time>
</trkpt>
<trkpt lat="57.588032" lon="9.970172">
<ele>17.139177</ele>
<time>2026-07-16T16:37:01.000Z</time>
</trkpt>
<trkpt lat="57.588035" lon="9.970273">
<ele>17.155635</ele>
<time>2026-07-16T16:37:02.000Z</time>
</trkpt>
<trkpt lat="57.588036" lon="9.970371">
<ele>17.171584</ele>
<time>2026-07-16T16:37:03.000Z</time>
</trkpt>
<trkpt lat="57.588036" lon="9.970460">
<ele>17.186065</ele>
<time>2026-07-16T16:37:04.000Z</time>
</trkpt>
<trkpt lat="57.588033" lon="9.970535">
<ele>17.198302</ele>
<time>2026-07-16T16:37:05.000Z</time>
</trkpt>
<trkpt lat="57.588021" lon="9.970608">
<ele>17.210726</ele>
<time>2026-07-16T16:37:06.000Z</time>
</trkpt>
<trkpt lat="57.588000" lon="9.970671">
<ele>17.222797</ele>
<time>2026-07-16T16:37:07.000Z</time>
</trkpt>
<trkpt lat="57.587980" lon="9.970731">
<ele>17.234293</ele>
<time>2026-07-16T16:37:08.000Z</time>
</trkpt>
<trkpt lat="57.587964" lon="9.970792">
<ele>17.245343</ele>
<time>2026-07-16T16:37:09.000Z</time>
</trkpt>
<trkpt lat="57.587954" lon="9.970861">
<ele>17.256973</ele>
<time>2026-07-16T16:37:10.000Z</time>
</trkpt>
<trkpt lat="57.587959" lon="9.970928">
<ele>17.267980</ele>
<time>2026-07-16T16:37:11.000Z</time>
</trkpt>
<trkpt lat="57.587974" lon="9.970999">
<ele>17.280397</ele>
<time>2026-07-16T16:37:12.000Z</time>
</trkpt>
<trkpt lat="57.587994" lon="9.971071">
<ele>17.293592</ele>
<time>2026-07-16T16:37:13.000Z</time>
</trkpt>
<trkpt lat="57.588007" lon="9.971153">
<ele>17.307506</ele>
<time>2026-07-16T16:37:14.000Z</time>
</trkpt>
<trkpt lat="57.588014" lon="9.971239">
<ele>17.321659</ele>
<time>2026-07-16T16:37:15.000Z</time>
</trkpt>
<trkpt lat="57.588014" lon="9.971328">
<ele>17.336140</ele>
<time>2026-07-16T16:37:16.000Z</time>
</trkpt>
<trkpt lat="57.588010" lon="9.971416">
<ele>17.350510</ele>
<time>2026-07-16T16:37:17.000Z</time>
</trkpt>
<trkpt lat="57.588006" lon="9.971508">
<ele>17.365528</ele>
<time>2026-07-16T16:37:18.000Z</time>
</trkpt>
<trkpt lat="57.588005" lon="9.971598">
<ele>17.380175</ele>
<time>2026-07-16T16:37:19.000Z</time>
</trkpt>
<trkpt lat="57.588005" lon="9.971690">
<ele>17.395145</ele>
<time>2026-07-16T16:37:20.000Z</time>
</trkpt>
<trkpt lat="57.588005" lon="9.971784">
<ele>17.410439</ele>
<time>2026-07-16T16:37:21.000Z</time>
</trkpt>
<trkpt lat="57.588002" lon="9.971880">
<ele>17.426086</ele>
<time>2026-07-16T16:37:22.000Z</time>
</trkpt>
<trkpt lat="57.587999" lon="9.971976">
<ele>17.441732</ele>
<time>2026-07-16T16:37:23.000Z</time>
</trkpt>
<trkpt lat="57.587997" lon="9.972072">
<ele>17.457364</ele>
<time>2026-07-16T16:37:24.000Z</time>
</trkpt>
<trkpt lat="57.588000" lon="9.972165">
<ele>17.472524</ele>
<time>2026-07-16T16:37:25.000Z</time>
</trkpt>
<trkpt lat="57.588004" lon="9.972261">
<ele>17.488191</ele>
<time>2026-07-16T16:37:26.000Z</time>
</trkpt>
<trkpt lat="57.588002" lon="9.972358">
<ele>17.503985</ele>
<time>2026-07-16T16:37:27.000Z</time>
</trkpt>
<trkpt lat="57.588001" lon="9.972452">
<ele>17.519283</ele>
<time>2026-07-16T16:37:28.000Z</time>
</trkpt>
<trkpt lat="57.588001" lon="9.972547">
<ele>17.534740</ele>
<time>2026-07-16T16:37:29.000Z</time>
</trkpt>
<trkpt lat="57.587999" lon="9.972636">
<ele>17.549234</ele>
<time>2026-07-16T16:37:30.000Z</time>
</trkpt>
<trkpt lat="57.587995" lon="9.972733">
<ele>17.565063</ele>
<time>2026-07-16T16:37:31.000Z</time>
</trkpt>
<trkpt lat="57.587991" lon="9.972831">
<ele>17.581055</ele>
<time>2026-07-16T16:37:32.000Z</time>
</trkpt>
<trkpt lat="57.587990" lon="9.972924">
<ele>17.584388</ele>
<time>2026-07-16T16:37:33.000Z</time>
</trkpt>
<trkpt lat="57.587990" lon="9.973019">
<ele>17.542922</ele>
<time>2026-07-16T16:37:34.000Z</time>
</trkpt>
<trkpt lat="57.587987" lon="9.973104">
<ele>17.505741</ele>
<time>2026-07-16T16:37:35.000Z</time>
</trkpt>
<trkpt lat="57.587984" lon="9.973204">
<ele>17.462024</ele>
<time>2026-07-16T16:37:36.000Z</time>
</trkpt>
<trkpt lat="57.587979" lon="9.973303">
<ele>17.418620</ele>
<time>2026-07-16T16:37:37.000Z</time>
</trkpt>
<trkpt lat="57.587978" lon="9.973399">
<ele>17.376710</ele>
<time>2026-07-16T16:37:38.000Z</time>
</trkpt>
<trkpt lat="57.587978" lon="9.973493">
<ele>17.335680</ele>
<time>2026-07-16T16:37:39.000Z</time>
</trkpt>
<trkpt lat="57.587978" lon="9.973579">
<ele>17.298142</ele>
<time>2026-07-16T16:37:40.000Z</time>
</trkpt>
<trkpt lat="57.587978" lon="9.973675">
<ele>17.256240</ele>
<time>2026-07-16T16:37:41.000Z</time>
</trkpt>
<trkpt lat="57.587978" lon="9.973768">
<ele>17.215647</ele>
<time>2026-07-16T16:37:42.000Z</time>
</trkpt>
<trkpt lat="57.587976" lon="9.973859">
<ele>17.175893</ele>
<time>2026-07-16T16:37:43.000Z</time>
</trkpt>
<trkpt lat="57.587975" lon="9.973952">
<ele>17.135292</ele>
<time>2026-07-16T16:37:44.000Z</time>
</trkpt>
<trkpt lat="57.587975" lon="9.974043">
<ele>17.095571</ele>
<time>2026-07-16T16:37:45.000Z</time>
</trkpt>
<trkpt lat="57.587977" lon="9.974139">
<ele>17.053637</ele>
<time>2026-07-16T16:37:46.000Z</time>
</trkpt>
<trkpt lat="57.587981" lon="9.974235">
<ele>17.011608</ele>
<time>2026-07-16T16:37:47.000Z</time>
</trkpt>
<trkpt lat="57.587979" lon="9.974332">
<ele>16.969238</ele>
<time>2026-07-16T16:37:48.000Z</time>
</trkpt>
<trkpt lat="57.587978" lon="9.974426">
<ele>16.928200</ele>
<time>2026-07-16T16:37:49.000Z</time>
</trkpt>
<trkpt lat="57.587978" lon="9.974520">
<ele>16.887170</ele>
<time>2026-07-16T16:37:50.000Z</time>
</trkpt>
<trkpt lat="57.587976" lon="9.974615">
<ele>16.845672</ele>
<time>2026-07-16T16:37:51.000Z</time>
</trkpt>
<trkpt lat="57.587972" lon="9.974709">
<ele>16.804514</ele>
<time>2026-07-16T16:37:52.000Z</time>
</trkpt>
<trkpt lat="57.587971" lon="9.974802">
<ele>16.763912</ele>
<time>2026-07-16T16:37:53.000Z</time>
</trkpt>
<trkpt lat="57.587968" lon="9.974895">
<ele>16.723246</ele>
<time>2026-07-16T16:37:54.000Z</time>
</trkpt>
<trkpt lat="57.587967" lon="9.974990">
<ele>16.681772</ele>
<time>2026-07-16T16:37:55.000Z</time>
</trkpt>
<trkpt lat="57.587964" lon="9.975088">
<ele>16.638926</ele>
<time>2026-07-16T16:37:56.000Z</time>
</trkpt>
<trkpt lat="57.587963" lon="9.975182">
<ele>16.597889</ele>
<time>2026-07-16T16:37:57.000Z</time>
</trkpt>
<trkpt lat="57.587963" lon="9.975282">
<ele>16.554240</ele>
<time>2026-07-16T16:37:58.000Z</time>
</trkpt>
<trkpt lat="57.587960" lon="9.975386">
<ele>16.508780</ele>
<time>2026-07-16T16:37:59.000Z</time>
</trkpt>
<trkpt lat="57.587957" lon="9.975483">
<ele>16.466370</ele>
<time>2026-07-16T16:38:00.000Z</time>
</trkpt>
<trkpt lat="57.587953" lon="9.975587">
<ele>16.420859</ele>
<time>2026-07-16T16:38:01.000Z</time>
</trkpt>
<trkpt lat="57.587946" lon="9.975696">
<ele>16.372942</ele>
<time>2026-07-16T16:38:02.000Z</time>
</trkpt>
<trkpt lat="57.587939" lon="9.975807">
<ele>16.324158</ele>
<time>2026-07-16T16:38:03.000Z</time>
</trkpt>
<trkpt lat="57.587928" lon="9.975919">
<ele>16.274457</ele>
<time>2026-07-16T16:38:04.000Z</time>
</trkpt>
<trkpt lat="57.587917" lon="9.976013">
<ele>16.232461</ele>
<time>2026-07-16T16:38:05.000Z</time>
</trkpt>
<trkpt lat="57.587899" lon="9.976131">
<ele>16.178911</ele>
<time>2026-07-16T16:38:06.000Z</time>
</trkpt>
<trkpt lat="57.587878" lon="9.976264">
<ele>16.114998</ele>
<time>2026-07-16T16:38:07.000Z</time>
</trkpt>
<trkpt lat="57.587858" lon="9.976381">
<ele>16.043019</ele>
<time>2026-07-16T16:38:08.000Z</time>
</trkpt>
<trkpt lat="57.587836" lon="9.976503">
<ele>15.967574</ele>
<time>2026-07-16T16:38:09.000Z</time>
</trkpt>
<trkpt lat="57.587815" lon="9.976598">
<ele>15.907343</ele>
<time>2026-07-16T16:38:10.000Z</time>
</trkpt>
<trkpt lat="57.587784" lon="9.976716">
<ele>15.830321</ele>
<time>2026-07-16T16:38:11.000Z</time>
</trkpt>
<trkpt lat="57.587744" lon="9.976846">
<ele>15.742463</ele>
<time>2026-07-16T16:38:12.000Z</time>
</trkpt>
<trkpt lat="57.587710" lon="9.976955">
<ele>15.668545</ele>
<time>2026-07-16T16:38:13.000Z</time>
</trkpt>
<trkpt lat="57.587676" lon="9.977055">
<ele>15.599136</ele>
<time>2026-07-16T16:38:14.000Z</time>
</trkpt>
<trkpt lat="57.587642" lon="9.977150">
<ele>15.532183</ele>
<time>2026-07-16T16:38:15.000Z</time>
</trkpt>
<trkpt lat="57.587607" lon="9.977239">
<ele>15.467484</ele>
<time>2026-07-16T16:38:16.000Z</time>
</trkpt>
<trkpt lat="57.587570" lon="9.977322">
<ele>15.404210</ele>
<time>2026-07-16T16:38:17.000Z</time>
</trkpt>
<trkpt lat="57.587532" lon="9.977403">
<ele>15.341118</ele>
<time>2026-07-16T16:38:18.000Z</time>
</trkpt>
<trkpt lat="57.587497" lon="9.977480">
<ele>15.281943</ele>
<time>2026-07-16T16:38:19.000Z</time>
</trkpt>
<trkpt lat="57.587459" lon="9.977555">
<ele>15.221453</ele>
<time>2026-07-16T16:38:20.000Z</time>
</trkpt>
<trkpt lat="57.587421" lon="9.977627">
<ele>15.162229</ele>
<time>2026-07-16T16:38:21.000Z</time>
</trkpt>
<trkpt lat="57.587386" lon="9.977699">
<ele>15.105258</ele>
<time>2026-07-16T16:38:22.000Z</time>
</trkpt>
<trkpt lat="57.587352" lon="9.977769">
<ele>15.049889</ele>
<time>2026-07-16T16:38:23.000Z</time>
</trkpt>
<trkpt lat="57.587317" lon="9.977840">
<ele>14.993351</ele>
<time>2026-07-16T16:38:24.000Z</time>
</trkpt>
<trkpt lat="57.587286" lon="9.977908">
<ele>14.941028</ele>
<time>2026-07-16T16:38:25.000Z</time>
</trkpt>
<trkpt lat="57.587257" lon="9.977962">
<ele>14.896225</ele>
<time>2026-07-16T16:38:26.000Z</time>
</trkpt>
<trkpt lat="57.587227" lon="9.978024">
<ele>14.847268</ele>
<time>2026-07-16T16:38:27.000Z</time>
</trkpt>
<trkpt lat="57.587196" lon="9.978093">
<ele>14.794497</ele>
<time>2026-07-16T16:38:28.000Z</time>
</trkpt>
<trkpt lat="57.587162" lon="9.978159">
<ele>14.740843</ele>
<time>2026-07-16T16:38:29.000Z</time>
</trkpt>
<trkpt lat="57.587128" lon="9.978228">
<ele>14.685908</ele>
<time>2026-07-16T16:38:30.000Z</time>
</trkpt>
<trkpt lat="57.587101" lon="9.978286">
<ele>14.640881</ele>
<time>2026-07-16T16:38:31.000Z</time>
</trkpt>
<trkpt lat="57.587075" lon="9.978338">
<ele>14.599201</ele>
<time>2026-07-16T16:38:32.000Z</time>
</trkpt>
<trkpt lat="57.587048" lon="9.978387">
<ele>14.558011</ele>
<time>2026-07-16T16:38:33.000Z</time>
</trkpt>
<trkpt lat="57.587023" lon="9.978418">
<ele>14.525186</ele>
<time>2026-07-16T16:38:34.000Z</time>
</trkpt>
<trkpt lat="57.586993" lon="9.978439">
<ele>14.490148</ele>
<time>2026-07-16T16:38:35.000Z</time>
</trkpt>
<trkpt lat="57.586961" lon="9.978450">
<ele>14.454568</ele>
<time>2026-07-16T16:38:36.000Z</time>
</trkpt>
<trkpt lat="57.586933" lon="9.978446">
<ele>14.423860</ele>
<time>2026-07-16T16:38:37.000Z</time>
</trkpt>
<trkpt lat="57.586905" lon="9.978423">
<ele>14.390406</ele>
<time>2026-07-16T16:38:38.000Z</time>
</trkpt>
<trkpt lat="57.586877" lon="9.978384">
<ele>14.352196</ele>
<time>2026-07-16T16:38:39.000Z</time>
</trkpt>
<trkpt lat="57.586851" lon="9.978339">
<ele>14.313414</ele>
<time>2026-07-16T16:38:40.000Z</time>
</trkpt>
<trkpt lat="57.586823" lon="9.978289">
<ele>14.271031</ele>
<time>2026-07-16T16:38:41.000Z</time>
</trkpt>
<trkpt lat="57.586796" lon="9.978238">
<ele>14.229016</ele>
<time>2026-07-16T16:38:42.000Z</time>
</trkpt>
<trkpt lat="57.586769" lon="9.978183">
<ele>14.185302</ele>
<time>2026-07-16T16:38:43.000Z</time>
</trkpt>
<trkpt lat="57.586744" lon="9.978130">
<ele>14.169877</ele>
<time>2026-07-16T16:38:44.000Z</time>
</trkpt>
<trkpt lat="57.586719" lon="9.978074">
<ele>14.190284</ele>
<time>2026-07-16T16:38:45.000Z</time>
</trkpt>
<trkpt lat="57.586694" lon="9.978027">
<ele>14.208825</ele>
<time>2026-07-16T16:38:46.000Z</time>
</trkpt>
<trkpt lat="57.586667" lon="9.977982">
<ele>14.227738</ele>
<time>2026-07-16T16:38:47.000Z</time>
</trkpt>
<trkpt lat="57.586645" lon="9.977939">
<ele>14.244383</ele>
<time>2026-07-16T16:38:48.000Z</time>
</trkpt>
<trkpt lat="57.586623" lon="9.977895">
<ele>14.261232</ele>
<time>2026-07-16T16:38:49.000Z</time>
</trkpt>
<trkpt lat="57.586601" lon="9.977856">
<ele>14.277086</ele>
<time>2026-07-16T16:38:50.000Z</time>
</trkpt>
<trkpt lat="57.586583" lon="9.977819">
<ele>14.291077</ele>
<time>2026-07-16T16:38:51.000Z</time>
</trkpt>
<trkpt lat="57.586568" lon="9.977791">
<ele>14.302162</ele>
<time>2026-07-16T16:38:52.000Z</time>
</trkpt>
<trkpt lat="57.586556" lon="9.977766">
<ele>14.311559</ele>
<time>2026-07-16T16:38:53.000Z</time>
</trkpt>
<trkpt lat="57.586545" lon="9.977749">
<ele>14.319021</ele>
<time>2026-07-16T16:38:54.000Z</time>
</trkpt>
<trkpt lat="57.586506" lon="9.977777">
<ele>14.340851</ele>
<time>2026-07-16T16:39:06.000Z</time>
</trkpt>
<trkpt lat="57.586493" lon="9.977801">
<ele>14.350405</ele>
<time>2026-07-16T16:39:07.000Z</time>
</trkpt>
<trkpt lat="57.586476" lon="9.977833">
<ele>14.363021</ele>
<time>2026-07-16T16:39:08.000Z</time>
</trkpt>
<trkpt lat="57.586461" lon="9.977855">
<ele>14.372988</ele>
<time>2026-07-16T16:39:09.000Z</time>
</trkpt>
<trkpt lat="57.586443" lon="9.977853">
<ele>14.382408</ele>
<time>2026-07-16T16:39:10.000Z</time>
</trkpt>
<trkpt lat="57.586424" lon="9.977830">
<ele>14.394240</ele>
<time>2026-07-16T16:39:11.000Z</time>
</trkpt>
<trkpt lat="57.586400" lon="9.977796">
<ele>14.409982</ele>
<time>2026-07-16T16:39:12.000Z</time>
</trkpt>
<trkpt lat="57.586376" lon="9.977756">
<ele>14.426794</ele>
<time>2026-07-16T16:39:13.000Z</time>
</trkpt>
<trkpt lat="57.586350" lon="9.977709">
<ele>14.445707</ele>
<time>2026-07-16T16:39:14.000Z</time>
</trkpt>
<trkpt lat="57.586322" lon="9.977660">
<ele>14.465762</ele>
<time>2026-07-16T16:39:15.000Z</time>
</trkpt>
<trkpt lat="57.586291" lon="9.977604">
<ele>14.488304</ele>
<time>2026-07-16T16:39:16.000Z</time>
</trkpt>
<trkpt lat="57.586261" lon="9.977549">
<ele>14.510277</ele>
<time>2026-07-16T16:39:17.000Z</time>
</trkpt>
<trkpt lat="57.586230" lon="9.977489">
<ele>14.533612</ele>
<time>2026-07-16T16:39:18.000Z</time>
</trkpt>
<trkpt lat="57.586198" lon="9.977428">
<ele>14.557512</ele>
<time>2026-07-16T16:39:19.000Z</time>
</trkpt>
<trkpt lat="57.586167" lon="9.977370">
<ele>14.580447</ele>
<time>2026-07-16T16:39:20.000Z</time>
</trkpt>
<trkpt lat="57.586135" lon="9.977307">
<ele>14.604750</ele>
<time>2026-07-16T16:39:21.000Z</time>
</trkpt>
<trkpt lat="57.586104" lon="9.977247">
<ele>14.628086</ele>
<time>2026-07-16T16:39:22.000Z</time>
</trkpt>
<trkpt lat="57.586070" lon="9.977194">
<ele>14.651231</ele>
<time>2026-07-16T16:39:23.000Z</time>
</trkpt>
<trkpt lat="57.586032" lon="9.977156">
<ele>14.673754</ele>
<time>2026-07-16T16:39:24.000Z</time>
</trkpt>
<trkpt lat="57.585989" lon="9.977134">
<ele>14.697047</ele>
<time>2026-07-16T16:39:25.000Z</time>
</trkpt>
<trkpt lat="57.585943" lon="9.977127">
<ele>14.721157</ele>
<time>2026-07-16T16:39:26.000Z</time>
</trkpt>
<trkpt lat="57.585898" lon="9.977135">
<ele>14.744771</ele>
<time>2026-07-16T16:39:27.000Z</time>
</trkpt>
<trkpt lat="57.585852" lon="9.977156">
<ele>14.769510</ele>
<time>2026-07-16T16:39:28.000Z</time>
</trkpt>
<trkpt lat="57.585813" lon="9.977187">
<ele>14.791655</ele>
<time>2026-07-16T16:39:29.000Z</time>
</trkpt>
<trkpt lat="57.585772" lon="9.977224">
<ele>14.815448</ele>
<time>2026-07-16T16:39:30.000Z</time>
</trkpt>
<trkpt lat="57.585728" lon="9.977262">
<ele>14.840777</ele>
<time>2026-07-16T16:39:31.000Z</time>
</trkpt>
<trkpt lat="57.585686" lon="9.977297">
<ele>14.864807</ele>
<time>2026-07-16T16:39:32.000Z</time>
</trkpt>
<trkpt lat="57.585645" lon="9.977330">
<ele>14.888133</ele>
<time>2026-07-16T16:39:33.000Z</time>
</trkpt>
<trkpt lat="57.585605" lon="9.977362">
<ele>14.910869</ele>
<time>2026-07-16T16:39:34.000Z</time>
</trkpt>
<trkpt lat="57.585571" lon="9.977394">
<ele>14.930763</ele>
<time>2026-07-16T16:39:35.000Z</time>
</trkpt>
<trkpt lat="57.585536" lon="9.977428">
<ele>14.951377</ele>
<time>2026-07-16T16:39:36.000Z</time>
</trkpt>
<trkpt lat="57.585501" lon="9.977464">
<ele>14.972256</ele>
<time>2026-07-16T16:39:37.000Z</time>
</trkpt>
<trkpt lat="57.585467" lon="9.977493">
<ele>14.991786</ele>
<time>2026-07-16T16:39:38.000Z</time>
</trkpt>
<trkpt lat="57.585429" lon="9.977522">
<ele>15.013233</ele>
<time>2026-07-16T16:39:39.000Z</time>
</trkpt>
<trkpt lat="57.585389" lon="9.977552">
<ele>15.035755</ele>
<time>2026-07-16T16:39:40.000Z</time>
</trkpt>
<trkpt lat="57.585351" lon="9.977583">
<ele>15.057421</ele>
<time>2026-07-16T16:39:41.000Z</time>
</trkpt>
<trkpt lat="57.585312" lon="9.977615">
<ele>15.079677</ele>
<time>2026-07-16T16:39:42.000Z</time>
</trkpt>
<trkpt lat="57.585275" lon="9.977649">
<ele>15.101302</ele>
<time>2026-07-16T16:39:43.000Z</time>
</trkpt>
<trkpt lat="57.585234" lon="9.977686">
<ele>15.138480</ele>
<time>2026-07-16T16:39:44.000Z</time>
</trkpt>
<trkpt lat="57.585198" lon="9.977723">
<ele>15.172032</ele>
<time>2026-07-16T16:39:45.000Z</time>
</trkpt>
<trkpt lat="57.585159" lon="9.977758">
<ele>15.207359</ele>
<time>2026-07-16T16:39:46.000Z</time>
</trkpt>
<trkpt lat="57.585122" lon="9.977791">
<ele>15.240836</ele>
<time>2026-07-16T16:39:47.000Z</time>
</trkpt>
<trkpt lat="57.585087" lon="9.977820">
<ele>15.272098</ele>
<time>2026-07-16T16:39:48.000Z</time>
</trkpt>
<trkpt lat="57.585044" lon="9.977856">
<ele>15.310571</ele>
<time>2026-07-16T16:39:49.000Z</time>
</trkpt>
<trkpt lat="57.584999" lon="9.977890">
<ele>15.350203</ele>
<time>2026-07-16T16:39:50.000Z</time>
</trkpt>
<trkpt lat="57.584957" lon="9.977925">
<ele>15.387753</ele>
<time>2026-07-16T16:39:51.000Z</time>
</trkpt>
<trkpt lat="57.584915" lon="9.977962">
<ele>15.425667</ele>
<time>2026-07-16T16:39:52.000Z</time>
</trkpt>
<trkpt lat="57.584876" lon="9.978000">
<ele>15.461584</ele>
<time>2026-07-16T16:39:53.000Z</time>
</trkpt>
<trkpt lat="57.584835" lon="9.978036">
<ele>15.498574</ele>
<time>2026-07-16T16:39:54.000Z</time>
</trkpt>
<trkpt lat="57.584793" lon="9.978072">
<ele>15.536304</ele>
<time>2026-07-16T16:39:55.000Z</time>
</trkpt>
<trkpt lat="57.584754" lon="9.978110">
<ele>15.572220</ele>
<time>2026-07-16T16:39:56.000Z</time>
</trkpt>
<trkpt lat="57.584713" lon="9.978147">
<ele>15.609399</ele>
<time>2026-07-16T16:39:57.000Z</time>
</trkpt>
<trkpt lat="57.584668" lon="9.978182">
<ele>15.649197</ele>
<time>2026-07-16T16:39:58.000Z</time>
</trkpt>
<trkpt lat="57.584625" lon="9.978216">
<ele>15.687320</ele>
<time>2026-07-16T16:39:59.000Z</time>
</trkpt>
<trkpt lat="57.584583" lon="9.978250">
<ele>15.724693</ele>
<time>2026-07-16T16:40:00.000Z</time>
</trkpt>
<trkpt lat="57.584539" lon="9.978286">
<ele>15.763913</ele>
<time>2026-07-16T16:40:01.000Z</time>
</trkpt>
<trkpt lat="57.584493" lon="9.978324">
<ele>15.804979</ele>
<time>2026-07-16T16:40:02.000Z</time>
</trkpt>
<trkpt lat="57.584450" lon="9.978364">
<ele>15.844202</ele>
<time>2026-07-16T16:40:03.000Z</time>
</trkpt>
<trkpt lat="57.584406" lon="9.978405">
<ele>15.884350</ele>
<time>2026-07-16T16:40:04.000Z</time>
</trkpt>
<trkpt lat="57.584360" lon="9.978445">
<ele>15.925779</ele>
<time>2026-07-16T16:40:05.000Z</time>
</trkpt>
<trkpt lat="57.584311" lon="9.978484">
<ele>15.969266</ele>
<time>2026-07-16T16:40:06.000Z</time>
</trkpt>
<trkpt lat="57.584264" lon="9.978523">
<ele>16.011256</ele>
<time>2026-07-16T16:40:07.000Z</time>
</trkpt>
<trkpt lat="57.584218" lon="9.978563">
<ele>16.052685</ele>
<time>2026-07-16T16:40:08.000Z</time>
</trkpt>
<trkpt lat="57.584173" lon="9.978602">
<ele>16.093189</ele>
<time>2026-07-16T16:40:09.000Z</time>
</trkpt>
<trkpt lat="57.584130" lon="9.978644">
<ele>16.132810</ele>
<time>2026-07-16T16:40:10.000Z</time>
</trkpt>
<trkpt lat="57.584085" lon="9.978692">
<ele>16.175124</ele>
<time>2026-07-16T16:40:11.000Z</time>
</trkpt>
<trkpt lat="57.584039" lon="9.978735">
<ele>16.217124</ele>
<time>2026-07-16T16:40:12.000Z</time>
</trkpt>
<trkpt lat="57.583993" lon="9.978773">
<ele>16.258191</ele>
<time>2026-07-16T16:40:13.000Z</time>
</trkpt>
<trkpt lat="57.583950" lon="9.978812">
<ele>16.297220</ele>
<time>2026-07-16T16:40:14.000Z</time>
</trkpt>
<trkpt lat="57.583909" lon="9.978852">
<ele>16.334989</ele>
<time>2026-07-16T16:40:15.000Z</time>
</trkpt>
<trkpt lat="57.583867" lon="9.978891">
<ele>16.373286</ele>
<time>2026-07-16T16:40:16.000Z</time>
</trkpt>
<trkpt lat="57.583827" lon="9.978929">
<ele>16.409928</ele>
<time>2026-07-16T16:40:17.000Z</time>
</trkpt>
<trkpt lat="57.583789" lon="9.978961">
<ele>16.443961</ele>
<time>2026-07-16T16:40:18.000Z</time>
</trkpt>
<trkpt lat="57.583754" lon="9.978984">
<ele>16.474252</ele>
<time>2026-07-16T16:40:19.000Z</time>
</trkpt>
<trkpt lat="57.583727" lon="9.978997">
<ele>16.497014</ele>
<time>2026-07-16T16:40:20.000Z</time>
</trkpt>
<trkpt lat="57.583732" lon="9.978990">
<ele>16.502117</ele>
<time>2026-07-16T16:40:27.000Z</time>
</trkpt>
<trkpt lat="57.583751" lon="9.978968">
<ele>16.520372</ele>
<time>2026-07-16T16:40:28.000Z</time>
</trkpt>
<trkpt lat="57.583772" lon="9.978948">
<ele>16.539619</ele>
<time>2026-07-16T16:40:29.000Z</time>
</trkpt>
<trkpt lat="57.583795" lon="9.978927">
<ele>16.560522</ele>
<time>2026-07-16T16:40:30.000Z</time>
</trkpt>
<trkpt lat="57.583820" lon="9.978909">
<ele>16.576862</ele>
<time>2026-07-16T16:40:31.000Z</time>
</trkpt>
<trkpt lat="57.583850" lon="9.978886">
<ele>16.592144</ele>
<time>2026-07-16T16:40:32.000Z</time>
</trkpt>
<trkpt lat="57.583881" lon="9.978860">
<ele>16.608158</ele>
<time>2026-07-16T16:40:33.000Z</time>
</trkpt>
<trkpt lat="57.583905" lon="9.978833">
<ele>16.621363</ele>
<time>2026-07-16T16:40:34.000Z</time>
</trkpt>
<trkpt lat="57.583934" lon="9.978802">
<ele>16.637111</ele>
<time>2026-07-16T16:40:35.000Z</time>
</trkpt>
<trkpt lat="57.583964" lon="9.978772">
<ele>16.653148</ele>
<time>2026-07-16T16:40:36.000Z</time>
</trkpt>
<trkpt lat="57.583992" lon="9.978756">
<ele>16.666946</ele>
<time>2026-07-16T16:40:37.000Z</time>
</trkpt>
<trkpt lat="57.584016" lon="9.978764">
<ele>16.678433</ele>
<time>2026-07-16T16:40:38.000Z</time>
</trkpt>
<trkpt lat="57.584036" lon="9.978797">
<ele>16.691013</ele>
<time>2026-07-16T16:40:39.000Z</time>
</trkpt>
<trkpt lat="57.584053" lon="9.978838">
<ele>16.704105</ele>
<time>2026-07-16T16:40:40.000Z</time>
</trkpt>
<trkpt lat="57.584060" lon="9.978881">
<ele>16.715455</ele>
<time>2026-07-16T16:40:41.000Z</time>
</trkpt>
<trkpt lat="57.584069" lon="9.978932">
<ele>16.729016</ele>
<time>2026-07-16T16:40:42.000Z</time>
</trkpt>
<trkpt lat="57.584083" lon="9.978992">
<ele>16.745543</ele>
<time>2026-07-16T16:40:43.000Z</time>
</trkpt>
<trkpt lat="57.584101" lon="9.979050">
<ele>16.762470</ele>
<time>2026-07-16T16:40:44.000Z</time>
</trkpt>
<trkpt lat="57.584118" lon="9.979107">
<ele>16.778945</ele>
<time>2026-07-16T16:40:45.000Z</time>
</trkpt>
<trkpt lat="57.584135" lon="9.979165">
<ele>16.795641</ele>
<time>2026-07-16T16:40:46.000Z</time>
</trkpt>
<trkpt lat="57.584152" lon="9.979222">
<ele>16.812115</ele>
<time>2026-07-16T16:40:47.000Z</time>
</trkpt>
<trkpt lat="57.584167" lon="9.979278">
<ele>16.827927</ele>
<time>2026-07-16T16:40:48.000Z</time>
</trkpt>
<trkpt lat="57.584177" lon="9.979327">
<ele>16.841169</ele>
<time>2026-07-16T16:40:49.000Z</time>
</trkpt>
<trkpt lat="57.584193" lon="9.979369">
<ele>16.854183</ele>
<time>2026-07-16T16:40:50.000Z</time>
</trkpt>
<trkpt lat="57.584209" lon="9.979409">
<ele>16.866788</ele>
<time>2026-07-16T16:40:51.000Z</time>
</trkpt>
<trkpt lat="57.584227" lon="9.979447">
<ele>16.879596</ele>
<time>2026-07-16T16:40:52.000Z</time>
</trkpt>
<trkpt lat="57.584243" lon="9.979473">
<ele>16.889593</ele>
<time>2026-07-16T16:40:53.000Z</time>
</trkpt>
<trkpt lat="57.584256" lon="9.979489">
<ele>16.896931</ele>
<time>2026-07-16T16:40:54.000Z</time>
</trkpt>
<trkpt lat="57.584256" lon="9.979495">
<ele>16.898447</ele>
<time>2026-07-16T16:40:55.000Z</time>
</trkpt>
<trkpt lat="57.584261" lon="9.979497">
<ele>16.900856</ele>
<time>2026-07-16T16:40:56.000Z</time>
</trkpt>
<trkpt lat="57.584263" lon="9.979498">
<ele>16.901832</ele>
<time>2026-07-16T16:40:57.000Z</time>
</trkpt>
<trkpt lat="57.584311" lon="9.979526">
<ele>16.925527</ele>
<time>2026-07-16T16:41:05.000Z</time>
</trkpt>
<trkpt lat="57.584345" lon="9.979552">
<ele>16.942840</ele>
<time>2026-07-16T16:41:06.000Z</time>
</trkpt>
<trkpt lat="57.584364" lon="9.979588">
<ele>16.955600</ele>
<time>2026-07-16T16:41:07.000Z</time>
</trkpt>
<trkpt lat="57.584381" lon="9.979636">
<ele>16.970130</ele>
<time>2026-07-16T16:41:08.000Z</time>
</trkpt>
<trkpt lat="57.584393" lon="9.979692">
<ele>16.985362</ele>
<time>2026-07-16T16:41:09.000Z</time>
</trkpt>
<trkpt lat="57.584402" lon="9.979759">
<ele>17.002807</ele>
<time>2026-07-16T16:41:10.000Z</time>
</trkpt>
<trkpt lat="57.584410" lon="9.979829">
<ele>17.020885</ele>
<time>2026-07-16T16:41:11.000Z</time>
</trkpt>
<trkpt lat="57.584420" lon="9.979901">
<ele>17.039670</ele>
<time>2026-07-16T16:41:12.000Z</time>
</trkpt>
<trkpt lat="57.584429" lon="9.979973">
<ele>17.058343</ele>
<time>2026-07-16T16:41:13.000Z</time>
</trkpt>
<trkpt lat="57.584439" lon="9.980044">
<ele>17.076883</ele>
<time>2026-07-16T16:41:14.000Z</time>
</trkpt>
<trkpt lat="57.584448" lon="9.980119">
<ele>17.096295</ele>
<time>2026-07-16T16:41:15.000Z</time>
</trkpt>
<trkpt lat="57.584461" lon="9.980193">
<ele>17.115963</ele>
<time>2026-07-16T16:41:16.000Z</time>
</trkpt>
<trkpt lat="57.584473" lon="9.980271">
<ele>17.136458</ele>
<time>2026-07-16T16:41:17.000Z</time>
</trkpt>
<trkpt lat="57.584488" lon="9.980342">
<ele>17.155733</ele>
<time>2026-07-16T16:41:18.000Z</time>
</trkpt>
<trkpt lat="57.584508" lon="9.980410">
<ele>17.175323</ele>
<time>2026-07-16T16:41:19.000Z</time>
</trkpt>
<trkpt lat="57.584528" lon="9.980482">
<ele>17.195804</ele>
<time>2026-07-16T16:41:20.000Z</time>
</trkpt>
<trkpt lat="57.584548" lon="9.980554">
<ele>17.216285</ele>
<time>2026-07-16T16:41:21.000Z</time>
</trkpt>
<trkpt lat="57.584567" lon="9.980627">
<ele>17.236781</ele>
<time>2026-07-16T16:41:22.000Z</time>
</trkpt>
<trkpt lat="57.584580" lon="9.980707">
<ele>17.257894</ele>
<time>2026-07-16T16:41:23.000Z</time>
</trkpt>
<trkpt lat="57.584592" lon="9.980787">
<ele>17.278876</ele>
<time>2026-07-16T16:41:24.000Z</time>
</trkpt>
<trkpt lat="57.584597" lon="9.980862">
<ele>17.297964</ele>
<time>2026-07-16T16:41:25.000Z</time>
</trkpt>
<trkpt lat="57.584607" lon="9.980939">
<ele>17.317974</ele>
<time>2026-07-16T16:41:26.000Z</time>
</trkpt>
<trkpt lat="57.584618" lon="9.981016">
<ele>17.338101</ele>
<time>2026-07-16T16:41:27.000Z</time>
</trkpt>
<trkpt lat="57.584633" lon="9.981090">
<ele>17.358082</ele>
<time>2026-07-16T16:41:28.000Z</time>
</trkpt>
<trkpt lat="57.584639" lon="9.981171">
<ele>17.378734</ele>
<time>2026-07-16T16:41:29.000Z</time>
</trkpt>
<trkpt lat="57.584638" lon="9.981252">
<ele>17.399198</ele>
<time>2026-07-16T16:41:30.000Z</time>
</trkpt>
<trkpt lat="57.584637" lon="9.981329">
<ele>17.417689</ele>
<time>2026-07-16T16:41:31.000Z</time>
</trkpt>
<trkpt lat="57.584637" lon="9.981405">
<ele>17.427167</ele>
<time>2026-07-16T16:41:32.000Z</time>
</trkpt>
<trkpt lat="57.584631" lon="9.981487">
<ele>17.437488</ele>
<time>2026-07-16T16:41:33.000Z</time>
</trkpt>
<trkpt lat="57.584624" lon="9.981569">
<ele>17.447843</ele>
<time>2026-07-16T16:41:34.000Z</time>
</trkpt>
<trkpt lat="57.584619" lon="9.981644">
<ele>17.457268</ele>
<time>2026-07-16T16:41:35.000Z</time>
</trkpt>
<trkpt lat="57.584612" lon="9.981709">
<ele>17.465536</ele>
<time>2026-07-16T16:41:36.000Z</time>
</trkpt>
<trkpt lat="57.584602" lon="9.981784">
<ele>17.475174</ele>
<time>2026-07-16T16:41:37.000Z</time>
</trkpt>
<trkpt lat="57.584585" lon="9.981866">
<ele>17.486138</ele>
<time>2026-07-16T16:41:38.000Z</time>
</trkpt>
<trkpt lat="57.584563" lon="9.981948">
<ele>17.497573</ele>
<time>2026-07-16T16:41:39.000Z</time>
</trkpt>
<trkpt lat="57.584543" lon="9.982029">
<ele>17.508695</ele>
<time>2026-07-16T16:41:40.000Z</time>
</trkpt>
<trkpt lat="57.584524" lon="9.982105">
<ele>17.519153</ele>
<time>2026-07-16T16:41:41.000Z</time>
</trkpt>
<trkpt lat="57.584505" lon="9.982183">
<ele>17.529837</ele>
<time>2026-07-16T16:41:42.000Z</time>
</trkpt>
<trkpt lat="57.584483" lon="9.982263">
<ele>17.541050</ele>
<time>2026-07-16T16:41:43.000Z</time>
</trkpt>
<trkpt lat="57.584468" lon="9.982329">
<ele>17.549990</ele>
<time>2026-07-16T16:41:44.000Z</time>
</trkpt>
<trkpt lat="57.584454" lon="9.982389">
<ele>17.558151</ele>
<time>2026-07-16T16:41:45.000Z</time>
</trkpt>
<trkpt lat="57.584441" lon="9.982447">
<ele>17.565990</ele>
<time>2026-07-16T16:41:46.000Z</time>
</trkpt>
<trkpt lat="57.584430" lon="9.982501">
<ele>17.573195</ele>
<time>2026-07-16T16:41:47.000Z</time>
</trkpt>
<trkpt lat="57.584413" lon="9.982553">
<ele>17.580790</ele>
<time>2026-07-16T16:41:48.000Z</time>
</trkpt>
<trkpt lat="57.584397" lon="9.982599">
<ele>17.587629</ele>
<time>2026-07-16T16:41:49.000Z</time>
</trkpt>
<trkpt lat="57.584384" lon="9.982642">
<ele>17.593785</ele>
<time>2026-07-16T16:41:50.000Z</time>
</trkpt>
<trkpt lat="57.584373" lon="9.982684">
<ele>17.599615</ele>
<time>2026-07-16T16:41:51.000Z</time>
</trkpt>
<trkpt lat="57.584361" lon="9.982733">
<ele>17.606333</ele>
<time>2026-07-16T16:41:52.000Z</time>
</trkpt>
<trkpt lat="57.584353" lon="9.982781">
<ele>17.612601</ele>
<time>2026-07-16T16:41:53.000Z</time>
</trkpt>
<trkpt lat="57.584348" lon="9.982839">
<ele>17.619928</ele>
<time>2026-07-16T16:41:54.000Z</time>
</trkpt>
<trkpt lat="57.584341" lon="9.982905">
<ele>17.628318</ele>
<time>2026-07-16T16:41:55.000Z</time>
</trkpt>
<trkpt lat="57.584334" lon="9.982966">
<ele>17.636097</ele>
<time>2026-07-16T16:41:56.000Z</time>
</trkpt>
<trkpt lat="57.584320" lon="9.983023">
<ele>17.643917</ele>
<time>2026-07-16T16:41:57.000Z</time>
</trkpt>
<trkpt lat="57.584308" lon="9.983083">
<ele>17.651903</ele>
<time>2026-07-16T16:41:58.000Z</time>
</trkpt>
<trkpt lat="57.584286" lon="9.983173">
<ele>17.664239</ele>
<time>2026-07-16T16:41:59.000Z</time>
</trkpt>
<trkpt lat="57.584251" lon="9.983252">
<ele>17.677020</ele>
<time>2026-07-16T16:42:00.000Z</time>
</trkpt>
<trkpt lat="57.584221" lon="9.983328">
<ele>17.688790</ele>
<time>2026-07-16T16:42:01.000Z</time>
</trkpt>
<trkpt lat="57.584202" lon="9.983411">
<ele>17.700045</ele>
<time>2026-07-16T16:42:02.000Z</time>
</trkpt>
<trkpt lat="57.584173" lon="9.983491">
<ele>17.712089</ele>
<time>2026-07-16T16:42:03.000Z</time>
</trkpt>
<trkpt lat="57.584150" lon="9.983566">
<ele>17.722865</ele>
<time>2026-07-16T16:42:04.000Z</time>
</trkpt>
<trkpt lat="57.584131" lon="9.983639">
<ele>17.732985</ele>
<time>2026-07-16T16:42:05.000Z</time>
</trkpt>
<trkpt lat="57.584117" lon="9.983721">
<ele>17.743717</ele>
<time>2026-07-16T16:42:06.000Z</time>
</trkpt>
<trkpt lat="57.584103" lon="9.983802">
<ele>17.754331</ele>
<time>2026-07-16T16:42:07.000Z</time>
</trkpt>
<trkpt lat="57.584091" lon="9.983897">
<ele>17.766503</ele>
<time>2026-07-16T16:42:08.000Z</time>
</trkpt>
<trkpt lat="57.584074" lon="9.984003">
<ele>17.780301</ele>
<time>2026-07-16T16:42:09.000Z</time>
</trkpt>
<trkpt lat="57.584049" lon="9.984113">
<ele>17.795201</ele>
<time>2026-07-16T16:42:10.000Z</time>
</trkpt>
<trkpt lat="57.584019" lon="9.984264">
<ele>17.815284</ele>
<time>2026-07-16T16:42:11.000Z</time>
</trkpt>
<trkpt lat="57.584000" lon="9.984396">
<ele>17.832328</ele>
<time>2026-07-16T16:42:12.000Z</time>
</trkpt>
<trkpt lat="57.583979" lon="9.984517">
<ele>17.832599</ele>
<time>2026-07-16T16:42:13.000Z</time>
</trkpt>
<trkpt lat="57.583956" lon="9.984647">
<ele>17.829199</ele>
<time>2026-07-16T16:42:14.000Z</time>
</trkpt>
<trkpt lat="57.583936" lon="9.984786">
<ele>17.825625</ele>
<time>2026-07-16T16:42:15.000Z</time>
</trkpt>
<trkpt lat="57.583920" lon="9.984918">
<ele>17.822264</ele>
<time>2026-07-16T16:42:16.000Z</time>
</trkpt>
<trkpt lat="57.583910" lon="9.985030">
<ele>17.819444</ele>
<time>2026-07-16T16:42:17.000Z</time>
</trkpt>
<trkpt lat="57.583900" lon="9.985141">
<ele>17.816648</ele>
<time>2026-07-16T16:42:18.000Z</time>
</trkpt>
<trkpt lat="57.583886" lon="9.985267">
<ele>17.813452</ele>
<time>2026-07-16T16:42:19.000Z</time>
</trkpt>
<trkpt lat="57.583871" lon="9.985380">
<ele>17.810561</ele>
<time>2026-07-16T16:42:20.000Z</time>
</trkpt>
<trkpt lat="57.583850" lon="9.985518">
<ele>17.806998</ele>
<time>2026-07-16T16:42:21.000Z</time>
</trkpt>
<trkpt lat="57.583829" lon="9.985638">
<ele>17.803863</ele>
<time>2026-07-16T16:42:22.000Z</time>
</trkpt>
<trkpt lat="57.583807" lon="9.985752">
<ele>17.800853</ele>
<time>2026-07-16T16:42:23.000Z</time>
</trkpt>
<trkpt lat="57.583782" lon="9.985867">
<ele>17.797771</ele>
<time>2026-07-16T16:42:24.000Z</time>
</trkpt>
<trkpt lat="57.583763" lon="9.985964">
<ele>17.795206</ele>
<time>2026-07-16T16:42:25.000Z</time>
</trkpt>
<trkpt lat="57.583745" lon="9.986059">
<ele>17.792703</ele>
<time>2026-07-16T16:42:26.000Z</time>
</trkpt>
<trkpt lat="57.583724" lon="9.986181">
<ele>17.789521</ele>
<time>2026-07-16T16:42:27.000Z</time>
</trkpt>
<trkpt lat="57.583704" lon="9.986296">
<ele>17.786518</ele>
<time>2026-07-16T16:42:28.000Z</time>
</trkpt>
<trkpt lat="57.583687" lon="9.986399">
<ele>17.783841</ele>
<time>2026-07-16T16:42:29.000Z</time>
</trkpt>
<trkpt lat="57.583669" lon="9.986511">
<ele>17.780937</ele>
<time>2026-07-16T16:42:30.000Z</time>
</trkpt>
<trkpt lat="57.583650" lon="9.986629">
<ele>17.777877</ele>
<time>2026-07-16T16:42:31.000Z</time>
</trkpt>
<trkpt lat="57.583637" lon="9.986744">
<ele>17.774958</ele>
<time>2026-07-16T16:42:32.000Z</time>
</trkpt>
<trkpt lat="57.583628" lon="9.986868">
<ele>17.771850</ele>
<time>2026-07-16T16:42:33.000Z</time>
</trkpt>
<trkpt lat="57.583618" lon="9.986993">
<ele>17.768711</ele>
<time>2026-07-16T16:42:34.000Z</time>
</trkpt>
<trkpt lat="57.583609" lon="9.987113">
<ele>17.765702</ele>
<time>2026-07-16T16:42:35.000Z</time>
</trkpt>
<trkpt lat="57.583604" lon="9.987222">
<ele>17.762985</ele>
<time>2026-07-16T16:42:36.000Z</time>
</trkpt>
<trkpt lat="57.583597" lon="9.987331">
<ele>17.760258</ele>
<time>2026-07-16T16:42:37.000Z</time>
</trkpt>
<trkpt lat="57.583592" lon="9.987444">
<ele>17.757442</ele>
<time>2026-07-16T16:42:38.000Z</time>
</trkpt>
<trkpt lat="57.583586" lon="9.987552">
<ele>17.754745</ele>
<time>2026-07-16T16:42:39.000Z</time>
</trkpt>
<trkpt lat="57.583584" lon="9.987652">
<ele>17.752260</ele>
<time>2026-07-16T16:42:40.000Z</time>
</trkpt>
<trkpt lat="57.583587" lon="9.987747">
<ele>17.723872</ele>
<time>2026-07-16T16:42:41.000Z</time>
</trkpt>
<trkpt lat="57.583588" lon="9.987845">
<ele>17.689079</ele>
<time>2026-07-16T16:42:42.000Z</time>
</trkpt>
<trkpt lat="57.583585" lon="9.987942">
<ele>17.654590</ele>
<time>2026-07-16T16:42:43.000Z</time>
</trkpt>
<trkpt lat="57.583581" lon="9.988037">
<ele>17.620764</ele>
<time>2026-07-16T16:42:44.000Z</time>
</trkpt>
<trkpt lat="57.583583" lon="9.988127">
<ele>17.588790</ele>
<time>2026-07-16T16:42:45.000Z</time>
</trkpt>
<trkpt lat="57.583584" lon="9.988217">
<ele>17.556836</ele>
<time>2026-07-16T16:42:46.000Z</time>
</trkpt>
<trkpt lat="57.583587" lon="9.988312">
<ele>17.523056</ele>
<time>2026-07-16T16:42:47.000Z</time>
</trkpt>
<trkpt lat="57.583585" lon="9.988407">
<ele>17.489308</ele>
<time>2026-07-16T16:42:48.000Z</time>
</trkpt>
<trkpt lat="57.583581" lon="9.988497">
<ele>17.457251</ele>
<time>2026-07-16T16:42:49.000Z</time>
</trkpt>
<trkpt lat="57.583580" lon="9.988587">
<ele>17.425297</ele>
<time>2026-07-16T16:42:50.000Z</time>
</trkpt>
<trkpt lat="57.583580" lon="9.988674">
<ele>17.394415</ele>
<time>2026-07-16T16:42:51.000Z</time>
</trkpt>
<trkpt lat="57.583577" lon="9.988765">
<ele>17.362052</ele>
<time>2026-07-16T16:42:52.000Z</time>
</trkpt>
<trkpt lat="57.583571" lon="9.988854">
<ele>17.330211</ele>
<time>2026-07-16T16:42:53.000Z</time>
</trkpt>
<trkpt lat="57.583566" lon="9.988941">
<ele>17.299152</ele>
<time>2026-07-16T16:42:54.000Z</time>
</trkpt>
<trkpt lat="57.583562" lon="9.989028">
<ele>17.268157</ele>
<time>2026-07-16T16:42:55.000Z</time>
</trkpt>
<trkpt lat="57.583561" lon="9.989118">
<ele>17.236203</ele>
<time>2026-07-16T16:42:56.000Z</time>
</trkpt>
<trkpt lat="57.583561" lon="9.989213">
<ele>17.202481</ele>
<time>2026-07-16T16:42:57.000Z</time>
</trkpt>
<trkpt lat="57.583558" lon="9.989311">
<ele>17.167638</ele>
<time>2026-07-16T16:42:58.000Z</time>
</trkpt>
<trkpt lat="57.583557" lon="9.989404">
<ele>17.134619</ele>
<time>2026-07-16T16:42:59.000Z</time>
</trkpt>
<trkpt lat="57.583557" lon="9.989488">
<ele>17.104802</ele>
<time>2026-07-16T16:43:00.000Z</time>
</trkpt>
<trkpt lat="57.583557" lon="9.989574">
<ele>17.074275</ele>
<time>2026-07-16T16:43:01.000Z</time>
</trkpt>
<trkpt lat="57.583560" lon="9.989663">
<ele>17.042620</ele>
<time>2026-07-16T16:43:02.000Z</time>
</trkpt>
<trkpt lat="57.583561" lon="9.989747">
<ele>17.012796</ele>
<time>2026-07-16T16:43:03.000Z</time>
</trkpt>
<trkpt lat="57.583561" lon="9.989824">
<ele>16.985463</ele>
<time>2026-07-16T16:43:04.000Z</time>
</trkpt>
<trkpt lat="57.583558" lon="9.989891">
<ele>16.961598</ele>
<time>2026-07-16T16:43:05.000Z</time>
</trkpt>
<trkpt lat="57.583557" lon="9.989949">
<ele>16.940999</ele>
<time>2026-07-16T16:43:06.000Z</time>
</trkpt>
<trkpt lat="57.583563" lon="9.989990">
<ele>16.925913</ele>
<time>2026-07-16T16:43:07.000Z</time>
</trkpt>
<trkpt lat="57.583568" lon="9.990014">
<ele>16.916773</ele>
<time>2026-07-16T16:43:08.000Z</time>
</trkpt>
<trkpt lat="57.583571" lon="9.990004">
<ele>16.912705</ele>
<time>2026-07-16T16:43:09.000Z</time>
</trkpt>
<trkpt lat="57.583570" lon="9.989986">
<ele>16.906281</ele>
<time>2026-07-16T16:43:10.000Z</time>
</trkpt>
<trkpt lat="57.583563" lon="9.989965">
<ele>16.897503</ele>
<time>2026-07-16T16:43:11.000Z</time>
</trkpt>
<trkpt lat="57.583556" lon="9.989933">
<ele>16.885235</ele>
<time>2026-07-16T16:43:12.000Z</time>
</trkpt>
<trkpt lat="57.583553" lon="9.989887">
<ele>16.868786</ele>
<time>2026-07-16T16:43:13.000Z</time>
</trkpt>
<trkpt lat="57.583553" lon="9.989836">
<ele>16.850683</ele>
<time>2026-07-16T16:43:14.000Z</time>
</trkpt>
<trkpt lat="57.583559" lon="9.989782">
<ele>16.831107</ele>
<time>2026-07-16T16:43:15.000Z</time>
</trkpt>
<trkpt lat="57.583567" lon="9.989726">
<ele>16.810535</ele>
<time>2026-07-16T16:43:16.000Z</time>
</trkpt>
<trkpt lat="57.583569" lon="9.989673">
<ele>16.791676</ele>
<time>2026-07-16T16:43:17.000Z</time>
</trkpt>
<trkpt lat="57.583569" lon="9.989618">
<ele>16.772152</ele>
<time>2026-07-16T16:43:18.000Z</time>
</trkpt>
<trkpt lat="57.583569" lon="9.989564">
<ele>16.752984</ele>
<time>2026-07-16T16:43:19.000Z</time>
</trkpt>
<trkpt lat="57.583563" lon="9.989507">
<ele>16.732365</ele>
<time>2026-07-16T16:43:20.000Z</time>
</trkpt>
<trkpt lat="57.583553" lon="9.989457">
<ele>16.713421</ele>
<time>2026-07-16T16:43:21.000Z</time>
</trkpt>
<trkpt lat="57.583536" lon="9.989422">
<ele>16.696656</ele>
<time>2026-07-16T16:43:22.000Z</time>
</trkpt>
<trkpt lat="57.583520" lon="9.989412">
<ele>16.685483</ele>
<time>2026-07-16T16:43:23.000Z</time>
</trkpt>
<trkpt lat="57.583499" lon="9.989424">
<ele>16.670939</ele>
<time>2026-07-16T16:43:24.000Z</time>
</trkpt>
<trkpt lat="57.583479" lon="9.989458">
<ele>16.653022</ele>
<time>2026-07-16T16:43:25.000Z</time>
</trkpt>
<trkpt lat="57.583468" lon="9.989516">
<ele>16.631183</ele>
<time>2026-07-16T16:43:26.000Z</time>
</trkpt>
<trkpt lat="57.583460" lon="9.989592">
<ele>16.603690</ele>
<time>2026-07-16T16:43:27.000Z</time>
</trkpt>
<trkpt lat="57.583452" lon="9.989673">
<ele>16.574454</ele>
<time>2026-07-16T16:43:28.000Z</time>
</trkpt>
<trkpt lat="57.583445" lon="9.989758">
<ele>16.550558</ele>
<time>2026-07-16T16:43:29.000Z</time>
</trkpt>
<trkpt lat="57.583434" lon="9.989846">
<ele>16.531048</ele>
<time>2026-07-16T16:43:30.000Z</time>
</trkpt>
<trkpt lat="57.583423" lon="9.989935">
<ele>16.511328</ele>
<time>2026-07-16T16:43:31.000Z</time>
</trkpt>
<trkpt lat="57.583414" lon="9.990027">
<ele>16.491137</ele>
<time>2026-07-16T16:43:32.000Z</time>
</trkpt>
<trkpt lat="57.583407" lon="9.990123">
<ele>16.470218</ele>
<time>2026-07-16T16:43:33.000Z</time>
</trkpt>
<trkpt lat="57.583396" lon="9.990223">
<ele>16.448178</ele>
<time>2026-07-16T16:43:34.000Z</time>
</trkpt>
<trkpt lat="57.583390" lon="9.990324">
<ele>16.426237</ele>
<time>2026-07-16T16:43:35.000Z</time>
</trkpt>
<trkpt lat="57.583384" lon="9.990428">
<ele>16.403653</ele>
<time>2026-07-16T16:43:36.000Z</time>
</trkpt>
<trkpt lat="57.583382" lon="9.990529">
<ele>16.381831</ele>
<time>2026-07-16T16:43:37.000Z</time>
</trkpt>
<trkpt lat="57.583376" lon="9.990631">
<ele>16.359676</ele>
<time>2026-07-16T16:43:38.000Z</time>
</trkpt>
<trkpt lat="57.583369" lon="9.990732">
<ele>16.337688</ele>
<time>2026-07-16T16:43:39.000Z</time>
</trkpt>
<trkpt lat="57.583361" lon="9.990830">
<ele>16.316285</ele>
<time>2026-07-16T16:43:40.000Z</time>
</trkpt>
<trkpt lat="57.583353" lon="9.990925">
<ele>16.295522</ele>
<time>2026-07-16T16:43:41.000Z</time>
</trkpt>
<trkpt lat="57.583346" lon="9.991029">
<ele>16.272891</ele>
<time>2026-07-16T16:43:42.000Z</time>
</trkpt>
<trkpt lat="57.583344" lon="9.991137">
<ele>16.249559</ele>
<time>2026-07-16T16:43:43.000Z</time>
</trkpt>
<trkpt lat="57.583344" lon="9.991242">
<ele>16.226888</ele>
<time>2026-07-16T16:43:44.000Z</time>
</trkpt>
<trkpt lat="57.583346" lon="9.991343">
<ele>16.205067</ele>
<time>2026-07-16T16:43:45.000Z</time>
</trkpt>
<trkpt lat="57.583350" lon="9.991442">
<ele>16.183631</ele>
<time>2026-07-16T16:43:46.000Z</time>
</trkpt>
<trkpt lat="57.583359" lon="9.991531">
<ele>16.164076</ele>
<time>2026-07-16T16:43:47.000Z</time>
</trkpt>
<trkpt lat="57.583376" lon="9.991613">
<ele>16.145093</ele>
<time>2026-07-16T16:43:48.000Z</time>
</trkpt>
<trkpt lat="57.583401" lon="9.991689">
<ele>16.125841</ele>
<time>2026-07-16T16:43:49.000Z</time>
</trkpt>
<trkpt lat="57.583428" lon="9.991758">
<ele>16.107397</ele>
<time>2026-07-16T16:43:50.000Z</time>
</trkpt>
<trkpt lat="57.583454" lon="9.991818">
<ele>16.090739</ele>
<time>2026-07-16T16:43:51.000Z</time>
</trkpt>
<trkpt lat="57.583484" lon="9.991871">
<ele>16.074098</ele>
<time>2026-07-16T16:43:52.000Z</time>
</trkpt>
<trkpt lat="57.583508" lon="9.991920">
<ele>16.059767</ele>
<time>2026-07-16T16:43:53.000Z</time>
</trkpt>
<trkpt lat="57.583531" lon="9.991976">
<ele>16.044535</ele>
<time>2026-07-16T16:43:54.000Z</time>
</trkpt>
<trkpt lat="57.583544" lon="9.992039">
<ele>16.029960</ele>
<time>2026-07-16T16:43:55.000Z</time>
</trkpt>
<trkpt lat="57.583551" lon="9.992102">
<ele>16.016069</ele>
<time>2026-07-16T16:43:56.000Z</time>
</trkpt>
<trkpt lat="57.583553" lon="9.992160">
<ele>16.003520</ele>
<time>2026-07-16T16:43:57.000Z</time>
</trkpt>
<trkpt lat="57.583553" lon="9.992223">
<ele>15.989918</ele>
<time>2026-07-16T16:43:58.000Z</time>
</trkpt>
<trkpt lat="57.583553" lon="9.992288">
<ele>15.975884</ele>
<time>2026-07-16T16:43:59.000Z</time>
</trkpt>
<trkpt lat="57.583556" lon="9.992357">
<ele>15.960937</ele>
<time>2026-07-16T16:44:00.000Z</time>
</trkpt>
<trkpt lat="57.583557" lon="9.992426">
<ele>15.946034</ele>
<time>2026-07-16T16:44:01.000Z</time>
</trkpt>
<trkpt lat="57.583560" lon="9.992492">
<ele>15.931733</ele>
<time>2026-07-16T16:44:02.000Z</time>
</trkpt>
<trkpt lat="57.583561" lon="9.992549">
<ele>15.919420</ele>
<time>2026-07-16T16:44:03.000Z</time>
</trkpt>
<trkpt lat="57.583561" lon="9.992613">
<ele>15.905602</ele>
<time>2026-07-16T16:44:04.000Z</time>
</trkpt>
<trkpt lat="57.583564" lon="9.992686">
<ele>15.889794</ele>
<time>2026-07-16T16:44:05.000Z</time>
</trkpt>
<trkpt lat="57.583570" lon="9.992771">
<ele>15.871283</ele>
<time>2026-07-16T16:44:06.000Z</time>
</trkpt>
<trkpt lat="57.583575" lon="9.992850">
<ele>15.854108</ele>
<time>2026-07-16T16:44:07.000Z</time>
</trkpt>
<trkpt lat="57.583576" lon="9.992914">
<ele>15.840284</ele>
<time>2026-07-16T16:44:08.000Z</time>
</trkpt>
<trkpt lat="57.583576" lon="9.992972">
<ele>15.824511</ele>
<time>2026-07-16T16:44:09.000Z</time>
</trkpt>
<trkpt lat="57.583573" lon="9.993032">
<ele>15.806619</ele>
<time>2026-07-16T16:44:10.000Z</time>
</trkpt>
<trkpt lat="57.583572" lon="9.993106">
<ele>15.784641</ele>
<time>2026-07-16T16:44:11.000Z</time>
</trkpt>
<trkpt lat="57.583570" lon="9.993187">
<ele>15.760565</ele>
<time>2026-07-16T16:44:12.000Z</time>
</trkpt>
<trkpt lat="57.583569" lon="9.993266">
<ele>15.737103</ele>
<time>2026-07-16T16:44:13.000Z</time>
</trkpt>
<trkpt lat="57.583566" lon="9.993348">
<ele>15.712700</ele>
<time>2026-07-16T16:44:14.000Z</time>
</trkpt>
<trkpt lat="57.583559" lon="9.993434">
<ele>15.686873</ele>
<time>2026-07-16T16:44:15.000Z</time>
</trkpt>
<trkpt lat="57.583554" lon="9.993515">
<ele>15.662664</ele>
<time>2026-07-16T16:44:16.000Z</time>
</trkpt>
<trkpt lat="57.583548" lon="9.993597">
<ele>15.638092</ele>
<time>2026-07-16T16:44:17.000Z</time>
</trkpt>
<trkpt lat="57.583543" lon="9.993671">
<ele>15.615947</ele>
<time>2026-07-16T16:44:18.000Z</time>
</trkpt>
<trkpt lat="57.583539" lon="9.993739">
<ele>15.595636</ele>
<time>2026-07-16T16:44:19.000Z</time>
</trkpt>
<trkpt lat="57.583535" lon="9.993813">
<ele>15.573553</ele>
<time>2026-07-16T16:44:20.000Z</time>
</trkpt>
<trkpt lat="57.583531" lon="9.993892">
<ele>15.549993</ele>
<time>2026-07-16T16:44:21.000Z</time>
</trkpt>
<trkpt lat="57.583528" lon="9.993976">
<ele>15.524997</ele>
<time>2026-07-16T16:44:22.000Z</time>
</trkpt>
<trkpt lat="57.583518" lon="9.994059">
<ele>15.499739</ele>
<time>2026-07-16T16:44:23.000Z</time>
</trkpt>
<trkpt lat="57.583504" lon="9.994154">
<ele>15.470486</ele>
<time>2026-07-16T16:44:24.000Z</time>
</trkpt>
<trkpt lat="57.583489" lon="9.994246">
<ele>15.441935</ele>
<time>2026-07-16T16:44:25.000Z</time>
</trkpt>
<trkpt lat="57.583468" lon="9.994343">
<ele>15.410875</ele>
<time>2026-07-16T16:44:26.000Z</time>
</trkpt>
<trkpt lat="57.583451" lon="9.994437">
<ele>15.381420</ele>
<time>2026-07-16T16:44:27.000Z</time>
</trkpt>
<trkpt lat="57.583438" lon="9.994531">
<ele>15.352596</ele>
<time>2026-07-16T16:44:28.000Z</time>
</trkpt>
<trkpt lat="57.583427" lon="9.994627">
<ele>15.323449</ele>
<time>2026-07-16T16:44:29.000Z</time>
</trkpt>
<trkpt lat="57.583413" lon="9.994723">
<ele>15.293910</ele>
<time>2026-07-16T16:44:30.000Z</time>
</trkpt>
<trkpt lat="57.583395" lon="9.994825">
<ele>15.262026</ele>
<time>2026-07-16T16:44:31.000Z</time>
</trkpt>
<trkpt lat="57.583375" lon="9.994927">
<ele>15.229779</ele>
<time>2026-07-16T16:44:32.000Z</time>
</trkpt>
<trkpt lat="57.583348" lon="9.995033">
<ele>15.194934</ele>
<time>2026-07-16T16:44:33.000Z</time>
</trkpt>
<trkpt lat="57.583320" lon="9.995137">
<ele>15.160380</ele>
<time>2026-07-16T16:44:34.000Z</time>
</trkpt>
<trkpt lat="57.583305" lon="9.995237">
<ele>15.129548</ele>
<time>2026-07-16T16:44:35.000Z</time>
</trkpt>
<trkpt lat="57.583293" lon="9.995331">
<ele>15.100858</ele>
<time>2026-07-16T16:44:36.000Z</time>
</trkpt>
<trkpt lat="57.583279" lon="9.995430">
<ele>15.070458</ele>
<time>2026-07-16T16:44:37.000Z</time>
</trkpt>
<trkpt lat="57.583267" lon="9.995532">
<ele>15.039453</ele>
<time>2026-07-16T16:44:38.000Z</time>
</trkpt>
<trkpt lat="57.583255" lon="9.995631">
<ele>15.009316</ele>
<time>2026-07-16T16:44:39.000Z</time>
</trkpt>
<trkpt lat="57.583238" lon="9.995736">
<ele>14.976750</ele>
<time>2026-07-16T16:44:40.000Z</time>
</trkpt>
<trkpt lat="57.583216" lon="9.995844">
<ele>14.942446</ele>
<time>2026-07-16T16:44:41.000Z</time>
</trkpt>
<trkpt lat="57.583196" lon="9.995952">
<ele>14.908520</ele>
<time>2026-07-16T16:44:42.000Z</time>
</trkpt>
<trkpt lat="57.583183" lon="9.996053">
<ele>14.877680</ele>
<time>2026-07-16T16:44:43.000Z</time>
</trkpt>
<trkpt lat="57.583171" lon="9.996151">
<ele>14.847833</ele>
<time>2026-07-16T16:44:44.000Z</time>
</trkpt>
<trkpt lat="57.583157" lon="9.996258">
<ele>14.838707</ele>
<time>2026-07-16T16:44:45.000Z</time>
</trkpt>
<trkpt lat="57.583142" lon="9.996358">
<ele>14.836846</ele>
<time>2026-07-16T16:44:46.000Z</time>
</trkpt>
<trkpt lat="57.583115" lon="9.996485">
<ele>14.834396</ele>
<time>2026-07-16T16:44:47.000Z</time>
</trkpt>
<trkpt lat="57.583101" lon="9.996599">
<ele>14.832299</ele>
<time>2026-07-16T16:44:48.000Z</time>
</trkpt>
<trkpt lat="57.583091" lon="9.996700">
<ele>14.830457</ele>
<time>2026-07-16T16:44:49.000Z</time>
</trkpt>
<trkpt lat="57.583080" lon="9.996805">
<ele>14.828539</ele>
<time>2026-07-16T16:44:50.000Z</time>
</trkpt>
<trkpt lat="57.583065" lon="9.996906">
<ele>14.826660</ele>
<time>2026-07-16T16:44:51.000Z</time>
</trkpt>
<trkpt lat="57.583053" lon="9.997011">
<ele>14.824735</ele>
<time>2026-07-16T16:44:52.000Z</time>
</trkpt>
<trkpt lat="57.583041" lon="9.997114">
<ele>14.822845</ele>
<time>2026-07-16T16:44:53.000Z</time>
</trkpt>
<trkpt lat="57.583030" lon="9.997224">
<ele>14.820839</ele>
<time>2026-07-16T16:44:54.000Z</time>
</trkpt>
<trkpt lat="57.583016" lon="9.997339">
<ele>14.818724</ele>
<time>2026-07-16T16:44:55.000Z</time>
</trkpt>
<trkpt lat="57.582998" lon="9.997449">
<ele>14.816662</ele>
<time>2026-07-16T16:44:56.000Z</time>
</trkpt>
<trkpt lat="57.582981" lon="9.997557">
<ele>14.814644</ele>
<time>2026-07-16T16:44:57.000Z</time>
</trkpt>
<trkpt lat="57.582969" lon="9.997664">
<ele>14.812684</ele>
<time>2026-07-16T16:44:58.000Z</time>
</trkpt>
<trkpt lat="57.582952" lon="9.997775">
<ele>14.810614</ele>
<time>2026-07-16T16:44:59.000Z</time>
</trkpt>
<trkpt lat="57.582936" lon="9.997889">
<ele>14.808501</ele>
<time>2026-07-16T16:45:00.000Z</time>
</trkpt>
<trkpt lat="57.582923" lon="9.997998">
<ele>14.806499</ele>
<time>2026-07-16T16:45:01.000Z</time>
</trkpt>
<trkpt lat="57.582912" lon="9.998101">
<ele>14.804616</ele>
<time>2026-07-16T16:45:02.000Z</time>
</trkpt>
<trkpt lat="57.582898" lon="9.998205">
<ele>14.802693</ele>
<time>2026-07-16T16:45:03.000Z</time>
</trkpt>
<trkpt lat="57.582888" lon="9.998306">
<ele>14.800852</ele>
<time>2026-07-16T16:45:04.000Z</time>
</trkpt>
<trkpt lat="57.582886" lon="9.998401">
<ele>14.799147</ele>
<time>2026-07-16T16:45:05.000Z</time>
</trkpt>
<trkpt lat="57.582888" lon="9.998491">
<ele>14.797532</ele>
<time>2026-07-16T16:45:06.000Z</time>
</trkpt>
<trkpt lat="57.582873" lon="9.998594">
<ele>14.795618</ele>
<time>2026-07-16T16:45:07.000Z</time>
</trkpt>
<trkpt lat="57.582864" lon="9.998685">
<ele>14.793959</ele>
<time>2026-07-16T16:45:08.000Z</time>
</trkpt>
<trkpt lat="57.582857" lon="9.998776">
<ele>14.792311</ele>
<time>2026-07-16T16:45:09.000Z</time>
</trkpt>
<trkpt lat="57.582836" lon="9.998910">
<ele>14.789807</ele>
<time>2026-07-16T16:45:10.000Z</time>
</trkpt>
<trkpt lat="57.582823" lon="9.999024">
<ele>14.787718</ele>
<time>2026-07-16T16:45:11.000Z</time>
</trkpt>
<trkpt lat="57.582824" lon="9.999128">
<ele>14.785853</ele>
<time>2026-07-16T16:45:12.000Z</time>
</trkpt>
<trkpt lat="57.582825" lon="9.999237">
<ele>14.783898</ele>
<time>2026-07-16T16:45:13.000Z</time>
</trkpt>
<trkpt lat="57.582819" lon="9.999340">
<ele>14.782040</ele>
<time>2026-07-16T16:45:14.000Z</time>
</trkpt>
<trkpt lat="57.582817" lon="9.999443">
<ele>14.780192</ele>
<time>2026-07-16T16:45:15.000Z</time>
</trkpt>
<trkpt lat="57.582820" lon="9.999541">
<ele>14.756159</ele>
<time>2026-07-16T16:45:16.000Z</time>
</trkpt>
<trkpt lat="57.582821" lon="9.999634">
<ele>14.731723</ele>
<time>2026-07-16T16:45:17.000Z</time>
</trkpt>
<trkpt lat="57.582810" lon="9.999740">
<ele>14.703360</ele>
<time>2026-07-16T16:45:18.000Z</time>
</trkpt>
<trkpt lat="57.582784" lon="9.999876">
<ele>14.665430</ele>
<time>2026-07-16T16:45:19.000Z</time>
</trkpt>
<trkpt lat="57.582775" lon="9.999986">
<ele>14.636198</ele>
<time>2026-07-16T16:45:20.000Z</time>
</trkpt>
<trkpt lat="57.582761" lon="10.000120">
<ele>14.600334</ele>
<time>2026-07-16T16:45:21.000Z</time>
</trkpt>
<trkpt lat="57.582751" lon="10.000239">
<ele>14.568691</ele>
<time>2026-07-16T16:45:22.000Z</time>
</trkpt>
<trkpt lat="57.582740" lon="10.000346">
<ele>14.540070</ele>
<time>2026-07-16T16:45:23.000Z</time>
</trkpt>
<trkpt lat="57.582729" lon="10.000457">
<ele>14.510417</ele>
<time>2026-07-16T16:45:24.000Z</time>
</trkpt>
<trkpt lat="57.582706" lon="10.000582">
<ele>14.475699</ele>
<time>2026-07-16T16:45:25.000Z</time>
</trkpt>
<trkpt lat="57.582682" lon="10.000694">
<ele>14.444013</ele>
<time>2026-07-16T16:45:26.000Z</time>
</trkpt>
<trkpt lat="57.582659" lon="10.000796">
<ele>14.414944</ele>
<time>2026-07-16T16:45:27.000Z</time>
</trkpt>
<trkpt lat="57.582637" lon="10.000892">
<ele>14.387517</ele>
<time>2026-07-16T16:45:28.000Z</time>
</trkpt>
<trkpt lat="57.582619" lon="10.000987">
<ele>14.361048</ele>
<time>2026-07-16T16:45:29.000Z</time>
</trkpt>
<trkpt lat="57.582604" lon="10.001078">
<ele>14.336037</ele>
<time>2026-07-16T16:45:30.000Z</time>
</trkpt>
<trkpt lat="57.582580" lon="10.001179">
<ele>14.307015</ele>
<time>2026-07-16T16:45:31.000Z</time>
</trkpt>
<trkpt lat="57.582562" lon="10.001268">
<ele>14.282026</ele>
<time>2026-07-16T16:45:32.000Z</time>
</trkpt>
<trkpt lat="57.582541" lon="10.001363">
<ele>14.255031</ele>
<time>2026-07-16T16:45:33.000Z</time>
</trkpt>
<trkpt lat="57.582518" lon="10.001468">
<ele>14.225234</ele>
<time>2026-07-16T16:45:34.000Z</time>
</trkpt>
<trkpt lat="57.582496" lon="10.001567">
<ele>14.197080</ele>
<time>2026-07-16T16:45:35.000Z</time>
</trkpt>
<trkpt lat="57.582473" lon="10.001655">
<ele>14.171362</ele>
<time>2026-07-16T16:45:36.000Z</time>
</trkpt>
<trkpt lat="57.582447" lon="10.001741">
<ele>14.145424</ele>
<time>2026-07-16T16:45:37.000Z</time>
</trkpt>
<trkpt lat="57.582423" lon="10.001808">
<ele>14.124256</ele>
<time>2026-07-16T16:45:38.000Z</time>
</trkpt>
<trkpt lat="57.582403" lon="10.001864">
<ele>14.106579</ele>
<time>2026-07-16T16:45:39.000Z</time>
</trkpt>
<trkpt lat="57.582375" lon="10.001917">
<ele>14.087031</ele>
<time>2026-07-16T16:45:40.000Z</time>
</trkpt>
<trkpt lat="57.582345" lon="10.001991">
<ele>14.062658</ele>
<time>2026-07-16T16:45:41.000Z</time>
</trkpt>
<trkpt lat="57.582306" lon="10.002083">
<ele>14.031846</ele>
<time>2026-07-16T16:45:42.000Z</time>
</trkpt>
<trkpt lat="57.582267" lon="10.002182">
<ele>13.999572</ele>
<time>2026-07-16T16:45:43.000Z</time>
</trkpt>
<trkpt lat="57.582226" lon="10.002281">
<ele>13.966708</ele>
<time>2026-07-16T16:45:44.000Z</time>
</trkpt>
<trkpt lat="57.582189" lon="10.002356">
<ele>13.939932</ele>
<time>2026-07-16T16:45:45.000Z</time>
</trkpt>
<trkpt lat="57.582152" lon="10.002411">
<ele>13.916748</ele>
<time>2026-07-16T16:45:46.000Z</time>
</trkpt>
<trkpt lat="57.582109" lon="10.002466">
<ele>13.909093</ele>
<time>2026-07-16T16:45:47.000Z</time>
</trkpt>
<trkpt lat="57.582074" lon="10.002521">
<ele>13.940418</ele>
<time>2026-07-16T16:45:48.000Z</time>
</trkpt>
<trkpt lat="57.582026" lon="10.002600">
<ele>13.984234</ele>
<time>2026-07-16T16:45:49.000Z</time>
</trkpt>
<trkpt lat="57.581965" lon="10.002694">
<ele>14.038392</ele>
<time>2026-07-16T16:45:50.000Z</time>
</trkpt>
<trkpt lat="57.581900" lon="10.002780">
<ele>14.092939</ele>
<time>2026-07-16T16:45:51.000Z</time>
</trkpt>
<trkpt lat="57.581849" lon="10.002865">
<ele>14.139752</ele>
<time>2026-07-16T16:45:52.000Z</time>
</trkpt>
<trkpt lat="57.581801" lon="10.002947">
<ele>14.184304</ele>
<time>2026-07-16T16:45:53.000Z</time>
</trkpt>
<trkpt lat="57.581751" lon="10.003025">
<ele>14.228919</ele>
<time>2026-07-16T16:45:54.000Z</time>
</trkpt>
<trkpt lat="57.581691" lon="10.003119">
<ele>14.282552</ele>
<time>2026-07-16T16:45:55.000Z</time>
</trkpt>
<trkpt lat="57.581637" lon="10.003212">
<ele>14.332859</ele>
<time>2026-07-16T16:45:56.000Z</time>
</trkpt>
<trkpt lat="57.581589" lon="10.003276">
<ele>14.373245</ele>
<time>2026-07-16T16:45:57.000Z</time>
</trkpt>
<trkpt lat="57.581532" lon="10.003362">
<ele>14.423425</ele>
<time>2026-07-16T16:45:58.000Z</time>
</trkpt>
<trkpt lat="57.581470" lon="10.003460">
<ele>14.479051</ele>
<time>2026-07-16T16:45:59.000Z</time>
</trkpt>
<trkpt lat="57.581419" lon="10.003547">
<ele>14.526356</ele>
<time>2026-07-16T16:46:00.000Z</time>
</trkpt>
<trkpt lat="57.581353" lon="10.003639">
<ele>14.582753</ele>
<time>2026-07-16T16:46:01.000Z</time>
</trkpt>
<trkpt lat="57.581301" lon="10.003706">
<ele>14.626012</ele>
<time>2026-07-16T16:46:02.000Z</time>
</trkpt>
<trkpt lat="57.581255" lon="10.003770">
<ele>14.665292</ele>
<time>2026-07-16T16:46:03.000Z</time>
</trkpt>
<trkpt lat="57.581211" lon="10.003833">
<ele>14.703259</ele>
<time>2026-07-16T16:46:04.000Z</time>
</trkpt>
<trkpt lat="57.581167" lon="10.003908">
<ele>14.744058</ele>
<time>2026-07-16T16:46:05.000Z</time>
</trkpt>
<trkpt lat="57.581124" lon="10.003980">
<ele>14.783609</ele>
<time>2026-07-16T16:46:06.000Z</time>
</trkpt>
<trkpt lat="57.581082" lon="10.004044">
<ele>14.820731</ele>
<time>2026-07-16T16:46:07.000Z</time>
</trkpt>
<trkpt lat="57.581039" lon="10.004105">
<ele>14.857709</ele>
<time>2026-07-16T16:46:08.000Z</time>
</trkpt>
<trkpt lat="57.580995" lon="10.004165">
<ele>14.895016</ele>
<time>2026-07-16T16:46:09.000Z</time>
</trkpt>
<trkpt lat="57.580949" lon="10.004226">
<ele>14.933648</ele>
<time>2026-07-16T16:46:10.000Z</time>
</trkpt>
<trkpt lat="57.580903" lon="10.004277">
<ele>14.970276</ele>
<time>2026-07-16T16:46:11.000Z</time>
</trkpt>
<trkpt lat="57.580858" lon="10.004331">
<ele>15.006902</ele>
<time>2026-07-16T16:46:12.000Z</time>
</trkpt>
<trkpt lat="57.580817" lon="10.004382">
<ele>15.040634</ele>
<time>2026-07-16T16:46:13.000Z</time>
</trkpt>
<trkpt lat="57.580782" lon="10.004431">
<ele>15.070588</ele>
<time>2026-07-16T16:46:14.000Z</time>
</trkpt>
<trkpt lat="57.580742" lon="10.004486">
<ele>15.104602</ele>
<time>2026-07-16T16:46:15.000Z</time>
</trkpt>
<trkpt lat="57.580703" lon="10.004539">
<ele>15.123134</ele>
<time>2026-07-16T16:46:16.000Z</time>
</trkpt>
<trkpt lat="57.580660" lon="10.004591">
<ele>15.093209</ele>
<time>2026-07-16T16:46:17.000Z</time>
</trkpt>
<trkpt lat="57.580616" lon="10.004645">
<ele>15.062452</ele>
<time>2026-07-16T16:46:18.000Z</time>
</trkpt>
<trkpt lat="57.580572" lon="10.004700">
<ele>15.031522</ele>
<time>2026-07-16T16:46:19.000Z</time>
</trkpt>
<trkpt lat="57.580529" lon="10.004753">
<ele>15.001425</ele>
<time>2026-07-16T16:46:20.000Z</time>
</trkpt>
<trkpt lat="57.580481" lon="10.004798">
<ele>14.970054</ele>
<time>2026-07-16T16:46:21.000Z</time>
</trkpt>
<trkpt lat="57.580434" lon="10.004845">
<ele>14.938913</ele>
<time>2026-07-16T16:46:22.000Z</time>
</trkpt>
<trkpt lat="57.580391" lon="10.004893">
<ele>14.909650</ele>
<time>2026-07-16T16:46:23.000Z</time>
</trkpt>
<trkpt lat="57.580355" lon="10.004942">
<ele>14.883626</ele>
<time>2026-07-16T16:46:24.000Z</time>
</trkpt>
<trkpt lat="57.580317" lon="10.004995">
<ele>14.855918</ele>
<time>2026-07-16T16:46:25.000Z</time>
</trkpt>
<trkpt lat="57.580279" lon="10.005043">
<ele>14.829118</ele>
<time>2026-07-16T16:46:26.000Z</time>
</trkpt>
<trkpt lat="57.580241" lon="10.005089">
<ele>14.802664</ele>
<time>2026-07-16T16:46:27.000Z</time>
</trkpt>
<trkpt lat="57.580203" lon="10.005120">
<ele>14.778445</ele>
<time>2026-07-16T16:46:28.000Z</time>
</trkpt>
<trkpt lat="57.580165" lon="10.005139">
<ele>14.755471</ele>
<time>2026-07-16T16:46:29.000Z</time>
</trkpt>
<trkpt lat="57.580130" lon="10.005154">
<ele>14.734500</ele>
<time>2026-07-16T16:46:30.000Z</time>
</trkpt>
<trkpt lat="57.580106" lon="10.005163">
<ele>14.720205</ele>
<time>2026-07-16T16:46:31.000Z</time>
</trkpt>
<trkpt lat="57.580090" lon="10.005169">
<ele>14.710674</ele>
<time>2026-07-16T16:46:32.000Z</time>
</trkpt>
<trkpt lat="57.580086" lon="10.005170">
<ele>14.708318</ele>
<time>2026-07-16T16:46:33.000Z</time>
</trkpt>
<trkpt lat="57.580011" lon="10.005271">
<ele>14.654299</ele>
<time>2026-07-16T16:47:31.000Z</time>
</trkpt>
<trkpt lat="57.579993" lon="10.005299">
<ele>14.640613</ele>
<time>2026-07-16T16:47:32.000Z</time>
</trkpt>
<trkpt lat="57.579971" lon="10.005327">
<ele>14.625060</ele>
<time>2026-07-16T16:47:33.000Z</time>
</trkpt>
<trkpt lat="57.579951" lon="10.005357">
<ele>14.610073</ele>
<time>2026-07-16T16:47:34.000Z</time>
</trkpt>
<trkpt lat="57.579928" lon="10.005387">
<ele>14.593684</ele>
<time>2026-07-16T16:47:35.000Z</time>
</trkpt>
<trkpt lat="57.579902" lon="10.005423">
<ele>14.574775</ele>
<time>2026-07-16T16:47:36.000Z</time>
</trkpt>
<trkpt lat="57.579867" lon="10.005466">
<ele>14.550301</ele>
<time>2026-07-16T16:47:37.000Z</time>
</trkpt>
<trkpt lat="57.579835" lon="10.005513">
<ele>14.526517</ele>
<time>2026-07-16T16:47:38.000Z</time>
</trkpt>
<trkpt lat="57.579796" lon="10.005565">
<ele>14.498522</ele>
<time>2026-07-16T16:47:39.000Z</time>
</trkpt>
<trkpt lat="57.579754" lon="10.005620">
<ele>14.468555</ele>
<time>2026-07-16T16:47:40.000Z</time>
</trkpt>
<trkpt lat="57.579712" lon="10.005674">
<ele>14.438767</ele>
<time>2026-07-16T16:47:41.000Z</time>
</trkpt>
<trkpt lat="57.579672" lon="10.005725">
<ele>14.410473</ele>
<time>2026-07-16T16:47:42.000Z</time>
</trkpt>
<trkpt lat="57.579629" lon="10.005787">
<ele>14.378736</ele>
<time>2026-07-16T16:47:43.000Z</time>
</trkpt>
<trkpt lat="57.579586" lon="10.005841">
<ele>14.348465</ele>
<time>2026-07-16T16:47:44.000Z</time>
</trkpt>
<trkpt lat="57.579547" lon="10.005891">
<ele>14.320830</ele>
<time>2026-07-16T16:47:45.000Z</time>
</trkpt>
<trkpt lat="57.579500" lon="10.005936">
<ele>14.289979</ele>
<time>2026-07-16T16:47:46.000Z</time>
</trkpt>
<trkpt lat="57.579451" lon="10.005981">
<ele>14.258085</ele>
<time>2026-07-16T16:47:47.000Z</time>
</trkpt>
<trkpt lat="57.579404" lon="10.006026">
<ele>14.227235</ele>
<time>2026-07-16T16:47:48.000Z</time>
</trkpt>
<trkpt lat="57.579358" lon="10.006074">
<ele>14.196455</ele>
<time>2026-07-16T16:47:49.000Z</time>
</trkpt>
<trkpt lat="57.579316" lon="10.006124">
<ele>14.167359</ele>
<time>2026-07-16T16:47:50.000Z</time>
</trkpt>
<trkpt lat="57.579276" lon="10.006175">
<ele>14.139065</ele>
<time>2026-07-16T16:47:51.000Z</time>
</trkpt>
<trkpt lat="57.579238" lon="10.006220">
<ele>14.112780</ele>
<time>2026-07-16T16:47:52.000Z</time>
</trkpt>
<trkpt lat="57.579203" lon="10.006265">
<ele>14.087957</ele>
<time>2026-07-16T16:47:53.000Z</time>
</trkpt>
<trkpt lat="57.579166" lon="10.006317">
<ele>14.098082</ele>
<time>2026-07-16T16:47:54.000Z</time>
</trkpt>
<trkpt lat="57.579136" lon="10.006365">
<ele>14.121188</ele>
<time>2026-07-16T16:47:55.000Z</time>
</trkpt>
<trkpt lat="57.579109" lon="10.006409">
<ele>14.142147</ele>
<time>2026-07-16T16:47:56.000Z</time>
</trkpt>
<trkpt lat="57.579074" lon="10.006450">
<ele>14.166308</ele>
<time>2026-07-16T16:47:57.000Z</time>
</trkpt>
<trkpt lat="57.579047" lon="10.006506">
<ele>14.189912</ele>
<time>2026-07-16T16:47:58.000Z</time>
</trkpt>
<trkpt lat="57.579035" lon="10.006575">
<ele>14.212647</ele>
<time>2026-07-16T16:47:59.000Z</time>
</trkpt>
<trkpt lat="57.579022" lon="10.006648">
<ele>14.236756</ele>
<time>2026-07-16T16:48:00.000Z</time>
</trkpt>
<trkpt lat="57.579009" lon="10.006732">
<ele>14.264157</ele>
<time>2026-07-16T16:48:01.000Z</time>
</trkpt>
<trkpt lat="57.579006" lon="10.006821">
<ele>14.292106</ele>
<time>2026-07-16T16:48:02.000Z</time>
</trkpt>
<trkpt lat="57.579009" lon="10.006912">
<ele>14.320681</ele>
<time>2026-07-16T16:48:03.000Z</time>
</trkpt>
<trkpt lat="57.579007" lon="10.006996">
<ele>14.347034</ele>
<time>2026-07-16T16:48:04.000Z</time>
</trkpt>
<trkpt lat="57.578998" lon="10.007087">
<ele>14.376036</ele>
<time>2026-07-16T16:48:05.000Z</time>
</trkpt>
<trkpt lat="57.578981" lon="10.007177">
<ele>14.405943</ele>
<time>2026-07-16T16:48:06.000Z</time>
</trkpt>
<trkpt lat="57.578973" lon="10.007267">
<ele>14.434535</ele>
<time>2026-07-16T16:48:07.000Z</time>
</trkpt>
<trkpt lat="57.578972" lon="10.007364">
<ele>14.464942</ele>
<time>2026-07-16T16:48:08.000Z</time>
</trkpt>
<trkpt lat="57.578972" lon="10.007454">
<ele>14.493149</ele>
<time>2026-07-16T16:48:09.000Z</time>
</trkpt>
<trkpt lat="57.578972" lon="10.007550">
<ele>14.523237</ele>
<time>2026-07-16T16:48:10.000Z</time>
</trkpt>
<trkpt lat="57.578972" lon="10.007656">
<ele>14.556459</ele>
<time>2026-07-16T16:48:11.000Z</time>
</trkpt>
<trkpt lat="57.578972" lon="10.007764">
<ele>14.590308</ele>
<time>2026-07-16T16:48:12.000Z</time>
</trkpt>
<trkpt lat="57.578972" lon="10.007867">
<ele>14.622589</ele>
<time>2026-07-16T16:48:13.000Z</time>
</trkpt>
<trkpt lat="57.578969" lon="10.007977">
<ele>14.657110</ele>
<time>2026-07-16T16:48:14.000Z</time>
</trkpt>
<trkpt lat="57.578968" lon="10.008078">
<ele>14.688770</ele>
<time>2026-07-16T16:48:15.000Z</time>
</trkpt>
<trkpt lat="57.578968" lon="10.008178">
<ele>14.720111</ele>
<time>2026-07-16T16:48:16.000Z</time>
</trkpt>
<trkpt lat="57.578963" lon="10.008280">
<ele>14.752213</ele>
<time>2026-07-16T16:48:17.000Z</time>
</trkpt>
<trkpt lat="57.578958" lon="10.008376">
<ele>14.782443</ele>
<time>2026-07-16T16:48:18.000Z</time>
</trkpt>
<trkpt lat="57.578957" lon="10.008470">
<ele>14.811909</ele>
<time>2026-07-16T16:48:19.000Z</time>
</trkpt>
<trkpt lat="57.578957" lon="10.008562">
<ele>14.840744</ele>
<time>2026-07-16T16:48:20.000Z</time>
</trkpt>
<trkpt lat="57.578957" lon="10.008653">
<ele>14.869264</ele>
<time>2026-07-16T16:48:21.000Z</time>
</trkpt>
<trkpt lat="57.578959" lon="10.008748">
<ele>14.899062</ele>
<time>2026-07-16T16:48:22.000Z</time>
</trkpt>
<trkpt lat="57.578963" lon="10.008845">
<ele>14.929553</ele>
<time>2026-07-16T16:48:23.000Z</time>
</trkpt>
<trkpt lat="57.578970" lon="10.008943">
<ele>14.960539</ele>
<time>2026-07-16T16:48:24.000Z</time>
</trkpt>
<trkpt lat="57.578972" lon="10.009043">
<ele>14.991902</ele>
<time>2026-07-16T16:48:25.000Z</time>
</trkpt>
<trkpt lat="57.578975" lon="10.009140">
<ele>15.022354</ele>
<time>2026-07-16T16:48:26.000Z</time>
</trkpt>
<trkpt lat="57.578978" lon="10.009235">
<ele>15.052180</ele>
<time>2026-07-16T16:48:27.000Z</time>
</trkpt>
<trkpt lat="57.578982" lon="10.009327">
<ele>15.081109</ele>
<time>2026-07-16T16:48:28.000Z</time>
</trkpt>
<trkpt lat="57.578989" lon="10.009417">
<ele>15.109611</ele>
<time>2026-07-16T16:48:29.000Z</time>
</trkpt>
<trkpt lat="57.578997" lon="10.009505">
<ele>15.154260</ele>
<time>2026-07-16T16:48:30.000Z</time>
</trkpt>
<trkpt lat="57.579001" lon="10.009592">
<ele>15.250236</ele>
<time>2026-07-16T16:48:31.000Z</time>
</trkpt>
<trkpt lat="57.579005" lon="10.009680">
<ele>15.347307</ele>
<time>2026-07-16T16:48:32.000Z</time>
</trkpt>
<trkpt lat="57.579009" lon="10.009769">
<ele>15.445473</ele>
<time>2026-07-16T16:48:33.000Z</time>
</trkpt>
<trkpt lat="57.579013" lon="10.009857">
<ele>15.542544</ele>
<time>2026-07-16T16:48:34.000Z</time>
</trkpt>
<trkpt lat="57.579016" lon="10.009942">
<ele>15.636173</ele>
<time>2026-07-16T16:48:35.000Z</time>
</trkpt>
<trkpt lat="57.579023" lon="10.010031">
<ele>15.735043</ele>
<time>2026-07-16T16:48:36.000Z</time>
</trkpt>
<trkpt lat="57.579028" lon="10.010118">
<ele>15.831216</ele>
<time>2026-07-16T16:48:37.000Z</time>
</trkpt>
<trkpt lat="57.579035" lon="10.010205">
<ele>15.927912</ele>
<time>2026-07-16T16:48:38.000Z</time>
</trkpt>
<trkpt lat="57.579039" lon="10.010294">
<ele>16.026078</ele>
<time>2026-07-16T16:48:39.000Z</time>
</trkpt>
<trkpt lat="57.579043" lon="10.010381">
<ele>16.122053</ele>
<time>2026-07-16T16:48:40.000Z</time>
</trkpt>
<trkpt lat="57.579047" lon="10.010465">
<ele>16.214744</ele>
<time>2026-07-16T16:48:41.000Z</time>
</trkpt>
<trkpt lat="57.579054" lon="10.010550">
<ele>16.309266</ele>
<time>2026-07-16T16:48:42.000Z</time>
</trkpt>
<trkpt lat="57.579061" lon="10.010632">
<ele>16.400531</ele>
<time>2026-07-16T16:48:43.000Z</time>
</trkpt>
<trkpt lat="57.579066" lon="10.010717">
<ele>16.494518</ele>
<time>2026-07-16T16:48:44.000Z</time>
</trkpt>
<trkpt lat="57.579073" lon="10.010804">
<ele>16.591213</ele>
<time>2026-07-16T16:48:45.000Z</time>
</trkpt>
<trkpt lat="57.579080" lon="10.010889">
<ele>16.685736</ele>
<time>2026-07-16T16:48:46.000Z</time>
</trkpt>
<trkpt lat="57.579088" lon="10.010972">
<ele>16.778426</ele>
<time>2026-07-16T16:48:47.000Z</time>
</trkpt>
<trkpt lat="57.579093" lon="10.011057">
<ele>16.872413</ele>
<time>2026-07-16T16:48:48.000Z</time>
</trkpt>
<trkpt lat="57.579099" lon="10.011142">
<ele>16.966646</ele>
<time>2026-07-16T16:48:49.000Z</time>
</trkpt>
<trkpt lat="57.579107" lon="10.011229">
<ele>17.063667</ele>
<time>2026-07-16T16:48:50.000Z</time>
</trkpt>
<trkpt lat="57.579115" lon="10.011319">
<ele>17.163939</ele>
<time>2026-07-16T16:48:51.000Z</time>
</trkpt>
<trkpt lat="57.579122" lon="10.011411">
<ele>17.266073</ele>
<time>2026-07-16T16:48:52.000Z</time>
</trkpt>
<trkpt lat="57.579130" lon="10.011500">
<ele>17.365261</ele>
<time>2026-07-16T16:48:53.000Z</time>
</trkpt>
<trkpt lat="57.579138" lon="10.011590">
<ele>17.465533</ele>
<time>2026-07-16T16:48:54.000Z</time>
</trkpt>
<trkpt lat="57.579142" lon="10.011679">
<ele>17.563699</ele>
<time>2026-07-16T16:48:55.000Z</time>
</trkpt>
<trkpt lat="57.579149" lon="10.011768">
<ele>17.662569</ele>
<time>2026-07-16T16:48:56.000Z</time>
</trkpt>
<trkpt lat="57.579157" lon="10.011858">
<ele>17.762841</ele>
<time>2026-07-16T16:48:57.000Z</time>
</trkpt>
<trkpt lat="57.579164" lon="10.011950">
<ele>17.864974</ele>
<time>2026-07-16T16:48:58.000Z</time>
</trkpt>
<trkpt lat="57.579172" lon="10.012043">
<ele>17.968501</ele>
<time>2026-07-16T16:48:59.000Z</time>
</trkpt>
<trkpt lat="57.579180" lon="10.012137">
<ele>18.073113</ele>
<time>2026-07-16T16:49:00.000Z</time>
</trkpt>
<trkpt lat="57.579187" lon="10.012234">
<ele>18.180690</ele>
<time>2026-07-16T16:49:01.000Z</time>
</trkpt>
<trkpt lat="57.579195" lon="10.012332">
<ele>18.289646</ele>
<time>2026-07-16T16:49:02.000Z</time>
</trkpt>
<trkpt lat="57.579202" lon="10.012431">
<ele>18.399402</ele>
<time>2026-07-16T16:49:03.000Z</time>
</trkpt>
<trkpt lat="57.579207" lon="10.012532">
<ele>18.510887</ele>
<time>2026-07-16T16:49:04.000Z</time>
</trkpt>
<trkpt lat="57.579214" lon="10.012631">
<ele>18.620643</ele>
<time>2026-07-16T16:49:05.000Z</time>
</trkpt>
<trkpt lat="57.579219" lon="10.012732">
<ele>18.732127</ele>
<time>2026-07-16T16:49:06.000Z</time>
</trkpt>
<trkpt lat="57.579223" lon="10.012829">
<ele>18.824188</ele>
<time>2026-07-16T16:49:07.000Z</time>
</trkpt>
<trkpt lat="57.579226" lon="10.012924">
<ele>18.853696</ele>
<time>2026-07-16T16:49:08.000Z</time>
</trkpt>
<trkpt lat="57.579233" lon="10.013021">
<ele>18.884044</ele>
<time>2026-07-16T16:49:09.000Z</time>
</trkpt>
<trkpt lat="57.579235" lon="10.013119">
<ele>18.914454</ele>
<time>2026-07-16T16:49:10.000Z</time>
</trkpt>
<trkpt lat="57.579241" lon="10.013215">
<ele>18.944422</ele>
<time>2026-07-16T16:49:11.000Z</time>
</trkpt>
<trkpt lat="57.579245" lon="10.013311">
<ele>18.974279</ele>
<time>2026-07-16T16:49:12.000Z</time>
</trkpt>
<trkpt lat="57.579252" lon="10.013412">
<ele>19.005857</ele>
<time>2026-07-16T16:49:13.000Z</time>
</trkpt>
<trkpt lat="57.579257" lon="10.013510">
<ele>19.036382</ele>
<time>2026-07-16T16:49:14.000Z</time>
</trkpt>
<trkpt lat="57.579260" lon="10.013594">
<ele>19.062486</ele>
<time>2026-07-16T16:49:15.000Z</time>
</trkpt>
<trkpt lat="57.579264" lon="10.013698">
<ele>19.094816</ele>
<time>2026-07-16T16:49:16.000Z</time>
</trkpt>
<trkpt lat="57.579268" lon="10.013805">
<ele>19.128075</ele>
<time>2026-07-16T16:49:17.000Z</time>
</trkpt>
<trkpt lat="57.579269" lon="10.013906">
<ele>19.159397</ele>
<time>2026-07-16T16:49:18.000Z</time>
</trkpt>
<trkpt lat="57.579272" lon="10.014007">
<ele>19.190763</ele>
<time>2026-07-16T16:49:19.000Z</time>
</trkpt>
<trkpt lat="57.579273" lon="10.014108">
<ele>19.222086</ele>
<time>2026-07-16T16:49:20.000Z</time>
</trkpt>
<trkpt lat="57.579276" lon="10.014209">
<ele>19.253451</ele>
<time>2026-07-16T16:49:21.000Z</time>
</trkpt>
<trkpt lat="57.579280" lon="10.014307">
<ele>19.283926</ele>
<time>2026-07-16T16:49:22.000Z</time>
</trkpt>
<trkpt lat="57.579281" lon="10.014412">
<ele>19.316489</ele>
<time>2026-07-16T16:49:23.000Z</time>
</trkpt>
<trkpt lat="57.579286" lon="10.014514">
<ele>19.348249</ele>
<time>2026-07-16T16:49:24.000Z</time>
</trkpt>
<trkpt lat="57.579294" lon="10.014615">
<ele>19.379906</ele>
<time>2026-07-16T16:49:25.000Z</time>
</trkpt>
<trkpt lat="57.579296" lon="10.014717">
<ele>19.411555</ele>
<time>2026-07-16T16:49:26.000Z</time>
</trkpt>
<trkpt lat="57.579299" lon="10.014821">
<ele>19.443849</ele>
<time>2026-07-16T16:49:27.000Z</time>
</trkpt>
<trkpt lat="57.579300" lon="10.014925">
<ele>19.476102</ele>
<time>2026-07-16T16:49:28.000Z</time>
</trkpt>
<trkpt lat="57.579305" lon="10.015025">
<ele>19.507244</ele>
<time>2026-07-16T16:49:29.000Z</time>
</trkpt>
<trkpt lat="57.579308" lon="10.015126">
<ele>19.538609</ele>
<time>2026-07-16T16:49:30.000Z</time>
</trkpt>
<trkpt lat="57.579313" lon="10.015225">
<ele>19.569442</ele>
<time>2026-07-16T16:49:31.000Z</time>
</trkpt>
<trkpt lat="57.579315" lon="10.015322">
<ele>19.599542</ele>
<time>2026-07-16T16:49:32.000Z</time>
</trkpt>
<trkpt lat="57.579318" lon="10.015416">
<ele>19.628740</ele>
<time>2026-07-16T16:49:33.000Z</time>
</trkpt>
<trkpt lat="57.579324" lon="10.015508">
<ele>19.657477</ele>
<time>2026-07-16T16:49:34.000Z</time>
</trkpt>
<trkpt lat="57.579327" lon="10.015602">
<ele>19.686676</ele>
<time>2026-07-16T16:49:35.000Z</time>
</trkpt>
<trkpt lat="57.579329" lon="10.015708">
<ele>19.719564</ele>
<time>2026-07-16T16:49:36.000Z</time>
</trkpt>
<trkpt lat="57.579333" lon="10.015811">
<ele>19.751585</ele>
<time>2026-07-16T16:49:37.000Z</time>
</trkpt>
<trkpt lat="57.579337" lon="10.015909">
<ele>19.782060</ele>
<time>2026-07-16T16:49:38.000Z</time>
</trkpt>
<trkpt lat="57.579341" lon="10.016008">
<ele>19.812845</ele>
<time>2026-07-16T16:49:39.000Z</time>
</trkpt>
<trkpt lat="57.579345" lon="10.016108">
<ele>19.843938</ele>
<time>2026-07-16T16:49:40.000Z</time>
</trkpt>
<trkpt lat="57.579347" lon="10.016211">
<ele>19.870766</ele>
<time>2026-07-16T16:49:41.000Z</time>
</trkpt>
<trkpt lat="57.579349" lon="10.016315">
<ele>19.893465</ele>
<time>2026-07-16T16:49:42.000Z</time>
</trkpt>
<trkpt lat="57.579352" lon="10.016420">
<ele>19.916399</ele>
<time>2026-07-16T16:49:43.000Z</time>
</trkpt>
<trkpt lat="57.579353" lon="10.016524">
<ele>19.939087</ele>
<time>2026-07-16T16:49:44.000Z</time>
</trkpt>
<trkpt lat="57.579356" lon="10.016630">
<ele>19.962240</ele>
<time>2026-07-16T16:49:45.000Z</time>
</trkpt>
<trkpt lat="57.579363" lon="10.016733">
<ele>19.984886</ele>
<time>2026-07-16T16:49:46.000Z</time>
</trkpt>
<trkpt lat="57.579365" lon="10.016840">
<ele>20.008239</ele>
<time>2026-07-16T16:49:47.000Z</time>
</trkpt>
<trkpt lat="57.579368" lon="10.016948">
<ele>20.031827</ele>
<time>2026-07-16T16:49:48.000Z</time>
</trkpt>
<trkpt lat="57.579371" lon="10.017059">
<ele>20.056069</ele>
<time>2026-07-16T16:49:49.000Z</time>
</trkpt>
<trkpt lat="57.579375" lon="10.017170">
<ele>20.080335</ele>
<time>2026-07-16T16:49:50.000Z</time>
</trkpt>
<trkpt lat="57.579379" lon="10.017279">
<ele>20.104165</ele>
<time>2026-07-16T16:49:51.000Z</time>
</trkpt>
<trkpt lat="57.579383" lon="10.017387">
<ele>20.127778</ele>
<time>2026-07-16T16:49:52.000Z</time>
</trkpt>
<trkpt lat="57.579387" lon="10.017494">
<ele>20.151173</ele>
<time>2026-07-16T16:49:53.000Z</time>
</trkpt>
<trkpt lat="57.579390" lon="10.017600">
<ele>20.174326</ele>
<time>2026-07-16T16:49:54.000Z</time>
</trkpt>
<trkpt lat="57.579391" lon="10.017704">
<ele>20.197014</ele>
<time>2026-07-16T16:49:55.000Z</time>
</trkpt>
<trkpt lat="57.579391" lon="10.017807">
<ele>20.219480</ele>
<time>2026-07-16T16:49:56.000Z</time>
</trkpt>
<trkpt lat="57.579397" lon="10.017911">
<ele>20.242295</ele>
<time>2026-07-16T16:49:57.000Z</time>
</trkpt>
<trkpt lat="57.579402" lon="10.018015">
<ele>20.265071</ele>
<time>2026-07-16T16:49:58.000Z</time>
</trkpt>
<trkpt lat="57.579406" lon="10.018111">
<ele>20.286073</ele>
<time>2026-07-16T16:49:59.000Z</time>
</trkpt>
<trkpt lat="57.579412" lon="10.018204">
<ele>20.306504</ele>
<time>2026-07-16T16:50:00.000Z</time>
</trkpt>
<trkpt lat="57.579417" lon="10.018297">
<ele>20.326891</ele>
<time>2026-07-16T16:50:01.000Z</time>
</trkpt>
<trkpt lat="57.579424" lon="10.018391">
<ele>20.347591</ele>
<time>2026-07-16T16:50:02.000Z</time>
</trkpt>
<trkpt lat="57.579429" lon="10.018487">
<ele>20.368629</ele>
<time>2026-07-16T16:50:03.000Z</time>
</trkpt>
<trkpt lat="57.579432" lon="10.018586">
<ele>20.390257</ele>
<time>2026-07-16T16:50:04.000Z</time>
</trkpt>
<trkpt lat="57.579436" lon="10.018686">
<ele>20.412129</ele>
<time>2026-07-16T16:50:05.000Z</time>
</trkpt>
<trkpt lat="57.579443" lon="10.018784">
<ele>20.433694</ele>
<time>2026-07-16T16:50:06.000Z</time>
</trkpt>
<trkpt lat="57.579448" lon="10.018882">
<ele>20.455166</ele>
<time>2026-07-16T16:50:07.000Z</time>
</trkpt>
<trkpt lat="57.579451" lon="10.018981">
<ele>20.476794</ele>
<time>2026-07-16T16:50:08.000Z</time>
</trkpt>
<trkpt lat="57.579455" lon="10.019080">
<ele>20.498449</ele>
<time>2026-07-16T16:50:09.000Z</time>
</trkpt>
<trkpt lat="57.579459" lon="10.019181">
<ele>20.520539</ele>
<time>2026-07-16T16:50:10.000Z</time>
</trkpt>
<trkpt lat="57.579460" lon="10.019282">
<ele>20.542572</ele>
<time>2026-07-16T16:50:11.000Z</time>
</trkpt>
<trkpt lat="57.579463" lon="10.019380">
<ele>20.563983</ele>
<time>2026-07-16T16:50:12.000Z</time>
</trkpt>
<trkpt lat="57.579467" lon="10.019482">
<ele>20.586290</ele>
<time>2026-07-16T16:50:13.000Z</time>
</trkpt>
<trkpt lat="57.579471" lon="10.019583">
<ele>20.615078</ele>
<time>2026-07-16T16:50:14.000Z</time>
</trkpt>
<trkpt lat="57.579474" lon="10.019682">
<ele>20.644741</ele>
<time>2026-07-16T16:50:15.000Z</time>
</trkpt>
<trkpt lat="57.579478" lon="10.019778">
<ele>20.673546</ele>
<time>2026-07-16T16:50:16.000Z</time>
</trkpt>
<trkpt lat="57.579485" lon="10.019875">
<ele>20.702825</ele>
<time>2026-07-16T16:50:17.000Z</time>
</trkpt>
<trkpt lat="57.579490" lon="10.019968">
<ele>20.730786</ele>
<time>2026-07-16T16:50:18.000Z</time>
</trkpt>
<trkpt lat="57.579491" lon="10.020063">
<ele>20.759210</ele>
<time>2026-07-16T16:50:19.000Z</time>
</trkpt>
<trkpt lat="57.579493" lon="10.020155">
<ele>20.786755</ele>
<time>2026-07-16T16:50:20.000Z</time>
</trkpt>
<trkpt lat="57.579494" lon="10.020247">
<ele>20.814282</ele>
<time>2026-07-16T16:50:21.000Z</time>
</trkpt>
<trkpt lat="57.579497" lon="10.020348">
<ele>20.844543</ele>
<time>2026-07-16T16:50:22.000Z</time>
</trkpt>
<trkpt lat="57.579501" lon="10.020450">
<ele>20.875137</ele>
<time>2026-07-16T16:50:23.000Z</time>
</trkpt>
<trkpt lat="57.579505" lon="10.020556">
<ele>20.906926</ele>
<time>2026-07-16T16:50:24.000Z</time>
</trkpt>
<trkpt lat="57.579509" lon="10.020659">
<ele>20.937819</ele>
<time>2026-07-16T16:50:25.000Z</time>
</trkpt>
<trkpt lat="57.579513" lon="10.020765">
<ele>20.969607</ele>
<time>2026-07-16T16:50:26.000Z</time>
</trkpt>
<trkpt lat="57.579516" lon="10.020873">
<ele>21.001959</ele>
<time>2026-07-16T16:50:27.000Z</time>
</trkpt>
<trkpt lat="57.579520" lon="10.020979">
<ele>21.033747</ele>
<time>2026-07-16T16:50:28.000Z</time>
</trkpt>
<trkpt lat="57.579524" lon="10.021076">
<ele>21.062850</ele>
<time>2026-07-16T16:50:29.000Z</time>
</trkpt>
<trkpt lat="57.579525" lon="10.021168">
<ele>21.090377</ele>
<time>2026-07-16T16:50:30.000Z</time>
</trkpt>
<trkpt lat="57.579528" lon="10.021266">
<ele>21.119742</ele>
<time>2026-07-16T16:50:31.000Z</time>
</trkpt>
<trkpt lat="57.579529" lon="10.021362">
<ele>21.148466</ele>
<time>2026-07-16T16:50:32.000Z</time>
</trkpt>
<trkpt lat="57.579534" lon="10.021459">
<ele>21.177617</ele>
<time>2026-07-16T16:50:33.000Z</time>
</trkpt>
<trkpt lat="57.579539" lon="10.021556">
<ele>21.206768</ele>
<time>2026-07-16T16:50:34.000Z</time>
</trkpt>
<trkpt lat="57.579543" lon="10.021656">
<ele>21.236766</ele>
<time>2026-07-16T16:50:35.000Z</time>
</trkpt>
<trkpt lat="57.579544" lon="10.021766">
<ele>21.269677</ele>
<time>2026-07-16T16:50:36.000Z</time>
</trkpt>
<trkpt lat="57.579544" lon="10.021878">
<ele>21.303182</ele>
<time>2026-07-16T16:50:37.000Z</time>
</trkpt>
<trkpt lat="57.579541" lon="10.021990">
<ele>21.336728</ele>
<time>2026-07-16T16:50:38.000Z</time>
</trkpt>
<trkpt lat="57.579543" lon="10.022095">
<ele>21.368159</ele>
<time>2026-07-16T16:50:39.000Z</time>
</trkpt>
<trkpt lat="57.579544" lon="10.022199">
<ele>21.399275</ele>
<time>2026-07-16T16:50:40.000Z</time>
</trkpt>
<trkpt lat="57.579547" lon="10.022307">
<ele>21.431627</ele>
<time>2026-07-16T16:50:41.000Z</time>
</trkpt>
<trkpt lat="57.579551" lon="10.022417">
<ele>21.464609</ele>
<time>2026-07-16T16:50:42.000Z</time>
</trkpt>
<trkpt lat="57.579557" lon="10.022516">
<ele>21.494413</ele>
<time>2026-07-16T16:50:43.000Z</time>
</trkpt>
<trkpt lat="57.579559" lon="10.022610">
<ele>21.522555</ele>
<time>2026-07-16T16:50:44.000Z</time>
</trkpt>
<trkpt lat="57.579562" lon="10.022700">
<ele>21.549531</ele>
<time>2026-07-16T16:50:45.000Z</time>
</trkpt>
<trkpt lat="57.579566" lon="10.022790">
<ele>21.576547</ele>
<time>2026-07-16T16:50:46.000Z</time>
</trkpt>
<trkpt lat="57.579570" lon="10.022881">
<ele>21.606483</ele>
<time>2026-07-16T16:50:47.000Z</time>
</trkpt>
<trkpt lat="57.579576" lon="10.022978">
<ele>21.643430</ele>
<time>2026-07-16T16:50:48.000Z</time>
</trkpt>
<trkpt lat="57.579581" lon="10.023083">
<ele>21.683317</ele>
<time>2026-07-16T16:50:49.000Z</time>
</trkpt>
<trkpt lat="57.579585" lon="10.023184">
<ele>21.721638</ele>
<time>2026-07-16T16:50:50.000Z</time>
</trkpt>
<trkpt lat="57.579592" lon="10.023278">
<ele>21.757547</ele>
<time>2026-07-16T16:50:51.000Z</time>
</trkpt>
<trkpt lat="57.579599" lon="10.023369">
<ele>21.792333</ele>
<time>2026-07-16T16:50:52.000Z</time>
</trkpt>
<trkpt lat="57.579610" lon="10.023465">
<ele>21.829478</ele>
<time>2026-07-16T16:50:53.000Z</time>
</trkpt>
<trkpt lat="57.579615" lon="10.023567">
<ele>21.868234</ele>
<time>2026-07-16T16:50:54.000Z</time>
</trkpt>
<trkpt lat="57.579619" lon="10.023670">
<ele>21.907310</ele>
<time>2026-07-16T16:50:55.000Z</time>
</trkpt>
<trkpt lat="57.579623" lon="10.023772">
<ele>21.946008</ele>
<time>2026-07-16T16:50:56.000Z</time>
</trkpt>
<trkpt lat="57.579627" lon="10.023880">
<ele>21.986971</ele>
<time>2026-07-16T16:50:57.000Z</time>
</trkpt>
<trkpt lat="57.579631" lon="10.023997">
<ele>22.031332</ele>
<time>2026-07-16T16:50:58.000Z</time>
</trkpt>
<trkpt lat="57.579635" lon="10.024112">
<ele>22.074937</ele>
<time>2026-07-16T16:50:59.000Z</time>
</trkpt>
<trkpt lat="57.579641" lon="10.024221">
<ele>22.116398</ele>
<time>2026-07-16T16:51:00.000Z</time>
</trkpt>
<trkpt lat="57.579646" lon="10.024321">
<ele>22.154401</ele>
<time>2026-07-16T16:51:01.000Z</time>
</trkpt>
<trkpt lat="57.579653" lon="10.024422">
<ele>22.192935</ele>
<time>2026-07-16T16:51:02.000Z</time>
</trkpt>
<trkpt lat="57.579657" lon="10.024530">
<ele>22.233898</ele>
<time>2026-07-16T16:51:03.000Z</time>
</trkpt>
<trkpt lat="57.579664" lon="10.024642">
<ele>22.276564</ele>
<time>2026-07-16T16:51:04.000Z</time>
</trkpt>
<trkpt lat="57.579669" lon="10.024755">
<ele>22.319467</ele>
<time>2026-07-16T16:51:05.000Z</time>
</trkpt>
<trkpt lat="57.579673" lon="10.024862">
<ele>22.360052</ele>
<time>2026-07-16T16:51:06.000Z</time>
</trkpt>
<trkpt lat="57.579682" lon="10.024964">
<ele>22.399167</ele>
<time>2026-07-16T16:51:07.000Z</time>
</trkpt>
<trkpt lat="57.579688" lon="10.025059">
<ele>22.435362</ele>
<time>2026-07-16T16:51:08.000Z</time>
</trkpt>
<trkpt lat="57.579695" lon="10.025155">
<ele>22.472021</ele>
<time>2026-07-16T16:51:09.000Z</time>
</trkpt>
<trkpt lat="57.579699" lon="10.025254">
<ele>22.509587</ele>
<time>2026-07-16T16:51:10.000Z</time>
</trkpt>
<trkpt lat="57.579703" lon="10.025360">
<ele>22.549795</ele>
<time>2026-07-16T16:51:11.000Z</time>
</trkpt>
<trkpt lat="57.579707" lon="10.025462">
<ele>22.588493</ele>
<time>2026-07-16T16:51:12.000Z</time>
</trkpt>
<trkpt lat="57.579714" lon="10.025561">
<ele>22.626277</ele>
<time>2026-07-16T16:51:13.000Z</time>
</trkpt>
<trkpt lat="57.579719" lon="10.025659">
<ele>22.663526</ele>
<time>2026-07-16T16:51:14.000Z</time>
</trkpt>
<trkpt lat="57.579722" lon="10.025757">
<ele>22.700668</ele>
<time>2026-07-16T16:51:15.000Z</time>
</trkpt>
<trkpt lat="57.579726" lon="10.025853">
<ele>22.737103</ele>
<time>2026-07-16T16:51:16.000Z</time>
</trkpt>
<trkpt lat="57.579730" lon="10.025953">
<ele>22.775046</ele>
<time>2026-07-16T16:51:17.000Z</time>
</trkpt>
<trkpt lat="57.579734" lon="10.026054">
<ele>22.813367</ele>
<time>2026-07-16T16:51:18.000Z</time>
</trkpt>
<trkpt lat="57.579738" lon="10.026154">
<ele>22.851310</ele>
<time>2026-07-16T16:51:19.000Z</time>
</trkpt>
<trkpt lat="57.579744" lon="10.026249">
<ele>22.878767</ele>
<time>2026-07-16T16:51:20.000Z</time>
</trkpt>
<trkpt lat="57.579746" lon="10.026345">
<ele>22.901946</ele>
<time>2026-07-16T16:51:21.000Z</time>
</trkpt>
<trkpt lat="57.579749" lon="10.026435">
<ele>22.923702</ele>
<time>2026-07-16T16:51:22.000Z</time>
</trkpt>
<trkpt lat="57.579753" lon="10.026528">
<ele>22.946211</ele>
<time>2026-07-16T16:51:23.000Z</time>
</trkpt>
<trkpt lat="57.579754" lon="10.026625">
<ele>22.969618</ele>
<time>2026-07-16T16:51:24.000Z</time>
</trkpt>
<trkpt lat="57.579757" lon="10.026724">
<ele>22.993541</ele>
<time>2026-07-16T16:51:25.000Z</time>
</trkpt>
<trkpt lat="57.579763" lon="10.026810">
<ele>23.014465</ele>
<time>2026-07-16T16:51:26.000Z</time>
</trkpt>
<trkpt lat="57.579765" lon="10.026903">
<ele>23.036921</ele>
<time>2026-07-16T16:51:27.000Z</time>
</trkpt>
<trkpt lat="57.579774" lon="10.026991">
<ele>23.058535</ele>
<time>2026-07-16T16:51:28.000Z</time>
</trkpt>
<trkpt lat="57.579777" lon="10.027090">
<ele>23.082458</ele>
<time>2026-07-16T16:51:29.000Z</time>
</trkpt>
<trkpt lat="57.579782" lon="10.027186">
<ele>23.105728</ele>
<time>2026-07-16T16:51:30.000Z</time>
</trkpt>
<trkpt lat="57.579790" lon="10.027276">
<ele>23.127739</ele>
<time>2026-07-16T16:51:31.000Z</time>
</trkpt>
<trkpt lat="57.579798" lon="10.027364">
<ele>23.149273</ele>
<time>2026-07-16T16:51:32.000Z</time>
</trkpt>
<trkpt lat="57.579802" lon="10.027455">
<ele>23.171302</ele>
<time>2026-07-16T16:51:33.000Z</time>
</trkpt>
<trkpt lat="57.579809" lon="10.027542">
<ele>23.192527</ele>
<time>2026-07-16T16:51:34.000Z</time>
</trkpt>
<trkpt lat="57.579814" lon="10.027634">
<ele>23.214837</ele>
<time>2026-07-16T16:51:35.000Z</time>
</trkpt>
<trkpt lat="57.579823" lon="10.027742">
<ele>23.241206</ele>
<time>2026-07-16T16:51:36.000Z</time>
</trkpt>
<trkpt lat="57.579829" lon="10.027839">
<ele>23.264764</ele>
<time>2026-07-16T16:51:37.000Z</time>
</trkpt>
<trkpt lat="57.579830" lon="10.027923">
<ele>23.285035</ele>
<time>2026-07-16T16:51:38.000Z</time>
</trkpt>
<trkpt lat="57.579827" lon="10.028025">
<ele>23.309681</ele>
<time>2026-07-16T16:51:39.000Z</time>
</trkpt>
<trkpt lat="57.579818" lon="10.028110">
<ele>23.330584</ele>
<time>2026-07-16T16:51:40.000Z</time>
</trkpt>
<trkpt lat="57.579815" lon="10.028185">
<ele>23.348729</ele>
<time>2026-07-16T16:51:41.000Z</time>
</trkpt>
<trkpt lat="57.579818" lon="10.028249">
<ele>23.364229</ele>
<time>2026-07-16T16:51:42.000Z</time>
</trkpt>
<trkpt lat="57.579813" lon="10.028315">
<ele>23.380311</ele>
<time>2026-07-16T16:51:43.000Z</time>
</trkpt>
<trkpt lat="57.579808" lon="10.028381">
<ele>23.396392</ele>
<time>2026-07-16T16:51:44.000Z</time>
</trkpt>
<trkpt lat="57.579807" lon="10.028443">
<ele>23.411358</ele>
<time>2026-07-16T16:51:45.000Z</time>
</trkpt>
<trkpt lat="57.579820" lon="10.028489">
<ele>23.423903</ele>
<time>2026-07-16T16:51:46.000Z</time>
</trkpt>
<trkpt lat="57.579845" lon="10.028530">
<ele>23.438884</ele>
<time>2026-07-16T16:51:47.000Z</time>
</trkpt>
<trkpt lat="57.579880" lon="10.028554">
<ele>23.455665</ele>
<time>2026-07-16T16:51:48.000Z</time>
</trkpt>
<trkpt lat="57.579919" lon="10.028567">
<ele>23.473494</ele>
<time>2026-07-16T16:51:49.000Z</time>
</trkpt>
<trkpt lat="57.579960" lon="10.028572">
<ele>23.491984</ele>
<time>2026-07-16T16:51:50.000Z</time>
</trkpt>
<trkpt lat="57.580001" lon="10.028571">
<ele>23.510436</ele>
<time>2026-07-16T16:51:51.000Z</time>
</trkpt>
<trkpt lat="57.580046" lon="10.028567">
<ele>23.530709</ele>
<time>2026-07-16T16:51:52.000Z</time>
</trkpt>
<trkpt lat="57.580092" lon="10.028563">
<ele>23.551433</ele>
<time>2026-07-16T16:51:53.000Z</time>
</trkpt>
<trkpt lat="57.580135" lon="10.028560">
<ele>23.570797</ele>
<time>2026-07-16T16:51:54.000Z</time>
</trkpt>
<trkpt lat="57.580177" lon="10.028559">
<ele>23.589699</ele>
<time>2026-07-16T16:51:55.000Z</time>
</trkpt>
<trkpt lat="57.580227" lon="10.028559">
<ele>23.612200</ele>
<time>2026-07-16T16:51:56.000Z</time>
</trkpt>
<trkpt lat="57.580278" lon="10.028559">
<ele>23.635150</ele>
<time>2026-07-16T16:51:57.000Z</time>
</trkpt>
<trkpt lat="57.580328" lon="10.028557">
<ele>23.657656</ele>
<time>2026-07-16T16:51:58.000Z</time>
</trkpt>
<trkpt lat="57.580380" lon="10.028557">
<ele>23.658671</ele>
<time>2026-07-16T16:51:59.000Z</time>
</trkpt>
<trkpt lat="57.580434" lon="10.028554">
<ele>23.617009</ele>
<time>2026-07-16T16:52:00.000Z</time>
</trkpt>
<trkpt lat="57.580490" lon="10.028550">
<ele>23.573790</ele>
<time>2026-07-16T16:52:01.000Z</time>
</trkpt>
<trkpt lat="57.580547" lon="10.028542">
<ele>23.529709</ele>
<time>2026-07-16T16:52:02.000Z</time>
</trkpt>
<trkpt lat="57.580601" lon="10.028535">
<ele>23.487964</ele>
<time>2026-07-16T16:52:03.000Z</time>
</trkpt>
<trkpt lat="57.580657" lon="10.028528">
<ele>23.444681</ele>
<time>2026-07-16T16:52:04.000Z</time>
</trkpt>
<trkpt lat="57.580720" lon="10.028526">
<ele>23.396089</ele>
<time>2026-07-16T16:52:05.000Z</time>
</trkpt>
<trkpt lat="57.580785" lon="10.028525">
<ele>23.345960</ele>
<time>2026-07-16T16:52:06.000Z</time>
</trkpt>
<trkpt lat="57.580844" lon="10.028521">
<ele>23.300430</ele>
<time>2026-07-16T16:52:07.000Z</time>
</trkpt>
<trkpt lat="57.580901" lon="10.028514">
<ele>23.256377</ele>
<time>2026-07-16T16:52:08.000Z</time>
</trkpt>
<trkpt lat="57.580959" lon="10.028504">
<ele>23.211458</ele>
<time>2026-07-16T16:52:09.000Z</time>
</trkpt>
<trkpt lat="57.581019" lon="10.028495">
<ele>23.165037</ele>
<time>2026-07-16T16:52:10.000Z</time>
</trkpt>
<trkpt lat="57.581080" lon="10.028489">
<ele>23.117929</ele>
<time>2026-07-16T16:52:11.000Z</time>
</trkpt>
<trkpt lat="57.581141" lon="10.028482">
<ele>23.070798</ele>
<time>2026-07-16T16:52:12.000Z</time>
</trkpt>
<trkpt lat="57.581204" lon="10.028480">
<ele>23.022206</ele>
<time>2026-07-16T16:52:13.000Z</time>
</trkpt>
<trkpt lat="57.581265" lon="10.028480">
<ele>22.975164</ele>
<time>2026-07-16T16:52:14.000Z</time>
</trkpt>
<trkpt lat="57.581325" lon="10.028476">
<ele>22.928863</ele>
<time>2026-07-16T16:52:15.000Z</time>
</trkpt>
<trkpt lat="57.581383" lon="10.028470">
<ele>22.884066</ele>
<time>2026-07-16T16:52:16.000Z</time>
</trkpt>
<trkpt lat="57.581437" lon="10.028467">
<ele>22.842403</ele>
<time>2026-07-16T16:52:17.000Z</time>
</trkpt>
<trkpt lat="57.581485" lon="10.028466">
<ele>22.805384</ele>
<time>2026-07-16T16:52:18.000Z</time>
</trkpt>
<trkpt lat="57.581533" lon="10.028461">
<ele>22.768309</ele>
<time>2026-07-16T16:52:19.000Z</time>
</trkpt>
<trkpt lat="57.581574" lon="10.028461">
<ele>22.736690</ele>
<time>2026-07-16T16:52:20.000Z</time>
</trkpt>
<trkpt lat="57.581607" lon="10.028469">
<ele>22.711027</ele>
<time>2026-07-16T16:52:21.000Z</time>
</trkpt>
<trkpt lat="57.581634" lon="10.028494">
<ele>22.687781</ele>
<time>2026-07-16T16:52:22.000Z</time>
</trkpt>
<trkpt lat="57.581653" lon="10.028539">
<ele>22.664099</ele>
<time>2026-07-16T16:52:23.000Z</time>
</trkpt>
<trkpt lat="57.581663" lon="10.028596">
<ele>22.639304</ele>
<time>2026-07-16T16:52:24.000Z</time>
</trkpt>
<trkpt lat="57.581668" lon="10.028658">
<ele>22.613383</ele>
<time>2026-07-16T16:52:25.000Z</time>
</trkpt>
<trkpt lat="57.581672" lon="10.028712">
<ele>22.590846</ele>
<time>2026-07-16T16:52:26.000Z</time>
</trkpt>
<trkpt lat="57.581675" lon="10.028772">
<ele>22.565932</ele>
<time>2026-07-16T16:52:27.000Z</time>
</trkpt>
<trkpt lat="57.581679" lon="10.028836">
<ele>22.539293</ele>
<time>2026-07-16T16:52:28.000Z</time>
</trkpt>
<trkpt lat="57.581680" lon="10.028908">
<ele>22.509516</ele>
<time>2026-07-16T16:52:29.000Z</time>
</trkpt>
<trkpt lat="57.581686" lon="10.028987">
<ele>22.476529</ele>
<time>2026-07-16T16:52:30.000Z</time>
</trkpt>
<trkpt lat="57.581691" lon="10.029071">
<ele>22.441588</ele>
<time>2026-07-16T16:52:31.000Z</time>
</trkpt>
<trkpt lat="57.581694" lon="10.029175">
<ele>22.398529</ele>
<time>2026-07-16T16:52:32.000Z</time>
</trkpt>
<trkpt lat="57.581696" lon="10.029284">
<ele>22.353438</ele>
<time>2026-07-16T16:52:33.000Z</time>
</trkpt>
<trkpt lat="57.581698" lon="10.029395">
<ele>22.307522</ele>
<time>2026-07-16T16:52:34.000Z</time>
</trkpt>
<trkpt lat="57.581699" lon="10.029500">
<ele>22.278576</ele>
<time>2026-07-16T16:52:35.000Z</time>
</trkpt>
<trkpt lat="57.581697" lon="10.029604">
<ele>22.264358</ele>
<time>2026-07-16T16:52:36.000Z</time>
</trkpt>
<trkpt lat="57.581696" lon="10.029707">
<ele>22.250284</ele>
<time>2026-07-16T16:52:37.000Z</time>
</trkpt>
<trkpt lat="57.581701" lon="10.029801">
<ele>22.237378</ele>
<time>2026-07-16T16:52:38.000Z</time>
</trkpt>
<trkpt lat="57.581709" lon="10.029889">
<ele>22.225184</ele>
<time>2026-07-16T16:52:39.000Z</time>
</trkpt>
<trkpt lat="57.581716" lon="10.029974">
<ele>22.213435</ele>
<time>2026-07-16T16:52:40.000Z</time>
</trkpt>
<trkpt lat="57.581721" lon="10.030062">
<ele>22.201345</ele>
<time>2026-07-16T16:52:41.000Z</time>
</trkpt>
<trkpt lat="57.581728" lon="10.030144">
<ele>22.190001</ele>
<time>2026-07-16T16:52:42.000Z</time>
</trkpt>
<trkpt lat="57.581733" lon="10.030233">
<ele>22.177775</ele>
<time>2026-07-16T16:52:43.000Z</time>
</trkpt>
<trkpt lat="57.581739" lon="10.030329">
<ele>22.164570</ele>
<time>2026-07-16T16:52:44.000Z</time>
</trkpt>
<trkpt lat="57.581747" lon="10.030419">
<ele>22.152107</ele>
<time>2026-07-16T16:52:45.000Z</time>
</trkpt>
<trkpt lat="57.581754" lon="10.030509">
<ele>22.139682</ele>
<time>2026-07-16T16:52:46.000Z</time>
</trkpt>
<trkpt lat="57.581765" lon="10.030601">
<ele>22.126804</ele>
<time>2026-07-16T16:52:47.000Z</time>
</trkpt>
<trkpt lat="57.581774" lon="10.030691">
<ele>22.114296</ele>
<time>2026-07-16T16:52:48.000Z</time>
</trkpt>
<trkpt lat="57.581776" lon="10.030785">
<ele>22.101443</ele>
<time>2026-07-16T16:52:49.000Z</time>
</trkpt>
<trkpt lat="57.581778" lon="10.030883">
<ele>22.088045</ele>
<time>2026-07-16T16:52:50.000Z</time>
</trkpt>
<trkpt lat="57.581777" lon="10.030992">
<ele>22.073151</ele>
<time>2026-07-16T16:52:51.000Z</time>
</trkpt>
<trkpt lat="57.581776" lon="10.031094">
<ele>22.059213</ele>
<time>2026-07-16T16:52:52.000Z</time>
</trkpt>
<trkpt lat="57.581773" lon="10.031195">
<ele>22.045393</ele>
<time>2026-07-16T16:52:53.000Z</time>
</trkpt>
<trkpt lat="57.581775" lon="10.031291">
<ele>22.032268</ele>
<time>2026-07-16T16:52:54.000Z</time>
</trkpt>
<trkpt lat="57.581773" lon="10.031401">
<ele>22.017231</ele>
<time>2026-07-16T16:52:55.000Z</time>
</trkpt>
<trkpt lat="57.581775" lon="10.031502">
<ele>22.003423</ele>
<time>2026-07-16T16:52:56.000Z</time>
</trkpt>
<trkpt lat="57.581776" lon="10.031605">
<ele>21.989349</ele>
<time>2026-07-16T16:52:57.000Z</time>
</trkpt>
<trkpt lat="57.581776" lon="10.031694">
<ele>21.977189</ele>
<time>2026-07-16T16:52:58.000Z</time>
</trkpt>
<trkpt lat="57.581776" lon="10.031777">
<ele>21.965850</ele>
<time>2026-07-16T16:52:59.000Z</time>
</trkpt>
<trkpt lat="57.581778" lon="10.031855">
<ele>21.955181</ele>
<time>2026-07-16T16:53:00.000Z</time>
</trkpt>
<trkpt lat="57.581782" lon="10.031940">
<ele>21.943524</ele>
<time>2026-07-16T16:53:01.000Z</time>
</trkpt>
<trkpt lat="57.581783" lon="10.032031">
<ele>21.931089</ele>
<time>2026-07-16T16:53:02.000Z</time>
</trkpt>
<trkpt lat="57.581789" lon="10.032122">
<ele>21.918562</ele>
<time>2026-07-16T16:53:03.000Z</time>
</trkpt>
<trkpt lat="57.581796" lon="10.032212">
<ele>21.906138</ele>
<time>2026-07-16T16:53:04.000Z</time>
</trkpt>
<trkpt lat="57.581804" lon="10.032303">
<ele>21.893539</ele>
<time>2026-07-16T16:53:05.000Z</time>
</trkpt>
<trkpt lat="57.581806" lon="10.032399">
<ele>21.880414</ele>
<time>2026-07-16T16:53:06.000Z</time>
</trkpt>
<trkpt lat="57.581809" lon="10.032488">
<ele>21.868230</ele>
<time>2026-07-16T16:53:07.000Z</time>
</trkpt>
<trkpt lat="57.581813" lon="10.032580">
<ele>21.855620</ele>
<time>2026-07-16T16:53:08.000Z</time>
</trkpt>
<trkpt lat="57.581819" lon="10.032677">
<ele>21.842280</ele>
<time>2026-07-16T16:53:09.000Z</time>
</trkpt>
<trkpt lat="57.581827" lon="10.032773">
<ele>21.829007</ele>
<time>2026-07-16T16:53:10.000Z</time>
</trkpt>
<trkpt lat="57.581835" lon="10.032879">
<ele>21.805176</ele>
<time>2026-07-16T16:53:11.000Z</time>
</trkpt>
<trkpt lat="57.581839" lon="10.032989">
<ele>21.779414</ele>
<time>2026-07-16T16:53:12.000Z</time>
</trkpt>
<trkpt lat="57.581846" lon="10.033098">
<ele>21.753762</ele>
<time>2026-07-16T16:53:13.000Z</time>
</trkpt>
<trkpt lat="57.581843" lon="10.033243">
<ele>21.719855</ele>
<time>2026-07-16T16:53:14.000Z</time>
</trkpt>
<trkpt lat="57.581840" lon="10.033380">
<ele>21.687817</ele>
<time>2026-07-16T16:53:15.000Z</time>
</trkpt>
<trkpt lat="57.581843" lon="10.033501">
<ele>21.659513</ele>
<time>2026-07-16T16:53:16.000Z</time>
</trkpt>
<trkpt lat="57.581850" lon="10.033624">
<ele>21.630611</ele>
<time>2026-07-16T16:53:17.000Z</time>
</trkpt>
<trkpt lat="57.581860" lon="10.033737">
<ele>21.603849</ele>
<time>2026-07-16T16:53:18.000Z</time>
</trkpt>
<trkpt lat="57.581869" lon="10.033854">
<ele>21.576231</ele>
<time>2026-07-16T16:53:19.000Z</time>
</trkpt>
<trkpt lat="57.581876" lon="10.033961">
<ele>21.551043</ele>
<time>2026-07-16T16:53:20.000Z</time>
</trkpt>
<trkpt lat="57.581884" lon="10.034061">
<ele>21.527418</ele>
<time>2026-07-16T16:53:21.000Z</time>
</trkpt>
<trkpt lat="57.581895" lon="10.034174">
<ele>21.500582</ele>
<time>2026-07-16T16:53:22.000Z</time>
</trkpt>
<trkpt lat="57.581903" lon="10.034293">
<ele>21.472558</ele>
<time>2026-07-16T16:53:23.000Z</time>
</trkpt>
<trkpt lat="57.581914" lon="10.034404">
<ele>21.446182</ele>
<time>2026-07-16T16:53:24.000Z</time>
</trkpt>
<trkpt lat="57.581925" lon="10.034527">
<ele>21.417044</ele>
<time>2026-07-16T16:53:25.000Z</time>
</trkpt>
<trkpt lat="57.581934" lon="10.034637">
<ele>21.391044</ele>
<time>2026-07-16T16:53:26.000Z</time>
</trkpt>
<trkpt lat="57.581939" lon="10.034746">
<ele>21.365481</ele>
<time>2026-07-16T16:53:27.000Z</time>
</trkpt>
<trkpt lat="57.581943" lon="10.034866">
<ele>21.337387</ele>
<time>2026-07-16T16:53:28.000Z</time>
</trkpt>
<trkpt lat="57.581944" lon="10.034980">
<ele>21.310746</ele>
<time>2026-07-16T16:53:29.000Z</time>
</trkpt>
<trkpt lat="57.581949" lon="10.035081">
<ele>21.287046</ele>
<time>2026-07-16T16:53:30.000Z</time>
</trkpt>
<trkpt lat="57.581957" lon="10.035182">
<ele>21.263189</ele>
<time>2026-07-16T16:53:31.000Z</time>
</trkpt>
<trkpt lat="57.581962" lon="10.035285">
<ele>21.239023</ele>
<time>2026-07-16T16:53:32.000Z</time>
</trkpt>
<trkpt lat="57.581960" lon="10.035389">
<ele>21.214707</ele>
<time>2026-07-16T16:53:33.000Z</time>
</trkpt>
<trkpt lat="57.581956" lon="10.035496">
<ele>21.189644</ele>
<time>2026-07-16T16:53:34.000Z</time>
</trkpt>
<trkpt lat="57.581966" lon="10.035594">
<ele>21.166334</ele>
<time>2026-07-16T16:53:35.000Z</time>
</trkpt>
<trkpt lat="57.581989" lon="10.035672">
<ele>21.145533</ele>
<time>2026-07-16T16:53:36.000Z</time>
</trkpt>
<trkpt lat="57.582025" lon="10.035730">
<ele>21.124799</ele>
<time>2026-07-16T16:53:37.000Z</time>
</trkpt>
<trkpt lat="57.582065" lon="10.035787">
<ele>21.102860</ele>
<time>2026-07-16T16:53:38.000Z</time>
</trkpt>
<trkpt lat="57.582116" lon="10.035834">
<ele>21.078066</ele>
<time>2026-07-16T16:53:39.000Z</time>
</trkpt>
<trkpt lat="57.582175" lon="10.035877">
<ele>21.050456</ele>
<time>2026-07-16T16:53:40.000Z</time>
</trkpt>
<trkpt lat="57.582244" lon="10.035922">
<ele>20.961917</ele>
<time>2026-07-16T16:53:41.000Z</time>
</trkpt>
<trkpt lat="57.582316" lon="10.035964">
<ele>20.853831</ele>
<time>2026-07-16T16:53:42.000Z</time>
</trkpt>
<trkpt lat="57.582383" lon="10.035993">
<ele>20.755285</ele>
<time>2026-07-16T16:53:43.000Z</time>
</trkpt>
<trkpt lat="57.582451" lon="10.036012">
<ele>20.656770</ele>
<time>2026-07-16T16:53:44.000Z</time>
</trkpt>
<trkpt lat="57.582520" lon="10.036026">
<ele>20.557326</ele>
<time>2026-07-16T16:53:45.000Z</time>
</trkpt>
<trkpt lat="57.582594" lon="10.036037">
<ele>20.450965</ele>
<time>2026-07-16T16:53:46.000Z</time>
</trkpt>
<trkpt lat="57.582667" lon="10.036050">
<ele>20.345898</ele>
<time>2026-07-16T16:53:47.000Z</time>
</trkpt>
<trkpt lat="57.582740" lon="10.036061">
<ele>20.240965</ele>
<time>2026-07-16T16:53:48.000Z</time>
</trkpt>
<trkpt lat="57.582814" lon="10.036068">
<ele>20.134804</ele>
<time>2026-07-16T16:53:49.000Z</time>
</trkpt>
<trkpt lat="57.582888" lon="10.036073">
<ele>20.028710</ele>
<time>2026-07-16T16:53:50.000Z</time>
</trkpt>
<trkpt lat="57.582961" lon="10.036079">
<ele>19.924016</ele>
<time>2026-07-16T16:53:51.000Z</time>
</trkpt>
<trkpt lat="57.583037" lon="10.036084">
<ele>19.815058</ele>
<time>2026-07-16T16:53:52.000Z</time>
</trkpt>
<trkpt lat="57.583110" lon="10.036087">
<ele>19.710441</ele>
<time>2026-07-16T16:53:53.000Z</time>
</trkpt>
<trkpt lat="57.583185" lon="10.036089">
<ele>19.602973</ele>
<time>2026-07-16T16:53:54.000Z</time>
</trkpt>
<trkpt lat="57.583259" lon="10.036095">
<ele>19.496848</ele>
<time>2026-07-16T16:53:55.000Z</time>
</trkpt>
<trkpt lat="57.583331" lon="10.036101">
<ele>19.393586</ele>
<time>2026-07-16T16:53:56.000Z</time>
</trkpt>
<trkpt lat="57.583400" lon="10.036115">
<ele>19.294142</ele>
<time>2026-07-16T16:53:57.000Z</time>
</trkpt>
<trkpt lat="57.583464" lon="10.036149">
<ele>19.198799</ele>
<time>2026-07-16T16:53:58.000Z</time>
</trkpt>
<trkpt lat="57.583508" lon="10.036214">
<ele>19.118383</ele>
<time>2026-07-16T16:53:59.000Z</time>
</trkpt>
<trkpt lat="57.583538" lon="10.036300">
<ele>19.039576</ele>
<time>2026-07-16T16:54:00.000Z</time>
</trkpt>
<trkpt lat="57.583554" lon="10.036396">
<ele>18.962360</ele>
<time>2026-07-16T16:54:01.000Z</time>
</trkpt>
<trkpt lat="57.583557" lon="10.036500">
<ele>18.882366</ele>
<time>2026-07-16T16:54:02.000Z</time>
</trkpt>
<trkpt lat="57.583554" lon="10.036607">
<ele>18.800071</ele>
<time>2026-07-16T16:54:03.000Z</time>
</trkpt>
<trkpt lat="57.583551" lon="10.036712">
<ele>18.719310</ele>
<time>2026-07-16T16:54:04.000Z</time>
</trkpt>
<trkpt lat="57.583544" lon="10.036815">
<ele>18.639567</ele>
<time>2026-07-16T16:54:05.000Z</time>
</trkpt>
<trkpt lat="57.583539" lon="10.036917">
<ele>18.560898</ele>
<time>2026-07-16T16:54:06.000Z</time>
</trkpt>
<trkpt lat="57.583535" lon="10.037019">
<ele>18.482346</ele>
<time>2026-07-16T16:54:07.000Z</time>
</trkpt>
<trkpt lat="57.583531" lon="10.037119">
<ele>18.480882</ele>
<time>2026-07-16T16:54:08.000Z</time>
</trkpt>
<trkpt lat="57.583528" lon="10.037218">
<ele>18.499030</ele>
<time>2026-07-16T16:54:09.000Z</time>
</trkpt>
<trkpt lat="57.583527" lon="10.037318">
<ele>18.517335</ele>
<time>2026-07-16T16:54:10.000Z</time>
</trkpt>
<trkpt lat="57.583527" lon="10.037418">
<ele>18.535637</ele>
<time>2026-07-16T16:54:11.000Z</time>
</trkpt>
<trkpt lat="57.583524" lon="10.037520">
<ele>18.554333</ele>
<time>2026-07-16T16:54:12.000Z</time>
</trkpt>
<trkpt lat="57.583520" lon="10.037621">
<ele>18.572868</ele>
<time>2026-07-16T16:54:13.000Z</time>
</trkpt>
<trkpt lat="57.583519" lon="10.037722">
<ele>18.591356</ele>
<time>2026-07-16T16:54:14.000Z</time>
</trkpt>
<trkpt lat="57.583519" lon="10.037824">
<ele>18.610024</ele>
<time>2026-07-16T16:54:15.000Z</time>
</trkpt>
<trkpt lat="57.583516" lon="10.037927">
<ele>18.628903</ele>
<time>2026-07-16T16:54:16.000Z</time>
</trkpt>
<trkpt lat="57.583515" lon="10.038029">
<ele>18.647574</ele>
<time>2026-07-16T16:54:17.000Z</time>
</trkpt>
<trkpt lat="57.583515" lon="10.038131">
<ele>18.666242</ele>
<time>2026-07-16T16:54:18.000Z</time>
</trkpt>
<trkpt lat="57.583515" lon="10.038232">
<ele>18.684727</ele>
<time>2026-07-16T16:54:19.000Z</time>
</trkpt>
<trkpt lat="57.583515" lon="10.038332">
<ele>18.703029</ele>
<time>2026-07-16T16:54:20.000Z</time>
</trkpt>
<trkpt lat="57.583515" lon="10.038432">
<ele>18.721331</ele>
<time>2026-07-16T16:54:21.000Z</time>
</trkpt>
<trkpt lat="57.583515" lon="10.038533">
<ele>18.739816</ele>
<time>2026-07-16T16:54:22.000Z</time>
</trkpt>
<trkpt lat="57.583515" lon="10.038632">
<ele>18.757935</ele>
<time>2026-07-16T16:54:23.000Z</time>
</trkpt>
<trkpt lat="57.583515" lon="10.038733">
<ele>18.776420</ele>
<time>2026-07-16T16:54:24.000Z</time>
</trkpt>
<trkpt lat="57.583512" lon="10.038832">
<ele>18.794568</ele>
<time>2026-07-16T16:54:25.000Z</time>
</trkpt>
<trkpt lat="57.583511" lon="10.038931">
<ele>18.812690</ele>
<time>2026-07-16T16:54:26.000Z</time>
</trkpt>
<trkpt lat="57.583511" lon="10.039031">
<ele>18.830992</ele>
<time>2026-07-16T16:54:27.000Z</time>
</trkpt>
<trkpt lat="57.583509" lon="10.039132">
<ele>18.849490</ele>
<time>2026-07-16T16:54:28.000Z</time>
</trkpt>
<trkpt lat="57.583508" lon="10.039234">
<ele>18.868161</ele>
<time>2026-07-16T16:54:29.000Z</time>
</trkpt>
<trkpt lat="57.583505" lon="10.039335">
<ele>18.886675</ele>
<time>2026-07-16T16:54:30.000Z</time>
</trkpt>
<trkpt lat="57.583504" lon="10.039428">
<ele>18.903699</ele>
<time>2026-07-16T16:54:31.000Z</time>
</trkpt>
<trkpt lat="57.583509" lon="10.039519">
<ele>18.920441</ele>
<time>2026-07-16T16:54:32.000Z</time>
</trkpt>
<trkpt lat="57.583514" lon="10.039609">
<ele>18.937001</ele>
<time>2026-07-16T16:54:33.000Z</time>
</trkpt>
<trkpt lat="57.583518" lon="10.039699">
<ele>18.953529</ele>
<time>2026-07-16T16:54:34.000Z</time>
</trkpt>
<trkpt lat="57.583522" lon="10.039799">
<ele>18.971882</ele>
<time>2026-07-16T16:54:35.000Z</time>
</trkpt>
<trkpt lat="57.583526" lon="10.039895">
<ele>18.989505</ele>
<time>2026-07-16T16:54:36.000Z</time>
</trkpt>
<trkpt lat="57.583527" lon="10.039991">
<ele>19.007078</ele>
<time>2026-07-16T16:54:37.000Z</time>
</trkpt>
<trkpt lat="57.583524" lon="10.040087">
<ele>19.024678</ele>
<time>2026-07-16T16:54:38.000Z</time>
</trkpt>
<trkpt lat="57.583523" lon="10.040184">
<ele>19.042434</ele>
<time>2026-07-16T16:54:39.000Z</time>
</trkpt>
<trkpt lat="57.583523" lon="10.040282">
<ele>19.060370</ele>
<time>2026-07-16T16:54:40.000Z</time>
</trkpt>
<trkpt lat="57.583520" lon="10.040389">
<ele>19.079980</ele>
<time>2026-07-16T16:54:41.000Z</time>
</trkpt>
<trkpt lat="57.583522" lon="10.040491">
<ele>19.080334</ele>
<time>2026-07-16T16:54:42.000Z</time>
</trkpt>
<trkpt lat="57.583523" lon="10.040592">
<ele>19.080248</ele>
<time>2026-07-16T16:54:43.000Z</time>
</trkpt>
<trkpt lat="57.583520" lon="10.040695">
<ele>19.080160</ele>
<time>2026-07-16T16:54:44.000Z</time>
</trkpt>
<trkpt lat="57.583516" lon="10.040793">
<ele>19.080077</ele>
<time>2026-07-16T16:54:45.000Z</time>
</trkpt>
<trkpt lat="57.583515" lon="10.040887">
<ele>19.079997</ele>
<time>2026-07-16T16:54:46.000Z</time>
</trkpt>
<trkpt lat="57.583512" lon="10.040981">
<ele>19.079917</ele>
<time>2026-07-16T16:54:47.000Z</time>
</trkpt>
<trkpt lat="57.583511" lon="10.041069">
<ele>19.079843</ele>
<time>2026-07-16T16:54:48.000Z</time>
</trkpt>
<trkpt lat="57.583514" lon="10.041158">
<ele>19.079767</ele>
<time>2026-07-16T16:54:49.000Z</time>
</trkpt>
<trkpt lat="57.583515" lon="10.041258">
<ele>19.079682</ele>
<time>2026-07-16T16:54:50.000Z</time>
</trkpt>
<trkpt lat="57.583521" lon="10.041356">
<ele>19.079598</ele>
<time>2026-07-16T16:54:51.000Z</time>
</trkpt>
<trkpt lat="57.583526" lon="10.041461">
<ele>19.079509</ele>
<time>2026-07-16T16:54:52.000Z</time>
</trkpt>
<trkpt lat="57.583527" lon="10.041567">
<ele>19.079419</ele>
<time>2026-07-16T16:54:53.000Z</time>
</trkpt>
<trkpt lat="57.583529" lon="10.041681">
<ele>19.079322</ele>
<time>2026-07-16T16:54:54.000Z</time>
</trkpt>
<trkpt lat="57.583539" lon="10.041800">
<ele>19.079220</ele>
<time>2026-07-16T16:54:55.000Z</time>
</trkpt>
<trkpt lat="57.583545" lon="10.041921">
<ele>19.079117</ele>
<time>2026-07-16T16:54:56.000Z</time>
</trkpt>
<trkpt lat="57.583551" lon="10.042039">
<ele>19.079016</ele>
<time>2026-07-16T16:54:57.000Z</time>
</trkpt>
<trkpt lat="57.583559" lon="10.042137">
<ele>19.078932</ele>
<time>2026-07-16T16:54:58.000Z</time>
</trkpt>
<trkpt lat="57.583569" lon="10.042227">
<ele>19.078854</ele>
<time>2026-07-16T16:54:59.000Z</time>
</trkpt>
<trkpt lat="57.583578" lon="10.042312">
<ele>19.078781</ele>
<time>2026-07-16T16:55:00.000Z</time>
</trkpt>
<trkpt lat="57.583588" lon="10.042391">
<ele>19.078712</ele>
<time>2026-07-16T16:55:01.000Z</time>
</trkpt>
<trkpt lat="57.583605" lon="10.042461">
<ele>19.078647</ele>
<time>2026-07-16T16:55:02.000Z</time>
</trkpt>
<trkpt lat="57.583619" lon="10.042535">
<ele>19.078580</ele>
<time>2026-07-16T16:55:03.000Z</time>
</trkpt>
<trkpt lat="57.583633" lon="10.042607">
<ele>19.078515</ele>
<time>2026-07-16T16:55:04.000Z</time>
</trkpt>
<trkpt lat="57.583651" lon="10.042678">
<ele>19.078448</ele>
<time>2026-07-16T16:55:05.000Z</time>
</trkpt>
<trkpt lat="57.583670" lon="10.042751">
<ele>19.078380</ele>
<time>2026-07-16T16:55:06.000Z</time>
</trkpt>
<trkpt lat="57.583692" lon="10.042824">
<ele>19.078308</ele>
<time>2026-07-16T16:55:07.000Z</time>
</trkpt>
<trkpt lat="57.583718" lon="10.042899">
<ele>19.078233</ele>
<time>2026-07-16T16:55:08.000Z</time>
</trkpt>
<trkpt lat="57.583747" lon="10.042975">
<ele>19.078154</ele>
<time>2026-07-16T16:55:09.000Z</time>
</trkpt>
<trkpt lat="57.583780" lon="10.043052">
<ele>19.078070</ele>
<time>2026-07-16T16:55:10.000Z</time>
</trkpt>
<trkpt lat="57.583812" lon="10.043131">
<ele>19.077986</ele>
<time>2026-07-16T16:55:11.000Z</time>
</trkpt>
<trkpt lat="57.583843" lon="10.043210">
<ele>19.077903</ele>
<time>2026-07-16T16:55:12.000Z</time>
</trkpt>
<trkpt lat="57.583873" lon="10.043287">
<ele>19.077822</ele>
<time>2026-07-16T16:55:13.000Z</time>
</trkpt>
<trkpt lat="57.583904" lon="10.043370">
<ele>19.077736</ele>
<time>2026-07-16T16:55:14.000Z</time>
</trkpt>
<trkpt lat="57.583928" lon="10.043454">
<ele>19.077655</ele>
<time>2026-07-16T16:55:15.000Z</time>
</trkpt>
<trkpt lat="57.583949" lon="10.043539">
<ele>19.077576</ele>
<time>2026-07-16T16:55:16.000Z</time>
</trkpt>
<trkpt lat="57.583968" lon="10.043624">
<ele>19.074769</ele>
<time>2026-07-16T16:55:17.000Z</time>
</trkpt>
<trkpt lat="57.583978" lon="10.043710">
<ele>19.071916</ele>
<time>2026-07-16T16:55:18.000Z</time>
</trkpt>
<trkpt lat="57.583989" lon="10.043799">
<ele>19.068955</ele>
<time>2026-07-16T16:55:19.000Z</time>
</trkpt>
<trkpt lat="57.584000" lon="10.043885">
<ele>19.066089</ele>
<time>2026-07-16T16:55:20.000Z</time>
</trkpt>
<trkpt lat="57.584012" lon="10.043973">
<ele>19.063145</ele>
<time>2026-07-16T16:55:21.000Z</time>
</trkpt>
<trkpt lat="57.584023" lon="10.044060">
<ele>19.060247</ele>
<time>2026-07-16T16:55:22.000Z</time>
</trkpt>
<trkpt lat="57.584032" lon="10.044149">
<ele>19.057311</ele>
<time>2026-07-16T16:55:23.000Z</time>
</trkpt>
<trkpt lat="57.584037" lon="10.044237">
<ele>19.054442</ele>
<time>2026-07-16T16:55:24.000Z</time>
</trkpt>
<trkpt lat="57.584041" lon="10.044325">
<ele>19.051579</ele>
<time>2026-07-16T16:55:25.000Z</time>
</trkpt>
<trkpt lat="57.584044" lon="10.044411">
<ele>19.048785</ele>
<time>2026-07-16T16:55:26.000Z</time>
</trkpt>
<trkpt lat="57.584048" lon="10.044497">
<ele>19.045987</ele>
<time>2026-07-16T16:55:27.000Z</time>
</trkpt>
<trkpt lat="57.584055" lon="10.044586">
<ele>19.043070</ele>
<time>2026-07-16T16:55:28.000Z</time>
</trkpt>
<trkpt lat="57.584060" lon="10.044674">
<ele>19.040202</ele>
<time>2026-07-16T16:55:29.000Z</time>
</trkpt>
<trkpt lat="57.584066" lon="10.044762">
<ele>19.037326</ele>
<time>2026-07-16T16:55:30.000Z</time>
</trkpt>
<trkpt lat="57.584074" lon="10.044850">
<ele>19.034432</ele>
<time>2026-07-16T16:55:31.000Z</time>
</trkpt>
<trkpt lat="57.584084" lon="10.044935">
<ele>19.031611</ele>
<time>2026-07-16T16:55:32.000Z</time>
</trkpt>
<trkpt lat="57.584098" lon="10.045018">
<ele>19.028790</ele>
<time>2026-07-16T16:55:33.000Z</time>
</trkpt>
<trkpt lat="57.584114" lon="10.045098">
<ele>19.026022</ele>
<time>2026-07-16T16:55:34.000Z</time>
</trkpt>
<trkpt lat="57.584126" lon="10.045180">
<ele>19.023266</ele>
<time>2026-07-16T16:55:35.000Z</time>
</trkpt>
<trkpt lat="57.584132" lon="10.045265">
<ele>19.020487</ele>
<time>2026-07-16T16:55:36.000Z</time>
</trkpt>
<trkpt lat="57.584136" lon="10.045349">
<ele>19.017753</ele>
<time>2026-07-16T16:55:37.000Z</time>
</trkpt>
<trkpt lat="57.584137" lon="10.045430">
<ele>19.015126</ele>
<time>2026-07-16T16:55:38.000Z</time>
</trkpt>
<trkpt lat="57.584137" lon="10.045504">
<ele>19.012727</ele>
<time>2026-07-16T16:55:39.000Z</time>
</trkpt>
<trkpt lat="57.584137" lon="10.045584">
<ele>19.010134</ele>
<time>2026-07-16T16:55:40.000Z</time>
</trkpt>
<trkpt lat="57.584137" lon="10.045661">
<ele>19.007637</ele>
<time>2026-07-16T16:55:41.000Z</time>
</trkpt>
<trkpt lat="57.584137" lon="10.045749">
<ele>19.004785</ele>
<time>2026-07-16T16:55:42.000Z</time>
</trkpt>
<trkpt lat="57.584142" lon="10.045837">
<ele>19.001916</ele>
<time>2026-07-16T16:55:43.000Z</time>
</trkpt>
<trkpt lat="57.584150" lon="10.045921">
<ele>18.999150</ele>
<time>2026-07-16T16:55:44.000Z</time>
</trkpt>
<trkpt lat="57.584158" lon="10.046004">
<ele>18.996416</ele>
<time>2026-07-16T16:55:45.000Z</time>
</trkpt>
<trkpt lat="57.584163" lon="10.046088">
<ele>18.993676</ele>
<time>2026-07-16T16:55:46.000Z</time>
</trkpt>
<trkpt lat="57.584169" lon="10.046176">
<ele>18.990800</ele>
<time>2026-07-16T16:55:47.000Z</time>
</trkpt>
<trkpt lat="57.584174" lon="10.046263">
<ele>18.987963</ele>
<time>2026-07-16T16:55:48.000Z</time>
</trkpt>
<trkpt lat="57.584181" lon="10.046346">
<ele>18.985240</ele>
<time>2026-07-16T16:55:49.000Z</time>
</trkpt>
<trkpt lat="57.584185" lon="10.046426">
<ele>18.982635</ele>
<time>2026-07-16T16:55:50.000Z</time>
</trkpt>
<trkpt lat="57.584189" lon="10.046503">
<ele>18.980127</ele>
<time>2026-07-16T16:55:51.000Z</time>
</trkpt>
<trkpt lat="57.584193" lon="10.046584">
<ele>18.977490</ele>
<time>2026-07-16T16:55:52.000Z</time>
</trkpt>
<trkpt lat="57.584200" lon="10.046672">
<ele>18.974606</ele>
<time>2026-07-16T16:55:53.000Z</time>
</trkpt>
<trkpt lat="57.584207" lon="10.046762">
<ele>18.971657</ele>
<time>2026-07-16T16:55:54.000Z</time>
</trkpt>
<trkpt lat="57.584212" lon="10.046849">
<ele>18.968821</ele>
<time>2026-07-16T16:55:55.000Z</time>
</trkpt>
<trkpt lat="57.584216" lon="10.046936">
<ele>18.972344</ele>
<time>2026-07-16T16:55:56.000Z</time>
</trkpt>
<trkpt lat="57.584220" lon="10.047023">
<ele>18.975924</ele>
<time>2026-07-16T16:55:57.000Z</time>
</trkpt>
<trkpt lat="57.584226" lon="10.047112">
<ele>18.979602</ele>
<time>2026-07-16T16:55:58.000Z</time>
</trkpt>
<trkpt lat="57.584231" lon="10.047201">
<ele>18.983271</ele>
<time>2026-07-16T16:55:59.000Z</time>
</trkpt>
<trkpt lat="57.584235" lon="10.047292">
<ele>18.987014</ele>
<time>2026-07-16T16:56:00.000Z</time>
</trkpt>
<trkpt lat="57.584236" lon="10.047381">
<ele>18.990664</ele>
<time>2026-07-16T16:56:01.000Z</time>
</trkpt>
<trkpt lat="57.584236" lon="10.047471">
<ele>18.994354</ele>
<time>2026-07-16T16:56:02.000Z</time>
</trkpt>
<trkpt lat="57.584236" lon="10.047560">
<ele>18.998003</ele>
<time>2026-07-16T16:56:03.000Z</time>
</trkpt>
<trkpt lat="57.584239" lon="10.047643">
<ele>19.001414</ele>
<time>2026-07-16T16:56:04.000Z</time>
</trkpt>
<trkpt lat="57.584243" lon="10.047722">
<ele>19.004668</ele>
<time>2026-07-16T16:56:05.000Z</time>
</trkpt>
<trkpt lat="57.584247" lon="10.047797">
<ele>19.007758</ele>
<time>2026-07-16T16:56:06.000Z</time>
</trkpt>
<trkpt lat="57.584248" lon="10.047875">
<ele>19.010957</ele>
<time>2026-07-16T16:56:07.000Z</time>
</trkpt>
<trkpt lat="57.584248" lon="10.047953">
<ele>19.014155</ele>
<time>2026-07-16T16:56:08.000Z</time>
</trkpt>
<trkpt lat="57.584245" lon="10.048039">
<ele>19.017689</ele>
<time>2026-07-16T16:56:09.000Z</time>
</trkpt>
<trkpt lat="57.584241" lon="10.048124">
<ele>19.021187</ele>
<time>2026-07-16T16:56:10.000Z</time>
</trkpt>
<trkpt lat="57.584240" lon="10.048206">
<ele>19.024550</ele>
<time>2026-07-16T16:56:11.000Z</time>
</trkpt>
<trkpt lat="57.584243" lon="10.048289">
<ele>19.027961</ele>
<time>2026-07-16T16:56:12.000Z</time>
</trkpt>
<trkpt lat="57.584241" lon="10.048378">
<ele>19.031613</ele>
<time>2026-07-16T16:56:13.000Z</time>
</trkpt>
<trkpt lat="57.584240" lon="10.048468">
<ele>19.035304</ele>
<time>2026-07-16T16:56:14.000Z</time>
</trkpt>
<trkpt lat="57.584240" lon="10.048556">
<ele>19.038912</ele>
<time>2026-07-16T16:56:15.000Z</time>
</trkpt>
<trkpt lat="57.584237" lon="10.048640">
<ele>19.042364</ele>
<time>2026-07-16T16:56:16.000Z</time>
</trkpt>
<trkpt lat="57.584233" lon="10.048726">
<ele>19.045903</ele>
<time>2026-07-16T16:56:17.000Z</time>
</trkpt>
<trkpt lat="57.584230" lon="10.048812">
<ele>19.049437</ele>
<time>2026-07-16T16:56:18.000Z</time>
</trkpt>
<trkpt lat="57.584226" lon="10.048895">
<ele>19.052854</ele>
<time>2026-07-16T16:56:19.000Z</time>
</trkpt>
<trkpt lat="57.584225" lon="10.048978">
<ele>19.056258</ele>
<time>2026-07-16T16:56:20.000Z</time>
</trkpt>
<trkpt lat="57.584222" lon="10.049066">
<ele>19.059873</ele>
<time>2026-07-16T16:56:21.000Z</time>
</trkpt>
<trkpt lat="57.584224" lon="10.049150">
<ele>19.063320</ele>
<time>2026-07-16T16:56:22.000Z</time>
</trkpt>
<trkpt lat="57.584225" lon="10.049237">
<ele>19.066888</ele>
<time>2026-07-16T16:56:23.000Z</time>
</trkpt>
<trkpt lat="57.584225" lon="10.049322">
<ele>19.070373</ele>
<time>2026-07-16T16:56:24.000Z</time>
</trkpt>
<trkpt lat="57.584225" lon="10.049405">
<ele>19.073777</ele>
<time>2026-07-16T16:56:25.000Z</time>
</trkpt>
<trkpt lat="57.584227" lon="10.049484">
<ele>19.077019</ele>
<time>2026-07-16T16:56:26.000Z</time>
</trkpt>
<trkpt lat="57.584228" lon="10.049560">
<ele>19.080136</ele>
<time>2026-07-16T16:56:27.000Z</time>
</trkpt>
<trkpt lat="57.584228" lon="10.049639">
<ele>19.083375</ele>
<time>2026-07-16T16:56:28.000Z</time>
</trkpt>
<trkpt lat="57.584226" lon="10.049714">
<ele>19.086454</ele>
<time>2026-07-16T16:56:29.000Z</time>
</trkpt>
<trkpt lat="57.584225" lon="10.049785">
<ele>19.089366</ele>
<time>2026-07-16T16:56:30.000Z</time>
</trkpt>
<trkpt lat="57.584219" lon="10.049859">
<ele>19.092435</ele>
<time>2026-07-16T16:56:31.000Z</time>
</trkpt>
<trkpt lat="57.584211" lon="10.049931">
<ele>19.095450</ele>
<time>2026-07-16T16:56:32.000Z</time>
</trkpt>
<trkpt lat="57.584198" lon="10.050010">
<ele>19.098838</ele>
<time>2026-07-16T16:56:33.000Z</time>
</trkpt>
<trkpt lat="57.584186" lon="10.050087">
<ele>19.102126</ele>
<time>2026-07-16T16:56:34.000Z</time>
</trkpt>
<trkpt lat="57.584172" lon="10.050172">
<ele>19.105772</ele>
<time>2026-07-16T16:56:35.000Z</time>
</trkpt>
<trkpt lat="57.584159" lon="10.050261">
<ele>19.113556</ele>
<time>2026-07-16T16:56:36.000Z</time>
</trkpt>
<trkpt lat="57.584148" lon="10.050349">
<ele>19.121913</ele>
<time>2026-07-16T16:56:37.000Z</time>
</trkpt>
<trkpt lat="57.584136" lon="10.050433">
<ele>19.129953</ele>
<time>2026-07-16T16:56:38.000Z</time>
</trkpt>
<trkpt lat="57.584125" lon="10.050504">
<ele>19.136788</ele>
<time>2026-07-16T16:56:39.000Z</time>
</trkpt>
<trkpt lat="57.584122" lon="10.050575">
<ele>19.143374</ele>
<time>2026-07-16T16:56:40.000Z</time>
</trkpt>
<trkpt lat="57.584122" lon="10.050632">
<ele>19.148646</ele>
<time>2026-07-16T16:56:41.000Z</time>
</trkpt>
<trkpt lat="57.584122" lon="10.050685">
<ele>19.153548</ele>
<time>2026-07-16T16:56:42.000Z</time>
</trkpt>
<trkpt lat="57.584122" lon="10.050733">
<ele>19.157987</ele>
<time>2026-07-16T16:56:43.000Z</time>
</trkpt>
<trkpt lat="57.584122" lon="10.050781">
<ele>19.162426</ele>
<time>2026-07-16T16:56:44.000Z</time>
</trkpt>
<trkpt lat="57.584122" lon="10.050827">
<ele>19.166681</ele>
<time>2026-07-16T16:56:45.000Z</time>
</trkpt>
<trkpt lat="57.584124" lon="10.050875">
<ele>19.171133</ele>
<time>2026-07-16T16:56:46.000Z</time>
</trkpt>
<trkpt lat="57.584125" lon="10.050925">
<ele>19.175761</ele>
<time>2026-07-16T16:56:47.000Z</time>
</trkpt>
<trkpt lat="57.584128" lon="10.050982">
<ele>19.181058</ele>
<time>2026-07-16T16:56:48.000Z</time>
</trkpt>
<trkpt lat="57.584129" lon="10.051040">
<ele>19.186424</ele>
<time>2026-07-16T16:56:49.000Z</time>
</trkpt>
<trkpt lat="57.584132" lon="10.051113">
<ele>19.193196</ele>
<time>2026-07-16T16:56:50.000Z</time>
</trkpt>
<trkpt lat="57.584133" lon="10.051172">
<ele>19.198655</ele>
<time>2026-07-16T16:56:51.000Z</time>
</trkpt>
<trkpt lat="57.584136" lon="10.051227">
<ele>19.203768</ele>
<time>2026-07-16T16:56:52.000Z</time>
</trkpt>
<trkpt lat="57.584142" lon="10.051289">
<ele>19.209595</ele>
<time>2026-07-16T16:56:53.000Z</time>
</trkpt>
<trkpt lat="57.584142" lon="10.051368">
<ele>19.216901</ele>
<time>2026-07-16T16:56:54.000Z</time>
</trkpt>
<trkpt lat="57.584144" lon="10.051449">
<ele>19.224400</ele>
<time>2026-07-16T16:56:55.000Z</time>
</trkpt>
<trkpt lat="57.584147" lon="10.051536">
<ele>19.232463</ele>
<time>2026-07-16T16:56:56.000Z</time>
</trkpt>
<trkpt lat="57.584154" lon="10.051609">
<ele>19.239321</ele>
<time>2026-07-16T16:56:57.000Z</time>
</trkpt>
<trkpt lat="57.584148" lon="10.051695">
<ele>19.247342</ele>
<time>2026-07-16T16:56:58.000Z</time>
</trkpt>
<trkpt lat="57.584145" lon="10.051781">
<ele>19.255313</ele>
<time>2026-07-16T16:56:59.000Z</time>
</trkpt>
<trkpt lat="57.584145" lon="10.051862">
<ele>19.262804</ele>
<time>2026-07-16T16:57:00.000Z</time>
</trkpt>
<trkpt lat="57.584147" lon="10.051935">
<ele>19.269564</ele>
<time>2026-07-16T16:57:01.000Z</time>
</trkpt>
<trkpt lat="57.584151" lon="10.052035">
<ele>19.278838</ele>
<time>2026-07-16T16:57:02.000Z</time>
</trkpt>
<trkpt lat="57.584155" lon="10.052132">
<ele>19.287836</ele>
<time>2026-07-16T16:57:03.000Z</time>
</trkpt>
<trkpt lat="57.584162" lon="10.052223">
<ele>19.296338</ele>
<time>2026-07-16T16:57:04.000Z</time>
</trkpt>
<trkpt lat="57.584169" lon="10.052304">
<ele>19.303926</ele>
<time>2026-07-16T16:57:05.000Z</time>
</trkpt>
<trkpt lat="57.584171" lon="10.052400">
<ele>19.312811</ele>
<time>2026-07-16T16:57:06.000Z</time>
</trkpt>
<trkpt lat="57.584171" lon="10.052489">
<ele>19.321042</ele>
<time>2026-07-16T16:57:07.000Z</time>
</trkpt>
<trkpt lat="57.584169" lon="10.052577">
<ele>19.329188</ele>
<time>2026-07-16T16:57:08.000Z</time>
</trkpt>
<trkpt lat="57.584167" lon="10.052669">
<ele>19.337704</ele>
<time>2026-07-16T16:57:09.000Z</time>
</trkpt>
<trkpt lat="57.584170" lon="10.052751">
<ele>19.345305</ele>
<time>2026-07-16T16:57:10.000Z</time>
</trkpt>
<trkpt lat="57.584174" lon="10.052826">
<ele>19.352276</ele>
<time>2026-07-16T16:57:11.000Z</time>
</trkpt>
<trkpt lat="57.584172" lon="10.052905">
<ele>19.359590</ele>
<time>2026-07-16T16:57:12.000Z</time>
</trkpt>
<trkpt lat="57.584163" lon="10.053001">
<ele>19.368603</ele>
<time>2026-07-16T16:57:13.000Z</time>
</trkpt>
<trkpt lat="57.584154" lon="10.053096">
<ele>19.377525</ele>
<time>2026-07-16T16:57:14.000Z</time>
</trkpt>
<trkpt lat="57.584147" lon="10.053192">
<ele>19.386486</ele>
<time>2026-07-16T16:57:15.000Z</time>
</trkpt>
<trkpt lat="57.584136" lon="10.053288">
<ele>19.395565</ele>
<time>2026-07-16T16:57:16.000Z</time>
</trkpt>
<trkpt lat="57.584125" lon="10.053388">
<ele>19.405006</ele>
<time>2026-07-16T16:57:17.000Z</time>
</trkpt>
<trkpt lat="57.584113" lon="10.053484">
<ele>19.414123</ele>
<time>2026-07-16T16:57:18.000Z</time>
</trkpt>
<trkpt lat="57.584102" lon="10.053571">
<ele>19.432092</ele>
<time>2026-07-16T16:57:19.000Z</time>
</trkpt>
<trkpt lat="57.584093" lon="10.053661">
<ele>19.454947</ele>
<time>2026-07-16T16:57:20.000Z</time>
</trkpt>
<trkpt lat="57.584094" lon="10.053745">
<ele>19.475922</ele>
<time>2026-07-16T16:57:21.000Z</time>
</trkpt>
<trkpt lat="57.584098" lon="10.053821">
<ele>19.494986</ele>
<time>2026-07-16T16:57:22.000Z</time>
</trkpt>
<trkpt lat="57.584096" lon="10.053890">
<ele>19.512236</ele>
<time>2026-07-16T16:57:23.000Z</time>
</trkpt>
<trkpt lat="57.584095" lon="10.053970">
<ele>19.532212</ele>
<time>2026-07-16T16:57:24.000Z</time>
</trkpt>
<trkpt lat="57.584095" lon="10.054035">
<ele>19.548439</ele>
<time>2026-07-16T16:57:25.000Z</time>
</trkpt>
<trkpt lat="57.584095" lon="10.054100">
<ele>19.564665</ele>
<time>2026-07-16T16:57:26.000Z</time>
</trkpt>
<trkpt lat="57.584095" lon="10.054158">
<ele>19.579144</ele>
<time>2026-07-16T16:57:27.000Z</time>
</trkpt>
<trkpt lat="57.584101" lon="10.054209">
<ele>19.592179</ele>
<time>2026-07-16T16:57:28.000Z</time>
</trkpt>
<trkpt lat="57.584103" lon="10.054267">
<ele>19.606688</ele>
<time>2026-07-16T16:57:29.000Z</time>
</trkpt>
<trkpt lat="57.584103" lon="10.054322">
<ele>19.620418</ele>
<time>2026-07-16T16:57:30.000Z</time>
</trkpt>
<trkpt lat="57.584103" lon="10.054363">
<ele>19.630653</ele>
<time>2026-07-16T16:57:31.000Z</time>
</trkpt>
<trkpt lat="57.584103" lon="10.054396">
<ele>19.638891</ele>
<time>2026-07-16T16:57:32.000Z</time>
</trkpt>
<trkpt lat="57.584097" lon="10.054429">
<ele>19.647590</ele>
<time>2026-07-16T16:57:33.000Z</time>
</trkpt>
<trkpt lat="57.584087" lon="10.054466">
<ele>19.657934</ele>
<time>2026-07-16T16:57:34.000Z</time>
</trkpt>
<trkpt lat="57.584073" lon="10.054502">
<ele>19.669037</ele>
<time>2026-07-16T16:57:35.000Z</time>
</trkpt>
<trkpt lat="57.584063" lon="10.054531">
<ele>19.677645</ele>
<time>2026-07-16T16:57:36.000Z</time>
</trkpt>
<trkpt lat="57.584058" lon="10.054570">
<ele>19.687655</ele>
<time>2026-07-16T16:57:37.000Z</time>
</trkpt>
<trkpt lat="57.584051" lon="10.054620">
<ele>19.700556</ele>
<time>2026-07-16T16:57:38.000Z</time>
</trkpt>
<trkpt lat="57.584049" lon="10.054671">
<ele>19.713321</ele>
<time>2026-07-16T16:57:39.000Z</time>
</trkpt>
<trkpt lat="57.584046" lon="10.054716">
<ele>19.724642</ele>
<time>2026-07-16T16:57:40.000Z</time>
</trkpt>
<trkpt lat="57.584043" lon="10.054763">
<ele>19.736457</ele>
<time>2026-07-16T16:57:41.000Z</time>
</trkpt>
<trkpt lat="57.584042" lon="10.054819">
<ele>19.750445</ele>
<time>2026-07-16T16:57:42.000Z</time>
</trkpt>
<trkpt lat="57.584039" lon="10.054879">
<ele>19.765488</ele>
<time>2026-07-16T16:57:43.000Z</time>
</trkpt>
<trkpt lat="57.584035" lon="10.054936">
<ele>19.779839</ele>
<time>2026-07-16T16:57:44.000Z</time>
</trkpt>
<trkpt lat="57.584031" lon="10.054988">
<ele>19.792953</ele>
<time>2026-07-16T16:57:45.000Z</time>
</trkpt>
<trkpt lat="57.584027" lon="10.055040">
<ele>19.806067</ele>
<time>2026-07-16T16:57:46.000Z</time>
</trkpt>
<trkpt lat="57.584026" lon="10.055100">
<ele>19.821053</ele>
<time>2026-07-16T16:57:47.000Z</time>
</trkpt>
<trkpt lat="57.584021" lon="10.055169">
<ele>19.838435</ele>
<time>2026-07-16T16:57:48.000Z</time>
</trkpt>
<trkpt lat="57.584019" lon="10.055228">
<ele>19.853193</ele>
<time>2026-07-16T16:57:49.000Z</time>
</trkpt>
<trkpt lat="57.584016" lon="10.055288">
<ele>19.868236</ele>
<time>2026-07-16T16:57:50.000Z</time>
</trkpt>
<trkpt lat="57.584012" lon="10.055345">
<ele>19.882587</ele>
<time>2026-07-16T16:57:51.000Z</time>
</trkpt>
<trkpt lat="57.584003" lon="10.055413">
<ele>19.900072</ele>
<time>2026-07-16T16:57:52.000Z</time>
</trkpt>
<trkpt lat="57.583991" lon="10.055481">
<ele>19.917944</ele>
<time>2026-07-16T16:57:53.000Z</time>
</trkpt>
<trkpt lat="57.583977" lon="10.055555">
<ele>19.937534</ele>
<time>2026-07-16T16:57:54.000Z</time>
</trkpt>
<trkpt lat="57.583965" lon="10.055642">
<ele>19.959960</ele>
<time>2026-07-16T16:57:55.000Z</time>
</trkpt>
<trkpt lat="57.583953" lon="10.055727">
<ele>19.981902</ele>
<time>2026-07-16T16:57:56.000Z</time>
</trkpt>
<trkpt lat="57.583947" lon="10.055806">
<ele>20.001821</ele>
<time>2026-07-16T16:57:57.000Z</time>
</trkpt>
<trkpt lat="57.583941" lon="10.055869">
<ele>20.017794</ele>
<time>2026-07-16T16:57:58.000Z</time>
</trkpt>
<trkpt lat="57.583928" lon="10.055936">
<ele>20.035582</ele>
<time>2026-07-16T16:57:59.000Z</time>
</trkpt>
<trkpt lat="57.583915" lon="10.056012">
<ele>20.055497</ele>
<time>2026-07-16T16:58:00.000Z</time>
</trkpt>
<trkpt lat="57.583904" lon="10.056090">
<ele>20.075632</ele>
<time>2026-07-16T16:58:01.000Z</time>
</trkpt>
<trkpt lat="57.583892" lon="10.056163">
<ele>20.094693</ele>
<time>2026-07-16T16:58:02.000Z</time>
</trkpt>
<trkpt lat="57.583878" lon="10.056241">
<ele>20.115227</ele>
<time>2026-07-16T16:58:03.000Z</time>
</trkpt>
<trkpt lat="57.583871" lon="10.056310">
<ele>20.132758</ele>
<time>2026-07-16T16:58:04.000Z</time>
</trkpt>
<trkpt lat="57.583864" lon="10.056376">
<ele>20.149554</ele>
<time>2026-07-16T16:58:05.000Z</time>
</trkpt>
<trkpt lat="57.583860" lon="10.056446">
<ele>20.167127</ele>
<time>2026-07-16T16:58:06.000Z</time>
</trkpt>
<trkpt lat="57.583853" lon="10.056518">
<ele>20.185395</ele>
<time>2026-07-16T16:58:07.000Z</time>
</trkpt>
<trkpt lat="57.583845" lon="10.056587">
<ele>20.203018</ele>
<time>2026-07-16T16:58:08.000Z</time>
</trkpt>
<trkpt lat="57.583838" lon="10.056657">
<ele>20.220794</ele>
<time>2026-07-16T16:58:09.000Z</time>
</trkpt>
<trkpt lat="57.583833" lon="10.056725">
<ele>20.237929</ele>
<time>2026-07-16T16:58:10.000Z</time>
</trkpt>
<trkpt lat="57.583824" lon="10.056816">
<ele>20.255270</ele>
<time>2026-07-16T16:58:11.000Z</time>
</trkpt>
<trkpt lat="57.583818" lon="10.056910">
<ele>20.258711</ele>
<time>2026-07-16T16:58:12.000Z</time>
</trkpt>
<trkpt lat="57.583814" lon="10.056985">
<ele>20.261450</ele>
<time>2026-07-16T16:58:13.000Z</time>
</trkpt>
<trkpt lat="57.583815" lon="10.057049">
<ele>20.263778</ele>
<time>2026-07-16T16:58:14.000Z</time>
</trkpt>
<trkpt lat="57.583817" lon="10.057110">
<ele>20.265999</ele>
<time>2026-07-16T16:58:15.000Z</time>
</trkpt>
<trkpt lat="57.583822" lon="10.057171">
<ele>20.268242</ele>
<time>2026-07-16T16:58:16.000Z</time>
</trkpt>
<trkpt lat="57.583827" lon="10.057227">
<ele>20.270306</ele>
<time>2026-07-16T16:58:17.000Z</time>
</trkpt>
<trkpt lat="57.583823" lon="10.057306">
<ele>20.273190</ele>
<time>2026-07-16T16:58:18.000Z</time>
</trkpt>
<trkpt lat="57.583820" lon="10.057377">
<ele>20.275779</ele>
<time>2026-07-16T16:58:19.000Z</time>
</trkpt>
<trkpt lat="57.583818" lon="10.057449">
<ele>20.278399</ele>
<time>2026-07-16T16:58:20.000Z</time>
</trkpt>
<trkpt lat="57.583817" lon="10.057514">
<ele>20.280763</ele>
<time>2026-07-16T16:58:21.000Z</time>
</trkpt>
<trkpt lat="57.583822" lon="10.057583">
<ele>20.283294</ele>
<time>2026-07-16T16:58:22.000Z</time>
</trkpt>
<trkpt lat="57.583827" lon="10.057659">
<ele>20.286077</ele>
<time>2026-07-16T16:58:23.000Z</time>
</trkpt>
<trkpt lat="57.583831" lon="10.057746">
<ele>20.289251</ele>
<time>2026-07-16T16:58:24.000Z</time>
</trkpt>
<trkpt lat="57.583832" lon="10.057821">
<ele>20.291978</ele>
<time>2026-07-16T16:58:25.000Z</time>
</trkpt>
<trkpt lat="57.583832" lon="10.057899">
<ele>20.294813</ele>
<time>2026-07-16T16:58:26.000Z</time>
</trkpt>
<trkpt lat="57.583832" lon="10.057978">
<ele>20.297684</ele>
<time>2026-07-16T16:58:27.000Z</time>
</trkpt>
<trkpt lat="57.583835" lon="10.058040">
<ele>20.299947</ele>
<time>2026-07-16T16:58:28.000Z</time>
</trkpt>
<trkpt lat="57.583830" lon="10.058110">
<ele>20.302514</ele>
<time>2026-07-16T16:58:29.000Z</time>
</trkpt>
<trkpt lat="57.583825" lon="10.058180">
<ele>20.305081</ele>
<time>2026-07-16T16:58:30.000Z</time>
</trkpt>
<trkpt lat="57.583819" lon="10.058246">
<ele>20.307514</ele>
<time>2026-07-16T16:58:31.000Z</time>
</trkpt>
<trkpt lat="57.583817" lon="10.058311">
<ele>20.309881</ele>
<time>2026-07-16T16:58:32.000Z</time>
</trkpt>
<trkpt lat="57.583811" lon="10.058386">
<ele>20.312637</ele>
<time>2026-07-16T16:58:33.000Z</time>
</trkpt>
<trkpt lat="57.583814" lon="10.058464">
<ele>20.315479</ele>
<time>2026-07-16T16:58:34.000Z</time>
</trkpt>
<trkpt lat="57.583817" lon="10.058542">
<ele>20.318322</ele>
<time>2026-07-16T16:58:35.000Z</time>
</trkpt>
<trkpt lat="57.583825" lon="10.058623">
<ele>20.321316</ele>
<time>2026-07-16T16:58:36.000Z</time>
</trkpt>
<trkpt lat="57.583834" lon="10.058701">
<ele>20.324216</ele>
<time>2026-07-16T16:58:37.000Z</time>
</trkpt>
<trkpt lat="57.583830" lon="10.058797">
<ele>20.327716</ele>
<time>2026-07-16T16:58:38.000Z</time>
</trkpt>
<trkpt lat="57.583828" lon="10.058878">
<ele>20.330663</ele>
<time>2026-07-16T16:58:39.000Z</time>
</trkpt>
<trkpt lat="57.583828" lon="10.058967">
<ele>20.333898</ele>
<time>2026-07-16T16:58:40.000Z</time>
</trkpt>
<trkpt lat="57.583828" lon="10.059053">
<ele>20.337024</ele>
<time>2026-07-16T16:58:41.000Z</time>
</trkpt>
<trkpt lat="57.583831" lon="10.059137">
<ele>20.340084</ele>
<time>2026-07-16T16:58:42.000Z</time>
</trkpt>
<trkpt lat="57.583837" lon="10.059221">
<ele>20.343164</ele>
<time>2026-07-16T16:58:43.000Z</time>
</trkpt>
<trkpt lat="57.583842" lon="10.059300">
<ele>20.346056</ele>
<time>2026-07-16T16:58:44.000Z</time>
</trkpt>
<trkpt lat="57.583838" lon="10.059382">
<ele>20.349048</ele>
<time>2026-07-16T16:58:45.000Z</time>
</trkpt>
<trkpt lat="57.583825" lon="10.059473">
<ele>20.352472</ele>
<time>2026-07-16T16:58:46.000Z</time>
</trkpt>
<trkpt lat="57.583809" lon="10.059574">
<ele>20.356300</ele>
<time>2026-07-16T16:58:47.000Z</time>
</trkpt>
<trkpt lat="57.583800" lon="10.059658">
<ele>20.359413</ele>
<time>2026-07-16T16:58:48.000Z</time>
</trkpt>
<trkpt lat="57.583800" lon="10.059736">
<ele>20.362248</ele>
<time>2026-07-16T16:58:49.000Z</time>
</trkpt>
<trkpt lat="57.583804" lon="10.059819">
<ele>20.365278</ele>
<time>2026-07-16T16:58:50.000Z</time>
</trkpt>
<trkpt lat="57.583805" lon="10.059899">
<ele>20.368186</ele>
<time>2026-07-16T16:58:51.000Z</time>
</trkpt>
<trkpt lat="57.583802" lon="10.059990">
<ele>20.371500</ele>
<time>2026-07-16T16:58:52.000Z</time>
</trkpt>
<trkpt lat="57.583790" lon="10.060186">
<ele>20.379395</ele>
<time>2026-07-16T16:58:53.000Z</time>
</trkpt>
<trkpt lat="57.583781" lon="10.060315">
<ele>20.385536</ele>
<time>2026-07-16T16:58:54.000Z</time>
</trkpt>
<trkpt lat="57.583773" lon="10.060411">
<ele>20.390123</ele>
<time>2026-07-16T16:58:55.000Z</time>
</trkpt>
<trkpt lat="57.583757" lon="10.060530">
<ele>20.395915</ele>
<time>2026-07-16T16:58:56.000Z</time>
</trkpt>
<trkpt lat="57.583738" lon="10.060628">
<ele>20.400834</ele>
<time>2026-07-16T16:58:57.000Z</time>
</trkpt>
<trkpt lat="57.583725" lon="10.060713">
<ele>20.405007</ele>
<time>2026-07-16T16:58:58.000Z</time>
</trkpt>
<trkpt lat="57.583710" lon="10.060832">
<ele>20.410778</ele>
<time>2026-07-16T16:58:59.000Z</time>
</trkpt>
<trkpt lat="57.583695" lon="10.060937">
<ele>20.415908</ele>
<time>2026-07-16T16:59:00.000Z</time>
</trkpt>
<trkpt lat="57.583674" lon="10.061047">
<ele>20.421421</ele>
<time>2026-07-16T16:59:01.000Z</time>
</trkpt>
<trkpt lat="57.583654" lon="10.061156">
<ele>20.426860</ele>
<time>2026-07-16T16:59:02.000Z</time>
</trkpt>
<trkpt lat="57.583638" lon="10.061272">
<ele>20.432514</ele>
<time>2026-07-16T16:59:03.000Z</time>
</trkpt>
<trkpt lat="57.583609" lon="10.061426">
<ele>20.440220</ele>
<time>2026-07-16T16:59:04.000Z</time>
</trkpt>
<trkpt lat="57.583591" lon="10.061552">
<ele>20.446376</ele>
<time>2026-07-16T16:59:05.000Z</time>
</trkpt>
<trkpt lat="57.583574" lon="10.061677">
<ele>20.452464</ele>
<time>2026-07-16T16:59:06.000Z</time>
</trkpt>
<trkpt lat="57.583558" lon="10.061786">
<ele>20.457799</ele>
<time>2026-07-16T16:59:07.000Z</time>
</trkpt>
<trkpt lat="57.583551" lon="10.061895">
<ele>20.462982</ele>
<time>2026-07-16T16:59:08.000Z</time>
</trkpt>
<trkpt lat="57.583547" lon="10.062013">
<ele>20.468563</ele>
<time>2026-07-16T16:59:09.000Z</time>
</trkpt>
<trkpt lat="57.583535" lon="10.062131">
<ele>20.474233</ele>
<time>2026-07-16T16:59:10.000Z</time>
</trkpt>
<trkpt lat="57.583519" lon="10.062248">
<ele>20.479934</ele>
<time>2026-07-16T16:59:11.000Z</time>
</trkpt>
<trkpt lat="57.583496" lon="10.062372">
<ele>20.486128</ele>
<time>2026-07-16T16:59:12.000Z</time>
</trkpt>
<trkpt lat="57.583478" lon="10.062491">
<ele>20.491965</ele>
<time>2026-07-16T16:59:13.000Z</time>
</trkpt>
<trkpt lat="57.583462" lon="10.062599">
<ele>20.497255</ele>
<time>2026-07-16T16:59:14.000Z</time>
</trkpt>
<trkpt lat="57.583447" lon="10.062706">
<ele>20.502476</ele>
<time>2026-07-16T16:59:15.000Z</time>
</trkpt>
<trkpt lat="57.583429" lon="10.062807">
<ele>20.507501</ele>
<time>2026-07-16T16:59:16.000Z</time>
</trkpt>
<trkpt lat="57.583404" lon="10.062911">
<ele>20.512882</ele>
<time>2026-07-16T16:59:17.000Z</time>
</trkpt>
<trkpt lat="57.583387" lon="10.063042">
<ele>20.519245</ele>
<time>2026-07-16T16:59:18.000Z</time>
</trkpt>
<trkpt lat="57.583371" lon="10.063167">
<ele>20.525312</ele>
<time>2026-07-16T16:59:19.000Z</time>
</trkpt>
<trkpt lat="57.583353" lon="10.063284">
<ele>20.531058</ele>
<time>2026-07-16T16:59:20.000Z</time>
</trkpt>
<trkpt lat="57.583334" lon="10.063393">
<ele>20.525182</ele>
<time>2026-07-16T16:59:21.000Z</time>
</trkpt>
<trkpt lat="57.583312" lon="10.063494">
<ele>20.498500</ele>
<time>2026-07-16T16:59:22.000Z</time>
</trkpt>
<trkpt lat="57.583294" lon="10.063577">
<ele>20.476586</ele>
<time>2026-07-16T16:59:23.000Z</time>
</trkpt>
<trkpt lat="57.583279" lon="10.063671">
<ele>20.452582</ele>
<time>2026-07-16T16:59:24.000Z</time>
</trkpt>
<trkpt lat="57.583267" lon="10.063773">
<ele>20.427024</ele>
<time>2026-07-16T16:59:25.000Z</time>
</trkpt>
<trkpt lat="57.583250" lon="10.063873">
<ele>20.401348</ele>
<time>2026-07-16T16:59:26.000Z</time>
</trkpt>
<trkpt lat="57.583244" lon="10.063971">
<ele>20.377206</ele>
<time>2026-07-16T16:59:27.000Z</time>
</trkpt>
<trkpt lat="57.583239" lon="10.064054">
<ele>20.356764</ele>
<time>2026-07-16T16:59:28.000Z</time>
</trkpt>
<trkpt lat="57.583232" lon="10.064136">
<ele>20.336442</ele>
<time>2026-07-16T16:59:29.000Z</time>
</trkpt>
<trkpt lat="57.583229" lon="10.064225">
<ele>20.314616</ele>
<time>2026-07-16T16:59:30.000Z</time>
</trkpt>
<trkpt lat="57.583224" lon="10.064296">
<ele>20.297090</ele>
<time>2026-07-16T16:59:31.000Z</time>
</trkpt>
<trkpt lat="57.583213" lon="10.064356">
<ele>20.281570</ele>
<time>2026-07-16T16:59:32.000Z</time>
</trkpt>
<trkpt lat="57.583202" lon="10.064420">
<ele>20.265120</ele>
<time>2026-07-16T16:59:33.000Z</time>
</trkpt>
<trkpt lat="57.583193" lon="10.064484">
<ele>20.248926</ele>
<time>2026-07-16T16:59:34.000Z</time>
</trkpt>
<trkpt lat="57.583186" lon="10.064544">
<ele>20.233897</ele>
<time>2026-07-16T16:59:35.000Z</time>
</trkpt>
<trkpt lat="57.583175" lon="10.064616">
<ele>20.215574</ele>
<time>2026-07-16T16:59:36.000Z</time>
</trkpt>
<trkpt lat="57.583158" lon="10.064686">
<ele>20.196765</ele>
<time>2026-07-16T16:59:37.000Z</time>
</trkpt>
<trkpt lat="57.583133" lon="10.064762">
<ele>20.174941</ele>
<time>2026-07-16T16:59:38.000Z</time>
</trkpt>
<trkpt lat="57.583103" lon="10.064841">
<ele>20.151246</ele>
<time>2026-07-16T16:59:39.000Z</time>
</trkpt>
<trkpt lat="57.583084" lon="10.064919">
<ele>20.130277</ele>
<time>2026-07-16T16:59:40.000Z</time>
</trkpt>
<trkpt lat="57.583080" lon="10.064994">
<ele>20.111830</ele>
<time>2026-07-16T16:59:41.000Z</time>
</trkpt>
<trkpt lat="57.583097" lon="10.065046">
<ele>20.096923</ele>
<time>2026-07-16T16:59:42.000Z</time>
</trkpt>
<trkpt lat="57.583122" lon="10.065090">
<ele>20.081231</ele>
<time>2026-07-16T16:59:43.000Z</time>
</trkpt>
<trkpt lat="57.583154" lon="10.065121">
<ele>20.064769</ele>
<time>2026-07-16T16:59:44.000Z</time>
</trkpt>
<trkpt lat="57.583183" lon="10.065145">
<ele>20.050284</ele>
<time>2026-07-16T16:59:45.000Z</time>
</trkpt>
<trkpt lat="57.583208" lon="10.065161">
<ele>20.038217</ele>
<time>2026-07-16T16:59:46.000Z</time>
</trkpt>
<trkpt lat="57.583239" lon="10.065182">
<ele>20.023159</ele>
<time>2026-07-16T16:59:47.000Z</time>
</trkpt>
<trkpt lat="57.583273" lon="10.065206">
<ele>20.006562</ele>
<time>2026-07-16T16:59:48.000Z</time>
</trkpt>
<trkpt lat="57.583307" lon="10.065230">
<ele>19.989965</ele>
<time>2026-07-16T16:59:49.000Z</time>
</trkpt>
<trkpt lat="57.583338" lon="10.065240">
<ele>19.975601</ele>
<time>2026-07-16T16:59:50.000Z</time>
</trkpt>
<trkpt lat="57.583379" lon="10.065252">
<ele>19.956653</ele>
<time>2026-07-16T16:59:51.000Z</time>
</trkpt>
<trkpt lat="57.583417" lon="10.065258">
<ele>19.939242</ele>
<time>2026-07-16T16:59:52.000Z</time>
</trkpt>
<trkpt lat="57.583458" lon="10.065258">
<ele>19.920523</ele>
<time>2026-07-16T16:59:53.000Z</time>
</trkpt>
<trkpt lat="57.583500" lon="10.065259">
<ele>19.901346</ele>
<time>2026-07-16T16:59:54.000Z</time>
</trkpt>
<trkpt lat="57.583536" lon="10.065263">
<ele>19.884881</ele>
<time>2026-07-16T16:59:55.000Z</time>
</trkpt>
<trkpt lat="57.583570" lon="10.065269">
<ele>19.869288</ele>
<time>2026-07-16T16:59:56.000Z</time>
</trkpt>
<trkpt lat="57.583605" lon="10.065275">
<ele>19.853241</ele>
<time>2026-07-16T16:59:57.000Z</time>
</trkpt>
<trkpt lat="57.583650" lon="10.065287">
<ele>19.832487</ele>
<time>2026-07-16T16:59:58.000Z</time>
</trkpt>
<trkpt lat="57.583699" lon="10.065304">
<ele>19.809732</ele>
<time>2026-07-16T16:59:59.000Z</time>
</trkpt>
<trkpt lat="57.583742" lon="10.065318">
<ele>19.789804</ele>
<time>2026-07-16T17:00:00.000Z</time>
</trkpt>
<trkpt lat="57.583788" lon="10.065337">
<ele>19.768293</ele>
<time>2026-07-16T17:00:01.000Z</time>
</trkpt>
<trkpt lat="57.583832" lon="10.065365">
<ele>19.747068</ele>
<time>2026-07-16T17:00:02.000Z</time>
</trkpt>
<trkpt lat="57.583873" lon="10.065404">
<ele>19.726056</ele>
<time>2026-07-16T17:00:03.000Z</time>
</trkpt>
<trkpt lat="57.583915" lon="10.065454">
<ele>19.708688</ele>
<time>2026-07-16T17:00:04.000Z</time>
</trkpt>
<trkpt lat="57.583956" lon="10.065509">
<ele>19.697854</ele>
<time>2026-07-16T17:00:05.000Z</time>
</trkpt>
<trkpt lat="57.583999" lon="10.065565">
<ele>19.686604</ele>
<time>2026-07-16T17:00:06.000Z</time>
</trkpt>
<trkpt lat="57.584041" lon="10.065615">
<ele>19.675915</ele>
<time>2026-07-16T17:00:07.000Z</time>
</trkpt>
<trkpt lat="57.584081" lon="10.065661">
<ele>19.665835</ele>
<time>2026-07-16T17:00:08.000Z</time>
</trkpt>
<trkpt lat="57.584116" lon="10.065703">
<ele>19.656907</ele>
<time>2026-07-16T17:00:09.000Z</time>
</trkpt>
<trkpt lat="57.584150" lon="10.065752">
<ele>19.647689</ele>
<time>2026-07-16T17:00:10.000Z</time>
</trkpt>
<trkpt lat="57.584182" lon="10.065798">
<ele>19.639023</ele>
<time>2026-07-16T17:00:11.000Z</time>
</trkpt>
<trkpt lat="57.584218" lon="10.065842">
<ele>19.629790</ele>
<time>2026-07-16T17:00:12.000Z</time>
</trkpt>
<trkpt lat="57.584256" lon="10.065889">
<ele>19.620009</ele>
<time>2026-07-16T17:00:13.000Z</time>
</trkpt>
<trkpt lat="57.584294" lon="10.065929">
<ele>19.610648</ele>
<time>2026-07-16T17:00:14.000Z</time>
</trkpt>
<trkpt lat="57.584335" lon="10.065972">
<ele>19.600558</ele>
<time>2026-07-16T17:00:15.000Z</time>
</trkpt>
<trkpt lat="57.584372" lon="10.066019">
<ele>19.590955</ele>
<time>2026-07-16T17:00:16.000Z</time>
</trkpt>
<trkpt lat="57.584406" lon="10.066073">
<ele>19.581375</ele>
<time>2026-07-16T17:00:17.000Z</time>
</trkpt>
<trkpt lat="57.584440" lon="10.066133">
<ele>19.571335</ele>
<time>2026-07-16T17:00:18.000Z</time>
</trkpt>
<trkpt lat="57.584466" lon="10.066198">
<ele>19.562008</ele>
<time>2026-07-16T17:00:19.000Z</time>
</trkpt>
<trkpt lat="57.584478" lon="10.066260">
<ele>19.554427</ele>
<time>2026-07-16T17:00:20.000Z</time>
</trkpt>
<trkpt lat="57.584478" lon="10.066319">
<ele>19.547642</ele>
<time>2026-07-16T17:00:21.000Z</time>
</trkpt>
<trkpt lat="57.584471" lon="10.066372">
<ele>19.541365</ele>
<time>2026-07-16T17:00:22.000Z</time>
</trkpt>
<trkpt lat="57.584461" lon="10.066415">
<ele>19.535975</ele>
<time>2026-07-16T17:00:23.000Z</time>
</trkpt>
<trkpt lat="57.584449" lon="10.066464">
<ele>19.529780</ele>
<time>2026-07-16T17:00:24.000Z</time>
</trkpt>
<trkpt lat="57.584433" lon="10.066508">
<ele>19.523665</ele>
<time>2026-07-16T17:00:25.000Z</time>
</trkpt>
<trkpt lat="57.584411" lon="10.066551">
<ele>19.516830</ele>
<time>2026-07-16T17:00:26.000Z</time>
</trkpt>
<trkpt lat="57.584387" lon="10.066593">
<ele>19.509770</ele>
<time>2026-07-16T17:00:27.000Z</time>
</trkpt>
<trkpt lat="57.584364" lon="10.066631">
<ele>19.503179</ele>
<time>2026-07-16T17:00:28.000Z</time>
</trkpt>
<trkpt lat="57.584342" lon="10.066675">
<ele>19.496259</ele>
<time>2026-07-16T17:00:29.000Z</time>
</trkpt>
<trkpt lat="57.584319" lon="10.066729">
<ele>19.488328</ele>
<time>2026-07-16T17:00:30.000Z</time>
</trkpt>
<trkpt lat="57.584294" lon="10.066779">
<ele>19.480465</ele>
<time>2026-07-16T17:00:31.000Z</time>
</trkpt>
<trkpt lat="57.584270" lon="10.066836">
<ele>19.472129</ele>
<time>2026-07-16T17:00:32.000Z</time>
</trkpt>
<trkpt lat="57.584246" lon="10.066883">
<ele>19.464665</ele>
<time>2026-07-16T17:00:33.000Z</time>
</trkpt>
<trkpt lat="57.584221" lon="10.066930">
<ele>19.457050</ele>
<time>2026-07-16T17:00:34.000Z</time>
</trkpt>
<trkpt lat="57.584195" lon="10.066974">
<ele>19.449519</ele>
<time>2026-07-16T17:00:35.000Z</time>
</trkpt>
<trkpt lat="57.584168" lon="10.067023">
<ele>19.441438</ele>
<time>2026-07-16T17:00:36.000Z</time>
</trkpt>
<trkpt lat="57.584141" lon="10.067067">
<ele>19.433747</ele>
<time>2026-07-16T17:00:37.000Z</time>
</trkpt>
<trkpt lat="57.584114" lon="10.067116">
<ele>19.425666</ele>
<time>2026-07-16T17:00:38.000Z</time>
</trkpt>
<trkpt lat="57.584087" lon="10.067167">
<ele>19.417423</ele>
<time>2026-07-16T17:00:39.000Z</time>
</trkpt>
<trkpt lat="57.584066" lon="10.067224">
<ele>19.409469</ele>
<time>2026-07-16T17:00:40.000Z</time>
</trkpt>
<trkpt lat="57.584045" lon="10.067275">
<ele>19.402073</ele>
<time>2026-07-16T17:00:41.000Z</time>
</trkpt>
<trkpt lat="57.584027" lon="10.067327">
<ele>19.394955</ele>
<time>2026-07-16T17:00:42.000Z</time>
</trkpt>
<trkpt lat="57.584012" lon="10.067369">
<ele>19.389151</ele>
<time>2026-07-16T17:00:43.000Z</time>
</trkpt>
<trkpt lat="57.583994" lon="10.067409">
<ele>19.383145</ele>
<time>2026-07-16T17:00:44.000Z</time>
</trkpt>
<trkpt lat="57.583980" lon="10.067453">
<ele>19.377261</ele>
<time>2026-07-16T17:00:45.000Z</time>
</trkpt>
<trkpt lat="57.583971" lon="10.067497">
<ele>19.371845</ele>
<time>2026-07-16T17:00:46.000Z</time>
</trkpt>
<trkpt lat="57.583966" lon="10.067533">
<ele>19.367568</ele>
<time>2026-07-16T17:00:47.000Z</time>
</trkpt>
<trkpt lat="57.583965" lon="10.067571">
<ele>19.363193</ele>
<time>2026-07-16T17:00:48.000Z</time>
</trkpt>
<trkpt lat="57.583965" lon="10.067628">
<ele>19.356638</ele>
<time>2026-07-16T17:00:49.000Z</time>
</trkpt>
<trkpt lat="57.583957" lon="10.067679">
<ele>19.350527</ele>
<time>2026-07-16T17:00:50.000Z</time>
</trkpt>
<trkpt lat="57.583948" lon="10.067713">
<ele>19.346166</ele>
<time>2026-07-16T17:00:51.000Z</time>
</trkpt>
<trkpt lat="57.583946" lon="10.067720">
<ele>19.345254</ele>
<time>2026-07-16T17:00:52.000Z</time>
</trkpt>
<trkpt lat="57.583913" lon="10.067878">
<ele>19.327990</ele>
<time>2026-07-16T17:01:38.000Z</time>
</trkpt>
<trkpt lat="57.583904" lon="10.067931">
<ele>19.329363</ele>
<time>2026-07-16T17:01:39.000Z</time>
</trkpt>
<trkpt lat="57.583892" lon="10.067989">
<ele>19.330898</ele>
<time>2026-07-16T17:01:40.000Z</time>
</trkpt>
<trkpt lat="57.583883" lon="10.068047">
<ele>19.332389</ele>
<time>2026-07-16T17:01:41.000Z</time>
</trkpt>
<trkpt lat="57.583873" lon="10.068103">
<ele>19.333846</ele>
<time>2026-07-16T17:01:42.000Z</time>
</trkpt>
<trkpt lat="57.583864" lon="10.068163">
<ele>19.335384</ele>
<time>2026-07-16T17:01:43.000Z</time>
</trkpt>
<trkpt lat="57.583857" lon="10.068220">
<ele>19.336828</ele>
<time>2026-07-16T17:01:44.000Z</time>
</trkpt>
<trkpt lat="57.583847" lon="10.068286">
<ele>19.338521</ele>
<time>2026-07-16T17:01:45.000Z</time>
</trkpt>
<trkpt lat="57.583838" lon="10.068357">
<ele>19.340322</ele>
<time>2026-07-16T17:01:46.000Z</time>
</trkpt>
<trkpt lat="57.583830" lon="10.068419">
<ele>19.341897</ele>
<time>2026-07-16T17:01:47.000Z</time>
</trkpt>
<trkpt lat="57.583817" lon="10.068479">
<ele>19.343495</ele>
<time>2026-07-16T17:01:48.000Z</time>
</trkpt>
<trkpt lat="57.583802" lon="10.068552">
<ele>19.345425</ele>
<time>2026-07-16T17:01:49.000Z</time>
</trkpt>
<trkpt lat="57.583784" lon="10.068631">
<ele>19.347544</ele>
<time>2026-07-16T17:01:50.000Z</time>
</trkpt>
<trkpt lat="57.583762" lon="10.068715">
<ele>19.349852</ele>
<time>2026-07-16T17:01:51.000Z</time>
</trkpt>
<trkpt lat="57.583742" lon="10.068791">
<ele>19.351942</ele>
<time>2026-07-16T17:01:52.000Z</time>
</trkpt>
<trkpt lat="57.583720" lon="10.068866">
<ele>19.354053</ele>
<time>2026-07-16T17:01:53.000Z</time>
</trkpt>
<trkpt lat="57.583703" lon="10.068929">
<ele>19.355795</ele>
<time>2026-07-16T17:01:54.000Z</time>
</trkpt>
<trkpt lat="57.583688" lon="10.069001">
<ele>19.357702</ele>
<time>2026-07-16T17:01:55.000Z</time>
</trkpt>
<trkpt lat="57.583672" lon="10.069066">
<ele>19.359468</ele>
<time>2026-07-16T17:01:56.000Z</time>
</trkpt>
<trkpt lat="57.583651" lon="10.069128">
<ele>19.361278</ele>
<time>2026-07-16T17:01:57.000Z</time>
</trkpt>
<trkpt lat="57.583629" lon="10.069190">
<ele>19.363114</ele>
<time>2026-07-16T17:01:58.000Z</time>
</trkpt>
<trkpt lat="57.583603" lon="10.069268">
<ele>19.365382</ele>
<time>2026-07-16T17:01:59.000Z</time>
</trkpt>
<trkpt lat="57.583587" lon="10.069340">
<ele>19.367306</ele>
<time>2026-07-16T17:02:00.000Z</time>
</trkpt>
<trkpt lat="57.583567" lon="10.069409">
<ele>19.369243</ele>
<time>2026-07-16T17:02:01.000Z</time>
</trkpt>
<trkpt lat="57.583544" lon="10.069474">
<ele>19.371165</ele>
<time>2026-07-16T17:02:02.000Z</time>
</trkpt>
<trkpt lat="57.583522" lon="10.069551">
<ele>19.373320</ele>
<time>2026-07-16T17:02:03.000Z</time>
</trkpt>
<trkpt lat="57.583505" lon="10.069639">
<ele>19.375629</ele>
<time>2026-07-16T17:02:04.000Z</time>
</trkpt>
<trkpt lat="57.583495" lon="10.069724">
<ele>19.377778</ele>
<time>2026-07-16T17:02:05.000Z</time>
</trkpt>
<trkpt lat="57.583479" lon="10.069815">
<ele>19.380142</ele>
<time>2026-07-16T17:02:06.000Z</time>
</trkpt>
<trkpt lat="57.583457" lon="10.069893">
<ele>19.382318</ele>
<time>2026-07-16T17:02:07.000Z</time>
</trkpt>
<trkpt lat="57.583429" lon="10.069967">
<ele>19.384554</ele>
<time>2026-07-16T17:02:08.000Z</time>
</trkpt>
<trkpt lat="57.583406" lon="10.070050">
<ele>19.386861</ele>
<time>2026-07-16T17:02:09.000Z</time>
</trkpt>
<trkpt lat="57.583387" lon="10.070135">
<ele>19.389135</ele>
<time>2026-07-16T17:02:10.000Z</time>
</trkpt>
<trkpt lat="57.583373" lon="10.070209">
<ele>19.391072</ele>
<time>2026-07-16T17:02:11.000Z</time>
</trkpt>
<trkpt lat="57.583368" lon="10.070286">
<ele>19.392987</ele>
<time>2026-07-16T17:02:12.000Z</time>
</trkpt>
<trkpt lat="57.583353" lon="10.070357">
<ele>19.394871</ele>
<time>2026-07-16T17:02:13.000Z</time>
</trkpt>
<trkpt lat="57.583339" lon="10.070426">
<ele>19.396693</ele>
<time>2026-07-16T17:02:14.000Z</time>
</trkpt>
<trkpt lat="57.583325" lon="10.070487">
<ele>19.398331</ele>
<time>2026-07-16T17:02:15.000Z</time>
</trkpt>
<trkpt lat="57.583315" lon="10.070549">
<ele>19.399930</ele>
<time>2026-07-16T17:02:16.000Z</time>
</trkpt>
<trkpt lat="57.583316" lon="10.070633">
<ele>19.402004</ele>
<time>2026-07-16T17:02:17.000Z</time>
</trkpt>
<trkpt lat="57.583303" lon="10.070730">
<ele>19.404473</ele>
<time>2026-07-16T17:02:18.000Z</time>
</trkpt>
<trkpt lat="57.583287" lon="10.070807">
<ele>19.406512</ele>
<time>2026-07-16T17:02:19.000Z</time>
</trkpt>
<trkpt lat="57.583261" lon="10.070903">
<ele>19.409167</ele>
<time>2026-07-16T17:02:20.000Z</time>
</trkpt>
<trkpt lat="57.583233" lon="10.071008">
<ele>19.366246</ele>
<time>2026-07-16T17:02:21.000Z</time>
</trkpt>
<trkpt lat="57.583209" lon="10.071099">
<ele>19.298348</ele>
<time>2026-07-16T17:02:22.000Z</time>
</trkpt>
<trkpt lat="57.583181" lon="10.071201">
<ele>19.221628</ele>
<time>2026-07-16T17:02:23.000Z</time>
</trkpt>
<trkpt lat="57.583155" lon="10.071290">
<ele>19.153770</ele>
<time>2026-07-16T17:02:24.000Z</time>
</trkpt>
<trkpt lat="57.583141" lon="10.071363">
<ele>19.101864</ele>
<time>2026-07-16T17:02:25.000Z</time>
</trkpt>
<trkpt lat="57.583129" lon="10.071424">
<ele>19.058362</ele>
<time>2026-07-16T17:02:26.000Z</time>
</trkpt>
<trkpt lat="57.583107" lon="10.071497">
<ele>19.002296</ele>
<time>2026-07-16T17:02:27.000Z</time>
</trkpt>
<trkpt lat="57.583094" lon="10.071571">
<ele>18.950161</ele>
<time>2026-07-16T17:02:28.000Z</time>
</trkpt>
<trkpt lat="57.583095" lon="10.071628">
<ele>18.911980</ele>
<time>2026-07-16T17:02:29.000Z</time>
</trkpt>
<trkpt lat="57.583104" lon="10.071689">
<ele>18.869623</ele>
<time>2026-07-16T17:02:30.000Z</time>
</trkpt>
<trkpt lat="57.583115" lon="10.071753">
<ele>18.824627</ele>
<time>2026-07-16T17:02:31.000Z</time>
</trkpt>
<trkpt lat="57.583129" lon="10.071814">
<ele>18.780203</ele>
<time>2026-07-16T17:02:32.000Z</time>
</trkpt>
<trkpt lat="57.583150" lon="10.071865">
<ele>18.737149</ele>
<time>2026-07-16T17:02:33.000Z</time>
</trkpt>
<trkpt lat="57.583172" lon="10.071911">
<ele>18.695878</ele>
<time>2026-07-16T17:02:34.000Z</time>
</trkpt>
<trkpt lat="57.583206" lon="10.071968">
<ele>18.638788</ele>
<time>2026-07-16T17:02:35.000Z</time>
</trkpt>
<trkpt lat="57.583253" lon="10.072019">
<ele>18.570882</ele>
<time>2026-07-16T17:02:36.000Z</time>
</trkpt>
<trkpt lat="57.583297" lon="10.072076">
<ele>18.503981</ele>
<time>2026-07-16T17:02:37.000Z</time>
</trkpt>
<trkpt lat="57.583345" lon="10.072143">
<ele>18.429111</ele>
<time>2026-07-16T17:02:38.000Z</time>
</trkpt>
<trkpt lat="57.583397" lon="10.072200">
<ele>18.353787</ele>
<time>2026-07-16T17:02:39.000Z</time>
</trkpt>
<trkpt lat="57.583442" lon="10.072253">
<ele>18.287324</ele>
<time>2026-07-16T17:02:40.000Z</time>
</trkpt>
<trkpt lat="57.583484" lon="10.072304">
<ele>18.224738</ele>
<time>2026-07-16T17:02:41.000Z</time>
</trkpt>
<trkpt lat="57.583521" lon="10.072357">
<ele>18.166478</ele>
<time>2026-07-16T17:02:42.000Z</time>
</trkpt>
<trkpt lat="57.583558" lon="10.072405">
<ele>18.110194</ele>
<time>2026-07-16T17:02:43.000Z</time>
</trkpt>
<trkpt lat="57.583590" lon="10.072454">
<ele>18.058490</ele>
<time>2026-07-16T17:02:44.000Z</time>
</trkpt>
<trkpt lat="57.583623" lon="10.072511">
<ele>18.002323</ele>
<time>2026-07-16T17:02:45.000Z</time>
</trkpt>
<trkpt lat="57.583655" lon="10.072572">
<ele>17.945184</ele>
<time>2026-07-16T17:02:46.000Z</time>
</trkpt>
<trkpt lat="57.583689" lon="10.072640">
<ele>17.882931</ele>
<time>2026-07-16T17:02:47.000Z</time>
</trkpt>
<trkpt lat="57.583723" lon="10.072708">
<ele>17.820677</ele>
<time>2026-07-16T17:02:48.000Z</time>
</trkpt>
<trkpt lat="57.583752" lon="10.072778">
<ele>17.761450</ele>
<time>2026-07-16T17:02:49.000Z</time>
</trkpt>
<trkpt lat="57.583787" lon="10.072861">
<ele>17.690752</ele>
<time>2026-07-16T17:02:50.000Z</time>
</trkpt>
<trkpt lat="57.583822" lon="10.072933">
<ele>17.625682</ele>
<time>2026-07-16T17:02:51.000Z</time>
</trkpt>
<trkpt lat="57.583862" lon="10.073003">
<ele>17.557186</ele>
<time>2026-07-16T17:02:52.000Z</time>
</trkpt>
<trkpt lat="57.583901" lon="10.073081">
<ele>17.485778</ele>
<time>2026-07-16T17:02:53.000Z</time>
</trkpt>
<trkpt lat="57.583942" lon="10.073166">
<ele>17.409227</ele>
<time>2026-07-16T17:02:54.000Z</time>
</trkpt>
<trkpt lat="57.583979" lon="10.073248">
<ele>17.337471</ele>
<time>2026-07-16T17:02:55.000Z</time>
</trkpt>
<trkpt lat="57.584018" lon="10.073328">
<ele>17.265079</ele>
<time>2026-07-16T17:02:56.000Z</time>
</trkpt>
<trkpt lat="57.584055" lon="10.073401">
<ele>17.197821</ele>
<time>2026-07-16T17:02:57.000Z</time>
</trkpt>
<trkpt lat="57.584089" lon="10.073464">
<ele>17.164275</ele>
<time>2026-07-16T17:02:58.000Z</time>
</trkpt>
<trkpt lat="57.584118" lon="10.073513">
<ele>17.164497</ele>
<time>2026-07-16T17:02:59.000Z</time>
</trkpt>
<trkpt lat="57.584144" lon="10.073558">
<ele>17.164697</ele>
<time>2026-07-16T17:03:00.000Z</time>
</trkpt>
<trkpt lat="57.584171" lon="10.073611">
<ele>17.164919</ele>
<time>2026-07-16T17:03:01.000Z</time>
</trkpt>
<trkpt lat="57.584198" lon="10.073675">
<ele>17.165166</ele>
<time>2026-07-16T17:03:02.000Z</time>
</trkpt>
<trkpt lat="57.584222" lon="10.073745">
<ele>17.165418</ele>
<time>2026-07-16T17:03:03.000Z</time>
</trkpt>
<trkpt lat="57.584237" lon="10.073816">
<ele>17.165649</ele>
<time>2026-07-16T17:03:04.000Z</time>
</trkpt>
<trkpt lat="57.584248" lon="10.073893">
<ele>17.165891</ele>
<time>2026-07-16T17:03:05.000Z</time>
</trkpt>
<trkpt lat="57.584251" lon="10.073965">
<ele>17.166110</ele>
<time>2026-07-16T17:03:06.000Z</time>
</trkpt>
<trkpt lat="57.584246" lon="10.074033">
<ele>17.166318</ele>
<time>2026-07-16T17:03:07.000Z</time>
</trkpt>
<trkpt lat="57.584236" lon="10.074100">
<ele>17.166529</ele>
<time>2026-07-16T17:03:08.000Z</time>
</trkpt>
<trkpt lat="57.584230" lon="10.074153">
<ele>17.166693</ele>
<time>2026-07-16T17:03:09.000Z</time>
</trkpt>
<trkpt lat="57.584223" lon="10.074215">
<ele>17.166885</ele>
<time>2026-07-16T17:03:10.000Z</time>
</trkpt>
<trkpt lat="57.584215" lon="10.074275">
<ele>17.167073</ele>
<time>2026-07-16T17:03:11.000Z</time>
</trkpt>
<trkpt lat="57.584205" lon="10.074337">
<ele>17.167269</ele>
<time>2026-07-16T17:03:12.000Z</time>
</trkpt>
<trkpt lat="57.584194" lon="10.074400">
<ele>17.167470</ele>
<time>2026-07-16T17:03:13.000Z</time>
</trkpt>
<trkpt lat="57.584182" lon="10.074465">
<ele>17.167679</ele>
<time>2026-07-16T17:03:14.000Z</time>
</trkpt>
<trkpt lat="57.584171" lon="10.074527">
<ele>17.167877</ele>
<time>2026-07-16T17:03:15.000Z</time>
</trkpt>
<trkpt lat="57.584159" lon="10.074596">
<ele>17.168097</ele>
<time>2026-07-16T17:03:16.000Z</time>
</trkpt>
<trkpt lat="57.584148" lon="10.074664">
<ele>17.168312</ele>
<time>2026-07-16T17:03:17.000Z</time>
</trkpt>
<trkpt lat="57.584136" lon="10.074738">
<ele>17.168547</ele>
<time>2026-07-16T17:03:18.000Z</time>
</trkpt>
<trkpt lat="57.584117" lon="10.074811">
<ele>17.168793</ele>
<time>2026-07-16T17:03:19.000Z</time>
</trkpt>
<trkpt lat="57.584099" lon="10.074887">
<ele>17.169045</ele>
<time>2026-07-16T17:03:20.000Z</time>
</trkpt>
<trkpt lat="57.584087" lon="10.074961">
<ele>17.169279</ele>
<time>2026-07-16T17:03:21.000Z</time>
</trkpt>
<trkpt lat="57.584073" lon="10.075037">
<ele>17.169523</ele>
<time>2026-07-16T17:03:22.000Z</time>
</trkpt>
<trkpt lat="57.584055" lon="10.075113">
<ele>17.169775</ele>
<time>2026-07-16T17:03:23.000Z</time>
</trkpt>
<trkpt lat="57.584036" lon="10.075195">
<ele>17.170046</ele>
<time>2026-07-16T17:03:24.000Z</time>
</trkpt>
<trkpt lat="57.584014" lon="10.075281">
<ele>17.170335</ele>
<time>2026-07-16T17:03:25.000Z</time>
</trkpt>
<trkpt lat="57.583996" lon="10.075372">
<ele>17.170629</ele>
<time>2026-07-16T17:03:26.000Z</time>
</trkpt>
<trkpt lat="57.583981" lon="10.075465">
<ele>17.170923</ele>
<time>2026-07-16T17:03:27.000Z</time>
</trkpt>
<trkpt lat="57.583963" lon="10.075556">
<ele>17.171217</ele>
<time>2026-07-16T17:03:28.000Z</time>
</trkpt>
<trkpt lat="57.583952" lon="10.075661">
<ele>17.171542</ele>
<time>2026-07-16T17:03:29.000Z</time>
</trkpt>
<trkpt lat="57.583945" lon="10.075764">
<ele>17.171857</ele>
<time>2026-07-16T17:03:30.000Z</time>
</trkpt>
<trkpt lat="57.583931" lon="10.075858">
<ele>17.172153</ele>
<time>2026-07-16T17:03:31.000Z</time>
</trkpt>
<trkpt lat="57.583913" lon="10.075947">
<ele>17.172441</ele>
<time>2026-07-16T17:03:32.000Z</time>
</trkpt>
<trkpt lat="57.583897" lon="10.076036">
<ele>17.172726</ele>
<time>2026-07-16T17:03:33.000Z</time>
</trkpt>
<trkpt lat="57.583879" lon="10.076130">
<ele>17.173028</ele>
<time>2026-07-16T17:03:34.000Z</time>
</trkpt>
<trkpt lat="57.583861" lon="10.076226">
<ele>17.173337</ele>
<time>2026-07-16T17:03:35.000Z</time>
</trkpt>
<trkpt lat="57.583841" lon="10.076320">
<ele>17.173643</ele>
<time>2026-07-16T17:03:36.000Z</time>
</trkpt>
<trkpt lat="57.583822" lon="10.076410">
<ele>17.173937</ele>
<time>2026-07-16T17:03:37.000Z</time>
</trkpt>
<trkpt lat="57.583800" lon="10.076491">
<ele>17.174212</ele>
<time>2026-07-16T17:03:38.000Z</time>
</trkpt>
<trkpt lat="57.583777" lon="10.076586">
<ele>17.133720</ele>
<time>2026-07-16T17:03:39.000Z</time>
</trkpt>
<trkpt lat="57.583757" lon="10.076676">
<ele>17.072707</ele>
<time>2026-07-16T17:03:40.000Z</time>
</trkpt>
<trkpt lat="57.583744" lon="10.076764">
<ele>17.015543</ele>
<time>2026-07-16T17:03:41.000Z</time>
</trkpt>
<trkpt lat="57.583730" lon="10.076844">
<ele>16.962841</ele>
<time>2026-07-16T17:03:42.000Z</time>
</trkpt>
<trkpt lat="57.583722" lon="10.076947">
<ele>16.897665</ele>
<time>2026-07-16T17:03:43.000Z</time>
</trkpt>
<trkpt lat="57.583710" lon="10.077041">
<ele>16.837151</ele>
<time>2026-07-16T17:03:44.000Z</time>
</trkpt>
<trkpt lat="57.583693" lon="10.077127">
<ele>16.779749</ele>
<time>2026-07-16T17:03:45.000Z</time>
</trkpt>
<trkpt lat="57.583676" lon="10.077209">
<ele>16.724691</ele>
<time>2026-07-16T17:03:46.000Z</time>
</trkpt>
<trkpt lat="57.583663" lon="10.077292">
<ele>16.670539</ele>
<time>2026-07-16T17:03:47.000Z</time>
</trkpt>
<trkpt lat="57.583652" lon="10.077369">
<ele>16.620635</ele>
<time>2026-07-16T17:03:48.000Z</time>
</trkpt>
<trkpt lat="57.583643" lon="10.077448">
<ele>16.570057</ele>
<time>2026-07-16T17:03:49.000Z</time>
</trkpt>
<trkpt lat="57.583630" lon="10.077534">
<ele>16.514099</ele>
<time>2026-07-16T17:03:50.000Z</time>
</trkpt>
<trkpt lat="57.583612" lon="10.077621">
<ele>16.455699</ele>
<time>2026-07-16T17:03:51.000Z</time>
</trkpt>
<trkpt lat="57.583599" lon="10.077699">
<ele>16.404545</ele>
<time>2026-07-16T17:03:52.000Z</time>
</trkpt>
<trkpt lat="57.583587" lon="10.077776">
<ele>16.354328</ele>
<time>2026-07-16T17:03:53.000Z</time>
</trkpt>
<trkpt lat="57.583581" lon="10.077843">
<ele>16.311787</ele>
<time>2026-07-16T17:03:54.000Z</time>
</trkpt>
<trkpt lat="57.583575" lon="10.077907">
<ele>16.271099</ele>
<time>2026-07-16T17:03:55.000Z</time>
</trkpt>
<trkpt lat="57.583570" lon="10.077965">
<ele>16.234310</ele>
<time>2026-07-16T17:03:56.000Z</time>
</trkpt>
<trkpt lat="57.583558" lon="10.078028">
<ele>16.192440</ele>
<time>2026-07-16T17:03:57.000Z</time>
</trkpt>
<trkpt lat="57.583545" lon="10.078087">
<ele>16.152492</ele>
<time>2026-07-16T17:03:58.000Z</time>
</trkpt>
<trkpt lat="57.583534" lon="10.078159">
<ele>16.105607</ele>
<time>2026-07-16T17:03:59.000Z</time>
</trkpt>
<trkpt lat="57.583528" lon="10.078222">
<ele>16.065535</ele>
<time>2026-07-16T17:04:00.000Z</time>
</trkpt>
<trkpt lat="57.583540" lon="10.078270">
<ele>16.032367</ele>
<time>2026-07-16T17:04:01.000Z</time>
</trkpt>
<trkpt lat="57.583557" lon="10.078299">
<ele>16.005456</ele>
<time>2026-07-16T17:04:02.000Z</time>
</trkpt>
<trkpt lat="57.583577" lon="10.078323">
<ele>15.977674</ele>
<time>2026-07-16T17:04:03.000Z</time>
</trkpt>
<trkpt lat="57.583603" lon="10.078348">
<ele>15.943503</ele>
<time>2026-07-16T17:04:04.000Z</time>
</trkpt>
<trkpt lat="57.583622" lon="10.078372">
<ele>15.916697</ele>
<time>2026-07-16T17:04:05.000Z</time>
</trkpt>
<trkpt lat="57.583642" lon="10.078394">
<ele>15.889573</ele>
<time>2026-07-16T17:04:06.000Z</time>
</trkpt>
<trkpt lat="57.583668" lon="10.078419">
<ele>15.855401</ele>
<time>2026-07-16T17:04:07.000Z</time>
</trkpt>
<trkpt lat="57.583691" lon="10.078443">
<ele>15.824614</ele>
<time>2026-07-16T17:04:08.000Z</time>
</trkpt>
<trkpt lat="57.583712" lon="10.078464">
<ele>15.796779</ele>
<time>2026-07-16T17:04:09.000Z</time>
</trkpt>
<trkpt lat="57.583728" lon="10.078480">
<ele>15.775571</ele>
<time>2026-07-16T17:04:10.000Z</time>
</trkpt>
<trkpt lat="57.583746" lon="10.078492">
<ele>15.753240</ele>
<time>2026-07-16T17:04:11.000Z</time>
</trkpt>
<trkpt lat="57.583768" lon="10.078500">
<ele>15.727056</ele>
<time>2026-07-16T17:04:12.000Z</time>
</trkpt>
<trkpt lat="57.583791" lon="10.078503">
<ele>15.700121</ele>
<time>2026-07-16T17:04:13.000Z</time>
</trkpt>
<trkpt lat="57.583817" lon="10.078510">
<ele>15.669433</ele>
<time>2026-07-16T17:04:14.000Z</time>
</trkpt>
<trkpt lat="57.583849" lon="10.078516">
<ele>15.631861</ele>
<time>2026-07-16T17:04:15.000Z</time>
</trkpt>
<trkpt lat="57.583878" lon="10.078519">
<ele>15.597931</ele>
<time>2026-07-16T17:04:16.000Z</time>
</trkpt>
<trkpt lat="57.583904" lon="10.078518">
<ele>15.567550</ele>
<time>2026-07-16T17:04:17.000Z</time>
</trkpt>
<trkpt lat="57.583931" lon="10.078516">
<ele>15.535983</ele>
<time>2026-07-16T17:04:18.000Z</time>
</trkpt>
<trkpt lat="57.583966" lon="10.078507">
<ele>15.494709</ele>
<time>2026-07-16T17:04:19.000Z</time>
</trkpt>
<trkpt lat="57.584005" lon="10.078498">
<ele>15.448801</ele>
<time>2026-07-16T17:04:20.000Z</time>
</trkpt>
<trkpt lat="57.584056" lon="10.078500">
<ele>15.389209</ele>
<time>2026-07-16T17:04:21.000Z</time>
</trkpt>
<trkpt lat="57.584121" lon="10.078517">
<ele>15.312531</ele>
<time>2026-07-16T17:04:22.000Z</time>
</trkpt>
<trkpt lat="57.584173" lon="10.078512">
<ele>15.251703</ele>
<time>2026-07-16T17:04:23.000Z</time>
</trkpt>
<trkpt lat="57.584226" lon="10.078516">
<ele>15.189737</ele>
<time>2026-07-16T17:04:24.000Z</time>
</trkpt>
<trkpt lat="57.584273" lon="10.078518">
<ele>15.134816</ele>
<time>2026-07-16T17:04:25.000Z</time>
</trkpt>
<trkpt lat="57.584324" lon="10.078525">
<ele>15.075076</ele>
<time>2026-07-16T17:04:26.000Z</time>
</trkpt>
<trkpt lat="57.584369" lon="10.078532">
<ele>15.073116</ele>
<time>2026-07-16T17:04:27.000Z</time>
</trkpt>
<trkpt lat="57.584420" lon="10.078525">
<ele>15.073116</ele>
<time>2026-07-16T17:04:28.000Z</time>
</trkpt>
<trkpt lat="57.584463" lon="10.078514">
<ele>15.073116</ele>
<time>2026-07-16T17:04:29.000Z</time>
</trkpt>
<trkpt lat="57.584511" lon="10.078515">
<ele>15.073116</ele>
<time>2026-07-16T17:04:30.000Z</time>
</trkpt>
<trkpt lat="57.584559" lon="10.078498">
<ele>15.073116</ele>
<time>2026-07-16T17:04:31.000Z</time>
</trkpt>
<trkpt lat="57.584605" lon="10.078466">
<ele>15.073116</ele>
<time>2026-07-16T17:04:32.000Z</time>
</trkpt>
<trkpt lat="57.584648" lon="10.078437">
<ele>15.073116</ele>
<time>2026-07-16T17:04:33.000Z</time>
</trkpt>
<trkpt lat="57.584708" lon="10.078407">
<ele>15.073116</ele>
<time>2026-07-16T17:04:34.000Z</time>
</trkpt>
<trkpt lat="57.584778" lon="10.078380">
<ele>15.073116</ele>
<time>2026-07-16T17:04:35.000Z</time>
</trkpt>
<trkpt lat="57.584833" lon="10.078358">
<ele>15.073116</ele>
<time>2026-07-16T17:04:36.000Z</time>
</trkpt>
<trkpt lat="57.584877" lon="10.078338">
<ele>15.073116</ele>
<time>2026-07-16T17:04:37.000Z</time>
</trkpt>
<trkpt lat="57.584919" lon="10.078321">
<ele>15.073116</ele>
<time>2026-07-16T17:04:38.000Z</time>
</trkpt>
<trkpt lat="57.584961" lon="10.078306">
<ele>15.073116</ele>
<time>2026-07-16T17:04:39.000Z</time>
</trkpt>
<trkpt lat="57.585003" lon="10.078295">
<ele>15.073116</ele>
<time>2026-07-16T17:04:40.000Z</time>
</trkpt>
<trkpt lat="57.585042" lon="10.078284">
<ele>15.073116</ele>
<time>2026-07-16T17:04:41.000Z</time>
</trkpt>
<trkpt lat="57.585080" lon="10.078273">
<ele>15.073116</ele>
<time>2026-07-16T17:04:42.000Z</time>
</trkpt>
<trkpt lat="57.585123" lon="10.078254">
<ele>15.073116</ele>
<time>2026-07-16T17:04:43.000Z</time>
</trkpt>
<trkpt lat="57.585166" lon="10.078225">
<ele>15.073116</ele>
<time>2026-07-16T17:04:44.000Z</time>
</trkpt>
<trkpt lat="57.585215" lon="10.078197">
<ele>15.073116</ele>
<time>2026-07-16T17:04:45.000Z</time>
</trkpt>
<trkpt lat="57.585256" lon="10.078173">
<ele>15.073116</ele>
<time>2026-07-16T17:04:46.000Z</time>
</trkpt>
<trkpt lat="57.585291" lon="10.078143">
<ele>15.073116</ele>
<time>2026-07-16T17:04:47.000Z</time>
</trkpt>
<trkpt lat="57.585327" lon="10.078118">
<ele>15.073116</ele>
<time>2026-07-16T17:04:48.000Z</time>
</trkpt>
<trkpt lat="57.585365" lon="10.078091">
<ele>15.073116</ele>
<time>2026-07-16T17:04:49.000Z</time>
</trkpt>
<trkpt lat="57.585411" lon="10.078061">
<ele>15.073116</ele>
<time>2026-07-16T17:04:50.000Z</time>
</trkpt>
<trkpt lat="57.585447" lon="10.078036">
<ele>15.073116</ele>
<time>2026-07-16T17:04:51.000Z</time>
</trkpt>
<trkpt lat="57.585484" lon="10.078016">
<ele>15.073116</ele>
<time>2026-07-16T17:04:52.000Z</time>
</trkpt>
<trkpt lat="57.585519" lon="10.078001">
<ele>15.073116</ele>
<time>2026-07-16T17:04:53.000Z</time>
</trkpt>
<trkpt lat="57.585551" lon="10.077977">
<ele>15.073116</ele>
<time>2026-07-16T17:04:54.000Z</time>
</trkpt>
<trkpt lat="57.585584" lon="10.077954">
<ele>15.073116</ele>
<time>2026-07-16T17:04:55.000Z</time>
</trkpt>
<trkpt lat="57.585619" lon="10.077933">
<ele>15.073116</ele>
<time>2026-07-16T17:04:56.000Z</time>
</trkpt>
<trkpt lat="57.585657" lon="10.077910">
<ele>15.073116</ele>
<time>2026-07-16T17:04:57.000Z</time>
</trkpt>
<trkpt lat="57.585691" lon="10.077885">
<ele>15.073116</ele>
<time>2026-07-16T17:04:58.000Z</time>
</trkpt>
<trkpt lat="57.585720" lon="10.077858">
<ele>15.073116</ele>
<time>2026-07-16T17:04:59.000Z</time>
</trkpt>
<trkpt lat="57.585744" lon="10.077839">
<ele>15.073116</ele>
<time>2026-07-16T17:05:00.000Z</time>
</trkpt>
<trkpt lat="57.585767" lon="10.077820">
<ele>15.073116</ele>
<time>2026-07-16T17:05:01.000Z</time>
</trkpt>
<trkpt lat="57.585789" lon="10.077802">
<ele>15.073116</ele>
<time>2026-07-16T17:05:02.000Z</time>
</trkpt>
<trkpt lat="57.585815" lon="10.077785">
<ele>15.073116</ele>
<time>2026-07-16T17:05:03.000Z</time>
</trkpt>
<trkpt lat="57.585834" lon="10.077772">
<ele>15.073116</ele>
<time>2026-07-16T17:05:04.000Z</time>
</trkpt>
<trkpt lat="57.585855" lon="10.077759">
<ele>15.073116</ele>
<time>2026-07-16T17:05:05.000Z</time>
</trkpt>
<trkpt lat="57.585872" lon="10.077748">
<ele>15.073116</ele>
<time>2026-07-16T17:05:06.000Z</time>
</trkpt>
<trkpt lat="57.585890" lon="10.077741">
<ele>15.073116</ele>
<time>2026-07-16T17:05:07.000Z</time>
</trkpt>
<trkpt lat="57.585896" lon="10.077739">
<ele>15.073116</ele>
<time>2026-07-16T17:05:08.000Z</time>
</trkpt>
<trkpt lat="57.586080" lon="10.077586">
<ele>15.073116</ele>
<time>2026-07-16T17:05:34.000Z</time>
</trkpt>
<trkpt lat="57.586094" lon="10.077574">
<ele>15.073116</ele>
<time>2026-07-16T17:05:35.000Z</time>
</trkpt>
<trkpt lat="57.586111" lon="10.077559">
<ele>15.073116</ele>
<time>2026-07-16T17:05:36.000Z</time>
</trkpt>
<trkpt lat="57.586133" lon="10.077540">
<ele>15.073116</ele>
<time>2026-07-16T17:05:37.000Z</time>
</trkpt>
<trkpt lat="57.586148" lon="10.077528">
<ele>15.073116</ele>
<time>2026-07-16T17:05:38.000Z</time>
</trkpt>
<trkpt lat="57.586171" lon="10.077511">
<ele>15.073116</ele>
<time>2026-07-16T17:05:39.000Z</time>
</trkpt>
<trkpt lat="57.586203" lon="10.077482">
<ele>15.073116</ele>
<time>2026-07-16T17:05:40.000Z</time>
</trkpt>
<trkpt lat="57.586228" lon="10.077452">
<ele>15.073116</ele>
<time>2026-07-16T17:05:41.000Z</time>
</trkpt>
<trkpt lat="57.586254" lon="10.077428">
<ele>15.073116</ele>
<time>2026-07-16T17:05:42.000Z</time>
</trkpt>
<trkpt lat="57.586281" lon="10.077408">
<ele>15.073116</ele>
<time>2026-07-16T17:05:43.000Z</time>
</trkpt>
<trkpt lat="57.586302" lon="10.077390">
<ele>15.073116</ele>
<time>2026-07-16T17:05:44.000Z</time>
</trkpt>
<trkpt lat="57.586321" lon="10.077375">
<ele>15.073116</ele>
<time>2026-07-16T17:05:45.000Z</time>
</trkpt>
<trkpt lat="57.586346" lon="10.077364">
<ele>15.073116</ele>
<time>2026-07-16T17:05:46.000Z</time>
</trkpt>
<trkpt lat="57.586363" lon="10.077360">
<ele>15.073116</ele>
<time>2026-07-16T17:05:47.000Z</time>
</trkpt>
<trkpt lat="57.586369" lon="10.077358">
<ele>15.073116</ele>
<time>2026-07-16T17:05:48.000Z</time>
</trkpt>
<trkpt lat="57.586356" lon="10.077366">
<ele>15.073116</ele>
<time>2026-07-16T17:05:58.000Z</time>
</trkpt>
<trkpt lat="57.586348" lon="10.077370">
<ele>15.073116</ele>
<time>2026-07-16T17:05:59.000Z</time>
</trkpt>
<trkpt lat="57.586337" lon="10.077374">
<ele>15.073116</ele>
<time>2026-07-16T17:06:00.000Z</time>
</trkpt>
<trkpt lat="57.586329" lon="10.077378">
<ele>15.073116</ele>
<time>2026-07-16T17:06:01.000Z</time>
</trkpt>
<trkpt lat="57.586321" lon="10.077382">
<ele>15.073116</ele>
<time>2026-07-16T17:06:02.000Z</time>
</trkpt>
<trkpt lat="57.586313" lon="10.077387">
<ele>15.073116</ele>
<time>2026-07-16T17:06:03.000Z</time>
</trkpt>
<trkpt lat="57.586306" lon="10.077392">
<ele>15.073116</ele>
<time>2026-07-16T17:06:04.000Z</time>
</trkpt>
<trkpt lat="57.586301" lon="10.077398">
<ele>15.073116</ele>
<time>2026-07-16T17:06:05.000Z</time>
</trkpt>
<trkpt lat="57.586292" lon="10.077405">
<ele>15.073116</ele>
<time>2026-07-16T17:06:06.000Z</time>
</trkpt>
<trkpt lat="57.586283" lon="10.077413">
<ele>15.073116</ele>
<time>2026-07-16T17:06:07.000Z</time>
</trkpt>
<trkpt lat="57.586276" lon="10.077420">
<ele>15.073116</ele>
<time>2026-07-16T17:06:08.000Z</time>
</trkpt>
<trkpt lat="57.586268" lon="10.077430">
<ele>15.073116</ele>
<time>2026-07-16T17:06:09.000Z</time>
</trkpt>
<trkpt lat="57.586257" lon="10.077440">
<ele>15.073116</ele>
<time>2026-07-16T17:06:10.000Z</time>
</trkpt>
<trkpt lat="57.586249" lon="10.077448">
<ele>15.073116</ele>
<time>2026-07-16T17:06:11.000Z</time>
</trkpt>
<trkpt lat="57.586238" lon="10.077453">
<ele>15.073116</ele>
<time>2026-07-16T17:06:12.000Z</time>
</trkpt>
<trkpt lat="57.586227" lon="10.077459">
<ele>15.073116</ele>
<time>2026-07-16T17:06:13.000Z</time>
</trkpt>
<trkpt lat="57.586213" lon="10.077466">
<ele>15.073116</ele>
<time>2026-07-16T17:06:14.000Z</time>
</trkpt>
<trkpt lat="57.586200" lon="10.077473">
<ele>15.073116</ele>
<time>2026-07-16T17:06:15.000Z</time>
</trkpt>
<trkpt lat="57.586186" lon="10.077481">
<ele>15.073116</ele>
<time>2026-07-16T17:06:16.000Z</time>
</trkpt>
<trkpt lat="57.586174" lon="10.077489">
<ele>15.073116</ele>
<time>2026-07-16T17:06:17.000Z</time>
</trkpt>
<trkpt lat="57.586162" lon="10.077498">
<ele>15.073116</ele>
<time>2026-07-16T17:06:18.000Z</time>
</trkpt>
<trkpt lat="57.586150" lon="10.077509">
<ele>15.073116</ele>
<time>2026-07-16T17:06:19.000Z</time>
</trkpt>
<trkpt lat="57.586142" lon="10.077519">
<ele>15.073116</ele>
<time>2026-07-16T17:06:20.000Z</time>
</trkpt>
<trkpt lat="57.586129" lon="10.077530">
<ele>15.073116</ele>
<time>2026-07-16T17:06:21.000Z</time>
</trkpt>
<trkpt lat="57.586119" lon="10.077538">
<ele>15.073116</ele>
<time>2026-07-16T17:06:22.000Z</time>
</trkpt>
<trkpt lat="57.586103" lon="10.077546">
<ele>15.073116</ele>
<time>2026-07-16T17:06:23.000Z</time>
</trkpt>
<trkpt lat="57.586090" lon="10.077557">
<ele>15.073116</ele>
<time>2026-07-16T17:06:24.000Z</time>
</trkpt>
<trkpt lat="57.586078" lon="10.077567">
<ele>15.073116</ele>
<time>2026-07-16T17:06:25.000Z</time>
</trkpt>
<trkpt lat="57.586067" lon="10.077573">
<ele>15.073116</ele>
<time>2026-07-16T17:06:26.000Z</time>
</trkpt>
<trkpt lat="57.586055" lon="10.077580">
<ele>15.073116</ele>
<time>2026-07-16T17:06:27.000Z</time>
</trkpt>
<trkpt lat="57.586044" lon="10.077588">
<ele>15.073116</ele>
<time>2026-07-16T17:06:28.000Z</time>
</trkpt>
<trkpt lat="57.586030" lon="10.077596">
<ele>15.073116</ele>
<time>2026-07-16T17:06:29.000Z</time>
</trkpt>
<trkpt lat="57.586017" lon="10.077605">
<ele>15.073116</ele>
<time>2026-07-16T17:06:30.000Z</time>
</trkpt>
<trkpt lat="57.586011" lon="10.077613">
<ele>15.073116</ele>
<time>2026-07-16T17:06:31.000Z</time>
</trkpt>
<trkpt lat="57.586004" lon="10.077622">
<ele>15.073116</ele>
<time>2026-07-16T17:06:32.000Z</time>
</trkpt>
<trkpt lat="57.585994" lon="10.077630">
<ele>15.073116</ele>
<time>2026-07-16T17:06:33.000Z</time>
</trkpt>
<trkpt lat="57.585991" lon="10.077632">
<ele>15.073116</ele>
<time>2026-07-16T17:06:34.000Z</time>
</trkpt>
<trkpt lat="57.585991" lon="10.077632">
<ele>15.073116</ele>
<time>2026-07-16T17:06:38.000Z</time>
</trkpt>
</trkseg>
</trk>
</gpx>